<?xml version='1.0' encoding='UTF-8'?><gpx version="1.1" creator="JPX - https://github.com/jenetics/jpx" xmlns="http://www.topografix.com/GPX/1/1"><trk><trkseg><trkpt lat="44.65760514287516" lon="8.041781381571056"><ele>237.0</ele><time>2026-04-12T06:29:29.999Z</time></trkpt><trkpt lat="44.65761508205541" lon="8.04189893750155"><ele>237.0</ele><time>2026-04-12T06:29:32.999Z</time></trkpt><trkpt lat="44.65760394115208" lon="8.0419984213278"><ele>237.0</ele><time>2026-04-12T06:29:34.999Z</time></trkpt><trkpt lat="44.657587556656196" lon="8.042124058312169"><ele>237.0</ele><time>2026-04-12T06:29:36.999Z</time></trkpt><trkpt lat="44.65757090097633" lon="8.042281561270997"><ele>237.0</ele><time>2026-04-12T06:29:38.999Z</time></trkpt><trkpt lat="44.65755753155649" lon="8.042452727654391"><ele>235.66666666666666</ele><time>2026-04-12T06:29:40.999Z</time></trkpt><trkpt lat="44.65755784130235" lon="8.042645412469145"><ele>234.33333333333331</ele><time>2026-04-12T06:29:42.999Z</time></trkpt><trkpt lat="44.6575507527947" lon="8.042740988683704"><ele>233.0</ele><time>2026-04-12T06:29:43.999Z</time></trkpt><trkpt lat="44.65754576210197" lon="8.04284366056051"><ele>231.66666666666666</ele><time>2026-04-12T06:29:44.999Z</time></trkpt><trkpt lat="44.65755234632777" lon="8.042947603289369"><ele>230.33333333333331</ele><time>2026-04-12T06:29:45.999Z</time></trkpt><trkpt lat="44.65756107539248" lon="8.04304919176157"><ele>229.0</ele><time>2026-04-12T06:29:46.999Z</time></trkpt><trkpt lat="44.65757807170294" lon="8.043159036274389"><ele>229.0</ele><time>2026-04-12T06:29:47.999Z</time></trkpt><trkpt lat="44.657595060534454" lon="8.043265889416782"><ele>229.0</ele><time>2026-04-12T06:29:48.999Z</time></trkpt><trkpt lat="44.65762938068699" lon="8.043358958941166"><ele>229.0</ele><time>2026-04-12T06:29:49.999Z</time></trkpt><trkpt lat="44.65765091843277" lon="8.043454625956864"><ele>229.0</ele><time>2026-04-12T06:29:50.999Z</time></trkpt><trkpt lat="44.657680132218196" lon="8.043545768883257"><ele>229.0</ele><time>2026-04-12T06:29:51.999Z</time></trkpt><trkpt lat="44.657705266090346" lon="8.043641898931336"><ele>229.0</ele><time>2026-04-12T06:29:52.999Z</time></trkpt><trkpt lat="44.65772906702978" lon="8.043737238339537"><ele>229.0</ele><time>2026-04-12T06:29:53.999Z</time></trkpt><trkpt lat="44.657748622713065" lon="8.043830177479299"><ele>228.42857142857142</ele><time>2026-04-12T06:29:54.999Z</time></trkpt><trkpt lat="44.6577637097975" lon="8.043934895380481"><ele>227.8571428571429</ele><time>2026-04-12T06:29:55.999Z</time></trkpt><trkpt lat="44.65777654490154" lon="8.044034598330793"><ele>227.2857142857143</ele><time>2026-04-12T06:29:56.999Z</time></trkpt><trkpt lat="44.65778397328646" lon="8.044140746998995"><ele>226.71428571428572</ele><time>2026-04-12T06:29:57.999Z</time></trkpt><trkpt lat="44.65778078083455" lon="8.044251389427151"><ele>226.14285714285717</ele><time>2026-04-12T06:29:58.999Z</time></trkpt><trkpt lat="44.65778451953519" lon="8.044350375258434"><ele>225.5714285714286</ele><time>2026-04-12T06:29:59.999Z</time></trkpt><trkpt lat="44.65779551221045" lon="8.04444530226467"><ele>225.00000000000003</ele><time>2026-04-12T06:30:00.999Z</time></trkpt><trkpt lat="44.65780566989492" lon="8.044544673028176"><ele>224.2</ele><time>2026-04-12T06:30:01.999Z</time></trkpt><trkpt lat="44.65782101686147" lon="8.044643364807841"><ele>223.4</ele><time>2026-04-12T06:30:02.999Z</time></trkpt><trkpt lat="44.6578291864517" lon="8.044734836657637"><ele>222.60000000000002</ele><time>2026-04-12T06:30:03.999Z</time></trkpt><trkpt lat="44.65785415329019" lon="8.044906488916483"><ele>221.8</ele><time>2026-04-12T06:30:05.999Z</time></trkpt><trkpt lat="44.657879789745024" lon="8.0450504132526"><ele>221.0</ele><time>2026-04-12T06:30:07.999Z</time></trkpt><trkpt lat="44.657909923436755" lon="8.045189264990192"><ele>220.8</ele><time>2026-04-12T06:30:09.999Z</time></trkpt><trkpt lat="44.65793684280608" lon="8.04532875474124"><ele>220.60000000000002</ele><time>2026-04-12T06:30:11.999Z</time></trkpt><trkpt lat="44.6579560948361" lon="8.04548181906423"><ele>220.4</ele><time>2026-04-12T06:30:13.999Z</time></trkpt><trkpt lat="44.65797771088728" lon="8.0456450013114"><ele>220.2</ele><time>2026-04-12T06:30:15.999Z</time></trkpt><trkpt lat="44.658024699383624" lon="8.045769528823671"><ele>220.0</ele><time>2026-04-12T06:30:17.999Z</time></trkpt><trkpt lat="44.658073153941785" lon="8.045913854186558"><ele>220.4</ele><time>2026-04-12T06:30:19.999Z</time></trkpt><trkpt lat="44.65812581009653" lon="8.04604003740521"><ele>220.8</ele><time>2026-04-12T06:30:21.999Z</time></trkpt><trkpt lat="44.65818702533267" lon="8.046127807839849"><ele>221.2</ele><time>2026-04-12T06:30:23.999Z</time></trkpt><trkpt lat="44.65822779453105" lon="8.04624874579032"><ele>221.6</ele><time>2026-04-12T06:30:26Z</time></trkpt><trkpt lat="44.658260907242884" lon="8.046352088064005"><ele>222.0</ele><time>2026-04-12T06:30:28Z</time></trkpt><trkpt lat="44.658288544137804" lon="8.046462309382584"><ele>222.0</ele><time>2026-04-12T06:30:30Z</time></trkpt><trkpt lat="44.65831573124108" lon="8.046575724398906"><ele>222.0</ele><time>2026-04-12T06:30:33Z</time></trkpt><trkpt lat="44.65838386992217" lon="8.046641608896058"><ele>222.0</ele><time>2026-04-12T06:30:38Z</time></trkpt><trkpt lat="44.658542109011265" lon="8.046719692089576"><ele>222.0</ele><time>2026-04-12T06:31:03Z</time></trkpt><trkpt lat="44.6586100717637" lon="8.046687973830425"><ele>222.0</ele><time>2026-04-12T06:31:05Z</time></trkpt><trkpt lat="44.65868423773733" lon="8.046652072807472"><ele>221.8</ele><time>2026-04-12T06:31:07Z</time></trkpt><trkpt lat="44.65877376130849" lon="8.046615858553272"><ele>221.6</ele><time>2026-04-12T06:31:09Z</time></trkpt><trkpt lat="44.658863452960254" lon="8.0465848454708"><ele>221.40000000000003</ele><time>2026-04-12T06:31:11Z</time></trkpt><trkpt lat="44.6589518729078" lon="8.046537273952623"><ele>221.20000000000002</ele><time>2026-04-12T06:31:13Z</time></trkpt><trkpt lat="44.6590541489753" lon="8.046482469442333"><ele>221.0</ele><time>2026-04-12T06:31:14.999Z</time></trkpt><trkpt lat="44.65911898611456" lon="8.046453595418672"><ele>221.0</ele><time>2026-04-12T06:31:15.999Z</time></trkpt><trkpt lat="44.659232187632185" lon="8.046400953321044"><ele>221.00000000000003</ele><time>2026-04-12T06:31:17.999Z</time></trkpt><trkpt lat="44.6593441669527" lon="8.046345780300955"><ele>221.00000000000003</ele><time>2026-04-12T06:31:19.999Z</time></trkpt><trkpt lat="44.659462734748935" lon="8.046295099434838"><ele>221.0</ele><time>2026-04-12T06:31:21.999Z</time></trkpt><trkpt lat="44.65952544514927" lon="8.046265956797146"><ele>221.0</ele><time>2026-04-12T06:31:22.999Z</time></trkpt><trkpt lat="44.659593155773386" lon="8.046234245380647"><ele>221.00000000000003</ele><time>2026-04-12T06:31:23.999Z</time></trkpt><trkpt lat="44.659659479379094" lon="8.046206112864855"><ele>221.0</ele><time>2026-04-12T06:31:24.999Z</time></trkpt><trkpt lat="44.65972916068098" lon="8.046177009146874"><ele>221.0</ele><time>2026-04-12T06:31:25.999Z</time></trkpt><trkpt lat="44.659798104164146" lon="8.046148573652045"><ele>221.0</ele><time>2026-04-12T06:31:26.999Z</time></trkpt><trkpt lat="44.65986444468805" lon="8.04611487018913"><ele>221.0</ele><time>2026-04-12T06:31:27.999Z</time></trkpt><trkpt lat="44.65993397482592" lon="8.046081713684586"><ele>221.00000000000003</ele><time>2026-04-12T06:31:28.999Z</time></trkpt><trkpt lat="44.660005994007996" lon="8.046057295835778"><ele>221.0</ele><time>2026-04-12T06:31:29.999Z</time></trkpt><trkpt lat="44.6600754335098" lon="8.046026497943194"><ele>221.00000000000003</ele><time>2026-04-12T06:31:30.999Z</time></trkpt><trkpt lat="44.6601478045805" lon="8.045993001102891"><ele>221.0</ele><time>2026-04-12T06:31:31.999Z</time></trkpt><trkpt lat="44.66021840467123" lon="8.045957101254317"><ele>221.0</ele><time>2026-04-12T06:31:32.999Z</time></trkpt><trkpt lat="44.6602863543846" lon="8.045928223946497"><ele>221.0</ele><time>2026-04-12T06:31:33.999Z</time></trkpt><trkpt lat="44.660356508437815" lon="8.045895693577622"><ele>221.00000000000003</ele><time>2026-04-12T06:31:34.999Z</time></trkpt><trkpt lat="44.66042938665595" lon="8.045864936853814"><ele>221.0</ele><time>2026-04-12T06:31:35.999Z</time></trkpt><trkpt lat="44.660504491969" lon="8.04583176798992"><ele>220.83333333333334</ele><time>2026-04-12T06:31:36.999Z</time></trkpt><trkpt lat="44.66057674399718" lon="8.045800021778497"><ele>220.66666666666669</ele><time>2026-04-12T06:31:37.999Z</time></trkpt><trkpt lat="44.660651431760655" lon="8.045766569816514"><ele>220.5</ele><time>2026-04-12T06:31:38.999Z</time></trkpt><trkpt lat="44.66072871751621" lon="8.045736511621605"><ele>220.33333333333331</ele><time>2026-04-12T06:31:39.999Z</time></trkpt><trkpt lat="44.66080517328075" lon="8.045695641891788"><ele>220.16666666666666</ele><time>2026-04-12T06:31:40.999Z</time></trkpt><trkpt lat="44.66088143274901" lon="8.045669494360899"><ele>220.0</ele><time>2026-04-12T06:31:41.999Z</time></trkpt><trkpt lat="44.66095356023371" lon="8.045638998296015"><ele>219.49999999999997</ele><time>2026-04-12T06:31:42.999Z</time></trkpt><trkpt lat="44.66102653920597" lon="8.045606269128388"><ele>219.0</ele><time>2026-04-12T06:31:43.999Z</time></trkpt><trkpt lat="44.66110452403381" lon="8.045571771693798"><ele>218.5</ele><time>2026-04-12T06:31:44.999Z</time></trkpt><trkpt lat="44.66118000832175" lon="8.045539779078677"><ele>218.0</ele><time>2026-04-12T06:31:45.999Z</time></trkpt><trkpt lat="44.66125724957407" lon="8.045497490489588"><ele>217.49999999999997</ele><time>2026-04-12T06:31:46.999Z</time></trkpt><trkpt lat="44.66133360203869" lon="8.045461831791382"><ele>217.0</ele><time>2026-04-12T06:31:47.999Z</time></trkpt><trkpt lat="44.66140898930396" lon="8.045427555005883"><ele>216.99999999999997</ele><time>2026-04-12T06:31:48.999Z</time></trkpt><trkpt lat="44.661480705311895" lon="8.045392431829086"><ele>217.0</ele><time>2026-04-12T06:31:49.999Z</time></trkpt><trkpt lat="44.661561053006444" lon="8.045355902841573"><ele>217.0</ele><time>2026-04-12T06:31:50.999Z</time></trkpt><trkpt lat="44.66163959057302" lon="8.045324959159391"><ele>217.0</ele><time>2026-04-12T06:31:51.999Z</time></trkpt><trkpt lat="44.661717501573584" lon="8.0453001420767"><ele>216.99999999999997</ele><time>2026-04-12T06:31:52.999Z</time></trkpt><trkpt lat="44.66179280356298" lon="8.045263571574019"><ele>217.0</ele><time>2026-04-12T06:31:53.999Z</time></trkpt><trkpt lat="44.6618725030461" lon="8.045228915650137"><ele>216.99999999999997</ele><time>2026-04-12T06:31:54.999Z</time></trkpt><trkpt lat="44.66194665639545" lon="8.045193301293923"><ele>217.0</ele><time>2026-04-12T06:31:55.999Z</time></trkpt><trkpt lat="44.66202311109843" lon="8.045155965684176"><ele>217.0</ele><time>2026-04-12T06:31:56.999Z</time></trkpt><trkpt lat="44.662102256523845" lon="8.045133400446094"><ele>217.0</ele><time>2026-04-12T06:31:57.999Z</time></trkpt><trkpt lat="44.66218316363471" lon="8.045107343556346"><ele>216.99999999999997</ele><time>2026-04-12T06:31:58.999Z</time></trkpt><trkpt lat="44.66226467531477" lon="8.045069789602143"><ele>217.0</ele><time>2026-04-12T06:31:59.999Z</time></trkpt><trkpt lat="44.662341643271844" lon="8.045023962809289"><ele>216.66666666666666</ele><time>2026-04-12T06:32:00.999Z</time></trkpt><trkpt lat="44.662424867516286" lon="8.044984111583567"><ele>216.33333333333331</ele><time>2026-04-12T06:32:01.999Z</time></trkpt><trkpt lat="44.662496782148715" lon="8.044951710497852"><ele>216.0</ele><time>2026-04-12T06:32:02.999Z</time></trkpt><trkpt lat="44.66257493408812" lon="8.04491770813656"><ele>215.66666666666669</ele><time>2026-04-12T06:32:03.999Z</time></trkpt><trkpt lat="44.662655279406785" lon="8.044876072314436"><ele>215.33333333333334</ele><time>2026-04-12T06:32:04.999Z</time></trkpt><trkpt lat="44.66273480207093" lon="8.04484264433285"><ele>215.0</ele><time>2026-04-12T06:32:05.999Z</time></trkpt><trkpt lat="44.662813956279" lon="8.044799983740441"><ele>214.2</ele><time>2026-04-12T06:32:06.999Z</time></trkpt><trkpt lat="44.66290204148846" lon="8.044761961671721"><ele>213.4</ele><time>2026-04-12T06:32:07.999Z</time></trkpt><trkpt lat="44.662983067998866" lon="8.04472002783489"><ele>212.60000000000002</ele><time>2026-04-12T06:32:08.999Z</time></trkpt><trkpt lat="44.66306487214761" lon="8.044675539113166"><ele>211.8</ele><time>2026-04-12T06:32:09.999Z</time></trkpt><trkpt lat="44.663149571956545" lon="8.044631815335475"><ele>211.0</ele><time>2026-04-12T06:32:10.999Z</time></trkpt><trkpt lat="44.66323877182992" lon="8.044592155249942"><ele>210.99999999999997</ele><time>2026-04-12T06:32:11.999Z</time></trkpt><trkpt lat="44.66332028695466" lon="8.044554207297006"><ele>211.0</ele><time>2026-04-12T06:32:12.999Z</time></trkpt><trkpt lat="44.66340455087521" lon="8.044514818720861"><ele>211.0</ele><time>2026-04-12T06:32:13.999Z</time></trkpt><trkpt lat="44.66348515106251" lon="8.044483505137768"><ele>211.0</ele><time>2026-04-12T06:32:14.999Z</time></trkpt><trkpt lat="44.6635722576102" lon="8.044437369411707"><ele>210.99999999999997</ele><time>2026-04-12T06:32:15.999Z</time></trkpt><trkpt lat="44.66366222819668" lon="8.044405988163032"><ele>211.0</ele><time>2026-04-12T06:32:16.999Z</time></trkpt><trkpt lat="44.66374535790394" lon="8.044362252664591"><ele>210.66666666666666</ele><time>2026-04-12T06:32:17.999Z</time></trkpt><trkpt lat="44.6638317732231" lon="8.044328348112701"><ele>210.33333333333331</ele><time>2026-04-12T06:32:18.999Z</time></trkpt><trkpt lat="44.66391834501695" lon="8.044290421146387"><ele>210.0</ele><time>2026-04-12T06:32:19.999Z</time></trkpt><trkpt lat="44.66400118319653" lon="8.044251307098852"><ele>209.66666666666669</ele><time>2026-04-12T06:32:20.999Z</time></trkpt><trkpt lat="44.66408638334644" lon="8.044211390556468"><ele>209.33333333333334</ele><time>2026-04-12T06:32:21.999Z</time></trkpt><trkpt lat="44.66417160265256" lon="8.044171485411121"><ele>209.0</ele><time>2026-04-12T06:32:22.999Z</time></trkpt><trkpt lat="44.66425888447131" lon="8.04413264805142"><ele>208.79999999999998</ele><time>2026-04-12T06:32:23.999Z</time></trkpt><trkpt lat="44.664350230231285" lon="8.044084485088076"><ele>208.6</ele><time>2026-04-12T06:32:24.998Z</time></trkpt><trkpt lat="44.66443845310941" lon="8.044049911653321"><ele>208.4</ele><time>2026-04-12T06:32:25.998Z</time></trkpt><trkpt lat="44.664529078897345" lon="8.0440061104731"><ele>208.2</ele><time>2026-04-12T06:32:26.998Z</time></trkpt><trkpt lat="44.66461788918903" lon="8.043961630981892"><ele>208.0</ele><time>2026-04-12T06:32:27.998Z</time></trkpt><trkpt lat="44.66470541962499" lon="8.043922133004125"><ele>208.0</ele><time>2026-04-12T06:32:28.998Z</time></trkpt><trkpt lat="44.66479231706309" lon="8.043888077508592"><ele>208.0</ele><time>2026-04-12T06:32:29.998Z</time></trkpt><trkpt lat="44.66488505988841" lon="8.043844100375397"><ele>208.0</ele><time>2026-04-12T06:32:31Z</time></trkpt><trkpt lat="44.664971491785906" lon="8.04379867122282"><ele>208.0</ele><time>2026-04-12T06:32:32Z</time></trkpt><trkpt lat="44.665061811099406" lon="8.043762782493106"><ele>208.0</ele><time>2026-04-12T06:32:33Z</time></trkpt><trkpt lat="44.66515073905889" lon="8.04371971549633"><ele>208.0</ele><time>2026-04-12T06:32:34Z</time></trkpt><trkpt lat="44.66523762755053" lon="8.043682454066257"><ele>208.0</ele><time>2026-04-12T06:32:35Z</time></trkpt><trkpt lat="44.665328674695004" lon="8.043642182640333"><ele>208.0</ele><time>2026-04-12T06:32:36Z</time></trkpt><trkpt lat="44.66541877748696" lon="8.043601581123667"><ele>208.0</ele><time>2026-04-12T06:32:37Z</time></trkpt><trkpt lat="44.6655138017991" lon="8.043564123390842"><ele>208.0</ele><time>2026-04-12T06:32:38Z</time></trkpt><trkpt lat="44.66560499122786" lon="8.043521722392171"><ele>208.0</ele><time>2026-04-12T06:32:39Z</time></trkpt><trkpt lat="44.66569116894617" lon="8.04348634948823"><ele>208.0</ele><time>2026-04-12T06:32:40Z</time></trkpt><trkpt lat="44.66578231458635" lon="8.043448305798957"><ele>208.0</ele><time>2026-04-12T06:32:41Z</time></trkpt><trkpt lat="44.66586910889965" lon="8.043409201333159"><ele>208.0</ele><time>2026-04-12T06:32:42Z</time></trkpt><trkpt lat="44.66595441348604" lon="8.043365633356329"><ele>208.0</ele><time>2026-04-12T06:32:43Z</time></trkpt><trkpt lat="44.666052457738616" lon="8.043321016487688"><ele>207.0</ele><time>2026-04-12T06:32:44Z</time></trkpt><trkpt lat="44.666140270469334" lon="8.04328609942987"><ele>206.0</ele><time>2026-04-12T06:32:45Z</time></trkpt><trkpt lat="44.66623382332959" lon="8.043248952384443"><ele>205.0</ele><time>2026-04-12T06:32:46Z</time></trkpt><trkpt lat="44.66632780938815" lon="8.043200880772748"><ele>204.0</ele><time>2026-04-12T06:32:47Z</time></trkpt><trkpt lat="44.666417428732586" lon="8.043161711061494"><ele>203.0</ele><time>2026-04-12T06:32:48Z</time></trkpt><trkpt lat="44.66650573843045" lon="8.043121993628496"><ele>203.0</ele><time>2026-04-12T06:32:49Z</time></trkpt><trkpt lat="44.666601286353504" lon="8.043077894744318"><ele>203.0</ele><time>2026-04-12T06:32:50Z</time></trkpt><trkpt lat="44.666695000964395" lon="8.043035981719726"><ele>203.0</ele><time>2026-04-12T06:32:51Z</time></trkpt><trkpt lat="44.666788234852795" lon="8.042988870967443"><ele>203.0</ele><time>2026-04-12T06:32:52Z</time></trkpt><trkpt lat="44.66688066912924" lon="8.042948296446752"><ele>203.0</ele><time>2026-04-12T06:32:53Z</time></trkpt><trkpt lat="44.66696971528269" lon="8.042906718153887"><ele>202.8</ele><time>2026-04-12T06:32:54Z</time></trkpt><trkpt lat="44.6670581988714" lon="8.04286727202195"><ele>202.60000000000002</ele><time>2026-04-12T06:32:55Z</time></trkpt><trkpt lat="44.667148959539894" lon="8.042826656221953"><ele>202.39999999999998</ele><time>2026-04-12T06:32:56Z</time></trkpt><trkpt lat="44.667238887819636" lon="8.042787578427316"><ele>202.2</ele><time>2026-04-12T06:32:57Z</time></trkpt><trkpt lat="44.66732952572971" lon="8.042750286655455"><ele>202.0</ele><time>2026-04-12T06:32:58Z</time></trkpt><trkpt lat="44.667419363382834" lon="8.042713119960068"><ele>202.0</ele><time>2026-04-12T06:32:59Z</time></trkpt><trkpt lat="44.66751182301526" lon="8.04267066624603"><ele>202.0</ele><time>2026-04-12T06:33:00Z</time></trkpt><trkpt lat="44.667601053217936" lon="8.042631979276317"><ele>202.0</ele><time>2026-04-12T06:33:01Z</time></trkpt><trkpt lat="44.66769396555479" lon="8.042597655106773"><ele>202.0</ele><time>2026-04-12T06:33:02Z</time></trkpt><trkpt lat="44.667776951170296" lon="8.042558199203526"><ele>202.0</ele><time>2026-04-12T06:33:03Z</time></trkpt><trkpt lat="44.667866431467665" lon="8.042516600962612"><ele>202.0</ele><time>2026-04-12T06:33:04Z</time></trkpt><trkpt lat="44.66796028645826" lon="8.042481867693992"><ele>202.0</ele><time>2026-04-12T06:33:05Z</time></trkpt><trkpt lat="44.668045553646095" lon="8.042442822768026"><ele>202.0</ele><time>2026-04-12T06:33:06Z</time></trkpt><trkpt lat="44.6681344312159" lon="8.042403384311173"><ele>202.0</ele><time>2026-04-12T06:33:07Z</time></trkpt><trkpt lat="44.6682211969568" lon="8.042365663716092"><ele>202.0</ele><time>2026-04-12T06:33:08Z</time></trkpt><trkpt lat="44.66830603399261" lon="8.042326984124715"><ele>201.66666666666666</ele><time>2026-04-12T06:33:09Z</time></trkpt><trkpt lat="44.668389133274616" lon="8.042292714059322"><ele>201.33333333333331</ele><time>2026-04-12T06:33:10Z</time></trkpt><trkpt lat="44.668475367909664" lon="8.04225612407828"><ele>201.0</ele><time>2026-04-12T06:33:11Z</time></trkpt><trkpt lat="44.668553684765484" lon="8.042218046301251"><ele>200.66666666666669</ele><time>2026-04-12T06:33:12Z</time></trkpt><trkpt lat="44.66863606927617" lon="8.042177018656407"><ele>200.33333333333334</ele><time>2026-04-12T06:33:13Z</time></trkpt><trkpt lat="44.66871817260871" lon="8.04213696796314"><ele>200.0</ele><time>2026-04-12T06:33:14Z</time></trkpt><trkpt lat="44.668800810476604" lon="8.042097826254347"><ele>199.66666666666669</ele><time>2026-04-12T06:33:15Z</time></trkpt><trkpt lat="44.66888060684415" lon="8.042064852720717"><ele>199.33333333333334</ele><time>2026-04-12T06:33:16Z</time></trkpt><trkpt lat="44.668962684060155" lon="8.042025237010762"><ele>199.0</ele><time>2026-04-12T06:33:17Z</time></trkpt><trkpt lat="44.66904115222051" lon="8.041986300468889"><ele>198.66666666666669</ele><time>2026-04-12T06:33:18Z</time></trkpt><trkpt lat="44.66911996016253" lon="8.04195366335018"><ele>198.33333333333334</ele><time>2026-04-12T06:33:19Z</time></trkpt><trkpt lat="44.669199234176254" lon="8.041916093710089"><ele>198.0</ele><time>2026-04-12T06:33:20Z</time></trkpt><trkpt lat="44.66927415277308" lon="8.041878486914984"><ele>198.0</ele><time>2026-04-12T06:33:21Z</time></trkpt><trkpt lat="44.66935172024778" lon="8.041843749297762"><ele>198.0</ele><time>2026-04-12T06:33:22Z</time></trkpt><trkpt lat="44.66942850353485" lon="8.041809179872752"><ele>198.0</ele><time>2026-04-12T06:33:23Z</time></trkpt><trkpt lat="44.66950568002582" lon="8.041775481682459"><ele>198.0</ele><time>2026-04-12T06:33:24Z</time></trkpt><trkpt lat="44.66958157376206" lon="8.041739538636056"><ele>198.0</ele><time>2026-04-12T06:33:24.999Z</time></trkpt><trkpt lat="44.669659151594324" lon="8.041705711118416"><ele>198.0</ele><time>2026-04-12T06:33:25.999Z</time></trkpt><trkpt lat="44.669735659675894" lon="8.04166884672714"><ele>198.16666666666666</ele><time>2026-04-12T06:33:26.999Z</time></trkpt><trkpt lat="44.66981120706631" lon="8.041636076439366"><ele>198.33333333333331</ele><time>2026-04-12T06:33:27.999Z</time></trkpt><trkpt lat="44.66988497295123" lon="8.041601645598094"><ele>198.5</ele><time>2026-04-12T06:33:28.999Z</time></trkpt><trkpt lat="44.66995604668418" lon="8.041572353023442"><ele>198.66666666666666</ele><time>2026-04-12T06:33:29.999Z</time></trkpt><trkpt lat="44.670032914406534" lon="8.04154211713216"><ele>198.83333333333331</ele><time>2026-04-12T06:33:30.999Z</time></trkpt><trkpt lat="44.67011078969662" lon="8.041512483671179"><ele>199.0</ele><time>2026-04-12T06:33:31.999Z</time></trkpt><trkpt lat="44.67017936305918" lon="8.041482250084268"><ele>199.16666666666666</ele><time>2026-04-12T06:33:32.999Z</time></trkpt><trkpt lat="44.670256436205975" lon="8.041453491401555"><ele>199.33333333333331</ele><time>2026-04-12T06:33:33.999Z</time></trkpt><trkpt lat="44.67033237994698" lon="8.04141520827505"><ele>199.5</ele><time>2026-04-12T06:33:34.999Z</time></trkpt><trkpt lat="44.67040913822907" lon="8.041378864951321"><ele>199.66666666666669</ele><time>2026-04-12T06:33:35.999Z</time></trkpt><trkpt lat="44.67048706049712" lon="8.041343339192649"><ele>199.83333333333334</ele><time>2026-04-12T06:33:36.999Z</time></trkpt><trkpt lat="44.670565139732766" lon="8.041308109479212"><ele>200.0</ele><time>2026-04-12T06:33:37.999Z</time></trkpt><trkpt lat="44.670642626385266" lon="8.041270174351897"><ele>200.00000000000003</ele><time>2026-04-12T06:33:38.999Z</time></trkpt><trkpt lat="44.6707245977408" lon="8.041239250366566"><ele>200.0</ele><time>2026-04-12T06:33:39.999Z</time></trkpt><trkpt lat="44.67079779107801" lon="8.041207928359466"><ele>200.0</ele><time>2026-04-12T06:33:40.999Z</time></trkpt><trkpt lat="44.6708711479014" lon="8.041174275480635"><ele>200.0</ele><time>2026-04-12T06:33:41.999Z</time></trkpt><trkpt lat="44.67093819145385" lon="8.041144050174786"><ele>200.0</ele><time>2026-04-12T06:33:42.999Z</time></trkpt><trkpt lat="44.67100166628253" lon="8.04110845504384"><ele>200.00000000000003</ele><time>2026-04-12T06:33:43.999Z</time></trkpt><trkpt lat="44.67106447843648" lon="8.041065663801342"><ele>200.0</ele><time>2026-04-12T06:33:44.999Z</time></trkpt><trkpt lat="44.67113605766917" lon="8.041027148452503"><ele>199.00000000000003</ele><time>2026-04-12T06:33:45.999Z</time></trkpt><trkpt lat="44.671209027657305" lon="8.040993098677191"><ele>198.0</ele><time>2026-04-12T06:33:46.999Z</time></trkpt><trkpt lat="44.67128556096599" lon="8.040960714123576"><ele>197.0</ele><time>2026-04-12T06:33:47.999Z</time></trkpt><trkpt lat="44.671371560189336" lon="8.040924804539557"><ele>196.0</ele><time>2026-04-12T06:33:48.999Z</time></trkpt><trkpt lat="44.67145755890838" lon="8.040888071955093"><ele>195.00000000000003</ele><time>2026-04-12T06:33:49.999Z</time></trkpt><trkpt lat="44.6715425112416" lon="8.040842744674316"><ele>194.0</ele><time>2026-04-12T06:33:50.999Z</time></trkpt><trkpt lat="44.67163119749757" lon="8.040799483692034"><ele>194.0</ele><time>2026-04-12T06:33:51.999Z</time></trkpt><trkpt lat="44.67172737776787" lon="8.040760520299786"><ele>194.0</ele><time>2026-04-12T06:33:52.999Z</time></trkpt><trkpt lat="44.6718194620137" lon="8.040725368436494"><ele>194.0</ele><time>2026-04-12T06:33:53.999Z</time></trkpt><trkpt lat="44.671911889460084" lon="8.040685543613186"><ele>194.0</ele><time>2026-04-12T06:33:54.999Z</time></trkpt><trkpt lat="44.672013295467465" lon="8.040653107345976"><ele>194.0</ele><time>2026-04-12T06:33:55.999Z</time></trkpt><trkpt lat="44.67210938576623" lon="8.040620272829909"><ele>194.0</ele><time>2026-04-12T06:33:56.999Z</time></trkpt><trkpt lat="44.67220433824659" lon="8.040578760127191"><ele>194.0</ele><time>2026-04-12T06:33:57.999Z</time></trkpt><trkpt lat="44.67229943126163" lon="8.04053071563098"><ele>194.0</ele><time>2026-04-12T06:33:58.999Z</time></trkpt><trkpt lat="44.67239981728213" lon="8.040485963913577"><ele>194.0</ele><time>2026-04-12T06:33:59.999Z</time></trkpt><trkpt lat="44.672496994319815" lon="8.040446514376608"><ele>194.0</ele><time>2026-04-12T06:34:00.999Z</time></trkpt><trkpt lat="44.672580002135334" lon="8.040418461049926"><ele>194.0</ele><time>2026-04-12T06:34:01.999Z</time></trkpt><trkpt lat="44.67267323207271" lon="8.040369598667409"><ele>194.0</ele><time>2026-04-12T06:34:02.999Z</time></trkpt><trkpt lat="44.67276836792748" lon="8.040327894473505"><ele>194.0</ele><time>2026-04-12T06:34:03.999Z</time></trkpt><trkpt lat="44.67286906403293" lon="8.040288398646464"><ele>194.0</ele><time>2026-04-12T06:34:04.999Z</time></trkpt><trkpt lat="44.67294878420506" lon="8.040248169053276"><ele>194.0</ele><time>2026-04-12T06:34:05.999Z</time></trkpt><trkpt lat="44.67302527094783" lon="8.040211929859915"><ele>193.66666666666669</ele><time>2026-04-12T06:34:06.999Z</time></trkpt><trkpt lat="44.67310216977349" lon="8.040174741681351"><ele>193.33333333333334</ele><time>2026-04-12T06:34:07.999Z</time></trkpt><trkpt lat="44.673178151116474" lon="8.040144720005681"><ele>193.0</ele><time>2026-04-12T06:34:08.999Z</time></trkpt><trkpt lat="44.67325334846937" lon="8.040110492934705"><ele>192.66666666666669</ele><time>2026-04-12T06:34:09.999Z</time></trkpt><trkpt lat="44.673330002660535" lon="8.040078115467688"><ele>192.33333333333334</ele><time>2026-04-12T06:34:10.999Z</time></trkpt><trkpt lat="44.67340393420298" lon="8.040048041003269"><ele>192.0</ele><time>2026-04-12T06:34:11.999Z</time></trkpt><trkpt lat="44.67347709009636" lon="8.040010012939613"><ele>191.99999999999997</ele><time>2026-04-12T06:34:12.999Z</time></trkpt><trkpt lat="44.673546912048025" lon="8.039979712913707"><ele>192.0</ele><time>2026-04-12T06:34:13.999Z</time></trkpt><trkpt lat="44.673624520740674" lon="8.039953566059829"><ele>192.0</ele><time>2026-04-12T06:34:14.999Z</time></trkpt><trkpt lat="44.67369524783078" lon="8.039920147304308"><ele>192.0</ele><time>2026-04-12T06:34:15.999Z</time></trkpt><trkpt lat="44.673770068978804" lon="8.039899718852284"><ele>192.0</ele><time>2026-04-12T06:34:16.999Z</time></trkpt><trkpt lat="44.67383399614692" lon="8.039865001215029"><ele>191.99999999999997</ele><time>2026-04-12T06:34:17.999Z</time></trkpt><trkpt lat="44.67389819109708" lon="8.039836878572052"><ele>192.0</ele><time>2026-04-12T06:34:18.999Z</time></trkpt><trkpt lat="44.67396469221872" lon="8.039802294326227"><ele>191.99999999999997</ele><time>2026-04-12T06:34:19.999Z</time></trkpt><trkpt lat="44.67403009879615" lon="8.039767385306208"><ele>192.0</ele><time>2026-04-12T06:34:20.999Z</time></trkpt><trkpt lat="44.67409531405804" lon="8.039734562869409"><ele>192.0</ele><time>2026-04-12T06:34:21.999Z</time></trkpt><trkpt lat="44.67416211277328" lon="8.039704324296586"><ele>192.0</ele><time>2026-04-12T06:34:22.999Z</time></trkpt><trkpt lat="44.67423393246933" lon="8.03967544587151"><ele>192.0</ele><time>2026-04-12T06:34:23.999Z</time></trkpt><trkpt lat="44.674299631035176" lon="8.039645168316913"><ele>191.99999999999997</ele><time>2026-04-12T06:34:24.999Z</time></trkpt><trkpt lat="44.67436607802035" lon="8.039616700332518"><ele>192.0</ele><time>2026-04-12T06:34:25.999Z</time></trkpt><trkpt lat="44.674432282375754" lon="8.039586818093307"><ele>191.85714285714283</ele><time>2026-04-12T06:34:26.999Z</time></trkpt><trkpt lat="44.6744975007267" lon="8.039551841023048"><ele>191.71428571428572</ele><time>2026-04-12T06:34:27.999Z</time></trkpt><trkpt lat="44.67456646096683" lon="8.039521733925529"><ele>191.57142857142856</ele><time>2026-04-12T06:34:28.999Z</time></trkpt><trkpt lat="44.67463448535354" lon="8.039489272042458"><ele>191.42857142857142</ele><time>2026-04-12T06:34:29.999Z</time></trkpt><trkpt lat="44.674709392810236" lon="8.03945987657154"><ele>191.28571428571428</ele><time>2026-04-12T06:34:30.999Z</time></trkpt><trkpt lat="44.67478304015687" lon="8.039431574612"><ele>191.14285714285714</ele><time>2026-04-12T06:34:31.999Z</time></trkpt><trkpt lat="44.674851152811506" lon="8.03939862848021"><ele>191.0</ele><time>2026-04-12T06:34:32.999Z</time></trkpt><trkpt lat="44.674920843034165" lon="8.039364752656763"><ele>191.0</ele><time>2026-04-12T06:34:33.999Z</time></trkpt><trkpt lat="44.6749943446665" lon="8.03933031581756"><ele>191.0</ele><time>2026-04-12T06:34:34.999Z</time></trkpt><trkpt lat="44.675067125479124" lon="8.039294186580326"><ele>191.0</ele><time>2026-04-12T06:34:35.999Z</time></trkpt><trkpt lat="44.67514108172107" lon="8.03926065282618"><ele>191.0</ele><time>2026-04-12T06:34:37Z</time></trkpt><trkpt lat="44.675215646239664" lon="8.039228271115828"><ele>191.0</ele><time>2026-04-12T06:34:38Z</time></trkpt><trkpt lat="44.675291332657785" lon="8.039194619086587"><ele>191.0</ele><time>2026-04-12T06:34:39Z</time></trkpt><trkpt lat="44.675365945495415" lon="8.039163904926932"><ele>191.16666666666666</ele><time>2026-04-12T06:34:40Z</time></trkpt><trkpt lat="44.6754356935972" lon="8.039132003872794"><ele>191.33333333333331</ele><time>2026-04-12T06:34:41Z</time></trkpt><trkpt lat="44.67551326214673" lon="8.039100951065015"><ele>191.5</ele><time>2026-04-12T06:34:42Z</time></trkpt><trkpt lat="44.675582830723414" lon="8.039069587732584"><ele>191.66666666666666</ele><time>2026-04-12T06:34:43Z</time></trkpt><trkpt lat="44.67566668217894" lon="8.039041176685586"><ele>191.83333333333334</ele><time>2026-04-12T06:34:44Z</time></trkpt><trkpt lat="44.67573239618131" lon="8.03900349797527"><ele>192.0</ele><time>2026-04-12T06:34:45Z</time></trkpt><trkpt lat="44.67580219205027" lon="8.038963718779838"><ele>192.0</ele><time>2026-04-12T06:34:46Z</time></trkpt><trkpt lat="44.67588416245342" lon="8.038925891401927"><ele>192.0</ele><time>2026-04-12T06:34:47Z</time></trkpt><trkpt lat="44.675954207069104" lon="8.038889005046391"><ele>192.0</ele><time>2026-04-12T06:34:48Z</time></trkpt><trkpt lat="44.67602891796526" lon="8.038877444715126"><ele>192.0</ele><time>2026-04-12T06:34:49Z</time></trkpt><trkpt lat="44.676106840663884" lon="8.038848356905797"><ele>192.0</ele><time>2026-04-12T06:34:50Z</time></trkpt><trkpt lat="44.67617817549935" lon="8.038810246713249"><ele>192.0</ele><time>2026-04-12T06:34:51Z</time></trkpt><trkpt lat="44.676251724600036" lon="8.038772801118537"><ele>191.5</ele><time>2026-04-12T06:34:52Z</time></trkpt><trkpt lat="44.67632851393339" lon="8.038737813992288"><ele>191.0</ele><time>2026-04-12T06:34:53Z</time></trkpt><trkpt lat="44.67640189220012" lon="8.038704001792777"><ele>190.5</ele><time>2026-04-12T06:34:54Z</time></trkpt><trkpt lat="44.67647744544588" lon="8.038670792933415"><ele>190.0</ele><time>2026-04-12T06:34:55Z</time></trkpt><trkpt lat="44.676547887323416" lon="8.038637684984588"><ele>189.5</ele><time>2026-04-12T06:34:56Z</time></trkpt><trkpt lat="44.67662382980998" lon="8.038603441561426"><ele>189.0</ele><time>2026-04-12T06:34:57Z</time></trkpt><trkpt lat="44.67669214254525" lon="8.03857282563722"><ele>189.0</ele><time>2026-04-12T06:34:58Z</time></trkpt><trkpt lat="44.676766715027256" lon="8.038540387054205"><ele>189.0</ele><time>2026-04-12T06:34:59Z</time></trkpt><trkpt lat="44.67683929306666" lon="8.038512440466764"><ele>189.0</ele><time>2026-04-12T06:35:00Z</time></trkpt><trkpt lat="44.676905743182296" lon="8.038476864671603"><ele>189.0</ele><time>2026-04-12T06:35:01Z</time></trkpt><trkpt lat="44.676973676676425" lon="8.038447342337362"><ele>189.0</ele><time>2026-04-12T06:35:02Z</time></trkpt><trkpt lat="44.677050873846106" lon="8.038414404304413"><ele>189.0</ele><time>2026-04-12T06:35:03Z</time></trkpt><trkpt lat="44.67711718526568" lon="8.038382282039436"><ele>189.0</ele><time>2026-04-12T06:35:04Z</time></trkpt><trkpt lat="44.6771863870076" lon="8.038346274935087"><ele>189.0</ele><time>2026-04-12T06:35:05Z</time></trkpt><trkpt lat="44.67726313907988" lon="8.038311955566549"><ele>189.0</ele><time>2026-04-12T06:35:06Z</time></trkpt><trkpt lat="44.67733211852432" lon="8.038280306447191"><ele>189.0</ele><time>2026-04-12T06:35:07Z</time></trkpt><trkpt lat="44.67740795547585" lon="8.038244182597158"><ele>189.0</ele><time>2026-04-12T06:35:08Z</time></trkpt><trkpt lat="44.67748022183017" lon="8.038210801361219"><ele>189.0</ele><time>2026-04-12T06:35:09Z</time></trkpt><trkpt lat="44.67755544507689" lon="8.038175504324863"><ele>189.0</ele><time>2026-04-12T06:35:10Z</time></trkpt><trkpt lat="44.67762766414616" lon="8.03814240438651"><ele>189.5</ele><time>2026-04-12T06:35:11Z</time></trkpt><trkpt lat="44.67769919782972" lon="8.038105513320453"><ele>190.0</ele><time>2026-04-12T06:35:12Z</time></trkpt><trkpt lat="44.677769697131566" lon="8.038073439889743"><ele>190.5</ele><time>2026-04-12T06:35:13Z</time></trkpt><trkpt lat="44.6778482430454" lon="8.038040120942622"><ele>191.0</ele><time>2026-04-12T06:35:14Z</time></trkpt><trkpt lat="44.67792163798004" lon="8.038007073819688"><ele>191.5</ele><time>2026-04-12T06:35:15Z</time></trkpt><trkpt lat="44.677992159070286" lon="8.03797238664496"><ele>192.0</ele><time>2026-04-12T06:35:16Z</time></trkpt><trkpt lat="44.678068438042494" lon="8.03793715866043"><ele>191.99999999999997</ele><time>2026-04-12T06:35:17Z</time></trkpt><trkpt lat="44.678142718537245" lon="8.037904477154695"><ele>192.0</ele><time>2026-04-12T06:35:18Z</time></trkpt><trkpt lat="44.678207442302636" lon="8.037872126144073"><ele>192.0</ele><time>2026-04-12T06:35:19Z</time></trkpt><trkpt lat="44.67827762637992" lon="8.037840072728665"><ele>192.0</ele><time>2026-04-12T06:35:20Z</time></trkpt><trkpt lat="44.67834335916261" lon="8.037814842366725"><ele>192.0</ele><time>2026-04-12T06:35:21Z</time></trkpt><trkpt lat="44.67840848327616" lon="8.03780387623186"><ele>191.99999999999997</ele><time>2026-04-12T06:35:22Z</time></trkpt><trkpt lat="44.67848147387174" lon="8.037793347525545"><ele>192.0</ele><time>2026-04-12T06:35:23Z</time></trkpt><trkpt lat="44.67855242755911" lon="8.03777358908954"><ele>191.83333333333334</ele><time>2026-04-12T06:35:24Z</time></trkpt><trkpt lat="44.67862075780098" lon="8.037729813517917"><ele>191.66666666666666</ele><time>2026-04-12T06:35:24.999Z</time></trkpt><trkpt lat="44.67868487364636" lon="8.037675484966009"><ele>191.5</ele><time>2026-04-12T06:35:25.999Z</time></trkpt><trkpt lat="44.67875101129575" lon="8.037624312318338"><ele>191.33333333333331</ele><time>2026-04-12T06:35:26.999Z</time></trkpt><trkpt lat="44.67882862676856" lon="8.037581466089671"><ele>191.16666666666666</ele><time>2026-04-12T06:35:27.999Z</time></trkpt><trkpt lat="44.678905844624225" lon="8.037549696460188"><ele>191.0</ele><time>2026-04-12T06:35:28.999Z</time></trkpt><trkpt lat="44.67897916327145" lon="8.037511146046594"><ele>191.0</ele><time>2026-04-12T06:35:29.999Z</time></trkpt><trkpt lat="44.679056491291256" lon="8.037475541670533"><ele>191.0</ele><time>2026-04-12T06:35:30.999Z</time></trkpt><trkpt lat="44.67913608300314" lon="8.037438719022065"><ele>191.0</ele><time>2026-04-12T06:35:31.999Z</time></trkpt><trkpt lat="44.67921046833523" lon="8.037406673017356"><ele>191.0</ele><time>2026-04-12T06:35:32.999Z</time></trkpt><trkpt lat="44.67927755628784" lon="8.037376310005998"><ele>191.0</ele><time>2026-04-12T06:35:33.999Z</time></trkpt><trkpt lat="44.679352449767336" lon="8.037341609525148"><ele>191.0</ele><time>2026-04-12T06:35:34.999Z</time></trkpt><trkpt lat="44.67942926360739" lon="8.037312665367926"><ele>191.2857142857143</ele><time>2026-04-12T06:35:35.999Z</time></trkpt><trkpt lat="44.67949900853938" lon="8.037279172439899"><ele>191.57142857142856</ele><time>2026-04-12T06:35:36.999Z</time></trkpt><trkpt lat="44.67957523482673" lon="8.037244535158363"><ele>191.85714285714286</ele><time>2026-04-12T06:35:37.999Z</time></trkpt><trkpt lat="44.679637939858964" lon="8.037212887412311"><ele>192.14285714285717</ele><time>2026-04-12T06:35:38.999Z</time></trkpt><trkpt lat="44.67970863630152" lon="8.037189032977677"><ele>192.42857142857144</ele><time>2026-04-12T06:35:39.999Z</time></trkpt><trkpt lat="44.679773106955864" lon="8.037158913627016"><ele>192.71428571428572</ele><time>2026-04-12T06:35:40.999Z</time></trkpt><trkpt lat="44.679846264537986" lon="8.03712363399234"><ele>193.0</ele><time>2026-04-12T06:35:41.999Z</time></trkpt><trkpt lat="44.6799192490872" lon="8.037094471345345"><ele>192.99999999999997</ele><time>2026-04-12T06:35:42.999Z</time></trkpt><trkpt lat="44.67998825653466" lon="8.037061952060027"><ele>193.0</ele><time>2026-04-12T06:35:43.999Z</time></trkpt><trkpt lat="44.680061157785794" lon="8.037030370553392"><ele>193.0</ele><time>2026-04-12T06:35:44.999Z</time></trkpt><trkpt lat="44.68013394655891" lon="8.036996607998658"><ele>193.0</ele><time>2026-04-12T06:35:45.999Z</time></trkpt><trkpt lat="44.68020841578492" lon="8.036964680829408"><ele>192.99999999999997</ele><time>2026-04-12T06:35:46.999Z</time></trkpt><trkpt lat="44.68028508989965" lon="8.036934107476789"><ele>193.0</ele><time>2026-04-12T06:35:47.999Z</time></trkpt><trkpt lat="44.680357438128034" lon="8.03690210775616"><ele>192.49999999999997</ele><time>2026-04-12T06:35:48.999Z</time></trkpt><trkpt lat="44.680423774198225" lon="8.036862944525666"><ele>192.0</ele><time>2026-04-12T06:35:49.999Z</time></trkpt><trkpt lat="44.680494167016626" lon="8.036830058796273"><ele>191.5</ele><time>2026-04-12T06:35:50.999Z</time></trkpt><trkpt lat="44.68057051956787" lon="8.036799714828991"><ele>191.0</ele><time>2026-04-12T06:35:51.999Z</time></trkpt><trkpt lat="44.68063983005648" lon="8.036763569999819"><ele>190.5</ele><time>2026-04-12T06:35:52.999Z</time></trkpt><trkpt lat="44.68072437037034" lon="8.036740661388539"><ele>190.0</ele><time>2026-04-12T06:35:53.999Z</time></trkpt><trkpt lat="44.68078916190428" lon="8.036702329306918"><ele>190.0</ele><time>2026-04-12T06:35:54.999Z</time></trkpt><trkpt lat="44.68085390313949" lon="8.036665899968408"><ele>190.0</ele><time>2026-04-12T06:35:55.999Z</time></trkpt><trkpt lat="44.680928674111264" lon="8.036635802864827"><ele>190.0</ele><time>2026-04-12T06:35:56.999Z</time></trkpt><trkpt lat="44.68099575571089" lon="8.036601486210182"><ele>190.0</ele><time>2026-04-12T06:35:57.999Z</time></trkpt><trkpt lat="44.68107580890245" lon="8.036571197145378"><ele>190.0</ele><time>2026-04-12T06:35:58.999Z</time></trkpt><trkpt lat="44.68114793680679" lon="8.036537470429648"><ele>190.0</ele><time>2026-04-12T06:35:59.999Z</time></trkpt><trkpt lat="44.68121516516571" lon="8.036500552818358"><ele>190.57142857142858</ele><time>2026-04-12T06:36:00.999Z</time></trkpt><trkpt lat="44.68128365329969" lon="8.036469299131586"><ele>191.14285714285717</ele><time>2026-04-12T06:36:01.999Z</time></trkpt><trkpt lat="44.681355366876225" lon="8.036436485989027"><ele>191.71428571428572</ele><time>2026-04-12T06:36:02.999Z</time></trkpt><trkpt lat="44.68142379437476" lon="8.036408360567734"><ele>192.28571428571428</ele><time>2026-04-12T06:36:03.999Z</time></trkpt><trkpt lat="44.68149210255403" lon="8.036374784157037"><ele>192.85714285714286</ele><time>2026-04-12T06:36:04.999Z</time></trkpt><trkpt lat="44.68156242822099" lon="8.036342856043289"><ele>193.42857142857142</ele><time>2026-04-12T06:36:05.999Z</time></trkpt><trkpt lat="44.68162986388848" lon="8.036308328754842"><ele>194.0</ele><time>2026-04-12T06:36:06.999Z</time></trkpt><trkpt lat="44.68169670057473" lon="8.036277445216871"><ele>194.0</ele><time>2026-04-12T06:36:07.999Z</time></trkpt><trkpt lat="44.681762983727715" lon="8.036245245792525"><ele>194.0</ele><time>2026-04-12T06:36:08.999Z</time></trkpt><trkpt lat="44.681829837837846" lon="8.036223440257029"><ele>194.0</ele><time>2026-04-12T06:36:09.999Z</time></trkpt><trkpt lat="44.68190134823043" lon="8.036195257010089"><ele>194.0</ele><time>2026-04-12T06:36:10.999Z</time></trkpt><trkpt lat="44.68197921768343" lon="8.03616409117577"><ele>194.0</ele><time>2026-04-12T06:36:11.999Z</time></trkpt><trkpt lat="44.68205098279982" lon="8.036131952225979"><ele>194.0</ele><time>2026-04-12T06:36:12.999Z</time></trkpt><trkpt lat="44.68211569545634" lon="8.036096648311773"><ele>194.0</ele><time>2026-04-12T06:36:13.999Z</time></trkpt><trkpt lat="44.68218273649019" lon="8.036067530548358"><ele>193.42857142857142</ele><time>2026-04-12T06:36:14.999Z</time></trkpt><trkpt lat="44.68225165438833" lon="8.03603617954348"><ele>192.85714285714286</ele><time>2026-04-12T06:36:15.999Z</time></trkpt><trkpt lat="44.68232250013634" lon="8.036010535232128"><ele>192.28571428571428</ele><time>2026-04-12T06:36:16.999Z</time></trkpt><trkpt lat="44.682390425014084" lon="8.03597617490669"><ele>191.71428571428572</ele><time>2026-04-12T06:36:17.999Z</time></trkpt><trkpt lat="44.68246243571265" lon="8.035941343451913"><ele>191.14285714285717</ele><time>2026-04-12T06:36:18.999Z</time></trkpt><trkpt lat="44.682529158874544" lon="8.035907467549869"><ele>190.57142857142858</ele><time>2026-04-12T06:36:19.999Z</time></trkpt><trkpt lat="44.68259965231503" lon="8.035873357734483"><ele>190.0</ele><time>2026-04-12T06:36:20.999Z</time></trkpt><trkpt lat="44.68266937342513" lon="8.035844303119333"><ele>190.0</ele><time>2026-04-12T06:36:21.999Z</time></trkpt><trkpt lat="44.682740167442695" lon="8.035811962034508"><ele>190.0</ele><time>2026-04-12T06:36:22.999Z</time></trkpt><trkpt lat="44.68281596800889" lon="8.035781531753745"><ele>190.0</ele><time>2026-04-12T06:36:23.999Z</time></trkpt><trkpt lat="44.6828869317584" lon="8.035749775076155"><ele>190.0</ele><time>2026-04-12T06:36:24.999Z</time></trkpt><trkpt lat="44.6829590219607" lon="8.035716622374878"><ele>190.0</ele><time>2026-04-12T06:36:25.999Z</time></trkpt><trkpt lat="44.683031916832554" lon="8.035688291064098"><ele>190.0</ele><time>2026-04-12T06:36:26.999Z</time></trkpt><trkpt lat="44.68310857828912" lon="8.035659172943783"><ele>190.5</ele><time>2026-04-12T06:36:27.999Z</time></trkpt><trkpt lat="44.68317725744574" lon="8.035624146869148"><ele>191.0</ele><time>2026-04-12T06:36:28.999Z</time></trkpt><trkpt lat="44.683254940509094" lon="8.035591565140653"><ele>191.5</ele><time>2026-04-12T06:36:29.999Z</time></trkpt><trkpt lat="44.68332810855696" lon="8.03555622041948"><ele>192.0</ele><time>2026-04-12T06:36:30.999Z</time></trkpt><trkpt lat="44.68340465533946" lon="8.035519381780706"><ele>192.49999999999997</ele><time>2026-04-12T06:36:31.999Z</time></trkpt><trkpt lat="44.68348228637192" lon="8.035485759939183"><ele>193.0</ele><time>2026-04-12T06:36:32.999Z</time></trkpt><trkpt lat="44.68355051993111" lon="8.035453875478135"><ele>192.42857142857144</ele><time>2026-04-12T06:36:33.999Z</time></trkpt><trkpt lat="44.68361400535014" lon="8.035419065443861"><ele>191.85714285714286</ele><time>2026-04-12T06:36:34.999Z</time></trkpt><trkpt lat="44.68368743784568" lon="8.035383777537199"><ele>191.28571428571428</ele><time>2026-04-12T06:36:35.998Z</time></trkpt><trkpt lat="44.68375219081247" lon="8.035350490273522"><ele>190.71428571428572</ele><time>2026-04-12T06:36:36.998Z</time></trkpt><trkpt lat="44.68381716786947" lon="8.03530855973831"><ele>190.14285714285714</ele><time>2026-04-12T06:36:37.998Z</time></trkpt><trkpt lat="44.683880850545776" lon="8.035280441268377"><ele>189.57142857142858</ele><time>2026-04-12T06:36:38.998Z</time></trkpt><trkpt lat="44.68395794992381" lon="8.035257883956165"><ele>189.0</ele><time>2026-04-12T06:36:39.998Z</time></trkpt><trkpt lat="44.684064367233866" lon="8.035224395997465"><ele>189.0</ele><time>2026-04-12T06:36:40.998Z</time></trkpt><trkpt lat="44.6841507461662" lon="8.035184149153945"><ele>189.0</ele><time>2026-04-12T06:36:41.998Z</time></trkpt><trkpt lat="44.68422545394676" lon="8.035147326183603"><ele>189.0</ele><time>2026-04-12T06:36:43Z</time></trkpt><trkpt lat="44.68430006227355" lon="8.035113006474532"><ele>189.0</ele><time>2026-04-12T06:36:44Z</time></trkpt><trkpt lat="44.68438170519554" lon="8.035071638462858"><ele>189.0</ele><time>2026-04-12T06:36:45Z</time></trkpt><trkpt lat="44.68446412504444" lon="8.035038101869915"><ele>189.0</ele><time>2026-04-12T06:36:46Z</time></trkpt><trkpt lat="44.68454219785146" lon="8.035000831423101"><ele>189.0</ele><time>2026-04-12T06:36:47Z</time></trkpt><trkpt lat="44.684629285831974" lon="8.034967997231485"><ele>189.0</ele><time>2026-04-12T06:36:48Z</time></trkpt><trkpt lat="44.68471850105522" lon="8.034936794383796"><ele>189.0</ele><time>2026-04-12T06:36:49Z</time></trkpt><trkpt lat="44.68480074241702" lon="8.034903274946508"><ele>189.0</ele><time>2026-04-12T06:36:50Z</time></trkpt><trkpt lat="44.684874811636824" lon="8.03486571367611"><ele>189.0</ele><time>2026-04-12T06:36:51Z</time></trkpt><trkpt lat="44.68496775332046" lon="8.03483161390078"><ele>189.0</ele><time>2026-04-12T06:36:52Z</time></trkpt><trkpt lat="44.68506133951737" lon="8.034795510957277"><ele>189.0</ele><time>2026-04-12T06:36:53Z</time></trkpt><trkpt lat="44.68515044338175" lon="8.034759354358345"><ele>189.0</ele><time>2026-04-12T06:36:54Z</time></trkpt><trkpt lat="44.685250129781615" lon="8.034724911163805"><ele>189.0</ele><time>2026-04-12T06:36:55Z</time></trkpt><trkpt lat="44.6853288360719" lon="8.034684726778034"><ele>189.0</ele><time>2026-04-12T06:36:56Z</time></trkpt><trkpt lat="44.68540309895396" lon="8.03464303079213"><ele>189.0</ele><time>2026-04-12T06:36:57Z</time></trkpt><trkpt lat="44.6854958489249" lon="8.03459646889939"><ele>188.33333333333334</ele><time>2026-04-12T06:36:58Z</time></trkpt><trkpt lat="44.685575373754105" lon="8.034571311027493"><ele>187.66666666666666</ele><time>2026-04-12T06:36:59Z</time></trkpt><trkpt lat="44.68565829220843" lon="8.034539252103587"><ele>187.0</ele><time>2026-04-12T06:37:00Z</time></trkpt><trkpt lat="44.68574226268086" lon="8.034514355922028"><ele>186.33333333333331</ele><time>2026-04-12T06:37:01Z</time></trkpt><trkpt lat="44.68582657076808" lon="8.034479800294159"><ele>185.66666666666666</ele><time>2026-04-12T06:37:02Z</time></trkpt><trkpt lat="44.68588870899188" lon="8.034451330241383"><ele>185.0</ele><time>2026-04-12T06:37:03Z</time></trkpt><trkpt lat="44.68595379911325" lon="8.034428212355381"><ele>185.0</ele><time>2026-04-12T06:37:04Z</time></trkpt><trkpt lat="44.68601739919867" lon="8.034407772787937"><ele>185.0</ele><time>2026-04-12T06:37:05Z</time></trkpt><trkpt lat="44.68609459476406" lon="8.034366651523651"><ele>185.0</ele><time>2026-04-12T06:37:06Z</time></trkpt><trkpt lat="44.68615627312091" lon="8.034335316295309"><ele>185.0</ele><time>2026-04-12T06:37:07Z</time></trkpt><trkpt lat="44.686241466093236" lon="8.034310484635776"><ele>185.0</ele><time>2026-04-12T06:37:08Z</time></trkpt><trkpt lat="44.68631329889459" lon="8.034293222247236"><ele>185.0</ele><time>2026-04-12T06:37:09Z</time></trkpt><trkpt lat="44.68644420936824" lon="8.034270989836289"><ele>184.57142857142856</ele><time>2026-04-12T06:37:11Z</time></trkpt><trkpt lat="44.68651863305407" lon="8.034262705419383"><ele>184.14285714285714</ele><time>2026-04-12T06:37:12Z</time></trkpt><trkpt lat="44.68659467907907" lon="8.034260494596472"><ele>183.71428571428572</ele><time>2026-04-12T06:37:13Z</time></trkpt><trkpt lat="44.68666365225884" lon="8.034252027841859"><ele>183.28571428571428</ele><time>2026-04-12T06:37:14Z</time></trkpt><trkpt lat="44.686734503660915" lon="8.034262728762416"><ele>182.85714285714286</ele><time>2026-04-12T06:37:15Z</time></trkpt><trkpt lat="44.68680485717354" lon="8.034266964324175"><ele>182.42857142857142</ele><time>2026-04-12T06:37:16Z</time></trkpt><trkpt lat="44.686872702755544" lon="8.03427044594622"><ele>182.0</ele><time>2026-04-12T06:37:17Z</time></trkpt><trkpt lat="44.6869419284049" lon="8.034266641164331"><ele>182.0</ele><time>2026-04-12T06:37:18Z</time></trkpt><trkpt lat="44.68701924373015" lon="8.034302706431015"><ele>182.0</ele><time>2026-04-12T06:37:19Z</time></trkpt><trkpt lat="44.68710036659212" lon="8.03427252927531"><ele>182.0</ele><time>2026-04-12T06:37:20Z</time></trkpt><trkpt lat="44.68717893807875" lon="8.0342708486383"><ele>182.0</ele><time>2026-04-12T06:37:21Z</time></trkpt><trkpt lat="44.68725340959762" lon="8.034273158650452"><ele>182.0</ele><time>2026-04-12T06:37:22Z</time></trkpt><trkpt lat="44.68732263910294" lon="8.034272692471324"><ele>182.0</ele><time>2026-04-12T06:37:23Z</time></trkpt><trkpt lat="44.687400403053644" lon="8.034276907776528"><ele>182.0</ele><time>2026-04-12T06:37:24Z</time></trkpt><trkpt lat="44.68748208284306" lon="8.03427605036433"><ele>182.0</ele><time>2026-04-12T06:37:25Z</time></trkpt><trkpt lat="44.687563807625324" lon="8.034271751715213"><ele>182.0</ele><time>2026-04-12T06:37:26Z</time></trkpt><trkpt lat="44.687645258402426" lon="8.034272361645897"><ele>182.0</ele><time>2026-04-12T06:37:27Z</time></trkpt><trkpt lat="44.68772760984029" lon="8.034274970017416"><ele>182.0</ele><time>2026-04-12T06:37:28Z</time></trkpt><trkpt lat="44.68780686045182" lon="8.034270946220222"><ele>182.0</ele><time>2026-04-12T06:37:29Z</time></trkpt><trkpt lat="44.6878781542476" lon="8.03426285053516"><ele>182.0</ele><time>2026-04-12T06:37:30Z</time></trkpt><trkpt lat="44.68795543643129" lon="8.034251191346153"><ele>182.0</ele><time>2026-04-12T06:37:31Z</time></trkpt><trkpt lat="44.688031666181004" lon="8.034249044968087"><ele>182.0</ele><time>2026-04-12T06:37:32Z</time></trkpt><trkpt lat="44.6881077747167" lon="8.034246482007617"><ele>182.0</ele><time>2026-04-12T06:37:33Z</time></trkpt><trkpt lat="44.68818015154542" lon="8.03423994026187"><ele>182.0</ele><time>2026-04-12T06:37:33.999Z</time></trkpt><trkpt lat="44.68825156000004" lon="8.034239625501183"><ele>182.0</ele><time>2026-04-12T06:37:34.999Z</time></trkpt><trkpt lat="44.68832391792015" lon="8.034240504350297"><ele>182.0</ele><time>2026-04-12T06:37:35.999Z</time></trkpt><trkpt lat="44.68839073436328" lon="8.034241166178987"><ele>182.0</ele><time>2026-04-12T06:37:36.999Z</time></trkpt><trkpt lat="44.68846065652638" lon="8.034242133183675"><ele>182.0</ele><time>2026-04-12T06:37:37.999Z</time></trkpt><trkpt lat="44.68852917733343" lon="8.034242075216453"><ele>182.0</ele><time>2026-04-12T06:37:38.999Z</time></trkpt><trkpt lat="44.68863994057559" lon="8.034248820460625"><ele>182.0</ele><time>2026-04-12T06:37:40.999Z</time></trkpt><trkpt lat="44.68876070643891" lon="8.03426718487054"><ele>182.0</ele><time>2026-04-12T06:37:42.999Z</time></trkpt><trkpt lat="44.68888627847908" lon="8.034284833074894"><ele>182.0</ele><time>2026-04-12T06:37:44.999Z</time></trkpt><trkpt lat="44.68902402821098" lon="8.034265487817157"><ele>182.0</ele><time>2026-04-12T06:37:46.999Z</time></trkpt><trkpt lat="44.68910283450315" lon="8.034269408268106"><ele>182.0</ele><time>2026-04-12T06:37:47.999Z</time></trkpt><trkpt lat="44.68917928502009" lon="8.034283457382108"><ele>182.0</ele><time>2026-04-12T06:37:48.999Z</time></trkpt><trkpt lat="44.68926875661822" lon="8.03428545229984"><ele>182.0</ele><time>2026-04-12T06:37:49.999Z</time></trkpt><trkpt lat="44.68936992190376" lon="8.03425667087467"><ele>181.85714285714286</ele><time>2026-04-12T06:37:51.999Z</time></trkpt><trkpt lat="44.689435448549276" lon="8.034250223919933"><ele>181.71428571428572</ele><time>2026-04-12T06:37:52.999Z</time></trkpt><trkpt lat="44.689505674561076" lon="8.034242133609437"><ele>181.57142857142856</ele><time>2026-04-12T06:37:53.999Z</time></trkpt><trkpt lat="44.689580942573684" lon="8.034231701670665"><ele>181.42857142857144</ele><time>2026-04-12T06:37:54.999Z</time></trkpt><trkpt lat="44.68964596656392" lon="8.034229620729171"><ele>181.28571428571428</ele><time>2026-04-12T06:37:55.999Z</time></trkpt><trkpt lat="44.68971149773641" lon="8.034224684952434"><ele>181.14285714285714</ele><time>2026-04-12T06:37:56.999Z</time></trkpt><trkpt lat="44.68977550299712" lon="8.034223631836875"><ele>181.0</ele><time>2026-04-12T06:37:57.999Z</time></trkpt><trkpt lat="44.68985537144792" lon="8.034224164149133"><ele>181.0</ele><time>2026-04-12T06:37:58.999Z</time></trkpt><trkpt lat="44.689926477103896" lon="8.034219213439279"><ele>181.0</ele><time>2026-04-12T06:37:59.999Z</time></trkpt><trkpt lat="44.69000619108745" lon="8.034225014943264"><ele>181.0</ele><time>2026-04-12T06:38:00.999Z</time></trkpt><trkpt lat="44.69007287557055" lon="8.034219188052257"><ele>181.0</ele><time>2026-04-12T06:38:01.999Z</time></trkpt><trkpt lat="44.690155708176675" lon="8.034224304537231"><ele>181.0</ele><time>2026-04-12T06:38:02.999Z</time></trkpt><trkpt lat="44.69023771084903" lon="8.034229719575368"><ele>181.0</ele><time>2026-04-12T06:38:03.999Z</time></trkpt><trkpt lat="44.69031214995433" lon="8.034231100085012"><ele>180.66666666666669</ele><time>2026-04-12T06:38:04.999Z</time></trkpt><trkpt lat="44.69038905241874" lon="8.034238285972267"><ele>180.33333333333334</ele><time>2026-04-12T06:38:05.999Z</time></trkpt><trkpt lat="44.69046313881464" lon="8.034231048921312"><ele>180.0</ele><time>2026-04-12T06:38:06.999Z</time></trkpt><trkpt lat="44.69053977562432" lon="8.034233211654195"><ele>179.66666666666666</ele><time>2026-04-12T06:38:07.999Z</time></trkpt><trkpt lat="44.690615801611266" lon="8.034236322458245"><ele>179.33333333333331</ele><time>2026-04-12T06:38:08.999Z</time></trkpt><trkpt lat="44.69069382106109" lon="8.034234697807621"><ele>179.0</ele><time>2026-04-12T06:38:09.999Z</time></trkpt><trkpt lat="44.69076978305365" lon="8.034232878186105"><ele>179.00000000000003</ele><time>2026-04-12T06:38:10.999Z</time></trkpt><trkpt lat="44.69084158394411" lon="8.034229854445766"><ele>179.0</ele><time>2026-04-12T06:38:11.999Z</time></trkpt><trkpt lat="44.690909742709835" lon="8.034229510548574"><ele>179.0</ele><time>2026-04-12T06:38:12.999Z</time></trkpt><trkpt lat="44.69098390809378" lon="8.034231498599544"><ele>179.0</ele><time>2026-04-12T06:38:13.999Z</time></trkpt><trkpt lat="44.691054299975164" lon="8.034232595406088"><ele>179.0</ele><time>2026-04-12T06:38:14.999Z</time></trkpt><trkpt lat="44.69111993361744" lon="8.034230607136061"><ele>179.00000000000003</ele><time>2026-04-12T06:38:15.999Z</time></trkpt><trkpt lat="44.691189448229515" lon="8.034266482943691"><ele>179.0</ele><time>2026-04-12T06:38:16.999Z</time></trkpt><trkpt lat="44.69126157972897" lon="8.034233595064316"><ele>179.00000000000003</ele><time>2026-04-12T06:38:17.999Z</time></trkpt><trkpt lat="44.69133907535628" lon="8.034229218097783"><ele>179.0</ele><time>2026-04-12T06:38:18.999Z</time></trkpt><trkpt lat="44.691403726595674" lon="8.034224493706622"><ele>179.0</ele><time>2026-04-12T06:38:19.999Z</time></trkpt><trkpt lat="44.691474606027114" lon="8.034225582093782"><ele>179.0</ele><time>2026-04-12T06:38:20.999Z</time></trkpt><trkpt lat="44.69155528829807" lon="8.03422548929416"><ele>179.0</ele><time>2026-04-12T06:38:21.999Z</time></trkpt><trkpt lat="44.691635722385016" lon="8.034226953273144"><ele>179.00000000000003</ele><time>2026-04-12T06:38:22.999Z</time></trkpt><trkpt lat="44.69170986260421" lon="8.034222307379233"><ele>179.0</ele><time>2026-04-12T06:38:23.999Z</time></trkpt><trkpt lat="44.69178101667489" lon="8.034228932888665"><ele>179.0</ele><time>2026-04-12T06:38:24.999Z</time></trkpt><trkpt lat="44.69185851559321" lon="8.034235169691478"><ele>179.0</ele><time>2026-04-12T06:38:25.999Z</time></trkpt><trkpt lat="44.691987784357345" lon="8.034235090951329"><ele>179.0</ele><time>2026-04-12T06:38:27.999Z</time></trkpt><trkpt lat="44.69205565962786" lon="8.034235508180181"><ele>179.0</ele><time>2026-04-12T06:38:28.999Z</time></trkpt><trkpt lat="44.69214266244509" lon="8.034242223553383"><ele>179.0</ele><time>2026-04-12T06:38:29.999Z</time></trkpt><trkpt lat="44.692235083128985" lon="8.034237708897319"><ele>178.83333333333331</ele><time>2026-04-12T06:38:30.999Z</time></trkpt><trkpt lat="44.69230877273229" lon="8.03423336149973"><ele>178.66666666666666</ele><time>2026-04-12T06:38:31.999Z</time></trkpt><trkpt lat="44.692382886361486" lon="8.034246296827856"><ele>178.5</ele><time>2026-04-12T06:38:32.999Z</time></trkpt><trkpt lat="44.69245672848036" lon="8.03425530276002"><ele>178.33333333333334</ele><time>2026-04-12T06:38:33.999Z</time></trkpt><trkpt lat="44.69253287797579" lon="8.03425312663773"><ele>178.16666666666669</ele><time>2026-04-12T06:38:34.999Z</time></trkpt><trkpt lat="44.69261333175222" lon="8.034250429059783"><ele>178.0</ele><time>2026-04-12T06:38:35.999Z</time></trkpt><trkpt lat="44.6926867349641" lon="8.03424596336575"><ele>177.85714285714283</ele><time>2026-04-12T06:38:36.999Z</time></trkpt><trkpt lat="44.69276279302236" lon="8.034243682931148"><ele>177.71428571428572</ele><time>2026-04-12T06:38:37.999Z</time></trkpt><trkpt lat="44.69283076857289" lon="8.034242786962496"><ele>177.57142857142856</ele><time>2026-04-12T06:38:38.999Z</time></trkpt><trkpt lat="44.69290205812751" lon="8.034243572726789"><ele>177.42857142857142</ele><time>2026-04-12T06:38:39.999Z</time></trkpt><trkpt lat="44.69297597116809" lon="8.034234173249073"><ele>177.28571428571428</ele><time>2026-04-12T06:38:40.999Z</time></trkpt><trkpt lat="44.69304427913054" lon="8.03422674831362"><ele>177.14285714285714</ele><time>2026-04-12T06:38:41.999Z</time></trkpt><trkpt lat="44.693112518989516" lon="8.034229500169037"><ele>177.0</ele><time>2026-04-12T06:38:42.999Z</time></trkpt><trkpt lat="44.69318038242849" lon="8.034224764619154"><ele>177.0</ele><time>2026-04-12T06:38:43.999Z</time></trkpt><trkpt lat="44.693245930937806" lon="8.034231207432873"><ele>177.0</ele><time>2026-04-12T06:38:44.999Z</time></trkpt><trkpt lat="44.69331062645852" lon="8.034233837490465"><ele>177.0</ele><time>2026-04-12T06:38:45.998Z</time></trkpt><trkpt lat="44.69343282221168" lon="8.034249423827095"><ele>177.0</ele><time>2026-04-12T06:38:47.998Z</time></trkpt><trkpt lat="44.69351816956893" lon="8.03425009449457"><ele>177.0</ele><time>2026-04-12T06:38:49Z</time></trkpt><trkpt lat="44.69358811885119" lon="8.034259416212455"><ele>177.0</ele><time>2026-04-12T06:38:50Z</time></trkpt><trkpt lat="44.69366846982041" lon="8.03425137942621"><ele>176.85714285714286</ele><time>2026-04-12T06:38:51Z</time></trkpt><trkpt lat="44.69374382264426" lon="8.034239822511802"><ele>176.7142857142857</ele><time>2026-04-12T06:38:52Z</time></trkpt><trkpt lat="44.69381513090364" lon="8.034227984413933"><ele>176.57142857142856</ele><time>2026-04-12T06:38:53Z</time></trkpt><trkpt lat="44.69387925293463" lon="8.034219967034902"><ele>176.42857142857144</ele><time>2026-04-12T06:38:54Z</time></trkpt><trkpt lat="44.69395893292236" lon="8.034216811708916"><ele>176.28571428571428</ele><time>2026-04-12T06:38:55Z</time></trkpt><trkpt lat="44.694031576012364" lon="8.034218798625254"><ele>176.14285714285714</ele><time>2026-04-12T06:38:56Z</time></trkpt><trkpt lat="44.69410667936036" lon="8.03422801049201"><ele>176.0</ele><time>2026-04-12T06:38:57Z</time></trkpt><trkpt lat="44.694176127455236" lon="8.034219052385858"><ele>176.0</ele><time>2026-04-12T06:38:58Z</time></trkpt><trkpt lat="44.69424603705113" lon="8.034218331835561"><ele>176.0</ele><time>2026-04-12T06:38:59Z</time></trkpt><trkpt lat="44.69431531459976" lon="8.034219134810526"><ele>176.0</ele><time>2026-04-12T06:39:00Z</time></trkpt><trkpt lat="44.69438961309717" lon="8.03421862340584"><ele>176.0</ele><time>2026-04-12T06:39:01Z</time></trkpt><trkpt lat="44.69446529423874" lon="8.034215953610069"><ele>176.0</ele><time>2026-04-12T06:39:02Z</time></trkpt><trkpt lat="44.69455174601138" lon="8.034215768315859"><ele>176.0</ele><time>2026-04-12T06:39:03Z</time></trkpt><trkpt lat="44.694633258601385" lon="8.034219060128462"><ele>175.66666666666666</ele><time>2026-04-12T06:39:04Z</time></trkpt><trkpt lat="44.69472326138641" lon="8.03422589047059"><ele>175.33333333333331</ele><time>2026-04-12T06:39:05Z</time></trkpt><trkpt lat="44.694800032123396" lon="8.034211522144513"><ele>175.0</ele><time>2026-04-12T06:39:06Z</time></trkpt><trkpt lat="44.6948833534182" lon="8.034201773475237"><ele>174.66666666666666</ele><time>2026-04-12T06:39:07Z</time></trkpt><trkpt lat="44.69496860160622" lon="8.034206096505258"><ele>174.33333333333334</ele><time>2026-04-12T06:39:08Z</time></trkpt><trkpt lat="44.69505206653955" lon="8.034208622273017"><ele>174.0</ele><time>2026-04-12T06:39:09Z</time></trkpt><trkpt lat="44.695141036205634" lon="8.034218625496669"><ele>174.0</ele><time>2026-04-12T06:39:10Z</time></trkpt><trkpt lat="44.69523382593643" lon="8.034160829393498"><ele>174.0</ele><time>2026-04-12T06:39:11Z</time></trkpt><trkpt lat="44.695321829216454" lon="8.034160015480472"><ele>174.0</ele><time>2026-04-12T06:39:12Z</time></trkpt><trkpt lat="44.695414910143924" lon="8.034158182276336"><ele>174.0</ele><time>2026-04-12T06:39:13Z</time></trkpt><trkpt lat="44.695508426451944" lon="8.034157037879046"><ele>174.0</ele><time>2026-04-12T06:39:14Z</time></trkpt><trkpt lat="44.695600209847164" lon="8.034155638388393"><ele>174.6</ele><time>2026-04-12T06:39:15Z</time></trkpt><trkpt lat="44.69568725325043" lon="8.034154341383566"><ele>175.2</ele><time>2026-04-12T06:39:16Z</time></trkpt><trkpt lat="44.695755229477406" lon="8.034153328492478"><ele>175.79999999999998</ele><time>2026-04-12T06:39:17Z</time></trkpt><trkpt lat="44.695882572331" lon="8.034151834455363"><ele>176.39999999999998</ele><time>2026-04-12T06:39:19Z</time></trkpt><trkpt lat="44.695986603110256" lon="8.034162990322518"><ele>177.0</ele><time>2026-04-12T06:39:21Z</time></trkpt><trkpt lat="44.696060442460194" lon="8.034158146617363"><ele>177.0</ele><time>2026-04-12T06:39:22Z</time></trkpt><trkpt lat="44.696123710275174" lon="8.034151288987486"><ele>177.0</ele><time>2026-04-12T06:39:23Z</time></trkpt><trkpt lat="44.696243557627604" lon="8.034171369729789"><ele>177.0</ele><time>2026-04-12T06:39:25Z</time></trkpt><trkpt lat="44.69636373510473" lon="8.03419719650677"><ele>177.0</ele><time>2026-04-12T06:39:27Z</time></trkpt><trkpt lat="44.69650081927491" lon="8.034158278051477"><ele>177.0</ele><time>2026-04-12T06:39:29Z</time></trkpt><trkpt lat="44.69652278138359" lon="8.034040374573447"><ele>176.75</ele><time>2026-04-12T06:39:30Z</time></trkpt><trkpt lat="44.69657986639554" lon="8.03389550260218"><ele>176.5</ele><time>2026-04-12T06:39:32Z</time></trkpt><trkpt lat="44.69663419083693" lon="8.033716994227131"><ele>176.25</ele><time>2026-04-12T06:39:34Z</time></trkpt><trkpt lat="44.6966466398372" lon="8.033546779247171"><ele>176.0</ele><time>2026-04-12T06:39:36Z</time></trkpt><trkpt lat="44.69664275706706" lon="8.033394699715643"><ele>175.16666666666666</ele><time>2026-04-12T06:39:37.999Z</time></trkpt><trkpt lat="44.696651908263185" lon="8.033221274601692"><ele>174.33333333333331</ele><time>2026-04-12T06:39:39.999Z</time></trkpt><trkpt lat="44.696654652651766" lon="8.033128857122916"><ele>173.5</ele><time>2026-04-12T06:39:40.999Z</time></trkpt><trkpt lat="44.69665042068652" lon="8.033035886714565"><ele>172.66666666666666</ele><time>2026-04-12T06:39:41.999Z</time></trkpt><trkpt lat="44.69661969571235" lon="8.032951026194192"><ele>171.83333333333334</ele><time>2026-04-12T06:39:42.999Z</time></trkpt><trkpt lat="44.69667131059592" lon="8.03283417333347"><ele>171.0</ele><time>2026-04-12T06:39:43.999Z</time></trkpt><trkpt lat="44.696654246067126" lon="8.03274390668108"><ele>171.0</ele><time>2026-04-12T06:39:44.999Z</time></trkpt><trkpt lat="44.69661443523173" lon="8.032652460646801"><ele>171.0</ele><time>2026-04-12T06:39:45.999Z</time></trkpt><trkpt lat="44.69651357683671" lon="8.032632977476112"><ele>171.0</ele><time>2026-04-12T06:39:46.999Z</time></trkpt><trkpt lat="44.69642083085958" lon="8.032524360677604"><ele>171.0</ele><time>2026-04-12T06:39:48.999Z</time></trkpt><trkpt lat="44.696345185694526" lon="8.032419574070191"><ele>171.0</ele><time>2026-04-12T06:39:50.999Z</time></trkpt><trkpt lat="44.69627776051324" lon="8.03232094894179"><ele>170.60000000000002</ele><time>2026-04-12T06:39:52.999Z</time></trkpt><trkpt lat="44.696223234838584" lon="8.032218898912754"><ele>170.2</ele><time>2026-04-12T06:39:54.999Z</time></trkpt><trkpt lat="44.69616815193365" lon="8.032105354237228"><ele>169.8</ele><time>2026-04-12T06:39:56.999Z</time></trkpt><trkpt lat="44.69611327320766" lon="8.031978726394842"><ele>169.39999999999998</ele><time>2026-04-12T06:39:58.999Z</time></trkpt><trkpt lat="44.69609587653481" lon="8.03181788749949"><ele>169.0</ele><time>2026-04-12T06:40:00.999Z</time></trkpt><trkpt lat="44.696175080126224" lon="8.031688611408821"><ele>169.33333333333334</ele><time>2026-04-12T06:40:02.999Z</time></trkpt><trkpt lat="44.696219006005045" lon="8.031615554033754"><ele>169.66666666666669</ele><time>2026-04-12T06:40:03.999Z</time></trkpt><trkpt lat="44.696245780758495" lon="8.03151580242854"><ele>170.0</ele><time>2026-04-12T06:40:04.999Z</time></trkpt><trkpt lat="44.69625586091915" lon="8.031408739854644"><ele>170.33333333333334</ele><time>2026-04-12T06:40:05.999Z</time></trkpt><trkpt lat="44.69625203743637" lon="8.031297011552516"><ele>170.66666666666666</ele><time>2026-04-12T06:40:06.999Z</time></trkpt><trkpt lat="44.69622889916297" lon="8.031183388906804"><ele>171.0</ele><time>2026-04-12T06:40:07.999Z</time></trkpt><trkpt lat="44.696190423744724" lon="8.031081900354582"><ele>170.99999999999997</ele><time>2026-04-12T06:40:08.999Z</time></trkpt><trkpt lat="44.69614778717957" lon="8.030984606369097"><ele>171.0</ele><time>2026-04-12T06:40:09.999Z</time></trkpt><trkpt lat="44.696105130551324" lon="8.030898825850569"><ele>171.0</ele><time>2026-04-12T06:40:10.999Z</time></trkpt><trkpt lat="44.69606328061868" lon="8.030810665438688"><ele>171.0</ele><time>2026-04-12T06:40:11.999Z</time></trkpt><trkpt lat="44.696021386539634" lon="8.03072994930106"><ele>171.0</ele><time>2026-04-12T06:40:12.999Z</time></trkpt><trkpt lat="44.69598281114688" lon="8.030648765673034"><ele>170.99999999999997</ele><time>2026-04-12T06:40:13.999Z</time></trkpt><trkpt lat="44.695942749462155" lon="8.03057198808057"><ele>171.0</ele><time>2026-04-12T06:40:14.999Z</time></trkpt><trkpt lat="44.69587096093216" lon="8.03042258242007"><ele>171.20000000000002</ele><time>2026-04-12T06:40:16.999Z</time></trkpt><trkpt lat="44.69583734146601" lon="8.030345896529179"><ele>171.4</ele><time>2026-04-12T06:40:17.999Z</time></trkpt><trkpt lat="44.69577644692059" lon="8.030197249523592"><ele>171.6</ele><time>2026-04-12T06:40:19.999Z</time></trkpt><trkpt lat="44.69573764551205" lon="8.030037096950796"><ele>171.8</ele><time>2026-04-12T06:40:21.999Z</time></trkpt><trkpt lat="44.69571415973144" lon="8.029871034005183"><ele>172.0</ele><time>2026-04-12T06:40:23.999Z</time></trkpt><trkpt lat="44.69567222935403" lon="8.029708061578107"><ele>172.00000000000003</ele><time>2026-04-12T06:40:25.999Z</time></trkpt><trkpt lat="44.69565278314349" lon="8.029618862341286"><ele>172.0</ele><time>2026-04-12T06:40:26.999Z</time></trkpt><trkpt lat="44.695629826950196" lon="8.029530533056276"><ele>172.0</ele><time>2026-04-12T06:40:27.999Z</time></trkpt><trkpt lat="44.69562513043959" lon="8.029440846625784"><ele>172.0</ele><time>2026-04-12T06:40:28.999Z</time></trkpt><trkpt lat="44.695616945689444" lon="8.029341805949914"><ele>172.0</ele><time>2026-04-12T06:40:29.999Z</time></trkpt><trkpt lat="44.69559853216054" lon="8.029254590511535"><ele>172.00000000000003</ele><time>2026-04-12T06:40:30.999Z</time></trkpt><trkpt lat="44.695585722317986" lon="8.029166213427963"><ele>172.0</ele><time>2026-04-12T06:40:31.999Z</time></trkpt><trkpt lat="44.695560525567096" lon="8.02901253338884"><ele>172.0</ele><time>2026-04-12T06:40:33.999Z</time></trkpt><trkpt lat="44.69554168272636" lon="8.028918346094201"><ele>172.0</ele><time>2026-04-12T06:40:34.999Z</time></trkpt><trkpt lat="44.695526238627835" lon="8.028746237323276"><ele>172.0</ele><time>2026-04-12T06:40:36.999Z</time></trkpt><trkpt lat="44.69551367189626" lon="8.028581628055496"><ele>172.0</ele><time>2026-04-12T06:40:38.999Z</time></trkpt><trkpt lat="44.695498085362" lon="8.028494308725621"><ele>172.0</ele><time>2026-04-12T06:40:39.999Z</time></trkpt><trkpt lat="44.69546130819685" lon="8.028330250424492"><ele>172.0</ele><time>2026-04-12T06:40:41.999Z</time></trkpt><trkpt lat="44.695425721396916" lon="8.02815969453618"><ele>172.0</ele><time>2026-04-12T06:40:43.999Z</time></trkpt><trkpt lat="44.69539689307724" lon="8.027993375899875"><ele>172.0</ele><time>2026-04-12T06:40:45.999Z</time></trkpt><trkpt lat="44.6953734037119" lon="8.027901847570657"><ele>172.0</ele><time>2026-04-12T06:40:46.999Z</time></trkpt><trkpt lat="44.695353375686636" lon="8.027733250665685"><ele>172.0</ele><time>2026-04-12T06:40:48.998Z</time></trkpt><trkpt lat="44.69534659613553" lon="8.027644976386808"><ele>172.0</ele><time>2026-04-12T06:40:49.998Z</time></trkpt><trkpt lat="44.69531869086044" lon="8.027482207981178"><ele>172.0</ele><time>2026-04-12T06:40:51.998Z</time></trkpt><trkpt lat="44.695308879299354" lon="8.027393705038753"><ele>172.0</ele><time>2026-04-12T06:40:52.998Z</time></trkpt><trkpt lat="44.69529630128104" lon="8.027306355053437"><ele>172.0</ele><time>2026-04-12T06:40:53.998Z</time></trkpt><trkpt lat="44.69528168569766" lon="8.02721795921742"><ele>172.0</ele><time>2026-04-12T06:40:55Z</time></trkpt><trkpt lat="44.6952477414291" lon="8.027047531476898"><ele>172.0</ele><time>2026-04-12T06:40:57Z</time></trkpt><trkpt lat="44.6952088942114" lon="8.026894821285818"><ele>172.0</ele><time>2026-04-12T06:40:59Z</time></trkpt><trkpt lat="44.695175653881485" lon="8.026742405006873"><ele>172.0</ele><time>2026-04-12T06:41:01Z</time></trkpt><trkpt lat="44.69515319699081" lon="8.026658969129947"><ele>172.0</ele><time>2026-04-12T06:41:02Z</time></trkpt><trkpt lat="44.69510230337316" lon="8.026501490069812"><ele>172.0</ele><time>2026-04-12T06:41:04Z</time></trkpt><trkpt lat="44.695072105805714" lon="8.026423617587355"><ele>172.0</ele><time>2026-04-12T06:41:05Z</time></trkpt><trkpt lat="44.69504279302484" lon="8.02634041307924"><ele>172.0</ele><time>2026-04-12T06:41:06Z</time></trkpt><trkpt lat="44.69497320959192" lon="8.026191969850606"><ele>172.2</ele><time>2026-04-12T06:41:08Z</time></trkpt><trkpt lat="44.694904485654796" lon="8.026047126361659"><ele>172.39999999999998</ele><time>2026-04-12T06:41:10Z</time></trkpt><trkpt lat="44.69484173148764" lon="8.025897113884467"><ele>172.60000000000002</ele><time>2026-04-12T06:41:12Z</time></trkpt><trkpt lat="44.69477595202543" lon="8.02574529455356"><ele>172.8</ele><time>2026-04-12T06:41:14Z</time></trkpt><trkpt lat="44.69474114861808" lon="8.025669312762997"><ele>173.0</ele><time>2026-04-12T06:41:15Z</time></trkpt><trkpt lat="44.69470439841273" lon="8.02559615739821"><ele>173.0</ele><time>2026-04-12T06:41:16Z</time></trkpt><trkpt lat="44.69466414925043" lon="8.025519144886909"><ele>173.0</ele><time>2026-04-12T06:41:17Z</time></trkpt><trkpt lat="44.694627155679505" lon="8.025447322937943"><ele>173.0</ele><time>2026-04-12T06:41:18Z</time></trkpt><trkpt lat="44.69458979346172" lon="8.025371779291348"><ele>173.0</ele><time>2026-04-12T06:41:19Z</time></trkpt><trkpt lat="44.69452419174567" lon="8.025215877404829"><ele>173.0</ele><time>2026-04-12T06:41:21Z</time></trkpt><trkpt lat="44.69448970233875" lon="8.025139104588854"><ele>173.0</ele><time>2026-04-12T06:41:22Z</time></trkpt><trkpt lat="44.69444128187727" lon="8.025074346795504"><ele>172.83333333333331</ele><time>2026-04-12T06:41:23Z</time></trkpt><trkpt lat="44.6943740258863" lon="8.024926011566322"><ele>172.66666666666666</ele><time>2026-04-12T06:41:25Z</time></trkpt><trkpt lat="44.6943392160405" lon="8.02484923733504"><ele>172.5</ele><time>2026-04-12T06:41:26Z</time></trkpt><trkpt lat="44.69430386217389" lon="8.024771263499206"><ele>172.33333333333334</ele><time>2026-04-12T06:41:27Z</time></trkpt><trkpt lat="44.69426787433173" lon="8.024692061777724"><ele>172.16666666666669</ele><time>2026-04-12T06:41:28Z</time></trkpt><trkpt lat="44.69423389650458" lon="8.024617257423563"><ele>172.0</ele><time>2026-04-12T06:41:29Z</time></trkpt><trkpt lat="44.694181211226976" lon="8.024460268648099"><ele>172.0</ele><time>2026-04-12T06:41:31Z</time></trkpt><trkpt lat="44.69411654246199" lon="8.024324800877423"><ele>172.0</ele><time>2026-04-12T06:41:33Z</time></trkpt><trkpt lat="44.69404850837226" lon="8.024211781682025"><ele>172.0</ele><time>2026-04-12T06:41:35Z</time></trkpt><trkpt lat="44.69404135342516" lon="8.024055690450103"><ele>172.0</ele><time>2026-04-12T06:41:37Z</time></trkpt><trkpt lat="44.69399516817083" lon="8.023911435873622"><ele>172.0</ele><time>2026-04-12T06:41:39Z</time></trkpt><trkpt lat="44.69387916917138" lon="8.02383308308624"><ele>172.0</ele><time>2026-04-12T06:41:41Z</time></trkpt><trkpt lat="44.69382559110265" lon="8.023709916953573"><ele>172.0</ele><time>2026-04-12T06:41:42.999Z</time></trkpt><trkpt lat="44.69377395389418" lon="8.023589688339985"><ele>172.0</ele><time>2026-04-12T06:41:44.999Z</time></trkpt><trkpt lat="44.69372054293012" lon="8.023465201473142"><ele>172.0</ele><time>2026-04-12T06:41:46.999Z</time></trkpt><trkpt lat="44.69366424398074" lon="8.023340767782903"><ele>172.0</ele><time>2026-04-12T06:41:48.999Z</time></trkpt><trkpt lat="44.69360052218355" lon="8.02319981860244"><ele>172.39999999999998</ele><time>2026-04-12T06:41:50.999Z</time></trkpt><trkpt lat="44.693565095562995" lon="8.02312543634751"><ele>172.79999999999998</ele><time>2026-04-12T06:41:51.999Z</time></trkpt><trkpt lat="44.69349712255642" lon="8.02298733778514"><ele>173.2</ele><time>2026-04-12T06:41:53.999Z</time></trkpt><trkpt lat="44.69343032013124" lon="8.022841319093644"><ele>173.6</ele><time>2026-04-12T06:41:55.999Z</time></trkpt><trkpt lat="44.69337233510207" lon="8.022697242658047"><ele>174.0</ele><time>2026-04-12T06:41:57.999Z</time></trkpt><trkpt lat="44.6933348109664" lon="8.022621935809706"><ele>174.0</ele><time>2026-04-12T06:41:58.999Z</time></trkpt><trkpt lat="44.69329612187035" lon="8.02254788962376"><ele>174.0</ele><time>2026-04-12T06:41:59.999Z</time></trkpt><trkpt lat="44.69326020919821" lon="8.022471439727058"><ele>174.0</ele><time>2026-04-12T06:42:00.999Z</time></trkpt><trkpt lat="44.69322904442462" lon="8.022392782832414"><ele>174.0</ele><time>2026-04-12T06:42:01.999Z</time></trkpt><trkpt lat="44.69319803538497" lon="8.022312690031223"><ele>174.0</ele><time>2026-04-12T06:42:02.999Z</time></trkpt><trkpt lat="44.693167101056204" lon="8.022234845595703"><ele>174.0</ele><time>2026-04-12T06:42:03.999Z</time></trkpt><trkpt lat="44.69313129331294" lon="8.022160977038979"><ele>174.0</ele><time>2026-04-12T06:42:04.999Z</time></trkpt><trkpt lat="44.69306685501235" lon="8.022008529475467"><ele>174.0</ele><time>2026-04-12T06:42:06.999Z</time></trkpt><trkpt lat="44.69299415785753" lon="8.02186112580254"><ele>174.0</ele><time>2026-04-12T06:42:08.999Z</time></trkpt><trkpt lat="44.69296160988909" lon="8.021773119679994"><ele>174.0</ele><time>2026-04-12T06:42:09.999Z</time></trkpt><trkpt lat="44.69293072876549" lon="8.021691803086766"><ele>174.0</ele><time>2026-04-12T06:42:10.999Z</time></trkpt><trkpt lat="44.69290312536897" lon="8.021607113075204"><ele>174.0</ele><time>2026-04-12T06:42:11.999Z</time></trkpt><trkpt lat="44.69283071226868" lon="8.021449331174287"><ele>174.16666666666666</ele><time>2026-04-12T06:42:13.999Z</time></trkpt><trkpt lat="44.69274466148907" lon="8.02132054833385"><ele>174.33333333333334</ele><time>2026-04-12T06:42:15.999Z</time></trkpt><trkpt lat="44.69270631336966" lon="8.021236954763644"><ele>174.5</ele><time>2026-04-12T06:42:16.999Z</time></trkpt><trkpt lat="44.69266432374013" lon="8.02115700847284"><ele>174.66666666666669</ele><time>2026-04-12T06:42:17.999Z</time></trkpt><trkpt lat="44.692627784466005" lon="8.021075100886456"><ele>174.83333333333334</ele><time>2026-04-12T06:42:18.999Z</time></trkpt><trkpt lat="44.69259001551312" lon="8.020993778486105"><ele>175.0</ele><time>2026-04-12T06:42:19.999Z</time></trkpt><trkpt lat="44.69255812575722" lon="8.020909624017836"><ele>175.0</ele><time>2026-04-12T06:42:20.999Z</time></trkpt><trkpt lat="44.69251971697926" lon="8.020829484667797"><ele>175.0</ele><time>2026-04-12T06:42:21.999Z</time></trkpt><trkpt lat="44.69248218954639" lon="8.02074834378453"><ele>175.0</ele><time>2026-04-12T06:42:22.999Z</time></trkpt><trkpt lat="44.69244789426014" lon="8.020664406707189"><ele>175.0</ele><time>2026-04-12T06:42:23.999Z</time></trkpt><trkpt lat="44.6924109369303" lon="8.020579435463622"><ele>175.0</ele><time>2026-04-12T06:42:24.999Z</time></trkpt><trkpt lat="44.692371312120166" lon="8.02049613900494"><ele>175.0</ele><time>2026-04-12T06:42:25.999Z</time></trkpt><trkpt lat="44.69233353273823" lon="8.020419187953447"><ele>175.0</ele><time>2026-04-12T06:42:26.999Z</time></trkpt><trkpt lat="44.69229537979465" lon="8.020339484649018"><ele>174.83333333333334</ele><time>2026-04-12T06:42:27.999Z</time></trkpt><trkpt lat="44.692259869849565" lon="8.02026544196729"><ele>174.66666666666669</ele><time>2026-04-12T06:42:28.999Z</time></trkpt><trkpt lat="44.69222388788824" lon="8.020189352923758"><ele>174.5</ele><time>2026-04-12T06:42:29.999Z</time></trkpt><trkpt lat="44.692161120347315" lon="8.020049701999312"><ele>174.33333333333334</ele><time>2026-04-12T06:42:31.999Z</time></trkpt><trkpt lat="44.69210007766607" lon="8.019904758822895"><ele>174.16666666666666</ele><time>2026-04-12T06:42:33.999Z</time></trkpt><trkpt lat="44.69206784997374" lon="8.01982605928463"><ele>174.0</ele><time>2026-04-12T06:42:34.999Z</time></trkpt><trkpt lat="44.69203245070132" lon="8.019752423540671"><ele>173.79999999999998</ele><time>2026-04-12T06:42:35.999Z</time></trkpt><trkpt lat="44.691997660682944" lon="8.019675863909093"><ele>173.6</ele><time>2026-04-12T06:42:36.999Z</time></trkpt><trkpt lat="44.691929766967796" lon="8.01953492489817"><ele>173.4</ele><time>2026-04-12T06:42:38.999Z</time></trkpt><trkpt lat="44.69187716292434" lon="8.019387333858637"><ele>173.2</ele><time>2026-04-12T06:42:40.999Z</time></trkpt><trkpt lat="44.69181580962077" lon="8.019248848601046"><ele>173.0</ele><time>2026-04-12T06:42:42.999Z</time></trkpt><trkpt lat="44.6917545412641" lon="8.019111042727634"><ele>173.5</ele><time>2026-04-12T06:42:44.999Z</time></trkpt><trkpt lat="44.691687103237165" lon="8.01896666979424"><ele>174.0</ele><time>2026-04-12T06:42:46.999Z</time></trkpt><trkpt lat="44.6916084677557" lon="8.01883205291927"><ele>174.5</ele><time>2026-04-12T06:42:48.999Z</time></trkpt><trkpt lat="44.69154523372439" lon="8.018694127685192"><ele>175.0</ele><time>2026-04-12T06:42:50.999Z</time></trkpt><trkpt lat="44.691483982153976" lon="8.018558600315618"><ele>175.0</ele><time>2026-04-12T06:42:52.999Z</time></trkpt><trkpt lat="44.69143256586221" lon="8.018402198006205"><ele>175.0</ele><time>2026-04-12T06:42:54.998Z</time></trkpt><trkpt lat="44.691358312852145" lon="8.018267785208138"><ele>175.0</ele><time>2026-04-12T06:42:56.998Z</time></trkpt><trkpt lat="44.6912969316512" lon="8.018122945462835"><ele>175.0</ele><time>2026-04-12T06:42:58.998Z</time></trkpt><trkpt lat="44.691236897749114" lon="8.017976531000118"><ele>174.25</ele><time>2026-04-12T06:43:01Z</time></trkpt><trkpt lat="44.69116403933483" lon="8.017838618476274"><ele>173.5</ele><time>2026-04-12T06:43:03Z</time></trkpt><trkpt lat="44.69110350019476" lon="8.017692913593686"><ele>172.75</ele><time>2026-04-12T06:43:05Z</time></trkpt><trkpt lat="44.691037426394985" lon="8.017561482777436"><ele>172.0</ele><time>2026-04-12T06:43:07Z</time></trkpt><trkpt lat="44.69097309346831" lon="8.017424367050596"><ele>171.5</ele><time>2026-04-12T06:43:09Z</time></trkpt><trkpt lat="44.69091445118421" lon="8.01729230935291"><ele>171.0</ele><time>2026-04-12T06:43:11Z</time></trkpt><trkpt lat="44.69084940303454" lon="8.017154931466395"><ele>170.5</ele><time>2026-04-12T06:43:13Z</time></trkpt><trkpt lat="44.690790661215175" lon="8.01702056982876"><ele>170.0</ele><time>2026-04-12T06:43:15Z</time></trkpt><trkpt lat="44.69073796206511" lon="8.016885504737752"><ele>170.0</ele><time>2026-04-12T06:43:17Z</time></trkpt><trkpt lat="44.690694279187625" lon="8.016759449327266"><ele>170.0</ele><time>2026-04-12T06:43:19Z</time></trkpt><trkpt lat="44.690648716506324" lon="8.01666915900881"><ele>170.0</ele><time>2026-04-12T06:43:21Z</time></trkpt><trkpt lat="44.69059881488212" lon="8.016589183302543"><ele>170.0</ele><time>2026-04-12T06:43:24Z</time></trkpt><trkpt lat="44.690538695612965" lon="8.016482685018214"><ele>170.0</ele><time>2026-04-12T06:43:27Z</time></trkpt><trkpt lat="44.69049446014618" lon="8.016395720357954"><ele>170.0</ele><time>2026-04-12T06:43:29Z</time></trkpt><trkpt lat="44.69045107697264" lon="8.016288741005585"><ele>170.4</ele><time>2026-04-12T06:43:31Z</time></trkpt><trkpt lat="44.690404909653445" lon="8.016187678330196"><ele>170.8</ele><time>2026-04-12T06:43:33Z</time></trkpt><trkpt lat="44.69035517204627" lon="8.016078800103658"><ele>171.2</ele><time>2026-04-12T06:43:35Z</time></trkpt><trkpt lat="44.69029991209592" lon="8.015957834408416"><ele>171.6</ele><time>2026-04-12T06:43:37Z</time></trkpt><trkpt lat="44.690243658120316" lon="8.015834144875367"><ele>172.0</ele><time>2026-04-12T06:43:39Z</time></trkpt><trkpt lat="44.69018250545029" lon="8.015699968160506"><ele>172.2</ele><time>2026-04-12T06:43:41Z</time></trkpt><trkpt lat="44.69014782126516" lon="8.015623508562085"><ele>172.39999999999998</ele><time>2026-04-12T06:43:42Z</time></trkpt><trkpt lat="44.69008225217189" lon="8.015478812443803"><ele>172.60000000000002</ele><time>2026-04-12T06:43:44Z</time></trkpt><trkpt lat="44.69001869972747" lon="8.015338021166365"><ele>172.8</ele><time>2026-04-12T06:43:46Z</time></trkpt><trkpt lat="44.689955060427344" lon="8.015197037470681"><ele>173.0</ele><time>2026-04-12T06:43:48Z</time></trkpt><trkpt lat="44.68989230104854" lon="8.015058003119726"><ele>172.8</ele><time>2026-04-12T06:43:50Z</time></trkpt><trkpt lat="44.68986020762119" lon="8.014966271839244"><ele>172.60000000000002</ele><time>2026-04-12T06:43:51Z</time></trkpt><trkpt lat="44.68980118290337" lon="8.014821907434362"><ele>172.39999999999998</ele><time>2026-04-12T06:43:52.999Z</time></trkpt><trkpt lat="44.68973122838849" lon="8.014682477380124"><ele>172.2</ele><time>2026-04-12T06:43:54.999Z</time></trkpt><trkpt lat="44.68966919932934" lon="8.014533072749797"><ele>172.0</ele><time>2026-04-12T06:43:56.999Z</time></trkpt><trkpt lat="44.68962405426986" lon="8.014470909687482"><ele>172.0</ele><time>2026-04-12T06:43:57.999Z</time></trkpt><trkpt lat="44.689603466105936" lon="8.014383525788965"><ele>172.0</ele><time>2026-04-12T06:43:58.999Z</time></trkpt><trkpt lat="44.689534428230566" lon="8.014234382104775"><ele>172.0</ele><time>2026-04-12T06:44:00.999Z</time></trkpt><trkpt lat="44.6894995974461" lon="8.014158445490875"><ele>172.0</ele><time>2026-04-12T06:44:01.999Z</time></trkpt><trkpt lat="44.68943279070551" lon="8.014010421195778"><ele>172.0</ele><time>2026-04-12T06:44:03.999Z</time></trkpt><trkpt lat="44.68936556797759" lon="8.013855002933871"><ele>172.39999999999998</ele><time>2026-04-12T06:44:05.999Z</time></trkpt><trkpt lat="44.689316698273096" lon="8.013786205929426"><ele>172.79999999999998</ele><time>2026-04-12T06:44:06.999Z</time></trkpt><trkpt lat="44.68924897225504" lon="8.013633508073227"><ele>173.2</ele><time>2026-04-12T06:44:08.999Z</time></trkpt><trkpt lat="44.689187476928865" lon="8.0134761930113"><ele>173.6</ele><time>2026-04-12T06:44:10.999Z</time></trkpt><trkpt lat="44.68915343610305" lon="8.01339764157051"><ele>174.0</ele><time>2026-04-12T06:44:11.999Z</time></trkpt><trkpt lat="44.689116620578396" lon="8.013318669120496"><ele>174.0</ele><time>2026-04-12T06:44:12.999Z</time></trkpt><trkpt lat="44.68903401295461" lon="8.01318721649362"><ele>174.0</ele><time>2026-04-12T06:44:14.999Z</time></trkpt><trkpt lat="44.6889926431727" lon="8.013115315307315"><ele>174.0</ele><time>2026-04-12T06:44:15.999Z</time></trkpt><trkpt lat="44.68892090817024" lon="8.012974439581313"><ele>174.0</ele><time>2026-04-12T06:44:17.999Z</time></trkpt><trkpt lat="44.6888610468648" lon="8.012828509623779"><ele>174.0</ele><time>2026-04-12T06:44:19.999Z</time></trkpt><trkpt lat="44.68880234969596" lon="8.01268118100742"><ele>174.0</ele><time>2026-04-12T06:44:21.999Z</time></trkpt><trkpt lat="44.688754558103504" lon="8.012510977225876"><ele>174.0</ele><time>2026-04-12T06:44:23.999Z</time></trkpt><trkpt lat="44.688708081962105" lon="8.012446770542933"><ele>174.0</ele><time>2026-04-12T06:44:24.999Z</time></trkpt><trkpt lat="44.68864120962651" lon="8.012296374208983"><ele>174.0</ele><time>2026-04-12T06:44:26.999Z</time></trkpt><trkpt lat="44.68860918822545" lon="8.012217388260897"><ele>174.0</ele><time>2026-04-12T06:44:27.999Z</time></trkpt><trkpt lat="44.68857859201874" lon="8.01213790777701"><ele>174.16666666666666</ele><time>2026-04-12T06:44:28.999Z</time></trkpt><trkpt lat="44.688532420936625" lon="8.012071946790533"><ele>174.33333333333334</ele><time>2026-04-12T06:44:29.999Z</time></trkpt><trkpt lat="44.688504049037114" lon="8.011986490689216"><ele>174.5</ele><time>2026-04-12T06:44:30.999Z</time></trkpt><trkpt lat="44.68847078554893" lon="8.01190911194373"><ele>174.66666666666669</ele><time>2026-04-12T06:44:31.999Z</time></trkpt><trkpt lat="44.68843313988023" lon="8.011836444731562"><ele>174.83333333333334</ele><time>2026-04-12T06:44:32.999Z</time></trkpt><trkpt lat="44.68836824273443" lon="8.011691648494114"><ele>175.0</ele><time>2026-04-12T06:44:34.999Z</time></trkpt><trkpt lat="44.68832520530043" lon="8.011617274374386"><ele>175.0</ele><time>2026-04-12T06:44:35.999Z</time></trkpt><trkpt lat="44.68828976995525" lon="8.011538614408597"><ele>175.0</ele><time>2026-04-12T06:44:36.999Z</time></trkpt><trkpt lat="44.68826001145514" lon="8.011447567697763"><ele>175.0</ele><time>2026-04-12T06:44:37.999Z</time></trkpt><trkpt lat="44.6882265470324" lon="8.011366016352929"><ele>175.0</ele><time>2026-04-12T06:44:38.999Z</time></trkpt><trkpt lat="44.68819080671352" lon="8.011290836042518"><ele>175.0</ele><time>2026-04-12T06:44:39.999Z</time></trkpt><trkpt lat="44.68812220858817" lon="8.01114383702037"><ele>175.0</ele><time>2026-04-12T06:44:41.999Z</time></trkpt><trkpt lat="44.68809146490036" lon="8.011064898340504"><ele>175.0</ele><time>2026-04-12T06:44:42.999Z</time></trkpt><trkpt lat="44.688046448005956" lon="8.010992417007971"><ele>175.0</ele><time>2026-04-12T06:44:43.999Z</time></trkpt><trkpt lat="44.68801445721741" lon="8.010912167282797"><ele>175.0</ele><time>2026-04-12T06:44:44.999Z</time></trkpt><trkpt lat="44.6879820458936" lon="8.010832684581928"><ele>175.0</ele><time>2026-04-12T06:44:45.999Z</time></trkpt><trkpt lat="44.68795121065346" lon="8.010752437119143"><ele>175.0</ele><time>2026-04-12T06:44:46.999Z</time></trkpt><trkpt lat="44.68787447405625" lon="8.010608568671234"><ele>175.0</ele><time>2026-04-12T06:44:48.999Z</time></trkpt><trkpt lat="44.68781104749363" lon="8.010455696839315"><ele>175.16666666666669</ele><time>2026-04-12T06:44:50.999Z</time></trkpt><trkpt lat="44.68777565308017" lon="8.010372284857892"><ele>175.33333333333334</ele><time>2026-04-12T06:44:51.999Z</time></trkpt><trkpt lat="44.68773462389665" lon="8.010298934299804"><ele>175.5</ele><time>2026-04-12T06:44:52.999Z</time></trkpt><trkpt lat="44.68770297938355" lon="8.010219743962296"><ele>175.66666666666666</ele><time>2026-04-12T06:44:53.999Z</time></trkpt><trkpt lat="44.687669184596295" lon="8.010142703389176"><ele>175.83333333333331</ele><time>2026-04-12T06:44:54.999Z</time></trkpt><trkpt lat="44.68763267741879" lon="8.010058139520332"><ele>176.0</ele><time>2026-04-12T06:44:55.999Z</time></trkpt><trkpt lat="44.68756355827781" lon="8.009903926513902"><ele>176.0</ele><time>2026-04-12T06:44:57.999Z</time></trkpt><trkpt lat="44.687529003452575" lon="8.009826058182703"><ele>176.0</ele><time>2026-04-12T06:44:58.999Z</time></trkpt><trkpt lat="44.68749180057059" lon="8.009747785049191"><ele>176.0</ele><time>2026-04-12T06:44:59.999Z</time></trkpt><trkpt lat="44.68745667477803" lon="8.0096642170121"><ele>176.0</ele><time>2026-04-12T06:45:00.999Z</time></trkpt><trkpt lat="44.6874099407549" lon="8.009601761603628"><ele>176.0</ele><time>2026-04-12T06:45:01.999Z</time></trkpt><trkpt lat="44.68737563641786" lon="8.009526445880018"><ele>176.0</ele><time>2026-04-12T06:45:02.999Z</time></trkpt><trkpt lat="44.68734492264561" lon="8.009441566600131"><ele>176.0</ele><time>2026-04-12T06:45:03.998Z</time></trkpt><trkpt lat="44.68731134604158" lon="8.009365136276289"><ele>176.0</ele><time>2026-04-12T06:45:04.998Z</time></trkpt><trkpt lat="44.687237062961515" lon="8.009220996493553"><ele>176.0</ele><time>2026-04-12T06:45:07Z</time></trkpt><trkpt lat="44.68718170681123" lon="8.009071447665224"><ele>176.0</ele><time>2026-04-12T06:45:09Z</time></trkpt><trkpt lat="44.687146816075355" lon="8.008997709437647"><ele>176.0</ele><time>2026-04-12T06:45:10Z</time></trkpt><trkpt lat="44.68708407628106" lon="8.008852417019101"><ele>176.0</ele><time>2026-04-12T06:45:12Z</time></trkpt><trkpt lat="44.687024137472775" lon="8.008707719043356"><ele>176.0</ele><time>2026-04-12T06:45:14Z</time></trkpt><trkpt lat="44.68694005389041" lon="8.008583248376077"><ele>176.0</ele><time>2026-04-12T06:45:16Z</time></trkpt><trkpt lat="44.68692084002076" lon="8.008480863078416"><ele>176.0</ele><time>2026-04-12T06:45:17Z</time></trkpt><trkpt lat="44.6868809132368" lon="8.008403661675262"><ele>176.0</ele><time>2026-04-12T06:45:18Z</time></trkpt><trkpt lat="44.68684559187404" lon="8.008325265009415"><ele>176.0</ele><time>2026-04-12T06:45:19Z</time></trkpt><trkpt lat="44.68676984487051" lon="8.008195691321829"><ele>176.0</ele><time>2026-04-12T06:45:21Z</time></trkpt><trkpt lat="44.686697276404594" lon="8.008051726498914"><ele>176.0</ele><time>2026-04-12T06:45:23Z</time></trkpt><trkpt lat="44.686657766166526" lon="8.007976501977549"><ele>176.0</ele><time>2026-04-12T06:45:24Z</time></trkpt><trkpt lat="44.68661789571429" lon="8.007905939944305"><ele>176.0</ele><time>2026-04-12T06:45:25Z</time></trkpt><trkpt lat="44.686538280984536" lon="8.007769973577359"><ele>176.0</ele><time>2026-04-12T06:45:27Z</time></trkpt><trkpt lat="44.68649631212182" lon="8.00770396825241"><ele>176.0</ele><time>2026-04-12T06:45:28Z</time></trkpt><trkpt lat="44.68645230265369" lon="8.007636742889224"><ele>176.0</ele><time>2026-04-12T06:45:29Z</time></trkpt><trkpt lat="44.686406979246456" lon="8.007568328034726"><ele>176.0</ele><time>2026-04-12T06:45:30Z</time></trkpt><trkpt lat="44.68636060977012" lon="8.007503082634337"><ele>176.0</ele><time>2026-04-12T06:45:31Z</time></trkpt><trkpt lat="44.68631361490042" lon="8.007438024663205"><ele>176.0</ele><time>2026-04-12T06:45:32Z</time></trkpt><trkpt lat="44.686267370782076" lon="8.007377229833862"><ele>176.0</ele><time>2026-04-12T06:45:33Z</time></trkpt><trkpt lat="44.68621921189396" lon="8.007315943624471"><ele>176.0</ele><time>2026-04-12T06:45:34Z</time></trkpt><trkpt lat="44.686126255151315" lon="8.00720370057647"><ele>176.0</ele><time>2026-04-12T06:45:36Z</time></trkpt><trkpt lat="44.686041474087894" lon="8.007086906182222"><ele>175.75</ele><time>2026-04-12T06:45:38Z</time></trkpt><trkpt lat="44.685944398505654" lon="8.006986080043974"><ele>175.5</ele><time>2026-04-12T06:45:40Z</time></trkpt><trkpt lat="44.68583744206178" lon="8.006893696453474"><ele>175.25</ele><time>2026-04-12T06:45:42Z</time></trkpt><trkpt lat="44.68573392466997" lon="8.006811469707293"><ele>175.0</ele><time>2026-04-12T06:45:44Z</time></trkpt><trkpt lat="44.6856411135847" lon="8.006728353907576"><ele>175.0</ele><time>2026-04-12T06:45:46Z</time></trkpt><trkpt lat="44.68558824593575" lon="8.006670266648825"><ele>175.0</ele><time>2026-04-12T06:45:47Z</time></trkpt><trkpt lat="44.68552860408087" lon="8.006635698491097"><ele>175.0</ele><time>2026-04-12T06:45:48Z</time></trkpt><trkpt lat="44.68547857865471" lon="8.00657733373487"><ele>175.0</ele><time>2026-04-12T06:45:49Z</time></trkpt><trkpt lat="44.68541832165378" lon="8.00653617824448"><ele>175.0</ele><time>2026-04-12T06:45:50Z</time></trkpt><trkpt lat="44.685357632130774" lon="8.00650453135443"><ele>175.0</ele><time>2026-04-12T06:45:51Z</time></trkpt><trkpt lat="44.68530506201427" lon="8.006442598181064"><ele>175.0</ele><time>2026-04-12T06:45:52Z</time></trkpt><trkpt lat="44.685194613463764" lon="8.006347166229313"><ele>175.0</ele><time>2026-04-12T06:45:54Z</time></trkpt><trkpt lat="44.685138308016164" lon="8.0063015342941"><ele>175.0</ele><time>2026-04-12T06:45:55Z</time></trkpt><trkpt lat="44.68502971477557" lon="8.006215709905396"><ele>175.0</ele><time>2026-04-12T06:45:56.999Z</time></trkpt><trkpt lat="44.68497274878422" lon="8.006168736660124"><ele>175.0</ele><time>2026-04-12T06:45:57.999Z</time></trkpt><trkpt lat="44.68486170755506" lon="8.006084651113449"><ele>175.0</ele><time>2026-04-12T06:45:59.999Z</time></trkpt><trkpt lat="44.68480575301415" lon="8.006043521284536"><ele>175.0</ele><time>2026-04-12T06:46:00.999Z</time></trkpt><trkpt lat="44.68475182226022" lon="8.00599533336336"><ele>175.0</ele><time>2026-04-12T06:46:01.999Z</time></trkpt><trkpt lat="44.68470290860882" lon="8.00593685256373"><ele>175.0</ele><time>2026-04-12T06:46:02.999Z</time></trkpt><trkpt lat="44.68461275968491" lon="8.005812148301093"><ele>175.0</ele><time>2026-04-12T06:46:04.999Z</time></trkpt><trkpt lat="44.68456906595715" lon="8.005746977231427"><ele>175.0</ele><time>2026-04-12T06:46:05.999Z</time></trkpt><trkpt lat="44.684497665697194" lon="8.005778181946742"><ele>175.0</ele><time>2026-04-12T06:46:06.999Z</time></trkpt><trkpt lat="44.68437404378825" lon="8.005673749566146"><ele>176.0</ele><time>2026-04-12T06:46:08.999Z</time></trkpt><trkpt lat="44.68432558204315" lon="8.005475598361842"><ele>177.0</ele><time>2026-04-12T06:46:10.999Z</time></trkpt><trkpt lat="44.68427476420481" lon="8.005421241077158"><ele>178.0</ele><time>2026-04-12T06:46:11.999Z</time></trkpt><trkpt lat="44.684182586792716" lon="8.005296622590725"><ele>179.0</ele><time>2026-04-12T06:46:13.999Z</time></trkpt><trkpt lat="44.684101180508996" lon="8.005184102669176"><ele>179.0</ele><time>2026-04-12T06:46:15.999Z</time></trkpt><trkpt lat="44.684019398909754" lon="8.005165314739232"><ele>179.0</ele><time>2026-04-12T06:46:16.999Z</time></trkpt><trkpt lat="44.683980258773566" lon="8.005095715854024"><ele>179.0</ele><time>2026-04-12T06:46:17.999Z</time></trkpt><trkpt lat="44.683988498082385" lon="8.004973601691532"><ele>179.0</ele><time>2026-04-12T06:46:18.999Z</time></trkpt><trkpt lat="44.68390785554088" lon="8.004841746370687"><ele>179.0</ele><time>2026-04-12T06:46:20.999Z</time></trkpt><trkpt lat="44.68382409152299" lon="8.004716362160929"><ele>178.83333333333331</ele><time>2026-04-12T06:46:22.999Z</time></trkpt><trkpt lat="44.68378235950157" lon="8.00464535037033"><ele>178.66666666666666</ele><time>2026-04-12T06:46:23.999Z</time></trkpt><trkpt lat="44.683728400717065" lon="8.004588168461968"><ele>178.5</ele><time>2026-04-12T06:46:24.999Z</time></trkpt><trkpt lat="44.68365386710768" lon="8.004443834685294"><ele>178.33333333333334</ele><time>2026-04-12T06:46:26.999Z</time></trkpt><trkpt lat="44.68361716989293" lon="8.00437109012973"><ele>178.16666666666669</ele><time>2026-04-12T06:46:27.999Z</time></trkpt><trkpt lat="44.68358043698595" lon="8.00429827489624"><ele>178.0</ele><time>2026-04-12T06:46:28.999Z</time></trkpt><trkpt lat="44.683543114444134" lon="8.004224290844535"><ele>177.57142857142856</ele><time>2026-04-12T06:46:29.999Z</time></trkpt><trkpt lat="44.68351408004279" lon="8.004139725996554"><ele>177.14285714285714</ele><time>2026-04-12T06:46:30.999Z</time></trkpt><trkpt lat="44.68346638375622" lon="8.003983193746144"><ele>176.71428571428572</ele><time>2026-04-12T06:46:32.999Z</time></trkpt><trkpt lat="44.68343208544848" lon="8.003907638641254"><ele>176.28571428571428</ele><time>2026-04-12T06:46:33.999Z</time></trkpt><trkpt lat="44.68339702741214" lon="8.003831342676557"><ele>175.85714285714286</ele><time>2026-04-12T06:46:34.999Z</time></trkpt><trkpt lat="44.68335869499751" lon="8.003758597666511"><ele>175.42857142857142</ele><time>2026-04-12T06:46:35.999Z</time></trkpt><trkpt lat="44.683322901208626" lon="8.003684728721478"><ele>175.0</ele><time>2026-04-12T06:46:36.999Z</time></trkpt><trkpt lat="44.68328733893866" lon="8.003609983744916"><ele>175.0</ele><time>2026-04-12T06:46:37.999Z</time></trkpt><trkpt lat="44.683251426706434" lon="8.0035303271293"><ele>175.0</ele><time>2026-04-12T06:46:38.999Z</time></trkpt><trkpt lat="44.683216675131796" lon="8.003451782591208"><ele>175.0</ele><time>2026-04-12T06:46:39.999Z</time></trkpt><trkpt lat="44.68318002641136" lon="8.00337025770175"><ele>175.0</ele><time>2026-04-12T06:46:40.999Z</time></trkpt><trkpt lat="44.68314570613978" lon="8.003295198929607"><ele>175.0</ele><time>2026-04-12T06:46:41.999Z</time></trkpt><trkpt lat="44.68310958623863" lon="8.003220955508402"><ele>175.0</ele><time>2026-04-12T06:46:42.999Z</time></trkpt><trkpt lat="44.683069998367" lon="8.003146870694433"><ele>175.0</ele><time>2026-04-12T06:46:43.999Z</time></trkpt><trkpt lat="44.683031734635016" lon="8.003068103721285"><ele>175.0</ele><time>2026-04-12T06:46:44.999Z</time></trkpt><trkpt lat="44.68299620956341" lon="8.002992176750006"><ele>175.0</ele><time>2026-04-12T06:46:45.999Z</time></trkpt><trkpt lat="44.68292541852219" lon="8.002849650260227"><ele>175.0</ele><time>2026-04-12T06:46:47.999Z</time></trkpt><trkpt lat="44.682891313285346" lon="8.002775197535666"><ele>175.0</ele><time>2026-04-12T06:46:48.999Z</time></trkpt><trkpt lat="44.68285629187608" lon="8.002700084333194"><ele>175.0</ele><time>2026-04-12T06:46:49.999Z</time></trkpt><trkpt lat="44.68279207666598" lon="8.002551973740289"><ele>175.0</ele><time>2026-04-12T06:46:51.999Z</time></trkpt><trkpt lat="44.68275529490293" lon="8.002480027932805"><ele>175.0</ele><time>2026-04-12T06:46:52.999Z</time></trkpt><trkpt lat="44.68271532583145" lon="8.002404967044832"><ele>175.0</ele><time>2026-04-12T06:46:53.999Z</time></trkpt><trkpt lat="44.68267428958676" lon="8.00233394570671"><ele>175.0</ele><time>2026-04-12T06:46:54.999Z</time></trkpt><trkpt lat="44.68260412834864" lon="8.002187143101617"><ele>175.0</ele><time>2026-04-12T06:46:56.999Z</time></trkpt><trkpt lat="44.68256942298502" lon="8.002111995374381"><ele>175.0</ele><time>2026-04-12T06:46:57.999Z</time></trkpt><trkpt lat="44.68253347556187" lon="8.002037362517378"><ele>175.0</ele><time>2026-04-12T06:46:58.999Z</time></trkpt><trkpt lat="44.68249864030669" lon="8.00195973705471"><ele>175.0</ele><time>2026-04-12T06:46:59.999Z</time></trkpt><trkpt lat="44.682428801166935" lon="8.001817532945205"><ele>175.0</ele><time>2026-04-12T06:47:01.999Z</time></trkpt><trkpt lat="44.68239019133452" lon="8.00174714160268"><ele>175.0</ele><time>2026-04-12T06:47:02.999Z</time></trkpt><trkpt lat="44.682318481943646" lon="8.001605425362524"><ele>175.0</ele><time>2026-04-12T06:47:04.999Z</time></trkpt><trkpt lat="44.68225064403452" lon="8.001465343940618"><ele>175.0</ele><time>2026-04-12T06:47:06.998Z</time></trkpt><trkpt lat="44.68218065355748" lon="8.00131650421157"><ele>175.0</ele><time>2026-04-12T06:47:08.998Z</time></trkpt><trkpt lat="44.6821049758697" lon="8.001170303638062"><ele>175.0</ele><time>2026-04-12T06:47:10.998Z</time></trkpt><trkpt lat="44.68206730753522" lon="8.001090931149875"><ele>175.0</ele><time>2026-04-12T06:47:11.998Z</time></trkpt><trkpt lat="44.68202913558064" lon="8.00101771405958"><ele>175.0</ele><time>2026-04-12T06:47:13Z</time></trkpt><trkpt lat="44.68198934314115" lon="8.00094095105814"><ele>175.0</ele><time>2026-04-12T06:47:14Z</time></trkpt><trkpt lat="44.681950547430795" lon="8.000863941536203"><ele>175.0</ele><time>2026-04-12T06:47:15Z</time></trkpt><trkpt lat="44.681913013212245" lon="8.000787567566602"><ele>175.28571428571428</ele><time>2026-04-12T06:47:16Z</time></trkpt><trkpt lat="44.68187669508933" lon="8.000708302484162"><ele>175.57142857142856</ele><time>2026-04-12T06:47:17Z</time></trkpt><trkpt lat="44.681836148726305" lon="8.000632515891645"><ele>175.85714285714286</ele><time>2026-04-12T06:47:18Z</time></trkpt><trkpt lat="44.681796373043085" lon="8.000555386378526"><ele>176.14285714285714</ele><time>2026-04-12T06:47:19Z</time></trkpt><trkpt lat="44.68175284234334" lon="8.000480090429619"><ele>176.42857142857142</ele><time>2026-04-12T06:47:20Z</time></trkpt><trkpt lat="44.68171500191283" lon="8.000405595264962"><ele>176.71428571428572</ele><time>2026-04-12T06:47:21Z</time></trkpt><trkpt lat="44.68168004389461" lon="8.00032426174034"><ele>177.0</ele><time>2026-04-12T06:47:22Z</time></trkpt><trkpt lat="44.68164056844579" lon="8.000238352783567"><ele>177.0</ele><time>2026-04-12T06:47:23Z</time></trkpt><trkpt lat="44.68159864632499" lon="8.000163069242399"><ele>177.0</ele><time>2026-04-12T06:47:24Z</time></trkpt><trkpt lat="44.68156053054435" lon="8.000089007365819"><ele>177.0</ele><time>2026-04-12T06:47:25Z</time></trkpt><trkpt lat="44.681525721726096" lon="8.000010545750369"><ele>177.0</ele><time>2026-04-12T06:47:26Z</time></trkpt><trkpt lat="44.6814903407726" lon="7.999922032315239"><ele>177.0</ele><time>2026-04-12T06:47:27Z</time></trkpt><trkpt lat="44.681452936151565" lon="7.999842748886445"><ele>177.0</ele><time>2026-04-12T06:47:28Z</time></trkpt><trkpt lat="44.68141591853595" lon="7.999761925267026"><ele>177.0</ele><time>2026-04-12T06:47:29Z</time></trkpt><trkpt lat="44.68137703464325" lon="7.999682756757095"><ele>177.0</ele><time>2026-04-12T06:47:30Z</time></trkpt><trkpt lat="44.68133795489164" lon="7.999606962092309"><ele>177.0</ele><time>2026-04-12T06:47:31Z</time></trkpt><trkpt lat="44.68129924502503" lon="7.999529453778106"><ele>177.0</ele><time>2026-04-12T06:47:32Z</time></trkpt><trkpt lat="44.681261780717" lon="7.999451851035718"><ele>177.0</ele><time>2026-04-12T06:47:33Z</time></trkpt><trkpt lat="44.68122437362021" lon="7.999375885428268"><ele>177.0</ele><time>2026-04-12T06:47:34Z</time></trkpt><trkpt lat="44.68118698481253" lon="7.999300692249219"><ele>177.0</ele><time>2026-04-12T06:47:35Z</time></trkpt><trkpt lat="44.681147765741315" lon="7.999223040661321"><ele>177.0</ele><time>2026-04-12T06:47:36Z</time></trkpt><trkpt lat="44.68111074130209" lon="7.999149513903573"><ele>176.83333333333334</ele><time>2026-04-12T06:47:37Z</time></trkpt><trkpt lat="44.68107261982227" lon="7.999075078592451"><ele>176.66666666666666</ele><time>2026-04-12T06:47:38Z</time></trkpt><trkpt lat="44.68103598365466" lon="7.999001464362526"><ele>176.5</ele><time>2026-04-12T06:47:39Z</time></trkpt><trkpt lat="44.68099951391782" lon="7.998922534142919"><ele>176.33333333333331</ele><time>2026-04-12T06:47:40Z</time></trkpt><trkpt lat="44.68092805620911" lon="7.998775132069"><ele>176.16666666666666</ele><time>2026-04-12T06:47:42Z</time></trkpt><trkpt lat="44.68088810673246" lon="7.998701289337053"><ele>176.0</ele><time>2026-04-12T06:47:43Z</time></trkpt><trkpt lat="44.680815186192184" lon="7.998549378282692"><ele>176.0</ele><time>2026-04-12T06:47:45Z</time></trkpt><trkpt lat="44.680781793619154" lon="7.998473512526401"><ele>176.0</ele><time>2026-04-12T06:47:46Z</time></trkpt><trkpt lat="44.680744882141475" lon="7.998401027952274"><ele>176.0</ele><time>2026-04-12T06:47:47Z</time></trkpt><trkpt lat="44.68070807229411" lon="7.998325449727567"><ele>176.0</ele><time>2026-04-12T06:47:48Z</time></trkpt><trkpt lat="44.68063615146224" lon="7.9981902116618935"><ele>176.0</ele><time>2026-04-12T06:47:50Z</time></trkpt><trkpt lat="44.680602940887624" lon="7.998114549369619"><ele>176.0</ele><time>2026-04-12T06:47:51Z</time></trkpt><trkpt lat="44.680535473795736" lon="7.997968707553896"><ele>176.20000000000002</ele><time>2026-04-12T06:47:53Z</time></trkpt><trkpt lat="44.68049861747572" lon="7.997895037693646"><ele>176.4</ele><time>2026-04-12T06:47:54Z</time></trkpt><trkpt lat="44.680421643638816" lon="7.997756147449546"><ele>176.6</ele><time>2026-04-12T06:47:56Z</time></trkpt><trkpt lat="44.6803466384327" lon="7.997620697889276"><ele>176.8</ele><time>2026-04-12T06:47:58Z</time></trkpt><trkpt lat="44.68027097660789" lon="7.99747222161019"><ele>177.0</ele><time>2026-04-12T06:48:00Z</time></trkpt><trkpt lat="44.68020206950429" lon="7.997327924571034"><ele>177.33333333333334</ele><time>2026-04-12T06:48:02Z</time></trkpt><trkpt lat="44.6801315040722" lon="7.997178755609898"><ele>177.66666666666666</ele><time>2026-04-12T06:48:03.999Z</time></trkpt><trkpt lat="44.68009308236142" lon="7.997105535175329"><ele>178.0</ele><time>2026-04-12T06:48:04.999Z</time></trkpt><trkpt lat="44.68005815218937" lon="7.997029777777111"><ele>178.33333333333331</ele><time>2026-04-12T06:48:05.999Z</time></trkpt><trkpt lat="44.680019514502696" lon="7.9969571735095615"><ele>178.66666666666666</ele><time>2026-04-12T06:48:06.999Z</time></trkpt><trkpt lat="44.67995334517388" lon="7.996808171738062"><ele>179.0</ele><time>2026-04-12T06:48:08.999Z</time></trkpt><trkpt lat="44.67991856183418" lon="7.996731556400046"><ele>179.2857142857143</ele><time>2026-04-12T06:48:09.999Z</time></trkpt><trkpt lat="44.67988381352017" lon="7.996652295979228"><ele>179.57142857142858</ele><time>2026-04-12T06:48:10.999Z</time></trkpt><trkpt lat="44.679849325327304" lon="7.996577180941995"><ele>179.85714285714286</ele><time>2026-04-12T06:48:11.999Z</time></trkpt><trkpt lat="44.679811393681064" lon="7.996502846817306"><ele>180.14285714285717</ele><time>2026-04-12T06:48:12.999Z</time></trkpt><trkpt lat="44.67977190699842" lon="7.996426051674759"><ele>180.42857142857142</ele><time>2026-04-12T06:48:13.999Z</time></trkpt><trkpt lat="44.67973394208563" lon="7.996349524137177"><ele>180.71428571428572</ele><time>2026-04-12T06:48:14.999Z</time></trkpt><trkpt lat="44.679696504972846" lon="7.996273683204022"><ele>181.0</ele><time>2026-04-12T06:48:15.999Z</time></trkpt><trkpt lat="44.67965875204353" lon="7.996198373755583"><ele>181.0</ele><time>2026-04-12T06:48:16.999Z</time></trkpt><trkpt lat="44.6795911212469" lon="7.996052291061563"><ele>181.0</ele><time>2026-04-12T06:48:18.999Z</time></trkpt><trkpt lat="44.67955351962351" lon="7.995976396896963"><ele>181.0</ele><time>2026-04-12T06:48:19.999Z</time></trkpt><trkpt lat="44.679483060751984" lon="7.995821429653749"><ele>181.0</ele><time>2026-04-12T06:48:21.999Z</time></trkpt><trkpt lat="44.67944937506647" lon="7.995744904989907"><ele>181.0</ele><time>2026-04-12T06:48:22.999Z</time></trkpt><trkpt lat="44.67941421671578" lon="7.995667208038537"><ele>181.0</ele><time>2026-04-12T06:48:23.999Z</time></trkpt><trkpt lat="44.67934271093839" lon="7.995528316617415"><ele>181.0</ele><time>2026-04-12T06:48:25.999Z</time></trkpt><trkpt lat="44.679275228036296" lon="7.995391259635702"><ele>181.0</ele><time>2026-04-12T06:48:27.999Z</time></trkpt><trkpt lat="44.67923679348982" lon="7.995317690817573"><ele>181.0</ele><time>2026-04-12T06:48:28.999Z</time></trkpt><trkpt lat="44.67916604544619" lon="7.995176758777291"><ele>181.0</ele><time>2026-04-12T06:48:30.999Z</time></trkpt><trkpt lat="44.679094976638986" lon="7.995033156175917"><ele>181.0</ele><time>2026-04-12T06:48:32.999Z</time></trkpt><trkpt lat="44.67904041863607" lon="7.994885090219012"><ele>181.0</ele><time>2026-04-12T06:48:34.999Z</time></trkpt><trkpt lat="44.679002437132496" lon="7.994813254643521"><ele>181.0</ele><time>2026-04-12T06:48:35.999Z</time></trkpt><trkpt lat="44.67896720007284" lon="7.994738816194744"><ele>181.0</ele><time>2026-04-12T06:48:36.999Z</time></trkpt><trkpt lat="44.67889626202828" lon="7.994597726009148"><ele>181.0</ele><time>2026-04-12T06:48:38.999Z</time></trkpt><trkpt lat="44.67882547497178" lon="7.994453136428761"><ele>181.0</ele><time>2026-04-12T06:48:40.999Z</time></trkpt><trkpt lat="44.67875482174554" lon="7.994307341671638"><ele>181.0</ele><time>2026-04-12T06:48:42.999Z</time></trkpt><trkpt lat="44.67868640000118" lon="7.994159673688702"><ele>181.0</ele><time>2026-04-12T06:48:44.999Z</time></trkpt><trkpt lat="44.678651411736794" lon="7.994085918017071"><ele>181.0</ele><time>2026-04-12T06:48:45.999Z</time></trkpt><trkpt lat="44.67861419386012" lon="7.994012913208668"><ele>181.0</ele><time>2026-04-12T06:48:46.999Z</time></trkpt><trkpt lat="44.67854517680278" lon="7.99386951526511"><ele>180.8</ele><time>2026-04-12T06:48:48.999Z</time></trkpt><trkpt lat="44.67847691851509" lon="7.993725551811962"><ele>180.60000000000002</ele><time>2026-04-12T06:48:50.999Z</time></trkpt><trkpt lat="44.67843948180948" lon="7.993653368568028"><ele>180.4</ele><time>2026-04-12T06:48:51.999Z</time></trkpt><trkpt lat="44.678367392654636" lon="7.993514129634849"><ele>180.2</ele><time>2026-04-12T06:48:53.999Z</time></trkpt><trkpt lat="44.67830014876841" lon="7.9933735851051635"><ele>180.0</ele><time>2026-04-12T06:48:55.999Z</time></trkpt><trkpt lat="44.678237892826004" lon="7.993231876936267"><ele>179.66666666666666</ele><time>2026-04-12T06:48:57.999Z</time></trkpt><trkpt lat="44.67817174169864" lon="7.993089704180628"><ele>179.33333333333334</ele><time>2026-04-12T06:48:59.999Z</time></trkpt><trkpt lat="44.67813575939126" lon="7.9930149384049916"><ele>179.0</ele><time>2026-04-12T06:49:00.999Z</time></trkpt><trkpt lat="44.678100030659884" lon="7.992940505184204"><ele>178.66666666666669</ele><time>2026-04-12T06:49:01.999Z</time></trkpt><trkpt lat="44.67806221936023" lon="7.99286692653043"><ele>178.33333333333334</ele><time>2026-04-12T06:49:02.999Z</time></trkpt><trkpt lat="44.67798719857366" lon="7.99272511054184"><ele>178.0</ele><time>2026-04-12T06:49:04.999Z</time></trkpt><trkpt lat="44.6779491258026" lon="7.992653138546716"><ele>178.0</ele><time>2026-04-12T06:49:05.999Z</time></trkpt><trkpt lat="44.67790867961848" lon="7.992584949610192"><ele>178.0</ele><time>2026-04-12T06:49:06.999Z</time></trkpt><trkpt lat="44.677826677082294" lon="7.992446648283398"><ele>178.0</ele><time>2026-04-12T06:49:08.999Z</time></trkpt><trkpt lat="44.677746918752426" lon="7.9923082286679845"><ele>178.0</ele><time>2026-04-12T06:49:10.999Z</time></trkpt><trkpt lat="44.6777061894874" lon="7.992235743693087"><ele>178.0</ele><time>2026-04-12T06:49:11.999Z</time></trkpt><trkpt lat="44.67766979623569" lon="7.992162300136442"><ele>178.0</ele><time>2026-04-12T06:49:12.999Z</time></trkpt><trkpt lat="44.677598345984386" lon="7.992021054570223"><ele>178.0</ele><time>2026-04-12T06:49:14.999Z</time></trkpt><trkpt lat="44.67755340469663" lon="7.991948443157889"><ele>178.0</ele><time>2026-04-12T06:49:15.998Z</time></trkpt><trkpt lat="44.67751106323293" lon="7.991876944560339"><ele>178.0</ele><time>2026-04-12T06:49:16.998Z</time></trkpt><trkpt lat="44.677471849343405" lon="7.991801973639631"><ele>178.0</ele><time>2026-04-12T06:49:17.998Z</time></trkpt><trkpt lat="44.67743020403971" lon="7.9917316353493675"><ele>178.0</ele><time>2026-04-12T06:49:19Z</time></trkpt><trkpt lat="44.67739359578733" lon="7.991659168948226"><ele>178.0</ele><time>2026-04-12T06:49:20Z</time></trkpt><trkpt lat="44.67731647774723" lon="7.991519193724947"><ele>177.99999999999997</ele><time>2026-04-12T06:49:22Z</time></trkpt><trkpt lat="44.67727607141532" lon="7.9914501837017085"><ele>178.0</ele><time>2026-04-12T06:49:23Z</time></trkpt><trkpt lat="44.677235180970285" lon="7.991377194256854"><ele>178.0</ele><time>2026-04-12T06:49:24Z</time></trkpt><trkpt lat="44.677194447142554" lon="7.991305706199406"><ele>178.0</ele><time>2026-04-12T06:49:25Z</time></trkpt><trkpt lat="44.67715531095437" lon="7.991232670651517"><ele>178.0</ele><time>2026-04-12T06:49:26Z</time></trkpt><trkpt lat="44.677118236834694" lon="7.991159979328411"><ele>177.99999999999997</ele><time>2026-04-12T06:49:27Z</time></trkpt><trkpt lat="44.677079655326736" lon="7.991088116789597"><ele>178.0</ele><time>2026-04-12T06:49:28Z</time></trkpt><trkpt lat="44.677038672819954" lon="7.991013449797968"><ele>177.99999999999997</ele><time>2026-04-12T06:49:29Z</time></trkpt><trkpt lat="44.67700025324263" lon="7.990940876930911"><ele>178.0</ele><time>2026-04-12T06:49:30Z</time></trkpt><trkpt lat="44.67695926139608" lon="7.990870129107397"><ele>178.0</ele><time>2026-04-12T06:49:31Z</time></trkpt><trkpt lat="44.67691857832664" lon="7.990799606071472"><ele>178.0</ele><time>2026-04-12T06:49:32Z</time></trkpt><trkpt lat="44.67687091054441" lon="7.990727592070258"><ele>178.0</ele><time>2026-04-12T06:49:33Z</time></trkpt><trkpt lat="44.676841803708975" lon="7.9906487552913195"><ele>177.99999999999997</ele><time>2026-04-12T06:49:34Z</time></trkpt><trkpt lat="44.67679485787353" lon="7.99049264701691"><ele>178.0</ele><time>2026-04-12T06:49:36Z</time></trkpt><trkpt lat="44.67671261284692" lon="7.990359160556694"><ele>178.60000000000002</ele><time>2026-04-12T06:49:38Z</time></trkpt><trkpt lat="44.6766513733851" lon="7.990327547719844"><ele>179.20000000000002</ele><time>2026-04-12T06:49:39Z</time></trkpt><trkpt lat="44.676536099958554" lon="7.990280983143085"><ele>179.8</ele><time>2026-04-12T06:49:41Z</time></trkpt><trkpt lat="44.676422842770876" lon="7.990219160887616"><ele>180.4</ele><time>2026-04-12T06:49:43Z</time></trkpt><trkpt lat="44.67632621109898" lon="7.990132756593541"><ele>181.0</ele><time>2026-04-12T06:49:45Z</time></trkpt><trkpt lat="44.67622746023176" lon="7.990027587884659"><ele>181.0</ele><time>2026-04-12T06:49:47Z</time></trkpt><trkpt lat="44.67611682281719" lon="7.9899611933154056"><ele>181.0</ele><time>2026-04-12T06:49:49Z</time></trkpt><trkpt lat="44.67600985439049" lon="7.989899508358411"><ele>181.0</ele><time>2026-04-12T06:49:51Z</time></trkpt><trkpt lat="44.67590011110148" lon="7.989835544944392"><ele>181.0</ele><time>2026-04-12T06:49:53Z</time></trkpt><trkpt lat="44.67579074159733" lon="7.9897572677272395"><ele>181.25</ele><time>2026-04-12T06:49:55Z</time></trkpt><trkpt lat="44.67568753679082" lon="7.989690877616265"><ele>181.5</ele><time>2026-04-12T06:49:57Z</time></trkpt><trkpt lat="44.6755811299915" lon="7.989621654369249"><ele>181.75</ele><time>2026-04-12T06:49:59Z</time></trkpt><trkpt lat="44.67547882052102" lon="7.989550657772668"><ele>182.0</ele><time>2026-04-12T06:50:01Z</time></trkpt><trkpt lat="44.67537555664306" lon="7.989488344545808"><ele>182.0</ele><time>2026-04-12T06:50:03Z</time></trkpt><trkpt lat="44.67527240995135" lon="7.9894197293112725"><ele>182.0</ele><time>2026-04-12T06:50:05Z</time></trkpt><trkpt lat="44.6751677753577" lon="7.9893587191405695"><ele>182.0</ele><time>2026-04-12T06:50:07Z</time></trkpt><trkpt lat="44.6750712739563" lon="7.989297429051387"><ele>182.0</ele><time>2026-04-12T06:50:08.999Z</time></trkpt><trkpt lat="44.67498539217633" lon="7.989246095819219"><ele>182.0</ele><time>2026-04-12T06:50:10.999Z</time></trkpt><trkpt lat="44.674898651840294" lon="7.989203409491034"><ele>182.16666666666666</ele><time>2026-04-12T06:50:12.999Z</time></trkpt><trkpt lat="44.674816958597326" lon="7.989158542080817"><ele>182.33333333333331</ele><time>2026-04-12T06:50:14.999Z</time></trkpt><trkpt lat="44.67473995222004" lon="7.9891172292654415"><ele>182.5</ele><time>2026-04-12T06:50:16.999Z</time></trkpt><trkpt lat="44.674660895829916" lon="7.989087565091036"><ele>182.66666666666666</ele><time>2026-04-12T06:50:18.999Z</time></trkpt><trkpt lat="44.67458383541672" lon="7.989064883780825"><ele>182.83333333333334</ele><time>2026-04-12T06:50:20.999Z</time></trkpt><trkpt lat="44.67450434611519" lon="7.989042369080717"><ele>183.0</ele><time>2026-04-12T06:50:22.999Z</time></trkpt><trkpt lat="44.67442319476444" lon="7.989026854061589"><ele>183.2</ele><time>2026-04-12T06:50:24.999Z</time></trkpt><trkpt lat="44.67433875501157" lon="7.98901087921445"><ele>183.4</ele><time>2026-04-12T06:50:26.999Z</time></trkpt><trkpt lat="44.674246522725056" lon="7.9890013604258945"><ele>183.6</ele><time>2026-04-12T06:50:28.999Z</time></trkpt><trkpt lat="44.67415149173931" lon="7.988989038493085"><ele>183.79999999999998</ele><time>2026-04-12T06:50:30.999Z</time></trkpt><trkpt lat="44.674050786344644" lon="7.988979974113789"><ele>184.0</ele><time>2026-04-12T06:50:32.999Z</time></trkpt><trkpt lat="44.673939378213355" lon="7.988975474854842"><ele>184.0</ele><time>2026-04-12T06:50:34.999Z</time></trkpt><trkpt lat="44.673830240001585" lon="7.988970714002974"><ele>184.0</ele><time>2026-04-12T06:50:36.999Z</time></trkpt><trkpt lat="44.67371968034904" lon="7.988967009364469"><ele>184.0</ele><time>2026-04-12T06:50:38.999Z</time></trkpt><trkpt lat="44.67360891817379" lon="7.98896569732761"><ele>184.0</ele><time>2026-04-12T06:50:40.999Z</time></trkpt><trkpt lat="44.67349499655326" lon="7.988965727858274"><ele>184.0</ele><time>2026-04-12T06:50:42.999Z</time></trkpt><trkpt lat="44.67338453353806" lon="7.988961652715805"><ele>183.6</ele><time>2026-04-12T06:50:44.999Z</time></trkpt><trkpt lat="44.673274324012226" lon="7.988951518770577"><ele>183.2</ele><time>2026-04-12T06:50:46.999Z</time></trkpt><trkpt lat="44.67316440284309" lon="7.988937474682538"><ele>182.79999999999998</ele><time>2026-04-12T06:50:48.999Z</time></trkpt><trkpt lat="44.67305485267218" lon="7.9889144133644265"><ele>182.39999999999998</ele><time>2026-04-12T06:50:50.999Z</time></trkpt><trkpt lat="44.67294349082251" lon="7.988882253481937"><ele>182.0</ele><time>2026-04-12T06:50:52.999Z</time></trkpt><trkpt lat="44.67283438392631" lon="7.988842143959118"><ele>182.0</ele><time>2026-04-12T06:50:54.999Z</time></trkpt><trkpt lat="44.672727846799894" lon="7.9887870416313325"><ele>182.0</ele><time>2026-04-12T06:50:56.999Z</time></trkpt><trkpt lat="44.67262290448413" lon="7.988733553185131"><ele>182.0</ele><time>2026-04-12T06:50:58.999Z</time></trkpt><trkpt lat="44.672522523395536" lon="7.9886718906289325"><ele>182.0</ele><time>2026-04-12T06:51:00.999Z</time></trkpt><trkpt lat="44.67241970606951" lon="7.988604029904861"><ele>182.0</ele><time>2026-04-12T06:51:02.999Z</time></trkpt><trkpt lat="44.67231188156984" lon="7.9885446256065"><ele>182.0</ele><time>2026-04-12T06:51:04.999Z</time></trkpt><trkpt lat="44.67220360881299" lon="7.988509766636897"><ele>182.0</ele><time>2026-04-12T06:51:06.999Z</time></trkpt><trkpt lat="44.67208793080195" lon="7.988457419202655"><ele>182.0</ele><time>2026-04-12T06:51:08.999Z</time></trkpt><trkpt lat="44.67202944647663" lon="7.98842277030336"><ele>182.0</ele><time>2026-04-12T06:51:09.999Z</time></trkpt><trkpt lat="44.671921874416576" lon="7.988363055381241"><ele>182.0</ele><time>2026-04-12T06:51:11.999Z</time></trkpt><trkpt lat="44.67183777165963" lon="7.988300247701396"><ele>182.75</ele><time>2026-04-12T06:51:13.999Z</time></trkpt><trkpt lat="44.67173469873037" lon="7.98822632261926"><ele>183.5</ele><time>2026-04-12T06:51:15.999Z</time></trkpt><trkpt lat="44.671628055156674" lon="7.988128620491608"><ele>184.25</ele><time>2026-04-12T06:51:17.999Z</time></trkpt><trkpt lat="44.67153020616436" lon="7.988038983392417"><ele>185.0</ele><time>2026-04-12T06:51:19.998Z</time></trkpt><trkpt lat="44.67144515458545" lon="7.987938991035586"><ele>185.0</ele><time>2026-04-12T06:51:21.998Z</time></trkpt><trkpt lat="44.671344451336495" lon="7.987837621188929"><ele>185.0</ele><time>2026-04-12T06:51:23.998Z</time></trkpt><trkpt lat="44.67123666903299" lon="7.987752199224221"><ele>185.0</ele><time>2026-04-12T06:51:26Z</time></trkpt><trkpt lat="44.67112745031981" lon="7.98767866077838"><ele>185.0</ele><time>2026-04-12T06:51:28Z</time></trkpt><trkpt lat="44.67106872539078" lon="7.987640105927185"><ele>185.0</ele><time>2026-04-12T06:51:29Z</time></trkpt><trkpt lat="44.67100469853735" lon="7.987609232951685"><ele>185.0</ele><time>2026-04-12T06:51:30Z</time></trkpt><trkpt lat="44.67094367900222" lon="7.987581671454756"><ele>185.0</ele><time>2026-04-12T06:51:31Z</time></trkpt><trkpt lat="44.670882103861096" lon="7.987553514844041"><ele>185.0</ele><time>2026-04-12T06:51:32Z</time></trkpt><trkpt lat="44.67081814485574" lon="7.987522967845045"><ele>185.0</ele><time>2026-04-12T06:51:33Z</time></trkpt><trkpt lat="44.67069665055401" lon="7.9874774471779455"><ele>185.0</ele><time>2026-04-12T06:51:35Z</time></trkpt><trkpt lat="44.670585956961865" lon="7.987425279252797"><ele>185.0</ele><time>2026-04-12T06:51:37Z</time></trkpt><trkpt lat="44.67047207557088" lon="7.987375944951299"><ele>185.0</ele><time>2026-04-12T06:51:39Z</time></trkpt><trkpt lat="44.670358726911886" lon="7.987331050312597"><ele>185.0</ele><time>2026-04-12T06:51:41Z</time></trkpt><trkpt lat="44.67024293273665" lon="7.987278057455799"><ele>185.0</ele><time>2026-04-12T06:51:43Z</time></trkpt><trkpt lat="44.67012156047598" lon="7.987229412426224"><ele>185.0</ele><time>2026-04-12T06:51:45Z</time></trkpt><trkpt lat="44.67005949127841" lon="7.987204372515045"><ele>185.0</ele><time>2026-04-12T06:51:46Z</time></trkpt><trkpt lat="44.66999691766347" lon="7.987179668949092"><ele>185.0</ele><time>2026-04-12T06:51:47Z</time></trkpt><trkpt lat="44.66993302657817" lon="7.987155510124935"><ele>185.0</ele><time>2026-04-12T06:51:48Z</time></trkpt><trkpt lat="44.669808527617974" lon="7.987129391532765"><ele>185.0</ele><time>2026-04-12T06:51:50Z</time></trkpt><trkpt lat="44.669685677797496" lon="7.987112039554873"><ele>185.0</ele><time>2026-04-12T06:51:52Z</time></trkpt><trkpt lat="44.6695645526892" lon="7.987087464788256"><ele>185.0</ele><time>2026-04-12T06:51:54Z</time></trkpt><trkpt lat="44.66944869734899" lon="7.987070169891339"><ele>185.2</ele><time>2026-04-12T06:51:56Z</time></trkpt><trkpt lat="44.669347694168344" lon="7.987053747537457"><ele>185.4</ele><time>2026-04-12T06:51:58Z</time></trkpt><trkpt lat="44.66924829858989" lon="7.987037900129047"><ele>185.60000000000002</ele><time>2026-04-12T06:52:00Z</time></trkpt><trkpt lat="44.66913921153613" lon="7.987015397291028"><ele>185.8</ele><time>2026-04-12T06:52:02Z</time></trkpt><trkpt lat="44.66901541708656" lon="7.987002103156324"><ele>186.0</ele><time>2026-04-12T06:52:04Z</time></trkpt><trkpt lat="44.6689022918572" lon="7.986977678711599"><ele>186.0</ele><time>2026-04-12T06:52:06Z</time></trkpt><trkpt lat="44.66878324654901" lon="7.986939406518958"><ele>186.0</ele><time>2026-04-12T06:52:08Z</time></trkpt><trkpt lat="44.6686764642768" lon="7.986905481293215"><ele>186.0</ele><time>2026-04-12T06:52:10Z</time></trkpt><trkpt lat="44.668576928034284" lon="7.986847718029538"><ele>186.0</ele><time>2026-04-12T06:52:12Z</time></trkpt><trkpt lat="44.668477979648564" lon="7.986811903470045"><ele>186.0</ele><time>2026-04-12T06:52:14Z</time></trkpt><trkpt lat="44.66838222204771" lon="7.98677007483317"><ele>186.20000000000002</ele><time>2026-04-12T06:52:16Z</time></trkpt><trkpt lat="44.66829853046855" lon="7.986715607103696"><ele>186.4</ele><time>2026-04-12T06:52:17.999Z</time></trkpt><trkpt lat="44.66823800619472" lon="7.986661045960644"><ele>186.6</ele><time>2026-04-12T06:52:19.999Z</time></trkpt><trkpt lat="44.66811620912663" lon="7.986796314124262"><ele>186.8</ele><time>2026-04-12T06:52:22.999Z</time></trkpt><trkpt lat="44.66806034466589" lon="7.986891547429094"><ele>187.0</ele><time>2026-04-12T06:52:24.999Z</time></trkpt><trkpt lat="44.668002789221994" lon="7.986991173448057"><ele>187.0</ele><time>2026-04-12T06:52:26.999Z</time></trkpt><trkpt lat="44.66794737955268" lon="7.987086255796665"><ele>187.0</ele><time>2026-04-12T06:52:28.999Z</time></trkpt><trkpt lat="44.66789296462293" lon="7.987192571264881"><ele>187.0</ele><time>2026-04-12T06:52:30.999Z</time></trkpt><trkpt lat="44.66783373669152" lon="7.987299293056777"><ele>187.0</ele><time>2026-04-12T06:52:32.999Z</time></trkpt><trkpt lat="44.66777668786913" lon="7.9874125397705225"><ele>187.0</ele><time>2026-04-12T06:52:34.999Z</time></trkpt><trkpt lat="44.667717672603324" lon="7.9875172004358825"><ele>187.0</ele><time>2026-04-12T06:52:36.999Z</time></trkpt><trkpt lat="44.667653734784665" lon="7.987622070752223"><ele>187.0</ele><time>2026-04-12T06:52:38.999Z</time></trkpt><trkpt lat="44.66759216417004" lon="7.98773061554356"><ele>187.0</ele><time>2026-04-12T06:52:40.999Z</time></trkpt><trkpt lat="44.667531805965844" lon="7.987838351549328"><ele>187.0</ele><time>2026-04-12T06:52:42.999Z</time></trkpt><trkpt lat="44.667472840515074" lon="7.987948228863295"><ele>187.0</ele><time>2026-04-12T06:52:44.999Z</time></trkpt><trkpt lat="44.667416492261616" lon="7.9880604931798285"><ele>187.0</ele><time>2026-04-12T06:52:46.999Z</time></trkpt><trkpt lat="44.667353682247025" lon="7.988172223815673"><ele>187.0</ele><time>2026-04-12T06:52:48.999Z</time></trkpt><trkpt lat="44.667297754236664" lon="7.988290631398835"><ele>187.0</ele><time>2026-04-12T06:52:50.999Z</time></trkpt><trkpt lat="44.66722601592979" lon="7.9884004184997535"><ele>187.0</ele><time>2026-04-12T06:52:52.999Z</time></trkpt><trkpt lat="44.6671645700484" lon="7.988518612701142"><ele>187.0</ele><time>2026-04-12T06:52:54.999Z</time></trkpt><trkpt lat="44.66710161053625" lon="7.988637640745846"><ele>187.2</ele><time>2026-04-12T06:52:56.999Z</time></trkpt><trkpt lat="44.66703860972385" lon="7.988757892988303"><ele>187.39999999999998</ele><time>2026-04-12T06:52:58.999Z</time></trkpt><trkpt lat="44.66697327607654" lon="7.988869642827157"><ele>187.60000000000002</ele><time>2026-04-12T06:53:00.999Z</time></trkpt><trkpt lat="44.66690689015399" lon="7.988979065865504"><ele>187.8</ele><time>2026-04-12T06:53:02.999Z</time></trkpt><trkpt lat="44.66683858411126" lon="7.989088255568131"><ele>188.0</ele><time>2026-04-12T06:53:04.999Z</time></trkpt><trkpt lat="44.66676850907796" lon="7.989188448024811"><ele>188.0</ele><time>2026-04-12T06:53:06.999Z</time></trkpt><trkpt lat="44.6667002360944" lon="7.9892903657904"><ele>188.0</ele><time>2026-04-12T06:53:08.999Z</time></trkpt><trkpt lat="44.66663456849114" lon="7.989384693399745"><ele>188.0</ele><time>2026-04-12T06:53:10.999Z</time></trkpt><trkpt lat="44.66656815972778" lon="7.989478124014836"><ele>188.0</ele><time>2026-04-12T06:53:12.999Z</time></trkpt><trkpt lat="44.66651136161526" lon="7.98957596239895"><ele>188.0</ele><time>2026-04-12T06:53:14.999Z</time></trkpt><trkpt lat="44.666451364136314" lon="7.989662316735069"><ele>188.0</ele><time>2026-04-12T06:53:16.999Z</time></trkpt><trkpt lat="44.666383768722575" lon="7.9897399750944365"><ele>188.0</ele><time>2026-04-12T06:53:18.999Z</time></trkpt><trkpt lat="44.666316105688495" lon="7.989814877496627"><ele>188.0</ele><time>2026-04-12T06:53:20.999Z</time></trkpt><trkpt lat="44.66625140940151" lon="7.9898979839685556"><ele>188.0</ele><time>2026-04-12T06:53:22.999Z</time></trkpt><trkpt lat="44.66618762135723" lon="7.989979245527772"><ele>188.0</ele><time>2026-04-12T06:53:24.999Z</time></trkpt><trkpt lat="44.66612945413065" lon="7.990059976594434"><ele>188.0</ele><time>2026-04-12T06:53:26.999Z</time></trkpt><trkpt lat="44.66607447449115" lon="7.990135994262737"><ele>188.0</ele><time>2026-04-12T06:53:28.998Z</time></trkpt><trkpt lat="44.66602216578596" lon="7.99019847851626"><ele>188.0</ele><time>2026-04-12T06:53:31Z</time></trkpt><trkpt lat="44.66597087723705" lon="7.990251528988617"><ele>188.0</ele><time>2026-04-12T06:53:33Z</time></trkpt><trkpt lat="44.66593339142924" lon="7.990324050564414"><ele>188.0</ele><time>2026-04-12T06:53:35Z</time></trkpt><trkpt lat="44.66586210360772" lon="7.990397811955735"><ele>188.0</ele><time>2026-04-12T06:53:38Z</time></trkpt><trkpt lat="44.665797786786115" lon="7.990476651067365"><ele>188.0</ele><time>2026-04-12T06:53:41Z</time></trkpt><trkpt lat="44.66573944001108" lon="7.990549052182154"><ele>188.0</ele><time>2026-04-12T06:53:44Z</time></trkpt><trkpt lat="44.665681081803406" lon="7.990632665396148"><ele>188.0</ele><time>2026-04-12T06:53:47Z</time></trkpt><trkpt lat="44.665619849923665" lon="7.990728973004701"><ele>188.0</ele><time>2026-04-12T06:53:50Z</time></trkpt><trkpt lat="44.665559371251966" lon="7.9908017076212285"><ele>188.0</ele><time>2026-04-12T06:53:53Z</time></trkpt><trkpt lat="44.665495848009215" lon="7.990888438852767"><ele>188.0</ele><time>2026-04-12T06:53:56Z</time></trkpt><trkpt lat="44.66543386641483" lon="7.990956485318176"><ele>188.0</ele><time>2026-04-12T06:53:59Z</time></trkpt><trkpt lat="44.66536722787704" lon="7.991023412982594"><ele>188.0</ele><time>2026-04-12T06:54:02Z</time></trkpt><trkpt lat="44.66530087140029" lon="7.991098626126836"><ele>189.83333333333331</ele><time>2026-04-12T06:54:05Z</time></trkpt><trkpt lat="44.66524203263742" lon="7.991178121671349"><ele>191.66666666666666</ele><time>2026-04-12T06:54:08Z</time></trkpt><trkpt lat="44.66518323003036" lon="7.9912466454767435"><ele>193.5</ele><time>2026-04-12T06:54:11Z</time></trkpt><trkpt lat="44.66511726380613" lon="7.99131761389487"><ele>195.33333333333331</ele><time>2026-04-12T06:54:14Z</time></trkpt><trkpt lat="44.665050005037266" lon="7.9913824883291005"><ele>197.16666666666666</ele><time>2026-04-12T06:54:17Z</time></trkpt><trkpt lat="44.664991743754776" lon="7.991436995660742"><ele>199.0</ele><time>2026-04-12T06:54:20Z</time></trkpt><trkpt lat="44.664931621189325" lon="7.991487131678977"><ele>199.0</ele><time>2026-04-12T06:54:23.999Z</time></trkpt><trkpt lat="44.66488867531691" lon="7.991563118751598"><ele>199.0</ele><time>2026-04-12T06:54:28.999Z</time></trkpt><trkpt lat="44.66501933903411" lon="7.9914159671806075"><ele>199.0</ele><time>2026-04-12T06:54:38.999Z</time></trkpt><trkpt lat="44.66507619997604" lon="7.991354591065467"><ele>199.0</ele><time>2026-04-12T06:54:41.999Z</time></trkpt><trkpt lat="44.665134362986215" lon="7.991291809485797"><ele>199.0</ele><time>2026-04-12T06:54:44.999Z</time></trkpt><trkpt lat="44.66520168440645" lon="7.991217828287499"><ele>199.0</ele><time>2026-04-12T06:54:47.999Z</time></trkpt><trkpt lat="44.66526119491589" lon="7.991151481448316"><ele>199.0</ele><time>2026-04-12T06:54:49.999Z</time></trkpt><trkpt lat="44.66533555242094" lon="7.991068582097872"><ele>199.0</ele><time>2026-04-12T06:54:51.999Z</time></trkpt><trkpt lat="44.665417426685075" lon="7.990974856134947"><ele>199.0</ele><time>2026-04-12T06:54:53.999Z</time></trkpt><trkpt lat="44.66549643609677" lon="7.990883755077874"><ele>199.0</ele><time>2026-04-12T06:54:55.999Z</time></trkpt><trkpt lat="44.66555448739977" lon="7.990816819635084"><ele>196.25</ele><time>2026-04-12T06:54:57.999Z</time></trkpt><trkpt lat="44.6656013425976" lon="7.990749813972792"><ele>193.5</ele><time>2026-04-12T06:54:59.999Z</time></trkpt><trkpt lat="44.66563943741599" lon="7.990676096596634"><ele>190.75</ele><time>2026-04-12T06:55:03.999Z</time></trkpt><trkpt lat="44.66569151621148" lon="7.990602252272165"><ele>188.0</ele><time>2026-04-12T06:55:08.999Z</time></trkpt><trkpt lat="44.665355967892346" lon="7.990017351757159"><ele>194.0</ele><time>2026-04-12T06:55:11.999Z</time></trkpt><trkpt lat="44.665073146121266" lon="7.989506802852839"><ele>194.00000000000003</ele><time>2026-04-12T06:55:26.999Z</time></trkpt><trkpt lat="44.66500131593888" lon="7.989436753226131"><ele>194.0</ele><time>2026-04-12T06:55:29.999Z</time></trkpt><trkpt lat="44.66494971325293" lon="7.989383019999628"><ele>194.0</ele><time>2026-04-12T06:55:31.999Z</time></trkpt><trkpt lat="44.664869569865054" lon="7.989327097675219"><ele>194.0</ele><time>2026-04-12T06:55:33.998Z</time></trkpt><trkpt lat="44.664812979967415" lon="7.989284117485518"><ele>194.00000000000003</ele><time>2026-04-12T06:55:35.998Z</time></trkpt><trkpt lat="44.66474818784296" lon="7.989232385949743"><ele>194.0</ele><time>2026-04-12T06:55:38Z</time></trkpt><trkpt lat="44.66468651224466" lon="7.989182163645062"><ele>193.85714285714286</ele><time>2026-04-12T06:55:40Z</time></trkpt><trkpt lat="44.66462683431492" lon="7.989132562838802"><ele>193.71428571428572</ele><time>2026-04-12T06:55:42Z</time></trkpt><trkpt lat="44.66456373835236" lon="7.989092473447529"><ele>193.57142857142858</ele><time>2026-04-12T06:55:44Z</time></trkpt><trkpt lat="44.66450146902522" lon="7.989040821024255"><ele>193.42857142857144</ele><time>2026-04-12T06:55:46Z</time></trkpt><trkpt lat="44.66444156522653" lon="7.989002256779738"><ele>193.28571428571428</ele><time>2026-04-12T06:55:48Z</time></trkpt><trkpt lat="44.66438278220984" lon="7.9889646470338525"><ele>193.14285714285717</ele><time>2026-04-12T06:55:50Z</time></trkpt><trkpt lat="44.66430366893632" lon="7.988916553210157"><ele>193.0</ele><time>2026-04-12T06:55:53Z</time></trkpt><trkpt lat="44.664240824855824" lon="7.9888900140906935"><ele>193.00000000000003</ele><time>2026-04-12T06:55:55Z</time></trkpt><trkpt lat="44.66418001588822" lon="7.988851934261857"><ele>193.0</ele><time>2026-04-12T06:55:57Z</time></trkpt><trkpt lat="44.66411819957058" lon="7.988818851743565"><ele>193.0</ele><time>2026-04-12T06:55:59Z</time></trkpt><trkpt lat="44.66405338541284" lon="7.988781078896002"><ele>193.0</ele><time>2026-04-12T06:56:01Z</time></trkpt><trkpt lat="44.663991525549655" lon="7.988736422373175"><ele>193.0</ele><time>2026-04-12T06:56:03Z</time></trkpt><trkpt lat="44.663922562934204" lon="7.98867349198634"><ele>193.00000000000003</ele><time>2026-04-12T06:56:05Z</time></trkpt><trkpt lat="44.663861787320975" lon="7.988599828896929"><ele>193.0</ele><time>2026-04-12T06:56:07Z</time></trkpt><trkpt lat="44.66380246005437" lon="7.98852229251476"><ele>192.99999999999997</ele><time>2026-04-12T06:56:09Z</time></trkpt><trkpt lat="44.663746289104395" lon="7.9884399635839465"><ele>193.0</ele><time>2026-04-12T06:56:11Z</time></trkpt><trkpt lat="44.6636869342181" lon="7.988363700117103"><ele>193.0</ele><time>2026-04-12T06:56:13Z</time></trkpt><trkpt lat="44.66362144375051" lon="7.988277673689299"><ele>193.0</ele><time>2026-04-12T06:56:15Z</time></trkpt><trkpt lat="44.663553469925866" lon="7.988197535377846"><ele>192.99999999999997</ele><time>2026-04-12T06:56:17Z</time></trkpt><trkpt lat="44.66348666447836" lon="7.98813234746881"><ele>193.0</ele><time>2026-04-12T06:56:19Z</time></trkpt><trkpt lat="44.66342090085754" lon="7.988067913699444"><ele>192.83333333333331</ele><time>2026-04-12T06:56:21Z</time></trkpt><trkpt lat="44.66336455278354" lon="7.988000379515149"><ele>192.66666666666666</ele><time>2026-04-12T06:56:23Z</time></trkpt><trkpt lat="44.663325214396934" lon="7.987889103723214"><ele>192.5</ele><time>2026-04-12T06:56:25.999Z</time></trkpt><trkpt lat="44.66333236485285" lon="7.987795370556646"><ele>192.33333333333331</ele><time>2026-04-12T06:56:27.999Z</time></trkpt><trkpt lat="44.66337441817788" lon="7.987712181237859"><ele>192.16666666666666</ele><time>2026-04-12T06:56:29.999Z</time></trkpt><trkpt lat="44.6634272283184" lon="7.987639987626086"><ele>192.0</ele><time>2026-04-12T06:56:31.999Z</time></trkpt><trkpt lat="44.66345262135944" lon="7.987542468011538"><ele>192.0</ele><time>2026-04-12T06:56:34.999Z</time></trkpt><trkpt lat="44.66336856059931" lon="7.9875920255621375"><ele>192.0</ele><time>2026-04-12T06:56:39.999Z</time></trkpt><trkpt lat="44.663318086054524" lon="7.987649051396547"><ele>192.0</ele><time>2026-04-12T06:56:41.999Z</time></trkpt><trkpt lat="44.66326351893333" lon="7.987709334808964"><ele>192.0</ele><time>2026-04-12T06:56:43.999Z</time></trkpt><trkpt lat="44.66319003865687" lon="7.9877914091868"><ele>192.0</ele><time>2026-04-12T06:56:46.999Z</time></trkpt><trkpt lat="44.6631371595722" lon="7.9878739986028675"><ele>192.0</ele><time>2026-04-12T06:56:48.999Z</time></trkpt><trkpt lat="44.6630840026919" lon="7.987940877464018"><ele>192.0</ele><time>2026-04-12T06:56:50.999Z</time></trkpt><trkpt lat="44.66302912688967" lon="7.987997460062878"><ele>192.0</ele><time>2026-04-12T06:56:52.999Z</time></trkpt><trkpt lat="44.66297619564249" lon="7.988076840320747"><ele>192.0</ele><time>2026-04-12T06:56:54.999Z</time></trkpt><trkpt lat="44.662918938508966" lon="7.9881417024531265"><ele>192.0</ele><time>2026-04-12T06:56:56.999Z</time></trkpt><trkpt lat="44.662844754995916" lon="7.9882485094019495"><ele>192.0</ele><time>2026-04-12T06:56:59.999Z</time></trkpt><trkpt lat="44.66279421475928" lon="7.98832686769364"><ele>192.0</ele><time>2026-04-12T06:57:01.999Z</time></trkpt><trkpt lat="44.6627407025722" lon="7.988411672579278"><ele>192.16666666666666</ele><time>2026-04-12T06:57:03.999Z</time></trkpt><trkpt lat="44.6626811029452" lon="7.988486742838259"><ele>192.33333333333331</ele><time>2026-04-12T06:57:05.999Z</time></trkpt><trkpt lat="44.66261976153712" lon="7.988561126033429"><ele>192.5</ele><time>2026-04-12T06:57:07.999Z</time></trkpt><trkpt lat="44.662549913001314" lon="7.988660273664018"><ele>192.66666666666666</ele><time>2026-04-12T06:57:09.999Z</time></trkpt><trkpt lat="44.66248720224609" lon="7.988739914782075"><ele>192.83333333333331</ele><time>2026-04-12T06:57:11.999Z</time></trkpt><trkpt lat="44.66241916348311" lon="7.988829989177612"><ele>193.0</ele><time>2026-04-12T06:57:13.999Z</time></trkpt><trkpt lat="44.66236128454725" lon="7.98891835777921"><ele>192.99999999999997</ele><time>2026-04-12T06:57:15.999Z</time></trkpt><trkpt lat="44.662306392863805" lon="7.9889966695459105"><ele>193.0</ele><time>2026-04-12T06:57:17.999Z</time></trkpt><trkpt lat="44.662247466487734" lon="7.989078356380667"><ele>193.0</ele><time>2026-04-12T06:57:19.999Z</time></trkpt><trkpt lat="44.662192221900156" lon="7.989164034701523"><ele>193.0</ele><time>2026-04-12T06:57:21.999Z</time></trkpt><trkpt lat="44.6621344046798" lon="7.989234959624088"><ele>192.99999999999997</ele><time>2026-04-12T06:57:23.999Z</time></trkpt><trkpt lat="44.66208398069203" lon="7.989310764093252"><ele>193.0</ele><time>2026-04-12T06:57:25.999Z</time></trkpt><trkpt lat="44.662026886601" lon="7.9893944883724135"><ele>192.83333333333331</ele><time>2026-04-12T06:57:27.999Z</time></trkpt><trkpt lat="44.66197745865282" lon="7.989474240115444"><ele>192.66666666666666</ele><time>2026-04-12T06:57:29.999Z</time></trkpt><trkpt lat="44.66192033017135" lon="7.989554882171243"><ele>192.5</ele><time>2026-04-12T06:57:31.999Z</time></trkpt><trkpt lat="44.66186355075527" lon="7.989635802253872"><ele>192.33333333333331</ele><time>2026-04-12T06:57:33.999Z</time></trkpt><trkpt lat="44.66180481703701" lon="7.989706596797947"><ele>192.16666666666666</ele><time>2026-04-12T06:57:35.999Z</time></trkpt><trkpt lat="44.66175128030427" lon="7.989780401424878"><ele>192.0</ele><time>2026-04-12T06:57:37.998Z</time></trkpt><trkpt lat="44.6616838787077" lon="7.989853920461043"><ele>192.16666666666666</ele><time>2026-04-12T06:57:39.998Z</time></trkpt><trkpt lat="44.6616251713688" lon="7.98992778794823"><ele>192.33333333333331</ele><time>2026-04-12T06:57:41.998Z</time></trkpt><trkpt lat="44.6615617660963" lon="7.990002876549347"><ele>192.5</ele><time>2026-04-12T06:57:44Z</time></trkpt><trkpt lat="44.66149644934211" lon="7.990079725831993"><ele>192.66666666666666</ele><time>2026-04-12T06:57:46Z</time></trkpt><trkpt lat="44.66143121641282" lon="7.990143431649085"><ele>192.83333333333331</ele><time>2026-04-12T06:57:48Z</time></trkpt><trkpt lat="44.661371602200724" lon="7.990222818737648"><ele>193.0</ele><time>2026-04-12T06:57:50Z</time></trkpt><trkpt lat="44.66130720181926" lon="7.990305100285411"><ele>192.99999999999997</ele><time>2026-04-12T06:57:52Z</time></trkpt><trkpt lat="44.661237787597145" lon="7.990372983484753"><ele>193.0</ele><time>2026-04-12T06:57:54Z</time></trkpt><trkpt lat="44.661171657384685" lon="7.990454515156438"><ele>193.0</ele><time>2026-04-12T06:57:56Z</time></trkpt><trkpt lat="44.66111102545392" lon="7.990532216669148"><ele>193.0</ele><time>2026-04-12T06:57:58Z</time></trkpt><trkpt lat="44.661049137411695" lon="7.9905969795971235"><ele>192.99999999999997</ele><time>2026-04-12T06:58:00Z</time></trkpt><trkpt lat="44.66098337960677" lon="7.990675328559652"><ele>193.0</ele><time>2026-04-12T06:58:02Z</time></trkpt><trkpt lat="44.66091944179886" lon="7.990756428369845"><ele>193.49999999999997</ele><time>2026-04-12T06:58:04Z</time></trkpt><trkpt lat="44.66085807870653" lon="7.9908347760385015"><ele>194.0</ele><time>2026-04-12T06:58:06Z</time></trkpt><trkpt lat="44.6608050509226" lon="7.990912615960345"><ele>194.5</ele><time>2026-04-12T06:58:08Z</time></trkpt><trkpt lat="44.66073543613357" lon="7.99099826780657"><ele>195.0</ele><time>2026-04-12T06:58:10Z</time></trkpt><trkpt lat="44.66066593504995" lon="7.9910725852490705"><ele>195.49999999999997</ele><time>2026-04-12T06:58:12Z</time></trkpt><trkpt lat="44.6605887651864" lon="7.991149008113645"><ele>196.0</ele><time>2026-04-12T06:58:14Z</time></trkpt><trkpt lat="44.66052266243751" lon="7.991220280150904"><ele>195.99999999999997</ele><time>2026-04-12T06:58:16Z</time></trkpt><trkpt lat="44.66046030888416" lon="7.991296165294778"><ele>196.0</ele><time>2026-04-12T06:58:18Z</time></trkpt><trkpt lat="44.66038876520034" lon="7.991367399048836"><ele>196.0</ele><time>2026-04-12T06:58:20Z</time></trkpt><trkpt lat="44.6603218478778" lon="7.9914299874771"><ele>196.0</ele><time>2026-04-12T06:58:22Z</time></trkpt><trkpt lat="44.660253465740645" lon="7.991491348524965"><ele>195.99999999999997</ele><time>2026-04-12T06:58:24Z</time></trkpt><trkpt lat="44.66018536606553" lon="7.991541303247159"><ele>196.0</ele><time>2026-04-12T06:58:26Z</time></trkpt><trkpt lat="44.66012266041074" lon="7.991583336482799"><ele>196.49999999999997</ele><time>2026-04-12T06:58:28Z</time></trkpt><trkpt lat="44.660048464030915" lon="7.991623809317258"><ele>197.0</ele><time>2026-04-12T06:58:29.999Z</time></trkpt><trkpt lat="44.6599766370856" lon="7.991659923476593"><ele>197.5</ele><time>2026-04-12T06:58:31.999Z</time></trkpt><trkpt lat="44.659901146091215" lon="7.991694231022624"><ele>198.0</ele><time>2026-04-12T06:58:33.999Z</time></trkpt><trkpt lat="44.65983239716818" lon="7.991724467291076"><ele>198.49999999999997</ele><time>2026-04-12T06:58:35.999Z</time></trkpt><trkpt lat="44.659762925930934" lon="7.99175550022291"><ele>199.0</ele><time>2026-04-12T06:58:37.999Z</time></trkpt><trkpt lat="44.65968509776694" lon="7.991788900015003"><ele>198.99999999999997</ele><time>2026-04-12T06:58:39.999Z</time></trkpt><trkpt lat="44.65961002467422" lon="7.991829114910825"><ele>199.0</ele><time>2026-04-12T06:58:41.999Z</time></trkpt><trkpt lat="44.65953358182228" lon="7.991863793269857"><ele>199.0</ele><time>2026-04-12T06:58:43.999Z</time></trkpt><trkpt lat="44.65945213862466" lon="7.991894973776739"><ele>199.0</ele><time>2026-04-12T06:58:45.999Z</time></trkpt><trkpt lat="44.65937125972793" lon="7.991937362120845"><ele>198.99999999999997</ele><time>2026-04-12T06:58:47.999Z</time></trkpt><trkpt lat="44.659281088176066" lon="7.9919846248251885"><ele>199.0</ele><time>2026-04-12T06:58:49.999Z</time></trkpt><trkpt lat="44.659196319984815" lon="7.992005948798356"><ele>199.66666666666666</ele><time>2026-04-12T06:58:51.999Z</time></trkpt><trkpt lat="44.65911252308091" lon="7.992011661031552"><ele>200.33333333333331</ele><time>2026-04-12T06:58:53.999Z</time></trkpt><trkpt lat="44.659033280764625" lon="7.992012470336284"><ele>201.0</ele><time>2026-04-12T06:58:55.999Z</time></trkpt><trkpt lat="44.658955131644014" lon="7.992010530939921"><ele>201.66666666666669</ele><time>2026-04-12T06:58:57.999Z</time></trkpt><trkpt lat="44.65887269555926" lon="7.992007711192819"><ele>202.33333333333334</ele><time>2026-04-12T06:58:59.999Z</time></trkpt><trkpt lat="44.658791960709735" lon="7.992002078326215"><ele>203.0</ele><time>2026-04-12T06:59:01.999Z</time></trkpt><trkpt lat="44.658716974444395" lon="7.991989917465981"><ele>203.0</ele><time>2026-04-12T06:59:03.999Z</time></trkpt><trkpt lat="44.65864143031706" lon="7.991974801714926"><ele>203.0</ele><time>2026-04-12T06:59:05.999Z</time></trkpt><trkpt lat="44.65857197180283" lon="7.991971082912759"><ele>203.0</ele><time>2026-04-12T06:59:07.999Z</time></trkpt><trkpt lat="44.6584991094532" lon="7.991966197278247"><ele>203.0</ele><time>2026-04-12T06:59:09.999Z</time></trkpt><trkpt lat="44.65842796917042" lon="7.9919606072194105"><ele>203.0</ele><time>2026-04-12T06:59:11.999Z</time></trkpt><trkpt lat="44.65835539816075" lon="7.991950678537893"><ele>203.0</ele><time>2026-04-12T06:59:13.999Z</time></trkpt><trkpt lat="44.65828542416416" lon="7.991941105810715"><ele>203.0</ele><time>2026-04-12T06:59:15.999Z</time></trkpt><trkpt lat="44.658211384353265" lon="7.991933784346507"><ele>203.14285714285714</ele><time>2026-04-12T06:59:17.999Z</time></trkpt><trkpt lat="44.658138954006326" lon="7.9919248753018515"><ele>203.28571428571428</ele><time>2026-04-12T06:59:19.999Z</time></trkpt><trkpt lat="44.65806370321825" lon="7.991911611141524"><ele>203.42857142857144</ele><time>2026-04-12T06:59:21.999Z</time></trkpt><trkpt lat="44.65799564289856" lon="7.991912141207361"><ele>203.57142857142856</ele><time>2026-04-12T06:59:23.999Z</time></trkpt><trkpt lat="44.65792383199871" lon="7.9919160717420965"><ele>203.71428571428572</ele><time>2026-04-12T06:59:25.999Z</time></trkpt><trkpt lat="44.65785592282084" lon="7.991930440965691"><ele>203.85714285714286</ele><time>2026-04-12T06:59:27.999Z</time></trkpt><trkpt lat="44.6577845457827" lon="7.991950485871333"><ele>204.0</ele><time>2026-04-12T06:59:29.999Z</time></trkpt><trkpt lat="44.6577144160717" lon="7.9919826525734114"><ele>204.16666666666666</ele><time>2026-04-12T06:59:31.999Z</time></trkpt><trkpt lat="44.657642498423165" lon="7.99202735340091"><ele>204.33333333333331</ele><time>2026-04-12T06:59:33.999Z</time></trkpt><trkpt lat="44.657573332468274" lon="7.992071184801561"><ele>204.5</ele><time>2026-04-12T06:59:35.999Z</time></trkpt><trkpt lat="44.65750449067089" lon="7.992118688676928"><ele>204.66666666666666</ele><time>2026-04-12T06:59:37.999Z</time></trkpt><trkpt lat="44.65743077393752" lon="7.9921634564530075"><ele>204.83333333333331</ele><time>2026-04-12T06:59:39.999Z</time></trkpt><trkpt lat="44.657360707791554" lon="7.99220658838118"><ele>205.0</ele><time>2026-04-12T06:59:41.998Z</time></trkpt><trkpt lat="44.657289135035434" lon="7.992247239837806"><ele>205.0</ele><time>2026-04-12T06:59:43.998Z</time></trkpt><trkpt lat="44.65722682969992" lon="7.992285362284617"><ele>205.0</ele><time>2026-04-12T06:59:45.998Z</time></trkpt><trkpt lat="44.657154133830126" lon="7.992328918759905"><ele>205.0</ele><time>2026-04-12T06:59:47.998Z</time></trkpt><trkpt lat="44.657095045489825" lon="7.992377271455572"><ele>205.0</ele><time>2026-04-12T06:59:50Z</time></trkpt><trkpt lat="44.657039182736874" lon="7.9924398200625015"><ele>205.0</ele><time>2026-04-12T06:59:52Z</time></trkpt><trkpt lat="44.656982923114214" lon="7.992503142874662"><ele>205.0</ele><time>2026-04-12T06:59:54Z</time></trkpt><trkpt lat="44.65692792236116" lon="7.992577600727299"><ele>205.0</ele><time>2026-04-12T06:59:56Z</time></trkpt><trkpt lat="44.65688115603407" lon="7.992650489018845"><ele>206.0</ele><time>2026-04-12T06:59:58Z</time></trkpt><trkpt lat="44.65683349302353" lon="7.992727043006264"><ele>207.0</ele><time>2026-04-12T07:00:00Z</time></trkpt><trkpt lat="44.65678763139101" lon="7.992800556497285"><ele>208.0</ele><time>2026-04-12T07:00:02Z</time></trkpt><trkpt lat="44.65674307119378" lon="7.992875367152693"><ele>209.0</ele><time>2026-04-12T07:00:04Z</time></trkpt><trkpt lat="44.656683717549605" lon="7.992982871366375"><ele>210.0</ele><time>2026-04-12T07:00:07Z</time></trkpt><trkpt lat="44.6566421189515" lon="7.9930648752320455"><ele>211.0</ele><time>2026-04-12T07:00:09Z</time></trkpt><trkpt lat="44.656601655142055" lon="7.993143415762018"><ele>212.0</ele><time>2026-04-12T07:00:11Z</time></trkpt><trkpt lat="44.65655693629632" lon="7.993212733154048"><ele>212.0</ele><time>2026-04-12T07:00:13Z</time></trkpt><trkpt lat="44.65650817941205" lon="7.99328463131007"><ele>212.0</ele><time>2026-04-12T07:00:15Z</time></trkpt><trkpt lat="44.65644793467824" lon="7.993366436940058"><ele>212.0</ele><time>2026-04-12T07:00:17Z</time></trkpt><trkpt lat="44.65639626947672" lon="7.993434008049322"><ele>212.0</ele><time>2026-04-12T07:00:19Z</time></trkpt><trkpt lat="44.656351026728814" lon="7.993497687157914"><ele>212.0</ele><time>2026-04-12T07:00:21Z</time></trkpt><trkpt lat="44.656291994007375" lon="7.993553135670303"><ele>212.0</ele><time>2026-04-12T07:00:23Z</time></trkpt><trkpt lat="44.65623623202319" lon="7.9936095428752"><ele>212.0</ele><time>2026-04-12T07:00:25Z</time></trkpt><trkpt lat="44.65618409679654" lon="7.9936603212745005"><ele>212.33333333333334</ele><time>2026-04-12T07:00:27Z</time></trkpt><trkpt lat="44.65613389684835" lon="7.993715290946112"><ele>212.66666666666669</ele><time>2026-04-12T07:00:29Z</time></trkpt><trkpt lat="44.65606644439727" lon="7.9937802371108475"><ele>213.0</ele><time>2026-04-12T07:00:32Z</time></trkpt><trkpt lat="44.65599074873533" lon="7.993855740736137"><ele>213.33333333333331</ele><time>2026-04-12T07:00:35Z</time></trkpt><trkpt lat="44.65590343272775" lon="7.993926735965412"><ele>213.66666666666666</ele><time>2026-04-12T07:00:38Z</time></trkpt><trkpt lat="44.65583838960596" lon="7.993999143088538"><ele>214.0</ele><time>2026-04-12T07:00:40.999Z</time></trkpt><trkpt lat="44.65576845845125" lon="7.994086146734346"><ele>214.2857142857143</ele><time>2026-04-12T07:00:43.999Z</time></trkpt><trkpt lat="44.65571695776594" lon="7.994147543243804"><ele>214.57142857142858</ele><time>2026-04-12T07:00:45.999Z</time></trkpt><trkpt lat="44.655670340723894" lon="7.994215726578959"><ele>214.85714285714286</ele><time>2026-04-12T07:00:47.999Z</time></trkpt><trkpt lat="44.65561962864537" lon="7.994314181727073"><ele>215.14285714285717</ele><time>2026-04-12T07:00:50.999Z</time></trkpt><trkpt lat="44.655574195846555" lon="7.994393049506684"><ele>215.42857142857142</ele><time>2026-04-12T07:00:53.999Z</time></trkpt><trkpt lat="44.65552562782611" lon="7.994475677785314"><ele>215.71428571428572</ele><time>2026-04-12T07:00:56.999Z</time></trkpt><trkpt lat="44.65547914430443" lon="7.994548289926061"><ele>216.0</ele><time>2026-04-12T07:00:58.999Z</time></trkpt><trkpt lat="44.65542124703346" lon="7.994638190195725"><ele>216.28571428571428</ele><time>2026-04-12T07:01:01.999Z</time></trkpt><trkpt lat="44.65536174781471" lon="7.994724373721256"><ele>216.57142857142856</ele><time>2026-04-12T07:01:04.999Z</time></trkpt><trkpt lat="44.655300531630765" lon="7.994805372013853"><ele>216.85714285714286</ele><time>2026-04-12T07:01:07.999Z</time></trkpt><trkpt lat="44.65524490919175" lon="7.994859533139758"><ele>217.14285714285714</ele><time>2026-04-12T07:01:10.999Z</time></trkpt><trkpt lat="44.655188629611025" lon="7.994916879177491"><ele>217.42857142857144</ele><time>2026-04-12T07:01:13.999Z</time></trkpt><trkpt lat="44.655123150998406" lon="7.994967624723467"><ele>217.71428571428572</ele><time>2026-04-12T07:01:16.999Z</time></trkpt><trkpt lat="44.65506331056303" lon="7.9949966046137435"><ele>218.0</ele><time>2026-04-12T07:01:19.999Z</time></trkpt><trkpt lat="44.6549897838897" lon="7.995030588018941"><ele>219.57142857142858</ele><time>2026-04-12T07:01:23.999Z</time></trkpt><trkpt lat="44.65491773634957" lon="7.9950580649381235"><ele>221.14285714285717</ele><time>2026-04-12T07:01:27.999Z</time></trkpt><trkpt lat="44.65484914549334" lon="7.995093822972238"><ele>222.71428571428572</ele><time>2026-04-12T07:01:31.999Z</time></trkpt><trkpt lat="44.65477831338062" lon="7.99513227042735"><ele>224.28571428571428</ele><time>2026-04-12T07:01:35.999Z</time></trkpt><trkpt lat="44.654711055668564" lon="7.995182358795958"><ele>225.85714285714286</ele><time>2026-04-12T07:01:39.999Z</time></trkpt><trkpt lat="44.65464819170159" lon="7.995227985482751"><ele>227.42857142857142</ele><time>2026-04-12T07:01:43.999Z</time></trkpt><trkpt lat="44.654598523479756" lon="7.995310162557209"><ele>229.0</ele><time>2026-04-12T07:01:47.999Z</time></trkpt><trkpt lat="44.654565064495316" lon="7.995394184679768"><ele>229.0</ele><time>2026-04-12T07:01:51.999Z</time></trkpt><trkpt lat="44.65453737650292" lon="7.995475668184982"><ele>229.0</ele><time>2026-04-12T07:01:56Z</time></trkpt><trkpt lat="44.65450463274684" lon="7.9955721752895785"><ele>229.0</ele><time>2026-04-12T07:02:00Z</time></trkpt><trkpt lat="44.65450263373382" lon="7.995683035498402"><ele>229.0</ele><time>2026-04-12T07:02:04Z</time></trkpt><trkpt lat="44.654508653104045" lon="7.995796974757873"><ele>229.0</ele><time>2026-04-12T07:02:09Z</time></trkpt><trkpt lat="44.654502851174406" lon="7.995885793295704"><ele>229.0</ele><time>2026-04-12T07:02:13Z</time></trkpt><trkpt lat="44.65452325627382" lon="7.995984219361419"><ele>229.0</ele><time>2026-04-12T07:02:18Z</time></trkpt><trkpt lat="44.65452419107072" lon="7.996074439088284"><ele>231.16666666666666</ele><time>2026-04-12T07:02:23Z</time></trkpt><trkpt lat="44.654541878811116" lon="7.996166795394596"><ele>233.33333333333331</ele><time>2026-04-12T07:02:27Z</time></trkpt><trkpt lat="44.65455630485236" lon="7.996273023427572"><ele>235.5</ele><time>2026-04-12T07:02:32Z</time></trkpt><trkpt lat="44.65456297057598" lon="7.9963765280600025"><ele>237.66666666666669</ele><time>2026-04-12T07:02:36Z</time></trkpt><trkpt lat="44.65454622794579" lon="7.996465084193989"><ele>239.83333333333334</ele><time>2026-04-12T07:02:41Z</time></trkpt><trkpt lat="44.65449212524306" lon="7.996528721996718"><ele>242.0</ele><time>2026-04-12T07:02:46Z</time></trkpt><trkpt lat="44.65416977644449" lon="7.996458751004966"><ele>243.85714285714283</ele><time>2026-04-12T07:03:04.999Z</time></trkpt><trkpt lat="44.654117803723054" lon="7.996388908709189"><ele>245.7142857142857</ele><time>2026-04-12T07:03:08.999Z</time></trkpt><trkpt lat="44.65407377372766" lon="7.9963035011330375"><ele>247.57142857142856</ele><time>2026-04-12T07:03:12.999Z</time></trkpt><trkpt lat="44.65403545448599" lon="7.996229170843619"><ele>249.42857142857144</ele><time>2026-04-12T07:03:18.999Z</time></trkpt><trkpt lat="44.65399066886736" lon="7.996142296091523"><ele>251.2857142857143</ele><time>2026-04-12T07:03:21.999Z</time></trkpt><trkpt lat="44.65394845516587" lon="7.996055981686841"><ele>253.14285714285717</ele><time>2026-04-12T07:03:24.999Z</time></trkpt><trkpt lat="44.65391306007455" lon="7.995971357399698"><ele>255.0</ele><time>2026-04-12T07:03:27.999Z</time></trkpt><trkpt lat="44.65386864543961" lon="7.995905596141273"><ele>254.57142857142858</ele><time>2026-04-12T07:03:30.999Z</time></trkpt><trkpt lat="44.65382715255773" lon="7.99582510862406"><ele>254.14285714285717</ele><time>2026-04-12T07:03:33.999Z</time></trkpt><trkpt lat="44.653786839629554" lon="7.995746909935883"><ele>253.71428571428572</ele><time>2026-04-12T07:03:37.999Z</time></trkpt><trkpt lat="44.653748819847756" lon="7.995673159436314"><ele>253.28571428571428</ele><time>2026-04-12T07:03:42.999Z</time></trkpt><trkpt lat="44.653711260965565" lon="7.995600303061723"><ele>252.85714285714286</ele><time>2026-04-12T07:03:44.999Z</time></trkpt><trkpt lat="44.653674114028206" lon="7.995468891899192"><ele>252.42857142857144</ele><time>2026-04-12T07:03:47.999Z</time></trkpt><trkpt lat="44.65365792949902" lon="7.995373511044433"><ele>252.0</ele><time>2026-04-12T07:03:49.999Z</time></trkpt><trkpt lat="44.65364340876034" lon="7.995277516042733"><ele>252.0</ele><time>2026-04-12T07:03:51.999Z</time></trkpt><trkpt lat="44.653769688141494" lon="7.995048668818656"><ele>252.0</ele><time>2026-04-12T07:03:53.999Z</time></trkpt><trkpt lat="44.653720686383906" lon="7.994948323254552"><ele>252.0</ele><time>2026-04-12T07:03:56.999Z</time></trkpt><trkpt lat="44.653691879735526" lon="7.99483325921871"><ele>252.0</ele><time>2026-04-12T07:03:59.998Z</time></trkpt><trkpt lat="44.65361137089707" lon="7.994895211315982"><ele>253.28571428571428</ele><time>2026-04-12T07:04:06Z</time></trkpt><trkpt lat="44.65357544606354" lon="7.994974722186361"><ele>254.57142857142856</ele><time>2026-04-12T07:04:09Z</time></trkpt><trkpt lat="44.6535618017208" lon="7.995080924156169"><ele>255.85714285714286</ele><time>2026-04-12T07:04:13Z</time></trkpt><trkpt lat="44.65355022278218" lon="7.99519773598916"><ele>257.1428571428571</ele><time>2026-04-12T07:04:17Z</time></trkpt><trkpt lat="44.65351548006129" lon="7.995279199577523"><ele>258.42857142857144</ele><time>2026-04-12T07:04:20Z</time></trkpt><trkpt lat="44.653484287164346" lon="7.995365980298674"><ele>259.7142857142857</ele><time>2026-04-12T07:04:24Z</time></trkpt><trkpt lat="44.65343793872028" lon="7.995440802308708"><ele>261.0</ele><time>2026-04-12T07:04:28Z</time></trkpt><trkpt lat="44.65338728742999" lon="7.995497196432426"><ele>261.0</ele><time>2026-04-12T07:04:33Z</time></trkpt><trkpt lat="44.65333115508467" lon="7.99554992256223"><ele>261.0</ele><time>2026-04-12T07:06:41Z</time></trkpt><trkpt lat="44.65330796864611" lon="7.995412749632017"><ele>261.0</ele><time>2026-04-12T07:06:48Z</time></trkpt><trkpt lat="44.65324517339611" lon="7.9953903910059285"><ele>261.0</ele><time>2026-04-12T07:06:50Z</time></trkpt><trkpt lat="44.653167587364266" lon="7.9953578156233265"><ele>261.0</ele><time>2026-04-12T07:06:52Z</time></trkpt><trkpt lat="44.65307920430331" lon="7.9953213763259665"><ele>261.0</ele><time>2026-04-12T07:06:54Z</time></trkpt><trkpt lat="44.653012816070884" lon="7.995264546175072"><ele>261.0</ele><time>2026-04-12T07:06:57Z</time></trkpt><trkpt lat="44.65294566196476" lon="7.995217353660264"><ele>261.0</ele><time>2026-04-12T07:06:59.999Z</time></trkpt><trkpt lat="44.65280071314539" lon="7.995561885061853"><ele>261.0</ele><time>2026-04-12T07:07:00.999Z</time></trkpt><trkpt lat="44.652725723662854" lon="7.995561455399262"><ele>261.0</ele><time>2026-04-12T07:07:03.999Z</time></trkpt><trkpt lat="44.65264613916828" lon="7.995568786241884"><ele>259.57142857142856</ele><time>2026-04-12T07:07:07.999Z</time></trkpt><trkpt lat="44.652568157558505" lon="7.995567069721954"><ele>258.1428571428571</ele><time>2026-04-12T07:07:10.999Z</time></trkpt><trkpt lat="44.65249331740449" lon="7.995559582637299"><ele>256.71428571428567</ele><time>2026-04-12T07:07:13.999Z</time></trkpt><trkpt lat="44.652428619120904" lon="7.995545053240977"><ele>255.28571428571428</ele><time>2026-04-12T07:07:17.999Z</time></trkpt><trkpt lat="44.65236589527143" lon="7.995509835243386"><ele>253.85714285714283</ele><time>2026-04-12T07:07:21.999Z</time></trkpt><trkpt lat="44.65233316484412" lon="7.995432981689669"><ele>252.4285714285714</ele><time>2026-04-12T07:07:24.999Z</time></trkpt><trkpt lat="44.65232640034272" lon="7.995343142404848"><ele>250.99999999999997</ele><time>2026-04-12T07:07:26.999Z</time></trkpt><trkpt lat="44.652318214471705" lon="7.995212349118329"><ele>251.00000000000003</ele><time>2026-04-12T07:07:29.999Z</time></trkpt><trkpt lat="44.652310581725175" lon="7.995087441754289"><ele>251.0</ele><time>2026-04-12T07:07:32.999Z</time></trkpt><trkpt lat="44.652304849154234" lon="7.994976979196"><ele>251.0</ele><time>2026-04-12T07:07:35.999Z</time></trkpt><trkpt lat="44.65230571706344" lon="7.994868743615518"><ele>251.0</ele><time>2026-04-12T07:07:38.999Z</time></trkpt><trkpt lat="44.65231866514992" lon="7.994773844785429"><ele>251.00000000000003</ele><time>2026-04-12T07:07:41.999Z</time></trkpt><trkpt lat="44.65234841108634" lon="7.9946656579531705"><ele>251.0</ele><time>2026-04-12T07:07:44.999Z</time></trkpt><trkpt lat="44.65236833943018" lon="7.9945780304797704"><ele>251.66666666666669</ele><time>2026-04-12T07:07:47.999Z</time></trkpt><trkpt lat="44.65239584406539" lon="7.994477026047875"><ele>252.33333333333334</ele><time>2026-04-12T07:07:50.999Z</time></trkpt><trkpt lat="44.652428484834815" lon="7.994361345403172"><ele>253.0</ele><time>2026-04-12T07:07:53.999Z</time></trkpt><trkpt lat="44.652470943598054" lon="7.99425019099353"><ele>253.66666666666669</ele><time>2026-04-12T07:07:56.999Z</time></trkpt><trkpt lat="44.652508468840836" lon="7.994168291005183"><ele>254.33333333333334</ele><time>2026-04-12T07:07:59.999Z</time></trkpt><trkpt lat="44.652547326183225" lon="7.9940885492410505"><ele>255.0</ele><time>2026-04-12T07:08:02.999Z</time></trkpt><trkpt lat="44.65258128663416" lon="7.994001803648854"><ele>255.0</ele><time>2026-04-12T07:08:05.999Z</time></trkpt><trkpt lat="44.65262327511482" lon="7.993903155367987"><ele>255.0</ele><time>2026-04-12T07:08:08.999Z</time></trkpt><trkpt lat="44.65266322820887" lon="7.993805730514497"><ele>255.0</ele><time>2026-04-12T07:08:10.998Z</time></trkpt><trkpt lat="44.652705561049245" lon="7.993731296143954"><ele>255.0</ele><time>2026-04-12T07:08:13Z</time></trkpt><trkpt lat="44.65274001289975" lon="7.993627846905833"><ele>255.0</ele><time>2026-04-12T07:08:16Z</time></trkpt><trkpt lat="44.652780644470184" lon="7.993541553281022"><ele>255.0</ele><time>2026-04-12T07:08:19Z</time></trkpt><trkpt lat="44.65282799580781" lon="7.993445764017822"><ele>255.57142857142858</ele><time>2026-04-12T07:08:22Z</time></trkpt><trkpt lat="44.65286729371984" lon="7.993371741393209"><ele>256.14285714285717</ele><time>2026-04-12T07:08:26Z</time></trkpt><trkpt lat="44.65282951109775" lon="7.993292132804984"><ele>256.7142857142857</ele><time>2026-04-12T07:08:30Z</time></trkpt><trkpt lat="44.652766138371504" lon="7.9932438681799285"><ele>257.2857142857143</ele><time>2026-04-12T07:08:35Z</time></trkpt><trkpt lat="44.65270381812742" lon="7.993225171737399"><ele>257.8571428571429</ele><time>2026-04-12T07:08:41Z</time></trkpt><trkpt lat="44.65264707532781" lon="7.993184198746085"><ele>258.42857142857144</ele><time>2026-04-12T07:08:45Z</time></trkpt><trkpt lat="44.652589885584995" lon="7.9931151909378055"><ele>259.0</ele><time>2026-04-12T07:08:49Z</time></trkpt><trkpt lat="44.652547959387384" lon="7.993021971006194"><ele>255.75</ele><time>2026-04-12T07:08:53Z</time></trkpt><trkpt lat="44.652653490979134" lon="7.992906417033552"><ele>252.5</ele><time>2026-04-12T07:08:55Z</time></trkpt><trkpt lat="44.65265227093049" lon="7.992814009351701"><ele>249.25</ele><time>2026-04-12T07:08:58Z</time></trkpt><trkpt lat="44.652615637575714" lon="7.992680693560686"><ele>246.0</ele><time>2026-04-12T07:09:02.999Z</time></trkpt><trkpt lat="44.65221372909113" lon="7.992623823654961"><ele>246.0</ele><time>2026-04-12T07:09:07.999Z</time></trkpt><trkpt lat="44.652151871763664" lon="7.992585927829204"><ele>246.0</ele><time>2026-04-12T07:09:09.999Z</time></trkpt><trkpt lat="44.65208522901666" lon="7.992541615878787"><ele>246.0</ele><time>2026-04-12T07:09:11.999Z</time></trkpt><trkpt lat="44.65201917802642" lon="7.99250543362745"><ele>246.0</ele><time>2026-04-12T07:09:13.999Z</time></trkpt><trkpt lat="44.651935545845696" lon="7.992456117280107"><ele>246.0</ele><time>2026-04-12T07:09:16.999Z</time></trkpt><trkpt lat="44.65185213535166" lon="7.992408029812101"><ele>246.0</ele><time>2026-04-12T07:09:19.999Z</time></trkpt><trkpt lat="44.65176602506896" lon="7.992354214271031"><ele>241.16666666666666</ele><time>2026-04-12T07:09:22.999Z</time></trkpt><trkpt lat="44.65170488064035" lon="7.992315892996064"><ele>236.33333333333331</ele><time>2026-04-12T07:09:24.999Z</time></trkpt><trkpt lat="44.65163714404555" lon="7.992276846162424"><ele>231.5</ele><time>2026-04-12T07:09:26.999Z</time></trkpt><trkpt lat="44.6515616400775" lon="7.992242962142028"><ele>226.66666666666666</ele><time>2026-04-12T07:09:28.999Z</time></trkpt><trkpt lat="44.65147914916411" lon="7.99218790588272"><ele>221.83333333333331</ele><time>2026-04-12T07:09:30.999Z</time></trkpt><trkpt lat="44.65140591399101" lon="7.992128948292558"><ele>217.0</ele><time>2026-04-12T07:09:32.999Z</time></trkpt><trkpt lat="44.65130997557133" lon="7.992070365911896"><ele>217.0</ele><time>2026-04-12T07:09:34.999Z</time></trkpt><trkpt lat="44.65121984486036" lon="7.9919912350608975"><ele>217.0</ele><time>2026-04-12T07:09:36.999Z</time></trkpt><trkpt lat="44.65112231595523" lon="7.991882993852755"><ele>217.0</ele><time>2026-04-12T07:09:38.999Z</time></trkpt><trkpt lat="44.65107561254361" lon="7.991819778256191"><ele>217.0</ele><time>2026-04-12T07:09:39.999Z</time></trkpt><trkpt lat="44.65099226170537" lon="7.9917221670177705"><ele>217.0</ele><time>2026-04-12T07:09:41.999Z</time></trkpt><trkpt lat="44.65091395110012" lon="7.991672140677631"><ele>214.39999999999998</ele><time>2026-04-12T07:09:43.999Z</time></trkpt><trkpt lat="44.65084886276302" lon="7.99160405616261"><ele>211.79999999999998</ele><time>2026-04-12T07:09:46.999Z</time></trkpt><trkpt lat="44.6509269128658" lon="7.991431974266054"><ele>209.2</ele><time>2026-04-12T07:09:48.999Z</time></trkpt><trkpt lat="44.65098693236569" lon="7.9913562779447105"><ele>206.6</ele><time>2026-04-12T07:09:50.999Z</time></trkpt><trkpt lat="44.651044852754545" lon="7.991275763129079"><ele>204.0</ele><time>2026-04-12T07:09:52.999Z</time></trkpt><trkpt lat="44.65109703130895" lon="7.991184776047904"><ele>204.0</ele><time>2026-04-12T07:09:54.999Z</time></trkpt><trkpt lat="44.65114188541433" lon="7.991096194528194"><ele>204.0</ele><time>2026-04-12T07:09:56.999Z</time></trkpt><trkpt lat="44.651185740097695" lon="7.991030487732629"><ele>204.0</ele><time>2026-04-12T07:09:58.999Z</time></trkpt><trkpt lat="44.65123666235339" lon="7.990955549754516"><ele>204.0</ele><time>2026-04-12T07:10:01.999Z</time></trkpt><trkpt lat="44.65115139770621" lon="7.990991310235099"><ele>204.0</ele><time>2026-04-12T07:10:08.999Z</time></trkpt><trkpt lat="44.65109630664816" lon="7.991094553646687"><ele>204.0</ele><time>2026-04-12T07:10:10.999Z</time></trkpt><trkpt lat="44.65104810141056" lon="7.991210591254949"><ele>204.0</ele><time>2026-04-12T07:10:12.999Z</time></trkpt><trkpt lat="44.6509900020015" lon="7.991311205536247"><ele>204.0</ele><time>2026-04-12T07:10:14.998Z</time></trkpt><trkpt lat="44.65093209042213" lon="7.99141149427386"><ele>204.0</ele><time>2026-04-12T07:10:16.998Z</time></trkpt><trkpt lat="44.650871692867646" lon="7.991516088147707"><ele>204.0</ele><time>2026-04-12T07:10:19Z</time></trkpt><trkpt lat="44.65081201336858" lon="7.991619439017909"><ele>204.0</ele><time>2026-04-12T07:10:21Z</time></trkpt><trkpt lat="44.65074783850062" lon="7.991730575765531"><ele>204.2</ele><time>2026-04-12T07:10:23Z</time></trkpt><trkpt lat="44.650683537146854" lon="7.991841931685896"><ele>204.39999999999998</ele><time>2026-04-12T07:10:25Z</time></trkpt><trkpt lat="44.6506177561557" lon="7.991955849837879"><ele>204.6</ele><time>2026-04-12T07:10:27Z</time></trkpt><trkpt lat="44.6505516805246" lon="7.992070278316962"><ele>204.8</ele><time>2026-04-12T07:10:29Z</time></trkpt><trkpt lat="44.65048387984285" lon="7.992187694217536"><ele>205.0</ele><time>2026-04-12T07:10:31Z</time></trkpt><trkpt lat="44.65041868961889" lon="7.992295766208088"><ele>204.99999999999997</ele><time>2026-04-12T07:10:33Z</time></trkpt><trkpt lat="44.650355858029634" lon="7.9923146608657625"><ele>205.0</ele><time>2026-04-12T07:10:34Z</time></trkpt><trkpt lat="44.650290706882515" lon="7.992424981866648"><ele>205.0</ele><time>2026-04-12T07:10:36Z</time></trkpt><trkpt lat="44.65024019218364" lon="7.992508851239899"><ele>205.0</ele><time>2026-04-12T07:10:37Z</time></trkpt><trkpt lat="44.65020139446122" lon="7.992581072993585"><ele>204.99999999999997</ele><time>2026-04-12T07:10:38Z</time></trkpt><trkpt lat="44.65012805305633" lon="7.9927036670005"><ele>205.0</ele><time>2026-04-12T07:10:40Z</time></trkpt><trkpt lat="44.65005401892168" lon="7.9928248674074265"><ele>204.75</ele><time>2026-04-12T07:10:42Z</time></trkpt><trkpt lat="44.64998151983008" lon="7.992957188124808"><ele>204.5</ele><time>2026-04-12T07:10:44Z</time></trkpt><trkpt lat="44.649910393705106" lon="7.993088384471062"><ele>204.25</ele><time>2026-04-12T07:10:46Z</time></trkpt><trkpt lat="44.64983418194583" lon="7.993211654844459"><ele>204.0</ele><time>2026-04-12T07:10:48Z</time></trkpt><trkpt lat="44.649759955587214" lon="7.993337127653156"><ele>204.2</ele><time>2026-04-12T07:10:50Z</time></trkpt><trkpt lat="44.64968972377412" lon="7.993457539827216"><ele>204.39999999999998</ele><time>2026-04-12T07:10:52Z</time></trkpt><trkpt lat="44.649621898914106" lon="7.993581288104446"><ele>204.6</ele><time>2026-04-12T07:10:54Z</time></trkpt><trkpt lat="44.64955509198864" lon="7.993704401663151"><ele>204.8</ele><time>2026-04-12T07:10:56Z</time></trkpt><trkpt lat="44.64948228078907" lon="7.9938307289528305"><ele>205.0</ele><time>2026-04-12T07:10:58Z</time></trkpt><trkpt lat="44.649407705549336" lon="7.99395121674401"><ele>205.0</ele><time>2026-04-12T07:11:00Z</time></trkpt><trkpt lat="44.64933764196564" lon="7.9940755963909"><ele>205.0</ele><time>2026-04-12T07:11:02Z</time></trkpt><trkpt lat="44.64926784280218" lon="7.994199219206804"><ele>205.0</ele><time>2026-04-12T07:11:04Z</time></trkpt><trkpt lat="44.649195438333585" lon="7.994322836281662"><ele>205.0</ele><time>2026-04-12T07:11:05.999Z</time></trkpt><trkpt lat="44.649124359534966" lon="7.994440951862722"><ele>205.0</ele><time>2026-04-12T07:11:07.999Z</time></trkpt><trkpt lat="44.64903884837344" lon="7.994548975536431"><ele>205.5</ele><time>2026-04-12T07:11:09.999Z</time></trkpt><trkpt lat="44.648942849314146" lon="7.994639234157672"><ele>206.0</ele><time>2026-04-12T07:11:11.999Z</time></trkpt><trkpt lat="44.64883773944489" lon="7.994711235583723"><ele>206.5</ele><time>2026-04-12T07:11:13.999Z</time></trkpt><trkpt lat="44.648727872268005" lon="7.994760138576454"><ele>207.0</ele><time>2026-04-12T07:11:15.999Z</time></trkpt><trkpt lat="44.648613396767445" lon="7.994798418324237"><ele>207.0</ele><time>2026-04-12T07:11:17.999Z</time></trkpt><trkpt lat="44.648500463449885" lon="7.994825693289832"><ele>207.0</ele><time>2026-04-12T07:11:19.999Z</time></trkpt><trkpt lat="44.648392034658826" lon="7.994851127180747"><ele>207.0</ele><time>2026-04-12T07:11:21.999Z</time></trkpt><trkpt lat="44.64828387592054" lon="7.994881414104963"><ele>207.0</ele><time>2026-04-12T07:11:23.999Z</time></trkpt><trkpt lat="44.648179623461694" lon="7.994919331563121"><ele>207.0</ele><time>2026-04-12T07:11:25.999Z</time></trkpt><trkpt lat="44.64807525359661" lon="7.9949729313602385"><ele>207.2</ele><time>2026-04-12T07:11:27.999Z</time></trkpt><trkpt lat="44.64797783546986" lon="7.995046646971873"><ele>207.39999999999998</ele><time>2026-04-12T07:11:29.999Z</time></trkpt><trkpt lat="44.64788339529972" lon="7.995124016702245"><ele>207.60000000000002</ele><time>2026-04-12T07:11:31.999Z</time></trkpt><trkpt lat="44.64779367577443" lon="7.995210526864795"><ele>207.8</ele><time>2026-04-12T07:11:33.999Z</time></trkpt><trkpt lat="44.647712372480804" lon="7.995294394782995"><ele>208.0</ele><time>2026-04-12T07:11:35.999Z</time></trkpt><trkpt lat="44.64762642891121" lon="7.995387017723831"><ele>208.0</ele><time>2026-04-12T07:11:37.999Z</time></trkpt><trkpt lat="44.647542352685534" lon="7.995480426626811"><ele>208.0</ele><time>2026-04-12T07:11:39.999Z</time></trkpt><trkpt lat="44.6474630155472" lon="7.995575440868258"><ele>208.0</ele><time>2026-04-12T07:11:41.999Z</time></trkpt><trkpt lat="44.64738334643481" lon="7.995658553344474"><ele>208.0</ele><time>2026-04-12T07:11:43.999Z</time></trkpt><trkpt lat="44.647304463782774" lon="7.9957475687881"><ele>208.0</ele><time>2026-04-12T07:11:45.999Z</time></trkpt><trkpt lat="44.64722457907471" lon="7.99583620717331"><ele>208.2</ele><time>2026-04-12T07:11:47.999Z</time></trkpt><trkpt lat="44.64715647842339" lon="7.995916504456943"><ele>208.4</ele><time>2026-04-12T07:11:49.999Z</time></trkpt><trkpt lat="44.64709659907324" lon="7.995970849853646"><ele>208.6</ele><time>2026-04-12T07:11:51.999Z</time></trkpt><trkpt lat="44.64700512869891" lon="7.995913124489322"><ele>208.79999999999998</ele><time>2026-04-12T07:11:54.999Z</time></trkpt><trkpt lat="44.646939280304984" lon="7.995802664468048"><ele>209.0</ele><time>2026-04-12T07:11:56.999Z</time></trkpt><trkpt lat="44.64686341663058" lon="7.995667108474927"><ele>209.00000000000003</ele><time>2026-04-12T07:11:58.999Z</time></trkpt><trkpt lat="44.64682345844422" lon="7.995594079224381"><ele>209.0</ele><time>2026-04-12T07:11:59.999Z</time></trkpt><trkpt lat="44.64674893602038" lon="7.995447288361397"><ele>209.0</ele><time>2026-04-12T07:12:01.999Z</time></trkpt><trkpt lat="44.64670807118682" lon="7.995368503989798"><ele>209.0</ele><time>2026-04-12T07:12:02.999Z</time></trkpt><trkpt lat="44.646668430935605" lon="7.995293700238888"><ele>209.00000000000003</ele><time>2026-04-12T07:12:03.999Z</time></trkpt><trkpt lat="44.646626633406974" lon="7.995215903853784"><ele>209.0</ele><time>2026-04-12T07:12:04.999Z</time></trkpt><trkpt lat="44.646585165453175" lon="7.9951391153761175"><ele>209.00000000000003</ele><time>2026-04-12T07:12:05.999Z</time></trkpt><trkpt lat="44.6465453051672" lon="7.995063989608491"><ele>209.0</ele><time>2026-04-12T07:12:06.999Z</time></trkpt><trkpt lat="44.64650299430824" lon="7.994986718452289"><ele>209.0</ele><time>2026-04-12T07:12:07.999Z</time></trkpt><trkpt lat="44.6464630520606" lon="7.994913225778695"><ele>209.0</ele><time>2026-04-12T07:12:08.999Z</time></trkpt><trkpt lat="44.64642509184507" lon="7.994841298328978"><ele>209.00000000000003</ele><time>2026-04-12T07:12:09.999Z</time></trkpt><trkpt lat="44.64638354512735" lon="7.9947647663676"><ele>209.0</ele><time>2026-04-12T07:12:10.999Z</time></trkpt><trkpt lat="44.64631293676871" lon="7.994627189408433"><ele>208.42857142857142</ele><time>2026-04-12T07:12:12.999Z</time></trkpt><trkpt lat="44.64627066671823" lon="7.994550570008749"><ele>207.85714285714283</ele><time>2026-04-12T07:12:13.999Z</time></trkpt><trkpt lat="44.646227991299526" lon="7.9944736820486195"><ele>207.28571428571428</ele><time>2026-04-12T07:12:14.999Z</time></trkpt><trkpt lat="44.646189427970725" lon="7.99440325769711"><ele>206.71428571428572</ele><time>2026-04-12T07:12:15.999Z</time></trkpt><trkpt lat="44.6461453553308" lon="7.994324949849033"><ele>206.14285714285714</ele><time>2026-04-12T07:12:16.998Z</time></trkpt><trkpt lat="44.646099400426664" lon="7.9942440259779275"><ele>205.57142857142858</ele><time>2026-04-12T07:12:17.998Z</time></trkpt><trkpt lat="44.6460580704033" lon="7.994166243768333"><ele>205.0</ele><time>2026-04-12T07:12:18.998Z</time></trkpt><trkpt lat="44.646018201570335" lon="7.994088811144207"><ele>204.85714285714286</ele><time>2026-04-12T07:12:19.998Z</time></trkpt><trkpt lat="44.64597926059846" lon="7.994015178734001"><ele>204.7142857142857</ele><time>2026-04-12T07:12:20.998Z</time></trkpt><trkpt lat="44.6459376978361" lon="7.993946068620721"><ele>204.57142857142856</ele><time>2026-04-12T07:12:21.998Z</time></trkpt><trkpt lat="44.64589081912648" lon="7.993866490306517"><ele>204.42857142857144</ele><time>2026-04-12T07:12:22.998Z</time></trkpt><trkpt lat="44.64584959165281" lon="7.993788444368635"><ele>204.28571428571428</ele><time>2026-04-12T07:12:23.998Z</time></trkpt><trkpt lat="44.645808042998645" lon="7.993709418380518"><ele>204.14285714285714</ele><time>2026-04-12T07:12:25Z</time></trkpt><trkpt lat="44.64576578449196" lon="7.993633265582094"><ele>204.0</ele><time>2026-04-12T07:12:26Z</time></trkpt><trkpt lat="44.64572833645809" lon="7.993560867280552"><ele>204.0</ele><time>2026-04-12T07:12:27Z</time></trkpt><trkpt lat="44.64568705298086" lon="7.9934814466799455"><ele>204.0</ele><time>2026-04-12T07:12:28Z</time></trkpt><trkpt lat="44.64564757587436" lon="7.993408240427802"><ele>204.0</ele><time>2026-04-12T07:12:29Z</time></trkpt><trkpt lat="44.64561125069676" lon="7.993330734998952"><ele>204.0</ele><time>2026-04-12T07:12:30Z</time></trkpt><trkpt lat="44.64557103645412" lon="7.993248012570819"><ele>204.0</ele><time>2026-04-12T07:12:31Z</time></trkpt><trkpt lat="44.64553257727339" lon="7.993173519592648"><ele>204.0</ele><time>2026-04-12T07:12:32Z</time></trkpt><trkpt lat="44.64549406307099" lon="7.993096488406771"><ele>204.0</ele><time>2026-04-12T07:12:33Z</time></trkpt><trkpt lat="44.645460225072775" lon="7.99301678441476"><ele>203.79999999999998</ele><time>2026-04-12T07:12:34Z</time></trkpt><trkpt lat="44.64540363903918" lon="7.992878759608022"><ele>203.6</ele><time>2026-04-12T07:12:36Z</time></trkpt><trkpt lat="44.645340820406126" lon="7.992763549551989"><ele>203.4</ele><time>2026-04-12T07:12:38Z</time></trkpt><trkpt lat="44.645286821434766" lon="7.992655260557019"><ele>203.2</ele><time>2026-04-12T07:12:40Z</time></trkpt><trkpt lat="44.64521753209674" lon="7.992540219013645"><ele>203.0</ele><time>2026-04-12T07:12:42Z</time></trkpt><trkpt lat="44.64515491020256" lon="7.992411115720338"><ele>203.0</ele><time>2026-04-12T07:12:44Z</time></trkpt><trkpt lat="44.64508047967047" lon="7.992292972376141"><ele>203.0</ele><time>2026-04-12T07:12:46Z</time></trkpt><trkpt lat="44.64500946288889" lon="7.992176780548984"><ele>203.0</ele><time>2026-04-12T07:12:48Z</time></trkpt><trkpt lat="44.64493940983665" lon="7.9920651679178265"><ele>203.0</ele><time>2026-04-12T07:12:50Z</time></trkpt><trkpt lat="44.64487221577378" lon="7.9919619440000655"><ele>203.0</ele><time>2026-04-12T07:12:52Z</time></trkpt><trkpt lat="44.6448134137036" lon="7.991870495578991"><ele>203.00000000000003</ele><time>2026-04-12T07:12:54Z</time></trkpt><trkpt lat="44.644803324079334" lon="7.991754750097708"><ele>203.0</ele><time>2026-04-12T07:12:56Z</time></trkpt><trkpt lat="44.644843650637256" lon="7.991675539474319"><ele>203.0</ele><time>2026-04-12T07:12:58Z</time></trkpt><trkpt lat="44.64490525628694" lon="7.991604565218673"><ele>203.0</ele><time>2026-04-12T07:13:00Z</time></trkpt><trkpt lat="44.64496812345778" lon="7.991518283741963"><ele>203.00000000000003</ele><time>2026-04-12T07:13:02Z</time></trkpt><trkpt lat="44.64504270980692" lon="7.9914359088534"><ele>203.0</ele><time>2026-04-12T07:13:04Z</time></trkpt><trkpt lat="44.6451121776475" lon="7.991321210397474"><ele>203.2</ele><time>2026-04-12T07:13:06Z</time></trkpt><trkpt lat="44.64516339974853" lon="7.991184008791833"><ele>203.4</ele><time>2026-04-12T07:13:08Z</time></trkpt><trkpt lat="44.64522002657609" lon="7.991065553849446"><ele>203.6</ele><time>2026-04-12T07:13:10Z</time></trkpt><trkpt lat="44.64527655656378" lon="7.990934438936775"><ele>203.79999999999998</ele><time>2026-04-12T07:13:12Z</time></trkpt><trkpt lat="44.645330740300494" lon="7.990806445029355"><ele>204.0</ele><time>2026-04-12T07:13:13.999Z</time></trkpt><trkpt lat="44.645380984311565" lon="7.990674892635745"><ele>203.79999999999998</ele><time>2026-04-12T07:13:15.999Z</time></trkpt><trkpt lat="44.64542977354792" lon="7.990524024543616"><ele>203.6</ele><time>2026-04-12T07:13:17.999Z</time></trkpt><trkpt lat="44.64547551038083" lon="7.990387942239432"><ele>203.4</ele><time>2026-04-12T07:13:19.999Z</time></trkpt><trkpt lat="44.64552099103431" lon="7.990246155518059"><ele>203.2</ele><time>2026-04-12T07:13:21.999Z</time></trkpt><trkpt lat="44.64556239885873" lon="7.990112300264228"><ele>203.0</ele><time>2026-04-12T07:13:23.999Z</time></trkpt><trkpt lat="44.64560416512943" lon="7.989974417771445"><ele>203.0</ele><time>2026-04-12T07:13:25.999Z</time></trkpt><trkpt lat="44.64564739685432" lon="7.989845709496649"><ele>203.0</ele><time>2026-04-12T07:13:27.999Z</time></trkpt><trkpt lat="44.64569236106731" lon="7.989705113554084"><ele>203.0</ele><time>2026-04-12T07:13:29.999Z</time></trkpt><trkpt lat="44.64572812269153" lon="7.989563904948156"><ele>203.0</ele><time>2026-04-12T07:13:31.999Z</time></trkpt><trkpt lat="44.64576803183005" lon="7.9894276137272575"><ele>203.0</ele><time>2026-04-12T07:13:33.999Z</time></trkpt><trkpt lat="44.64581448003663" lon="7.989281811545382"><ele>202.5</ele><time>2026-04-12T07:13:35.999Z</time></trkpt><trkpt lat="44.64586128936516" lon="7.989124990947659"><ele>202.0</ele><time>2026-04-12T07:13:37.999Z</time></trkpt><trkpt lat="44.645898548299876" lon="7.988967499916928"><ele>201.5</ele><time>2026-04-12T07:13:39.999Z</time></trkpt><trkpt lat="44.64592242346951" lon="7.9888050028690385"><ele>201.0</ele><time>2026-04-12T07:13:41.999Z</time></trkpt><trkpt lat="44.6459530413001" lon="7.988651212357365"><ele>201.0</ele><time>2026-04-12T07:13:43.999Z</time></trkpt><trkpt lat="44.64599172970642" lon="7.988498176192532"><ele>201.0</ele><time>2026-04-12T07:13:45.999Z</time></trkpt><trkpt lat="44.6460310024211" lon="7.9883374283305715"><ele>201.0</ele><time>2026-04-12T07:13:47.999Z</time></trkpt><trkpt lat="44.646044382723254" lon="7.98824879228428"><ele>201.0</ele><time>2026-04-12T07:13:48.999Z</time></trkpt><trkpt lat="44.64606145313711" lon="7.988162783771601"><ele>201.0</ele><time>2026-04-12T07:13:49.999Z</time></trkpt><trkpt lat="44.646086151477554" lon="7.988070286560474"><ele>201.0</ele><time>2026-04-12T07:13:50.999Z</time></trkpt><trkpt lat="44.64612663724859" lon="7.98790099089437"><ele>200.8</ele><time>2026-04-12T07:13:52.999Z</time></trkpt><trkpt lat="44.64614684418116" lon="7.987815580078705"><ele>200.60000000000002</ele><time>2026-04-12T07:13:53.999Z</time></trkpt><trkpt lat="44.64618349001947" lon="7.987659067750652"><ele>200.4</ele><time>2026-04-12T07:13:55.999Z</time></trkpt><trkpt lat="44.64622234403056" lon="7.987512571754244"><ele>200.2</ele><time>2026-04-12T07:13:57.999Z</time></trkpt><trkpt lat="44.64625901648192" lon="7.987366187484975"><ele>200.0</ele><time>2026-04-12T07:13:59.999Z</time></trkpt><trkpt lat="44.64629499853577" lon="7.987230470445999"><ele>200.0</ele><time>2026-04-12T07:14:01.999Z</time></trkpt><trkpt lat="44.6463329454611" lon="7.98708290375876"><ele>200.0</ele><time>2026-04-12T07:14:03.999Z</time></trkpt><trkpt lat="44.64637276873402" lon="7.9869414595861725"><ele>200.0</ele><time>2026-04-12T07:14:05.999Z</time></trkpt><trkpt lat="44.646410723018306" lon="7.9867909520107725"><ele>200.0</ele><time>2026-04-12T07:14:07.999Z</time></trkpt><trkpt lat="44.64645405504821" lon="7.986636460654614"><ele>200.2</ele><time>2026-04-12T07:14:09.999Z</time></trkpt><trkpt lat="44.64647868427765" lon="7.9865546072758615"><ele>200.4</ele><time>2026-04-12T07:14:10.999Z</time></trkpt><trkpt lat="44.646514934604696" lon="7.98640193127252"><ele>200.60000000000002</ele><time>2026-04-12T07:14:12.999Z</time></trkpt><trkpt lat="44.64654997601153" lon="7.986249301941549"><ele>200.8</ele><time>2026-04-12T07:14:14.999Z</time></trkpt><trkpt lat="44.64658456298514" lon="7.986095814897657"><ele>201.0</ele><time>2026-04-12T07:14:16.999Z</time></trkpt><trkpt lat="44.64662052482285" lon="7.985944399771341"><ele>200.75</ele><time>2026-04-12T07:14:18.999Z</time></trkpt><trkpt lat="44.64666670931165" lon="7.985792826917362"><ele>200.5</ele><time>2026-04-12T07:14:20.999Z</time></trkpt><trkpt lat="44.64670411667549" lon="7.9856371275853295"><ele>200.25</ele><time>2026-04-12T07:14:22.999Z</time></trkpt><trkpt lat="44.64674625830567" lon="7.985482012187614"><ele>200.0</ele><time>2026-04-12T07:14:24.999Z</time></trkpt><trkpt lat="44.64678608008636" lon="7.985330557643297"><ele>200.0</ele><time>2026-04-12T07:14:26.998Z</time></trkpt><trkpt lat="44.64682298682713" lon="7.985174349163969"><ele>200.0</ele><time>2026-04-12T07:14:28.998Z</time></trkpt><trkpt lat="44.64686342520782" lon="7.985018833190635"><ele>200.0</ele><time>2026-04-12T07:14:31Z</time></trkpt><trkpt lat="44.64690421850142" lon="7.984862810975125"><ele>200.0</ele><time>2026-04-12T07:14:33Z</time></trkpt><trkpt lat="44.646951563785706" lon="7.984711254576263"><ele>199.6</ele><time>2026-04-12T07:14:35Z</time></trkpt><trkpt lat="44.64699704803559" lon="7.984557136118291"><ele>199.2</ele><time>2026-04-12T07:14:37Z</time></trkpt><trkpt lat="44.647032381380285" lon="7.984401023740615"><ele>198.8</ele><time>2026-04-12T07:14:39Z</time></trkpt><trkpt lat="44.64706217280139" lon="7.984243235417606"><ele>198.4</ele><time>2026-04-12T07:14:41Z</time></trkpt><trkpt lat="44.64709517935848" lon="7.984165739746411"><ele>198.0</ele><time>2026-04-12T07:14:42Z</time></trkpt><trkpt lat="44.647134807887845" lon="7.984003339658955"><ele>198.0</ele><time>2026-04-12T07:14:44Z</time></trkpt><trkpt lat="44.647172039422664" lon="7.983845729962825"><ele>198.0</ele><time>2026-04-12T07:14:46Z</time></trkpt><trkpt lat="44.64721002196013" lon="7.98368620462285"><ele>198.0</ele><time>2026-04-12T07:14:48Z</time></trkpt><trkpt lat="44.64724806906771" lon="7.983524230658733"><ele>198.0</ele><time>2026-04-12T07:14:50Z</time></trkpt><trkpt lat="44.647275884080955" lon="7.9834434647708035"><ele>198.0</ele><time>2026-04-12T07:14:51Z</time></trkpt><trkpt lat="44.647312629939506" lon="7.9832826385006745"><ele>198.25</ele><time>2026-04-12T07:14:53Z</time></trkpt><trkpt lat="44.64735922183301" lon="7.983126157120644"><ele>198.5</ele><time>2026-04-12T07:14:55Z</time></trkpt><trkpt lat="44.64740541329876" lon="7.982978038212943"><ele>198.75</ele><time>2026-04-12T07:14:57Z</time></trkpt><trkpt lat="44.647449333223946" lon="7.982836915154028"><ele>199.0</ele><time>2026-04-12T07:14:59Z</time></trkpt><trkpt lat="44.6474956253531" lon="7.982694787116098"><ele>199.0</ele><time>2026-04-12T07:15:01Z</time></trkpt><trkpt lat="44.64754492438608" lon="7.982545227278002"><ele>199.0</ele><time>2026-04-12T07:15:03Z</time></trkpt><trkpt lat="44.64759237436043" lon="7.982397270363126"><ele>199.0</ele><time>2026-04-12T07:15:05Z</time></trkpt><trkpt lat="44.64763375271296" lon="7.982259484853026"><ele>199.0</ele><time>2026-04-12T07:15:07Z</time></trkpt><trkpt lat="44.64768144415187" lon="7.982117828383198"><ele>199.0</ele><time>2026-04-12T07:15:09Z</time></trkpt><trkpt lat="44.64772684058035" lon="7.981979530348916"><ele>199.0</ele><time>2026-04-12T07:15:11Z</time></trkpt><trkpt lat="44.6477722380089" lon="7.981840786107937"><ele>199.0</ele><time>2026-04-12T07:15:13Z</time></trkpt><trkpt lat="44.64781787207976" lon="7.981709316905472"><ele>199.0</ele><time>2026-04-12T07:15:15Z</time></trkpt><trkpt lat="44.64786657656501" lon="7.981580874123236"><ele>199.0</ele><time>2026-04-12T07:15:17Z</time></trkpt><trkpt lat="44.64790375225866" lon="7.981455124360953"><ele>199.0</ele><time>2026-04-12T07:15:18.999Z</time></trkpt><trkpt lat="44.64793332711609" lon="7.981310300096821"><ele>199.0</ele><time>2026-04-12T07:15:20.999Z</time></trkpt><trkpt lat="44.64796710854116" lon="7.981170198942673"><ele>199.0</ele><time>2026-04-12T07:15:22.999Z</time></trkpt><trkpt lat="44.64797644484512" lon="7.9810168375645665"><ele>199.0</ele><time>2026-04-12T07:15:24.999Z</time></trkpt><trkpt lat="44.6479805539624" lon="7.980879338546135"><ele>199.0</ele><time>2026-04-12T07:15:26.999Z</time></trkpt><trkpt lat="44.64800538056256" lon="7.980763021090514"><ele>199.2</ele><time>2026-04-12T07:15:28.999Z</time></trkpt><trkpt lat="44.648011286476745" lon="7.980640801866444"><ele>199.39999999999998</ele><time>2026-04-12T07:15:30.999Z</time></trkpt><trkpt lat="44.64799408524271" lon="7.980484599173419"><ele>199.6</ele><time>2026-04-12T07:15:32.999Z</time></trkpt><trkpt lat="44.648001505860286" lon="7.980332369817212"><ele>199.8</ele><time>2026-04-12T07:15:34.999Z</time></trkpt><trkpt lat="44.64797998992474" lon="7.980177889258239"><ele>200.0</ele><time>2026-04-12T07:15:36.999Z</time></trkpt><trkpt lat="44.64797243132637" lon="7.980035825149536"><ele>199.6</ele><time>2026-04-12T07:15:38.999Z</time></trkpt><trkpt lat="44.64797351273454" lon="7.979887896271262"><ele>199.2</ele><time>2026-04-12T07:15:40.999Z</time></trkpt><trkpt lat="44.64797847895618" lon="7.979742041445343"><ele>198.8</ele><time>2026-04-12T07:15:42.999Z</time></trkpt><trkpt lat="44.64798189224479" lon="7.979587609387986"><ele>198.4</ele><time>2026-04-12T07:15:44.999Z</time></trkpt><trkpt lat="44.6479887588238" lon="7.97944629185175"><ele>198.0</ele><time>2026-04-12T07:15:46.999Z</time></trkpt><trkpt lat="44.647985092910055" lon="7.97929011489389"><ele>198.0</ele><time>2026-04-12T07:15:48.999Z</time></trkpt><trkpt lat="44.64802381971892" lon="7.979162057196734"><ele>198.0</ele><time>2026-04-12T07:15:50.999Z</time></trkpt><trkpt lat="44.648063647041475" lon="7.979074740458885"><ele>198.0</ele><time>2026-04-12T07:15:52.999Z</time></trkpt><trkpt lat="44.648095548102134" lon="7.9789746994476385"><ele>198.0</ele><time>2026-04-12T07:15:55.999Z</time></trkpt><trkpt lat="44.648024679956634" lon="7.978849419191877"><ele>198.0</ele><time>2026-04-12T07:15:58.999Z</time></trkpt><trkpt lat="44.64793745586152" lon="7.978810112817883"><ele>198.0</ele><time>2026-04-12T07:16:00.999Z</time></trkpt><trkpt lat="44.64784092884834" lon="7.978763645642927"><ele>198.0</ele><time>2026-04-12T07:16:02.999Z</time></trkpt><trkpt lat="44.64773473948985" lon="7.978729753300221"><ele>198.0</ele><time>2026-04-12T07:16:04.999Z</time></trkpt><trkpt lat="44.64763144697777" lon="7.978688225595522"><ele>198.0</ele><time>2026-04-12T07:16:06.999Z</time></trkpt><trkpt lat="44.64752453373768" lon="7.978644353919632"><ele>198.0</ele><time>2026-04-12T07:16:08.999Z</time></trkpt><trkpt lat="44.647424714785814" lon="7.978606506097044"><ele>198.25</ele><time>2026-04-12T07:16:10.999Z</time></trkpt><trkpt lat="44.64732142742696" lon="7.978555074624806"><ele>198.5</ele><time>2026-04-12T07:16:12.999Z</time></trkpt><trkpt lat="44.64722285385779" lon="7.97848796341781"><ele>198.75</ele><time>2026-04-12T07:16:14.999Z</time></trkpt><trkpt lat="44.64711660121133" lon="7.978430444961747"><ele>199.0</ele><time>2026-04-12T07:16:16.999Z</time></trkpt><trkpt lat="44.64701604946545" lon="7.978343307053622"><ele>198.99999999999997</ele><time>2026-04-12T07:16:18.999Z</time></trkpt><trkpt lat="44.64696989249477" lon="7.978273575233959"><ele>199.0</ele><time>2026-04-12T07:16:19.999Z</time></trkpt><trkpt lat="44.64693599870649" lon="7.978195023651007"><ele>199.0</ele><time>2026-04-12T07:16:20.999Z</time></trkpt><trkpt lat="44.646906384247465" lon="7.978115051853624"><ele>199.0</ele><time>2026-04-12T07:16:21.999Z</time></trkpt><trkpt lat="44.646879935189446" lon="7.978033411272186"><ele>198.99999999999997</ele><time>2026-04-12T07:16:22.999Z</time></trkpt><trkpt lat="44.64680478514235" lon="7.977906810254766"><ele>199.0</ele><time>2026-04-12T07:16:24.999Z</time></trkpt><trkpt lat="44.64669386969481" lon="7.977885708125505"><ele>199.2</ele><time>2026-04-12T07:16:26.999Z</time></trkpt><trkpt lat="44.64660387963669" lon="7.977986171921115"><ele>199.39999999999998</ele><time>2026-04-12T07:16:28.999Z</time></trkpt><trkpt lat="44.64653552314063" lon="7.978101131643669"><ele>199.6</ele><time>2026-04-12T07:16:30.998Z</time></trkpt><trkpt lat="44.646456677590415" lon="7.978199480767943"><ele>199.8</ele><time>2026-04-12T07:16:32.998Z</time></trkpt><trkpt lat="44.64635218280485" lon="7.978253584908208"><ele>200.0</ele><time>2026-04-12T07:16:34.998Z</time></trkpt><trkpt lat="44.64625383052459" lon="7.97830681004579"><ele>201.8</ele><time>2026-04-12T07:16:37Z</time></trkpt><trkpt lat="44.64615420192175" lon="7.978368595090957"><ele>203.6</ele><time>2026-04-12T07:16:39Z</time></trkpt><trkpt lat="44.64604879745327" lon="7.978413223685326"><ele>205.39999999999998</ele><time>2026-04-12T07:16:41Z</time></trkpt><trkpt lat="44.645956564694984" lon="7.978466474127951"><ele>207.2</ele><time>2026-04-12T07:16:43Z</time></trkpt><trkpt lat="44.645863865663735" lon="7.978523733464282"><ele>209.0</ele><time>2026-04-12T07:16:45Z</time></trkpt><trkpt lat="44.64576905206512" lon="7.978570251464828"><ele>209.0</ele><time>2026-04-12T07:16:47Z</time></trkpt><trkpt lat="44.64567403081592" lon="7.978621445688073"><ele>209.0</ele><time>2026-04-12T07:16:49Z</time></trkpt><trkpt lat="44.64557490102151" lon="7.978668258775805"><ele>209.0</ele><time>2026-04-12T07:16:51Z</time></trkpt><trkpt lat="44.645480880225726" lon="7.978719595365055"><ele>209.0</ele><time>2026-04-12T07:16:53Z</time></trkpt><trkpt lat="44.64538786967752" lon="7.978768131415016"><ele>209.0</ele><time>2026-04-12T07:16:55Z</time></trkpt><trkpt lat="44.645287543625834" lon="7.978824365222589"><ele>208.2</ele><time>2026-04-12T07:16:57Z</time></trkpt><trkpt lat="44.64518908995748" lon="7.978872608916759"><ele>207.39999999999998</ele><time>2026-04-12T07:16:59Z</time></trkpt><trkpt lat="44.64508757103074" lon="7.978937618628875"><ele>206.6</ele><time>2026-04-12T07:17:01Z</time></trkpt><trkpt lat="44.64498167699828" lon="7.978994813309969"><ele>205.8</ele><time>2026-04-12T07:17:03Z</time></trkpt><trkpt lat="44.644873544615486" lon="7.979052975811082"><ele>205.0</ele><time>2026-04-12T07:17:05Z</time></trkpt><trkpt lat="44.6447575076888" lon="7.979106134170269"><ele>205.0</ele><time>2026-04-12T07:17:07Z</time></trkpt><trkpt lat="44.64463881700356" lon="7.9791532890570815"><ele>205.0</ele><time>2026-04-12T07:17:09Z</time></trkpt><trkpt lat="44.6445260761895" lon="7.979218148884884"><ele>205.0</ele><time>2026-04-12T07:17:11Z</time></trkpt><trkpt lat="44.64442228860487" lon="7.979273902590565"><ele>205.0</ele><time>2026-04-12T07:17:13Z</time></trkpt><trkpt lat="44.64432597898964" lon="7.97933668025947"><ele>206.75</ele><time>2026-04-12T07:17:15Z</time></trkpt><trkpt lat="44.644233722658306" lon="7.979420866529763"><ele>208.5</ele><time>2026-04-12T07:17:17Z</time></trkpt><trkpt lat="44.644131622748496" lon="7.979506135958588"><ele>210.25</ele><time>2026-04-12T07:17:19Z</time></trkpt><trkpt lat="44.64403774998138" lon="7.979603280410828"><ele>212.0</ele><time>2026-04-12T07:17:21Z</time></trkpt><trkpt lat="44.643940950434846" lon="7.979700008641664"><ele>212.0</ele><time>2026-04-12T07:17:23Z</time></trkpt><trkpt lat="44.643843021832424" lon="7.9798036499112515"><ele>212.0</ele><time>2026-04-12T07:17:25Z</time></trkpt><trkpt lat="44.64374962220178" lon="7.979917354916243"><ele>212.0</ele><time>2026-04-12T07:17:26.999Z</time></trkpt><trkpt lat="44.6436603872059" lon="7.980024127188504"><ele>212.0</ele><time>2026-04-12T07:17:28.999Z</time></trkpt><trkpt lat="44.64357607335161" lon="7.980129462669696"><ele>211.25</ele><time>2026-04-12T07:17:30.999Z</time></trkpt><trkpt lat="44.643485212308946" lon="7.980233456572839"><ele>210.5</ele><time>2026-04-12T07:17:32.999Z</time></trkpt><trkpt lat="44.643397676073" lon="7.980337387275505"><ele>209.75</ele><time>2026-04-12T07:17:34.999Z</time></trkpt><trkpt lat="44.64330742726157" lon="7.980448891788873"><ele>209.0</ele><time>2026-04-12T07:17:36.999Z</time></trkpt><trkpt lat="44.643214125323944" lon="7.98055845071053"><ele>209.0</ele><time>2026-04-12T07:17:38.999Z</time></trkpt><trkpt lat="44.643120426468855" lon="7.980668596486597"><ele>209.0</ele><time>2026-04-12T07:17:40.999Z</time></trkpt><trkpt lat="44.643016687447115" lon="7.980766310853834"><ele>209.0</ele><time>2026-04-12T07:17:42.999Z</time></trkpt><trkpt lat="44.642914872318826" lon="7.980850960132962"><ele>209.0</ele><time>2026-04-12T07:17:44.999Z</time></trkpt><trkpt lat="44.64281134706183" lon="7.980921407165575"><ele>209.0</ele><time>2026-04-12T07:17:46.999Z</time></trkpt><trkpt lat="44.642704983310665" lon="7.980994598449504"><ele>209.0</ele><time>2026-04-12T07:17:48.999Z</time></trkpt><trkpt lat="44.64259492230342" lon="7.981073041460508"><ele>209.0</ele><time>2026-04-12T07:17:50.999Z</time></trkpt><trkpt lat="44.642537441497" lon="7.981111966273425"><ele>209.0</ele><time>2026-04-12T07:17:51.999Z</time></trkpt><trkpt lat="44.642480530997844" lon="7.981156524450732"><ele>209.0</ele><time>2026-04-12T07:17:52.999Z</time></trkpt><trkpt lat="44.64237491484622" lon="7.981252698342451"><ele>209.0</ele><time>2026-04-12T07:17:54.999Z</time></trkpt><trkpt lat="44.64232644342139" lon="7.981309473144113"><ele>209.0</ele><time>2026-04-12T07:17:55.999Z</time></trkpt><trkpt lat="44.64227667551853" lon="7.9813695593525935"><ele>209.0</ele><time>2026-04-12T07:17:56.999Z</time></trkpt><trkpt lat="44.64222831432814" lon="7.9814298306539255"><ele>209.0</ele><time>2026-04-12T07:17:57.999Z</time></trkpt><trkpt lat="44.642181624481076" lon="7.981489281045891"><ele>209.0</ele><time>2026-04-12T07:17:58.999Z</time></trkpt><trkpt lat="44.64213296070542" lon="7.9815523510242565"><ele>209.0</ele><time>2026-04-12T07:17:59.999Z</time></trkpt><trkpt lat="44.64208528819874" lon="7.981614487610557"><ele>209.0</ele><time>2026-04-12T07:18:00.999Z</time></trkpt><trkpt lat="44.64203630088373" lon="7.981672346436168"><ele>209.0</ele><time>2026-04-12T07:18:01.999Z</time></trkpt><trkpt lat="44.64198407953998" lon="7.981727737608733"><ele>209.0</ele><time>2026-04-12T07:18:02.999Z</time></trkpt><trkpt lat="44.64188221141363" lon="7.981821993459783"><ele>209.0</ele><time>2026-04-12T07:18:04.999Z</time></trkpt><trkpt lat="44.64177724137105" lon="7.9819008037263"><ele>209.0</ele><time>2026-04-12T07:18:06.999Z</time></trkpt><trkpt lat="44.64167417131143" lon="7.981967917049981"><ele>209.0</ele><time>2026-04-12T07:18:08.999Z</time></trkpt><trkpt lat="44.64157924377644" lon="7.982019748830534"><ele>209.0</ele><time>2026-04-12T07:18:10.999Z</time></trkpt><trkpt lat="44.641487532839065" lon="7.982057771781105"><ele>209.0</ele><time>2026-04-12T07:18:12.999Z</time></trkpt><trkpt lat="44.64140320609172" lon="7.98208847334918"><ele>209.0</ele><time>2026-04-12T07:18:14.999Z</time></trkpt><trkpt lat="44.6413171288157" lon="7.982124704637153"><ele>209.0</ele><time>2026-04-12T07:18:16.999Z</time></trkpt><trkpt lat="44.6412251493796" lon="7.98215225378115"><ele>209.0</ele><time>2026-04-12T07:18:18.999Z</time></trkpt><trkpt lat="44.64113015746823" lon="7.982190381921155"><ele>208.79999999999998</ele><time>2026-04-12T07:18:20.999Z</time></trkpt><trkpt lat="44.64102782242824" lon="7.982226763960018"><ele>208.6</ele><time>2026-04-12T07:18:22.999Z</time></trkpt><trkpt lat="44.64092836288503" lon="7.982257979728637"><ele>208.4</ele><time>2026-04-12T07:18:24.999Z</time></trkpt><trkpt lat="44.640826167594014" lon="7.982290964985123"><ele>208.2</ele><time>2026-04-12T07:18:26.999Z</time></trkpt><trkpt lat="44.640723802732325" lon="7.982322894450169"><ele>208.0</ele><time>2026-04-12T07:18:28.999Z</time></trkpt><trkpt lat="44.6406263232748" lon="7.982360755687966"><ele>208.0</ele><time>2026-04-12T07:18:30.999Z</time></trkpt><trkpt lat="44.640534280359844" lon="7.982396109444466"><ele>208.0</ele><time>2026-04-12T07:18:32.999Z</time></trkpt><trkpt lat="44.640442308794995" lon="7.982426951472514"><ele>208.0</ele><time>2026-04-12T07:18:34.999Z</time></trkpt><trkpt lat="44.64035141948014" lon="7.982459237131793"><ele>208.0</ele><time>2026-04-12T07:18:36.999Z</time></trkpt><trkpt lat="44.6402537155425" lon="7.982491597296033"><ele>208.0</ele><time>2026-04-12T07:18:38.998Z</time></trkpt><trkpt lat="44.64016450170968" lon="7.982523442275793"><ele>210.0</ele><time>2026-04-12T07:18:40.998Z</time></trkpt><trkpt lat="44.6400708079524" lon="7.982554908148395"><ele>212.0</ele><time>2026-04-12T07:18:43Z</time></trkpt><trkpt lat="44.63997500265016" lon="7.9825851331838935"><ele>214.0</ele><time>2026-04-12T07:18:45Z</time></trkpt><trkpt lat="44.63988259327762" lon="7.982616325908861"><ele>216.0</ele><time>2026-04-12T07:18:47Z</time></trkpt><trkpt lat="44.63978823258642" lon="7.982639886279111"><ele>218.0</ele><time>2026-04-12T07:18:49Z</time></trkpt><trkpt lat="44.639698277042726" lon="7.98266033794965"><ele>218.00000000000003</ele><time>2026-04-12T07:18:51Z</time></trkpt><trkpt lat="44.63960954372676" lon="7.982678327535124"><ele>218.0</ele><time>2026-04-12T07:18:53Z</time></trkpt><trkpt lat="44.6395178340827" lon="7.982689770979405"><ele>218.0</ele><time>2026-04-12T07:18:55Z</time></trkpt><trkpt lat="44.6394300241984" lon="7.982697387463405"><ele>218.0</ele><time>2026-04-12T07:18:57Z</time></trkpt><trkpt lat="44.63934610109416" lon="7.982702049079575"><ele>218.00000000000003</ele><time>2026-04-12T07:18:59Z</time></trkpt><trkpt lat="44.63926625890515" lon="7.982710777346376"><ele>218.0</ele><time>2026-04-12T07:19:01Z</time></trkpt><trkpt lat="44.63918434137928" lon="7.982722661791679"><ele>217.66666666666669</ele><time>2026-04-12T07:19:03Z</time></trkpt><trkpt lat="44.639111609904994" lon="7.982726864051715"><ele>217.33333333333334</ele><time>2026-04-12T07:19:05Z</time></trkpt><trkpt lat="44.63902235681214" lon="7.982734296749246"><ele>217.0</ele><time>2026-04-12T07:19:08Z</time></trkpt><trkpt lat="44.63894079874361" lon="7.982735894403494"><ele>216.66666666666669</ele><time>2026-04-12T07:19:11Z</time></trkpt><trkpt lat="44.63885735515224" lon="7.982749576969536"><ele>216.33333333333334</ele><time>2026-04-12T07:19:14Z</time></trkpt><trkpt lat="44.638791162022784" lon="7.982837854827784"><ele>216.0</ele><time>2026-04-12T07:19:17Z</time></trkpt><trkpt lat="44.63871580589137" lon="7.982880571044692"><ele>216.0</ele><time>2026-04-12T07:19:20Z</time></trkpt><trkpt lat="44.638643523194844" lon="7.9829139013812105"><ele>216.0</ele><time>2026-04-12T07:19:23Z</time></trkpt><trkpt lat="44.6385785669252" lon="7.98298213928746"><ele>216.0</ele><time>2026-04-12T07:19:26Z</time></trkpt><trkpt lat="44.63852181238256" lon="7.983033624545542"><ele>216.0</ele><time>2026-04-12T07:19:28Z</time></trkpt><trkpt lat="44.63847609682623" lon="7.983098796178993"><ele>216.0</ele><time>2026-04-12T07:19:30Z</time></trkpt><trkpt lat="44.638415532252466" lon="7.983204141968123"><ele>216.0</ele><time>2026-04-12T07:19:32.999Z</time></trkpt><trkpt lat="44.63837683431324" lon="7.983275711886188"><ele>216.57142857142856</ele><time>2026-04-12T07:19:34.999Z</time></trkpt><trkpt lat="44.63834450724594" lon="7.983353203769832"><ele>217.14285714285714</ele><time>2026-04-12T07:19:36.999Z</time></trkpt><trkpt lat="44.638310364755405" lon="7.983432869983359"><ele>217.71428571428572</ele><time>2026-04-12T07:19:38.999Z</time></trkpt><trkpt lat="44.63828200565502" lon="7.983515887903394"><ele>218.28571428571428</ele><time>2026-04-12T07:19:40.999Z</time></trkpt><trkpt lat="44.63825284126693" lon="7.983600048981475"><ele>218.85714285714286</ele><time>2026-04-12T07:19:42.999Z</time></trkpt><trkpt lat="44.63824603974254" lon="7.983692245837204"><ele>219.42857142857142</ele><time>2026-04-12T07:19:44.999Z</time></trkpt><trkpt lat="44.638208954723346" lon="7.983767285057864"><ele>220.0</ele><time>2026-04-12T07:19:46.999Z</time></trkpt><trkpt lat="44.63818953943891" lon="7.983858030462949"><ele>219.99999999999997</ele><time>2026-04-12T07:19:48.999Z</time></trkpt><trkpt lat="44.6381738283466" lon="7.983951319256799"><ele>220.0</ele><time>2026-04-12T07:19:50.999Z</time></trkpt><trkpt lat="44.63816158427938" lon="7.98404057789499"><ele>220.0</ele><time>2026-04-12T07:19:52.999Z</time></trkpt><trkpt lat="44.638157579605206" lon="7.984131886319858"><ele>220.0</ele><time>2026-04-12T07:19:54.999Z</time></trkpt><trkpt lat="44.638149541035176" lon="7.984222432929636"><ele>220.0</ele><time>2026-04-12T07:19:56.999Z</time></trkpt><trkpt lat="44.63814824778872" lon="7.984356728910937"><ele>219.99999999999997</ele><time>2026-04-12T07:19:59.999Z</time></trkpt><trkpt lat="44.63814491296044" lon="7.984451463089938"><ele>220.0</ele><time>2026-04-12T07:20:01.999Z</time></trkpt><trkpt lat="44.638142647013765" lon="7.984546745669348"><ele>220.42857142857142</ele><time>2026-04-12T07:20:03.999Z</time></trkpt><trkpt lat="44.638154915874566" lon="7.984646972542124"><ele>220.85714285714286</ele><time>2026-04-12T07:20:05.999Z</time></trkpt><trkpt lat="44.63816878434841" lon="7.984742317905008"><ele>221.28571428571428</ele><time>2026-04-12T07:20:07.999Z</time></trkpt><trkpt lat="44.63818128486238" lon="7.984831424826892"><ele>221.71428571428572</ele><time>2026-04-12T07:20:09.999Z</time></trkpt><trkpt lat="44.638223415874045" lon="7.984905705741776"><ele>222.14285714285714</ele><time>2026-04-12T07:20:11.999Z</time></trkpt><trkpt lat="44.638254841934405" lon="7.985013476563484"><ele>222.57142857142856</ele><time>2026-04-12T07:20:14.999Z</time></trkpt><trkpt lat="44.63829188431201" lon="7.985125172583191"><ele>223.0</ele><time>2026-04-12T07:20:17.999Z</time></trkpt><trkpt lat="44.638327150016515" lon="7.985220798272875"><ele>223.49999999999997</ele><time>2026-04-12T07:20:20.999Z</time></trkpt><trkpt lat="44.638362463179895" lon="7.985305801094018"><ele>224.0</ele><time>2026-04-12T07:20:23.999Z</time></trkpt><trkpt lat="44.638397905524144" lon="7.985394658095889"><ele>224.5</ele><time>2026-04-12T07:20:25.999Z</time></trkpt><trkpt lat="44.63842701760133" lon="7.985483106611573"><ele>225.0</ele><time>2026-04-12T07:20:28.999Z</time></trkpt><trkpt lat="44.63844986761897" lon="7.985568310414541"><ele>225.49999999999997</ele><time>2026-04-12T07:20:31.999Z</time></trkpt><trkpt lat="44.638471333135406" lon="7.985657925111787"><ele>226.0</ele><time>2026-04-12T07:20:34.999Z</time></trkpt><trkpt lat="44.63858363163669" lon="7.98567239062571"><ele>226.0</ele><time>2026-04-12T07:20:36.999Z</time></trkpt><trkpt lat="44.63849245602632" lon="7.985746109004513"><ele>226.00000000000003</ele><time>2026-04-12T07:20:37.999Z</time></trkpt><trkpt lat="44.6386243768735" lon="7.985743084161152"><ele>226.00000000000003</ele><time>2026-04-12T07:20:39.999Z</time></trkpt><trkpt lat="44.638657598597376" lon="7.985833274042469"><ele>226.0</ele><time>2026-04-12T07:20:43.998Z</time></trkpt><trkpt lat="44.63867604775512" lon="7.985935206972528"><ele>226.0</ele><time>2026-04-12T07:20:47.998Z</time></trkpt><trkpt lat="44.63869225640537" lon="7.986040024778244"><ele>228.57142857142858</ele><time>2026-04-12T07:20:52Z</time></trkpt><trkpt lat="44.638695172881356" lon="7.986146501973562"><ele>231.1428571428571</ele><time>2026-04-12T07:20:57Z</time></trkpt><trkpt lat="44.63871287426432" lon="7.986256126747815"><ele>233.7142857142857</ele><time>2026-04-12T07:21:01Z</time></trkpt><trkpt lat="44.63873946624843" lon="7.986342073387296"><ele>236.28571428571428</ele><time>2026-04-12T07:21:05Z</time></trkpt><trkpt lat="44.63876107385212" lon="7.986448511218354"><ele>238.85714285714283</ele><time>2026-04-12T07:21:10Z</time></trkpt><trkpt lat="44.63879937857322" lon="7.986526627667349"><ele>241.4285714285714</ele><time>2026-04-12T07:21:14Z</time></trkpt><trkpt lat="44.63886561090477" lon="7.986488212595184"><ele>243.99999999999997</ele><time>2026-04-12T07:21:19Z</time></trkpt><trkpt lat="44.63888372486891" lon="7.986400825260468"><ele>243.99999999999997</ele><time>2026-04-12T07:21:23Z</time></trkpt><trkpt lat="44.63891836556853" lon="7.986319285893887"><ele>244.0</ele><time>2026-04-12T07:21:27Z</time></trkpt><trkpt lat="44.63894098173668" lon="7.986214754054961"><ele>244.0</ele><time>2026-04-12T07:21:29Z</time></trkpt><trkpt lat="44.63895761507476" lon="7.986113496940496"><ele>244.0</ele><time>2026-04-12T07:21:32Z</time></trkpt><trkpt lat="44.63897215683372" lon="7.986023162352387"><ele>243.99999999999997</ele><time>2026-04-12T07:21:35Z</time></trkpt><trkpt lat="44.638985887505896" lon="7.985899226945375"><ele>244.0</ele><time>2026-04-12T07:21:37Z</time></trkpt><trkpt lat="44.63901123440969" lon="7.985798962024168"><ele>243.16666666666666</ele><time>2026-04-12T07:21:38.999Z</time></trkpt><trkpt lat="44.639013898573104" lon="7.985703403479201"><ele>242.33333333333331</ele><time>2026-04-12T07:21:40.999Z</time></trkpt><trkpt lat="44.639014971181204" lon="7.985570221993267"><ele>241.5</ele><time>2026-04-12T07:21:43.999Z</time></trkpt><trkpt lat="44.63900568164859" lon="7.985481412436427"><ele>240.66666666666669</ele><time>2026-04-12T07:21:45.999Z</time></trkpt><trkpt lat="44.6389875074095" lon="7.985364763744556"><ele>239.83333333333334</ele><time>2026-04-12T07:21:48.999Z</time></trkpt><trkpt lat="44.638962403738304" lon="7.98526742757682"><ele>239.0</ele><time>2026-04-12T07:21:51.999Z</time></trkpt><trkpt lat="44.63893572020361" lon="7.985172226656343"><ele>239.00000000000003</ele><time>2026-04-12T07:21:54.999Z</time></trkpt><trkpt lat="44.63890835898401" lon="7.985073932021258"><ele>239.0</ele><time>2026-04-12T07:21:57.999Z</time></trkpt><trkpt lat="44.6388845403782" lon="7.984977005150467"><ele>239.00000000000003</ele><time>2026-04-12T07:22:00.999Z</time></trkpt><trkpt lat="44.6388661903785" lon="7.984882117379524"><ele>239.00000000000003</ele><time>2026-04-12T07:22:03.999Z</time></trkpt><trkpt lat="44.63885009823419" lon="7.984794154873593"><ele>239.0</ele><time>2026-04-12T07:22:06.999Z</time></trkpt><trkpt lat="44.63885314876986" lon="7.984682199892686"><ele>239.00000000000003</ele><time>2026-04-12T07:22:10.999Z</time></trkpt><trkpt lat="44.63888464053843" lon="7.984580125286518"><ele>239.00000000000003</ele><time>2026-04-12T07:22:14.999Z</time></trkpt><trkpt lat="44.63895082833137" lon="7.984522491436947"><ele>239.28571428571433</ele><time>2026-04-12T07:22:18.999Z</time></trkpt><trkpt lat="44.6390105685681" lon="7.984494582943039"><ele>239.57142857142858</ele><time>2026-04-12T07:22:21.999Z</time></trkpt><trkpt lat="44.639085894076295" lon="7.984501967401801"><ele>239.8571428571429</ele><time>2026-04-12T07:22:25.999Z</time></trkpt><trkpt lat="44.63915322066571" lon="7.98453496939095"><ele>240.14285714285717</ele><time>2026-04-12T07:22:29.999Z</time></trkpt><trkpt lat="44.639213802520196" lon="7.984581712623414"><ele>240.42857142857144</ele><time>2026-04-12T07:22:33.999Z</time></trkpt><trkpt lat="44.63928669862625" lon="7.984607598775552"><ele>240.71428571428572</ele><time>2026-04-12T07:22:37.999Z</time></trkpt><trkpt lat="44.63935709637419" lon="7.984654686384277"><ele>241.0</ele><time>2026-04-12T07:22:41.999Z</time></trkpt><trkpt lat="44.6394250844713" lon="7.984695775101528"><ele>243.0</ele><time>2026-04-12T07:22:45.999Z</time></trkpt><trkpt lat="44.639491626504196" lon="7.984734439649838"><ele>245.00000000000003</ele><time>2026-04-12T07:22:49.998Z</time></trkpt><trkpt lat="44.639571045304066" lon="7.984760545202767"><ele>247.0</ele><time>2026-04-12T07:22:53.998Z</time></trkpt><trkpt lat="44.63963491808243" lon="7.9847986640185"><ele>249.0</ele><time>2026-04-12T07:22:58Z</time></trkpt><trkpt lat="44.63972300515784" lon="7.984825490378692"><ele>251.00000000000003</ele><time>2026-04-12T07:23:02Z</time></trkpt><trkpt lat="44.63977040153927" lon="7.984758541744176"><ele>253.0</ele><time>2026-04-12T07:23:04Z</time></trkpt><trkpt lat="44.639837172009166" lon="7.984747994717145"><ele>255.0</ele><time>2026-04-12T07:23:07Z</time></trkpt><trkpt lat="44.63990362082255" lon="7.984729779140769"><ele>255.0</ele><time>2026-04-12T07:23:10Z</time></trkpt><trkpt lat="44.63998217578354" lon="7.9847089635634605"><ele>255.0</ele><time>2026-04-12T07:23:12Z</time></trkpt><trkpt lat="44.640050498954984" lon="7.984691901534993"><ele>255.0</ele><time>2026-04-12T07:23:14Z</time></trkpt><trkpt lat="44.64012234098636" lon="7.984669368024125"><ele>255.0</ele><time>2026-04-12T07:23:16Z</time></trkpt><trkpt lat="44.640203731724675" lon="7.9846550992582035"><ele>255.0</ele><time>2026-04-12T07:23:18Z</time></trkpt><trkpt lat="44.640285711493426" lon="7.984643170493078"><ele>255.0</ele><time>2026-04-12T07:23:20Z</time></trkpt><trkpt lat="44.640372349356355" lon="7.984637501498397"><ele>253.66666666666666</ele><time>2026-04-12T07:23:22Z</time></trkpt><trkpt lat="44.64045352952335" lon="7.984637347701388"><ele>252.33333333333331</ele><time>2026-04-12T07:23:24Z</time></trkpt><trkpt lat="44.640530255300575" lon="7.984642191651254"><ele>251.0</ele><time>2026-04-12T07:23:26Z</time></trkpt><trkpt lat="44.64061052763196" lon="7.984647381707858"><ele>249.66666666666666</ele><time>2026-04-12T07:23:28Z</time></trkpt><trkpt lat="44.64068142617211" lon="7.984674462311751"><ele>248.33333333333331</ele><time>2026-04-12T07:23:30Z</time></trkpt><trkpt lat="44.6407452061089" lon="7.984733582401694"><ele>247.0</ele><time>2026-04-12T07:23:32Z</time></trkpt><trkpt lat="44.64077733146707" lon="7.984829177649649"><ele>247.0</ele><time>2026-04-12T07:23:34Z</time></trkpt><trkpt lat="44.64080639733322" lon="7.984913529157068"><ele>247.0</ele><time>2026-04-12T07:23:37Z</time></trkpt><trkpt lat="44.64079038762589" lon="7.9850126767953125"><ele>247.0</ele><time>2026-04-12T07:23:39Z</time></trkpt><trkpt lat="44.64077926760598" lon="7.985118485527056"><ele>247.0</ele><time>2026-04-12T07:23:42Z</time></trkpt><trkpt lat="44.64076374595329" lon="7.985213745874779"><ele>247.0</ele><time>2026-04-12T07:23:45Z</time></trkpt><trkpt lat="44.64073448079035" lon="7.985307644274139"><ele>247.0</ele><time>2026-04-12T07:23:47.999Z</time></trkpt><trkpt lat="44.640731977572976" lon="7.985419858179894"><ele>247.0</ele><time>2026-04-12T07:23:50.999Z</time></trkpt><trkpt lat="44.64071888642088" lon="7.985511292823251"><ele>248.16666666666666</ele><time>2026-04-12T07:23:53.999Z</time></trkpt><trkpt lat="44.640714546216806" lon="7.985622094541465"><ele>249.33333333333331</ele><time>2026-04-12T07:23:56.999Z</time></trkpt><trkpt lat="44.6407166261865" lon="7.98572372025649"><ele>250.5</ele><time>2026-04-12T07:23:59.999Z</time></trkpt><trkpt lat="44.64072884965682" lon="7.985827424063277"><ele>251.66666666666669</ele><time>2026-04-12T07:24:02.999Z</time></trkpt><trkpt lat="44.640743330310805" lon="7.985929033220648"><ele>252.83333333333334</ele><time>2026-04-12T07:24:05.999Z</time></trkpt><trkpt lat="44.640761697186974" lon="7.9860386199988405"><ele>254.0</ele><time>2026-04-12T07:24:08.999Z</time></trkpt><trkpt lat="44.64079134630063" lon="7.986146336078345"><ele>256.0</ele><time>2026-04-12T07:24:11.999Z</time></trkpt><trkpt lat="44.64082501010627" lon="7.986250908904841"><ele>258.0</ele><time>2026-04-12T07:24:14.999Z</time></trkpt><trkpt lat="44.64086588258424" lon="7.986333653058681"><ele>260.0</ele><time>2026-04-12T07:24:17.999Z</time></trkpt><trkpt lat="44.64091512490864" lon="7.9864170046820675"><ele>262.0</ele><time>2026-04-12T07:24:20.999Z</time></trkpt><trkpt lat="44.64097784050386" lon="7.986485519367969"><ele>264.0</ele><time>2026-04-12T07:24:23.999Z</time></trkpt><trkpt lat="44.64105142337175" lon="7.986537334517442"><ele>266.0</ele><time>2026-04-12T07:24:26.999Z</time></trkpt><trkpt lat="44.641126079063824" lon="7.986582635945331"><ele>266.1666666666667</ele><time>2026-04-12T07:24:29.999Z</time></trkpt><trkpt lat="44.641199036005055" lon="7.986614512193456"><ele>266.33333333333337</ele><time>2026-04-12T07:24:32.999Z</time></trkpt><trkpt lat="44.641271942619134" lon="7.986636263112745"><ele>266.5</ele><time>2026-04-12T07:24:35.999Z</time></trkpt><trkpt lat="44.64134536203156" lon="7.986663946112355"><ele>266.6666666666667</ele><time>2026-04-12T07:24:38.999Z</time></trkpt><trkpt lat="44.64142385890795" lon="7.98668817452622"><ele>266.8333333333333</ele><time>2026-04-12T07:24:41.999Z</time></trkpt><trkpt lat="44.6415010944089" lon="7.986715065573577"><ele>267.0</ele><time>2026-04-12T07:24:44.999Z</time></trkpt><trkpt lat="44.641572967471205" lon="7.986743153913499"><ele>267.0</ele><time>2026-04-12T07:24:47.999Z</time></trkpt><trkpt lat="44.64164735193016" lon="7.986764282295799"><ele>267.0</ele><time>2026-04-12T07:24:50.999Z</time></trkpt><trkpt lat="44.64172054526201" lon="7.986778225946836"><ele>267.0</ele><time>2026-04-12T07:24:53.999Z</time></trkpt><trkpt lat="44.64179298962075" lon="7.986802081990825"><ele>267.0</ele><time>2026-04-12T07:24:56.999Z</time></trkpt><trkpt lat="44.641793670393064" lon="7.98700274193207"><ele>267.0</ele><time>2026-04-12T07:25:04Z</time></trkpt><trkpt lat="44.64177337663713" lon="7.987099504273668"><ele>267.0</ele><time>2026-04-12T07:25:07Z</time></trkpt><trkpt lat="44.64175471779439" lon="7.987190184599947"><ele>267.0</ele><time>2026-04-12T07:25:10Z</time></trkpt><trkpt lat="44.641731219341374" lon="7.98729372883986"><ele>267.0</ele><time>2026-04-12T07:25:13Z</time></trkpt><trkpt lat="44.641709245703446" lon="7.987387868152461"><ele>267.0</ele><time>2026-04-12T07:25:16Z</time></trkpt><trkpt lat="44.64168918262241" lon="7.987483639965247"><ele>267.0</ele><time>2026-04-12T07:25:19Z</time></trkpt><trkpt lat="44.641667008268286" lon="7.987590658407225"><ele>267.0</ele><time>2026-04-12T07:25:23Z</time></trkpt><trkpt lat="44.641638740520094" lon="7.987694224761415"><ele>267.0</ele><time>2026-04-12T07:25:27Z</time></trkpt><trkpt lat="44.64161388406454" lon="7.987791632031379"><ele>267.00000000000006</ele><time>2026-04-12T07:25:31Z</time></trkpt><trkpt lat="44.64159170367363" lon="7.987886236196057"><ele>267.0</ele><time>2026-04-12T07:25:35Z</time></trkpt><trkpt lat="44.64156680019172" lon="7.987981649976039"><ele>267.0</ele><time>2026-04-12T07:25:39Z</time></trkpt><trkpt lat="44.64154587754306" lon="7.988068458753139"><ele>267.0</ele><time>2026-04-12T07:25:43Z</time></trkpt><trkpt lat="44.6415211157559" lon="7.988163899218864"><ele>267.0</ele><time>2026-04-12T07:25:46.999Z</time></trkpt><trkpt lat="44.641500237071575" lon="7.988276177474662"><ele>267.00000000000006</ele><time>2026-04-12T07:25:50.999Z</time></trkpt><trkpt lat="44.6414829686767" lon="7.988379412656473"><ele>267.0</ele><time>2026-04-12T07:25:54.999Z</time></trkpt><trkpt lat="44.641465659223016" lon="7.988470814113408"><ele>266.5714285714286</ele><time>2026-04-12T07:25:58.999Z</time></trkpt><trkpt lat="44.64143900474553" lon="7.988558571490686"><ele>266.14285714285717</ele><time>2026-04-12T07:26:02.999Z</time></trkpt><trkpt lat="44.64141975982351" lon="7.988651409624524"><ele>265.7142857142857</ele><time>2026-04-12T07:26:06.999Z</time></trkpt><trkpt lat="44.641397959001324" lon="7.9887523910297356"><ele>265.28571428571433</ele><time>2026-04-12T07:26:10.999Z</time></trkpt><trkpt lat="44.64138109895139" lon="7.988844485436538"><ele>264.8571428571429</ele><time>2026-04-12T07:26:14.999Z</time></trkpt><trkpt lat="44.641362394436385" lon="7.988930856831454"><ele>264.42857142857144</ele><time>2026-04-12T07:26:17.999Z</time></trkpt><trkpt lat="44.641344128738375" lon="7.98902169758263"><ele>264.0</ele><time>2026-04-12T07:26:21.999Z</time></trkpt><trkpt lat="44.641323680143664" lon="7.989115104816405"><ele>262.85714285714283</ele><time>2026-04-12T07:26:25.999Z</time></trkpt><trkpt lat="44.64130126109535" lon="7.989206582724372"><ele>261.7142857142857</ele><time>2026-04-12T07:26:29.999Z</time></trkpt><trkpt lat="44.64126885356931" lon="7.989298940948934"><ele>260.57142857142856</ele><time>2026-04-12T07:26:33.999Z</time></trkpt><trkpt lat="44.64123389056145" lon="7.989385302369145"><ele>259.42857142857144</ele><time>2026-04-12T07:26:37.999Z</time></trkpt><trkpt lat="44.64120374845027" lon="7.989473743888248"><ele>258.2857142857143</ele><time>2026-04-12T07:26:40.999Z</time></trkpt><trkpt lat="44.6411501301065" lon="7.989559311816185"><ele>257.1428571428571</ele><time>2026-04-12T07:26:44.999Z</time></trkpt><trkpt lat="44.64109615661608" lon="7.989616369811225"><ele>256.0</ele><time>2026-04-12T07:26:46.999Z</time></trkpt><trkpt lat="44.64101941754235" lon="7.989679850803533"><ele>256.8333333333333</ele><time>2026-04-12T07:26:49.999Z</time></trkpt><trkpt lat="44.64094202732281" lon="7.9897499954535975"><ele>257.66666666666663</ele><time>2026-04-12T07:26:52.999Z</time></trkpt><trkpt lat="44.64086195012577" lon="7.9897990603912366"><ele>258.5</ele><time>2026-04-12T07:26:55.999Z</time></trkpt><trkpt lat="44.64079800394506" lon="7.989846758781353"><ele>259.3333333333333</ele><time>2026-04-12T07:26:58.998Z</time></trkpt><trkpt lat="44.64073488411972" lon="7.98988851706472"><ele>260.1666666666667</ele><time>2026-04-12T07:27:00.998Z</time></trkpt><trkpt lat="44.640650332759364" lon="7.989955395397951"><ele>261.0</ele><time>2026-04-12T07:27:03.998Z</time></trkpt><trkpt lat="44.64058854443739" lon="7.990013533225997"><ele>261.0</ele><time>2026-04-12T07:27:05.998Z</time></trkpt><trkpt lat="44.64051589013388" lon="7.990067223291287"><ele>261.0</ele><time>2026-04-12T07:27:09Z</time></trkpt><trkpt lat="44.64045505164862" lon="7.990107373615335"><ele>261.0</ele><time>2026-04-12T07:27:11Z</time></trkpt><trkpt lat="44.64038181257212" lon="7.9901617736981265"><ele>261.0</ele><time>2026-04-12T07:27:14Z</time></trkpt><trkpt lat="44.64032360448336" lon="7.9902034835421185"><ele>261.0</ele><time>2026-04-12T07:27:16Z</time></trkpt><trkpt lat="44.64025616131243" lon="7.990256668513217"><ele>261.0</ele><time>2026-04-12T07:27:19Z</time></trkpt><trkpt lat="44.64017351992357" lon="7.990315967538469"><ele>263.7142857142857</ele><time>2026-04-12T07:27:22Z</time></trkpt><trkpt lat="44.64009478885225" lon="7.990370293361881"><ele>266.42857142857144</ele><time>2026-04-12T07:27:25Z</time></trkpt><trkpt lat="44.64003882874473" lon="7.990413774347431"><ele>269.1428571428571</ele><time>2026-04-12T07:27:27Z</time></trkpt><trkpt lat="44.639966446908296" lon="7.9904852954254295"><ele>271.8571428571429</ele><time>2026-04-12T07:27:30Z</time></trkpt><trkpt lat="44.639914996781954" lon="7.99053722813633"><ele>274.57142857142856</ele><time>2026-04-12T07:27:32Z</time></trkpt><trkpt lat="44.639857415816095" lon="7.990604645282276"><ele>277.2857142857143</ele><time>2026-04-12T07:27:35Z</time></trkpt><trkpt lat="44.6397966577717" lon="7.990655763123108"><ele>280.0</ele><time>2026-04-12T07:27:38Z</time></trkpt><trkpt lat="44.639713802126636" lon="7.990702366227859"><ele>280.0</ele><time>2026-04-12T07:27:41Z</time></trkpt><trkpt lat="44.63964234937729" lon="7.9907384255213145"><ele>280.0</ele><time>2026-04-12T07:27:45Z</time></trkpt><trkpt lat="44.63958589403999" lon="7.990677074065557"><ele>280.0</ele><time>2026-04-12T07:27:49Z</time></trkpt><trkpt lat="44.63953266454997" lon="7.990587973391498"><ele>280.0</ele><time>2026-04-12T07:27:53Z</time></trkpt><trkpt lat="44.6394239837435" lon="7.990615556408234"><ele>280.0</ele><time>2026-04-12T07:27:58Z</time></trkpt><trkpt lat="44.63937350478313" lon="7.990686160602207"><ele>280.0</ele><time>2026-04-12T07:28:00.999Z</time></trkpt><trkpt lat="44.63931649841917" lon="7.990749459145266"><ele>280.7142857142857</ele><time>2026-04-12T07:28:03.999Z</time></trkpt><trkpt lat="44.639257097667965" lon="7.990813465370001"><ele>281.42857142857144</ele><time>2026-04-12T07:28:06.999Z</time></trkpt><trkpt lat="44.63920476978142" lon="7.990881107509396"><ele>282.1428571428571</ele><time>2026-04-12T07:28:09.999Z</time></trkpt><trkpt lat="44.63916395785257" lon="7.990955377209973"><ele>282.8571428571429</ele><time>2026-04-12T07:28:12.999Z</time></trkpt><trkpt lat="44.639135265962494" lon="7.991042023292602"><ele>283.57142857142856</ele><time>2026-04-12T07:28:15.999Z</time></trkpt><trkpt lat="44.63909297900982" lon="7.991124827846921"><ele>284.2857142857143</ele><time>2026-04-12T07:28:18.999Z</time></trkpt><trkpt lat="44.63905217003669" lon="7.991213446544624"><ele>285.0</ele><time>2026-04-12T07:28:21.999Z</time></trkpt><trkpt lat="44.63901279540775" lon="7.991295824603482"><ele>286.0</ele><time>2026-04-12T07:28:24.999Z</time></trkpt><trkpt lat="44.638969951656776" lon="7.991384527169257"><ele>287.0</ele><time>2026-04-12T07:28:27.999Z</time></trkpt><trkpt lat="44.63893532431503" lon="7.991470225558089"><ele>288.0</ele><time>2026-04-12T07:28:30.999Z</time></trkpt><trkpt lat="44.6388947866478" lon="7.991557067009939"><ele>289.0</ele><time>2026-04-12T07:28:33.999Z</time></trkpt><trkpt lat="44.63885244897475" lon="7.991646334179271"><ele>290.0</ele><time>2026-04-12T07:28:36.999Z</time></trkpt><trkpt lat="44.63881716323555" lon="7.991719626695558"><ele>291.0</ele><time>2026-04-12T07:28:39.999Z</time></trkpt><trkpt lat="44.63877614616533" lon="7.991795362598896"><ele>292.0</ele><time>2026-04-12T07:28:42.999Z</time></trkpt><trkpt lat="44.63874317260041" lon="7.9918808582357785"><ele>292.0</ele><time>2026-04-12T07:28:45.999Z</time></trkpt><trkpt lat="44.63869238196713" lon="7.991971220674732"><ele>292.0</ele><time>2026-04-12T07:28:49.999Z</time></trkpt><trkpt lat="44.63865115437516" lon="7.992065560646297"><ele>292.0</ele><time>2026-04-12T07:28:53.999Z</time></trkpt><trkpt lat="44.638613606835115" lon="7.992140180771766"><ele>292.0</ele><time>2026-04-12T07:28:56.999Z</time></trkpt><trkpt lat="44.63857744309881" lon="7.99221650833453"><ele>292.0</ele><time>2026-04-12T07:28:59.999Z</time></trkpt><trkpt lat="44.63854351486777" lon="7.992298604534447"><ele>292.0</ele><time>2026-04-12T07:29:02.999Z</time></trkpt><trkpt lat="44.6385070605595" lon="7.992380578200934"><ele>292.0</ele><time>2026-04-12T07:29:08.999Z</time></trkpt><trkpt lat="44.638465020801924" lon="7.9924671098590725"><ele>291.4</ele><time>2026-04-12T07:30:38.999Z</time></trkpt><trkpt lat="44.63841956591243" lon="7.992533776976125"><ele>290.79999999999995</ele><time>2026-04-12T07:30:40.999Z</time></trkpt><trkpt lat="44.63835687603335" lon="7.992620220972761"><ele>290.2</ele><time>2026-04-12T07:30:42.999Z</time></trkpt><trkpt lat="44.63828742273771" lon="7.992716632589988"><ele>289.59999999999997</ele><time>2026-04-12T07:30:44.999Z</time></trkpt><trkpt lat="44.638213743936475" lon="7.992817936562614"><ele>289.0</ele><time>2026-04-12T07:30:46.999Z</time></trkpt><trkpt lat="44.63813496622025" lon="7.9929201409407415"><ele>289.0</ele><time>2026-04-12T07:30:48.999Z</time></trkpt><trkpt lat="44.63805413655652" lon="7.993020497540988"><ele>289.0</ele><time>2026-04-12T07:30:50.999Z</time></trkpt><trkpt lat="44.637983242032085" lon="7.9931170001842915"><ele>289.0</ele><time>2026-04-12T07:30:52.999Z</time></trkpt><trkpt lat="44.63792728575407" lon="7.993224167696318"><ele>289.0</ele><time>2026-04-12T07:30:54.999Z</time></trkpt><trkpt lat="44.63787607889294" lon="7.9933150842472855"><ele>289.0</ele><time>2026-04-12T07:30:56.999Z</time></trkpt><trkpt lat="44.637835029912644" lon="7.993396752135226"><ele>290.57142857142856</ele><time>2026-04-12T07:30:58.999Z</time></trkpt><trkpt lat="44.63778691867333" lon="7.993474476272541"><ele>292.1428571428571</ele><time>2026-04-12T07:31:00.999Z</time></trkpt><trkpt lat="44.637740504288395" lon="7.993550486659002"><ele>293.71428571428567</ele><time>2026-04-12T07:31:02.999Z</time></trkpt><trkpt lat="44.63769969570762" lon="7.993622511757405"><ele>295.2857142857143</ele><time>2026-04-12T07:31:04.999Z</time></trkpt><trkpt lat="44.63765887576819" lon="7.993695385166892"><ele>296.85714285714283</ele><time>2026-04-12T07:31:06.999Z</time></trkpt><trkpt lat="44.63761689887711" lon="7.9937769796110105"><ele>298.4285714285714</ele><time>2026-04-12T07:31:08.999Z</time></trkpt><trkpt lat="44.637579683465766" lon="7.993849975341555"><ele>300.0</ele><time>2026-04-12T07:31:10.998Z</time></trkpt><trkpt lat="44.63753446038397" lon="7.993936277352265"><ele>299.99999999999994</ele><time>2026-04-12T07:31:13.998Z</time></trkpt><trkpt lat="44.6374862860516" lon="7.994032535120764"><ele>300.0</ele><time>2026-04-12T07:31:16.998Z</time></trkpt><trkpt lat="44.63743859195405" lon="7.994113400689553"><ele>300.0</ele><time>2026-04-12T07:31:20Z</time></trkpt><trkpt lat="44.637393607889194" lon="7.994182809626955"><ele>300.0</ele><time>2026-04-12T07:31:23Z</time></trkpt><trkpt lat="44.637355738840725" lon="7.994258895404008"><ele>300.0</ele><time>2026-04-12T07:31:27Z</time></trkpt><trkpt lat="44.63733830917737" lon="7.994355883043919"><ele>299.99999999999994</ele><time>2026-04-12T07:31:31Z</time></trkpt><trkpt lat="44.63730246831068" lon="7.994455127389773"><ele>300.0</ele><time>2026-04-12T07:31:34Z</time></trkpt><trkpt lat="44.63725475506726" lon="7.9945462746734925"><ele>300.3333333333333</ele><time>2026-04-12T07:31:38Z</time></trkpt><trkpt lat="44.63720749737574" lon="7.9946243259461465"><ele>300.6666666666667</ele><time>2026-04-12T07:31:42Z</time></trkpt><trkpt lat="44.63714138964489" lon="7.9946931463713655"><ele>301.0</ele><time>2026-04-12T07:31:46Z</time></trkpt><trkpt lat="44.63708013623179" lon="7.994767860517947"><ele>301.33333333333337</ele><time>2026-04-12T07:31:50Z</time></trkpt><trkpt lat="44.63700941583131" lon="7.994824841263818"><ele>301.6666666666667</ele><time>2026-04-12T07:31:53Z</time></trkpt><trkpt lat="44.63694102346101" lon="7.994884541239692"><ele>302.0</ele><time>2026-04-12T07:31:56Z</time></trkpt><trkpt lat="44.63685866338978" lon="7.9949261890836345"><ele>302.6666666666667</ele><time>2026-04-12T07:31:59Z</time></trkpt><trkpt lat="44.636785713452205" lon="7.994924970076984"><ele>303.33333333333337</ele><time>2026-04-12T07:32:02Z</time></trkpt><trkpt lat="44.63671633693418" lon="7.9949738904027905"><ele>304.0</ele><time>2026-04-12T07:32:05Z</time></trkpt><trkpt lat="44.636632790508024" lon="7.995004718459203"><ele>304.6666666666667</ele><time>2026-04-12T07:32:07.999Z</time></trkpt><trkpt lat="44.636551225425045" lon="7.995002248555266"><ele>305.3333333333333</ele><time>2026-04-12T07:32:10.999Z</time></trkpt><trkpt lat="44.63646665266457" lon="7.995024149540877"><ele>306.0</ele><time>2026-04-12T07:32:13.999Z</time></trkpt><trkpt lat="44.63638926779581" lon="7.995053028017466"><ele>306.1428571428571</ele><time>2026-04-12T07:32:16.999Z</time></trkpt><trkpt lat="44.63631494041455" lon="7.995082613522513"><ele>306.2857142857143</ele><time>2026-04-12T07:32:19.999Z</time></trkpt><trkpt lat="44.63624099979245" lon="7.995112489988938"><ele>306.42857142857144</ele><time>2026-04-12T07:32:22.999Z</time></trkpt><trkpt lat="44.63615925870955" lon="7.995143039545832"><ele>306.57142857142856</ele><time>2026-04-12T07:32:26.999Z</time></trkpt><trkpt lat="44.63609179210524" lon="7.99516331214016"><ele>306.7142857142857</ele><time>2026-04-12T07:32:30.999Z</time></trkpt><trkpt lat="44.636023369559034" lon="7.995179933972243"><ele>306.85714285714283</ele><time>2026-04-12T07:32:35.999Z</time></trkpt><trkpt lat="44.63595529686325" lon="7.995195106674253"><ele>307.0</ele><time>2026-04-12T07:32:42.999Z</time></trkpt><trkpt lat="44.635888618131474" lon="7.995136048452164"><ele>306.99999999999994</ele><time>2026-04-12T07:32:47.999Z</time></trkpt><trkpt lat="44.63582841598836" lon="7.995083177799257"><ele>307.0</ele><time>2026-04-12T07:32:50.999Z</time></trkpt><trkpt lat="44.63575906075409" lon="7.995055656774711"><ele>307.0</ele><time>2026-04-12T07:32:53.999Z</time></trkpt><trkpt lat="44.63567736582707" lon="7.994990067720128"><ele>307.0</ele><time>2026-04-12T07:32:56.999Z</time></trkpt><trkpt lat="44.63562104685612" lon="7.994948420959559"><ele>307.0</ele><time>2026-04-12T07:32:58.999Z</time></trkpt><trkpt lat="44.63556764121148" lon="7.994897629002379"><ele>306.99999999999994</ele><time>2026-04-12T07:33:00.999Z</time></trkpt><trkpt lat="44.635523544343236" lon="7.994827943363215"><ele>307.0</ele><time>2026-04-12T07:33:02.999Z</time></trkpt><trkpt lat="44.635472471505906" lon="7.994763393889201"><ele>307.66666666666663</ele><time>2026-04-12T07:33:04.999Z</time></trkpt><trkpt lat="44.63542419489693" lon="7.994691456625089"><ele>308.3333333333333</ele><time>2026-04-12T07:33:06.999Z</time></trkpt><trkpt lat="44.635381223711555" lon="7.994615449442284"><ele>309.0</ele><time>2026-04-12T07:33:08.999Z</time></trkpt><trkpt lat="44.635338861135345" lon="7.994526719898769"><ele>309.6666666666667</ele><time>2026-04-12T07:33:10.999Z</time></trkpt><trkpt lat="44.635296680916106" lon="7.994435211197861"><ele>310.33333333333337</ele><time>2026-04-12T07:33:12.999Z</time></trkpt><trkpt lat="44.635239240615526" lon="7.994356640324449"><ele>311.0</ele><time>2026-04-12T07:33:14.999Z</time></trkpt><trkpt lat="44.6352005935127" lon="7.994262684122859"><ele>311.0</ele><time>2026-04-12T07:33:16.999Z</time></trkpt><trkpt lat="44.63514806126665" lon="7.994182062714617"><ele>311.0</ele><time>2026-04-12T07:33:18.998Z</time></trkpt><trkpt lat="44.63508707718369" lon="7.994091808052532"><ele>311.0</ele><time>2026-04-12T07:33:20.998Z</time></trkpt><trkpt lat="44.634995101015974" lon="7.994036410238326"><ele>311.0</ele><time>2026-04-12T07:33:22.998Z</time></trkpt><trkpt lat="44.63488498696939" lon="7.993997637141192"><ele>311.0</ele><time>2026-04-12T07:33:25Z</time></trkpt><trkpt lat="44.6347697039247" lon="7.993957284593955"><ele>311.0</ele><time>2026-04-12T07:33:27Z</time></trkpt><trkpt lat="44.63464893511945" lon="7.993915611439398"><ele>311.0</ele><time>2026-04-12T07:33:29Z</time></trkpt><trkpt lat="44.63453576007077" lon="7.993852860343527"><ele>311.0</ele><time>2026-04-12T07:33:31Z</time></trkpt><trkpt lat="44.63442621967964" lon="7.993796897889715"><ele>311.0</ele><time>2026-04-12T07:33:33Z</time></trkpt><trkpt lat="44.634329312924194" lon="7.993728683286458"><ele>310.0</ele><time>2026-04-12T07:33:35Z</time></trkpt><trkpt lat="44.634243974277915" lon="7.993657530890031"><ele>309.0</ele><time>2026-04-12T07:33:37Z</time></trkpt><trkpt lat="44.634162022905784" lon="7.993581993782547"><ele>308.0</ele><time>2026-04-12T07:33:39Z</time></trkpt><trkpt lat="44.63407231631933" lon="7.993520533619412"><ele>307.0</ele><time>2026-04-12T07:33:41Z</time></trkpt><trkpt lat="44.63400719084428" lon="7.993424437476772"><ele>306.0</ele><time>2026-04-12T07:33:43Z</time></trkpt><trkpt lat="44.63392652340977" lon="7.9933669173630575"><ele>306.3333333333333</ele><time>2026-04-12T07:33:45Z</time></trkpt><trkpt lat="44.63387132524399" lon="7.993283993747224"><ele>306.6666666666667</ele><time>2026-04-12T07:33:47Z</time></trkpt><trkpt lat="44.63379972903446" lon="7.993240264217405"><ele>307.0</ele><time>2026-04-12T07:33:49Z</time></trkpt><trkpt lat="44.63374505023733" lon="7.9931800426324955"><ele>307.33333333333337</ele><time>2026-04-12T07:33:51Z</time></trkpt><trkpt lat="44.63368642654802" lon="7.993131536418017"><ele>307.6666666666667</ele><time>2026-04-12T07:33:53Z</time></trkpt><trkpt lat="44.63363721530938" lon="7.99306437485782"><ele>308.0</ele><time>2026-04-12T07:33:55Z</time></trkpt><trkpt lat="44.63356244145662" lon="7.993008736340062"><ele>308.0</ele><time>2026-04-12T07:33:59Z</time></trkpt><trkpt lat="44.63347904939328" lon="7.992970418752767"><ele>308.0</ele><time>2026-04-12T07:34:02Z</time></trkpt><trkpt lat="44.63339078374405" lon="7.992911348834662"><ele>308.0</ele><time>2026-04-12T07:34:05Z</time></trkpt><trkpt lat="44.63332657800416" lon="7.992865600168041"><ele>308.0</ele><time>2026-04-12T07:34:07Z</time></trkpt><trkpt lat="44.63326353516384" lon="7.9928061988495385"><ele>308.0</ele><time>2026-04-12T07:34:09Z</time></trkpt><trkpt lat="44.633198175281315" lon="7.9927698794956115"><ele>308.0</ele><time>2026-04-12T07:34:11Z</time></trkpt><trkpt lat="44.63311507866428" lon="7.992738876381867"><ele>308.0</ele><time>2026-04-12T07:34:13Z</time></trkpt><trkpt lat="44.633036123454346" lon="7.99274713179623"><ele>308.0</ele><time>2026-04-12T07:34:15Z</time></trkpt><trkpt lat="44.63296856343854" lon="7.99275429538272"><ele>308.0</ele><time>2026-04-12T07:34:16.999Z</time></trkpt><trkpt lat="44.63287257598625" lon="7.992777339451359"><ele>308.0</ele><time>2026-04-12T07:34:20.999Z</time></trkpt><trkpt lat="44.632762619990466" lon="7.992767084729975"><ele>308.0</ele><time>2026-04-12T07:34:22.999Z</time></trkpt><trkpt lat="44.632671315799634" lon="7.992758947123059"><ele>308.0</ele><time>2026-04-12T07:34:24.999Z</time></trkpt><trkpt lat="44.63257481776377" lon="7.992739378672984"><ele>307.14285714285717</ele><time>2026-04-12T07:34:26.999Z</time></trkpt><trkpt lat="44.6325053133516" lon="7.992739469934921"><ele>306.2857142857143</ele><time>2026-04-12T07:34:27.999Z</time></trkpt><trkpt lat="44.632428947018965" lon="7.992713363337089"><ele>305.42857142857144</ele><time>2026-04-12T07:34:28.999Z</time></trkpt><trkpt lat="44.63235541185668" lon="7.992686514186696"><ele>304.57142857142856</ele><time>2026-04-12T07:34:29.999Z</time></trkpt><trkpt lat="44.63229011294198" lon="7.992655728858002"><ele>303.7142857142857</ele><time>2026-04-12T07:34:30.999Z</time></trkpt><trkpt lat="44.632223784464486" lon="7.992638475684563"><ele>302.8571428571429</ele><time>2026-04-12T07:34:31.999Z</time></trkpt><trkpt lat="44.63215963347527" lon="7.992605229738084"><ele>302.0</ele><time>2026-04-12T07:34:32.999Z</time></trkpt><trkpt lat="44.63205058385966" lon="7.992555976607098"><ele>301.6</ele><time>2026-04-12T07:34:34.999Z</time></trkpt><trkpt lat="44.63194265808197" lon="7.992499966774653"><ele>301.2</ele><time>2026-04-12T07:34:36.999Z</time></trkpt><trkpt lat="44.63188132574845" lon="7.992389470465036"><ele>300.8</ele><time>2026-04-12T07:34:38.999Z</time></trkpt><trkpt lat="44.631788609561006" lon="7.992398949059518"><ele>300.4</ele><time>2026-04-12T07:34:39.999Z</time></trkpt><trkpt lat="44.63169799713979" lon="7.992338228541854"><ele>300.0</ele><time>2026-04-12T07:34:41.999Z</time></trkpt><trkpt lat="44.631627057779916" lon="7.992280788872926"><ele>300.0</ele><time>2026-04-12T07:34:43.999Z</time></trkpt><trkpt lat="44.63153961307064" lon="7.992203470382101"><ele>300.0</ele><time>2026-04-12T07:34:45.999Z</time></trkpt><trkpt lat="44.63145598311306" lon="7.992138882333825"><ele>300.0</ele><time>2026-04-12T07:34:47.999Z</time></trkpt><trkpt lat="44.63137880729745" lon="7.992079259339623"><ele>300.0</ele><time>2026-04-12T07:34:49.999Z</time></trkpt><trkpt lat="44.63130055438114" lon="7.99201997565671"><ele>300.0</ele><time>2026-04-12T07:34:51.999Z</time></trkpt><trkpt lat="44.631224952771845" lon="7.991966821259187"><ele>300.0</ele><time>2026-04-12T07:34:53.999Z</time></trkpt><trkpt lat="44.63114353049433" lon="7.99190688559516"><ele>300.0</ele><time>2026-04-12T07:34:55.999Z</time></trkpt><trkpt lat="44.631067861521224" lon="7.991847081699995"><ele>300.0</ele><time>2026-04-12T07:34:57.999Z</time></trkpt><trkpt lat="44.63098852601215" lon="7.991803199284216"><ele>300.0</ele><time>2026-04-12T07:34:59.999Z</time></trkpt><trkpt lat="44.630904667101134" lon="7.99177579586194"><ele>300.0</ele><time>2026-04-12T07:35:01.999Z</time></trkpt><trkpt lat="44.630822207792995" lon="7.991757200535736"><ele>300.0</ele><time>2026-04-12T07:35:03.999Z</time></trkpt><trkpt lat="44.63073963878371" lon="7.991749675603771"><ele>299.71428571428567</ele><time>2026-04-12T07:35:05.999Z</time></trkpt><trkpt lat="44.63066796496976" lon="7.991762404885378"><ele>299.42857142857144</ele><time>2026-04-12T07:35:07.999Z</time></trkpt><trkpt lat="44.630591876364385" lon="7.991773775253648"><ele>299.1428571428571</ele><time>2026-04-12T07:35:09.999Z</time></trkpt><trkpt lat="44.630522796398814" lon="7.991786434956445"><ele>298.85714285714283</ele><time>2026-04-12T07:35:11.999Z</time></trkpt><trkpt lat="44.63045534723306" lon="7.991804005960468"><ele>298.57142857142856</ele><time>2026-04-12T07:35:13.999Z</time></trkpt><trkpt lat="44.63039020920391" lon="7.991824293885363"><ele>298.2857142857143</ele><time>2026-04-12T07:35:15.999Z</time></trkpt><trkpt lat="44.63032474605032" lon="7.991842759018224"><ele>298.0</ele><time>2026-04-12T07:35:17.999Z</time></trkpt><trkpt lat="44.63025910607476" lon="7.991860880052614"><ele>299.3333333333333</ele><time>2026-04-12T07:35:19.999Z</time></trkpt><trkpt lat="44.630163992097835" lon="7.991884968611393"><ele>300.66666666666663</ele><time>2026-04-12T07:35:22.999Z</time></trkpt><trkpt lat="44.630096984310455" lon="7.9918990585612875"><ele>302.0</ele><time>2026-04-12T07:35:24.999Z</time></trkpt><trkpt lat="44.63003261958511" lon="7.991911660396248"><ele>303.3333333333333</ele><time>2026-04-12T07:35:26.999Z</time></trkpt><trkpt lat="44.629938470230776" lon="7.991920708690956"><ele>304.6666666666667</ele><time>2026-04-12T07:35:29.998Z</time></trkpt><trkpt lat="44.629849942037005" lon="7.991970154106079"><ele>306.0</ele><time>2026-04-12T07:35:33Z</time></trkpt><trkpt lat="44.62978605944709" lon="7.9919761758490635"><ele>306.0</ele><time>2026-04-12T07:35:35Z</time></trkpt><trkpt lat="44.62972100816068" lon="7.991989633578423"><ele>306.0</ele><time>2026-04-12T07:35:37Z</time></trkpt><trkpt lat="44.62965238783936" lon="7.992008201962565"><ele>306.0</ele><time>2026-04-12T07:35:39Z</time></trkpt><trkpt lat="44.62958222187216" lon="7.992016532874153"><ele>306.0</ele><time>2026-04-12T07:35:41Z</time></trkpt><trkpt lat="44.6295096996641" lon="7.992029349814735"><ele>306.0</ele><time>2026-04-12T07:35:43Z</time></trkpt><trkpt lat="44.62944301086235" lon="7.992037990254675"><ele>306.0</ele><time>2026-04-12T07:35:45Z</time></trkpt><trkpt lat="44.62936421259215" lon="7.992033733987739"><ele>306.0</ele><time>2026-04-12T07:35:47Z</time></trkpt><trkpt lat="44.629284908322546" lon="7.992042406277775"><ele>306.7142857142857</ele><time>2026-04-12T07:35:49Z</time></trkpt><trkpt lat="44.62920758653002" lon="7.99205642605955"><ele>307.42857142857144</ele><time>2026-04-12T07:35:51Z</time></trkpt><trkpt lat="44.629132117071734" lon="7.992061520000241"><ele>308.1428571428571</ele><time>2026-04-12T07:35:53Z</time></trkpt><trkpt lat="44.62906264353261" lon="7.992075914549785"><ele>308.8571428571429</ele><time>2026-04-12T07:35:55Z</time></trkpt><trkpt lat="44.62898810577381" lon="7.992091503920562"><ele>309.5714285714286</ele><time>2026-04-12T07:35:57Z</time></trkpt><trkpt lat="44.628916032069434" lon="7.992094142572004"><ele>310.2857142857143</ele><time>2026-04-12T07:35:59Z</time></trkpt><trkpt lat="44.62885230339262" lon="7.992107121881165"><ele>311.0</ele><time>2026-04-12T07:36:01Z</time></trkpt><trkpt lat="44.62878482980046" lon="7.992129077146807"><ele>311.0</ele><time>2026-04-12T07:36:03Z</time></trkpt><trkpt lat="44.62870041769268" lon="7.992156572666643"><ele>311.0</ele><time>2026-04-12T07:36:05Z</time></trkpt><trkpt lat="44.628633423865445" lon="7.992186217870514"><ele>311.0</ele><time>2026-04-12T07:36:07Z</time></trkpt><trkpt lat="44.62857515260158" lon="7.9922243871524286"><ele>311.0</ele><time>2026-04-12T07:36:09Z</time></trkpt><trkpt lat="44.628512267519405" lon="7.992256145714089"><ele>311.0</ele><time>2026-04-12T07:36:11Z</time></trkpt><trkpt lat="44.628446261703694" lon="7.992280359875839"><ele>311.0</ele><time>2026-04-12T07:36:13Z</time></trkpt><trkpt lat="44.62838527105478" lon="7.992318372082814"><ele>311.0</ele><time>2026-04-12T07:36:15Z</time></trkpt><trkpt lat="44.62830266368131" lon="7.992371853904767"><ele>311.85714285714283</ele><time>2026-04-12T07:36:18Z</time></trkpt><trkpt lat="44.628246212372446" lon="7.992413929768157"><ele>312.7142857142857</ele><time>2026-04-12T07:36:20Z</time></trkpt><trkpt lat="44.6281676924961" lon="7.992470083673229"><ele>313.57142857142856</ele><time>2026-04-12T07:36:22.999Z</time></trkpt><trkpt lat="44.62810222174487" lon="7.992510449525526"><ele>314.42857142857144</ele><time>2026-04-12T07:36:24.999Z</time></trkpt><trkpt lat="44.62804376885508" lon="7.9925474003835175"><ele>315.2857142857143</ele><time>2026-04-12T07:36:26.999Z</time></trkpt><trkpt lat="44.627984277395626" lon="7.992590112688857"><ele>316.14285714285717</ele><time>2026-04-12T07:36:28.999Z</time></trkpt><trkpt lat="44.62790277954678" lon="7.992640746840717"><ele>317.0</ele><time>2026-04-12T07:36:31.999Z</time></trkpt><trkpt lat="44.62783814859098" lon="7.992702130601042"><ele>319.0</ele><time>2026-04-12T07:36:34.999Z</time></trkpt><trkpt lat="44.627773555130034" lon="7.992748855684661"><ele>321.0</ele><time>2026-04-12T07:36:36.999Z</time></trkpt><trkpt lat="44.62770232049403" lon="7.992786592949956"><ele>323.0</ele><time>2026-04-12T07:36:38.999Z</time></trkpt><trkpt lat="44.62763968504493" lon="7.992824468508327"><ele>325.0</ele><time>2026-04-12T07:36:40.999Z</time></trkpt><trkpt lat="44.6275579069943" lon="7.992885096267393"><ele>327.0</ele><time>2026-04-12T07:36:43.999Z</time></trkpt><trkpt lat="44.62750103135" lon="7.992924925827698"><ele>329.0</ele><time>2026-04-12T07:36:45.999Z</time></trkpt><trkpt lat="44.627437763096204" lon="7.992982031739725"><ele>331.0</ele><time>2026-04-12T07:36:48.999Z</time></trkpt><trkpt lat="44.62737992312976" lon="7.993034305787552"><ele>331.0</ele><time>2026-04-12T07:36:50.999Z</time></trkpt><trkpt lat="44.62732375590934" lon="7.9930897418702775"><ele>331.0</ele><time>2026-04-12T07:36:52.999Z</time></trkpt><trkpt lat="44.62724002088871" lon="7.9931724387563685"><ele>331.0</ele><time>2026-04-12T07:36:55.999Z</time></trkpt><trkpt lat="44.6271853554699" lon="7.993269443438638"><ele>331.0</ele><time>2026-04-12T07:36:57.999Z</time></trkpt><trkpt lat="44.627121100549346" lon="7.993388741294145"><ele>331.0</ele><time>2026-04-12T07:37:00.999Z</time></trkpt><trkpt lat="44.627089469454646" lon="7.99347316777187"><ele>331.0</ele><time>2026-04-12T07:37:02.999Z</time></trkpt><trkpt lat="44.627050027567755" lon="7.99355256167216"><ele>331.7142857142857</ele><time>2026-04-12T07:37:04.999Z</time></trkpt><trkpt lat="44.62702340269078" lon="7.993635877545353"><ele>332.42857142857144</ele><time>2026-04-12T07:37:06.999Z</time></trkpt><trkpt lat="44.62697552706748" lon="7.993709015749616"><ele>333.1428571428571</ele><time>2026-04-12T07:37:08.999Z</time></trkpt><trkpt lat="44.62693774083649" lon="7.993788482231332"><ele>333.8571428571429</ele><time>2026-04-12T07:37:10.999Z</time></trkpt><trkpt lat="44.62690788870643" lon="7.9938762060050745"><ele>334.57142857142856</ele><time>2026-04-12T07:37:12.999Z</time></trkpt><trkpt lat="44.62685798962342" lon="7.993979537232938"><ele>335.2857142857143</ele><time>2026-04-12T07:37:15.999Z</time></trkpt><trkpt lat="44.62682172373652" lon="7.99405289089667"><ele>336.0</ele><time>2026-04-12T07:37:17.999Z</time></trkpt><trkpt lat="44.62676107946836" lon="7.994138281823544"><ele>336.85714285714283</ele><time>2026-04-12T07:37:20.999Z</time></trkpt><trkpt lat="44.6267272015278" lon="7.994218668665936"><ele>337.7142857142857</ele><time>2026-04-12T07:37:22.999Z</time></trkpt><trkpt lat="44.626691617993906" lon="7.994292313463666"><ele>338.57142857142856</ele><time>2026-04-12T07:37:24.999Z</time></trkpt><trkpt lat="44.62663761947191" lon="7.9943964270695105"><ele>339.42857142857144</ele><time>2026-04-12T07:37:27.999Z</time></trkpt><trkpt lat="44.626609389516325" lon="7.994477302620194"><ele>340.2857142857143</ele><time>2026-04-12T07:37:29.999Z</time></trkpt><trkpt lat="44.62657283949811" lon="7.994555707657644"><ele>341.1428571428571</ele><time>2026-04-12T07:37:31.999Z</time></trkpt><trkpt lat="44.62654072084946" lon="7.994639875969213"><ele>342.0</ele><time>2026-04-12T07:37:33.998Z</time></trkpt><trkpt lat="44.62649732436252" lon="7.994769614437001"><ele>342.0</ele><time>2026-04-12T07:37:37Z</time></trkpt><trkpt lat="44.62646172341883" lon="7.994868917058372"><ele>342.0</ele><time>2026-04-12T07:37:39Z</time></trkpt><trkpt lat="44.62644058081996" lon="7.994983565102045"><ele>342.0</ele><time>2026-04-12T07:37:41Z</time></trkpt><trkpt lat="44.626413780341096" lon="7.995093067914512"><ele>342.0</ele><time>2026-04-12T07:37:43Z</time></trkpt><trkpt lat="44.626383369435196" lon="7.995198319209967"><ele>342.0</ele><time>2026-04-12T07:37:45Z</time></trkpt><trkpt lat="44.62636090063705" lon="7.995303152217762"><ele>342.0</ele><time>2026-04-12T07:37:47Z</time></trkpt><trkpt lat="44.62633344436604" lon="7.995413880692638"><ele>343.6666666666667</ele><time>2026-04-12T07:37:49Z</time></trkpt><trkpt lat="44.62630227390644" lon="7.995518171244728"><ele>345.3333333333333</ele><time>2026-04-12T07:37:51Z</time></trkpt><trkpt lat="44.62627491427895" lon="7.995624186612019"><ele>347.0</ele><time>2026-04-12T07:37:53Z</time></trkpt><trkpt lat="44.62624791995835" lon="7.995726964137446"><ele>348.66666666666663</ele><time>2026-04-12T07:37:55Z</time></trkpt><trkpt lat="44.626218195582126" lon="7.995829356422486"><ele>350.3333333333333</ele><time>2026-04-12T07:37:57Z</time></trkpt><trkpt lat="44.62618873364234" lon="7.995936766158618"><ele>352.0</ele><time>2026-04-12T07:37:59Z</time></trkpt><trkpt lat="44.62615039947121" lon="7.996032426157953"><ele>352.8333333333333</ele><time>2026-04-12T07:38:01Z</time></trkpt><trkpt lat="44.62609648689335" lon="7.996128873130942"><ele>353.66666666666663</ele><time>2026-04-12T07:38:03Z</time></trkpt><trkpt lat="44.6260238584538" lon="7.996192343557321"><ele>354.5</ele><time>2026-04-12T07:38:05Z</time></trkpt><trkpt lat="44.6259447895871" lon="7.996223559736344"><ele>355.3333333333333</ele><time>2026-04-12T07:38:07Z</time></trkpt><trkpt lat="44.625862376889216" lon="7.996221151620477"><ele>356.1666666666667</ele><time>2026-04-12T07:38:09Z</time></trkpt><trkpt lat="44.62578175583878" lon="7.996199546859206"><ele>357.0</ele><time>2026-04-12T07:38:11Z</time></trkpt><trkpt lat="44.62569643600678" lon="7.996171397616269"><ele>357.0</ele><time>2026-04-12T07:38:13Z</time></trkpt><trkpt lat="44.625615135088395" lon="7.996147709428053"><ele>357.0</ele><time>2026-04-12T07:38:15Z</time></trkpt><trkpt lat="44.62553746341372" lon="7.996125446222866"><ele>357.0</ele><time>2026-04-12T07:38:17Z</time></trkpt><trkpt lat="44.62546531650685" lon="7.996104713407806"><ele>357.0</ele><time>2026-04-12T07:38:19Z</time></trkpt><trkpt lat="44.62539081669988" lon="7.996077706883"><ele>357.0</ele><time>2026-04-12T07:38:21Z</time></trkpt><trkpt lat="44.625311068965274" lon="7.996056543655087"><ele>357.0</ele><time>2026-04-12T07:38:23Z</time></trkpt><trkpt lat="44.625228423112475" lon="7.996031564665355"><ele>358.1666666666667</ele><time>2026-04-12T07:38:25Z</time></trkpt><trkpt lat="44.62514360416182" lon="7.996011674990875"><ele>359.3333333333333</ele><time>2026-04-12T07:38:27Z</time></trkpt><trkpt lat="44.62506013950772" lon="7.995989634416015"><ele>360.5</ele><time>2026-04-12T07:38:28.999Z</time></trkpt><trkpt lat="44.62497053537513" lon="7.995966022808409"><ele>361.66666666666663</ele><time>2026-04-12T07:38:30.999Z</time></trkpt><trkpt lat="44.62487894559707" lon="7.9959329175066305"><ele>362.8333333333333</ele><time>2026-04-12T07:38:32.999Z</time></trkpt><trkpt lat="44.62479113251182" lon="7.995903676561483"><ele>364.0</ele><time>2026-04-12T07:38:34.999Z</time></trkpt><trkpt lat="44.62470524099491" lon="7.995874469764613"><ele>362.8333333333333</ele><time>2026-04-12T07:38:36.999Z</time></trkpt><trkpt lat="44.6246328822823" lon="7.995833673756922"><ele>361.66666666666663</ele><time>2026-04-12T07:38:38.999Z</time></trkpt><trkpt lat="44.62454744076746" lon="7.99578793148062"><ele>360.5</ele><time>2026-04-12T07:38:40.999Z</time></trkpt><trkpt lat="44.624473541826845" lon="7.995740283228973"><ele>359.3333333333333</ele><time>2026-04-12T07:38:42.999Z</time></trkpt><trkpt lat="44.62439527470076" lon="7.9956852238629015"><ele>358.1666666666667</ele><time>2026-04-12T07:38:44.999Z</time></trkpt><trkpt lat="44.624308986211716" lon="7.995620857630762"><ele>357.0</ele><time>2026-04-12T07:38:46.999Z</time></trkpt><trkpt lat="44.6242229429166" lon="7.99555000951152"><ele>357.0</ele><time>2026-04-12T07:38:48.999Z</time></trkpt><trkpt lat="44.624144092131246" lon="7.995481369230393"><ele>357.0</ele><time>2026-04-12T07:38:50.999Z</time></trkpt><trkpt lat="44.624067301482164" lon="7.9954140429574325"><ele>357.0</ele><time>2026-04-12T07:38:52.999Z</time></trkpt><trkpt lat="44.62398142682159" lon="7.995341131101701"><ele>357.0</ele><time>2026-04-12T07:38:54.999Z</time></trkpt><trkpt lat="44.623895779744785" lon="7.995272653127978"><ele>357.0</ele><time>2026-04-12T07:38:56.999Z</time></trkpt><trkpt lat="44.623813581027626" lon="7.995201343365134"><ele>357.0</ele><time>2026-04-12T07:38:58.999Z</time></trkpt><trkpt lat="44.62373196915586" lon="7.995137902279131"><ele>357.0</ele><time>2026-04-12T07:39:00.999Z</time></trkpt><trkpt lat="44.62365447327696" lon="7.995070893054631"><ele>357.0</ele><time>2026-04-12T07:39:02.999Z</time></trkpt><trkpt lat="44.62357296984434" lon="7.995007772532168"><ele>357.0</ele><time>2026-04-12T07:39:04.999Z</time></trkpt><trkpt lat="44.62349412296001" lon="7.9949481389344115"><ele>357.0</ele><time>2026-04-12T07:39:06.999Z</time></trkpt><trkpt lat="44.623415785522766" lon="7.994883313262991"><ele>356.20000000000005</ele><time>2026-04-12T07:39:08.999Z</time></trkpt><trkpt lat="44.62333585642592" lon="7.994815484003797"><ele>355.4</ele><time>2026-04-12T07:39:10.999Z</time></trkpt><trkpt lat="44.62325937497332" lon="7.9947522892138085"><ele>354.6</ele><time>2026-04-12T07:39:12.999Z</time></trkpt><trkpt lat="44.62318319328875" lon="7.99469356876766"><ele>353.79999999999995</ele><time>2026-04-12T07:39:14.999Z</time></trkpt><trkpt lat="44.6231020794604" lon="7.994635483705236"><ele>353.0</ele><time>2026-04-12T07:39:16.999Z</time></trkpt><trkpt lat="44.62301630014806" lon="7.994584224529801"><ele>353.0</ele><time>2026-04-12T07:39:18.999Z</time></trkpt><trkpt lat="44.62292780713173" lon="7.9945512003374235"><ele>353.0</ele><time>2026-04-12T07:39:20.999Z</time></trkpt><trkpt lat="44.62283456754475" lon="7.9945315193267845"><ele>353.0</ele><time>2026-04-12T07:39:22.999Z</time></trkpt><trkpt lat="44.62274194613077" lon="7.994517435165612"><ele>353.0</ele><time>2026-04-12T07:39:24.999Z</time></trkpt><trkpt lat="44.62264954057519" lon="7.994516347250871"><ele>353.0</ele><time>2026-04-12T07:39:26.999Z</time></trkpt><trkpt lat="44.62255528391498" lon="7.994525116052345"><ele>354.59999999999997</ele><time>2026-04-12T07:39:28.999Z</time></trkpt><trkpt lat="44.62246355243908" lon="7.994545246002936"><ele>356.2</ele><time>2026-04-12T07:39:30.999Z</time></trkpt><trkpt lat="44.62237570697763" lon="7.994583922597139"><ele>357.8</ele><time>2026-04-12T07:39:32.999Z</time></trkpt><trkpt lat="44.622293409909865" lon="7.99463501546307"><ele>359.4</ele><time>2026-04-12T07:39:34.999Z</time></trkpt><trkpt lat="44.622208153991856" lon="7.994686836500985"><ele>361.0</ele><time>2026-04-12T07:39:36.999Z</time></trkpt><trkpt lat="44.62212663933273" lon="7.9947429546396105"><ele>361.0</ele><time>2026-04-12T07:39:38.999Z</time></trkpt><trkpt lat="44.62204634534954" lon="7.99479940272048"><ele>361.0</ele><time>2026-04-12T07:39:40.999Z</time></trkpt><trkpt lat="44.621963877771016" lon="7.994857266119667"><ele>361.0</ele><time>2026-04-12T07:39:43Z</time></trkpt><trkpt lat="44.6218778650095" lon="7.994917831508047"><ele>361.0</ele><time>2026-04-12T07:39:45Z</time></trkpt><trkpt lat="44.62178900663652" lon="7.99497540040852"><ele>361.0</ele><time>2026-04-12T07:39:47Z</time></trkpt><trkpt lat="44.621701868565424" lon="7.995032884483365"><ele>359.0</ele><time>2026-04-12T07:39:49Z</time></trkpt><trkpt lat="44.62161289997422" lon="7.9950944991086565"><ele>357.0</ele><time>2026-04-12T07:39:51Z</time></trkpt><trkpt lat="44.62152071978334" lon="7.995158241175732"><ele>355.0</ele><time>2026-04-12T07:39:53Z</time></trkpt><trkpt lat="44.621423527430046" lon="7.9952176188907815"><ele>353.0</ele><time>2026-04-12T07:39:55Z</time></trkpt><trkpt lat="44.6213255573997" lon="7.99527634105201"><ele>351.0</ele><time>2026-04-12T07:39:57Z</time></trkpt><trkpt lat="44.6212294607936" lon="7.995320767895169"><ele>352.20000000000005</ele><time>2026-04-12T07:39:59Z</time></trkpt><trkpt lat="44.62112938338558" lon="7.9953654645638625"><ele>353.40000000000003</ele><time>2026-04-12T07:40:01Z</time></trkpt><trkpt lat="44.621028026108526" lon="7.995391401665567"><ele>354.6</ele><time>2026-04-12T07:40:03Z</time></trkpt><trkpt lat="44.6209300940324" lon="7.9954041095299795"><ele>355.8</ele><time>2026-04-12T07:40:05Z</time></trkpt><trkpt lat="44.620838973502316" lon="7.995410852751996"><ele>357.0</ele><time>2026-04-12T07:40:07Z</time></trkpt><trkpt lat="44.62075331192649" lon="7.995402737106956"><ele>357.0</ele><time>2026-04-12T07:40:09Z</time></trkpt><trkpt lat="44.62067314863387" lon="7.995393780764938"><ele>357.0</ele><time>2026-04-12T07:40:11Z</time></trkpt><trkpt lat="44.6205945063043" lon="7.9953860649318065"><ele>357.0</ele><time>2026-04-12T07:40:13Z</time></trkpt><trkpt lat="44.62052311512546" lon="7.995381957810536"><ele>357.0</ele><time>2026-04-12T07:40:15Z</time></trkpt><trkpt lat="44.620447061823775" lon="7.995384739878311"><ele>357.0</ele><time>2026-04-12T07:40:17Z</time></trkpt><trkpt lat="44.620368182488086" lon="7.995389125711943"><ele>357.0</ele><time>2026-04-12T07:40:19Z</time></trkpt><trkpt lat="44.62029508091046" lon="7.99539475101458"><ele>358.14285714285717</ele><time>2026-04-12T07:40:21Z</time></trkpt><trkpt lat="44.62021980860708" lon="7.995408451468293"><ele>359.2857142857143</ele><time>2026-04-12T07:40:23Z</time></trkpt><trkpt lat="44.62014007233815" lon="7.9954288038837795"><ele>360.42857142857144</ele><time>2026-04-12T07:40:25Z</time></trkpt><trkpt lat="44.62007137734464" lon="7.995436490899649"><ele>361.57142857142856</ele><time>2026-04-12T07:40:27Z</time></trkpt><trkpt lat="44.61999646149823" lon="7.995448681455674"><ele>362.7142857142857</ele><time>2026-04-12T07:40:29Z</time></trkpt><trkpt lat="44.619926125592116" lon="7.9954656644945645"><ele>363.8571428571429</ele><time>2026-04-12T07:40:31Z</time></trkpt><trkpt lat="44.61985363630165" lon="7.995478448413303"><ele>365.0</ele><time>2026-04-12T07:40:33Z</time></trkpt><trkpt lat="44.61979010579789" lon="7.995494973385852"><ele>365.0</ele><time>2026-04-12T07:40:34.999Z</time></trkpt><trkpt lat="44.619722104256184" lon="7.995510233044445"><ele>365.0</ele><time>2026-04-12T07:40:36.999Z</time></trkpt><trkpt lat="44.619653055470195" lon="7.995523272313649"><ele>365.0</ele><time>2026-04-12T07:40:38.999Z</time></trkpt><trkpt lat="44.61957981281405" lon="7.995532317670881"><ele>365.0</ele><time>2026-04-12T07:40:42.999Z</time></trkpt><trkpt lat="44.61950199810821" lon="7.99555917151217"><ele>365.0</ele><time>2026-04-12T07:40:45.999Z</time></trkpt><trkpt lat="44.61940084595555" lon="7.9956207401763475"><ele>365.0</ele><time>2026-04-12T07:40:48.999Z</time></trkpt><trkpt lat="44.61932963161441" lon="7.99565603426051"><ele>365.1666666666667</ele><time>2026-04-12T07:40:51.999Z</time></trkpt><trkpt lat="44.61926054592448" lon="7.995742748056765"><ele>365.33333333333337</ele><time>2026-04-12T07:40:53.999Z</time></trkpt><trkpt lat="44.619205530922294" lon="7.995855195176542"><ele>365.5</ele><time>2026-04-12T07:40:56.999Z</time></trkpt><trkpt lat="44.61917633438767" lon="7.995974574892443"><ele>365.6666666666667</ele><time>2026-04-12T07:40:59.999Z</time></trkpt><trkpt lat="44.61916403272423" lon="7.996100260258815"><ele>365.8333333333333</ele><time>2026-04-12T07:41:01.999Z</time></trkpt><trkpt lat="44.61920829278199" lon="7.996173371057772"><ele>366.0</ele><time>2026-04-12T07:41:03.999Z</time></trkpt><trkpt lat="44.61919991012283" lon="7.9963363710084945"><ele>366.0</ele><time>2026-04-12T07:41:06.999Z</time></trkpt><trkpt lat="44.61919640749743" lon="7.99646388699638"><ele>366.0</ele><time>2026-04-12T07:41:09.999Z</time></trkpt><trkpt lat="44.61918717968407" lon="7.996578557085968"><ele>366.0</ele><time>2026-04-12T07:41:12.999Z</time></trkpt><trkpt lat="44.61916259615934" lon="7.996678584751044"><ele>366.0</ele><time>2026-04-12T07:41:14.999Z</time></trkpt><trkpt lat="44.61913437861703" lon="7.996777136467852"><ele>366.0</ele><time>2026-04-12T07:41:17.999Z</time></trkpt><trkpt lat="44.61911600690099" lon="7.996874455621962"><ele>366.0</ele><time>2026-04-12T07:41:19.999Z</time></trkpt><trkpt lat="44.619087601814265" lon="7.996995844883197"><ele>367.0</ele><time>2026-04-12T07:41:22.999Z</time></trkpt><trkpt lat="44.61904683208714" lon="7.997110795077671"><ele>368.0</ele><time>2026-04-12T07:41:25.999Z</time></trkpt><trkpt lat="44.619019527314386" lon="7.997209055250543"><ele>369.0</ele><time>2026-04-12T07:41:27.999Z</time></trkpt><trkpt lat="44.618977004925185" lon="7.9973277420092375"><ele>370.0</ele><time>2026-04-12T07:41:30.999Z</time></trkpt><trkpt lat="44.61895141214876" lon="7.997453237390093"><ele>371.0</ele><time>2026-04-12T07:41:33.999Z</time></trkpt><trkpt lat="44.618908675573586" lon="7.9975749688894355"><ele>371.0</ele><time>2026-04-12T07:41:35.999Z</time></trkpt><trkpt lat="44.61886655970244" lon="7.997671066558276"><ele>371.0</ele><time>2026-04-12T07:41:37.999Z</time></trkpt><trkpt lat="44.618815372988884" lon="7.997760481544"><ele>371.0</ele><time>2026-04-12T07:41:39.999Z</time></trkpt><trkpt lat="44.618774269496" lon="7.997843541474435"><ele>371.0</ele><time>2026-04-12T07:41:42.999Z</time></trkpt><trkpt lat="44.61871345755486" lon="7.99791586557994"><ele>371.0</ele><time>2026-04-12T07:41:44.999Z</time></trkpt><trkpt lat="44.61864276585172" lon="7.997999914879391"><ele>371.0</ele><time>2026-04-12T07:41:46.998Z</time></trkpt><trkpt lat="44.61858631266006" lon="7.99808077827043"><ele>371.33333333333337</ele><time>2026-04-12T07:41:50Z</time></trkpt><trkpt lat="44.61851458747799" lon="7.998180727666816"><ele>371.6666666666667</ele><time>2026-04-12T07:41:52Z</time></trkpt><trkpt lat="44.61844034842247" lon="7.998257697820796"><ele>372.0</ele><time>2026-04-12T07:41:54Z</time></trkpt><trkpt lat="44.61837268334504" lon="7.9983230994987276"><ele>372.3333333333333</ele><time>2026-04-12T07:41:56Z</time></trkpt><trkpt lat="44.61830416117568" lon="7.9983806523780725"><ele>372.66666666666663</ele><time>2026-04-12T07:41:58Z</time></trkpt><trkpt lat="44.61823650861964" lon="7.998442833097683"><ele>373.0</ele><time>2026-04-12T07:42:00Z</time></trkpt><trkpt lat="44.618159875143625" lon="7.998494800399619"><ele>373.0</ele><time>2026-04-12T07:42:02Z</time></trkpt><trkpt lat="44.618069878489436" lon="7.998539948118857"><ele>373.0</ele><time>2026-04-12T07:42:04Z</time></trkpt><trkpt lat="44.61797066749246" lon="7.998570287023136"><ele>373.0</ele><time>2026-04-12T07:42:06Z</time></trkpt><trkpt lat="44.61787168894445" lon="7.998608921968532"><ele>373.0</ele><time>2026-04-12T07:42:08Z</time></trkpt><trkpt lat="44.617770336477314" lon="7.998643464014922"><ele>373.0</ele><time>2026-04-12T07:42:10Z</time></trkpt><trkpt lat="44.61766146723034" lon="7.998685119965824"><ele>373.0</ele><time>2026-04-12T07:42:12Z</time></trkpt><trkpt lat="44.617554335111755" lon="7.998730980008214"><ele>373.0</ele><time>2026-04-12T07:42:14Z</time></trkpt><trkpt lat="44.61745081079681" lon="7.998795101539883"><ele>373.0</ele><time>2026-04-12T07:42:16Z</time></trkpt><trkpt lat="44.61735487249451" lon="7.998878496767461"><ele>373.0</ele><time>2026-04-12T07:42:18Z</time></trkpt><trkpt lat="44.6172657656008" lon="7.998966310352388"><ele>373.0</ele><time>2026-04-12T07:42:20Z</time></trkpt><trkpt lat="44.617187160310166" lon="7.999069538778551"><ele>374.4</ele><time>2026-04-12T07:42:22Z</time></trkpt><trkpt lat="44.617109834339175" lon="7.999183578317549"><ele>375.79999999999995</ele><time>2026-04-12T07:42:24Z</time></trkpt><trkpt lat="44.61704603140913" lon="7.999302586217875"><ele>377.2</ele><time>2026-04-12T07:42:26Z</time></trkpt><trkpt lat="44.61697976505734" lon="7.99942979924404"><ele>378.6</ele><time>2026-04-12T07:42:28Z</time></trkpt><trkpt lat="44.61691983340225" lon="7.999549823516156"><ele>380.0</ele><time>2026-04-12T07:42:30Z</time></trkpt><trkpt lat="44.61685465146714" lon="7.999676443301296"><ele>380.0</ele><time>2026-04-12T07:42:32Z</time></trkpt><trkpt lat="44.616791616584834" lon="7.999796569242724"><ele>380.0</ele><time>2026-04-12T07:42:34Z</time></trkpt><trkpt lat="44.616724763951844" lon="7.999910971025517"><ele>380.0</ele><time>2026-04-12T07:42:36Z</time></trkpt><trkpt lat="44.61664503425659" lon="8.000013056087454"><ele>380.0</ele><time>2026-04-12T07:42:37.999Z</time></trkpt><trkpt lat="44.616562587753364" lon="8.000102211630253"><ele>380.0</ele><time>2026-04-12T07:42:39.999Z</time></trkpt><trkpt lat="44.61648400837905" lon="8.000197415548882"><ele>380.0</ele><time>2026-04-12T07:42:41.999Z</time></trkpt><trkpt lat="44.616403506958655" lon="8.000271111082352"><ele>380.0</ele><time>2026-04-12T07:42:43.999Z</time></trkpt><trkpt lat="44.61632419068191" lon="8.000346772230927"><ele>380.0</ele><time>2026-04-12T07:42:45.999Z</time></trkpt><trkpt lat="44.61623673634686" lon="8.000430388208784"><ele>380.0</ele><time>2026-04-12T07:42:47.999Z</time></trkpt><trkpt lat="44.616157868175065" lon="8.000483729438404"><ele>380.0</ele><time>2026-04-12T07:42:49.999Z</time></trkpt><trkpt lat="44.61606899061628" lon="8.000541114265353"><ele>377.4</ele><time>2026-04-12T07:42:51.999Z</time></trkpt><trkpt lat="44.615981065635914" lon="8.000581651716155"><ele>374.8</ele><time>2026-04-12T07:42:53.999Z</time></trkpt><trkpt lat="44.61589051821294" lon="8.000628979448"><ele>372.20000000000005</ele><time>2026-04-12T07:42:55.999Z</time></trkpt><trkpt lat="44.615802034903155" lon="8.000674017841314"><ele>369.6</ele><time>2026-04-12T07:42:57.999Z</time></trkpt><trkpt lat="44.615710108656614" lon="8.000718494720788"><ele>367.0</ele><time>2026-04-12T07:42:59.999Z</time></trkpt><trkpt lat="44.61562412319604" lon="8.000761462094799"><ele>367.0</ele><time>2026-04-12T07:43:01.999Z</time></trkpt><trkpt lat="44.61553724183453" lon="8.000799715617676"><ele>367.0</ele><time>2026-04-12T07:43:03.999Z</time></trkpt><trkpt lat="44.61544685305517" lon="8.000843703744655"><ele>367.0</ele><time>2026-04-12T07:43:05.999Z</time></trkpt><trkpt lat="44.61535883796129" lon="8.00088405463399"><ele>367.0</ele><time>2026-04-12T07:43:07.999Z</time></trkpt><trkpt lat="44.61527033521015" lon="8.000928734859764"><ele>367.0</ele><time>2026-04-12T07:43:09.999Z</time></trkpt><trkpt lat="44.61518175658736" lon="8.000973940074319"><ele>369.5</ele><time>2026-04-12T07:43:11.999Z</time></trkpt><trkpt lat="44.61509360683193" lon="8.00100329903565"><ele>372.0</ele><time>2026-04-12T07:43:13.999Z</time></trkpt><trkpt lat="44.61501056323085" lon="8.001033706443812"><ele>374.5</ele><time>2026-04-12T07:43:15.999Z</time></trkpt><trkpt lat="44.61492699209317" lon="8.001071695092415"><ele>377.0</ele><time>2026-04-12T07:43:17.999Z</time></trkpt><trkpt lat="44.61484345609489" lon="8.001107187494855"><ele>379.5</ele><time>2026-04-12T07:43:19.999Z</time></trkpt><trkpt lat="44.61475077329322" lon="8.001140825354211"><ele>382.0</ele><time>2026-04-12T07:43:21.999Z</time></trkpt><trkpt lat="44.614655911530605" lon="8.001170379761213"><ele>382.0</ele><time>2026-04-12T07:43:23.999Z</time></trkpt><trkpt lat="44.61455170424567" lon="8.00120064487314"><ele>382.0</ele><time>2026-04-12T07:43:25.999Z</time></trkpt><trkpt lat="44.61444201351119" lon="8.001235309557014"><ele>382.0</ele><time>2026-04-12T07:43:27.999Z</time></trkpt><trkpt lat="44.61432887646572" lon="8.001266042766112"><ele>382.0</ele><time>2026-04-12T07:43:29.999Z</time></trkpt><trkpt lat="44.61420479562108" lon="8.00129312962976"><ele>381.66666666666663</ele><time>2026-04-12T07:43:31.999Z</time></trkpt><trkpt lat="44.61414151858332" lon="8.00130611530125"><ele>381.3333333333333</ele><time>2026-04-12T07:43:32.999Z</time></trkpt><trkpt lat="44.61407681059297" lon="8.001317845190451"><ele>381.0</ele><time>2026-04-12T07:43:33.999Z</time></trkpt><trkpt lat="44.614007688841006" lon="8.00132906706542"><ele>380.6666666666667</ele><time>2026-04-12T07:43:34.999Z</time></trkpt><trkpt lat="44.61387793388524" lon="8.001361450580632"><ele>380.33333333333337</ele><time>2026-04-12T07:43:36.999Z</time></trkpt><trkpt lat="44.61379295501656" lon="8.00136166919044"><ele>380.0</ele><time>2026-04-12T07:43:37.999Z</time></trkpt><trkpt lat="44.61372413710795" lon="8.001365430986919"><ele>378.5</ele><time>2026-04-12T07:43:38.999Z</time></trkpt><trkpt lat="44.61359761246882" lon="8.001378926452634"><ele>377.0</ele><time>2026-04-12T07:43:40.999Z</time></trkpt><trkpt lat="44.61353160689537" lon="8.001386766485432"><ele>375.5</ele><time>2026-04-12T07:43:41.999Z</time></trkpt><trkpt lat="44.613467108332834" lon="8.001392853038684"><ele>374.0</ele><time>2026-04-12T07:43:42.999Z</time></trkpt><trkpt lat="44.61340133227031" lon="8.00139996832636"><ele>372.5</ele><time>2026-04-12T07:43:43.999Z</time></trkpt><trkpt lat="44.613338202716015" lon="8.001403135788651"><ele>371.0</ele><time>2026-04-12T07:43:44.999Z</time></trkpt><trkpt lat="44.61322521615503" lon="8.00139564981301"><ele>371.0</ele><time>2026-04-12T07:43:46.999Z</time></trkpt><trkpt lat="44.6131112209239" lon="8.001374234186741"><ele>371.0</ele><time>2026-04-12T07:43:48.998Z</time></trkpt><trkpt lat="44.61300227883231" lon="8.001339657910332"><ele>371.0</ele><time>2026-04-12T07:43:50.998Z</time></trkpt><trkpt lat="44.61289608337241" lon="8.001294489142445"><ele>371.0</ele><time>2026-04-12T07:43:52.998Z</time></trkpt><trkpt lat="44.61279396526246" lon="8.00124638895958"><ele>371.0</ele><time>2026-04-12T07:43:55Z</time></trkpt><trkpt lat="44.612694853056155" lon="8.00119269753349"><ele>372.6</ele><time>2026-04-12T07:43:57Z</time></trkpt><trkpt lat="44.61260154854269" lon="8.001142599298381"><ele>374.20000000000005</ele><time>2026-04-12T07:43:59Z</time></trkpt><trkpt lat="44.612515178960095" lon="8.001086676347635"><ele>375.79999999999995</ele><time>2026-04-12T07:44:01Z</time></trkpt><trkpt lat="44.612431829681" lon="8.001027395789482"><ele>377.4</ele><time>2026-04-12T07:44:03Z</time></trkpt><trkpt lat="44.612359123897185" lon="8.000989893816412"><ele>379.0</ele><time>2026-04-12T07:44:05Z</time></trkpt><trkpt lat="44.61228304521976" lon="8.000936017866618"><ele>379.0</ele><time>2026-04-12T07:44:07Z</time></trkpt><trkpt lat="44.61221338821434" lon="8.00089240311143"><ele>379.0</ele><time>2026-04-12T07:44:09Z</time></trkpt><trkpt lat="44.612157005214016" lon="8.000846406435292"><ele>379.0</ele><time>2026-04-12T07:44:11Z</time></trkpt><trkpt lat="44.61207488277599" lon="8.000802231786167"><ele>379.0</ele><time>2026-04-12T07:44:14Z</time></trkpt><trkpt lat="44.61199662093482" lon="8.000752447833554"><ele>379.0</ele><time>2026-04-12T07:44:17Z</time></trkpt><trkpt lat="44.611912701282" lon="8.000693755863608"><ele>379.0</ele><time>2026-04-12T07:44:20Z</time></trkpt><trkpt lat="44.611839906696524" lon="8.000632218475108"><ele>379.14285714285717</ele><time>2026-04-12T07:44:23Z</time></trkpt><trkpt lat="44.61179137182672" lon="8.000574936100504"><ele>379.2857142857143</ele><time>2026-04-12T07:44:25Z</time></trkpt><trkpt lat="44.611730279269985" lon="8.000545659817705"><ele>379.42857142857144</ele><time>2026-04-12T07:44:27Z</time></trkpt><trkpt lat="44.61168124086645" lon="8.000475840638728"><ele>379.57142857142856</ele><time>2026-04-12T07:44:30Z</time></trkpt><trkpt lat="44.611602272415546" lon="8.000427846078887"><ele>379.7142857142857</ele><time>2026-04-12T07:44:33Z</time></trkpt><trkpt lat="44.61152458796501" lon="8.000391024182676"><ele>379.8571428571429</ele><time>2026-04-12T07:44:36Z</time></trkpt><trkpt lat="44.61144344197203" lon="8.000372206467333"><ele>380.0</ele><time>2026-04-12T07:44:39Z</time></trkpt><trkpt lat="44.611380158415734" lon="8.000330064800055"><ele>380.0</ele><time>2026-04-12T07:44:42Z</time></trkpt><trkpt lat="44.61131693103166" lon="8.000300239688867"><ele>380.0</ele><time>2026-04-12T07:44:45Z</time></trkpt><trkpt lat="44.61124673652557" lon="8.00029915990872"><ele>380.0</ele><time>2026-04-12T07:44:48.999Z</time></trkpt><trkpt lat="44.61118955021747" lon="8.00034022742761"><ele>380.0</ele><time>2026-04-12T07:44:54.999Z</time></trkpt><trkpt lat="44.611128047423286" lon="8.00039377696014"><ele>380.0</ele><time>2026-04-12T07:44:57.999Z</time></trkpt><trkpt lat="44.61106608252966" lon="8.000433722175288"><ele>380.0</ele><time>2026-04-12T07:45:01.999Z</time></trkpt><trkpt lat="44.61104307988582" lon="8.000533049993356"><ele>380.0</ele><time>2026-04-12T07:45:06.999Z</time></trkpt><trkpt lat="44.610984348888145" lon="8.000589938756889"><ele>382.42857142857144</ele><time>2026-04-12T07:45:09.999Z</time></trkpt><trkpt lat="44.61092307079405" lon="8.000557056108512"><ele>384.8571428571429</ele><time>2026-04-12T07:45:15.999Z</time></trkpt><trkpt lat="44.61089323763792" lon="8.000458717888025"><ele>387.2857142857143</ele><time>2026-04-12T07:45:23.999Z</time></trkpt><trkpt lat="44.61086397261433" lon="8.000369846275786"><ele>389.7142857142857</ele><time>2026-04-12T07:45:26.999Z</time></trkpt><trkpt lat="44.61088518863285" lon="8.000276073940837"><ele>392.1428571428571</ele><time>2026-04-12T07:45:30.999Z</time></trkpt><trkpt lat="44.61088145495298" lon="8.000174478873081"><ele>394.57142857142856</ele><time>2026-04-12T07:45:35.999Z</time></trkpt><trkpt lat="44.61083115810192" lon="8.00011977186369"><ele>397.0</ele><time>2026-04-12T07:45:39.999Z</time></trkpt><trkpt lat="44.610756901596815" lon="8.000074566385132"><ele>397.0</ele><time>2026-04-12T07:45:43.999Z</time></trkpt><trkpt lat="44.61069568821693" lon="8.000043034020885"><ele>397.0</ele><time>2026-04-12T07:45:46.999Z</time></trkpt><trkpt lat="44.61063213895128" lon="8.000022058996192"><ele>397.0</ele><time>2026-04-12T07:45:52.999Z</time></trkpt><trkpt lat="44.61059643929746" lon="8.000105666194106"><ele>397.0</ele><time>2026-04-12T07:45:57.999Z</time></trkpt><trkpt lat="44.6106368454275" lon="8.000192613136893"><ele>397.0</ele><time>2026-04-12T07:51:28.999Z</time></trkpt><trkpt lat="44.61070556546533" lon="8.00019818976618"><ele>397.0</ele><time>2026-04-12T07:51:32.999Z</time></trkpt><trkpt lat="44.61078970054893" lon="8.000218184983959"><ele>397.0</ele><time>2026-04-12T07:51:36.999Z</time></trkpt><trkpt lat="44.610849693227806" lon="8.000246050519102"><ele>397.0</ele><time>2026-04-12T07:51:40.999Z</time></trkpt><trkpt lat="44.61088797338986" lon="8.00032646671454"><ele>397.0</ele><time>2026-04-12T07:51:43.999Z</time></trkpt><trkpt lat="44.610915440178616" lon="8.00041799209149"><ele>397.0</ele><time>2026-04-12T07:51:46.999Z</time></trkpt><trkpt lat="44.6108907582895" lon="8.000500466504185"><ele>397.0</ele><time>2026-04-12T07:51:49.999Z</time></trkpt><trkpt lat="44.61088843131012" lon="8.000599967323936"><ele>397.0</ele><time>2026-04-12T07:51:53.999Z</time></trkpt><trkpt lat="44.61096738955243" lon="8.000553609474185"><ele>397.0</ele><time>2026-04-12T07:52:00.999Z</time></trkpt><trkpt lat="44.61098872345006" lon="8.000446144818062"><ele>397.0</ele><time>2026-04-12T07:52:04.999Z</time></trkpt><trkpt lat="44.61105554962101" lon="8.00040531259457"><ele>397.00000000000006</ele><time>2026-04-12T07:52:07.999Z</time></trkpt><trkpt lat="44.61112983551621" lon="8.00041813544989"><ele>397.0</ele><time>2026-04-12T07:52:10.999Z</time></trkpt><trkpt lat="44.61123942531769" lon="8.000372604798153"><ele>397.0</ele><time>2026-04-12T07:52:12.999Z</time></trkpt><trkpt lat="44.61131566095563" lon="8.000340181367946"><ele>397.0</ele><time>2026-04-12T07:52:14.999Z</time></trkpt><trkpt lat="44.61136392383289" lon="8.000402128963914"><ele>397.00000000000006</ele><time>2026-04-12T07:52:15.999Z</time></trkpt><trkpt lat="44.61141678462222" lon="8.000455184802671"><ele>397.0</ele><time>2026-04-12T07:52:17.999Z</time></trkpt><trkpt lat="44.611489828756234" lon="8.000493034394497"><ele>394.57142857142856</ele><time>2026-04-12T07:52:20Z</time></trkpt><trkpt lat="44.61155393337795" lon="8.00054926588893"><ele>392.1428571428571</ele><time>2026-04-12T07:52:22Z</time></trkpt><trkpt lat="44.61161974366817" lon="8.000590235643973"><ele>389.7142857142857</ele><time>2026-04-12T07:52:25Z</time></trkpt><trkpt lat="44.61169596355108" lon="8.000592981460036"><ele>387.2857142857143</ele><time>2026-04-12T07:52:42Z</time></trkpt><trkpt lat="44.61169723372845" lon="8.00046834021072"><ele>384.8571428571429</ele><time>2026-04-12T07:52:48Z</time></trkpt><trkpt lat="44.61166392262197" lon="8.00039104669814"><ele>382.42857142857144</ele><time>2026-04-12T07:52:51Z</time></trkpt><trkpt lat="44.61162058123568" lon="8.000321480537663"><ele>380.0</ele><time>2026-04-12T07:52:54Z</time></trkpt><trkpt lat="44.611566926325104" lon="8.000237626850664"><ele>380.0</ele><time>2026-04-12T07:52:58Z</time></trkpt><trkpt lat="44.61153589456558" lon="8.000147505525678"><ele>380.0</ele><time>2026-04-12T07:53:02Z</time></trkpt><trkpt lat="44.61148297317025" lon="8.000075785736945"><ele>380.0</ele><time>2026-04-12T07:56:16.999Z</time></trkpt><trkpt lat="44.611440636767796" lon="7.99998888991009"><ele>380.0</ele><time>2026-04-12T07:56:20.999Z</time></trkpt><trkpt lat="44.61140504879553" lon="7.999910106274211"><ele>380.0</ele><time>2026-04-12T07:56:23.999Z</time></trkpt><trkpt lat="44.611381975734425" lon="7.999804004211725"><ele>380.0</ele><time>2026-04-12T07:56:26.998Z</time></trkpt><trkpt lat="44.61135945079593" lon="7.999718701406628"><ele>380.0</ele><time>2026-04-12T07:56:28.998Z</time></trkpt><trkpt lat="44.611338240693534" lon="7.999608834378698"><ele>380.0</ele><time>2026-04-12T07:56:32Z</time></trkpt><trkpt lat="44.611298485133965" lon="7.999493586937024"><ele>380.0</ele><time>2026-04-12T07:56:35Z</time></trkpt><trkpt lat="44.61127013694748" lon="7.999400861463078"><ele>380.0</ele><time>2026-04-12T07:56:37Z</time></trkpt><trkpt lat="44.61124103382895" lon="7.999310119351352"><ele>380.0</ele><time>2026-04-12T07:56:39Z</time></trkpt><trkpt lat="44.61120935094536" lon="7.99921772390801"><ele>380.0</ele><time>2026-04-12T07:56:41Z</time></trkpt><trkpt lat="44.611165346819334" lon="7.999112753925054"><ele>380.0</ele><time>2026-04-12T07:56:43Z</time></trkpt><trkpt lat="44.6111139510182" lon="7.9990435807214855"><ele>381.6666666666667</ele><time>2026-04-12T07:56:45Z</time></trkpt><trkpt lat="44.6110414979175" lon="7.998996807540814"><ele>383.33333333333337</ele><time>2026-04-12T07:56:47Z</time></trkpt><trkpt lat="44.61094491716671" lon="7.998974876711298"><ele>385.0</ele><time>2026-04-12T07:56:49Z</time></trkpt><trkpt lat="44.610856142779866" lon="7.998994010009906"><ele>386.6666666666667</ele><time>2026-04-12T07:56:51Z</time></trkpt><trkpt lat="44.61077050948614" lon="7.999024402550094"><ele>388.3333333333333</ele><time>2026-04-12T07:56:53Z</time></trkpt><trkpt lat="44.61068957979262" lon="7.999074051177144"><ele>390.0</ele><time>2026-04-12T07:56:55Z</time></trkpt><trkpt lat="44.610614106505345" lon="7.999109906054469"><ele>390.0</ele><time>2026-04-12T07:56:57Z</time></trkpt><trkpt lat="44.61054834473841" lon="7.9991559138310775"><ele>390.0</ele><time>2026-04-12T07:56:59Z</time></trkpt><trkpt lat="44.61048924920416" lon="7.9992271451001855"><ele>390.0</ele><time>2026-04-12T07:57:01Z</time></trkpt><trkpt lat="44.61044302477385" lon="7.999312740492306"><ele>390.0</ele><time>2026-04-12T07:57:04Z</time></trkpt><trkpt lat="44.6103708037067" lon="7.999337451419236"><ele>390.0</ele><time>2026-04-12T07:57:08Z</time></trkpt><trkpt lat="44.61030829187954" lon="7.999418180625641"><ele>390.0</ele><time>2026-04-12T07:57:11Z</time></trkpt><trkpt lat="44.61022506668512" lon="7.999491948599098"><ele>390.5</ele><time>2026-04-12T07:57:14Z</time></trkpt><trkpt lat="44.610137665092154" lon="7.999588219857148"><ele>391.0</ele><time>2026-04-12T07:57:16Z</time></trkpt><trkpt lat="44.61007647995935" lon="7.999659166265028"><ele>391.5</ele><time>2026-04-12T07:57:18Z</time></trkpt><trkpt lat="44.61002793454662" lon="7.9997157775041225"><ele>392.0</ele><time>2026-04-12T07:57:19Z</time></trkpt><trkpt lat="44.60996497559899" lon="7.999794786106448"><ele>392.5</ele><time>2026-04-12T07:57:20Z</time></trkpt><trkpt lat="44.60990287916433" lon="7.999858773121262"><ele>393.0</ele><time>2026-04-12T07:57:21Z</time></trkpt><trkpt lat="44.60984895176144" lon="7.999916869962939"><ele>393.00000000000006</ele><time>2026-04-12T07:57:22Z</time></trkpt><trkpt lat="44.60979038949331" lon="7.999981768255342"><ele>393.0</ele><time>2026-04-12T07:57:23Z</time></trkpt><trkpt lat="44.60972729302793" lon="8.000042469756083"><ele>393.0</ele><time>2026-04-12T07:57:23.999Z</time></trkpt><trkpt lat="44.60967398886263" lon="8.000105808161884"><ele>393.0</ele><time>2026-04-12T07:57:24.999Z</time></trkpt><trkpt lat="44.60961512962592" lon="8.00016867383257"><ele>393.0</ele><time>2026-04-12T07:57:25.999Z</time></trkpt><trkpt lat="44.609561191158164" lon="8.000217332704343"><ele>393.00000000000006</ele><time>2026-04-12T07:57:26.999Z</time></trkpt><trkpt lat="44.60950522589309" lon="8.000275468511925"><ele>393.0</ele><time>2026-04-12T07:57:27.999Z</time></trkpt><trkpt lat="44.60944724445112" lon="8.000328837884323"><ele>391.3333333333333</ele><time>2026-04-12T07:57:28.999Z</time></trkpt><trkpt lat="44.60938893213279" lon="8.000388898237883"><ele>389.6666666666667</ele><time>2026-04-12T07:57:29.999Z</time></trkpt><trkpt lat="44.60927702693749" lon="8.000478729716393"><ele>388.0</ele><time>2026-04-12T07:57:31.999Z</time></trkpt><trkpt lat="44.609207213354686" lon="8.000510810357659"><ele>386.33333333333337</ele><time>2026-04-12T07:57:32.999Z</time></trkpt><trkpt lat="44.609142879987644" lon="8.000511360317711"><ele>384.6666666666667</ele><time>2026-04-12T07:57:33.999Z</time></trkpt><trkpt lat="44.60906953583908" lon="8.000527658599548"><ele>383.0</ele><time>2026-04-12T07:57:34.999Z</time></trkpt><trkpt lat="44.60898767887002" lon="8.000577589443187"><ele>383.0</ele><time>2026-04-12T07:57:35.999Z</time></trkpt><trkpt lat="44.608904439954024" lon="8.0005850054886"><ele>383.0</ele><time>2026-04-12T07:57:36.999Z</time></trkpt><trkpt lat="44.60876954402971" lon="8.000617711639451"><ele>383.0</ele><time>2026-04-12T07:57:38.999Z</time></trkpt><trkpt lat="44.60869299797391" lon="8.00061772003691"><ele>383.0</ele><time>2026-04-12T07:57:39.999Z</time></trkpt><trkpt lat="44.608625729638774" lon="8.000602428617555"><ele>383.0</ele><time>2026-04-12T07:57:40.999Z</time></trkpt><trkpt lat="44.6085108057103" lon="8.000600490420213"><ele>382.5</ele><time>2026-04-12T07:57:42.999Z</time></trkpt><trkpt lat="44.60844933064472" lon="8.000575228957148"><ele>382.0</ele><time>2026-04-12T07:57:43.999Z</time></trkpt><trkpt lat="44.60833167146809" lon="8.000532166204364"><ele>381.5</ele><time>2026-04-12T07:57:45.999Z</time></trkpt><trkpt lat="44.608259847579255" lon="8.000510497447397"><ele>381.0</ele><time>2026-04-12T07:57:46.999Z</time></trkpt><trkpt lat="44.60819877702509" lon="8.000468172036749"><ele>380.5</ele><time>2026-04-12T07:57:47.999Z</time></trkpt><trkpt lat="44.608120828888936" lon="8.000454500155643"><ele>380.0</ele><time>2026-04-12T07:57:48.999Z</time></trkpt><trkpt lat="44.60805280456625" lon="8.000435316976038"><ele>380.0</ele><time>2026-04-12T07:57:49.999Z</time></trkpt><trkpt lat="44.60793857775812" lon="8.000389626860231"><ele>380.0</ele><time>2026-04-12T07:57:51.999Z</time></trkpt><trkpt lat="44.60786862206524" lon="8.000354464786408"><ele>380.0</ele><time>2026-04-12T07:57:52.999Z</time></trkpt><trkpt lat="44.60774776401508" lon="8.000293012893598"><ele>380.0</ele><time>2026-04-12T07:57:54.999Z</time></trkpt><trkpt lat="44.60767059678417" lon="8.000266466958342"><ele>380.0</ele><time>2026-04-12T07:57:55.999Z</time></trkpt><trkpt lat="44.60760679283706" lon="8.000238294752013"><ele>381.0</ele><time>2026-04-12T07:57:56.999Z</time></trkpt><trkpt lat="44.607542944320784" lon="8.000214918317582"><ele>382.0</ele><time>2026-04-12T07:57:57.999Z</time></trkpt><trkpt lat="44.607431974180294" lon="8.000157206791311"><ele>383.0</ele><time>2026-04-12T07:57:59.999Z</time></trkpt><trkpt lat="44.60732360751082" lon="8.00011182998652"><ele>384.0</ele><time>2026-04-12T07:58:01.999Z</time></trkpt><trkpt lat="44.60722295003207" lon="8.00004462568297"><ele>385.0</ele><time>2026-04-12T07:58:03.999Z</time></trkpt><trkpt lat="44.607128695671875" lon="7.999936312340654"><ele>385.0</ele><time>2026-04-12T07:58:05.999Z</time></trkpt><trkpt lat="44.60704712676048" lon="7.999860486240865"><ele>385.0</ele><time>2026-04-12T07:58:07.999Z</time></trkpt><trkpt lat="44.60696240036959" lon="7.999774515969341"><ele>385.0</ele><time>2026-04-12T07:58:09.999Z</time></trkpt><trkpt lat="44.60686892340562" lon="7.999692439266044"><ele>385.0</ele><time>2026-04-12T07:58:11.999Z</time></trkpt><trkpt lat="44.60679621236009" lon="7.999613839502467"><ele>385.0</ele><time>2026-04-12T07:58:13.999Z</time></trkpt><trkpt lat="44.60669084845229" lon="7.999569591470728"><ele>386.00000000000006</ele><time>2026-04-12T07:58:15.999Z</time></trkpt><trkpt lat="44.606579095465904" lon="7.9995444283745805"><ele>387.0</ele><time>2026-04-12T07:58:17.999Z</time></trkpt><trkpt lat="44.60645513009389" lon="7.999550369639573"><ele>388.0</ele><time>2026-04-12T07:58:19.999Z</time></trkpt><trkpt lat="44.60639210968467" lon="7.999557201487517"><ele>389.0</ele><time>2026-04-12T07:58:20.999Z</time></trkpt><trkpt lat="44.60632462094412" lon="7.999577862053174"><ele>390.00000000000006</ele><time>2026-04-12T07:58:21.999Z</time></trkpt><trkpt lat="44.60625614497909" lon="7.999591975776286"><ele>391.0</ele><time>2026-04-12T07:58:22.999Z</time></trkpt><trkpt lat="44.60618487534227" lon="7.999598716354352"><ele>389.83333333333337</ele><time>2026-04-12T07:58:23.999Z</time></trkpt><trkpt lat="44.60610426740303" lon="7.999595726896129"><ele>388.6666666666667</ele><time>2026-04-12T07:58:24.999Z</time></trkpt><trkpt lat="44.606022315830906" lon="7.999587381484561"><ele>387.5</ele><time>2026-04-12T07:58:25.999Z</time></trkpt><trkpt lat="44.60593504292002" lon="7.999563395595584"><ele>386.33333333333337</ele><time>2026-04-12T07:58:26.999Z</time></trkpt><trkpt lat="44.60585890588399" lon="7.999536297473096"><ele>385.1666666666667</ele><time>2026-04-12T07:58:27.999Z</time></trkpt><trkpt lat="44.605784074648874" lon="7.999509536886069"><ele>384.0</ele><time>2026-04-12T07:58:28.999Z</time></trkpt><trkpt lat="44.60571211612595" lon="7.999483665776553"><ele>384.0</ele><time>2026-04-12T07:58:29.999Z</time></trkpt><trkpt lat="44.60563258335194" lon="7.999455497253145"><ele>384.0</ele><time>2026-04-12T07:58:30.999Z</time></trkpt><trkpt lat="44.60555601136751" lon="7.9994337551427215"><ele>384.0</ele><time>2026-04-12T07:58:31.999Z</time></trkpt><trkpt lat="44.605483455431745" lon="7.9994104914432524"><ele>384.0</ele><time>2026-04-12T07:58:32.999Z</time></trkpt><trkpt lat="44.605409378106614" lon="7.999383725509137"><ele>384.0</ele><time>2026-04-12T07:58:33.999Z</time></trkpt><trkpt lat="44.6053400940302" lon="7.9993657063254915"><ele>384.0</ele><time>2026-04-12T07:58:34.999Z</time></trkpt><trkpt lat="44.605272615719436" lon="7.999353326342708"><ele>382.5</ele><time>2026-04-12T07:58:35.999Z</time></trkpt><trkpt lat="44.60519792795623" lon="7.999319836873518"><ele>381.0</ele><time>2026-04-12T07:58:37Z</time></trkpt><trkpt lat="44.60511801107199" lon="7.999287205780955"><ele>379.5</ele><time>2026-04-12T07:58:38Z</time></trkpt><trkpt lat="44.60504516884075" lon="7.9992680887001475"><ele>378.0</ele><time>2026-04-12T07:58:39Z</time></trkpt><trkpt lat="44.60497040778799" lon="7.999244421978712"><ele>376.5</ele><time>2026-04-12T07:58:40Z</time></trkpt><trkpt lat="44.60490815240097" lon="7.999216202178586"><ele>375.0</ele><time>2026-04-12T07:58:41Z</time></trkpt><trkpt lat="44.60483633553274" lon="7.999187283288726"><ele>376.0</ele><time>2026-04-12T07:58:42Z</time></trkpt><trkpt lat="44.60477193080483" lon="7.999165791388817"><ele>377.0</ele><time>2026-04-12T07:58:43Z</time></trkpt><trkpt lat="44.6046567492941" lon="7.999127217798953"><ele>378.0</ele><time>2026-04-12T07:58:45Z</time></trkpt><trkpt lat="44.60459400484578" lon="7.999104932121397"><ele>379.0</ele><time>2026-04-12T07:58:46Z</time></trkpt><trkpt lat="44.60447674806395" lon="7.999066942326101"><ele>380.0</ele><time>2026-04-12T07:58:48Z</time></trkpt><trkpt lat="44.604357431596064" lon="7.999028124323942"><ele>380.75</ele><time>2026-04-12T07:58:50Z</time></trkpt><trkpt lat="44.60424669570208" lon="7.998991254154552"><ele>381.5</ele><time>2026-04-12T07:58:52Z</time></trkpt><trkpt lat="44.60412757824426" lon="7.998967382921462"><ele>382.25</ele><time>2026-04-12T07:58:54Z</time></trkpt><trkpt lat="44.604012114016896" lon="7.9989536283835605"><ele>383.0</ele><time>2026-04-12T07:58:56Z</time></trkpt><trkpt lat="44.60388065830641" lon="7.9989472000466595"><ele>383.0</ele><time>2026-04-12T07:58:58Z</time></trkpt><trkpt lat="44.6038123873138" lon="7.998948707512275"><ele>383.0</ele><time>2026-04-12T07:58:59Z</time></trkpt><trkpt lat="44.60374468154118" lon="7.998957512065247"><ele>383.0</ele><time>2026-04-12T07:59:00Z</time></trkpt><trkpt lat="44.60367443151858" lon="7.998959155005894"><ele>383.0</ele><time>2026-04-12T07:59:01Z</time></trkpt><trkpt lat="44.60360442421785" lon="7.998966241348099"><ele>383.0</ele><time>2026-04-12T07:59:02Z</time></trkpt><trkpt lat="44.60352866603725" lon="7.9989778177378765"><ele>383.0</ele><time>2026-04-12T07:59:03Z</time></trkpt><trkpt lat="44.603453695026424" lon="7.998995884963529"><ele>383.0</ele><time>2026-04-12T07:59:04Z</time></trkpt><trkpt lat="44.60338342657643" lon="7.9990109400538865"><ele>382.2857142857143</ele><time>2026-04-12T07:59:05Z</time></trkpt><trkpt lat="44.603309463812046" lon="7.999029347170932"><ele>381.57142857142856</ele><time>2026-04-12T07:59:06Z</time></trkpt><trkpt lat="44.60324001808655" lon="7.999052565596253"><ele>380.8571428571429</ele><time>2026-04-12T07:59:07Z</time></trkpt><trkpt lat="44.60316455625267" lon="7.9990693920086064"><ele>380.1428571428571</ele><time>2026-04-12T07:59:08Z</time></trkpt><trkpt lat="44.60309600329589" lon="7.999090390239595"><ele>379.42857142857144</ele><time>2026-04-12T07:59:09Z</time></trkpt><trkpt lat="44.603026757372874" lon="7.999107909972055"><ele>378.7142857142857</ele><time>2026-04-12T07:59:10Z</time></trkpt><trkpt lat="44.602958336922654" lon="7.999124985252522"><ele>378.0</ele><time>2026-04-12T07:59:11Z</time></trkpt><trkpt lat="44.602892400459375" lon="7.999141189330089"><ele>377.79999999999995</ele><time>2026-04-12T07:59:12Z</time></trkpt><trkpt lat="44.602771876692785" lon="7.999179500481969"><ele>377.6</ele><time>2026-04-12T07:59:14Z</time></trkpt><trkpt lat="44.602709669097294" lon="7.999199813106673"><ele>377.4</ele><time>2026-04-12T07:59:15Z</time></trkpt><trkpt lat="44.60264775071079" lon="7.99921594375417"><ele>377.20000000000005</ele><time>2026-04-12T07:59:16Z</time></trkpt><trkpt lat="44.602529811986194" lon="7.999246723059242"><ele>377.0</ele><time>2026-04-12T07:59:18Z</time></trkpt><trkpt lat="44.602416472686606" lon="7.999283566591742"><ele>377.0</ele><time>2026-04-12T07:59:20Z</time></trkpt><trkpt lat="44.60230459625179" lon="7.999313236369804"><ele>377.0</ele><time>2026-04-12T07:59:22Z</time></trkpt><trkpt lat="44.60219505468857" lon="7.999340026886733"><ele>377.0</ele><time>2026-04-12T07:59:24Z</time></trkpt><trkpt lat="44.602086477783374" lon="7.999373813210605"><ele>377.0</ele><time>2026-04-12T07:59:26Z</time></trkpt><trkpt lat="44.6019829979616" lon="7.999388450063179"><ele>377.0</ele><time>2026-04-12T07:59:27.999Z</time></trkpt><trkpt lat="44.601880488171325" lon="7.999413345003703"><ele>377.20000000000005</ele><time>2026-04-12T07:59:29.999Z</time></trkpt><trkpt lat="44.601780897655246" lon="7.999441224762426"><ele>377.4</ele><time>2026-04-12T07:59:31.999Z</time></trkpt><trkpt lat="44.601684677932056" lon="7.999462140781688"><ele>377.6</ele><time>2026-04-12T07:59:33.999Z</time></trkpt><trkpt lat="44.60158132602844" lon="7.999489430327909"><ele>377.79999999999995</ele><time>2026-04-12T07:59:35.999Z</time></trkpt><trkpt lat="44.60146902088259" lon="7.999519990948915"><ele>378.0</ele><time>2026-04-12T07:59:37.999Z</time></trkpt><trkpt lat="44.601351904151535" lon="7.999547987648566"><ele>378.0</ele><time>2026-04-12T07:59:39.999Z</time></trkpt><trkpt lat="44.60128689618484" lon="7.999560000745336"><ele>378.0</ele><time>2026-04-12T07:59:40.999Z</time></trkpt><trkpt lat="44.601222830393745" lon="7.999574087237251"><ele>378.0</ele><time>2026-04-12T07:59:41.999Z</time></trkpt><trkpt lat="44.601157662425614" lon="7.999591805730452"><ele>378.0</ele><time>2026-04-12T07:59:42.999Z</time></trkpt><trkpt lat="44.60109041896535" lon="7.999614701696354"><ele>378.0</ele><time>2026-04-12T07:59:43.999Z</time></trkpt><trkpt lat="44.60101867141614" lon="7.999636553729548"><ele>378.0</ele><time>2026-04-12T07:59:44.999Z</time></trkpt><trkpt lat="44.600948031450436" lon="7.999655539462978"><ele>378.0</ele><time>2026-04-12T07:59:45.999Z</time></trkpt><trkpt lat="44.60087278296546" lon="7.9996756233975646"><ele>378.0</ele><time>2026-04-12T07:59:46.999Z</time></trkpt><trkpt lat="44.600793802635955" lon="7.999697637283729"><ele>378.0</ele><time>2026-04-12T07:59:47.999Z</time></trkpt><trkpt lat="44.60071096539857" lon="7.999721847470327"><ele>378.0</ele><time>2026-04-12T07:59:48.999Z</time></trkpt><trkpt lat="44.60062864197107" lon="7.999741544072502"><ele>378.0</ele><time>2026-04-12T07:59:49.999Z</time></trkpt><trkpt lat="44.60054719469792" lon="7.999765361160687"><ele>378.0</ele><time>2026-04-12T07:59:50.999Z</time></trkpt><trkpt lat="44.60046295711125" lon="7.999793169181676"><ele>378.0</ele><time>2026-04-12T07:59:51.999Z</time></trkpt><trkpt lat="44.60037743599322" lon="7.9998390201786265"><ele>378.0</ele><time>2026-04-12T07:59:52.999Z</time></trkpt><trkpt lat="44.6002875318348" lon="7.999897346161325"><ele>378.0</ele><time>2026-04-12T07:59:53.999Z</time></trkpt><trkpt lat="44.60020316072171" lon="7.999976828028423"><ele>378.0</ele><time>2026-04-12T07:59:54.999Z</time></trkpt><trkpt lat="44.600127829876556" lon="8.000076555328947"><ele>378.0</ele><time>2026-04-12T07:59:55.999Z</time></trkpt><trkpt lat="44.6000580394432" lon="8.000184455635043"><ele>378.0</ele><time>2026-04-12T07:59:56.999Z</time></trkpt><trkpt lat="44.59999221037112" lon="8.00030093421287"><ele>378.0</ele><time>2026-04-12T07:59:57.999Z</time></trkpt><trkpt lat="44.59993705822906" lon="8.00042270146496"><ele>378.0</ele><time>2026-04-12T07:59:58.999Z</time></trkpt><trkpt lat="44.59987987756273" lon="8.000541519215394"><ele>378.0</ele><time>2026-04-12T07:59:59.999Z</time></trkpt><trkpt lat="44.599832524656236" lon="8.000660736603052"><ele>378.0</ele><time>2026-04-12T08:00:00.999Z</time></trkpt><trkpt lat="44.599789840555445" lon="8.000765787026145"><ele>378.0</ele><time>2026-04-12T08:00:01.999Z</time></trkpt><trkpt lat="44.59975148853128" lon="8.000871489885968"><ele>378.1666666666667</ele><time>2026-04-12T08:00:02.999Z</time></trkpt><trkpt lat="44.59972407135549" lon="8.00097952221421"><ele>378.3333333333333</ele><time>2026-04-12T08:00:03.999Z</time></trkpt><trkpt lat="44.599714656634916" lon="8.001088920330195"><ele>378.5</ele><time>2026-04-12T08:00:04.999Z</time></trkpt><trkpt lat="44.59971179527076" lon="8.00119667071901"><ele>378.66666666666663</ele><time>2026-04-12T08:00:05.999Z</time></trkpt><trkpt lat="44.59971813669192" lon="8.001297705036922"><ele>378.8333333333333</ele><time>2026-04-12T08:00:06.999Z</time></trkpt><trkpt lat="44.59972669130069" lon="8.001398762037935"><ele>379.0</ele><time>2026-04-12T08:00:07.999Z</time></trkpt><trkpt lat="44.59974763667444" lon="8.001489921982758"><ele>379.0</ele><time>2026-04-12T08:00:08.999Z</time></trkpt><trkpt lat="44.599768636999094" lon="8.001574923181092"><ele>379.0</ele><time>2026-04-12T08:00:09.999Z</time></trkpt><trkpt lat="44.59980167351386" lon="8.001730618416952"><ele>379.0</ele><time>2026-04-12T08:00:11.999Z</time></trkpt><trkpt lat="44.59983389328531" lon="8.00186245060038"><ele>379.0</ele><time>2026-04-12T08:00:13.999Z</time></trkpt><trkpt lat="44.599855300317394" lon="8.00198316607026"><ele>379.0</ele><time>2026-04-12T08:00:15.999Z</time></trkpt><trkpt lat="44.599876617639026" lon="8.0021034129092"><ele>379.3333333333333</ele><time>2026-04-12T08:00:17.999Z</time></trkpt><trkpt lat="44.59989130866406" lon="8.00222689857211"><ele>379.66666666666663</ele><time>2026-04-12T08:00:19.999Z</time></trkpt><trkpt lat="44.59989996235385" lon="8.002341411444043"><ele>380.0</ele><time>2026-04-12T08:00:21.999Z</time></trkpt><trkpt lat="44.599912856196" lon="8.00245771134312"><ele>380.3333333333333</ele><time>2026-04-12T08:00:23.999Z</time></trkpt><trkpt lat="44.59991361983738" lon="8.00257240199363"><ele>380.6666666666667</ele><time>2026-04-12T08:00:25.999Z</time></trkpt><trkpt lat="44.59992259176846" lon="8.002677092841992"><ele>381.0</ele><time>2026-04-12T08:00:27.999Z</time></trkpt><trkpt lat="44.59993070548901" lon="8.002782914815944"><ele>381.6666666666667</ele><time>2026-04-12T08:00:29.999Z</time></trkpt><trkpt lat="44.599952528223575" lon="8.002889775506336"><ele>382.33333333333337</ele><time>2026-04-12T08:00:31.999Z</time></trkpt><trkpt lat="44.59998354874223" lon="8.002993381902076"><ele>383.0</ele><time>2026-04-12T08:00:33.999Z</time></trkpt><trkpt lat="44.600019743409945" lon="8.003087897776018"><ele>383.6666666666667</ele><time>2026-04-12T08:00:35.999Z</time></trkpt><trkpt lat="44.600065105485015" lon="8.003181377313286"><ele>384.33333333333337</ele><time>2026-04-12T08:00:37.999Z</time></trkpt><trkpt lat="44.6001012226304" lon="8.003257434733818"><ele>385.0</ele><time>2026-04-12T08:00:39.998Z</time></trkpt><trkpt lat="44.600147964669276" lon="8.003348253080441"><ele>384.33333333333337</ele><time>2026-04-12T08:00:41.998Z</time></trkpt><trkpt lat="44.60019318123613" lon="8.003425882644555"><ele>383.6666666666667</ele><time>2026-04-12T08:00:44Z</time></trkpt><trkpt lat="44.60023337659014" lon="8.003531352832319"><ele>383.0</ele><time>2026-04-12T08:00:46Z</time></trkpt><trkpt lat="44.600266399780594" lon="8.003621440892752"><ele>382.33333333333337</ele><time>2026-04-12T08:00:50Z</time></trkpt><trkpt lat="44.60032278639343" lon="8.0037014825808"><ele>381.6666666666667</ele><time>2026-04-12T08:00:52Z</time></trkpt><trkpt lat="44.600362670899095" lon="8.003774814189384"><ele>381.0</ele><time>2026-04-12T08:00:53Z</time></trkpt><trkpt lat="44.60042856470948" lon="8.003871206902035"><ele>381.0</ele><time>2026-04-12T08:00:55Z</time></trkpt><trkpt lat="44.60048227690906" lon="8.003977220097516"><ele>381.0</ele><time>2026-04-12T08:00:57Z</time></trkpt><trkpt lat="44.60051592287972" lon="8.004072954224682"><ele>381.0</ele><time>2026-04-12T08:00:59Z</time></trkpt><trkpt lat="44.60056931700721" lon="8.004159339725131"><ele>381.0</ele><time>2026-04-12T08:01:01Z</time></trkpt><trkpt lat="44.600599496474594" lon="8.004253304753906"><ele>381.0</ele><time>2026-04-12T08:01:05Z</time></trkpt><trkpt lat="44.60064583749634" lon="8.00434397636739"><ele>381.0</ele><time>2026-04-12T08:01:08Z</time></trkpt><trkpt lat="44.6007011389959" lon="8.004403271254636"><ele>382.5</ele><time>2026-04-12T08:01:10Z</time></trkpt><trkpt lat="44.60075261979972" lon="8.004488109478963"><ele>384.0</ele><time>2026-04-12T08:01:13Z</time></trkpt><trkpt lat="44.60079396703685" lon="8.004581961424277"><ele>385.5</ele><time>2026-04-12T08:01:15Z</time></trkpt><trkpt lat="44.600826570013545" lon="8.00472167154751"><ele>387.0</ele><time>2026-04-12T08:01:19Z</time></trkpt><trkpt lat="44.60081841293986" lon="8.004811836358122"><ele>388.5</ele><time>2026-04-12T08:01:21Z</time></trkpt><trkpt lat="44.600763870437405" lon="8.004872883849682"><ele>390.0</ele><time>2026-04-12T08:01:25Z</time></trkpt><trkpt lat="44.60070407188923" lon="8.00482903334855"><ele>390.0</ele><time>2026-04-12T08:01:29Z</time></trkpt><trkpt lat="44.60064019606124" lon="8.004724416583285"><ele>390.0</ele><time>2026-04-12T08:01:33Z</time></trkpt><trkpt lat="44.60059091186438" lon="8.004650663791878"><ele>390.0</ele><time>2026-04-12T08:01:36.999Z</time></trkpt><trkpt lat="44.600551772196276" lon="8.004572307304745"><ele>390.0</ele><time>2026-04-12T08:01:38.999Z</time></trkpt><trkpt lat="44.60050439403367" lon="8.00447631725638"><ele>390.0</ele><time>2026-04-12T08:01:40.999Z</time></trkpt><trkpt lat="44.60047594997327" lon="8.004394304765446"><ele>390.0</ele><time>2026-04-12T08:01:42.999Z</time></trkpt><trkpt lat="44.60040485459601" lon="8.004302882119248"><ele>390.0</ele><time>2026-04-12T08:01:45.999Z</time></trkpt><trkpt lat="44.6003601721775" lon="8.004212373533594"><ele>390.0</ele><time>2026-04-12T08:01:48.999Z</time></trkpt><trkpt lat="44.600306756872484" lon="8.004145717799945"><ele>390.0</ele><time>2026-04-12T08:01:50.999Z</time></trkpt><trkpt lat="44.60022709305809" lon="8.00410641674335"><ele>390.0</ele><time>2026-04-12T08:01:53.999Z</time></trkpt><trkpt lat="44.60014186950341" lon="8.004068515525823"><ele>390.0</ele><time>2026-04-12T08:01:55.999Z</time></trkpt><trkpt lat="44.60008411062246" lon="8.0040295977664"><ele>390.0</ele><time>2026-04-12T08:01:57.999Z</time></trkpt><trkpt lat="44.60001671949612" lon="8.004013983638872"><ele>390.6666666666667</ele><time>2026-04-12T08:01:59.999Z</time></trkpt><trkpt lat="44.5999343247707" lon="8.004001648067064"><ele>391.33333333333337</ele><time>2026-04-12T08:02:02.999Z</time></trkpt><trkpt lat="44.59988392225528" lon="8.004138551055869"><ele>392.0</ele><time>2026-04-12T08:02:04.999Z</time></trkpt><trkpt lat="44.599851400393945" lon="8.004215510913689"><ele>392.6666666666667</ele><time>2026-04-12T08:02:06.999Z</time></trkpt><trkpt lat="44.5998357077868" lon="8.004342259333175"><ele>393.33333333333337</ele><time>2026-04-12T08:02:09.999Z</time></trkpt><trkpt lat="44.59980136703017" lon="8.004475276778798"><ele>394.0</ele><time>2026-04-12T08:02:12.999Z</time></trkpt><trkpt lat="44.59979092622064" lon="8.004601515972126"><ele>396.00000000000006</ele><time>2026-04-12T08:02:15.999Z</time></trkpt><trkpt lat="44.59978335143176" lon="8.00470031282522"><ele>398.0</ele><time>2026-04-12T08:02:17.999Z</time></trkpt><trkpt lat="44.5997740714607" lon="8.004796138001941"><ele>400.0</ele><time>2026-04-12T08:02:19.999Z</time></trkpt><trkpt lat="44.59976037953665" lon="8.004887114567206"><ele>402.0</ele><time>2026-04-12T08:02:21.999Z</time></trkpt><trkpt lat="44.59973179768442" lon="8.005004189486195"><ele>404.00000000000006</ele><time>2026-04-12T08:02:24.999Z</time></trkpt><trkpt lat="44.59970936574675" lon="8.005121084389936"><ele>406.0</ele><time>2026-04-12T08:02:27.999Z</time></trkpt><trkpt lat="44.59967602736912" lon="8.005207737853786"><ele>405.57142857142856</ele><time>2026-04-12T08:02:29.999Z</time></trkpt><trkpt lat="44.59963909795239" lon="8.005285676710567"><ele>405.1428571428571</ele><time>2026-04-12T08:02:31.999Z</time></trkpt><trkpt lat="44.59958237448847" lon="8.00538103609815"><ele>404.7142857142857</ele><time>2026-04-12T08:02:34.999Z</time></trkpt><trkpt lat="44.59952574755912" lon="8.005423753627058"><ele>404.2857142857143</ele><time>2026-04-12T08:02:36.999Z</time></trkpt><trkpt lat="44.599454964009375" lon="8.005498249897903"><ele>403.85714285714283</ele><time>2026-04-12T08:02:39.999Z</time></trkpt><trkpt lat="44.59939571825346" lon="8.005556620562329"><ele>403.42857142857144</ele><time>2026-04-12T08:02:42.999Z</time></trkpt><trkpt lat="44.599341167919185" lon="8.005609825703932"><ele>403.0</ele><time>2026-04-12T08:02:45.999Z</time></trkpt><trkpt lat="44.59928696755671" lon="8.005662689427721"><ele>403.0</ele><time>2026-04-12T08:02:49Z</time></trkpt><trkpt lat="44.59923944690426" lon="8.00573605914723"><ele>403.0</ele><time>2026-04-12T08:02:52Z</time></trkpt><trkpt lat="44.59917198277156" lon="8.005790029734335"><ele>403.0</ele><time>2026-04-12T08:02:56Z</time></trkpt><trkpt lat="44.59910883172846" lon="8.005858939721156"><ele>403.0</ele><time>2026-04-12T08:03:00Z</time></trkpt><trkpt lat="44.59905620786092" lon="8.005908184997505"><ele>403.0</ele><time>2026-04-12T08:03:03Z</time></trkpt><trkpt lat="44.59899078027146" lon="8.005961532951352"><ele>403.0</ele><time>2026-04-12T08:03:06Z</time></trkpt><trkpt lat="44.5989331407528" lon="8.0060243081513"><ele>403.0</ele><time>2026-04-12T08:03:09Z</time></trkpt><trkpt lat="44.59886650084067" lon="8.006095583233128"><ele>404.1666666666667</ele><time>2026-04-12T08:03:12Z</time></trkpt><trkpt lat="44.5988016261138" lon="8.006127757353006"><ele>405.33333333333337</ele><time>2026-04-12T08:03:14Z</time></trkpt><trkpt lat="44.59872479167188" lon="8.006194904435405"><ele>406.5</ele><time>2026-04-12T08:03:17Z</time></trkpt><trkpt lat="44.598657064913795" lon="8.006274596523522"><ele>407.66666666666663</ele><time>2026-04-12T08:03:20Z</time></trkpt><trkpt lat="44.59859846478345" lon="8.006312919207764"><ele>408.8333333333333</ele><time>2026-04-12T08:03:22Z</time></trkpt><trkpt lat="44.59851819753672" lon="8.00636903493181"><ele>410.0</ele><time>2026-04-12T08:03:25Z</time></trkpt><trkpt lat="44.598459462760204" lon="8.006401691084475"><ele>410.0</ele><time>2026-04-12T08:03:27Z</time></trkpt><trkpt lat="44.59838489512113" lon="8.006449430567546"><ele>410.0</ele><time>2026-04-12T08:03:30Z</time></trkpt><trkpt lat="44.5983210459876" lon="8.00646080332401"><ele>410.0</ele><time>2026-04-12T08:03:32Z</time></trkpt><trkpt lat="44.598256266504166" lon="8.006511989389994"><ele>410.0</ele><time>2026-04-12T08:03:34Z</time></trkpt><trkpt lat="44.59819357774311" lon="8.00653948426808"><ele>410.0</ele><time>2026-04-12T08:03:36Z</time></trkpt><trkpt lat="44.59812673871297" lon="8.006570309128197"><ele>410.0</ele><time>2026-04-12T08:03:38Z</time></trkpt><trkpt lat="44.59806377012931" lon="8.006602500501904"><ele>410.0</ele><time>2026-04-12T08:03:39.999Z</time></trkpt><trkpt lat="44.59797920876553" lon="8.006628072562638"><ele>409.99999999999994</ele><time>2026-04-12T08:03:41.999Z</time></trkpt><trkpt lat="44.59789781148056" lon="8.006649013262411"><ele>410.0</ele><time>2026-04-12T08:03:43.999Z</time></trkpt><trkpt lat="44.59782090101968" lon="8.006668640497846"><ele>410.0</ele><time>2026-04-12T08:03:45.999Z</time></trkpt><trkpt lat="44.59774841472603" lon="8.006693734772218"><ele>410.0</ele><time>2026-04-12T08:03:47.999Z</time></trkpt><trkpt lat="44.597662869604676" lon="8.006701565731861"><ele>409.99999999999994</ele><time>2026-04-12T08:03:49.999Z</time></trkpt><trkpt lat="44.59757104220666" lon="8.006705595718135"><ele>410.0</ele><time>2026-04-12T08:03:51.999Z</time></trkpt><trkpt lat="44.597473781907176" lon="8.006721144697302"><ele>412.6</ele><time>2026-04-12T08:03:53.999Z</time></trkpt><trkpt lat="44.597373955695794" lon="8.006743405966711"><ele>415.2</ele><time>2026-04-12T08:03:55.999Z</time></trkpt><trkpt lat="44.59727505977273" lon="8.00675370861236"><ele>417.79999999999995</ele><time>2026-04-12T08:03:57.999Z</time></trkpt><trkpt lat="44.59717464079892" lon="8.006749231866197"><ele>420.4</ele><time>2026-04-12T08:03:59.999Z</time></trkpt><trkpt lat="44.59706988254073" lon="8.006747039809868"><ele>423.0</ele><time>2026-04-12T08:04:01.999Z</time></trkpt><trkpt lat="44.596970916957574" lon="8.006735176681483"><ele>423.0</ele><time>2026-04-12T08:04:03.999Z</time></trkpt><trkpt lat="44.59686735784284" lon="8.00669873956661"><ele>423.0</ele><time>2026-04-12T08:04:05.999Z</time></trkpt><trkpt lat="44.59675516973799" lon="8.006634022864482"><ele>423.0</ele><time>2026-04-12T08:04:07.999Z</time></trkpt><trkpt lat="44.596659214010906" lon="8.006546977698275"><ele>423.0</ele><time>2026-04-12T08:04:09.999Z</time></trkpt><trkpt lat="44.59658108227182" lon="8.006444081527686"><ele>423.0</ele><time>2026-04-12T08:04:11.999Z</time></trkpt><trkpt lat="44.596511296916006" lon="8.006343488805198"><ele>421.4</ele><time>2026-04-12T08:04:13.999Z</time></trkpt><trkpt lat="44.596432851944385" lon="8.006248002692988"><ele>419.79999999999995</ele><time>2026-04-12T08:04:15.999Z</time></trkpt><trkpt lat="44.59636151042815" lon="8.006152091425685"><ele>418.2</ele><time>2026-04-12T08:04:17.999Z</time></trkpt><trkpt lat="44.59629646311988" lon="8.006072639699447"><ele>416.6</ele><time>2026-04-12T08:04:19.999Z</time></trkpt><trkpt lat="44.59623245698638" lon="8.005976224959626"><ele>415.0</ele><time>2026-04-12T08:04:21.999Z</time></trkpt><trkpt lat="44.59616992421181" lon="8.00587314131638"><ele>418.2</ele><time>2026-04-12T08:04:23.999Z</time></trkpt><trkpt lat="44.59611104930851" lon="8.005759709873093"><ele>421.4</ele><time>2026-04-12T08:04:25.999Z</time></trkpt><trkpt lat="44.59605808841883" lon="8.005642914422303"><ele>424.6</ele><time>2026-04-12T08:04:27.999Z</time></trkpt><trkpt lat="44.59602041161674" lon="8.005530712564772"><ele>427.8</ele><time>2026-04-12T08:04:29.999Z</time></trkpt><trkpt lat="44.59600703639755" lon="8.005409066839185"><ele>431.0</ele><time>2026-04-12T08:04:31.999Z</time></trkpt><trkpt lat="44.59598827300876" lon="8.005288777476217"><ele>431.0</ele><time>2026-04-12T08:04:33.999Z</time></trkpt><trkpt lat="44.59597429524971" lon="8.00515317943283"><ele>431.0</ele><time>2026-04-12T08:04:35.999Z</time></trkpt><trkpt lat="44.595932743439306" lon="8.005019604709444"><ele>431.0</ele><time>2026-04-12T08:04:37.999Z</time></trkpt><trkpt lat="44.59585484081694" lon="8.004929623606907"><ele>431.0</ele><time>2026-04-12T08:04:39.999Z</time></trkpt><trkpt lat="44.59576046599205" lon="8.004868547847817"><ele>431.0</ele><time>2026-04-12T08:04:41.999Z</time></trkpt><trkpt lat="44.59566694879928" lon="8.004826851084156"><ele>429.4</ele><time>2026-04-12T08:04:43.999Z</time></trkpt><trkpt lat="44.59556743601651" lon="8.004794532142919"><ele>427.8</ele><time>2026-04-12T08:04:45.999Z</time></trkpt><trkpt lat="44.59546317169753" lon="8.004764442522648"><ele>426.2</ele><time>2026-04-12T08:04:47.999Z</time></trkpt><trkpt lat="44.59536054200093" lon="8.004718299826312"><ele>424.59999999999997</ele><time>2026-04-12T08:04:49.999Z</time></trkpt><trkpt lat="44.59526431394604" lon="8.00466118474316"><ele>423.0</ele><time>2026-04-12T08:04:51.998Z</time></trkpt><trkpt lat="44.59516999701472" lon="8.004590545696216"><ele>423.0</ele><time>2026-04-12T08:04:53.998Z</time></trkpt><trkpt lat="44.5950772086729" lon="8.004500906339127"><ele>423.0</ele><time>2026-04-12T08:04:56Z</time></trkpt><trkpt lat="44.594990100877546" lon="8.00440728681546"><ele>423.0</ele><time>2026-04-12T08:04:58Z</time></trkpt><trkpt lat="44.59490414151138" lon="8.004319053661781"><ele>423.0</ele><time>2026-04-12T08:05:00Z</time></trkpt><trkpt lat="44.59482341161319" lon="8.004226417078007"><ele>423.0</ele><time>2026-04-12T08:05:02Z</time></trkpt><trkpt lat="44.5947388648316" lon="8.00413435814442"><ele>423.59999999999997</ele><time>2026-04-12T08:05:04Z</time></trkpt><trkpt lat="44.59465856708521" lon="8.004023928732652"><ele>424.2</ele><time>2026-04-12T08:05:06Z</time></trkpt><trkpt lat="44.594586545503844" lon="8.003918628132313"><ele>424.8</ele><time>2026-04-12T08:05:08Z</time></trkpt><trkpt lat="44.59450730087519" lon="8.003806310037536"><ele>425.4</ele><time>2026-04-12T08:05:10Z</time></trkpt><trkpt lat="44.594447562603875" lon="8.003686223542303"><ele>426.0</ele><time>2026-04-12T08:05:12Z</time></trkpt><trkpt lat="44.59437553444765" lon="8.003555700407857"><ele>426.0</ele><time>2026-04-12T08:05:14Z</time></trkpt><trkpt lat="44.594308265337524" lon="8.00344161967714"><ele>426.0</ele><time>2026-04-12T08:05:16Z</time></trkpt><trkpt lat="44.59423608005333" lon="8.003340699880802"><ele>426.0</ele><time>2026-04-12T08:05:18Z</time></trkpt><trkpt lat="44.59415067957212" lon="8.003261033099216"><ele>426.0</ele><time>2026-04-12T08:05:20Z</time></trkpt><trkpt lat="44.594063790618854" lon="8.003182743742602"><ele>426.0</ele><time>2026-04-12T08:05:22Z</time></trkpt><trkpt lat="44.59398042796854" lon="8.003112063458364"><ele>425.20000000000005</ele><time>2026-04-12T08:05:24Z</time></trkpt><trkpt lat="44.59388941820899" lon="8.003035025191235"><ele>424.40000000000003</ele><time>2026-04-12T08:05:26Z</time></trkpt><trkpt lat="44.59379483208579" lon="8.00296083831579"><ele>423.6</ele><time>2026-04-12T08:05:28Z</time></trkpt><trkpt lat="44.59370839142989" lon="8.002886809555351"><ele>422.8</ele><time>2026-04-12T08:05:30Z</time></trkpt><trkpt lat="44.59362133835561" lon="8.002810689361954"><ele>422.0</ele><time>2026-04-12T08:05:32Z</time></trkpt><trkpt lat="44.59354108160838" lon="8.002745457326785"><ele>423.8</ele><time>2026-04-12T08:05:34Z</time></trkpt><trkpt lat="44.59345742139412" lon="8.002691753061605"><ele>425.6</ele><time>2026-04-12T08:05:36Z</time></trkpt><trkpt lat="44.593373055833865" lon="8.002651854791317"><ele>427.40000000000003</ele><time>2026-04-12T08:05:38Z</time></trkpt><trkpt lat="44.59327914244931" lon="8.00262062534094"><ele>429.20000000000005</ele><time>2026-04-12T08:05:40Z</time></trkpt><trkpt lat="44.59318149136951" lon="8.00262269044643"><ele>431.0</ele><time>2026-04-12T08:05:42Z</time></trkpt><trkpt lat="44.59307882459967" lon="8.00264506790479"><ele>431.0</ele><time>2026-04-12T08:05:43.999Z</time></trkpt><trkpt lat="44.592979511535695" lon="8.002677183620658"><ele>431.0</ele><time>2026-04-12T08:05:45.999Z</time></trkpt><trkpt lat="44.59287789895757" lon="8.002727591733793"><ele>431.0</ele><time>2026-04-12T08:05:47.999Z</time></trkpt><trkpt lat="44.59277659508771" lon="8.002772926107095"><ele>431.0</ele><time>2026-04-12T08:05:49.999Z</time></trkpt><trkpt lat="44.5926836594377" lon="8.002813751420154"><ele>431.0</ele><time>2026-04-12T08:05:51.999Z</time></trkpt><trkpt lat="44.59259315785788" lon="8.002860542428706"><ele>430.6</ele><time>2026-04-12T08:05:53.999Z</time></trkpt><trkpt lat="44.59249821703861" lon="8.002900889049274"><ele>430.20000000000005</ele><time>2026-04-12T08:05:55.999Z</time></trkpt><trkpt lat="44.592408773388144" lon="8.002942449579463"><ele>429.79999999999995</ele><time>2026-04-12T08:05:57.999Z</time></trkpt><trkpt lat="44.59231657995731" lon="8.002969341183146"><ele>429.4</ele><time>2026-04-12T08:05:59.999Z</time></trkpt><trkpt lat="44.59223150294776" lon="8.002995043527172"><ele>429.0</ele><time>2026-04-12T08:06:01.999Z</time></trkpt><trkpt lat="44.592145490687585" lon="8.003013078014803"><ele>429.0</ele><time>2026-04-12T08:06:03.999Z</time></trkpt><trkpt lat="44.592047076862016" lon="8.003027300767553"><ele>429.0</ele><time>2026-04-12T08:06:05.999Z</time></trkpt><trkpt lat="44.59195090898128" lon="8.003035827825586"><ele>429.0</ele><time>2026-04-12T08:06:07.999Z</time></trkpt><trkpt lat="44.59185567111983" lon="8.003035563106211"><ele>429.0</ele><time>2026-04-12T08:06:09.999Z</time></trkpt><trkpt lat="44.591761148198664" lon="8.003033778896599"><ele>429.0</ele><time>2026-04-12T08:06:11.999Z</time></trkpt><trkpt lat="44.59166913220032" lon="8.003023648816688"><ele>429.4</ele><time>2026-04-12T08:06:13.999Z</time></trkpt><trkpt lat="44.59157397512071" lon="8.003016129668728"><ele>429.79999999999995</ele><time>2026-04-12T08:06:15.999Z</time></trkpt><trkpt lat="44.59147723997318" lon="8.0030096729851"><ele>430.20000000000005</ele><time>2026-04-12T08:06:17.999Z</time></trkpt><trkpt lat="44.5913772519698" lon="8.002995853452072"><ele>430.6</ele><time>2026-04-12T08:06:19.999Z</time></trkpt><trkpt lat="44.59127421445696" lon="8.002989672687955"><ele>431.0</ele><time>2026-04-12T08:06:21.999Z</time></trkpt><trkpt lat="44.591177070916295" lon="8.002977119200184"><ele>431.6</ele><time>2026-04-12T08:06:23.999Z</time></trkpt><trkpt lat="44.59108381007823" lon="8.002965440351925"><ele>432.20000000000005</ele><time>2026-04-12T08:06:25.999Z</time></trkpt><trkpt lat="44.590990531066645" lon="8.00295472597625"><ele>432.79999999999995</ele><time>2026-04-12T08:06:27.999Z</time></trkpt><trkpt lat="44.59091640608379" lon="8.00294957097013"><ele>433.4</ele><time>2026-04-12T08:06:29.999Z</time></trkpt><trkpt lat="44.59082856608281" lon="8.002941660951567"><ele>434.0</ele><time>2026-04-12T08:06:30.999Z</time></trkpt><trkpt lat="44.59071205527821" lon="8.002936749821504"><ele>433.99999999999994</ele><time>2026-04-12T08:06:32.999Z</time></trkpt><trkpt lat="44.59058140074836" lon="8.002917829209782"><ele>434.0</ele><time>2026-04-12T08:06:34.999Z</time></trkpt><trkpt lat="44.59051207903385" lon="8.002910317578126"><ele>434.0</ele><time>2026-04-12T08:06:35.999Z</time></trkpt><trkpt lat="44.590436446403" lon="8.002906436183952"><ele>434.0</ele><time>2026-04-12T08:06:36.999Z</time></trkpt><trkpt lat="44.590362386277604" lon="8.00289944539709"><ele>433.99999999999994</ele><time>2026-04-12T08:06:37.999Z</time></trkpt><trkpt lat="44.59029082059543" lon="8.002892569642478"><ele>434.0</ele><time>2026-04-12T08:06:38.999Z</time></trkpt><trkpt lat="44.59021425335268" lon="8.002887905833383"><ele>432.99999999999994</ele><time>2026-04-12T08:06:39.999Z</time></trkpt><trkpt lat="44.59013585731614" lon="8.002878375561348"><ele>432.0</ele><time>2026-04-12T08:06:40.999Z</time></trkpt><trkpt lat="44.590053858530766" lon="8.002872548633306"><ele>431.0</ele><time>2026-04-12T08:06:41.999Z</time></trkpt><trkpt lat="44.58996967488532" lon="8.00287935748521"><ele>430.0</ele><time>2026-04-12T08:06:42.999Z</time></trkpt><trkpt lat="44.58988666540904" lon="8.002899904456818"><ele>428.99999999999994</ele><time>2026-04-12T08:06:43.999Z</time></trkpt><trkpt lat="44.58980341960495" lon="8.00292802118742"><ele>428.0</ele><time>2026-04-12T08:06:44.999Z</time></trkpt><trkpt lat="44.589723267775" lon="8.002975419376256"><ele>428.0</ele><time>2026-04-12T08:06:45.999Z</time></trkpt><trkpt lat="44.58964306598422" lon="8.003029947193566"><ele>427.99999999999994</ele><time>2026-04-12T08:06:46.999Z</time></trkpt><trkpt lat="44.58957134071903" lon="8.003109583854712"><ele>427.99999999999994</ele><time>2026-04-12T08:06:47.999Z</time></trkpt><trkpt lat="44.58950253476741" lon="8.0031996862067"><ele>428.0</ele><time>2026-04-12T08:06:48.999Z</time></trkpt><trkpt lat="44.58943827934685" lon="8.003299029018464"><ele>428.0</ele><time>2026-04-12T08:06:49.999Z</time></trkpt><trkpt lat="44.58937000548583" lon="8.00339879384953"><ele>428.4</ele><time>2026-04-12T08:06:50.999Z</time></trkpt><trkpt lat="44.58930122578399" lon="8.003509056139805"><ele>428.79999999999995</ele><time>2026-04-12T08:06:51.999Z</time></trkpt><trkpt lat="44.589220960799324" lon="8.003627932987943"><ele>429.2</ele><time>2026-04-12T08:06:52.999Z</time></trkpt><trkpt lat="44.58915565501043" lon="8.003739779895461"><ele>429.6</ele><time>2026-04-12T08:06:53.999Z</time></trkpt><trkpt lat="44.58908452107754" lon="8.003855591078594"><ele>430.0</ele><time>2026-04-12T08:06:54.999Z</time></trkpt><trkpt lat="44.58901258284223" lon="8.003971960068347"><ele>430.0</ele><time>2026-04-12T08:06:55.999Z</time></trkpt><trkpt lat="44.58894144244498" lon="8.004094256250317"><ele>430.0</ele><time>2026-04-12T08:06:56.999Z</time></trkpt><trkpt lat="44.5888682873636" lon="8.004211062048673"><ele>430.0</ele><time>2026-04-12T08:06:57.998Z</time></trkpt><trkpt lat="44.5887937555229" lon="8.004334025726052"><ele>430.0</ele><time>2026-04-12T08:06:58.998Z</time></trkpt><trkpt lat="44.588718839880826" lon="8.004453399928877"><ele>426.0</ele><time>2026-04-12T08:06:59.998Z</time></trkpt><trkpt lat="44.588645493408514" lon="8.004573738309778"><ele>422.0</ele><time>2026-04-12T08:07:01Z</time></trkpt><trkpt lat="44.58857769876535" lon="8.004700231038022"><ele>418.0</ele><time>2026-04-12T08:07:02Z</time></trkpt><trkpt lat="44.58851107576344" lon="8.004830310249654"><ele>414.0</ele><time>2026-04-12T08:07:03Z</time></trkpt><trkpt lat="44.58845821946701" lon="8.004965739564891"><ele>415.2</ele><time>2026-04-12T08:07:04Z</time></trkpt><trkpt lat="44.58841333840431" lon="8.005109397879966"><ele>416.4</ele><time>2026-04-12T08:07:05Z</time></trkpt><trkpt lat="44.588380436913276" lon="8.00525009437747"><ele>417.6</ele><time>2026-04-12T08:07:06Z</time></trkpt><trkpt lat="44.588360875813784" lon="8.00539836526214"><ele>418.8</ele><time>2026-04-12T08:07:07Z</time></trkpt><trkpt lat="44.588352951305104" lon="8.00554132351938"><ele>420.0</ele><time>2026-04-12T08:07:08Z</time></trkpt><trkpt lat="44.58835352117503" lon="8.005680167197173"><ele>420.0</ele><time>2026-04-12T08:07:09Z</time></trkpt><trkpt lat="44.588360769061154" lon="8.005809459954689"><ele>420.0</ele><time>2026-04-12T08:07:10Z</time></trkpt><trkpt lat="44.58837479996525" lon="8.0059337370487"><ele>420.0</ele><time>2026-04-12T08:07:11Z</time></trkpt><trkpt lat="44.588396470418786" lon="8.006046440587355"><ele>420.0</ele><time>2026-04-12T08:07:12Z</time></trkpt><trkpt lat="44.58842381713715" lon="8.006145805645154"><ele>420.0</ele><time>2026-04-12T08:07:13Z</time></trkpt><trkpt lat="44.588448516493116" lon="8.006239545930288"><ele>420.0</ele><time>2026-04-12T08:07:14Z</time></trkpt><trkpt lat="44.588473109449325" lon="8.006324187334764"><ele>421.4</ele><time>2026-04-12T08:07:15Z</time></trkpt><trkpt lat="44.588517414279785" lon="8.006471357872131"><ele>422.8</ele><time>2026-04-12T08:07:17Z</time></trkpt><trkpt lat="44.5885525847433" lon="8.006598242289517"><ele>424.20000000000005</ele><time>2026-04-12T08:07:19Z</time></trkpt><trkpt lat="44.58854632257033" lon="8.006720426797429"><ele>425.6</ele><time>2026-04-12T08:07:21Z</time></trkpt><trkpt lat="44.58849795526595" lon="8.006807333508723"><ele>427.0</ele><time>2026-04-12T08:07:23Z</time></trkpt><trkpt lat="44.58843770321936" lon="8.006873738212306"><ele>428.14285714285717</ele><time>2026-04-12T08:07:25Z</time></trkpt><trkpt lat="44.58837323886976" lon="8.006894820228206"><ele>429.2857142857143</ele><time>2026-04-12T08:07:27Z</time></trkpt><trkpt lat="44.588307248687265" lon="8.00690107641886"><ele>430.42857142857144</ele><time>2026-04-12T08:07:29Z</time></trkpt><trkpt lat="44.588243515875824" lon="8.006893583656012"><ele>431.57142857142856</ele><time>2026-04-12T08:07:31Z</time></trkpt><trkpt lat="44.58817644801238" lon="8.006873131929622"><ele>432.7142857142857</ele><time>2026-04-12T08:07:33Z</time></trkpt><trkpt lat="44.58810882336183" lon="8.006861242217616"><ele>433.8571428571429</ele><time>2026-04-12T08:07:35Z</time></trkpt><trkpt lat="44.58803677954261" lon="8.00685137493552"><ele>435.0</ele><time>2026-04-12T08:07:37Z</time></trkpt><trkpt lat="44.587965805156564" lon="8.006834194253088"><ele>435.0</ele><time>2026-04-12T08:07:39Z</time></trkpt><trkpt lat="44.5878969572711" lon="8.006828305124646"><ele>435.0</ele><time>2026-04-12T08:07:41Z</time></trkpt><trkpt lat="44.58782843483145" lon="8.00681896877693"><ele>435.0</ele><time>2026-04-12T08:07:43Z</time></trkpt><trkpt lat="44.58775794311834" lon="8.006807217273291"><ele>435.0</ele><time>2026-04-12T08:07:45Z</time></trkpt><trkpt lat="44.58768981540807" lon="8.006795508391162"><ele>435.0</ele><time>2026-04-12T08:07:47Z</time></trkpt><trkpt lat="44.587594112814344" lon="8.006792084664301"><ele>435.0</ele><time>2026-04-12T08:07:49.999Z</time></trkpt><trkpt lat="44.58750067154632" lon="8.006780788300269"><ele>435.00000000000006</ele><time>2026-04-12T08:07:52.999Z</time></trkpt><trkpt lat="44.587433886580115" lon="8.006791041899971"><ele>435.0</ele><time>2026-04-12T08:07:54.999Z</time></trkpt><trkpt lat="44.58737070219359" lon="8.006802414091634"><ele>435.0</ele><time>2026-04-12T08:07:56.999Z</time></trkpt><trkpt lat="44.587281549742166" lon="8.006825875517114"><ele>435.0</ele><time>2026-04-12T08:07:59.999Z</time></trkpt><trkpt lat="44.587221576661236" lon="8.006860938005856"><ele>435.0</ele><time>2026-04-12T08:08:01.999Z</time></trkpt><trkpt lat="44.587150385520346" lon="8.006917321543325"><ele>435.00000000000006</ele><time>2026-04-12T08:08:04.999Z</time></trkpt><trkpt lat="44.587094657433" lon="8.00696290481517"><ele>435.0</ele><time>2026-04-12T08:08:06.999Z</time></trkpt><trkpt lat="44.587034626548785" lon="8.007038247284221"><ele>435.8333333333333</ele><time>2026-04-12T08:08:09.999Z</time></trkpt><trkpt lat="44.58698423466472" lon="8.007147669828194"><ele>436.66666666666663</ele><time>2026-04-12T08:08:12.999Z</time></trkpt><trkpt lat="44.58692735628957" lon="8.00723547201539"><ele>437.5</ele><time>2026-04-12T08:08:15.999Z</time></trkpt><trkpt lat="44.586892346599676" lon="8.007348994302243"><ele>438.3333333333333</ele><time>2026-04-12T08:08:18.999Z</time></trkpt><trkpt lat="44.58686401648715" lon="8.007459371055798"><ele>439.16666666666663</ele><time>2026-04-12T08:08:21.999Z</time></trkpt><trkpt lat="44.58683954432794" lon="8.007577938685396"><ele>440.0</ele><time>2026-04-12T08:08:24.999Z</time></trkpt><trkpt lat="44.58682719147267" lon="8.007684665155603"><ele>439.99999999999994</ele><time>2026-04-12T08:08:27.999Z</time></trkpt><trkpt lat="44.586823831283404" lon="8.007809697383351"><ele>440.0</ele><time>2026-04-12T08:08:30.999Z</time></trkpt><trkpt lat="44.58684541668801" lon="8.007932406022805"><ele>440.0</ele><time>2026-04-12T08:08:33.999Z</time></trkpt><trkpt lat="44.58685974986633" lon="8.008019741935337"><ele>440.0</ele><time>2026-04-12T08:08:35.999Z</time></trkpt><trkpt lat="44.586887114145725" lon="8.00814289428416"><ele>439.99999999999994</ele><time>2026-04-12T08:08:38.999Z</time></trkpt><trkpt lat="44.586906920460876" lon="8.008274663584357"><ele>440.0</ele><time>2026-04-12T08:08:41.999Z</time></trkpt><trkpt lat="44.58692420337432" lon="8.008384854515988"><ele>441.3333333333333</ele><time>2026-04-12T08:08:44.999Z</time></trkpt><trkpt lat="44.58692492721019" lon="8.008493116410646"><ele>442.66666666666663</ele><time>2026-04-12T08:08:47.999Z</time></trkpt><trkpt lat="44.58690850199971" lon="8.008608632276388"><ele>444.0</ele><time>2026-04-12T08:08:50.999Z</time></trkpt><trkpt lat="44.586874572412455" lon="8.00871054257716"><ele>445.33333333333337</ele><time>2026-04-12T08:08:53.999Z</time></trkpt><trkpt lat="44.586806665783826" lon="8.008798376508441"><ele>446.6666666666667</ele><time>2026-04-12T08:08:56.999Z</time></trkpt><trkpt lat="44.586732762532876" lon="8.008875622505295"><ele>448.0</ele><time>2026-04-12T08:08:59.999Z</time></trkpt><trkpt lat="44.58667924787579" lon="8.008923129449576"><ele>448.00000000000006</ele><time>2026-04-12T08:09:01.999Z</time></trkpt><trkpt lat="44.58661340515584" lon="8.00900055823003"><ele>448.0</ele><time>2026-04-12T08:09:04.998Z</time></trkpt><trkpt lat="44.5865501424895" lon="8.009078020595084"><ele>448.0</ele><time>2026-04-12T08:09:08Z</time></trkpt><trkpt lat="44.58648935285685" lon="8.00916252342326"><ele>448.0</ele><time>2026-04-12T08:09:11Z</time></trkpt><trkpt lat="44.58643310530095" lon="8.009256325002942"><ele>448.00000000000006</ele><time>2026-04-12T08:09:14Z</time></trkpt><trkpt lat="44.586382602791716" lon="8.009358083024962"><ele>448.0</ele><time>2026-04-12T08:09:17Z</time></trkpt><trkpt lat="44.586335222773684" lon="8.00946073696731"><ele>447.83333333333337</ele><time>2026-04-12T08:09:20Z</time></trkpt><trkpt lat="44.58628653638382" lon="8.009568232612091"><ele>447.6666666666667</ele><time>2026-04-12T08:09:23Z</time></trkpt><trkpt lat="44.586260896620566" lon="8.009671837880946"><ele>447.5</ele><time>2026-04-12T08:09:26Z</time></trkpt><trkpt lat="44.58620567638946" lon="8.00976020515135"><ele>447.33333333333337</ele><time>2026-04-12T08:09:29Z</time></trkpt><trkpt lat="44.5861585800855" lon="8.009850741379326"><ele>447.1666666666667</ele><time>2026-04-12T08:09:32Z</time></trkpt><trkpt lat="44.586120124755105" lon="8.009923299072806"><ele>447.0</ele><time>2026-04-12T08:09:34Z</time></trkpt><trkpt lat="44.58606239166624" lon="8.010008844962627"><ele>450.3333333333333</ele><time>2026-04-12T08:09:37Z</time></trkpt><trkpt lat="44.58600016973739" lon="8.010089838420308"><ele>453.66666666666663</ele><time>2026-04-12T08:09:40Z</time></trkpt><trkpt lat="44.58594496605275" lon="8.010135461091767"><ele>457.0</ele><time>2026-04-12T08:09:42Z</time></trkpt><trkpt lat="44.5858631303448" lon="8.010178907184537"><ele>460.3333333333333</ele><time>2026-04-12T08:09:45Z</time></trkpt><trkpt lat="44.58579087386172" lon="8.010199196989392"><ele>463.66666666666663</ele><time>2026-04-12T08:09:47Z</time></trkpt><trkpt lat="44.585707769899145" lon="8.010195332259341"><ele>467.0</ele><time>2026-04-12T08:09:50Z</time></trkpt><trkpt lat="44.58562503478106" lon="8.010187791390695"><ele>466.99999999999994</ele><time>2026-04-12T08:09:53Z</time></trkpt><trkpt lat="44.585544553715984" lon="8.01017827366013"><ele>467.0</ele><time>2026-04-12T08:09:55.999Z</time></trkpt><trkpt lat="44.58546108182737" lon="8.010180522943323"><ele>467.0</ele><time>2026-04-12T08:09:58.999Z</time></trkpt><trkpt lat="44.585379149789176" lon="8.010212731589029"><ele>467.0</ele><time>2026-04-12T08:10:01.999Z</time></trkpt><trkpt lat="44.585309504727675" lon="8.010295221954646"><ele>466.99999999999994</ele><time>2026-04-12T08:10:04.999Z</time></trkpt><trkpt lat="44.5852728542025" lon="8.010405351805389"><ele>467.0</ele><time>2026-04-12T08:10:07.999Z</time></trkpt><trkpt lat="44.585272500285484" lon="8.010526589316536"><ele>466.99999999999994</ele><time>2026-04-12T08:10:10.999Z</time></trkpt><trkpt lat="44.5853009046375" lon="8.010626478080198"><ele>467.0</ele><time>2026-04-12T08:10:13.999Z</time></trkpt><trkpt lat="44.585356834826094" lon="8.010707482104744"><ele>466.99999999999994</ele><time>2026-04-12T08:10:16.999Z</time></trkpt><trkpt lat="44.585438643975486" lon="8.010765835352274"><ele>466.99999999999994</ele><time>2026-04-12T08:10:19.999Z</time></trkpt><trkpt lat="44.58550324130796" lon="8.01077081992097"><ele>467.0</ele><time>2026-04-12T08:10:21.999Z</time></trkpt><trkpt lat="44.585568585539455" lon="8.010779239856033"><ele>466.99999999999994</ele><time>2026-04-12T08:10:23.999Z</time></trkpt><trkpt lat="44.5856318929916" lon="8.010807284383063"><ele>466.99999999999994</ele><time>2026-04-12T08:10:25.999Z</time></trkpt><trkpt lat="44.58570358610652" lon="8.010800501736323"><ele>466.99999999999994</ele><time>2026-04-12T08:10:27.999Z</time></trkpt><trkpt lat="44.58580019906344" lon="8.01080144336589"><ele>467.0</ele><time>2026-04-12T08:10:30.999Z</time></trkpt><trkpt lat="44.585871069040586" lon="8.010796642165566"><ele>467.0</ele><time>2026-04-12T08:10:32.999Z</time></trkpt><trkpt lat="44.58594272714651" lon="8.010783122154784"><ele>467.0</ele><time>2026-04-12T08:10:34.999Z</time></trkpt><trkpt lat="44.58602145274376" lon="8.010782746503681"><ele>466.99999999999994</ele><time>2026-04-12T08:10:36.999Z</time></trkpt><trkpt lat="44.58609640118455" lon="8.010747142935086"><ele>467.0</ele><time>2026-04-12T08:10:38.999Z</time></trkpt><trkpt lat="44.58615717535598" lon="8.010678407930316"><ele>468.99999999999994</ele><time>2026-04-12T08:10:40.999Z</time></trkpt><trkpt lat="44.58621970845667" lon="8.010625601212912"><ele>471.0</ele><time>2026-04-12T08:10:42.999Z</time></trkpt><trkpt lat="44.58629897037662" lon="8.010546523693744"><ele>473.0</ele><time>2026-04-12T08:10:45.999Z</time></trkpt><trkpt lat="44.58635378715375" lon="8.010481970555945"><ele>475.0</ele><time>2026-04-12T08:10:47.999Z</time></trkpt><trkpt lat="44.586412834600246" lon="8.010420131284464"><ele>476.99999999999994</ele><time>2026-04-12T08:10:49.999Z</time></trkpt><trkpt lat="44.586469560544316" lon="8.010374586653764"><ele>479.0</ele><time>2026-04-12T08:10:51.999Z</time></trkpt><trkpt lat="44.58655243618412" lon="8.01040375054004"><ele>479.0</ele><time>2026-04-12T08:10:54.999Z</time></trkpt><trkpt lat="44.58657019655984" lon="8.010515925100899"><ele>479.0</ele><time>2026-04-12T08:10:57.999Z</time></trkpt><trkpt lat="44.586519933063286" lon="8.010589435024762"><ele>479.0</ele><time>2026-04-12T08:10:59.999Z</time></trkpt><trkpt lat="44.58645991162224" lon="8.010658915533272"><ele>479.0</ele><time>2026-04-12T08:11:02.999Z</time></trkpt><trkpt lat="44.586398661913826" lon="8.010715230966413"><ele>479.0</ele><time>2026-04-12T08:11:04.999Z</time></trkpt><trkpt lat="44.58634226394957" lon="8.010761218382859"><ele>479.0</ele><time>2026-04-12T08:11:06.999Z</time></trkpt><trkpt lat="44.58629577303802" lon="8.010825270588102"><ele>479.0</ele><time>2026-04-12T08:11:08.999Z</time></trkpt><trkpt lat="44.58621448029336" lon="8.010900390479136"><ele>479.66666666666663</ele><time>2026-04-12T08:11:11.998Z</time></trkpt><trkpt lat="44.5861602900734" lon="8.010949260811822"><ele>480.3333333333333</ele><time>2026-04-12T08:11:14Z</time></trkpt><trkpt lat="44.586110263872875" lon="8.01100535683019"><ele>481.0</ele><time>2026-04-12T08:11:16Z</time></trkpt><trkpt lat="44.586043868997415" lon="8.01108321187139"><ele>481.66666666666663</ele><time>2026-04-12T08:11:19Z</time></trkpt><trkpt lat="44.585991153392335" lon="8.011136005178539"><ele>482.3333333333333</ele><time>2026-04-12T08:11:21Z</time></trkpt><trkpt lat="44.585930493193516" lon="8.011222366607058"><ele>483.0</ele><time>2026-04-12T08:11:24Z</time></trkpt><trkpt lat="44.58586686675041" lon="8.011304796860294"><ele>483.0</ele><time>2026-04-12T08:11:27Z</time></trkpt><trkpt lat="44.58580664632843" lon="8.01139799101515"><ele>483.0</ele><time>2026-04-12T08:11:30Z</time></trkpt><trkpt lat="44.58575212227223" lon="8.011511119123297"><ele>483.0</ele><time>2026-04-12T08:11:35Z</time></trkpt><trkpt lat="44.585686687375144" lon="8.01162273718603"><ele>483.0</ele><time>2026-04-12T08:11:39Z</time></trkpt><trkpt lat="44.58565868246362" lon="8.011703919161837"><ele>483.0</ele><time>2026-04-12T08:11:42Z</time></trkpt><trkpt lat="44.5856118855877" lon="8.011817029039177"><ele>483.0</ele><time>2026-04-12T08:11:45Z</time></trkpt><trkpt lat="44.58556638828217" lon="8.011926492638489"><ele>484.1666666666667</ele><time>2026-04-12T08:11:48Z</time></trkpt><trkpt lat="44.58551855823607" lon="8.012008754346146"><ele>485.33333333333337</ele><time>2026-04-12T08:11:51Z</time></trkpt><trkpt lat="44.58545773668107" lon="8.012146104840205"><ele>486.5</ele><time>2026-04-12T08:11:54Z</time></trkpt><trkpt lat="44.58542532629303" lon="8.01222440158444"><ele>487.6666666666667</ele><time>2026-04-12T08:11:55Z</time></trkpt><trkpt lat="44.58536645998546" lon="8.012327645059448"><ele>488.83333333333337</ele><time>2026-04-12T08:11:57Z</time></trkpt><trkpt lat="44.58531808684104" lon="8.012409824351852"><ele>490.0</ele><time>2026-04-12T08:11:59Z</time></trkpt><trkpt lat="44.585270083912704" lon="8.012494100814312"><ele>492.00000000000006</ele><time>2026-04-12T08:12:02Z</time></trkpt><trkpt lat="44.58521636621509" lon="8.012575322912014"><ele>494.0</ele><time>2026-04-12T08:12:04.999Z</time></trkpt><trkpt lat="44.585237595238304" lon="8.012684340670075"><ele>496.0</ele><time>2026-04-12T08:12:07.999Z</time></trkpt><trkpt lat="44.58524522656747" lon="8.012821156962545"><ele>498.0</ele><time>2026-04-12T08:12:10.999Z</time></trkpt><trkpt lat="44.585241407810244" lon="8.012937530172952"><ele>500.00000000000006</ele><time>2026-04-12T08:12:12.999Z</time></trkpt><trkpt lat="44.58524822955825" lon="8.013043980038235"><ele>502.0</ele><time>2026-04-12T08:12:13.999Z</time></trkpt><trkpt lat="44.58525126966098" lon="8.01313678601029"><ele>502.0</ele><time>2026-04-12T08:12:14.999Z</time></trkpt><trkpt lat="44.585256080727774" lon="8.013225564145552"><ele>502.00000000000006</ele><time>2026-04-12T08:12:15.999Z</time></trkpt><trkpt lat="44.58526835091081" lon="8.013367029484822"><ele>502.00000000000006</ele><time>2026-04-12T08:12:17.999Z</time></trkpt><trkpt lat="44.58528086519933" lon="8.013529202849845"><ele>502.0</ele><time>2026-04-12T08:12:19.999Z</time></trkpt><trkpt lat="44.58530596400798" lon="8.013698826640631"><ele>502.0</ele><time>2026-04-12T08:12:21.999Z</time></trkpt><trkpt lat="44.58531164310827" lon="8.013793092858966"><ele>503.20000000000005</ele><time>2026-04-12T08:12:22.999Z</time></trkpt><trkpt lat="44.585339834602316" lon="8.013884426641495"><ele>504.40000000000003</ele><time>2026-04-12T08:12:23.999Z</time></trkpt><trkpt lat="44.58541428806091" lon="8.014048855188667"><ele>505.59999999999997</ele><time>2026-04-12T08:12:25.999Z</time></trkpt><trkpt lat="44.58545945933474" lon="8.014135827501736"><ele>506.79999999999995</ele><time>2026-04-12T08:12:26.999Z</time></trkpt><trkpt lat="44.585508943234515" lon="8.014225311539057"><ele>508.0</ele><time>2026-04-12T08:12:27.999Z</time></trkpt><trkpt lat="44.585572110858195" lon="8.014305598520577"><ele>504.6666666666667</ele><time>2026-04-12T08:12:28.999Z</time></trkpt><trkpt lat="44.5856161742069" lon="8.014405084756437"><ele>501.33333333333337</ele><time>2026-04-12T08:12:29.999Z</time></trkpt><trkpt lat="44.58566743134759" lon="8.014495240990941"><ele>498.0</ele><time>2026-04-12T08:12:30.999Z</time></trkpt><trkpt lat="44.58571439897506" lon="8.014598450628695"><ele>494.66666666666663</ele><time>2026-04-12T08:12:31.999Z</time></trkpt><trkpt lat="44.58575506312204" lon="8.014703082182923"><ele>491.3333333333333</ele><time>2026-04-12T08:12:32.999Z</time></trkpt><trkpt lat="44.58578283473495" lon="8.014812254012584"><ele>488.0</ele><time>2026-04-12T08:12:33.999Z</time></trkpt><trkpt lat="44.58579324822176" lon="8.014934180371041"><ele>488.16666666666663</ele><time>2026-04-12T08:12:34.999Z</time></trkpt><trkpt lat="44.58578183810944" lon="8.015046872355429"><ele>488.3333333333333</ele><time>2026-04-12T08:12:35.999Z</time></trkpt><trkpt lat="44.585759548485214" lon="8.015155951074542"><ele>488.5</ele><time>2026-04-12T08:12:36.999Z</time></trkpt><trkpt lat="44.58573580825127" lon="8.015267179662771"><ele>488.66666666666663</ele><time>2026-04-12T08:12:37.999Z</time></trkpt><trkpt lat="44.58573347359569" lon="8.015378907564175"><ele>488.8333333333333</ele><time>2026-04-12T08:12:38.999Z</time></trkpt><trkpt lat="44.58574796945389" lon="8.015489381211953"><ele>489.0</ele><time>2026-04-12T08:12:39.999Z</time></trkpt><trkpt lat="44.585779359934904" lon="8.015607469792274"><ele>489.0</ele><time>2026-04-12T08:12:40.999Z</time></trkpt><trkpt lat="44.585827999048085" lon="8.015705049179209"><ele>489.0</ele><time>2026-04-12T08:12:41.999Z</time></trkpt><trkpt lat="44.58586916537957" lon="8.015815260648703"><ele>489.0</ele><time>2026-04-12T08:12:42.999Z</time></trkpt><trkpt lat="44.58593110994588" lon="8.015898352469115"><ele>489.0</ele><time>2026-04-12T08:12:43.999Z</time></trkpt><trkpt lat="44.58599973758931" lon="8.015957895317428"><ele>489.0</ele><time>2026-04-12T08:12:44.999Z</time></trkpt><trkpt lat="44.58607258781721" lon="8.016002776096306"><ele>489.0</ele><time>2026-04-12T08:12:45.999Z</time></trkpt><trkpt lat="44.586132900739024" lon="8.016073430670257"><ele>489.1666666666667</ele><time>2026-04-12T08:12:46.999Z</time></trkpt><trkpt lat="44.58617595879393" lon="8.01616449681529"><ele>489.33333333333337</ele><time>2026-04-12T08:12:47.999Z</time></trkpt><trkpt lat="44.58620753909339" lon="8.016252149105501"><ele>489.5</ele><time>2026-04-12T08:12:48.999Z</time></trkpt><trkpt lat="44.58623635973425" lon="8.016395233448515"><ele>489.6666666666667</ele><time>2026-04-12T08:12:50.999Z</time></trkpt><trkpt lat="44.586254174032035" lon="8.01648652376191"><ele>489.83333333333337</ele><time>2026-04-12T08:12:52.999Z</time></trkpt><trkpt lat="44.58626935143995" lon="8.016573988782065"><ele>490.0</ele><time>2026-04-12T08:12:54.999Z</time></trkpt><trkpt lat="44.58630505165221" lon="8.016690740440742"><ele>490.0</ele><time>2026-04-12T08:12:57.999Z</time></trkpt><trkpt lat="44.58633066512236" lon="8.016773376511955"><ele>490.0</ele><time>2026-04-12T08:13:01.999Z</time></trkpt><trkpt lat="44.58628720160691" lon="8.01669854203708"><ele>490.0</ele><time>2026-04-12T08:13:19Z</time></trkpt><trkpt lat="44.58626802782411" lon="8.016608932530222"><ele>490.0</ele><time>2026-04-12T08:13:26Z</time></trkpt><trkpt lat="44.58624777887794" lon="8.016513526364232"><ele>490.0</ele><time>2026-04-12T08:13:32Z</time></trkpt><trkpt lat="44.58622876958646" lon="8.016421951134921"><ele>490.0</ele><time>2026-04-12T08:13:37Z</time></trkpt><trkpt lat="44.58620708642713" lon="8.016322498033022"><ele>490.0</ele><time>2026-04-12T08:13:40Z</time></trkpt><trkpt lat="44.58616765889703" lon="8.016204267773704"><ele>490.0</ele><time>2026-04-12T08:13:41Z</time></trkpt><trkpt lat="44.58612491127323" lon="8.016098757487427"><ele>490.0</ele><time>2026-04-12T08:13:44Z</time></trkpt><trkpt lat="44.586091582333495" lon="8.016018699352172"><ele>490.0</ele><time>2026-04-12T08:13:48Z</time></trkpt><trkpt lat="44.585819668711686" lon="8.015859893427574"><ele>490.0</ele><time>2026-04-12T08:13:49Z</time></trkpt><trkpt lat="44.58580639314315" lon="8.015742892885033"><ele>490.00000000000006</ele><time>2026-04-12T08:14:04Z</time></trkpt><trkpt lat="44.5857348543665" lon="8.0157517863532"><ele>490.0</ele><time>2026-04-12T08:14:10Z</time></trkpt><trkpt lat="44.58565998446871" lon="8.015765532139136"><ele>490.0</ele><time>2026-04-12T08:14:11.999Z</time></trkpt><trkpt lat="44.5855828725335" lon="8.015778029872097"><ele>490.0</ele><time>2026-04-12T08:14:13.999Z</time></trkpt><trkpt lat="44.58552646492882" lon="8.01583386835808"><ele>490.00000000000006</ele><time>2026-04-12T08:14:15.999Z</time></trkpt><trkpt lat="44.5854453360824" lon="8.015826119184247"><ele>490.0</ele><time>2026-04-12T08:14:17.999Z</time></trkpt><trkpt lat="44.58535796501934" lon="8.015811201508656"><ele>493.4</ele><time>2026-04-12T08:14:19.999Z</time></trkpt><trkpt lat="44.585276390571785" lon="8.015810101560646"><ele>496.8</ele><time>2026-04-12T08:14:21.999Z</time></trkpt><trkpt lat="44.5852163341304" lon="8.015766158791527"><ele>500.20000000000005</ele><time>2026-04-12T08:14:25.999Z</time></trkpt><trkpt lat="44.58499351687673" lon="8.01573754181601"><ele>503.6</ele><time>2026-04-12T08:14:30.999Z</time></trkpt><trkpt lat="44.584950948248924" lon="8.01566034609023"><ele>507.0</ele><time>2026-04-12T08:14:34.999Z</time></trkpt><trkpt lat="44.58489986239307" lon="8.015581815341887"><ele>507.0</ele><time>2026-04-12T08:14:39.999Z</time></trkpt><trkpt lat="44.584847887585035" lon="8.01550977365602"><ele>507.0</ele><time>2026-04-12T08:14:43.999Z</time></trkpt><trkpt lat="44.584795364762925" lon="8.015436223292625"><ele>507.0</ele><time>2026-04-12T08:14:48.999Z</time></trkpt><trkpt lat="44.5847372864139" lon="8.015366424103458"><ele>507.0</ele><time>2026-04-12T08:14:51.999Z</time></trkpt><trkpt lat="44.58468746108066" lon="8.015300188511066"><ele>507.0</ele><time>2026-04-12T08:14:54.999Z</time></trkpt><trkpt lat="44.58463306161743" lon="8.015246829421493"><ele>507.0</ele><time>2026-04-12T08:14:58.999Z</time></trkpt><trkpt lat="44.5845803216758" lon="8.015195724075765"><ele>507.0</ele><time>2026-04-12T08:15:01.999Z</time></trkpt><trkpt lat="44.58450948310296" lon="8.01513621020742"><ele>507.85714285714283</ele><time>2026-04-12T08:15:05.999Z</time></trkpt><trkpt lat="44.58444461730197" lon="8.015099622629853"><ele>508.7142857142858</ele><time>2026-04-12T08:15:09.999Z</time></trkpt><trkpt lat="44.584374519083696" lon="8.01506641063845"><ele>509.5714285714286</ele><time>2026-04-12T08:15:13.999Z</time></trkpt><trkpt lat="44.58431193542425" lon="8.015051055514194"><ele>510.42857142857144</ele><time>2026-04-12T08:15:16.999Z</time></trkpt><trkpt lat="44.584240839036624" lon="8.015057149245083"><ele>511.28571428571433</ele><time>2026-04-12T08:15:20.999Z</time></trkpt><trkpt lat="44.58415830957891" lon="8.015068355949781"><ele>512.1428571428572</ele><time>2026-04-12T08:15:25Z</time></trkpt><trkpt lat="44.58408500819157" lon="8.015078772591707"><ele>513.0</ele><time>2026-04-12T08:15:29Z</time></trkpt><trkpt lat="44.58400353224723" lon="8.01508278212423"><ele>513.0000000000001</ele><time>2026-04-12T08:15:33Z</time></trkpt><trkpt lat="44.58393197717395" lon="8.015078784083576"><ele>513.0</ele><time>2026-04-12T08:15:37Z</time></trkpt><trkpt lat="44.583867331168605" lon="8.015041048790527"><ele>513.0</ele><time>2026-04-12T08:15:41Z</time></trkpt><trkpt lat="44.583811893796735" lon="8.014992791668393"><ele>513.0</ele><time>2026-04-12T08:15:45Z</time></trkpt><trkpt lat="44.58375085190256" lon="8.014964344554324"><ele>513.0</ele><time>2026-04-12T08:15:49Z</time></trkpt><trkpt lat="44.583680330255014" lon="8.014921413037527"><ele>513.0000000000001</ele><time>2026-04-12T08:15:54Z</time></trkpt><trkpt lat="44.583626825596994" lon="8.01484498276537"><ele>513.0</ele><time>2026-04-12T08:15:59Z</time></trkpt><trkpt lat="44.583576956570205" lon="8.014779732935171"><ele>515.5714285714287</ele><time>2026-04-12T08:16:04Z</time></trkpt><trkpt lat="44.58352324332453" lon="8.014706453825283"><ele>518.1428571428571</ele><time>2026-04-12T08:16:10Z</time></trkpt><trkpt lat="44.58347222891212" lon="8.014628233017774"><ele>520.7142857142858</ele><time>2026-04-12T08:16:15Z</time></trkpt><trkpt lat="44.583410014245906" lon="8.01457283620407"><ele>523.2857142857143</ele><time>2026-04-12T08:16:18.999Z</time></trkpt><trkpt lat="44.58335990090204" lon="8.014507352127527"><ele>525.8571428571429</ele><time>2026-04-12T08:16:22.999Z</time></trkpt><trkpt lat="44.58330778667424" lon="8.014447328538495"><ele>528.4285714285714</ele><time>2026-04-12T08:16:26.999Z</time></trkpt><trkpt lat="44.58323249870779" lon="8.014407300376568"><ele>531.0</ele><time>2026-04-12T08:16:30.999Z</time></trkpt><trkpt lat="44.58316352255877" lon="8.014357836901128"><ele>531.0</ele><time>2026-04-12T08:16:33.999Z</time></trkpt><trkpt lat="44.5830915305457" lon="8.014328330850477"><ele>531.0</ele><time>2026-04-12T08:16:36.999Z</time></trkpt><trkpt lat="44.58300846901153" lon="8.01430400837197"><ele>531.0</ele><time>2026-04-12T08:16:39.999Z</time></trkpt><trkpt lat="44.58292900668822" lon="8.014297813294604"><ele>531.0</ele><time>2026-04-12T08:16:42.999Z</time></trkpt><trkpt lat="44.582838204168944" lon="8.014282795935257"><ele>531.0</ele><time>2026-04-12T08:16:45.999Z</time></trkpt><trkpt lat="44.58274317021875" lon="8.014291044789614"><ele>531.0</ele><time>2026-04-12T08:16:48.999Z</time></trkpt><trkpt lat="44.58267486417901" lon="8.01428792666695"><ele>530.0</ele><time>2026-04-12T08:16:50.999Z</time></trkpt><trkpt lat="44.58257985511963" lon="8.014281821142935"><ele>529.0</ele><time>2026-04-12T08:16:53.999Z</time></trkpt><trkpt lat="44.58248381027985" lon="8.014280020076738"><ele>528.0</ele><time>2026-04-12T08:16:56.999Z</time></trkpt><trkpt lat="44.58239425133884" lon="8.01427827366987"><ele>527.0</ele><time>2026-04-12T08:16:59.999Z</time></trkpt><trkpt lat="44.58233148276219" lon="8.014264475415354"><ele>526.0</ele><time>2026-04-12T08:17:01.999Z</time></trkpt><trkpt lat="44.58225052285362" lon="8.01423060433917"><ele>525.0</ele><time>2026-04-12T08:17:04.999Z</time></trkpt><trkpt lat="44.58216655553482" lon="8.01419006055728"><ele>525.0</ele><time>2026-04-12T08:17:07.999Z</time></trkpt><trkpt lat="44.58210176769845" lon="8.014180880366375"><ele>525.0</ele><time>2026-04-12T08:17:09.999Z</time></trkpt><trkpt lat="44.582035847372644" lon="8.014188100178858"><ele>525.0</ele><time>2026-04-12T08:17:11.999Z</time></trkpt><trkpt lat="44.58196671099935" lon="8.014182512612646"><ele>525.0</ele><time>2026-04-12T08:17:13.999Z</time></trkpt><trkpt lat="44.581894819231024" lon="8.014179330442381"><ele>525.0</ele><time>2026-04-12T08:17:15.999Z</time></trkpt><trkpt lat="44.58181846958298" lon="8.01416717901689"><ele>525.0</ele><time>2026-04-12T08:17:17.999Z</time></trkpt><trkpt lat="44.58174450232519" lon="8.014145771872526"><ele>525.0</ele><time>2026-04-12T08:17:19.999Z</time></trkpt><trkpt lat="44.581667733778396" lon="8.014115070856562"><ele>523.5</ele><time>2026-04-12T08:17:21.999Z</time></trkpt><trkpt lat="44.58158998413315" lon="8.014077645037526"><ele>522.0</ele><time>2026-04-12T08:17:23.999Z</time></trkpt><trkpt lat="44.58151783632301" lon="8.014046893673536"><ele>520.5</ele><time>2026-04-12T08:17:25.999Z</time></trkpt><trkpt lat="44.58144256408737" lon="8.014018159996425"><ele>519.0</ele><time>2026-04-12T08:17:27.999Z</time></trkpt><trkpt lat="44.581369010117825" lon="8.013986002963748"><ele>517.5</ele><time>2026-04-12T08:17:29.999Z</time></trkpt><trkpt lat="44.58130124905082" lon="8.01397206818432"><ele>516.0</ele><time>2026-04-12T08:17:32Z</time></trkpt><trkpt lat="44.58123084139374" lon="8.013958741732703"><ele>516.2857142857142</ele><time>2026-04-12T08:17:34Z</time></trkpt><trkpt lat="44.58115504990469" lon="8.013951059745033"><ele>516.5714285714286</ele><time>2026-04-12T08:17:36Z</time></trkpt><trkpt lat="44.58107884339064" lon="8.013944833981185"><ele>516.8571428571429</ele><time>2026-04-12T08:17:38Z</time></trkpt><trkpt lat="44.581009268686834" lon="8.013950815326064"><ele>517.1428571428571</ele><time>2026-04-12T08:17:40Z</time></trkpt><trkpt lat="44.58093447640024" lon="8.013950629050294"><ele>517.4285714285714</ele><time>2026-04-12T08:17:42Z</time></trkpt><trkpt lat="44.5808651714467" lon="8.013950018393738"><ele>517.7142857142857</ele><time>2026-04-12T08:17:44Z</time></trkpt><trkpt lat="44.580795161293004" lon="8.013954635839852"><ele>518.0</ele><time>2026-04-12T08:17:46Z</time></trkpt><trkpt lat="44.580730475017994" lon="8.013956534211617"><ele>518.0</ele><time>2026-04-12T08:17:48Z</time></trkpt><trkpt lat="44.58063641057982" lon="8.013954080226842"><ele>518.0</ele><time>2026-04-12T08:17:51Z</time></trkpt><trkpt lat="44.580544604411294" lon="8.013958973560955"><ele>518.0</ele><time>2026-04-12T08:17:54Z</time></trkpt><trkpt lat="44.58045666467527" lon="8.01395383165538"><ele>518.0</ele><time>2026-04-12T08:17:57Z</time></trkpt><trkpt lat="44.58037624455774" lon="8.013956971543726"><ele>518.0</ele><time>2026-04-12T08:18:00Z</time></trkpt><trkpt lat="44.580295255012736" lon="8.01395725627789"><ele>518.0</ele><time>2026-04-12T08:18:03Z</time></trkpt><trkpt lat="44.58021615648244" lon="8.013962329306286"><ele>519.1666666666666</ele><time>2026-04-12T08:18:06Z</time></trkpt><trkpt lat="44.58012054136827" lon="8.013965267210374"><ele>520.3333333333333</ele><time>2026-04-12T08:18:09Z</time></trkpt><trkpt lat="44.580053907299735" lon="8.01396474271988"><ele>521.5</ele><time>2026-04-12T08:18:11Z</time></trkpt><trkpt lat="44.57997542247077" lon="8.01395704042637"><ele>522.6666666666666</ele><time>2026-04-12T08:18:13Z</time></trkpt><trkpt lat="44.57989597959843" lon="8.013954404757518"><ele>523.8333333333334</ele><time>2026-04-12T08:18:15Z</time></trkpt><trkpt lat="44.57982940536099" lon="8.0139414884844"><ele>525.0</ele><time>2026-04-12T08:18:17Z</time></trkpt><trkpt lat="44.579764303582216" lon="8.01394205883927"><ele>525.0</ele><time>2026-04-12T08:18:19Z</time></trkpt><trkpt lat="44.57969236423154" lon="8.013926942654805"><ele>525.0</ele><time>2026-04-12T08:18:22.999Z</time></trkpt><trkpt lat="44.579617665317954" lon="8.013889670449093"><ele>525.0</ele><time>2026-04-12T08:18:26.999Z</time></trkpt><trkpt lat="44.579547349845306" lon="8.013800526464642"><ele>525.0</ele><time>2026-04-12T08:18:29.999Z</time></trkpt><trkpt lat="44.579493016028415" lon="8.013723977788587"><ele>525.0</ele><time>2026-04-12T08:18:32.999Z</time></trkpt><trkpt lat="44.57945043893767" lon="8.013632245483263"><ele>525.0</ele><time>2026-04-12T08:18:34.999Z</time></trkpt><trkpt lat="44.5794015798715" lon="8.013557390206548"><ele>526.8333333333334</ele><time>2026-04-12T08:18:37.999Z</time></trkpt><trkpt lat="44.579365133334434" lon="8.013476034658536"><ele>528.6666666666666</ele><time>2026-04-12T08:18:40.999Z</time></trkpt><trkpt lat="44.57931489966462" lon="8.013387770574639"><ele>530.5</ele><time>2026-04-12T08:18:43.999Z</time></trkpt><trkpt lat="44.57925115590557" lon="8.013289611115644"><ele>532.3333333333333</ele><time>2026-04-12T08:18:46.999Z</time></trkpt><trkpt lat="44.57917951322168" lon="8.013340762471502"><ele>534.1666666666666</ele><time>2026-04-12T08:18:50.999Z</time></trkpt><trkpt lat="44.57912752210433" lon="8.013419837889158"><ele>536.0</ele><time>2026-04-12T08:18:53.999Z</time></trkpt><trkpt lat="44.57906179222646" lon="8.013484880753603"><ele>537.8333333333333</ele><time>2026-04-12T08:18:57.999Z</time></trkpt><trkpt lat="44.57899350184073" lon="8.013568796288903"><ele>539.6666666666666</ele><time>2026-04-12T08:19:01.999Z</time></trkpt><trkpt lat="44.57892250911305" lon="8.013632333716222"><ele>541.5</ele><time>2026-04-12T08:19:03.999Z</time></trkpt><trkpt lat="44.57884850276271" lon="8.013683514059435"><ele>543.3333333333334</ele><time>2026-04-12T08:19:05.999Z</time></trkpt><trkpt lat="44.578781944163616" lon="8.0137118620437"><ele>545.1666666666667</ele><time>2026-04-12T08:19:07.999Z</time></trkpt><trkpt lat="44.57870812983193" lon="8.01373631229063"><ele>547.0</ele><time>2026-04-12T08:19:09.999Z</time></trkpt><trkpt lat="44.57864529206877" lon="8.013768394507244"><ele>549.3333333333334</ele><time>2026-04-12T08:19:11.999Z</time></trkpt><trkpt lat="44.578570298814604" lon="8.013782935668688"><ele>551.6666666666667</ele><time>2026-04-12T08:19:13.999Z</time></trkpt><trkpt lat="44.57850060323793" lon="8.01381510284761"><ele>554.0</ele><time>2026-04-12T08:19:15.999Z</time></trkpt><trkpt lat="44.57843366742917" lon="8.013839298570586"><ele>556.3333333333334</ele><time>2026-04-12T08:19:17.999Z</time></trkpt><trkpt lat="44.57836594719277" lon="8.013852325835481"><ele>558.6666666666666</ele><time>2026-04-12T08:19:19.999Z</time></trkpt><trkpt lat="44.578276154959276" lon="8.013852039799836"><ele>561.0</ele><time>2026-04-12T08:19:24.999Z</time></trkpt><trkpt lat="44.57818509478775" lon="8.013886228482457"><ele>561.0</ele><time>2026-04-12T08:19:26.999Z</time></trkpt><trkpt lat="44.57811847489674" lon="8.013917330852212"><ele>561.0</ele><time>2026-04-12T08:19:28.999Z</time></trkpt><trkpt lat="44.57802442785793" lon="8.013974926179548"><ele>561.0</ele><time>2026-04-12T08:19:31.999Z</time></trkpt><trkpt lat="44.57795138011345" lon="8.014007358320654"><ele>561.0</ele><time>2026-04-12T08:19:33.998Z</time></trkpt><trkpt lat="44.577869290689996" lon="8.014076087315319"><ele>561.0</ele><time>2026-04-12T08:19:35.998Z</time></trkpt><trkpt lat="44.577752325932686" lon="8.014119572412438"><ele>561.5</ele><time>2026-04-12T08:19:40Z</time></trkpt><trkpt lat="44.57767632346194" lon="8.01415690776009"><ele>562.0</ele><time>2026-04-12T08:19:42Z</time></trkpt><trkpt lat="44.57759415589108" lon="8.014199521518364"><ele>562.5</ele><time>2026-04-12T08:19:45Z</time></trkpt><trkpt lat="44.577536140947224" lon="8.014234543363738"><ele>563.0</ele><time>2026-04-12T08:19:48Z</time></trkpt><trkpt lat="44.57748068909726" lon="8.014282391246867"><ele>563.5</ele><time>2026-04-12T08:19:51Z</time></trkpt><trkpt lat="44.57740638939834" lon="8.014342127520385"><ele>564.0</ele><time>2026-04-12T08:19:55Z</time></trkpt><trkpt lat="44.5773322707063" lon="8.014360839301238"><ele>564.0</ele><time>2026-04-12T08:19:58Z</time></trkpt><trkpt lat="44.5772579589686" lon="8.014387074127821"><ele>564.0</ele><time>2026-04-12T08:20:01Z</time></trkpt><trkpt lat="44.57716405603316" lon="8.01441590606489"><ele>564.0</ele><time>2026-04-12T08:20:05Z</time></trkpt><trkpt lat="44.577089515168694" lon="8.014463680357988"><ele>564.0</ele><time>2026-04-12T08:20:08Z</time></trkpt><trkpt lat="44.57702253329196" lon="8.014519419439194"><ele>564.0</ele><time>2026-04-12T08:20:11Z</time></trkpt><trkpt lat="44.576958051189855" lon="8.014564710694527"><ele>564.0</ele><time>2026-04-12T08:20:14Z</time></trkpt><trkpt lat="44.57688160845437" lon="8.014585141712658"><ele>565.8333333333334</ele><time>2026-04-12T08:20:17Z</time></trkpt><trkpt lat="44.57681709384933" lon="8.01460894339766"><ele>567.6666666666666</ele><time>2026-04-12T08:20:19Z</time></trkpt><trkpt lat="44.576723064424726" lon="8.01467013116965"><ele>569.5</ele><time>2026-04-12T08:20:22Z</time></trkpt><trkpt lat="44.57663421378721" lon="8.014718629767788"><ele>571.3333333333333</ele><time>2026-04-12T08:20:24Z</time></trkpt><trkpt lat="44.576545479185036" lon="8.014768284881523"><ele>573.1666666666666</ele><time>2026-04-12T08:20:26Z</time></trkpt><trkpt lat="44.57647651070438" lon="8.01481033944811"><ele>575.0</ele><time>2026-04-12T08:20:28Z</time></trkpt><trkpt lat="44.576396937887104" lon="8.0148726054912"><ele>575.0</ele><time>2026-04-12T08:20:29.999Z</time></trkpt><trkpt lat="44.57632962688905" lon="8.014944250365055"><ele>575.0</ele><time>2026-04-12T08:20:31.999Z</time></trkpt><trkpt lat="44.57628097153781" lon="8.015020137385356"><ele>575.0</ele><time>2026-04-12T08:20:33.999Z</time></trkpt><trkpt lat="44.57623941644623" lon="8.015103277535152"><ele>575.0</ele><time>2026-04-12T08:20:35.999Z</time></trkpt><trkpt lat="44.57621395301677" lon="8.015190803921861"><ele>575.0</ele><time>2026-04-12T08:20:37.999Z</time></trkpt><trkpt lat="44.57617893034576" lon="8.015284367923787"><ele>575.0</ele><time>2026-04-12T08:20:39.999Z</time></trkpt><trkpt lat="44.57614673470888" lon="8.015374952317156"><ele>575.0</ele><time>2026-04-12T08:20:41.999Z</time></trkpt><trkpt lat="44.57612311365162" lon="8.015469360719564"><ele>574.8571428571429</ele><time>2026-04-12T08:20:43.999Z</time></trkpt><trkpt lat="44.57609837077714" lon="8.015553572204013"><ele>574.7142857142857</ele><time>2026-04-12T08:20:45.999Z</time></trkpt><trkpt lat="44.57606362201662" lon="8.015663779726314"><ele>574.5714285714286</ele><time>2026-04-12T08:20:47.999Z</time></trkpt><trkpt lat="44.576041732031726" lon="8.015750994435317"><ele>574.4285714285714</ele><time>2026-04-12T08:20:49.999Z</time></trkpt><trkpt lat="44.57601746086297" lon="8.015847493014485"><ele>574.2857142857142</ele><time>2026-04-12T08:20:51.999Z</time></trkpt><trkpt lat="44.57598910932386" lon="8.015941332489652"><ele>574.1428571428571</ele><time>2026-04-12T08:20:53.999Z</time></trkpt><trkpt lat="44.57596334376635" lon="8.016045391422187"><ele>574.0</ele><time>2026-04-12T08:20:55.999Z</time></trkpt><trkpt lat="44.57594028832495" lon="8.016130391829222"><ele>574.0</ele><time>2026-04-12T08:20:57.999Z</time></trkpt><trkpt lat="44.57591323768724" lon="8.016223732490062"><ele>574.0</ele><time>2026-04-12T08:20:59.999Z</time></trkpt><trkpt lat="44.57589066338003" lon="8.016315061915654"><ele>574.0</ele><time>2026-04-12T08:21:01.999Z</time></trkpt><trkpt lat="44.575865113754126" lon="8.01641211810704"><ele>574.0</ele><time>2026-04-12T08:21:03.999Z</time></trkpt><trkpt lat="44.57584560216784" lon="8.0164992122823"><ele>574.0</ele><time>2026-04-12T08:21:05.999Z</time></trkpt><trkpt lat="44.57582836661712" lon="8.016595419748294"><ele>574.0</ele><time>2026-04-12T08:21:07.999Z</time></trkpt><trkpt lat="44.57581040981119" lon="8.01669274973463"><ele>574.0</ele><time>2026-04-12T08:21:09.999Z</time></trkpt><trkpt lat="44.57577797890199" lon="8.016810715326965"><ele>574.4285714285714</ele><time>2026-04-12T08:21:12.999Z</time></trkpt><trkpt lat="44.57573457225325" lon="8.016910988546778"><ele>574.8571428571429</ele><time>2026-04-12T08:21:17.999Z</time></trkpt><trkpt lat="44.57571663034658" lon="8.01699610496849"><ele>575.2857142857142</ele><time>2026-04-12T08:21:20.999Z</time></trkpt><trkpt lat="44.5756795205507" lon="8.017077190927841"><ele>575.7142857142858</ele><time>2026-04-12T08:21:25.999Z</time></trkpt><trkpt lat="44.57566324064789" lon="8.017184553658241"><ele>576.1428571428571</ele><time>2026-04-12T08:21:30.999Z</time></trkpt><trkpt lat="44.5757028715678" lon="8.017271128591895"><ele>576.5714285714286</ele><time>2026-04-12T08:21:34.999Z</time></trkpt><trkpt lat="44.575641752348346" lon="8.01721109408978"><ele>577.0</ele><time>2026-04-12T08:21:40.999Z</time></trkpt><trkpt lat="44.57564329016992" lon="8.017121651941792"><ele>577.0</ele><time>2026-04-12T08:21:46Z</time></trkpt><trkpt lat="44.575547699698085" lon="8.017135021027505"><ele>577.0</ele><time>2026-04-12T08:22:01Z</time></trkpt><trkpt lat="44.575660790320896" lon="8.017222410125717"><ele>577.0</ele><time>2026-04-12T08:22:05Z</time></trkpt><trkpt lat="44.575491922898586" lon="8.017203333593958"><ele>577.0</ele><time>2026-04-12T08:22:10Z</time></trkpt><trkpt lat="44.57565148467019" lon="8.017265410445308"><ele>577.0</ele><time>2026-04-12T08:22:15Z</time></trkpt><trkpt lat="44.57547741209636" lon="8.01717750493064"><ele>577.0</ele><time>2026-04-12T08:22:17Z</time></trkpt><trkpt lat="44.57555269316987" lon="8.017145045092986"><ele>577.0</ele><time>2026-04-12T08:23:10.999Z</time></trkpt><trkpt lat="44.57565822501572" lon="8.017208837139675"><ele>577.0</ele><time>2026-04-12T08:23:19.999Z</time></trkpt><trkpt lat="44.575732577180446" lon="8.017265026306944"><ele>577.0</ele><time>2026-04-12T08:23:22.999Z</time></trkpt><trkpt lat="44.57573150781834" lon="8.017168524547813"><ele>577.0</ele><time>2026-04-12T08:26:05Z</time></trkpt><trkpt lat="44.57569084338032" lon="8.017079818384197"><ele>577.0</ele><time>2026-04-12T08:26:09Z</time></trkpt><trkpt lat="44.57554188396904" lon="8.01715190809024"><ele>577.0</ele><time>2026-04-12T08:26:19Z</time></trkpt><trkpt lat="44.57548854895702" lon="8.017208607186918"><ele>577.0</ele><time>2026-04-12T08:26:23Z</time></trkpt><trkpt lat="44.57542947375338" lon="8.017248094744957"><ele>577.0</ele><time>2026-04-12T08:26:26Z</time></trkpt><trkpt lat="44.5753699400514" lon="8.01729956071723"><ele>577.5714285714286</ele><time>2026-04-12T08:26:29Z</time></trkpt><trkpt lat="44.575307224264215" lon="8.017333856615643"><ele>578.1428571428571</ele><time>2026-04-12T08:26:33Z</time></trkpt><trkpt lat="44.57523633908559" lon="8.017388348966312"><ele>578.7142857142858</ele><time>2026-04-12T08:26:37Z</time></trkpt><trkpt lat="44.57518091001778" lon="8.017433003095338"><ele>579.2857142857142</ele><time>2026-04-12T08:26:40Z</time></trkpt><trkpt lat="44.57511427903237" lon="8.01748402483887"><ele>579.8571428571429</ele><time>2026-04-12T08:26:44Z</time></trkpt><trkpt lat="44.575040527464374" lon="8.017492983122013"><ele>580.4285714285714</ele><time>2026-04-12T08:26:47.999Z</time></trkpt><trkpt lat="44.57496371617105" lon="8.01753821398285"><ele>581.0</ele><time>2026-04-12T08:26:52.999Z</time></trkpt><trkpt lat="44.574887406662214" lon="8.017573037088082"><ele>581.6666666666666</ele><time>2026-04-12T08:26:56.999Z</time></trkpt><trkpt lat="44.574815116709146" lon="8.017615260496862"><ele>582.3333333333333</ele><time>2026-04-12T08:27:00.999Z</time></trkpt><trkpt lat="44.574742499942666" lon="8.017658297181221"><ele>583.0</ele><time>2026-04-12T08:27:04.999Z</time></trkpt><trkpt lat="44.574669151874915" lon="8.017700108134209"><ele>583.6666666666666</ele><time>2026-04-12T08:27:08.999Z</time></trkpt><trkpt lat="44.574599699966896" lon="8.017744099494225"><ele>584.3333333333334</ele><time>2026-04-12T08:27:12.999Z</time></trkpt><trkpt lat="44.57454744568406" lon="8.017828769988133"><ele>585.0</ele><time>2026-04-12T08:27:16.999Z</time></trkpt><trkpt lat="44.5745129210019" lon="8.01791762415699"><ele>586.0</ele><time>2026-04-12T08:27:20.999Z</time></trkpt><trkpt lat="44.57446599856647" lon="8.017988148956904"><ele>587.0</ele><time>2026-04-12T08:27:23.999Z</time></trkpt><trkpt lat="44.574416782249" lon="8.0180753315911"><ele>588.0</ele><time>2026-04-12T08:27:27.999Z</time></trkpt><trkpt lat="44.57438390134246" lon="8.018171562075066"><ele>589.0</ele><time>2026-04-12T08:27:31.999Z</time></trkpt><trkpt lat="44.574357372942764" lon="8.018257355403009"><ele>590.0</ele><time>2026-04-12T08:27:34.999Z</time></trkpt><trkpt lat="44.57431566459009" lon="8.018325014706678"><ele>591.0</ele><time>2026-04-12T08:27:37.999Z</time></trkpt><trkpt lat="44.574265179644705" lon="8.01842060573214"><ele>592.0</ele><time>2026-04-12T08:27:41.999Z</time></trkpt><trkpt lat="44.57422187535738" lon="8.018516276821927"><ele>592.2857142857143</ele><time>2026-04-12T08:27:45.999Z</time></trkpt><trkpt lat="44.57418872891473" lon="8.018606103059872"><ele>592.5714285714286</ele><time>2026-04-12T08:27:49.999Z</time></trkpt><trkpt lat="44.57415282940378" lon="8.01869632588685"><ele>592.8571428571429</ele><time>2026-04-12T08:27:52.999Z</time></trkpt><trkpt lat="44.574112732334505" lon="8.018791194335636"><ele>593.1428571428571</ele><time>2026-04-12T08:27:55.999Z</time></trkpt><trkpt lat="44.574087328832626" lon="8.018878902244492"><ele>593.4285714285714</ele><time>2026-04-12T08:27:58.999Z</time></trkpt><trkpt lat="44.57404809372458" lon="8.018972893482577"><ele>593.7142857142858</ele><time>2026-04-12T08:28:02Z</time></trkpt><trkpt lat="44.57402987014724" lon="8.019075022993265"><ele>594.0</ele><time>2026-04-12T08:28:06Z</time></trkpt><trkpt lat="44.57400421615586" lon="8.019177126839628"><ele>594.0</ele><time>2026-04-12T08:28:11Z</time></trkpt><trkpt lat="44.57396041565502" lon="8.019267080391595"><ele>594.0</ele><time>2026-04-12T08:28:15Z</time></trkpt><trkpt lat="44.573962697181784" lon="8.019382569251107"><ele>594.0</ele><time>2026-04-12T08:28:19Z</time></trkpt><trkpt lat="44.57389955817216" lon="8.019339470292334"><ele>594.0</ele><time>2026-04-12T08:28:20Z</time></trkpt><trkpt lat="44.573940104417964" lon="8.019430024067669"><ele>594.0</ele><time>2026-04-12T08:28:25Z</time></trkpt><trkpt lat="44.573904964764424" lon="8.019503834029717"><ele>594.0</ele><time>2026-04-12T08:28:29Z</time></trkpt><trkpt lat="44.57377330553136" lon="8.019500982963674"><ele>594.0</ele><time>2026-04-12T08:28:34Z</time></trkpt><trkpt lat="44.57370635035806" lon="8.019533183515"><ele>594.0</ele><time>2026-04-12T08:28:38Z</time></trkpt><trkpt lat="44.57363547335746" lon="8.019549217613813"><ele>594.0</ele><time>2026-04-12T08:28:42Z</time></trkpt><trkpt lat="44.573568553044126" lon="8.019540721762409"><ele>594.0</ele><time>2026-04-12T08:28:46Z</time></trkpt><trkpt lat="44.57350203101804" lon="8.01955134574177"><ele>594.0</ele><time>2026-04-12T08:28:50Z</time></trkpt><trkpt lat="44.573438087324085" lon="8.019558721237308"><ele>594.0</ele><time>2026-04-12T08:28:53.999Z</time></trkpt><trkpt lat="44.57336770390667" lon="8.019570188012134"><ele>594.0</ele><time>2026-04-12T08:28:56.999Z</time></trkpt><trkpt lat="44.57329518972844" lon="8.019564139557602"><ele>593.3333333333334</ele><time>2026-04-12T08:29:03.999Z</time></trkpt><trkpt lat="44.57322286222604" lon="8.019556104150897"><ele>592.6666666666666</ele><time>2026-04-12T08:29:08.999Z</time></trkpt><trkpt lat="44.57315402406132" lon="8.01956236492576"><ele>592.0</ele><time>2026-04-12T08:29:11.999Z</time></trkpt><trkpt lat="44.57307380986562" lon="8.019580931911783"><ele>591.3333333333333</ele><time>2026-04-12T08:29:14.999Z</time></trkpt><trkpt lat="44.57300629489917" lon="8.019593209333456"><ele>590.6666666666666</ele><time>2026-04-12T08:29:17.999Z</time></trkpt><trkpt lat="44.57292561528467" lon="8.019609675664665"><ele>590.0</ele><time>2026-04-12T08:29:22.999Z</time></trkpt><trkpt lat="44.57283931198694" lon="8.019652481933997"><ele>590.0</ele><time>2026-04-12T08:29:25.999Z</time></trkpt><trkpt lat="44.57277532531517" lon="8.019634313276457"><ele>590.0</ele><time>2026-04-12T08:29:28.999Z</time></trkpt><trkpt lat="44.5727288889862" lon="8.01970108921978"><ele>590.0</ele><time>2026-04-12T08:29:32.999Z</time></trkpt><trkpt lat="44.5726805702891" lon="8.019616658999597"><ele>590.0</ele><time>2026-04-12T08:29:35.999Z</time></trkpt><trkpt lat="44.5727452323904" lon="8.019539960477491"><ele>590.0</ele><time>2026-04-12T08:30:10Z</time></trkpt><trkpt lat="44.57269410854961" lon="8.01946028877242"><ele>590.0</ele><time>2026-04-12T08:31:11.999Z</time></trkpt><trkpt lat="44.57272747841738" lon="8.019591071014192"><ele>590.0</ele><time>2026-04-12T08:31:14.999Z</time></trkpt><trkpt lat="44.572693350079085" lon="8.019460666384532"><ele>590.0</ele><time>2026-04-12T08:31:17.999Z</time></trkpt><trkpt lat="44.5727155344015" lon="8.019589267673627"><ele>590.0</ele><time>2026-04-12T08:31:20.999Z</time></trkpt><trkpt lat="44.572680813460416" lon="8.019466907832339"><ele>590.0</ele><time>2026-04-12T08:31:22.999Z</time></trkpt><trkpt lat="44.57270048029804" lon="8.019581840440726"><ele>590.0</ele><time>2026-04-12T08:31:25.999Z</time></trkpt><trkpt lat="44.57265981854929" lon="8.019477360278632"><ele>590.0</ele><time>2026-04-12T08:31:28.999Z</time></trkpt><trkpt lat="44.57229964178152" lon="8.019419336627854"><ele>590.0</ele><time>2026-04-12T08:31:34.011Z</time></trkpt><trkpt lat="44.57223360751558" lon="8.019389838733495"><ele>590.0</ele><time>2026-04-12T08:31:35.01Z</time></trkpt><trkpt lat="44.57245635175936" lon="8.019507454022524"><ele>590.0</ele><time>2026-04-12T08:31:45.7Z</time></trkpt><trkpt lat="44.5726120386663" lon="8.019590101539794"><ele>590.0</ele><time>2026-04-12T08:31:46.409Z</time></trkpt><trkpt lat="44.57274667718537" lon="8.019654728879372"><ele>590.0</ele><time>2026-04-12T08:35:36.399Z</time></trkpt><trkpt lat="44.57267332718233" lon="8.019661818487672"><ele>590.0</ele><time>2026-04-12T08:53:32.999Z</time></trkpt><trkpt lat="44.572237609266715" lon="8.019510586870554"><ele>590.0</ele><time>2026-04-12T08:53:35.999Z</time></trkpt><trkpt lat="44.57245315452291" lon="8.019625959141576"><ele>590.0</ele><time>2026-04-12T08:54:04.012Z</time></trkpt><trkpt lat="44.572543034195995" lon="8.01967006532576"><ele>590.0</ele><time>2026-04-12T08:54:05.999Z</time></trkpt><trkpt lat="44.57262819873835" lon="8.019687651112468"><ele>590.0</ele><time>2026-04-12T08:54:07.999Z</time></trkpt><trkpt lat="44.57266639883838" lon="8.01959629888867"><ele>590.0</ele><time>2026-04-12T08:54:10.999Z</time></trkpt><trkpt lat="44.572724081691746" lon="8.019552022230005"><ele>590.0</ele><time>2026-04-12T08:54:15.999Z</time></trkpt><trkpt lat="44.57265158653593" lon="8.019570005285507"><ele>590.0</ele><time>2026-04-12T08:58:51Z</time></trkpt><trkpt lat="44.57262561632675" lon="8.019675999763681"><ele>590.0</ele><time>2026-04-12T08:58:58Z</time></trkpt><trkpt lat="44.57282066149378" lon="8.019696732401167"><ele>590.0</ele><time>2026-04-12T08:59:15Z</time></trkpt><trkpt lat="44.57288929832545" lon="8.019683034144004"><ele>592.4</ele><time>2026-04-12T08:59:20Z</time></trkpt><trkpt lat="44.57294854100172" lon="8.01964117323556"><ele>594.8</ele><time>2026-04-12T08:59:23Z</time></trkpt><trkpt lat="44.57301455573354" lon="8.019613018771317"><ele>597.2</ele><time>2026-04-12T08:59:27Z</time></trkpt><trkpt lat="44.57324157474658" lon="8.01957864909751"><ele>599.6</ele><time>2026-04-12T08:59:39Z</time></trkpt><trkpt lat="44.57330493426839" lon="8.019574115282579"><ele>602.0</ele><time>2026-04-12T08:59:43Z</time></trkpt><trkpt lat="44.573445269597514" lon="8.019571175794129"><ele>602.0</ele><time>2026-04-12T08:59:49Z</time></trkpt><trkpt lat="44.573533900619786" lon="8.019600689975226"><ele>602.0</ele><time>2026-04-12T08:59:54Z</time></trkpt><trkpt lat="44.5737518279658" lon="8.019610528708466"><ele>602.0</ele><time>2026-04-12T09:00:01Z</time></trkpt><trkpt lat="44.57380858595801" lon="8.019564795535585"><ele>602.0</ele><time>2026-04-12T09:00:03Z</time></trkpt><trkpt lat="44.573874405777396" lon="8.019482156282745"><ele>600.6666666666666</ele><time>2026-04-12T09:00:06Z</time></trkpt><trkpt lat="44.57394736518751" lon="8.019463087825367"><ele>599.3333333333333</ele><time>2026-04-12T09:00:10Z</time></trkpt><trkpt lat="44.5739176379759" lon="8.019565453667612"><ele>598.0</ele><time>2026-04-12T09:00:12.999Z</time></trkpt><trkpt lat="44.57386629194102" lon="8.019639945892116"><ele>596.6666666666666</ele><time>2026-04-12T09:00:17.999Z</time></trkpt><trkpt lat="44.57391174626026" lon="8.01955968143017"><ele>595.3333333333334</ele><time>2026-04-12T09:00:32.999Z</time></trkpt><trkpt lat="44.57395916537708" lon="8.01948274816835"><ele>594.0</ele><time>2026-04-12T09:00:36.999Z</time></trkpt><trkpt lat="44.5739932651032" lon="8.019373418482019"><ele>594.0</ele><time>2026-04-12T09:00:39.999Z</time></trkpt><trkpt lat="44.57401777123697" lon="8.019283495895248"><ele>594.0</ele><time>2026-04-12T09:00:41.999Z</time></trkpt><trkpt lat="44.57404594906298" lon="8.019200196547887"><ele>594.0</ele><time>2026-04-12T09:00:44.001Z</time></trkpt><trkpt lat="44.57405822958918" lon="8.0191004549783"><ele>594.0</ele><time>2026-04-12T09:00:47.001Z</time></trkpt><trkpt lat="44.57410721046341" lon="8.019008658243113"><ele>594.0</ele><time>2026-04-12T09:00:50Z</time></trkpt><trkpt lat="44.5741333045639" lon="8.019089631157122"><ele>594.0</ele><time>2026-04-12T09:00:53Z</time></trkpt><trkpt lat="44.57413106473918" lon="8.019178219932938"><ele>594.0</ele><time>2026-04-12T09:00:55Z</time></trkpt><trkpt lat="44.57412685433282" lon="8.019272084920967"><ele>594.0</ele><time>2026-04-12T09:00:57Z</time></trkpt><trkpt lat="44.57412399531335" lon="8.019393308618602"><ele>594.0</ele><time>2026-04-12T09:00:59Z</time></trkpt><trkpt lat="44.574130992606946" lon="8.01951031111229"><ele>594.0</ele><time>2026-04-12T09:01:01Z</time></trkpt><trkpt lat="44.57412678811828" lon="8.019629514712497"><ele>594.0</ele><time>2026-04-12T09:01:03Z</time></trkpt><trkpt lat="44.574128156070614" lon="8.019758299536793"><ele>594.0</ele><time>2026-04-12T09:01:05Z</time></trkpt><trkpt lat="44.57413927494951" lon="8.01987900318838"><ele>594.0</ele><time>2026-04-12T09:01:08Z</time></trkpt><trkpt lat="44.57414908513027" lon="8.01998743013318"><ele>592.6666666666666</ele><time>2026-04-12T09:01:10Z</time></trkpt><trkpt lat="44.574172520991624" lon="8.020105671457841"><ele>591.3333333333334</ele><time>2026-04-12T09:01:12Z</time></trkpt><trkpt lat="44.574227616280545" lon="8.020199924448978"><ele>590.0</ele><time>2026-04-12T09:01:14Z</time></trkpt><trkpt lat="44.57429541652607" lon="8.02027493156402"><ele>588.6666666666667</ele><time>2026-04-12T09:01:16Z</time></trkpt><trkpt lat="44.57434556220689" lon="8.020384422169096"><ele>587.3333333333334</ele><time>2026-04-12T09:01:18Z</time></trkpt><trkpt lat="44.57437450118423" lon="8.02048036240488"><ele>586.0</ele><time>2026-04-12T09:01:20Z</time></trkpt><trkpt lat="44.574411710208246" lon="8.02058959382159"><ele>586.0</ele><time>2026-04-12T09:01:23Z</time></trkpt><trkpt lat="44.57448284925387" lon="8.02069911590104"><ele>586.0</ele><time>2026-04-12T09:01:25Z</time></trkpt><trkpt lat="44.574467819090636" lon="8.020803160497154"><ele>586.0</ele><time>2026-04-12T09:01:27Z</time></trkpt><trkpt lat="44.57444153463992" lon="8.020922365263061"><ele>586.0</ele><time>2026-04-12T09:01:29Z</time></trkpt><trkpt lat="44.57444347028679" lon="8.021037723583015"><ele>586.0</ele><time>2026-04-12T09:01:31Z</time></trkpt><trkpt lat="44.57445159620955" lon="8.021212010649545"><ele>584.4285714285713</ele><time>2026-04-12T09:01:33Z</time></trkpt><trkpt lat="44.5744763436059" lon="8.021296228974165"><ele>582.8571428571429</ele><time>2026-04-12T09:01:34Z</time></trkpt><trkpt lat="44.57450974921281" lon="8.021376777490246"><ele>581.2857142857142</ele><time>2026-04-12T09:01:35Z</time></trkpt><trkpt lat="44.57455466143545" lon="8.021452812795667"><ele>579.7142857142857</ele><time>2026-04-12T09:01:36Z</time></trkpt><trkpt lat="44.57459307132483" lon="8.021536526052703"><ele>578.1428571428571</ele><time>2026-04-12T09:01:37Z</time></trkpt><trkpt lat="44.57463378041307" lon="8.021611790665162"><ele>576.5714285714286</ele><time>2026-04-12T09:01:38Z</time></trkpt><trkpt lat="44.57468602435042" lon="8.021679621340175"><ele>575.0</ele><time>2026-04-12T09:01:39Z</time></trkpt><trkpt lat="44.57473184640351" lon="8.02175191206606"><ele>574.1666666666666</ele><time>2026-04-12T09:01:40Z</time></trkpt><trkpt lat="44.574772156033184" lon="8.021821849609095"><ele>573.3333333333333</ele><time>2026-04-12T09:01:41Z</time></trkpt><trkpt lat="44.57481053084959" lon="8.021897328083552"><ele>572.5</ele><time>2026-04-12T09:01:42Z</time></trkpt><trkpt lat="44.574855306102265" lon="8.021969229667238"><ele>571.6666666666666</ele><time>2026-04-12T09:01:43Z</time></trkpt><trkpt lat="44.5748945770702" lon="8.022044272394886"><ele>570.8333333333334</ele><time>2026-04-12T09:01:44Z</time></trkpt><trkpt lat="44.574941665914196" lon="8.022113657401016"><ele>570.0</ele><time>2026-04-12T09:01:45Z</time></trkpt><trkpt lat="44.575023736288834" lon="8.022246859273992"><ele>570.0</ele><time>2026-04-12T09:01:47Z</time></trkpt><trkpt lat="44.57507058841061" lon="8.0223122898831"><ele>570.0</ele><time>2026-04-12T09:01:48Z</time></trkpt><trkpt lat="44.5751203317776" lon="8.02237982075657"><ele>570.0</ele><time>2026-04-12T09:01:49Z</time></trkpt><trkpt lat="44.57516833534125" lon="8.022438345208617"><ele>570.0</ele><time>2026-04-12T09:01:50Z</time></trkpt><trkpt lat="44.57520617407539" lon="8.022518496354456"><ele>570.0</ele><time>2026-04-12T09:01:51Z</time></trkpt><trkpt lat="44.57525466945907" lon="8.022595033641938"><ele>570.0</ele><time>2026-04-12T09:01:52Z</time></trkpt><trkpt lat="44.5752968078339" lon="8.022663774304661"><ele>570.0</ele><time>2026-04-12T09:01:53Z</time></trkpt><trkpt lat="44.57537241557917" lon="8.02278710945089"><ele>567.8</ele><time>2026-04-12T09:01:55Z</time></trkpt><trkpt lat="44.57549589839808" lon="8.022768412759776"><ele>565.6</ele><time>2026-04-12T09:01:56Z</time></trkpt><trkpt lat="44.57556278131669" lon="8.022828953672363"><ele>563.4</ele><time>2026-04-12T09:01:57Z</time></trkpt><trkpt lat="44.57563153433119" lon="8.02289137155615"><ele>561.2</ele><time>2026-04-12T09:01:58Z</time></trkpt><trkpt lat="44.57570383426758" lon="8.022955522704851"><ele>559.0</ele><time>2026-04-12T09:01:59Z</time></trkpt><trkpt lat="44.575775812660346" lon="8.023022921113721"><ele>559.0</ele><time>2026-04-12T09:02:00Z</time></trkpt><trkpt lat="44.57584999994283" lon="8.023091405633513"><ele>559.0</ele><time>2026-04-12T09:02:01Z</time></trkpt><trkpt lat="44.575911921227636" lon="8.023161175167974"><ele>559.0</ele><time>2026-04-12T09:02:02Z</time></trkpt><trkpt lat="44.575966723151566" lon="8.023240636818649"><ele>559.0</ele><time>2026-04-12T09:02:03Z</time></trkpt><trkpt lat="44.576018606612074" lon="8.023320674253783"><ele>559.0</ele><time>2026-04-12T09:02:04Z</time></trkpt><trkpt lat="44.57606543569028" lon="8.023400965490508"><ele>559.0</ele><time>2026-04-12T09:02:05Z</time></trkpt><trkpt lat="44.57610961133573" lon="8.023485778369839"><ele>560.2857142857143</ele><time>2026-04-12T09:02:06Z</time></trkpt><trkpt lat="44.576148214837005" lon="8.023568510752405"><ele>561.5714285714287</ele><time>2026-04-12T09:02:07Z</time></trkpt><trkpt lat="44.57617999561558" lon="8.023660734675678"><ele>562.8571428571429</ele><time>2026-04-12T09:02:08Z</time></trkpt><trkpt lat="44.57619480808953" lon="8.023765236800488"><ele>564.1428571428571</ele><time>2026-04-12T09:02:09Z</time></trkpt><trkpt lat="44.57622670484816" lon="8.023849373936745"><ele>565.4285714285713</ele><time>2026-04-12T09:02:10Z</time></trkpt><trkpt lat="44.57625373407578" lon="8.023943489863674"><ele>566.7142857142857</ele><time>2026-04-12T09:02:11Z</time></trkpt><trkpt lat="44.576274453324274" lon="8.024032894955653"><ele>568.0</ele><time>2026-04-12T09:02:12Z</time></trkpt><trkpt lat="44.57630135394553" lon="8.024119913068569"><ele>565.0</ele><time>2026-04-12T09:02:13Z</time></trkpt><trkpt lat="44.5763474799051" lon="8.024290481837413"><ele>562.0</ele><time>2026-04-12T09:02:14.999Z</time></trkpt><trkpt lat="44.5763954647055" lon="8.024451226787155"><ele>559.0</ele><time>2026-04-12T09:02:16.999Z</time></trkpt><trkpt lat="44.576431724816786" lon="8.024531295959184"><ele>556.0</ele><time>2026-04-12T09:02:17.999Z</time></trkpt><trkpt lat="44.57646495211753" lon="8.02460843910419"><ele>553.0</ele><time>2026-04-12T09:02:18.999Z</time></trkpt><trkpt lat="44.57652545927485" lon="8.02474185920247"><ele>553.0</ele><time>2026-04-12T09:02:20.999Z</time></trkpt><trkpt lat="44.57659109708116" lon="8.024868473546801"><ele>553.0</ele><time>2026-04-12T09:02:22.999Z</time></trkpt><trkpt lat="44.576623605055076" lon="8.024949308022105"><ele>553.0</ele><time>2026-04-12T09:02:23.999Z</time></trkpt><trkpt lat="44.576651512960346" lon="8.02504804418959"><ele>553.0</ele><time>2026-04-12T09:02:24.999Z</time></trkpt><trkpt lat="44.57667174238088" lon="8.025133388010802"><ele>553.0</ele><time>2026-04-12T09:02:25.999Z</time></trkpt><trkpt lat="44.57669336442864" lon="8.025234398193708"><ele>553.0</ele><time>2026-04-12T09:02:26.999Z</time></trkpt><trkpt lat="44.57669499120227" lon="8.025338535162392"><ele>553.4</ele><time>2026-04-12T09:02:27.999Z</time></trkpt><trkpt lat="44.57669774857274" lon="8.025449617696115"><ele>553.8</ele><time>2026-04-12T09:02:28.999Z</time></trkpt><trkpt lat="44.57670787202554" lon="8.025577464600877"><ele>554.2</ele><time>2026-04-12T09:02:29.999Z</time></trkpt><trkpt lat="44.57672241634308" lon="8.02571534674866"><ele>554.6</ele><time>2026-04-12T09:02:30.999Z</time></trkpt><trkpt lat="44.57675539241804" lon="8.025856918385589"><ele>555.0</ele><time>2026-04-12T09:02:31.999Z</time></trkpt><trkpt lat="44.576786107063285" lon="8.02599406751084"><ele>555.0</ele><time>2026-04-12T09:02:32.999Z</time></trkpt><trkpt lat="44.576821081819276" lon="8.026142280786175"><ele>555.0</ele><time>2026-04-12T09:02:33.999Z</time></trkpt><trkpt lat="44.57684800663495" lon="8.026270771820148"><ele>555.0</ele><time>2026-04-12T09:02:34.999Z</time></trkpt><trkpt lat="44.5768821827703" lon="8.026394211337394"><ele>555.0</ele><time>2026-04-12T09:02:35.999Z</time></trkpt><trkpt lat="44.57691150524707" lon="8.026528565935697"><ele>555.0</ele><time>2026-04-12T09:02:36.999Z</time></trkpt><trkpt lat="44.57694348086118" lon="8.026646034780253"><ele>554.2</ele><time>2026-04-12T09:02:37.999Z</time></trkpt><trkpt lat="44.57697579784101" lon="8.026773278874797"><ele>553.4</ele><time>2026-04-12T09:02:38.999Z</time></trkpt><trkpt lat="44.5770104735613" lon="8.026902638575132"><ele>552.6</ele><time>2026-04-12T09:02:39.999Z</time></trkpt><trkpt lat="44.577044619379514" lon="8.02703774435701"><ele>551.8</ele><time>2026-04-12T09:02:40.999Z</time></trkpt><trkpt lat="44.57708542580811" lon="8.027173470523655"><ele>551.0</ele><time>2026-04-12T09:02:41.999Z</time></trkpt><trkpt lat="44.5771288357345" lon="8.027317667202936"><ele>548.3333333333333</ele><time>2026-04-12T09:02:42.999Z</time></trkpt><trkpt lat="44.57717612747441" lon="8.027444855972675"><ele>545.6666666666666</ele><time>2026-04-12T09:02:43.999Z</time></trkpt><trkpt lat="44.57724130274485" lon="8.027543380784556"><ele>543.0</ele><time>2026-04-12T09:02:44.999Z</time></trkpt><trkpt lat="44.57729037519916" lon="8.027627884166243"><ele>540.3333333333334</ele><time>2026-04-12T09:02:45.999Z</time></trkpt><trkpt lat="44.57735053904972" lon="8.027722300222086"><ele>537.6666666666667</ele><time>2026-04-12T09:02:46.999Z</time></trkpt><trkpt lat="44.57739794650034" lon="8.027806830349437"><ele>535.0</ele><time>2026-04-12T09:02:47.999Z</time></trkpt><trkpt lat="44.577494172663286" lon="8.027928203453804"><ele>535.0</ele><time>2026-04-12T09:02:50Z</time></trkpt><trkpt lat="44.577569364077064" lon="8.028066139904217"><ele>535.0</ele><time>2026-04-12T09:02:52Z</time></trkpt><trkpt lat="44.577610497927864" lon="8.028135904039809"><ele>535.0</ele><time>2026-04-12T09:02:53Z</time></trkpt><trkpt lat="44.5776485135489" lon="8.028216229846205"><ele>535.0</ele><time>2026-04-12T09:02:54Z</time></trkpt><trkpt lat="44.57769430500153" lon="8.028278610390661"><ele>535.0</ele><time>2026-04-12T09:02:55Z</time></trkpt><trkpt lat="44.577740577157776" lon="8.028340970207777"><ele>535.0</ele><time>2026-04-12T09:02:56Z</time></trkpt><trkpt lat="44.577796313348095" lon="8.02840832873522"><ele>534.0</ele><time>2026-04-12T09:02:57Z</time></trkpt><trkpt lat="44.577892852788636" lon="8.028525748587725"><ele>533.0</ele><time>2026-04-12T09:02:59Z</time></trkpt><trkpt lat="44.57798848934221" lon="8.028626677398478"><ele>532.0</ele><time>2026-04-12T09:03:01Z</time></trkpt><trkpt lat="44.57808293241874" lon="8.028721278458674"><ele>531.0</ele><time>2026-04-12T09:03:03Z</time></trkpt><trkpt lat="44.57813648948196" lon="8.028771949676663"><ele>530.0</ele><time>2026-04-12T09:03:04Z</time></trkpt><trkpt lat="44.578176147251604" lon="8.028843150099874"><ele>530.0</ele><time>2026-04-12T09:03:05Z</time></trkpt><trkpt lat="44.57827475825958" lon="8.028938705070908"><ele>530.0</ele><time>2026-04-12T09:03:07Z</time></trkpt><trkpt lat="44.578368782389425" lon="8.02904890919852"><ele>530.0</ele><time>2026-04-12T09:03:09Z</time></trkpt><trkpt lat="44.578464055695946" lon="8.029151909761932"><ele>530.0</ele><time>2026-04-12T09:03:11Z</time></trkpt><trkpt lat="44.578549474439676" lon="8.029264297910364"><ele>529.6</ele><time>2026-04-12T09:03:13Z</time></trkpt><trkpt lat="44.57862618006797" lon="8.029393842538367"><ele>529.2</ele><time>2026-04-12T09:03:15Z</time></trkpt><trkpt lat="44.57869830718148" lon="8.029536964590063"><ele>528.8</ele><time>2026-04-12T09:03:17Z</time></trkpt><trkpt lat="44.5787420756556" lon="8.02960751630658"><ele>528.4</ele><time>2026-04-12T09:03:18Z</time></trkpt><trkpt lat="44.578791820634436" lon="8.029668165632446"><ele>528.0</ele><time>2026-04-12T09:03:19Z</time></trkpt><trkpt lat="44.57890683134157" lon="8.029734641565545"><ele>528.0</ele><time>2026-04-12T09:03:21Z</time></trkpt><trkpt lat="44.57896382166931" lon="8.029775144777759"><ele>528.0</ele><time>2026-04-12T09:03:22Z</time></trkpt><trkpt lat="44.57902128290732" lon="8.029834678747271"><ele>528.0</ele><time>2026-04-12T09:03:23Z</time></trkpt><trkpt lat="44.579103726060076" lon="8.029879581161762"><ele>528.0</ele><time>2026-04-12T09:03:24Z</time></trkpt><trkpt lat="44.579165710487004" lon="8.02993703710959"><ele>528.0</ele><time>2026-04-12T09:03:25Z</time></trkpt><trkpt lat="44.579222469777605" lon="8.029999858013152"><ele>528.0</ele><time>2026-04-12T09:03:26Z</time></trkpt><trkpt lat="44.57926993456502" lon="8.030064140842889"><ele>528.0</ele><time>2026-04-12T09:03:27Z</time></trkpt><trkpt lat="44.57932031478629" lon="8.030125493126453"><ele>529.0</ele><time>2026-04-12T09:03:28Z</time></trkpt><trkpt lat="44.5793713166401" lon="8.030190206259343"><ele>530.0</ele><time>2026-04-12T09:03:29Z</time></trkpt><trkpt lat="44.57941721067902" lon="8.03026887616889"><ele>531.0</ele><time>2026-04-12T09:03:30Z</time></trkpt><trkpt lat="44.579451171567044" lon="8.030359343571842"><ele>532.0</ele><time>2026-04-12T09:03:31Z</time></trkpt><trkpt lat="44.57951279763573" lon="8.030429913434658"><ele>533.0</ele><time>2026-04-12T09:03:32Z</time></trkpt><trkpt lat="44.579549132169376" lon="8.03052990915358"><ele>534.0</ele><time>2026-04-12T09:03:33Z</time></trkpt><trkpt lat="44.57959761327291" lon="8.030614471473863"><ele>532.6666666666666</ele><time>2026-04-12T09:03:34Z</time></trkpt><trkpt lat="44.57964844055966" lon="8.030701496611277"><ele>531.3333333333334</ele><time>2026-04-12T09:03:35Z</time></trkpt><trkpt lat="44.57971138915959" lon="8.030767590185091"><ele>530.0</ele><time>2026-04-12T09:03:36Z</time></trkpt><trkpt lat="44.57975448517477" lon="8.030856411699913"><ele>528.6666666666667</ele><time>2026-04-12T09:03:37Z</time></trkpt><trkpt lat="44.57980869513996" lon="8.030944003112744"><ele>527.3333333333334</ele><time>2026-04-12T09:03:38Z</time></trkpt><trkpt lat="44.57986275161588" lon="8.031031062072985"><ele>526.0</ele><time>2026-04-12T09:03:39Z</time></trkpt><trkpt lat="44.5799112200946" lon="8.03111847369986"><ele>526.0</ele><time>2026-04-12T09:03:40Z</time></trkpt><trkpt lat="44.57994878114759" lon="8.031211911640023"><ele>526.0</ele><time>2026-04-12T09:03:41Z</time></trkpt><trkpt lat="44.579966584965625" lon="8.031304191585148"><ele>526.0</ele><time>2026-04-12T09:03:42Z</time></trkpt><trkpt lat="44.579986831482564" lon="8.031396101817888"><ele>526.0</ele><time>2026-04-12T09:03:43Z</time></trkpt><trkpt lat="44.5799934743004" lon="8.031485524172863"><ele>526.0</ele><time>2026-04-12T09:03:44Z</time></trkpt><trkpt lat="44.57998941649458" lon="8.031601425997101"><ele>526.0</ele><time>2026-04-12T09:03:46Z</time></trkpt><trkpt lat="44.57999011626513" lon="8.031749442410797"><ele>527.5</ele><time>2026-04-12T09:03:48Z</time></trkpt><trkpt lat="44.579976467460995" lon="8.031856909664144"><ele>529.0</ele><time>2026-04-12T09:03:50Z</time></trkpt><trkpt lat="44.579946428065135" lon="8.03196515579553"><ele>530.5</ele><time>2026-04-12T09:03:52Z</time></trkpt><trkpt lat="44.57993023061383" lon="8.032051959829172"><ele>532.0</ele><time>2026-04-12T09:03:54Z</time></trkpt><trkpt lat="44.57990272284527" lon="8.032163268772607"><ele>533.5</ele><time>2026-04-12T09:03:57Z</time></trkpt><trkpt lat="44.579898659734745" lon="8.032273751795396"><ele>535.0</ele><time>2026-04-12T09:04:00Z</time></trkpt><trkpt lat="44.57991188344763" lon="8.032361734647118"><ele>535.6666666666667</ele><time>2026-04-12T09:04:01.999Z</time></trkpt><trkpt lat="44.57989794351578" lon="8.03248297203542"><ele>536.3333333333334</ele><time>2026-04-12T09:04:03.999Z</time></trkpt><trkpt lat="44.5799007261084" lon="8.032571601947735"><ele>537.0</ele><time>2026-04-12T09:04:07.999Z</time></trkpt><trkpt lat="44.579910962266155" lon="8.03270525385195"><ele>537.6666666666666</ele><time>2026-04-12T09:04:11.999Z</time></trkpt><trkpt lat="44.57992955303337" lon="8.032829241316689"><ele>538.3333333333333</ele><time>2026-04-12T09:04:14.999Z</time></trkpt><trkpt lat="44.579935190113886" lon="8.032939868093687"><ele>539.0</ele><time>2026-04-12T09:04:16.999Z</time></trkpt><trkpt lat="44.579891805894306" lon="8.03305537902978"><ele>539.0</ele><time>2026-04-12T09:04:20.999Z</time></trkpt><trkpt lat="44.57988132026274" lon="8.033162145358938"><ele>539.0</ele><time>2026-04-12T09:04:22.999Z</time></trkpt><trkpt lat="44.5798718372833" lon="8.033287753843352"><ele>539.0</ele><time>2026-04-12T09:04:24.999Z</time></trkpt><trkpt lat="44.579860674093446" lon="8.033412926901013"><ele>539.0</ele><time>2026-04-12T09:04:26.999Z</time></trkpt><trkpt lat="44.57982674752022" lon="8.03355872589084"><ele>539.0</ele><time>2026-04-12T09:04:28.999Z</time></trkpt><trkpt lat="44.57982050649866" lon="8.033698259703938"><ele>539.4</ele><time>2026-04-12T09:04:30.999Z</time></trkpt><trkpt lat="44.57978993043104" lon="8.033837105049631"><ele>539.8</ele><time>2026-04-12T09:04:32.999Z</time></trkpt><trkpt lat="44.579764365837114" lon="8.033989268582573"><ele>540.2</ele><time>2026-04-12T09:04:34.999Z</time></trkpt><trkpt lat="44.57974204783072" lon="8.034128200560305"><ele>540.6</ele><time>2026-04-12T09:04:36.999Z</time></trkpt><trkpt lat="44.57971306029471" lon="8.034272950422446"><ele>541.0</ele><time>2026-04-12T09:04:38.999Z</time></trkpt><trkpt lat="44.57967873650937" lon="8.034420798536475"><ele>541.0</ele><time>2026-04-12T09:04:40.999Z</time></trkpt><trkpt lat="44.579650425087365" lon="8.034549443837582"><ele>541.0</ele><time>2026-04-12T09:04:42.999Z</time></trkpt><trkpt lat="44.579615281724536" lon="8.034677391219676"><ele>541.0</ele><time>2026-04-12T09:04:44.999Z</time></trkpt><trkpt lat="44.57958156190858" lon="8.034801116669486"><ele>541.0</ele><time>2026-04-12T09:04:46.999Z</time></trkpt><trkpt lat="44.57954655030563" lon="8.034926697720598"><ele>541.0</ele><time>2026-04-12T09:04:48.999Z</time></trkpt><trkpt lat="44.57951775946738" lon="8.03503893695516"><ele>541.6666666666667</ele><time>2026-04-12T09:04:50.999Z</time></trkpt><trkpt lat="44.57948949868778" lon="8.03514913171996"><ele>542.3333333333334</ele><time>2026-04-12T09:04:52.999Z</time></trkpt><trkpt lat="44.57945738915974" lon="8.03524311458107"><ele>543.0</ele><time>2026-04-12T09:04:55Z</time></trkpt><trkpt lat="44.579438540675554" lon="8.03534617965335"><ele>543.6666666666666</ele><time>2026-04-12T09:04:57Z</time></trkpt><trkpt lat="44.579412336250506" lon="8.035453950383282"><ele>544.3333333333333</ele><time>2026-04-12T09:04:59Z</time></trkpt><trkpt lat="44.57934691109591" lon="8.035543789263516"><ele>545.0</ele><time>2026-04-12T09:05:01Z</time></trkpt><trkpt lat="44.57929704220153" lon="8.035603506308671"><ele>545.0</ele><time>2026-04-12T09:05:03Z</time></trkpt><trkpt lat="44.57922656397101" lon="8.035598856818973"><ele>545.0</ele><time>2026-04-12T09:05:05Z</time></trkpt><trkpt lat="44.579155223619836" lon="8.035557959758776"><ele>545.0</ele><time>2026-04-12T09:05:09Z</time></trkpt><trkpt lat="44.57908546859633" lon="8.035542402595972"><ele>545.0</ele><time>2026-04-12T09:05:13Z</time></trkpt><trkpt lat="44.57901734881001" lon="8.035494533085178"><ele>545.0</ele><time>2026-04-12T09:05:17Z</time></trkpt><trkpt lat="44.5789476257015" lon="8.035471055883812"><ele>545.0</ele><time>2026-04-12T09:05:21Z</time></trkpt><trkpt lat="44.57887432289849" lon="8.035436332489247"><ele>545.0</ele><time>2026-04-12T09:05:24Z</time></trkpt><trkpt lat="44.57878174727998" lon="8.035394584183342"><ele>545.0</ele><time>2026-04-12T09:05:28Z</time></trkpt><trkpt lat="44.578715384572966" lon="8.035373619412525"><ele>545.0</ele><time>2026-04-12T09:05:31Z</time></trkpt><trkpt lat="44.57863512291678" lon="8.035333901419493"><ele>545.0</ele><time>2026-04-12T09:05:34Z</time></trkpt><trkpt lat="44.57855440006685" lon="8.035288957001722"><ele>545.0</ele><time>2026-04-12T09:05:38Z</time></trkpt><trkpt lat="44.578493546091316" lon="8.035246013845853"><ele>545.0</ele><time>2026-04-12T09:05:41Z</time></trkpt><trkpt lat="44.57841268836529" lon="8.035243694649248"><ele>545.0</ele><time>2026-04-12T09:05:44Z</time></trkpt><trkpt lat="44.57832585417174" lon="8.035194042920823"><ele>544.5</ele><time>2026-04-12T09:05:47Z</time></trkpt><trkpt lat="44.578251624520405" lon="8.035191856290682"><ele>544.0</ele><time>2026-04-12T09:05:49Z</time></trkpt><trkpt lat="44.578178022303874" lon="8.035176726861264"><ele>543.5</ele><time>2026-04-12T09:05:52Z</time></trkpt><trkpt lat="44.578099900730926" lon="8.035166308526131"><ele>543.0</ele><time>2026-04-12T09:05:55Z</time></trkpt><trkpt lat="44.57801126345353" lon="8.035154572659286"><ele>542.5</ele><time>2026-04-12T09:05:59Z</time></trkpt><trkpt lat="44.57791899017822" lon="8.035160748500154"><ele>542.0</ele><time>2026-04-12T09:06:01.999Z</time></trkpt><trkpt lat="44.57784819706142" lon="8.03516415855618"><ele>542.0</ele><time>2026-04-12T09:06:04.999Z</time></trkpt><trkpt lat="44.57777628339441" lon="8.035212355354998"><ele>542.0</ele><time>2026-04-12T09:06:08.999Z</time></trkpt><trkpt lat="44.57784416962636" lon="8.035192526852098"><ele>542.0</ele><time>2026-04-12T09:06:16.999Z</time></trkpt><trkpt lat="44.577863145742576" lon="8.035086888013247"><ele>542.0</ele><time>2026-04-12T09:06:30.999Z</time></trkpt><trkpt lat="44.57779307868591" lon="8.035096906472134"><ele>542.0</ele><time>2026-04-12T09:06:32.999Z</time></trkpt><trkpt lat="44.57772921580395" lon="8.035111910417237"><ele>542.0</ele><time>2026-04-12T09:06:34.999Z</time></trkpt><trkpt lat="44.57766422449653" lon="8.035161126369276"><ele>542.0</ele><time>2026-04-12T09:06:37.999Z</time></trkpt><trkpt lat="44.57759512555091" lon="8.035242948933961"><ele>542.0</ele><time>2026-04-12T09:06:40.999Z</time></trkpt><trkpt lat="44.57754533448788" lon="8.035318974308995"><ele>542.0</ele><time>2026-04-12T09:06:44.999Z</time></trkpt><trkpt lat="44.57747511333947" lon="8.035409903155875"><ele>542.0</ele><time>2026-04-12T09:06:47.999Z</time></trkpt><trkpt lat="44.57744337266347" lon="8.035493520007408"><ele>542.0</ele><time>2026-04-12T09:06:49.999Z</time></trkpt><trkpt lat="44.57741189502471" lon="8.035582834302533"><ele>542.0</ele><time>2026-04-12T09:06:51.999Z</time></trkpt><trkpt lat="44.577391917011944" lon="8.035687907993022"><ele>542.0</ele><time>2026-04-12T09:06:54.999Z</time></trkpt><trkpt lat="44.57736586909087" lon="8.03579521303152"><ele>544.2</ele><time>2026-04-12T09:06:56.999Z</time></trkpt><trkpt lat="44.57731331233209" lon="8.035907867803832"><ele>546.4000000000001</ele><time>2026-04-12T09:06:58.999Z</time></trkpt><trkpt lat="44.57728800566101" lon="8.03604561993665"><ele>548.5999999999999</ele><time>2026-04-12T09:07:01Z</time></trkpt><trkpt lat="44.5772578025008" lon="8.036193680285487"><ele>550.8</ele><time>2026-04-12T09:07:03Z</time></trkpt><trkpt lat="44.57724464220326" lon="8.036302818974638"><ele>553.0</ele><time>2026-04-12T09:07:05Z</time></trkpt><trkpt lat="44.57723761918846" lon="8.036413684980545"><ele>553.0</ele><time>2026-04-12T09:07:06Z</time></trkpt><trkpt lat="44.57724138110801" lon="8.03656938334458"><ele>553.0</ele><time>2026-04-12T09:07:08Z</time></trkpt><trkpt lat="44.57719604503894" lon="8.036697812385906"><ele>553.0</ele><time>2026-04-12T09:07:10Z</time></trkpt><trkpt lat="44.57718700178001" lon="8.036800206956922"><ele>553.0</ele><time>2026-04-12T09:07:12Z</time></trkpt><trkpt lat="44.57716595104025" lon="8.036953885814695"><ele>553.0</ele><time>2026-04-12T09:07:14Z</time></trkpt><trkpt lat="44.577127754745675" lon="8.037090763623883"><ele>553.0</ele><time>2026-04-12T09:07:16Z</time></trkpt><trkpt lat="44.57707677254367" lon="8.037183270566342"><ele>553.0</ele><time>2026-04-12T09:07:18Z</time></trkpt><trkpt lat="44.57702453453966" lon="8.037268963324724"><ele>553.0</ele><time>2026-04-12T09:07:19Z</time></trkpt><trkpt lat="44.57695011882502" lon="8.037375741580814"><ele>553.0</ele><time>2026-04-12T09:07:21Z</time></trkpt><trkpt lat="44.576913051752776" lon="8.037481808286818"><ele>553.0</ele><time>2026-04-12T09:07:23Z</time></trkpt><trkpt lat="44.57687107401679" lon="8.037566630221995"><ele>553.0</ele><time>2026-04-12T09:07:24Z</time></trkpt><trkpt lat="44.576818375249495" lon="8.037724267920593"><ele>548.6666666666667</ele><time>2026-04-12T09:07:26Z</time></trkpt><trkpt lat="44.57678180487927" lon="8.037797746878494"><ele>544.3333333333334</ele><time>2026-04-12T09:07:27Z</time></trkpt><trkpt lat="44.57673318786004" lon="8.037891719946469"><ele>540.0</ele><time>2026-04-12T09:07:29Z</time></trkpt><trkpt lat="44.57665313246593" lon="8.037995434612201"><ele>535.6666666666666</ele><time>2026-04-12T09:07:31Z</time></trkpt><trkpt lat="44.57660915282726" lon="8.038099102088049"><ele>531.3333333333333</ele><time>2026-04-12T09:07:33Z</time></trkpt><trkpt lat="44.57655616130922" lon="8.038207616618637"><ele>527.0</ele><time>2026-04-12T09:07:35Z</time></trkpt><trkpt lat="44.57654039141702" lon="8.038299770522585"><ele>526.6666666666666</ele><time>2026-04-12T09:07:36Z</time></trkpt><trkpt lat="44.57648169124235" lon="8.038425018686747"><ele>526.3333333333333</ele><time>2026-04-12T09:07:38Z</time></trkpt><trkpt lat="44.57642408138137" lon="8.0385241360029"><ele>526.0</ele><time>2026-04-12T09:07:40Z</time></trkpt><trkpt lat="44.576365364135704" lon="8.03862050529503"><ele>525.6666666666666</ele><time>2026-04-12T09:07:42Z</time></trkpt><trkpt lat="44.57631520747358" lon="8.038722530918166"><ele>525.3333333333334</ele><time>2026-04-12T09:07:44Z</time></trkpt><trkpt lat="44.57625650903941" lon="8.038776773460802"><ele>525.0</ele><time>2026-04-12T09:07:46Z</time></trkpt><trkpt lat="44.57618659009673" lon="8.038844206422874"><ele>525.0</ele><time>2026-04-12T09:07:49Z</time></trkpt><trkpt lat="44.57614291972816" lon="8.038949929337706"><ele>525.0</ele><time>2026-04-12T09:07:52Z</time></trkpt><trkpt lat="44.576080927701156" lon="8.039028832926437"><ele>525.0</ele><time>2026-04-12T09:07:55Z</time></trkpt><trkpt lat="44.57603874844689" lon="8.039110061075473"><ele>525.0</ele><time>2026-04-12T09:07:57Z</time></trkpt><trkpt lat="44.57594731053961" lon="8.039198149987058"><ele>525.0</ele><time>2026-04-12T09:08:06.999Z</time></trkpt><trkpt lat="44.57601256253489" lon="8.039255739355902"><ele>525.0</ele><time>2026-04-12T09:08:18.999Z</time></trkpt><trkpt lat="44.57593416898496" lon="8.039281956169528"><ele>524.6666666666666</ele><time>2026-04-12T09:08:22.999Z</time></trkpt><trkpt lat="44.57586616631826" lon="8.039312171799155"><ele>524.3333333333334</ele><time>2026-04-12T09:08:25.999Z</time></trkpt><trkpt lat="44.57579420640709" lon="8.039354611706907"><ele>524.0</ele><time>2026-04-12T09:08:29.999Z</time></trkpt><trkpt lat="44.57574105095492" lon="8.03941662964169"><ele>523.6666666666667</ele><time>2026-04-12T09:08:31.999Z</time></trkpt><trkpt lat="44.57566965011571" lon="8.039483153383772"><ele>523.3333333333334</ele><time>2026-04-12T09:08:34.999Z</time></trkpt><trkpt lat="44.57562233945436" lon="8.039570358495675"><ele>523.0</ele><time>2026-04-12T09:08:38.999Z</time></trkpt><trkpt lat="44.575563177345195" lon="8.03963071806405"><ele>522.9999999999999</ele><time>2026-04-12T09:08:41.999Z</time></trkpt><trkpt lat="44.575523056273" lon="8.039701186906717"><ele>523.0</ele><time>2026-04-12T09:08:45.999Z</time></trkpt><trkpt lat="44.575461916355444" lon="8.03975705410943"><ele>523.0</ele><time>2026-04-12T09:08:49.999Z</time></trkpt><trkpt lat="44.575481708387635" lon="8.039858650440854"><ele>523.0</ele><time>2026-04-12T09:08:52.999Z</time></trkpt><trkpt lat="44.57543227880929" lon="8.039925385154103"><ele>523.0</ele><time>2026-04-12T09:08:56.999Z</time></trkpt><trkpt lat="44.57537777709809" lon="8.03997184410146"><ele>522.9999999999999</ele><time>2026-04-12T09:09:00.999Z</time></trkpt><trkpt lat="44.575327361565314" lon="8.040028831474382"><ele>523.0</ele><time>2026-04-12T09:09:03.999Z</time></trkpt><trkpt lat="44.57527730821608" lon="8.040116759672056"><ele>525.1666666666667</ele><time>2026-04-12T09:09:07Z</time></trkpt><trkpt lat="44.575241613199935" lon="8.040219317526672"><ele>527.3333333333334</ele><time>2026-04-12T09:09:10Z</time></trkpt><trkpt lat="44.575193063072064" lon="8.040323441229761"><ele>529.5</ele><time>2026-04-12T09:09:13Z</time></trkpt><trkpt lat="44.57517513871593" lon="8.04041347924005"><ele>531.6666666666666</ele><time>2026-04-12T09:09:15Z</time></trkpt><trkpt lat="44.5751527383593" lon="8.040501306310167"><ele>533.8333333333333</ele><time>2026-04-12T09:09:18Z</time></trkpt><trkpt lat="44.57511310258013" lon="8.040591477871189"><ele>536.0</ele><time>2026-04-12T09:09:22Z</time></trkpt><trkpt lat="44.5750658975064" lon="8.040668438819543"><ele>536.0</ele><time>2026-04-12T09:09:26Z</time></trkpt><trkpt lat="44.575067432091274" lon="8.040768198464608"><ele>536.0</ele><time>2026-04-12T09:09:31Z</time></trkpt><trkpt lat="44.57500212347707" lon="8.040791302804806"><ele>536.0</ele><time>2026-04-12T09:09:36Z</time></trkpt><trkpt lat="44.57494684919438" lon="8.04088161945179"><ele>536.0</ele><time>2026-04-12T09:10:10.999Z</time></trkpt><trkpt lat="44.574890359648926" lon="8.04092670614402"><ele>536.0</ele><time>2026-04-12T09:10:23.999Z</time></trkpt><trkpt lat="44.57491042213249" lon="8.041012540739537"><ele>536.0</ele><time>2026-04-12T09:10:32.999Z</time></trkpt><trkpt lat="44.57486326334756" lon="8.04108316336558"><ele>536.0</ele><time>2026-04-12T09:10:44.999Z</time></trkpt><trkpt lat="44.574820557794474" lon="8.041171743808919"><ele>535.7142857142858</ele><time>2026-04-12T09:10:53.999Z</time></trkpt><trkpt lat="44.57477607976224" lon="8.041243934910224"><ele>535.4285714285714</ele><time>2026-04-12T09:11:03.999Z</time></trkpt><trkpt lat="44.574858020848275" lon="8.041293754430482"><ele>535.1428571428571</ele><time>2026-04-12T09:11:31Z</time></trkpt><trkpt lat="44.574792781610235" lon="8.041241206297942"><ele>534.8571428571429</ele><time>2026-04-12T09:11:39Z</time></trkpt><trkpt lat="44.5748657818843" lon="8.041240876663403"><ele>534.5714285714286</ele><time>2026-04-12T09:11:53Z</time></trkpt><trkpt lat="44.574800491088375" lon="8.041257365576532"><ele>534.2857142857143</ele><time>2026-04-12T09:12:16.999Z</time></trkpt><trkpt lat="44.57485946656531" lon="8.041203952977206"><ele>534.0</ele><time>2026-04-12T09:12:22.999Z</time></trkpt><trkpt lat="44.57482188061973" lon="8.041286467323868"><ele>534.0000000000001</ele><time>2026-04-12T09:12:31.999Z</time></trkpt><trkpt lat="44.574816702459636" lon="8.04119502844858"><ele>534.0</ele><time>2026-04-12T09:12:40.999Z</time></trkpt><trkpt lat="44.57482570793439" lon="8.041097751816908"><ele>534.0</ele><time>2026-04-12T09:12:43.999Z</time></trkpt><trkpt lat="44.57485373873301" lon="8.041009166288571"><ele>534.0</ele><time>2026-04-12T09:12:46.999Z</time></trkpt><trkpt lat="44.574875101428404" lon="8.040912700742467"><ele>534.0</ele><time>2026-04-12T09:12:51.999Z</time></trkpt><trkpt lat="44.57490407325939" lon="8.040831256014425"><ele>534.0000000000001</ele><time>2026-04-12T09:12:55.999Z</time></trkpt><trkpt lat="44.57494205582916" lon="8.040721208355855"><ele>534.0</ele><time>2026-04-12T09:12:58.999Z</time></trkpt><trkpt lat="44.57494192031458" lon="8.04062633043021"><ele>534.3333333333334</ele><time>2026-04-12T09:13:02.999Z</time></trkpt><trkpt lat="44.574986093883446" lon="8.040533514755015"><ele>534.6666666666666</ele><time>2026-04-12T09:13:05.999Z</time></trkpt><trkpt lat="44.57497017826624" lon="8.040412308888364"><ele>535.0</ele><time>2026-04-12T09:13:10.999Z</time></trkpt><trkpt lat="44.57493116163661" lon="8.040315159023981"><ele>535.3333333333333</ele><time>2026-04-12T09:13:13.999Z</time></trkpt><trkpt lat="44.57492065050973" lon="8.040225122983006"><ele>535.6666666666666</ele><time>2026-04-12T09:13:17.999Z</time></trkpt><trkpt lat="44.57491198439741" lon="8.040111958983092"><ele>536.0</ele><time>2026-04-12T09:13:21Z</time></trkpt><trkpt lat="44.57495930822147" lon="8.040050712948197"><ele>536.0</ele><time>2026-04-12T09:13:26Z</time></trkpt><trkpt lat="44.574913901600226" lon="8.039965218610375"><ele>536.0</ele><time>2026-04-12T09:13:30Z</time></trkpt><trkpt lat="44.57493885640621" lon="8.039869145951764"><ele>536.0</ele><time>2026-04-12T09:13:33Z</time></trkpt><trkpt lat="44.5749067659003" lon="8.039790236789191"><ele>536.0</ele><time>2026-04-12T09:13:37Z</time></trkpt><trkpt lat="44.574873235236915" lon="8.039710609968866"><ele>536.0</ele><time>2026-04-12T09:13:40Z</time></trkpt><trkpt lat="44.57480415798926" lon="8.03972799062035"><ele>536.0</ele><time>2026-04-12T09:13:46Z</time></trkpt><trkpt lat="44.57472674233294" lon="8.039753244305553"><ele>536.0</ele><time>2026-04-12T09:13:50Z</time></trkpt><trkpt lat="44.57466291347912" lon="8.039713207370937"><ele>536.0</ele><time>2026-04-12T09:13:54Z</time></trkpt><trkpt lat="44.57466722677079" lon="8.039614626407118"><ele>536.0</ele><time>2026-04-12T09:13:57Z</time></trkpt><trkpt lat="44.57466976090375" lon="8.039512072850158"><ele>536.0</ele><time>2026-04-12T09:14:02Z</time></trkpt><trkpt lat="44.57465588331024" lon="8.039420044719721"><ele>536.0</ele><time>2026-04-12T09:14:06Z</time></trkpt><trkpt lat="44.57468797780882" lon="8.039316121020974"><ele>536.0</ele><time>2026-04-12T09:14:10Z</time></trkpt><trkpt lat="44.57469534755175" lon="8.039217977303226"><ele>536.0</ele><time>2026-04-12T09:14:15Z</time></trkpt><trkpt lat="44.574685840266966" lon="8.03912265473167"><ele>536.0</ele><time>2026-04-12T09:14:20.999Z</time></trkpt><trkpt lat="44.574709685462885" lon="8.039015789404683"><ele>536.0</ele><time>2026-04-12T09:14:24.999Z</time></trkpt><trkpt lat="44.57467884010121" lon="8.038869707510678"><ele>536.0</ele><time>2026-04-12T09:15:29Z</time></trkpt><trkpt lat="44.57468771194577" lon="8.038765568106813"><ele>536.0</ele><time>2026-04-12T09:17:08.999Z</time></trkpt><trkpt lat="44.57473957480953" lon="8.038680076102839"><ele>536.0</ele><time>2026-04-12T09:17:11.999Z</time></trkpt><trkpt lat="44.57478518917618" lon="8.038591681167599"><ele>536.0</ele><time>2026-04-12T09:17:15.999Z</time></trkpt><trkpt lat="44.57482987237809" lon="8.038502333462114"><ele>536.0</ele><time>2026-04-12T09:17:17.999Z</time></trkpt><trkpt lat="44.57486203660839" lon="8.038372543676768"><ele>535.8333333333333</ele><time>2026-04-12T09:17:20.999Z</time></trkpt><trkpt lat="44.57486750227497" lon="8.038274470895054"><ele>535.6666666666666</ele><time>2026-04-12T09:17:22.999Z</time></trkpt><trkpt lat="44.57485878042619" lon="8.038174030193673"><ele>535.5</ele><time>2026-04-12T09:17:24.999Z</time></trkpt><trkpt lat="44.57485180730148" lon="8.038054822938506"><ele>535.3333333333334</ele><time>2026-04-12T09:17:26.999Z</time></trkpt><trkpt lat="44.574819707479115" lon="8.037936923416659"><ele>535.1666666666667</ele><time>2026-04-12T09:17:28.999Z</time></trkpt><trkpt lat="44.57477983691359" lon="8.037819131585488"><ele>535.0</ele><time>2026-04-12T09:17:32Z</time></trkpt><trkpt lat="44.57473245435818" lon="8.037745241601566"><ele>535.0</ele><time>2026-04-12T09:17:35Z</time></trkpt><trkpt lat="44.57468354748124" lon="8.037657727475272"><ele>535.0</ele><time>2026-04-12T09:17:38Z</time></trkpt><trkpt lat="44.57464360339838" lon="8.037552500504734"><ele>535.0</ele><time>2026-04-12T09:17:41Z</time></trkpt><trkpt lat="44.57462103298016" lon="8.037463504930978"><ele>535.0</ele><time>2026-04-12T09:17:44Z</time></trkpt><trkpt lat="44.57460129044231" lon="8.03737857262635"><ele>535.0</ele><time>2026-04-12T09:17:47Z</time></trkpt><trkpt lat="44.57455799122574" lon="8.037277555977527"><ele>535.0</ele><time>2026-04-12T09:17:50Z</time></trkpt><trkpt lat="44.57451990511362" lon="8.037188569329818"><ele>536.8333333333334</ele><time>2026-04-12T09:17:53Z</time></trkpt><trkpt lat="44.57447289867044" lon="8.037097725863244"><ele>538.6666666666667</ele><time>2026-04-12T09:17:56Z</time></trkpt><trkpt lat="44.574436827556966" lon="8.03701866386783"><ele>540.5</ele><time>2026-04-12T09:17:59Z</time></trkpt><trkpt lat="44.57439150425818" lon="8.036949889744713"><ele>542.3333333333334</ele><time>2026-04-12T09:18:02Z</time></trkpt><trkpt lat="44.57433375972745" lon="8.036862541073022"><ele>544.1666666666666</ele><time>2026-04-12T09:18:05Z</time></trkpt><trkpt lat="44.574295140937835" lon="8.036757435270236"><ele>546.0</ele><time>2026-04-12T09:18:08Z</time></trkpt><trkpt lat="44.5742481676558" lon="8.036667330021926"><ele>546.5</ele><time>2026-04-12T09:18:11Z</time></trkpt><trkpt lat="44.574195890694284" lon="8.036576913068028"><ele>547.0</ele><time>2026-04-12T09:18:14Z</time></trkpt><trkpt lat="44.574149718302046" lon="8.036486279509429"><ele>547.5</ele><time>2026-04-12T09:18:17Z</time></trkpt><trkpt lat="44.574122137823956" lon="8.036399509343672"><ele>548.0</ele><time>2026-04-12T09:18:19Z</time></trkpt><trkpt lat="44.574075665242525" lon="8.036293228558923"><ele>548.5</ele><time>2026-04-12T09:18:22Z</time></trkpt><trkpt lat="44.574045335138585" lon="8.036167603109657"><ele>549.0</ele><time>2026-04-12T09:18:26Z</time></trkpt><trkpt lat="44.574065411466805" lon="8.036082202044174"><ele>549.0</ele><time>2026-04-12T09:18:28Z</time></trkpt><trkpt lat="44.5740771182597" lon="8.035960044724181"><ele>549.0</ele><time>2026-04-12T09:18:30.999Z</time></trkpt><trkpt lat="44.57407186127295" lon="8.035854096668272"><ele>549.0</ele><time>2026-04-12T09:18:33.999Z</time></trkpt><trkpt lat="44.57405202138906" lon="8.035759889456706"><ele>549.0</ele><time>2026-04-12T09:18:36.999Z</time></trkpt><trkpt lat="44.57401690911856" lon="8.035663227229644"><ele>549.0</ele><time>2026-04-12T09:18:39.999Z</time></trkpt><trkpt lat="44.573991477717364" lon="8.035550733673725"><ele>549.0</ele><time>2026-04-12T09:18:41.999Z</time></trkpt><trkpt lat="44.5739958749246" lon="8.035454894473819"><ele>548.2857142857142</ele><time>2026-04-12T09:18:43.999Z</time></trkpt><trkpt lat="44.574008795782234" lon="8.035360040710211"><ele>547.5714285714286</ele><time>2026-04-12T09:18:45.999Z</time></trkpt><trkpt lat="44.57403857645053" lon="8.03525113861769"><ele>546.8571428571429</ele><time>2026-04-12T09:18:47.999Z</time></trkpt><trkpt lat="44.57405856554149" lon="8.035146213889346"><ele>546.1428571428571</ele><time>2026-04-12T09:18:49.999Z</time></trkpt><trkpt lat="44.574070907405996" lon="8.035046875265122"><ele>545.4285714285714</ele><time>2026-04-12T09:18:51.999Z</time></trkpt><trkpt lat="44.57406472888837" lon="8.034933093489563"><ele>544.7142857142857</ele><time>2026-04-12T09:18:53.999Z</time></trkpt><trkpt lat="44.57404952534749" lon="8.034843286719589"><ele>544.0</ele><time>2026-04-12T09:18:55.999Z</time></trkpt><trkpt lat="44.57405312036772" lon="8.03474060764896"><ele>543.0</ele><time>2026-04-12T09:18:57.999Z</time></trkpt><trkpt lat="44.574047947916995" lon="8.034624107437942"><ele>542.0</ele><time>2026-04-12T09:18:59.999Z</time></trkpt><trkpt lat="44.57404358059014" lon="8.034515923753016"><ele>541.0</ele><time>2026-04-12T09:19:01.999Z</time></trkpt><trkpt lat="44.574024290966136" lon="8.034416505448997"><ele>540.0</ele><time>2026-04-12T09:19:03.999Z</time></trkpt><trkpt lat="44.57399227447896" lon="8.03430276894009"><ele>539.0</ele><time>2026-04-12T09:19:05.999Z</time></trkpt><trkpt lat="44.57395518015802" lon="8.034162478423655"><ele>538.0</ele><time>2026-04-12T09:19:07.999Z</time></trkpt><trkpt lat="44.573916577889364" lon="8.034025645388782"><ele>536.3333333333334</ele><time>2026-04-12T09:19:09.999Z</time></trkpt><trkpt lat="44.57389070503692" lon="8.0338773157025"><ele>534.6666666666667</ele><time>2026-04-12T09:19:11.999Z</time></trkpt><trkpt lat="44.5738660735862" lon="8.033795452898651"><ele>533.0</ele><time>2026-04-12T09:19:12.999Z</time></trkpt><trkpt lat="44.57382391586854" lon="8.033729165259377"><ele>531.3333333333334</ele><time>2026-04-12T09:19:13.999Z</time></trkpt><trkpt lat="44.57375612663666" lon="8.033621464959827"><ele>529.6666666666666</ele><time>2026-04-12T09:19:15.999Z</time></trkpt><trkpt lat="44.57368194744645" lon="8.033551507742894"><ele>528.0</ele><time>2026-04-12T09:19:17.999Z</time></trkpt><trkpt lat="44.57361215032289" lon="8.033494192096242"><ele>528.3333333333334</ele><time>2026-04-12T09:19:19.999Z</time></trkpt><trkpt lat="44.57356090899926" lon="8.033395448746795"><ele>528.6666666666666</ele><time>2026-04-12T09:19:21.999Z</time></trkpt><trkpt lat="44.57352143012906" lon="8.033320028469785"><ele>529.0</ele><time>2026-04-12T09:19:23.999Z</time></trkpt><trkpt lat="44.573475726164624" lon="8.033225533726908"><ele>529.3333333333333</ele><time>2026-04-12T09:19:25.999Z</time></trkpt><trkpt lat="44.57343450853193" lon="8.033118048480638"><ele>529.6666666666666</ele><time>2026-04-12T09:19:27.999Z</time></trkpt><trkpt lat="44.57338297893257" lon="8.033025820971314"><ele>530.0</ele><time>2026-04-12T09:19:29.999Z</time></trkpt><trkpt lat="44.573331038404554" lon="8.032963440539634"><ele>530.0</ele><time>2026-04-12T09:19:31.999Z</time></trkpt><trkpt lat="44.573274280553825" lon="8.032911186009343"><ele>530.0</ele><time>2026-04-12T09:19:33.999Z</time></trkpt><trkpt lat="44.57320741969092" lon="8.032823290247734"><ele>530.0</ele><time>2026-04-12T09:19:35.999Z</time></trkpt><trkpt lat="44.57313716761211" lon="8.032732120447195"><ele>530.0</ele><time>2026-04-12T09:19:38Z</time></trkpt><trkpt lat="44.573060068369124" lon="8.032631339388304"><ele>530.0</ele><time>2026-04-12T09:19:40Z</time></trkpt><trkpt lat="44.57298924685788" lon="8.03254601565567"><ele>530.2</ele><time>2026-04-12T09:19:42Z</time></trkpt><trkpt lat="44.572906472991285" lon="8.032448464749129"><ele>530.4</ele><time>2026-04-12T09:19:44Z</time></trkpt><trkpt lat="44.57281879454367" lon="8.032350304829201"><ele>530.6</ele><time>2026-04-12T09:19:46Z</time></trkpt><trkpt lat="44.57273649397471" lon="8.032254192140645"><ele>530.8</ele><time>2026-04-12T09:19:48Z</time></trkpt><trkpt lat="44.57266643682382" lon="8.032184722643905"><ele>531.0</ele><time>2026-04-12T09:19:50Z</time></trkpt><trkpt lat="44.57259335082399" lon="8.032096226052019"><ele>531.0</ele><time>2026-04-12T09:19:53Z</time></trkpt><trkpt lat="44.57251601629812" lon="8.032033217397974"><ele>531.0</ele><time>2026-04-12T09:19:55Z</time></trkpt><trkpt lat="44.57244629772058" lon="8.031967684657896"><ele>531.0</ele><time>2026-04-12T09:19:57Z</time></trkpt><trkpt lat="44.57239723794438" lon="8.031905607216931"><ele>531.0</ele><time>2026-04-12T09:19:59Z</time></trkpt><trkpt lat="44.57233747811478" lon="8.031859149897144"><ele>531.0</ele><time>2026-04-12T09:20:01Z</time></trkpt><trkpt lat="44.57227589246607" lon="8.031832876021706"><ele>531.0</ele><time>2026-04-12T09:20:03Z</time></trkpt><trkpt lat="44.57219576383742" lon="8.031786310919234"><ele>531.0</ele><time>2026-04-12T09:20:06Z</time></trkpt><trkpt lat="44.572109812712135" lon="8.031756378397995"><ele>531.0</ele><time>2026-04-12T09:20:09Z</time></trkpt><trkpt lat="44.572031354980965" lon="8.031740292856174"><ele>531.0</ele><time>2026-04-12T09:20:12Z</time></trkpt><trkpt lat="44.57196177878393" lon="8.031729356240513"><ele>531.0</ele><time>2026-04-12T09:20:15Z</time></trkpt><trkpt lat="44.57188965728059" lon="8.031714228692936"><ele>531.0</ele><time>2026-04-12T09:20:18Z</time></trkpt><trkpt lat="44.57182350665589" lon="8.031689207554559"><ele>531.0</ele><time>2026-04-12T09:20:21Z</time></trkpt><trkpt lat="44.57175589512343" lon="8.03167987011605"><ele>531.0</ele><time>2026-04-12T09:20:24Z</time></trkpt><trkpt lat="44.571691261617836" lon="8.031647859810754"><ele>531.0</ele><time>2026-04-12T09:20:27Z</time></trkpt><trkpt lat="44.57162084220944" lon="8.031620065757522"><ele>531.0</ele><time>2026-04-12T09:20:30Z</time></trkpt><trkpt lat="44.57154301678636" lon="8.031583267563684"><ele>531.0</ele><time>2026-04-12T09:20:33Z</time></trkpt><trkpt lat="44.57146344804716" lon="8.03153224814537"><ele>531.0</ele><time>2026-04-12T09:20:35.999Z</time></trkpt><trkpt lat="44.57137881469209" lon="8.031488635457949"><ele>531.0</ele><time>2026-04-12T09:20:38.999Z</time></trkpt><trkpt lat="44.57130194554538" lon="8.031411585256503"><ele>531.0</ele><time>2026-04-12T09:20:41.999Z</time></trkpt><trkpt lat="44.57123040809381" lon="8.031348564530605"><ele>532.5</ele><time>2026-04-12T09:20:44.999Z</time></trkpt><trkpt lat="44.571165098946736" lon="8.031292069630682"><ele>534.0</ele><time>2026-04-12T09:20:47.999Z</time></trkpt><trkpt lat="44.571088561270116" lon="8.031245918638843"><ele>535.5</ele><time>2026-04-12T09:20:50.999Z</time></trkpt><trkpt lat="44.57100836899752" lon="8.031199357314884"><ele>537.0</ele><time>2026-04-12T09:20:53.999Z</time></trkpt><trkpt lat="44.57092710846888" lon="8.031176489346239"><ele>538.5</ele><time>2026-04-12T09:20:56.999Z</time></trkpt><trkpt lat="44.57084802887363" lon="8.031127830928744"><ele>540.0</ele><time>2026-04-12T09:20:59.999Z</time></trkpt><trkpt lat="44.57077930927726" lon="8.031109371343309"><ele>540.0</ele><time>2026-04-12T09:21:02.999Z</time></trkpt><trkpt lat="44.57070207460215" lon="8.031092033840967"><ele>540.0</ele><time>2026-04-12T09:21:05.999Z</time></trkpt><trkpt lat="44.57063039348772" lon="8.031077859917849"><ele>540.0</ele><time>2026-04-12T09:21:08.999Z</time></trkpt><trkpt lat="44.57054529930045" lon="8.031080088495772"><ele>540.0</ele><time>2026-04-12T09:21:12.999Z</time></trkpt><trkpt lat="44.57046743763028" lon="8.03105272833423"><ele>540.0</ele><time>2026-04-12T09:21:15.999Z</time></trkpt><trkpt lat="44.57039294667567" lon="8.031028823103103"><ele>540.0</ele><time>2026-04-12T09:21:18.999Z</time></trkpt><trkpt lat="44.570321590225134" lon="8.031010872148837"><ele>540.3333333333334</ele><time>2026-04-12T09:21:21.999Z</time></trkpt><trkpt lat="44.57024736249404" lon="8.030995173010787"><ele>540.6666666666666</ele><time>2026-04-12T09:21:24.999Z</time></trkpt><trkpt lat="44.57017062583415" lon="8.030962363242516"><ele>541.0</ele><time>2026-04-12T09:21:27.999Z</time></trkpt><trkpt lat="44.570087938543374" lon="8.030930756114053"><ele>541.3333333333333</ele><time>2026-04-12T09:21:31.999Z</time></trkpt><trkpt lat="44.570000983013735" lon="8.030907302962202"><ele>541.6666666666666</ele><time>2026-04-12T09:21:35.999Z</time></trkpt><trkpt lat="44.56993027984131" lon="8.030920147104224"><ele>542.0</ele><time>2026-04-12T09:21:39.999Z</time></trkpt><trkpt lat="44.56985574400159" lon="8.030951771683565"><ele>542.0</ele><time>2026-04-12T09:21:43Z</time></trkpt><trkpt lat="44.5697851922073" lon="8.0309942001518"><ele>542.0</ele><time>2026-04-12T09:21:47Z</time></trkpt><trkpt lat="44.56970670164046" lon="8.031061873083589"><ele>542.0</ele><time>2026-04-12T09:21:51Z</time></trkpt><trkpt lat="44.56964824274607" lon="8.031157447708738"><ele>542.0</ele><time>2026-04-12T09:21:55Z</time></trkpt><trkpt lat="44.56959549296433" lon="8.031214001479912"><ele>542.0</ele><time>2026-04-12T09:21:58Z</time></trkpt><trkpt lat="44.56956008992922" lon="8.031291204648964"><ele>542.0</ele><time>2026-04-12T09:22:01Z</time></trkpt><trkpt lat="44.569516781079834" lon="8.031359479792156"><ele>541.7142857142857</ele><time>2026-04-12T09:22:04Z</time></trkpt><trkpt lat="44.56948051296612" lon="8.031460689576715"><ele>541.4285714285714</ele><time>2026-04-12T09:22:08Z</time></trkpt><trkpt lat="44.569427737717646" lon="8.031533157223448"><ele>541.1428571428571</ele><time>2026-04-12T09:22:13Z</time></trkpt><trkpt lat="44.569392495081836" lon="8.031628536793887"><ele>540.8571428571429</ele><time>2026-04-12T09:22:18Z</time></trkpt><trkpt lat="44.569352455125085" lon="8.031717456586897"><ele>540.5714285714286</ele><time>2026-04-12T09:22:23Z</time></trkpt><trkpt lat="44.569313433700685" lon="8.031804592798302"><ele>540.2857142857142</ele><time>2026-04-12T09:22:27Z</time></trkpt><trkpt lat="44.56927435621479" lon="8.031876793445788"><ele>540.0</ele><time>2026-04-12T09:22:31Z</time></trkpt><trkpt lat="44.569239586062714" lon="8.03195221557474"><ele>542.2857142857142</ele><time>2026-04-12T09:22:34Z</time></trkpt><trkpt lat="44.56921556274507" lon="8.032042516295284"><ele>544.5714285714286</ele><time>2026-04-12T09:22:37.999Z</time></trkpt><trkpt lat="44.569180116049594" lon="8.032129004461835"><ele>546.8571428571429</ele><time>2026-04-12T09:22:41.999Z</time></trkpt><trkpt lat="44.56915823081299" lon="8.032245547318091"><ele>549.1428571428571</ele><time>2026-04-12T09:22:46.999Z</time></trkpt><trkpt lat="44.56913605756238" lon="8.03233459235735"><ele>551.4285714285714</ele><time>2026-04-12T09:22:51.999Z</time></trkpt><trkpt lat="44.569139106964904" lon="8.032434973839152"><ele>553.7142857142857</ele><time>2026-04-12T09:22:55.999Z</time></trkpt><trkpt lat="44.569140842792585" lon="8.032533975469649"><ele>556.0</ele><time>2026-04-12T09:22:59.999Z</time></trkpt><trkpt lat="44.56913609364529" lon="8.032644722616014"><ele>557.7142857142857</ele><time>2026-04-12T09:23:04.999Z</time></trkpt><trkpt lat="44.56914812961913" lon="8.032736801001636"><ele>559.4285714285714</ele><time>2026-04-12T09:23:09.999Z</time></trkpt><trkpt lat="44.56915053238386" lon="8.03283019795014"><ele>561.1428571428571</ele><time>2026-04-12T09:23:14.999Z</time></trkpt><trkpt lat="44.569122150142185" lon="8.03292319011904"><ele>562.8571428571429</ele><time>2026-04-12T09:23:17.999Z</time></trkpt><trkpt lat="44.569126492707625" lon="8.033014358217045"><ele>564.5714285714286</ele><time>2026-04-12T09:23:23.999Z</time></trkpt><trkpt lat="44.56914845234762" lon="8.0331193429824"><ele>566.2857142857142</ele><time>2026-04-12T09:23:26.999Z</time></trkpt><trkpt lat="44.56911700442021" lon="8.033220970492817"><ele>568.0</ele><time>2026-04-12T09:23:30.999Z</time></trkpt><trkpt lat="44.56908521679504" lon="8.033334354187359"><ele>569.5714285714286</ele><time>2026-04-12T09:23:34.999Z</time></trkpt><trkpt lat="44.569053768621664" lon="8.03344049380428"><ele>571.1428571428571</ele><time>2026-04-12T09:23:38.999Z</time></trkpt><trkpt lat="44.56904983730106" lon="8.033547919724805"><ele>572.7142857142857</ele><time>2026-04-12T09:23:41.999Z</time></trkpt><trkpt lat="44.5690347540885" lon="8.0336435023003"><ele>574.2857142857142</ele><time>2026-04-12T09:23:44.999Z</time></trkpt><trkpt lat="44.56900019515287" lon="8.033731796534862"><ele>575.8571428571429</ele><time>2026-04-12T09:23:47.999Z</time></trkpt><trkpt lat="44.5690157372383" lon="8.033820586063845"><ele>577.4285714285713</ele><time>2026-04-12T09:23:51Z</time></trkpt><trkpt lat="44.56900582503072" lon="8.033935579829066"><ele>579.0</ele><time>2026-04-12T09:23:55Z</time></trkpt><trkpt lat="44.569014067687235" lon="8.034052286071965"><ele>580.5714285714286</ele><time>2026-04-12T09:23:59Z</time></trkpt><trkpt lat="44.56902816071625" lon="8.034162888499033"><ele>582.1428571428571</ele><time>2026-04-12T09:24:03Z</time></trkpt><trkpt lat="44.56902601732076" lon="8.034255928828884"><ele>583.7142857142858</ele><time>2026-04-12T09:24:06Z</time></trkpt><trkpt lat="44.569039375356844" lon="8.034347520277997"><ele>585.2857142857142</ele><time>2026-04-12T09:24:09Z</time></trkpt><trkpt lat="44.56902826070188" lon="8.03444633928899"><ele>586.8571428571429</ele><time>2026-04-12T09:24:12Z</time></trkpt><trkpt lat="44.569015406506836" lon="8.034554240799096"><ele>588.4285714285714</ele><time>2026-04-12T09:24:16Z</time></trkpt><trkpt lat="44.5690152322969" lon="8.034662699637696"><ele>590.0</ele><time>2026-04-12T09:24:20Z</time></trkpt><trkpt lat="44.56898875688306" lon="8.034762174767936"><ele>590.0000000000001</ele><time>2026-04-12T09:24:24Z</time></trkpt><trkpt lat="44.56897625640587" lon="8.034853748458964"><ele>590.0</ele><time>2026-04-12T09:24:28Z</time></trkpt><trkpt lat="44.568966570837" lon="8.034953256032837"><ele>590.0</ele><time>2026-04-12T09:24:31Z</time></trkpt><trkpt lat="44.56894169891638" lon="8.035044446626607"><ele>590.0</ele><time>2026-04-12T09:24:36Z</time></trkpt><trkpt lat="44.568928117234286" lon="8.03514529468314"><ele>590.0</ele><time>2026-04-12T09:24:39.999Z</time></trkpt><trkpt lat="44.56892612196315" lon="8.035250477568775"><ele>590.0000000000001</ele><time>2026-04-12T09:24:42.999Z</time></trkpt><trkpt lat="44.56889962445137" lon="8.035369638725658"><ele>590.0</ele><time>2026-04-12T09:24:45.999Z</time></trkpt><trkpt lat="44.568872719404546" lon="8.035474388712155"><ele>590.3333333333333</ele><time>2026-04-12T09:24:48.999Z</time></trkpt><trkpt lat="44.568827064467875" lon="8.035574476792748"><ele>590.6666666666666</ele><time>2026-04-12T09:24:51.999Z</time></trkpt><trkpt lat="44.56878099316443" lon="8.035667230506215"><ele>591.0</ele><time>2026-04-12T09:24:54.999Z</time></trkpt><trkpt lat="44.56873636751249" lon="8.035762117553483"><ele>591.3333333333334</ele><time>2026-04-12T09:24:57.999Z</time></trkpt><trkpt lat="44.56868212372776" lon="8.035832763926626"><ele>591.6666666666667</ele><time>2026-04-12T09:25:00.999Z</time></trkpt><trkpt lat="44.56863701499242" lon="8.035911159076457"><ele>592.0</ele><time>2026-04-12T09:25:02.999Z</time></trkpt><trkpt lat="44.56858502379938" lon="8.035977698161421"><ele>592.0</ele><time>2026-04-12T09:25:04.999Z</time></trkpt><trkpt lat="44.568525940012485" lon="8.036031828901514"><ele>592.0</ele><time>2026-04-12T09:25:06.999Z</time></trkpt><trkpt lat="44.56847724904556" lon="8.036094600618036"><ele>592.0</ele><time>2026-04-12T09:25:08.999Z</time></trkpt><trkpt lat="44.56842244506614" lon="8.036158923826113"><ele>592.0</ele><time>2026-04-12T09:25:10.999Z</time></trkpt><trkpt lat="44.56834191777031" lon="8.03621081864066"><ele>592.0</ele><time>2026-04-12T09:25:14.999Z</time></trkpt><trkpt lat="44.568263066571554" lon="8.036276798099179"><ele>592.0</ele><time>2026-04-12T09:25:18.999Z</time></trkpt><trkpt lat="44.568227232640695" lon="8.036351482857915"><ele>592.0</ele><time>2026-04-12T09:25:21.999Z</time></trkpt><trkpt lat="44.56817339264545" lon="8.036406224277583"><ele>592.0</ele><time>2026-04-12T09:25:23.999Z</time></trkpt><trkpt lat="44.568137448092244" lon="8.036501298927703"><ele>592.0</ele><time>2026-04-12T09:25:25.999Z</time></trkpt><trkpt lat="44.56809335782362" lon="8.036598451002705"><ele>592.0</ele><time>2026-04-12T09:25:27.999Z</time></trkpt><trkpt lat="44.56805071892176" lon="8.036693569825312"><ele>592.0</ele><time>2026-04-12T09:25:29.999Z</time></trkpt><trkpt lat="44.5680039020656" lon="8.036797322290036"><ele>592.0</ele><time>2026-04-12T09:25:31.999Z</time></trkpt><trkpt lat="44.56795150412134" lon="8.036888735961156"><ele>592.8571428571429</ele><time>2026-04-12T09:25:33.999Z</time></trkpt><trkpt lat="44.56790150992017" lon="8.036960553536666"><ele>593.7142857142857</ele><time>2026-04-12T09:25:35.999Z</time></trkpt><trkpt lat="44.5678548291231" lon="8.037052639617846"><ele>594.5714285714286</ele><time>2026-04-12T09:25:37.999Z</time></trkpt><trkpt lat="44.56783111868126" lon="8.037146214817039"><ele>595.4285714285714</ele><time>2026-04-12T09:25:39.999Z</time></trkpt><trkpt lat="44.56779216118498" lon="8.037228913599746"><ele>596.2857142857143</ele><time>2026-04-12T09:25:41.999Z</time></trkpt><trkpt lat="44.56775314466084" lon="8.037310092872373"><ele>597.1428571428571</ele><time>2026-04-12T09:25:43.999Z</time></trkpt><trkpt lat="44.567703281738304" lon="8.037407567125014"><ele>598.0</ele><time>2026-04-12T09:25:46.999Z</time></trkpt><trkpt lat="44.567665648924" lon="8.037480803834205"><ele>598.0</ele><time>2026-04-12T09:25:49.999Z</time></trkpt><trkpt lat="44.56765241470214" lon="8.037568010734354"><ele>598.0</ele><time>2026-04-12T09:25:51.999Z</time></trkpt><trkpt lat="44.567635618237794" lon="8.037696635174653"><ele>598.0</ele><time>2026-04-12T09:25:56Z</time></trkpt><trkpt lat="44.567648119954995" lon="8.037790372725679"><ele>598.0</ele><time>2026-04-12T09:25:59Z</time></trkpt><trkpt lat="44.56766236003232" lon="8.037877766600637"><ele>598.0</ele><time>2026-04-12T09:26:00Z</time></trkpt><trkpt lat="44.56769090798675" lon="8.0380169754405"><ele>598.0</ele><time>2026-04-12T09:26:02Z</time></trkpt><trkpt lat="44.56771600581151" lon="8.038145028226724"><ele>598.0</ele><time>2026-04-12T09:26:04Z</time></trkpt><trkpt lat="44.56774664926763" lon="8.038268808124403"><ele>598.0</ele><time>2026-04-12T09:26:06Z</time></trkpt><trkpt lat="44.56777812903971" lon="8.038391356794854"><ele>598.0</ele><time>2026-04-12T09:26:08Z</time></trkpt><trkpt lat="44.567809738836935" lon="8.038503874178378"><ele>598.0</ele><time>2026-04-12T09:26:10Z</time></trkpt><trkpt lat="44.56783466880035" lon="8.038632896852933"><ele>598.0</ele><time>2026-04-12T09:26:12Z</time></trkpt><trkpt lat="44.56783530158101" lon="8.038766857717386"><ele>598.8333333333334</ele><time>2026-04-12T09:26:14Z</time></trkpt><trkpt lat="44.56782638725978" lon="8.038895212851765"><ele>599.6666666666667</ele><time>2026-04-12T09:26:16Z</time></trkpt><trkpt lat="44.567904533788756" lon="8.038994729798159"><ele>600.5</ele><time>2026-04-12T09:26:18Z</time></trkpt><trkpt lat="44.56795772632498" lon="8.038910720299482"><ele>601.3333333333334</ele><time>2026-04-12T09:26:21Z</time></trkpt><trkpt lat="44.567969818346945" lon="8.038809893931106"><ele>602.1666666666666</ele><time>2026-04-12T09:26:23Z</time></trkpt><trkpt lat="44.56795783541964" lon="8.038713670190488"><ele>603.0</ele><time>2026-04-12T09:26:26Z</time></trkpt><trkpt lat="44.567943589997476" lon="8.038609353767615"><ele>606.3333333333334</ele><time>2026-04-12T09:26:29Z</time></trkpt><trkpt lat="44.5679496382278" lon="8.038493888721963"><ele>609.6666666666666</ele><time>2026-04-12T09:26:32Z</time></trkpt><trkpt lat="44.56793829198473" lon="8.03835688941448"><ele>613.0</ele><time>2026-04-12T09:26:37Z</time></trkpt><trkpt lat="44.567932766055044" lon="8.038242481337317"><ele>616.3333333333333</ele><time>2026-04-12T09:26:41Z</time></trkpt><trkpt lat="44.56792266453618" lon="8.038148820878277"><ele>619.6666666666666</ele><time>2026-04-12T09:26:43.999Z</time></trkpt><trkpt lat="44.567902849066556" lon="8.038045469651655"><ele>623.0</ele><time>2026-04-12T09:26:47.999Z</time></trkpt><trkpt lat="44.56792638733764" lon="8.037911520233886"><ele>623.0</ele><time>2026-04-12T09:26:51.999Z</time></trkpt><trkpt lat="44.56796643976485" lon="8.037841999823103"><ele>623.0</ele><time>2026-04-12T09:26:55.999Z</time></trkpt><trkpt lat="44.56802720439425" lon="8.03787500318193"><ele>623.0</ele><time>2026-04-12T09:26:59.999Z</time></trkpt><trkpt lat="44.56803047745671" lon="8.037972466684126"><ele>623.0</ele><time>2026-04-12T09:27:05.999Z</time></trkpt><trkpt lat="44.56805248226734" lon="8.03808099045198"><ele>623.0</ele><time>2026-04-12T09:27:10.999Z</time></trkpt><trkpt lat="44.568092908653504" lon="8.03817319625477"><ele>623.0</ele><time>2026-04-12T09:27:15.999Z</time></trkpt><trkpt lat="44.568126528798594" lon="8.03824842116631"><ele>623.0</ele><time>2026-04-12T09:27:19.999Z</time></trkpt><trkpt lat="44.56816399972043" lon="8.038327731909709"><ele>624.0</ele><time>2026-04-12T09:27:24.999Z</time></trkpt><trkpt lat="44.5682133386773" lon="8.038420884760418"><ele>625.0</ele><time>2026-04-12T09:27:30.999Z</time></trkpt><trkpt lat="44.56825696456893" lon="8.038487798021325"><ele>626.0</ele><time>2026-04-12T09:27:35.999Z</time></trkpt><trkpt lat="44.56830253766664" lon="8.038553448840775"><ele>627.0</ele><time>2026-04-12T09:27:39.999Z</time></trkpt><trkpt lat="44.56835171419474" lon="8.038648353061845"><ele>628.0</ele><time>2026-04-12T09:27:44.999Z</time></trkpt><trkpt lat="44.568395770543454" lon="8.038743171218295"><ele>629.0</ele><time>2026-04-12T09:27:48.999Z</time></trkpt><trkpt lat="44.56844513319909" lon="8.038813208177164"><ele>630.0</ele><time>2026-04-12T09:27:52.999Z</time></trkpt><trkpt lat="44.56846551299914" lon="8.038901214677681"><ele>630.0</ele><time>2026-04-12T09:27:57.998Z</time></trkpt><trkpt lat="44.56847951337228" lon="8.038996248640274"><ele>630.0</ele><time>2026-04-12T09:28:03Z</time></trkpt><trkpt lat="44.56850319038851" lon="8.039093822384448"><ele>630.0</ele><time>2026-04-12T09:28:08Z</time></trkpt><trkpt lat="44.5685389546766" lon="8.03917522494116"><ele>630.0</ele><time>2026-04-12T09:28:12Z</time></trkpt><trkpt lat="44.568606855679064" lon="8.039172703798979"><ele>630.0</ele><time>2026-04-12T09:28:17Z</time></trkpt><trkpt lat="44.568642169204466" lon="8.039079446772721"><ele>630.0</ele><time>2026-04-12T09:28:21Z</time></trkpt><trkpt lat="44.56864631414934" lon="8.038988269868744"><ele>630.0</ele><time>2026-04-12T09:28:25Z</time></trkpt><trkpt lat="44.568661392195985" lon="8.038882420124468"><ele>630.0</ele><time>2026-04-12T09:28:30Z</time></trkpt><trkpt lat="44.568674269935286" lon="8.038793588979049"><ele>630.0</ele><time>2026-04-12T09:28:34Z</time></trkpt><trkpt lat="44.56867734478577" lon="8.038673267210784"><ele>630.0</ele><time>2026-04-12T09:28:38Z</time></trkpt><trkpt lat="44.56868765529113" lon="8.0385777542787"><ele>630.0</ele><time>2026-04-12T09:28:41Z</time></trkpt><trkpt lat="44.56867633241926" lon="8.038478366476363"><ele>630.0</ele><time>2026-04-12T09:28:44Z</time></trkpt><trkpt lat="44.56867425602587" lon="8.038380308758496"><ele>630.0</ele><time>2026-04-12T09:28:49Z</time></trkpt><trkpt lat="44.56867212550816" lon="8.038251846522936"><ele>630.8571428571429</ele><time>2026-04-12T09:28:52.999Z</time></trkpt><trkpt lat="44.56868669633579" lon="8.038154868024511"><ele>631.7142857142858</ele><time>2026-04-12T09:28:56.999Z</time></trkpt><trkpt lat="44.568735988461846" lon="8.038083636119435"><ele>632.5714285714286</ele><time>2026-04-12T09:29:00.999Z</time></trkpt><trkpt lat="44.56881112493233" lon="8.038109288559927"><ele>633.4285714285714</ele><time>2026-04-12T09:29:04.999Z</time></trkpt><trkpt lat="44.56885098408859" lon="8.03821374270136"><ele>634.2857142857143</ele><time>2026-04-12T09:29:09.999Z</time></trkpt><trkpt lat="44.56887243306246" lon="8.038305500037794"><ele>635.1428571428571</ele><time>2026-04-12T09:29:12.999Z</time></trkpt><trkpt lat="44.56890948605749" lon="8.038397705573201"><ele>636.0</ele><time>2026-04-12T09:29:15.999Z</time></trkpt><trkpt lat="44.5689434266454" lon="8.038496519963939"><ele>637.3333333333334</ele><time>2026-04-12T09:29:18.999Z</time></trkpt><trkpt lat="44.56898735060214" lon="8.038605859606172"><ele>638.6666666666666</ele><time>2026-04-12T09:29:21.999Z</time></trkpt><trkpt lat="44.56901189678798" lon="8.03871164426049"><ele>640.0</ele><time>2026-04-12T09:29:24.999Z</time></trkpt><trkpt lat="44.569032428629335" lon="8.03882412833884"><ele>641.3333333333333</ele><time>2026-04-12T09:29:27.999Z</time></trkpt><trkpt lat="44.56903816897334" lon="8.038920744425273"><ele>642.6666666666666</ele><time>2026-04-12T09:29:30.999Z</time></trkpt><trkpt lat="44.56904764878678" lon="8.039030744101668"><ele>644.0</ele><time>2026-04-12T09:29:34.999Z</time></trkpt><trkpt lat="44.56904662584309" lon="8.039133175182641"><ele>644.8571428571429</ele><time>2026-04-12T09:29:38.999Z</time></trkpt><trkpt lat="44.56905893225058" lon="8.039234727759432"><ele>645.7142857142858</ele><time>2026-04-12T09:29:41.999Z</time></trkpt><trkpt lat="44.56907591336318" lon="8.039326841676976"><ele>646.5714285714286</ele><time>2026-04-12T09:29:44.999Z</time></trkpt><trkpt lat="44.569105927323925" lon="8.039419701656414"><ele>647.4285714285714</ele><time>2026-04-12T09:29:47.999Z</time></trkpt><trkpt lat="44.5691490417283" lon="8.039508212417138"><ele>648.2857142857143</ele><time>2026-04-12T09:29:50.999Z</time></trkpt><trkpt lat="44.56917994817965" lon="8.039586063104437"><ele>649.1428571428571</ele><time>2026-04-12T09:29:54.999Z</time></trkpt><trkpt lat="44.56920858562816" lon="8.03967631690203"><ele>650.0</ele><time>2026-04-12T09:29:57.999Z</time></trkpt><trkpt lat="44.56921729094976" lon="8.03976599217191"><ele>650.0</ele><time>2026-04-12T09:30:00.999Z</time></trkpt><trkpt lat="44.56921568848937" lon="8.03987563425147"><ele>650.0</ele><time>2026-04-12T09:30:04.999Z</time></trkpt><trkpt lat="44.56921606283122" lon="8.03997551392079"><ele>650.0</ele><time>2026-04-12T09:30:08Z</time></trkpt><trkpt lat="44.569181142058234" lon="8.04005816919359"><ele>650.0</ele><time>2026-04-12T09:30:11Z</time></trkpt><trkpt lat="44.56915491465302" lon="8.040143064328534"><ele>650.0</ele><time>2026-04-12T09:30:14Z</time></trkpt><trkpt lat="44.56912334110321" lon="8.040243365107035"><ele>650.0</ele><time>2026-04-12T09:30:17Z</time></trkpt><trkpt lat="44.569085457466215" lon="8.040357291582696"><ele>650.8333333333333</ele><time>2026-04-12T09:30:20Z</time></trkpt><trkpt lat="44.56904325179174" lon="8.04047100575344"><ele>651.6666666666666</ele><time>2026-04-12T09:30:23Z</time></trkpt><trkpt lat="44.56899237266984" lon="8.040560295731368"><ele>652.5</ele><time>2026-04-12T09:30:25Z</time></trkpt><trkpt lat="44.56894711686368" lon="8.040660232479848"><ele>653.3333333333334</ele><time>2026-04-12T09:30:27Z</time></trkpt><trkpt lat="44.56890884083615" lon="8.04076115506602"><ele>654.1666666666667</ele><time>2026-04-12T09:30:29Z</time></trkpt><trkpt lat="44.56887194646772" lon="8.040851690077874"><ele>655.0</ele><time>2026-04-12T09:30:30Z</time></trkpt><trkpt lat="44.56885108910246" lon="8.04101148198586"><ele>654.8</ele><time>2026-04-12T09:30:32Z</time></trkpt><trkpt lat="44.568836676497895" lon="8.041163840204412"><ele>654.6</ele><time>2026-04-12T09:30:34Z</time></trkpt><trkpt lat="44.56877655505066" lon="8.04131881800644"><ele>654.4000000000001</ele><time>2026-04-12T09:30:36Z</time></trkpt><trkpt lat="44.56873014211718" lon="8.041472514055652"><ele>654.2</ele><time>2026-04-12T09:30:38Z</time></trkpt><trkpt lat="44.56868610693108" lon="8.04156390156347"><ele>654.0</ele><time>2026-04-12T09:30:39Z</time></trkpt><trkpt lat="44.568642793154275" lon="8.041639729665805"><ele>654.0</ele><time>2026-04-12T09:30:40Z</time></trkpt><trkpt lat="44.568606242736024" lon="8.041728466145464"><ele>654.0</ele><time>2026-04-12T09:30:41Z</time></trkpt><trkpt lat="44.568560946526354" lon="8.041791410073392"><ele>654.0</ele><time>2026-04-12T09:30:42Z</time></trkpt><trkpt lat="44.56848058682441" lon="8.041929660769574"><ele>654.0</ele><time>2026-04-12T09:30:44Z</time></trkpt><trkpt lat="44.568440755483095" lon="8.042009190599455"><ele>654.0</ele><time>2026-04-12T09:30:45Z</time></trkpt><trkpt lat="44.568408480486994" lon="8.042091140857046"><ele>654.0</ele><time>2026-04-12T09:30:46Z</time></trkpt><trkpt lat="44.568380913941034" lon="8.042230436047298"><ele>654.0</ele><time>2026-04-12T09:30:48Z</time></trkpt><trkpt lat="44.56834107101268" lon="8.042360288209176"><ele>654.0</ele><time>2026-04-12T09:30:50Z</time></trkpt><trkpt lat="44.5683141708713" lon="8.042481258094332"><ele>654.0</ele><time>2026-04-12T09:30:52Z</time></trkpt><trkpt lat="44.568309004089286" lon="8.042583100204773"><ele>654.0</ele><time>2026-04-12T09:30:53.999Z</time></trkpt><trkpt lat="44.56829283931846" lon="8.042703391164526"><ele>654.0</ele><time>2026-04-12T09:30:55.999Z</time></trkpt><trkpt lat="44.568264974490916" lon="8.042794559018324"><ele>654.0</ele><time>2026-04-12T09:30:57.999Z</time></trkpt><trkpt lat="44.56822268733975" lon="8.042886714002238"><ele>656.2857142857142</ele><time>2026-04-12T09:30:59.999Z</time></trkpt><trkpt lat="44.56820885515153" lon="8.042990545375973"><ele>658.5714285714286</ele><time>2026-04-12T09:31:01.999Z</time></trkpt><trkpt lat="44.56819380154365" lon="8.04307895997239"><ele>660.8571428571429</ele><time>2026-04-12T09:31:03.999Z</time></trkpt><trkpt lat="44.568152452799545" lon="8.04315630880568"><ele>663.1428571428571</ele><time>2026-04-12T09:31:05.999Z</time></trkpt><trkpt lat="44.568100567226374" lon="8.043278627687137"><ele>665.4285714285714</ele><time>2026-04-12T09:31:08.999Z</time></trkpt><trkpt lat="44.56806907249142" lon="8.043356051472188"><ele>667.7142857142857</ele><time>2026-04-12T09:31:10.999Z</time></trkpt><trkpt lat="44.568032167566045" lon="8.043437107150059"><ele>670.0</ele><time>2026-04-12T09:31:12.999Z</time></trkpt><trkpt lat="44.5680019126202" lon="8.043558438225846"><ele>669.7142857142857</ele><time>2026-04-12T09:31:15.999Z</time></trkpt><trkpt lat="44.56794574599177" lon="8.043676894371576"><ele>669.4285714285714</ele><time>2026-04-12T09:31:18.999Z</time></trkpt><trkpt lat="44.56792423267376" lon="8.043765373845451"><ele>669.1428571428571</ele><time>2026-04-12T09:31:20.999Z</time></trkpt><trkpt lat="44.56791584055949" lon="8.043861889337627"><ele>668.8571428571429</ele><time>2026-04-12T09:31:22.999Z</time></trkpt><trkpt lat="44.567908377808905" lon="8.043954075627648"><ele>668.5714285714286</ele><time>2026-04-12T09:31:24.999Z</time></trkpt><trkpt lat="44.567881212070716" lon="8.044042971632257"><ele>668.2857142857142</ele><time>2026-04-12T09:31:26.999Z</time></trkpt><trkpt lat="44.567840308298926" lon="8.044112791282096"><ele>668.0</ele><time>2026-04-12T09:31:28.999Z</time></trkpt><trkpt lat="44.56778101136635" lon="8.04420409706879"><ele>668.0</ele><time>2026-04-12T09:31:31.999Z</time></trkpt><trkpt lat="44.56771723966407" lon="8.044288002295403"><ele>668.0</ele><time>2026-04-12T09:31:34.999Z</time></trkpt><trkpt lat="44.5676539557334" lon="8.044377123764875"><ele>668.0</ele><time>2026-04-12T09:31:37.999Z</time></trkpt><trkpt lat="44.5676026324084" lon="8.044467483018432"><ele>668.0</ele><time>2026-04-12T09:31:40.999Z</time></trkpt><trkpt lat="44.56754429003034" lon="8.044555121302366"><ele>668.0</ele><time>2026-04-12T09:31:43.999Z</time></trkpt><trkpt lat="44.56748636084792" lon="8.04462964769064"><ele>668.0</ele><time>2026-04-12T09:31:46.999Z</time></trkpt><trkpt lat="44.567444045323924" lon="8.044702792037198"><ele>668.0</ele><time>2026-04-12T09:31:49.999Z</time></trkpt><trkpt lat="44.56740451982725" lon="8.044773213851636"><ele>668.0</ele><time>2026-04-12T09:31:52.999Z</time></trkpt><trkpt lat="44.567371065775596" lon="8.044859327640426"><ele>668.0</ele><time>2026-04-12T09:31:55.999Z</time></trkpt><trkpt lat="44.56734768444231" lon="8.044957722838681"><ele>668.0</ele><time>2026-04-12T09:31:58.999Z</time></trkpt><trkpt lat="44.56727969195241" lon="8.045083316109034"><ele>668.0</ele><time>2026-04-12T09:32:00.999Z</time></trkpt><trkpt lat="44.56722786866952" lon="8.045209181118835"><ele>668.0</ele><time>2026-04-12T09:32:02.999Z</time></trkpt><trkpt lat="44.56716854884582" lon="8.04531431015431"><ele>668.5</ele><time>2026-04-12T09:32:04.999Z</time></trkpt><trkpt lat="44.56711527197604" lon="8.045411597226709"><ele>669.0</ele><time>2026-04-12T09:32:06.998Z</time></trkpt><trkpt lat="44.567071815927285" lon="8.045513504377919"><ele>669.5</ele><time>2026-04-12T09:32:08.998Z</time></trkpt><trkpt lat="44.56703339244228" lon="8.045605610827131"><ele>670.0</ele><time>2026-04-12T09:32:10.998Z</time></trkpt><trkpt lat="44.5670052883457" lon="8.045697303484141"><ele>670.5</ele><time>2026-04-12T09:32:13Z</time></trkpt><trkpt lat="44.566959614241064" lon="8.045793257379007"><ele>671.0</ele><time>2026-04-12T09:32:15Z</time></trkpt><trkpt lat="44.566932763011714" lon="8.045881601370061"><ele>671.5999999999999</ele><time>2026-04-12T09:32:17Z</time></trkpt><trkpt lat="44.566906277792164" lon="8.046003035593175"><ele>672.2</ele><time>2026-04-12T09:32:20Z</time></trkpt><trkpt lat="44.56688425156638" lon="8.046109665368157"><ele>672.8</ele><time>2026-04-12T09:32:23Z</time></trkpt><trkpt lat="44.56684864888319" lon="8.046232348962079"><ele>673.4000000000001</ele><time>2026-04-12T09:32:26Z</time></trkpt><trkpt lat="44.56681866368969" lon="8.04635840156474"><ele>674.0</ele><time>2026-04-12T09:32:29Z</time></trkpt><trkpt lat="44.56678569389737" lon="8.046490368188865"><ele>674.0</ele><time>2026-04-12T09:32:32Z</time></trkpt><trkpt lat="44.566758044300215" lon="8.046590547220145"><ele>674.0</ele><time>2026-04-12T09:32:34Z</time></trkpt><trkpt lat="44.56674193258455" lon="8.046676590351337"><ele>674.0</ele><time>2026-04-12T09:32:36Z</time></trkpt><trkpt lat="44.566718656201154" lon="8.046802500308237"><ele>674.0</ele><time>2026-04-12T09:32:38Z</time></trkpt><trkpt lat="44.566694651178004" lon="8.046909320547803"><ele>674.0</ele><time>2026-04-12T09:32:40Z</time></trkpt><trkpt lat="44.56666382037394" lon="8.046999046638147"><ele>674.0</ele><time>2026-04-12T09:32:42Z</time></trkpt><trkpt lat="44.56664588289266" lon="8.047104946497303"><ele>674.8571428571429</ele><time>2026-04-12T09:32:44Z</time></trkpt><trkpt lat="44.566619637157544" lon="8.047206574143361"><ele>675.7142857142858</ele><time>2026-04-12T09:32:46Z</time></trkpt><trkpt lat="44.56661869388198" lon="8.047298464110003"><ele>676.5714285714287</ele><time>2026-04-12T09:32:48Z</time></trkpt><trkpt lat="44.5666212286238" lon="8.047402567656368"><ele>677.4285714285714</ele><time>2026-04-12T09:32:50Z</time></trkpt><trkpt lat="44.56663098474733" lon="8.04749392589567"><ele>678.2857142857142</ele><time>2026-04-12T09:32:52Z</time></trkpt><trkpt lat="44.56663470356737" lon="8.047587052482358"><ele>679.1428571428572</ele><time>2026-04-12T09:32:54Z</time></trkpt><trkpt lat="44.566644601710884" lon="8.047689322322102"><ele>680.0</ele><time>2026-04-12T09:32:56Z</time></trkpt><trkpt lat="44.5666567905479" lon="8.047786657470043"><ele>680.3333333333333</ele><time>2026-04-12T09:32:59Z</time></trkpt><trkpt lat="44.56665108744847" lon="8.047885062659603"><ele>680.6666666666666</ele><time>2026-04-12T09:33:01.999Z</time></trkpt><trkpt lat="44.5666459335451" lon="8.048006575355247"><ele>681.0</ele><time>2026-04-12T09:33:04.999Z</time></trkpt><trkpt lat="44.56662629287005" lon="8.048093593033869"><ele>681.3333333333334</ele><time>2026-04-12T09:33:06.999Z</time></trkpt><trkpt lat="44.566639721746974" lon="8.048183563660015"><ele>681.6666666666667</ele><time>2026-04-12T09:33:08.999Z</time></trkpt><trkpt lat="44.566607874490536" lon="8.048293856890128"><ele>682.0</ele><time>2026-04-12T09:33:11.999Z</time></trkpt><trkpt lat="44.56658170831945" lon="8.04839905089505"><ele>682.5714285714286</ele><time>2026-04-12T09:33:14.999Z</time></trkpt><trkpt lat="44.56657429764766" lon="8.048486936771"><ele>683.1428571428571</ele><time>2026-04-12T09:33:16.999Z</time></trkpt><trkpt lat="44.56657319264842" lon="8.048589660494127"><ele>683.7142857142858</ele><time>2026-04-12T09:33:19.999Z</time></trkpt><trkpt lat="44.56656242891859" lon="8.04870426380842"><ele>684.2857142857142</ele><time>2026-04-12T09:33:22.999Z</time></trkpt><trkpt lat="44.56653992085603" lon="8.048798414543416"><ele>684.8571428571429</ele><time>2026-04-12T09:33:25.999Z</time></trkpt><trkpt lat="44.56651879185773" lon="8.048886821955463"><ele>685.4285714285714</ele><time>2026-04-12T09:33:27.999Z</time></trkpt><trkpt lat="44.56653334380223" lon="8.048979565757334"><ele>686.0</ele><time>2026-04-12T09:33:29.999Z</time></trkpt><trkpt lat="44.56651693466029" lon="8.049081579915601"><ele>686.7142857142857</ele><time>2026-04-12T09:33:31.999Z</time></trkpt><trkpt lat="44.566475985341555" lon="8.049181322213164"><ele>687.4285714285714</ele><time>2026-04-12T09:33:33.999Z</time></trkpt><trkpt lat="44.56645876781939" lon="8.049272816800753"><ele>688.1428571428571</ele><time>2026-04-12T09:33:35.999Z</time></trkpt><trkpt lat="44.56643975854842" lon="8.049359076005027"><ele>688.8571428571429</ele><time>2026-04-12T09:33:37.999Z</time></trkpt><trkpt lat="44.56642520886684" lon="8.049450926368012"><ele>689.5714285714286</ele><time>2026-04-12T09:33:39.999Z</time></trkpt><trkpt lat="44.566417759282" lon="8.049545056067071"><ele>690.2857142857142</ele><time>2026-04-12T09:33:41.999Z</time></trkpt><trkpt lat="44.56639853975705" lon="8.049637076107949"><ele>691.0</ele><time>2026-04-12T09:33:43.999Z</time></trkpt><trkpt lat="44.56637502766737" lon="8.04974520375101"><ele>691.0</ele><time>2026-04-12T09:33:46.999Z</time></trkpt><trkpt lat="44.56636683719841" lon="8.049842233465244"><ele>691.0</ele><time>2026-04-12T09:33:49.999Z</time></trkpt><trkpt lat="44.56637163181622" lon="8.049931910762194"><ele>691.0</ele><time>2026-04-12T09:33:51.999Z</time></trkpt><trkpt lat="44.56637722304571" lon="8.050057637975192"><ele>691.0</ele><time>2026-04-12T09:33:54.999Z</time></trkpt><trkpt lat="44.56637623746763" lon="8.05016657485975"><ele>691.0</ele><time>2026-04-12T09:33:57.999Z</time></trkpt><trkpt lat="44.56635733975606" lon="8.05028039326441"><ele>691.0</ele><time>2026-04-12T09:34:00.999Z</time></trkpt><trkpt lat="44.56636003713163" lon="8.050376559878524"><ele>691.5</ele><time>2026-04-12T09:34:02.999Z</time></trkpt><trkpt lat="44.56635908084474" lon="8.050465584670118"><ele>692.0</ele><time>2026-04-12T09:34:04.999Z</time></trkpt><trkpt lat="44.566362841833204" lon="8.050602256730679"><ele>692.5</ele><time>2026-04-12T09:34:07.999Z</time></trkpt><trkpt lat="44.566371253845915" lon="8.050729055633985"><ele>693.0</ele><time>2026-04-12T09:34:10.999Z</time></trkpt><trkpt lat="44.56636656758498" lon="8.050856189818782"><ele>693.5</ele><time>2026-04-12T09:34:13.998Z</time></trkpt><trkpt lat="44.56636560257776" lon="8.050963883991392"><ele>694.0</ele><time>2026-04-12T09:34:16.998Z</time></trkpt><trkpt lat="44.56637562484093" lon="8.051061649701163"><ele>694.3333333333334</ele><time>2026-04-12T09:34:20Z</time></trkpt><trkpt lat="44.56637224481433" lon="8.051177928664242"><ele>694.6666666666667</ele><time>2026-04-12T09:34:24Z</time></trkpt><trkpt lat="44.56638858345123" lon="8.051277090409837"><ele>695.0</ele><time>2026-04-12T09:34:27Z</time></trkpt><trkpt lat="44.56640009303441" lon="8.051401217222537"><ele>695.3333333333334</ele><time>2026-04-12T09:34:31Z</time></trkpt><trkpt lat="44.56639212845854" lon="8.051511113998547"><ele>695.6666666666666</ele><time>2026-04-12T09:34:35Z</time></trkpt><trkpt lat="44.56639235716892" lon="8.05160239389023"><ele>696.0</ele><time>2026-04-12T09:34:38Z</time></trkpt><trkpt lat="44.566365947299595" lon="8.051693786780177"><ele>697.5</ele><time>2026-04-12T09:34:41Z</time></trkpt><trkpt lat="44.566344915022015" lon="8.051777419044674"><ele>699.0</ele><time>2026-04-12T09:34:44Z</time></trkpt><trkpt lat="44.56628300844785" lon="8.051844863120433"><ele>700.5</ele><time>2026-04-12T09:34:47Z</time></trkpt><trkpt lat="44.566260950689376" lon="8.05193151499252"><ele>702.0</ele><time>2026-04-12T09:34:50Z</time></trkpt><trkpt lat="44.566217480198304" lon="8.05202552654526"><ele>703.5</ele><time>2026-04-12T09:34:55Z</time></trkpt><trkpt lat="44.566156021350224" lon="8.052113664047981"><ele>705.0</ele><time>2026-04-12T09:34:59Z</time></trkpt><trkpt lat="44.566087964478854" lon="8.052209224046962"><ele>705.0</ele><time>2026-04-12T09:35:01Z</time></trkpt><trkpt lat="44.56604976919799" lon="8.052321597305436"><ele>705.0</ele><time>2026-04-12T09:35:03Z</time></trkpt><trkpt lat="44.5660112852483" lon="8.052423879694086"><ele>705.0</ele><time>2026-04-12T09:35:05Z</time></trkpt><trkpt lat="44.56596181364279" lon="8.052498008852897"><ele>705.0</ele><time>2026-04-12T09:35:06.999Z</time></trkpt><trkpt lat="44.56593582150055" lon="8.05260094846061"><ele>705.0</ele><time>2026-04-12T09:35:08.999Z</time></trkpt><trkpt lat="44.56589743145856" lon="8.052694383204466"><ele>705.0</ele><time>2026-04-12T09:35:10.999Z</time></trkpt><trkpt lat="44.56587609039708" lon="8.052786503706233"><ele>706.8333333333334</ele><time>2026-04-12T09:35:12.999Z</time></trkpt><trkpt lat="44.565835663875525" lon="8.052890847835243"><ele>708.6666666666666</ele><time>2026-04-12T09:35:14.999Z</time></trkpt><trkpt lat="44.565801621725626" lon="8.052990065151409"><ele>710.5</ele><time>2026-04-12T09:35:16.999Z</time></trkpt><trkpt lat="44.56577747878249" lon="8.05307361820615"><ele>712.3333333333333</ele><time>2026-04-12T09:35:18.999Z</time></trkpt><trkpt lat="44.565760379148166" lon="8.053160712936343"><ele>714.1666666666666</ele><time>2026-04-12T09:35:20.999Z</time></trkpt><trkpt lat="44.56573586130708" lon="8.053259054353164"><ele>716.0</ele><time>2026-04-12T09:35:23.999Z</time></trkpt><trkpt lat="44.56570772744205" lon="8.053371216378775"><ele>716.0</ele><time>2026-04-12T09:35:26.999Z</time></trkpt><trkpt lat="44.565676107101375" lon="8.05346127349266"><ele>716.0</ele><time>2026-04-12T09:35:29.999Z</time></trkpt><trkpt lat="44.5656327065772" lon="8.05356685347815"><ele>716.0</ele><time>2026-04-12T09:35:33.999Z</time></trkpt><trkpt lat="44.56558961266889" lon="8.053660806463721"><ele>716.0</ele><time>2026-04-12T09:35:36.999Z</time></trkpt><trkpt lat="44.56556234472671" lon="8.053741979300884"><ele>716.0</ele><time>2026-04-12T09:35:39.999Z</time></trkpt><trkpt lat="44.56551851451436" lon="8.053808837699865"><ele>716.0</ele><time>2026-04-12T09:35:42.999Z</time></trkpt><trkpt lat="44.56546502981157" lon="8.053907146040173"><ele>716.0</ele><time>2026-04-12T09:35:46.999Z</time></trkpt><trkpt lat="44.565420907689784" lon="8.054006022288675"><ele>716.0</ele><time>2026-04-12T09:35:49.999Z</time></trkpt><trkpt lat="44.565366233550165" lon="8.054076368190536"><ele>716.0</ele><time>2026-04-12T09:35:52.999Z</time></trkpt><trkpt lat="44.5653055369174" lon="8.054141034413458"><ele>716.0</ele><time>2026-04-12T09:35:55.999Z</time></trkpt><trkpt lat="44.56523556517839" lon="8.0542035182256"><ele>716.0</ele><time>2026-04-12T09:35:58.999Z</time></trkpt><trkpt lat="44.56517495839672" lon="8.05426236916802"><ele>716.0</ele><time>2026-04-12T09:36:01.999Z</time></trkpt><trkpt lat="44.56512108206688" lon="8.054310406054686"><ele>717.4</ele><time>2026-04-12T09:36:03.999Z</time></trkpt><trkpt lat="44.565057941241534" lon="8.054360264570567"><ele>718.8</ele><time>2026-04-12T09:36:05.999Z</time></trkpt><trkpt lat="44.56497941301688" lon="8.054435780276437"><ele>720.1999999999999</ele><time>2026-04-12T09:36:07.999Z</time></trkpt><trkpt lat="44.564922310370456" lon="8.054479364365342"><ele>721.5999999999999</ele><time>2026-04-12T09:36:08.999Z</time></trkpt><trkpt lat="44.5648173928254" lon="8.054570585461144"><ele>723.0</ele><time>2026-04-12T09:36:10.999Z</time></trkpt><trkpt lat="44.56470209693821" lon="8.05465165539082"><ele>723.0</ele><time>2026-04-12T09:36:12.999Z</time></trkpt><trkpt lat="44.56462618497208" lon="8.054704112462929"><ele>723.0</ele><time>2026-04-12T09:36:13.999Z</time></trkpt><trkpt lat="44.564550442401774" lon="8.054738694712713"><ele>723.0</ele><time>2026-04-12T09:36:14.999Z</time></trkpt><trkpt lat="44.56447670366098" lon="8.05477615428804"><ele>723.0</ele><time>2026-04-12T09:36:15.999Z</time></trkpt><trkpt lat="44.56440690348548" lon="8.054810032512222"><ele>723.0</ele><time>2026-04-12T09:36:16.999Z</time></trkpt><trkpt lat="44.56433559385781" lon="8.054867302218401"><ele>723.0</ele><time>2026-04-12T09:36:17.999Z</time></trkpt><trkpt lat="44.56427495321425" lon="8.054934535035965"><ele>721.1666666666666</ele><time>2026-04-12T09:36:18.998Z</time></trkpt><trkpt lat="44.56422520622622" lon="8.055012050025953"><ele>719.3333333333334</ele><time>2026-04-12T09:36:19.998Z</time></trkpt><trkpt lat="44.56418632333171" lon="8.055099584415451"><ele>717.5</ele><time>2026-04-12T09:36:20.998Z</time></trkpt><trkpt lat="44.56415096632161" lon="8.055181801063096"><ele>715.6666666666667</ele><time>2026-04-12T09:36:21.998Z</time></trkpt><trkpt lat="44.564086537500756" lon="8.055268840325441"><ele>713.8333333333334</ele><time>2026-04-12T09:36:23.998Z</time></trkpt><trkpt lat="44.56404076260621" lon="8.055347869751103"><ele>712.0</ele><time>2026-04-12T09:36:26Z</time></trkpt><trkpt lat="44.563998028927074" lon="8.055441845954213"><ele>711.9999999999999</ele><time>2026-04-12T09:36:29Z</time></trkpt><trkpt lat="44.56395651720765" lon="8.055509951128847"><ele>712.0</ele><time>2026-04-12T09:36:31Z</time></trkpt><trkpt lat="44.563921866861044" lon="8.055598863480776"><ele>712.0</ele><time>2026-04-12T09:36:34Z</time></trkpt><trkpt lat="44.56387321046158" lon="8.055679214743623"><ele>712.0</ele><time>2026-04-12T09:36:37Z</time></trkpt><trkpt lat="44.56382299877385" lon="8.05577197241181"><ele>712.0</ele><time>2026-04-12T09:36:40Z</time></trkpt><trkpt lat="44.56378587618771" lon="8.05585974211103"><ele>711.9999999999999</ele><time>2026-04-12T09:36:43Z</time></trkpt><trkpt lat="44.56372949000721" lon="8.055942178766793"><ele>712.0</ele><time>2026-04-12T09:36:47Z</time></trkpt><trkpt lat="44.56368730230824" lon="8.056035402343118"><ele>713.2857142857142</ele><time>2026-04-12T09:36:51Z</time></trkpt><trkpt lat="44.56363958772395" lon="8.056125911474386"><ele>714.5714285714286</ele><time>2026-04-12T09:36:55Z</time></trkpt><trkpt lat="44.56358493776832" lon="8.05617397403331"><ele>715.8571428571429</ele><time>2026-04-12T09:36:59Z</time></trkpt><trkpt lat="44.56355299461858" lon="8.056268680018476"><ele>717.1428571428571</ele><time>2026-04-12T09:37:04Z</time></trkpt><trkpt lat="44.563508442698925" lon="8.056347694778232"><ele>718.4285714285714</ele><time>2026-04-12T09:37:09Z</time></trkpt><trkpt lat="44.56345255188825" lon="8.056405996160182"><ele>719.7142857142857</ele><time>2026-04-12T09:37:12.999Z</time></trkpt><trkpt lat="44.56340427303014" lon="8.056496083824685"><ele>721.0</ele><time>2026-04-12T09:37:16.999Z</time></trkpt><trkpt lat="44.56333869143088" lon="8.056545343306714"><ele>721.0</ele><time>2026-04-12T09:37:20.999Z</time></trkpt><trkpt lat="44.5632715084863" lon="8.056603928318765"><ele>721.0</ele><time>2026-04-12T09:37:26.999Z</time></trkpt><trkpt lat="44.56320214272089" lon="8.05666729081284"><ele>721.0</ele><time>2026-04-12T09:37:30.999Z</time></trkpt><trkpt lat="44.5631554588371" lon="8.056735470402234"><ele>721.0</ele><time>2026-04-12T09:37:35.999Z</time></trkpt><trkpt lat="44.56309613212368" lon="8.056783901361538"><ele>721.0</ele><time>2026-04-12T09:37:39.999Z</time></trkpt><trkpt lat="44.56302498788745" lon="8.056847579406128"><ele>721.0</ele><time>2026-04-12T09:37:43.999Z</time></trkpt><trkpt lat="44.56296325796264" lon="8.056914998492417"><ele>722.8333333333334</ele><time>2026-04-12T09:37:46.999Z</time></trkpt><trkpt lat="44.562891945855895" lon="8.056991391636432"><ele>724.6666666666667</ele><time>2026-04-12T09:37:50.999Z</time></trkpt><trkpt lat="44.56282552244624" lon="8.057059290831381"><ele>726.5</ele><time>2026-04-12T09:37:53.999Z</time></trkpt><trkpt lat="44.562761254434086" lon="8.057119685298138"><ele>728.3333333333334</ele><time>2026-04-12T09:37:57.999Z</time></trkpt><trkpt lat="44.562707450941986" lon="8.05720525514914"><ele>730.1666666666666</ele><time>2026-04-12T09:38:02.999Z</time></trkpt><trkpt lat="44.562653193498505" lon="8.05727761468327"><ele>732.0</ele><time>2026-04-12T09:38:07.999Z</time></trkpt><trkpt lat="44.56258840655953" lon="8.05732614543603"><ele>732.7142857142858</ele><time>2026-04-12T09:38:12.999Z</time></trkpt><trkpt lat="44.56252184121766" lon="8.057348794380369"><ele>733.4285714285714</ele><time>2026-04-12T09:38:15.999Z</time></trkpt><trkpt lat="44.56245314351507" lon="8.057348020308327"><ele>734.1428571428571</ele><time>2026-04-12T09:38:18.999Z</time></trkpt><trkpt lat="44.56236760426225" lon="8.0573604639325"><ele>734.8571428571429</ele><time>2026-04-12T09:38:22.998Z</time></trkpt><trkpt lat="44.56230023285521" lon="8.057343214948851"><ele>735.5714285714286</ele><time>2026-04-12T09:38:25.998Z</time></trkpt><trkpt lat="44.56223647497344" lon="8.0573501498722"><ele>736.2857142857143</ele><time>2026-04-12T09:38:27.998Z</time></trkpt><trkpt lat="44.562156932972954" lon="8.057323864216688"><ele>737.0</ele><time>2026-04-12T09:38:31Z</time></trkpt><trkpt lat="44.56208995159544" lon="8.05732077474277"><ele>737.3333333333333</ele><time>2026-04-12T09:38:34Z</time></trkpt><trkpt lat="44.56201672307547" lon="8.057309396322424"><ele>737.6666666666666</ele><time>2026-04-12T09:38:37Z</time></trkpt><trkpt lat="44.561935581734126" lon="8.057276637978154"><ele>738.0</ele><time>2026-04-12T09:38:40Z</time></trkpt><trkpt lat="44.56185969601363" lon="8.057250036105396"><ele>738.3333333333334</ele><time>2026-04-12T09:38:42Z</time></trkpt><trkpt lat="44.561772198643745" lon="8.057210466410487"><ele>738.6666666666667</ele><time>2026-04-12T09:38:44Z</time></trkpt><trkpt lat="44.56167192955187" lon="8.057173630524087"><ele>739.0</ele><time>2026-04-12T09:38:46Z</time></trkpt><trkpt lat="44.561580970910036" lon="8.057145526504748"><ele>739.0</ele><time>2026-04-12T09:38:48Z</time></trkpt><trkpt lat="44.56148652574248" lon="8.057117988676714"><ele>739.0</ele><time>2026-04-12T09:38:50Z</time></trkpt><trkpt lat="44.56139213116667" lon="8.057084590724946"><ele>739.0</ele><time>2026-04-12T09:38:52Z</time></trkpt><trkpt lat="44.56131151974567" lon="8.057052573372342"><ele>739.0</ele><time>2026-04-12T09:38:54Z</time></trkpt><trkpt lat="44.56122947649132" lon="8.057033005998191"><ele>739.0</ele><time>2026-04-12T09:38:56Z</time></trkpt><trkpt lat="44.56114876009643" lon="8.056994325972951"><ele>739.0</ele><time>2026-04-12T09:38:58Z</time></trkpt><trkpt lat="44.56107634680699" lon="8.056970254281953"><ele>739.8333333333334</ele><time>2026-04-12T09:39:00Z</time></trkpt><trkpt lat="44.560997948250765" lon="8.056922601483306"><ele>740.6666666666667</ele><time>2026-04-12T09:39:02Z</time></trkpt><trkpt lat="44.560913041687606" lon="8.056889331980962"><ele>741.5</ele><time>2026-04-12T09:39:04Z</time></trkpt><trkpt lat="44.56083036078676" lon="8.056883031254863"><ele>742.3333333333334</ele><time>2026-04-12T09:39:06Z</time></trkpt><trkpt lat="44.56075469639553" lon="8.056888696539957"><ele>743.1666666666666</ele><time>2026-04-12T09:39:08Z</time></trkpt><trkpt lat="44.56068766444115" lon="8.056910223690494"><ele>744.0</ele><time>2026-04-12T09:39:10Z</time></trkpt><trkpt lat="44.56061214870612" lon="8.05694300798539"><ele>744.0000000000001</ele><time>2026-04-12T09:39:13Z</time></trkpt><trkpt lat="44.56053386759584" lon="8.056971314422753"><ele>744.0</ele><time>2026-04-12T09:39:16Z</time></trkpt><trkpt lat="44.56045804544309" lon="8.05702531986875"><ele>744.0</ele><time>2026-04-12T09:39:19Z</time></trkpt><trkpt lat="44.56040451124754" lon="8.057081354358074"><ele>744.0</ele><time>2026-04-12T09:39:21.999Z</time></trkpt><trkpt lat="44.560370424079224" lon="8.057163298036443"><ele>744.0</ele><time>2026-04-12T09:39:24.999Z</time></trkpt><trkpt lat="44.56036208886211" lon="8.057263792701207"><ele>744.0000000000001</ele><time>2026-04-12T09:39:29.999Z</time></trkpt><trkpt lat="44.56039655865828" lon="8.057352649216169"><ele>744.0</ele><time>2026-04-12T09:39:33.999Z</time></trkpt><trkpt lat="44.560466758080025" lon="8.057418792168187"><ele>746.8333333333334</ele><time>2026-04-12T09:39:37.999Z</time></trkpt><trkpt lat="44.560519431489666" lon="8.057500844404036"><ele>749.6666666666666</ele><time>2026-04-12T09:39:41.999Z</time></trkpt><trkpt lat="44.56058337342598" lon="8.057530216033856"><ele>752.5</ele><time>2026-04-12T09:39:44.999Z</time></trkpt><trkpt lat="44.56064941070807" lon="8.057563658380705"><ele>755.3333333333333</ele><time>2026-04-12T09:39:48.999Z</time></trkpt><trkpt lat="44.560763494457575" lon="8.057703675228561"><ele>758.1666666666666</ele><time>2026-04-12T09:43:36.999Z</time></trkpt><trkpt lat="44.56084077381488" lon="8.05774021539772"><ele>761.0</ele><time>2026-04-12T09:43:41.999Z</time></trkpt><trkpt lat="44.560924607682416" lon="8.057775848029458"><ele>761.0</ele><time>2026-04-12T09:43:45.999Z</time></trkpt><trkpt lat="44.56099108929375" lon="8.057788479762271"><ele>761.0</ele><time>2026-04-12T09:43:47.999Z</time></trkpt><trkpt lat="44.56105572376836" lon="8.057809820644628"><ele>761.0</ele><time>2026-04-12T09:43:49.999Z</time></trkpt><trkpt lat="44.5611166988275" lon="8.05787453746912"><ele>761.0</ele><time>2026-04-12T09:43:51.999Z</time></trkpt><trkpt lat="44.56117399537338" lon="8.057961570789928"><ele>761.0</ele><time>2026-04-12T09:43:53.999Z</time></trkpt><trkpt lat="44.56128171281432" lon="8.057976484836006"><ele>761.0</ele><time>2026-04-12T09:43:56.999Z</time></trkpt><trkpt lat="44.561347688519575" lon="8.058042266417992"><ele>760.4285714285713</ele><time>2026-04-12T09:43:58.999Z</time></trkpt><trkpt lat="44.56141035810704" lon="8.058069098467689"><ele>759.8571428571429</ele><time>2026-04-12T09:44:00.999Z</time></trkpt><trkpt lat="44.56149140161523" lon="8.058125186010217"><ele>759.2857142857142</ele><time>2026-04-12T09:44:03.999Z</time></trkpt><trkpt lat="44.56156026805529" lon="8.058150808223507"><ele>758.7142857142857</ele><time>2026-04-12T09:44:05.999Z</time></trkpt><trkpt lat="44.56162400701056" lon="8.058159233397438"><ele>758.1428571428571</ele><time>2026-04-12T09:44:07.999Z</time></trkpt><trkpt lat="44.56169450302168" lon="8.058166058496047"><ele>757.5714285714286</ele><time>2026-04-12T09:44:09.999Z</time></trkpt><trkpt lat="44.561772088252305" lon="8.05820957338123"><ele>757.0</ele><time>2026-04-12T09:44:11.999Z</time></trkpt><trkpt lat="44.561837752839956" lon="8.058247451927027"><ele>757.0</ele><time>2026-04-12T09:44:13.999Z</time></trkpt><trkpt lat="44.561908814614306" lon="8.058269866400325"><ele>757.0</ele><time>2026-04-12T09:44:15.999Z</time></trkpt><trkpt lat="44.561966892993055" lon="8.058327442549894"><ele>757.0</ele><time>2026-04-12T09:44:17.999Z</time></trkpt><trkpt lat="44.56194605852755" lon="8.058425820648747"><ele>757.0</ele><time>2026-04-12T09:44:21.999Z</time></trkpt><trkpt lat="44.561900814897974" lon="8.058521155951182"><ele>757.0</ele><time>2026-04-12T09:44:23.999Z</time></trkpt><trkpt lat="44.561824230484156" lon="8.058566468977533"><ele>757.0</ele><time>2026-04-12T09:44:25.999Z</time></trkpt><trkpt lat="44.5617362672562" lon="8.058549975284842"><ele>757.0</ele><time>2026-04-12T09:44:27.999Z</time></trkpt><trkpt lat="44.561652108520796" lon="8.058499863640472"><ele>757.0</ele><time>2026-04-12T09:44:29.999Z</time></trkpt><trkpt lat="44.561561039686" lon="8.058431990961546"><ele>757.0</ele><time>2026-04-12T09:44:31.999Z</time></trkpt><trkpt lat="44.56147105757196" lon="8.058378286561831"><ele>757.0</ele><time>2026-04-12T09:44:33.999Z</time></trkpt><trkpt lat="44.561396246757546" lon="8.05830905124818"><ele>757.0</ele><time>2026-04-12T09:44:35.999Z</time></trkpt><trkpt lat="44.56131404796576" lon="8.058261510657585"><ele>757.0</ele><time>2026-04-12T09:44:37.999Z</time></trkpt><trkpt lat="44.561238571201685" lon="8.05823261342502"><ele>757.0</ele><time>2026-04-12T09:44:39.999Z</time></trkpt><trkpt lat="44.5611470814567" lon="8.058225068283354"><ele>757.0</ele><time>2026-04-12T09:44:41.999Z</time></trkpt><trkpt lat="44.56107618496118" lon="8.058214898385874"><ele>757.0</ele><time>2026-04-12T09:44:43.999Z</time></trkpt><trkpt lat="44.56095814869227" lon="8.058202342459397"><ele>757.0</ele><time>2026-04-12T09:44:46.999Z</time></trkpt><trkpt lat="44.56087218408455" lon="8.0582635058412"><ele>756.8</ele><time>2026-04-12T09:44:49Z</time></trkpt><trkpt lat="44.56077926564579" lon="8.05829571442162"><ele>756.6</ele><time>2026-04-12T09:44:51Z</time></trkpt><trkpt lat="44.56067443744168" lon="8.058320999230746"><ele>756.4</ele><time>2026-04-12T09:44:53Z</time></trkpt><trkpt lat="44.56057226624234" lon="8.058367665608316"><ele>756.1999999999999</ele><time>2026-04-12T09:44:55Z</time></trkpt><trkpt lat="44.560459475824665" lon="8.058374187677646"><ele>756.0</ele><time>2026-04-12T09:44:57Z</time></trkpt><trkpt lat="44.56034198832637" lon="8.058371655958885"><ele>755.8</ele><time>2026-04-12T09:44:59Z</time></trkpt><trkpt lat="44.56027231276497" lon="8.05836976962627"><ele>755.5999999999999</ele><time>2026-04-12T09:45:00Z</time></trkpt><trkpt lat="44.56018134096981" lon="8.058334737784756"><ele>755.4</ele><time>2026-04-12T09:45:02Z</time></trkpt><trkpt lat="44.560090910982986" lon="8.058287056815782"><ele>755.2</ele><time>2026-04-12T09:45:04Z</time></trkpt><trkpt lat="44.559997489941075" lon="8.058345886812925"><ele>755.0</ele><time>2026-04-12T09:45:06Z</time></trkpt><trkpt lat="44.55992477852821" lon="8.05842199123988"><ele>755.0</ele><time>2026-04-12T09:45:08Z</time></trkpt><trkpt lat="44.559850868903695" lon="8.058481163391448"><ele>755.0</ele><time>2026-04-12T09:45:10Z</time></trkpt><trkpt lat="44.55975905108738" lon="8.058532133469914"><ele>755.0</ele><time>2026-04-12T09:45:12Z</time></trkpt><trkpt lat="44.55965125607365" lon="8.058607178240246"><ele>755.0</ele><time>2026-04-12T09:45:14Z</time></trkpt><trkpt lat="44.559544943836" lon="8.058685072934129"><ele>755.0</ele><time>2026-04-12T09:45:16Z</time></trkpt><trkpt lat="44.55942584015803" lon="8.058752566199423"><ele>752.3333333333333</ele><time>2026-04-12T09:45:18Z</time></trkpt><trkpt lat="44.55935760938682" lon="8.058794319244024"><ele>749.6666666666666</ele><time>2026-04-12T09:45:19Z</time></trkpt><trkpt lat="44.55929110658518" lon="8.058832860704893"><ele>747.0</ele><time>2026-04-12T09:45:20Z</time></trkpt><trkpt lat="44.559220530394335" lon="8.058885269060665"><ele>744.3333333333334</ele><time>2026-04-12T09:45:21Z</time></trkpt><trkpt lat="44.55915352246322" lon="8.058935791841135"><ele>741.6666666666667</ele><time>2026-04-12T09:45:22Z</time></trkpt><trkpt lat="44.55910099305787" lon="8.058995995172571"><ele>739.0</ele><time>2026-04-12T09:45:23Z</time></trkpt><trkpt lat="44.55899474039604" lon="8.059075973918214"><ele>739.3333333333334</ele><time>2026-04-12T09:45:25Z</time></trkpt><trkpt lat="44.55893003754625" lon="8.05913509725751"><ele>739.6666666666667</ele><time>2026-04-12T09:45:26Z</time></trkpt><trkpt lat="44.55886606423295" lon="8.059152588578899"><ele>740.0</ele><time>2026-04-12T09:45:27Z</time></trkpt><trkpt lat="44.558805434990845" lon="8.059191976245097"><ele>740.3333333333334</ele><time>2026-04-12T09:45:28Z</time></trkpt><trkpt lat="44.558737861420624" lon="8.059236382250274"><ele>740.6666666666666</ele><time>2026-04-12T09:45:29Z</time></trkpt><trkpt lat="44.55867941714779" lon="8.059301656880233"><ele>741.0</ele><time>2026-04-12T09:45:30Z</time></trkpt><trkpt lat="44.558550252064784" lon="8.059374293065408"><ele>739.8333333333334</ele><time>2026-04-12T09:45:32Z</time></trkpt><trkpt lat="44.55844435526126" lon="8.059445196692078"><ele>738.6666666666666</ele><time>2026-04-12T09:45:34Z</time></trkpt><trkpt lat="44.558370427782314" lon="8.059501944553093"><ele>737.5</ele><time>2026-04-12T09:45:35.999Z</time></trkpt><trkpt lat="44.558305693823264" lon="8.059534033701699"><ele>736.3333333333333</ele><time>2026-04-12T09:45:37.999Z</time></trkpt><trkpt lat="44.55822041129953" lon="8.059543348527582"><ele>735.1666666666666</ele><time>2026-04-12T09:45:40.999Z</time></trkpt><trkpt lat="44.55814793442896" lon="8.059557000139513"><ele>734.0</ele><time>2026-04-12T09:45:42.999Z</time></trkpt><trkpt lat="44.55804271448353" lon="8.059571371026214"><ele>734.0</ele><time>2026-04-12T09:45:44.999Z</time></trkpt><trkpt lat="44.55797216249618" lon="8.05954195635034"><ele>734.0</ele><time>2026-04-12T09:45:46.999Z</time></trkpt><trkpt lat="44.55790364484317" lon="8.05956767906006"><ele>734.0</ele><time>2026-04-12T09:45:48.999Z</time></trkpt><trkpt lat="44.55781708277014" lon="8.059579029686965"><ele>734.0</ele><time>2026-04-12T09:45:50.999Z</time></trkpt><trkpt lat="44.55773314774401" lon="8.05961616167685"><ele>734.0</ele><time>2026-04-12T09:45:52.999Z</time></trkpt><trkpt lat="44.55763829607185" lon="8.05967014690253"><ele>734.0</ele><time>2026-04-12T09:45:54.999Z</time></trkpt><trkpt lat="44.55755476193145" lon="8.059720241922747"><ele>735.0</ele><time>2026-04-12T09:45:56.999Z</time></trkpt><trkpt lat="44.557458727830415" lon="8.059775155657736"><ele>736.0</ele><time>2026-04-12T09:45:58.999Z</time></trkpt><trkpt lat="44.55736982822527" lon="8.059829977334646"><ele>737.0</ele><time>2026-04-12T09:46:00.999Z</time></trkpt><trkpt lat="44.557282941286346" lon="8.059880327878354"><ele>738.0</ele><time>2026-04-12T09:46:02.999Z</time></trkpt><trkpt lat="44.5571874907263" lon="8.059938780385696"><ele>739.0</ele><time>2026-04-12T09:46:04.999Z</time></trkpt><trkpt lat="44.55709505165119" lon="8.059989789211771"><ele>737.2</ele><time>2026-04-12T09:46:06.999Z</time></trkpt><trkpt lat="44.556989543863736" lon="8.060052968779432"><ele>735.4000000000001</ele><time>2026-04-12T09:46:08.999Z</time></trkpt><trkpt lat="44.55689286364156" lon="8.060104848787319"><ele>733.6</ele><time>2026-04-12T09:46:10.999Z</time></trkpt><trkpt lat="44.55679286681134" lon="8.060150882997679"><ele>731.8</ele><time>2026-04-12T09:46:12.999Z</time></trkpt><trkpt lat="44.55669203370507" lon="8.060200469048809"><ele>730.0</ele><time>2026-04-12T09:46:14.999Z</time></trkpt><trkpt lat="44.55658640367006" lon="8.06023258646008"><ele>730.0</ele><time>2026-04-12T09:46:16.999Z</time></trkpt><trkpt lat="44.55647203683304" lon="8.06027676360919"><ele>730.0</ele><time>2026-04-12T09:46:18.999Z</time></trkpt><trkpt lat="44.55636642174352" lon="8.060311566094382"><ele>730.0</ele><time>2026-04-12T09:46:20.999Z</time></trkpt><trkpt lat="44.55625472795376" lon="8.060351176264536"><ele>730.0</ele><time>2026-04-12T09:46:22.999Z</time></trkpt><trkpt lat="44.55615373365111" lon="8.060387141097776"><ele>730.0</ele><time>2026-04-12T09:46:24.999Z</time></trkpt><trkpt lat="44.55605964913666" lon="8.060438547905694"><ele>731.6</ele><time>2026-04-12T09:46:26.999Z</time></trkpt><trkpt lat="44.555970957352436" lon="8.060512379359476"><ele>733.2</ele><time>2026-04-12T09:46:28.999Z</time></trkpt><trkpt lat="44.5558912339702" lon="8.060613264261722"><ele>734.8</ele><time>2026-04-12T09:46:30.999Z</time></trkpt><trkpt lat="44.55584812373153" lon="8.060678277048757"><ele>736.4</ele><time>2026-04-12T09:46:31.999Z</time></trkpt><trkpt lat="44.55577155853639" lon="8.060800066983878"><ele>738.0</ele><time>2026-04-12T09:46:33.999Z</time></trkpt><trkpt lat="44.555706931264595" lon="8.060940108385495"><ele>738.0</ele><time>2026-04-12T09:46:35.999Z</time></trkpt><trkpt lat="44.555642771122585" lon="8.061079278586513"><ele>738.0</ele><time>2026-04-12T09:46:37.999Z</time></trkpt><trkpt lat="44.555608365938085" lon="8.061153820567625"><ele>738.0</ele><time>2026-04-12T09:46:38.999Z</time></trkpt><trkpt lat="44.5555505804759" lon="8.061301480583134"><ele>738.0</ele><time>2026-04-12T09:46:40.999Z</time></trkpt><trkpt lat="44.555488539699994" lon="8.061447134847123"><ele>738.0</ele><time>2026-04-12T09:46:42.999Z</time></trkpt><trkpt lat="44.555431489363215" lon="8.061591415713576"><ele>735.8333333333334</ele><time>2026-04-12T09:46:44.999Z</time></trkpt><trkpt lat="44.55537039049922" lon="8.0617474040381"><ele>733.6666666666666</ele><time>2026-04-12T09:46:46.998Z</time></trkpt><trkpt lat="44.555336166596184" lon="8.061824753257502"><ele>731.5</ele><time>2026-04-12T09:46:47.998Z</time></trkpt><trkpt lat="44.555304214430215" lon="8.061903934532115"><ele>729.3333333333333</ele><time>2026-04-12T09:46:48.998Z</time></trkpt><trkpt lat="44.5552669099821" lon="8.061985669748323"><ele>727.1666666666666</ele><time>2026-04-12T09:46:49.998Z</time></trkpt><trkpt lat="44.5552272246651" lon="8.06206419537689"><ele>725.0</ele><time>2026-04-12T09:46:50.998Z</time></trkpt><trkpt lat="44.555189108352835" lon="8.06213576952727"><ele>725.0</ele><time>2026-04-12T09:46:51.998Z</time></trkpt><trkpt lat="44.555139268190594" lon="8.062205294839854"><ele>725.0</ele><time>2026-04-12T09:46:52.998Z</time></trkpt><trkpt lat="44.55509285417661" lon="8.062275030383343"><ele>725.0</ele><time>2026-04-12T09:46:53.998Z</time></trkpt><trkpt lat="44.55503866686001" lon="8.062333795778285"><ele>725.0</ele><time>2026-04-12T09:46:55Z</time></trkpt><trkpt lat="44.55498616875261" lon="8.06238904136739"><ele>725.0</ele><time>2026-04-12T09:46:56Z</time></trkpt><trkpt lat="44.55493306141487" lon="8.062437450668746"><ele>725.0</ele><time>2026-04-12T09:46:57Z</time></trkpt><trkpt lat="44.55482424884561" lon="8.062498508463294"><ele>726.5</ele><time>2026-04-12T09:46:59Z</time></trkpt><trkpt lat="44.5547192591876" lon="8.0625754443826"><ele>728.0</ele><time>2026-04-12T09:47:01Z</time></trkpt><trkpt lat="44.554620056787" lon="8.062652436545228"><ele>729.5</ele><time>2026-04-12T09:47:03Z</time></trkpt><trkpt lat="44.55451738921583" lon="8.062707591727495"><ele>731.0</ele><time>2026-04-12T09:47:05Z</time></trkpt><trkpt lat="44.55442237893636" lon="8.062782085290879"><ele>731.0</ele><time>2026-04-12T09:47:07Z</time></trkpt><trkpt lat="44.55434011966857" lon="8.06282681458911"><ele>731.0</ele><time>2026-04-12T09:47:09Z</time></trkpt><trkpt lat="44.554257350744535" lon="8.062868320206647"><ele>731.0</ele><time>2026-04-12T09:47:11Z</time></trkpt><trkpt lat="44.55418333262368" lon="8.062902389445986"><ele>731.0</ele><time>2026-04-12T09:47:13Z</time></trkpt><trkpt lat="44.55410226731426" lon="8.062938707116807"><ele>731.0</ele><time>2026-04-12T09:47:15Z</time></trkpt><trkpt lat="44.55402610001011" lon="8.06297396864503"><ele>731.0</ele><time>2026-04-12T09:47:17Z</time></trkpt><trkpt lat="44.55395194618403" lon="8.06301343130899"><ele>731.0</ele><time>2026-04-12T09:47:19Z</time></trkpt><trkpt lat="44.553883727190886" lon="8.063049109976365"><ele>731.0</ele><time>2026-04-12T09:47:21Z</time></trkpt><trkpt lat="44.553814351321826" lon="8.063094514908835"><ele>731.0</ele><time>2026-04-12T09:47:23Z</time></trkpt><trkpt lat="44.553746720783366" lon="8.0631325067678"><ele>731.0</ele><time>2026-04-12T09:47:25Z</time></trkpt><trkpt lat="44.55368076244736" lon="8.063170602071597"><ele>731.0</ele><time>2026-04-12T09:47:27Z</time></trkpt><trkpt lat="44.553619717454836" lon="8.063216779120815"><ele>731.0</ele><time>2026-04-12T09:47:29Z</time></trkpt><trkpt lat="44.553555433039456" lon="8.063275974038229"><ele>731.0</ele><time>2026-04-12T09:47:31Z</time></trkpt><trkpt lat="44.55349739180175" lon="8.063310344745839"><ele>732.5</ele><time>2026-04-12T09:47:33Z</time></trkpt><trkpt lat="44.55344198459957" lon="8.063355669051752"><ele>734.0</ele><time>2026-04-12T09:47:37Z</time></trkpt><trkpt lat="44.553360705708556" lon="8.063424714034733"><ele>735.5</ele><time>2026-04-12T09:47:40Z</time></trkpt><trkpt lat="44.55328096583282" lon="8.06348719384611"><ele>737.0</ele><time>2026-04-12T09:47:44Z</time></trkpt><trkpt lat="44.55321297246099" lon="8.06353985997722"><ele>738.5</ele><time>2026-04-12T09:47:45.999Z</time></trkpt><trkpt lat="44.55315198968894" lon="8.063621328328693"><ele>740.0</ele><time>2026-04-12T09:47:47.999Z</time></trkpt><trkpt lat="44.55309042880695" lon="8.063697571302923"><ele>739.9999999999999</ele><time>2026-04-12T09:47:48.999Z</time></trkpt><trkpt lat="44.553009681884895" lon="8.06377426071112"><ele>740.0</ele><time>2026-04-12T09:47:49.999Z</time></trkpt><trkpt lat="44.55296311481175" lon="8.063854957161155"><ele>740.0</ele><time>2026-04-12T09:47:50.999Z</time></trkpt><trkpt lat="44.55291842079701" lon="8.063918065940252"><ele>740.0</ele><time>2026-04-12T09:47:51.999Z</time></trkpt><trkpt lat="44.5528742897627" lon="8.063987858579605"><ele>740.0</ele><time>2026-04-12T09:47:52.999Z</time></trkpt><trkpt lat="44.5528319431049" lon="8.064069325352413"><ele>739.9999999999999</ele><time>2026-04-12T09:47:53.999Z</time></trkpt><trkpt lat="44.55278239211858" lon="8.064149722429747"><ele>740.0</ele><time>2026-04-12T09:47:54.999Z</time></trkpt><trkpt lat="44.55273888878839" lon="8.064243259670446"><ele>740.8333333333333</ele><time>2026-04-12T09:47:55.999Z</time></trkpt><trkpt lat="44.55268503581398" lon="8.064335533636765"><ele>741.6666666666666</ele><time>2026-04-12T09:47:56.999Z</time></trkpt><trkpt lat="44.55263367414396" lon="8.064424236837159"><ele>742.5</ele><time>2026-04-12T09:47:57.999Z</time></trkpt><trkpt lat="44.55258577842908" lon="8.064509520998433"><ele>743.3333333333334</ele><time>2026-04-12T09:47:58.999Z</time></trkpt><trkpt lat="44.55253189794918" lon="8.064602578040313"><ele>744.1666666666667</ele><time>2026-04-12T09:47:59.999Z</time></trkpt><trkpt lat="44.55246731353834" lon="8.064698642924398"><ele>745.0</ele><time>2026-04-12T09:48:00.999Z</time></trkpt><trkpt lat="44.55240298129755" lon="8.06479257467586"><ele>745.0</ele><time>2026-04-12T09:48:01.999Z</time></trkpt><trkpt lat="44.55236008044593" lon="8.064885809483393"><ele>745.0</ele><time>2026-04-12T09:48:02.999Z</time></trkpt><trkpt lat="44.55232134941358" lon="8.064987048622804"><ele>745.0</ele><time>2026-04-12T09:48:03.999Z</time></trkpt><trkpt lat="44.55228568305349" lon="8.065089377509713"><ele>745.0</ele><time>2026-04-12T09:48:04.999Z</time></trkpt><trkpt lat="44.55225980606942" lon="8.06518521856797"><ele>745.0</ele><time>2026-04-12T09:48:05.999Z</time></trkpt><trkpt lat="44.55222003817772" lon="8.06527603555944"><ele>745.0</ele><time>2026-04-12T09:48:06.999Z</time></trkpt><trkpt lat="44.552195792131364" lon="8.065373506729454"><ele>744.0</ele><time>2026-04-12T09:48:07.999Z</time></trkpt><trkpt lat="44.552166206422505" lon="8.065458755981297"><ele>743.0</ele><time>2026-04-12T09:48:08.999Z</time></trkpt><trkpt lat="44.55211531085574" lon="8.065615514323953"><ele>742.0</ele><time>2026-04-12T09:48:10.999Z</time></trkpt><trkpt lat="44.55204711977339" lon="8.065752451215863"><ele>741.0</ele><time>2026-04-12T09:48:12.999Z</time></trkpt><trkpt lat="44.551992231521474" lon="8.065880174030012"><ele>740.0</ele><time>2026-04-12T09:48:14.999Z</time></trkpt><trkpt lat="44.5519537457735" lon="8.066009422306205"><ele>739.8333333333333</ele><time>2026-04-12T09:48:16.999Z</time></trkpt><trkpt lat="44.55192070021055" lon="8.066100494559503"><ele>739.6666666666666</ele><time>2026-04-12T09:48:18.999Z</time></trkpt><trkpt lat="44.551881821743684" lon="8.066187890965782"><ele>739.5</ele><time>2026-04-12T09:48:21.999Z</time></trkpt><trkpt lat="44.55186352812022" lon="8.066092238360147"><ele>739.3333333333334</ele><time>2026-04-12T09:48:24.999Z</time></trkpt><trkpt lat="44.55185865185534" lon="8.065966656233485"><ele>739.1666666666667</ele><time>2026-04-12T09:48:27.999Z</time></trkpt><trkpt lat="44.55186392920722" lon="8.06584760324537"><ele>739.0</ele><time>2026-04-12T09:48:30.999Z</time></trkpt><trkpt lat="44.5518571853451" lon="8.065758358353936"><ele>739.0</ele><time>2026-04-12T09:48:32.999Z</time></trkpt><trkpt lat="44.551849665412796" lon="8.065643774074045"><ele>739.0</ele><time>2026-04-12T09:48:35.999Z</time></trkpt><trkpt lat="44.55184810948056" lon="8.065534626285471"><ele>739.0</ele><time>2026-04-12T09:48:38.999Z</time></trkpt><trkpt lat="44.55183200386343" lon="8.065423712976077"><ele>739.0</ele><time>2026-04-12T09:48:41.999Z</time></trkpt><trkpt lat="44.55182009651794" lon="8.065308408932754"><ele>739.0</ele><time>2026-04-12T09:48:44.999Z</time></trkpt><trkpt lat="44.551810707305194" lon="8.065217377059835"><ele>739.0</ele><time>2026-04-12T09:48:46.999Z</time></trkpt><trkpt lat="44.551808215075475" lon="8.065116483016707"><ele>739.0</ele><time>2026-04-12T09:48:49.999Z</time></trkpt><trkpt lat="44.55181060562701" lon="8.065001139082316"><ele>739.0</ele><time>2026-04-12T09:48:53.999Z</time></trkpt><trkpt lat="44.551805235856065" lon="8.064912213309844"><ele>739.0</ele><time>2026-04-12T09:48:55.999Z</time></trkpt><trkpt lat="44.55178546211047" lon="8.064812266110629"><ele>739.0</ele><time>2026-04-12T09:48:57.998Z</time></trkpt><trkpt lat="44.55175377493411" lon="8.06471394691429"><ele>739.0</ele><time>2026-04-12T09:48:59.998Z</time></trkpt><trkpt lat="44.55170756056174" lon="8.064611018505799"><ele>739.0</ele><time>2026-04-12T09:49:02Z</time></trkpt><trkpt lat="44.55165078702821" lon="8.0645088964366"><ele>739.3333333333334</ele><time>2026-04-12T09:49:05Z</time></trkpt><trkpt lat="44.551587885785764" lon="8.064421635345848"><ele>739.6666666666667</ele><time>2026-04-12T09:49:08Z</time></trkpt><trkpt lat="44.551530195644006" lon="8.064336931147935"><ele>740.0</ele><time>2026-04-12T09:49:11Z</time></trkpt><trkpt lat="44.5514877140344" lon="8.064267479152194"><ele>740.3333333333334</ele><time>2026-04-12T09:49:14Z</time></trkpt><trkpt lat="44.55142999409708" lon="8.064205105871853"><ele>740.6666666666666</ele><time>2026-04-12T09:49:18Z</time></trkpt><trkpt lat="44.55139103476462" lon="8.064128309066747"><ele>741.0</ele><time>2026-04-12T09:49:21Z</time></trkpt><trkpt lat="44.551332617763364" lon="8.064059946162569"><ele>741.0</ele><time>2026-04-12T09:49:26Z</time></trkpt><trkpt lat="44.551277101712095" lon="8.063990259277752"><ele>741.0</ele><time>2026-04-12T09:49:30Z</time></trkpt><trkpt lat="44.551219607471985" lon="8.063928744044523"><ele>741.0</ele><time>2026-04-12T09:49:34Z</time></trkpt><trkpt lat="44.551161058408695" lon="8.063868803216723"><ele>741.0</ele><time>2026-04-12T09:49:37Z</time></trkpt><trkpt lat="44.55110085925683" lon="8.063801206536132"><ele>741.0</ele><time>2026-04-12T09:49:41Z</time></trkpt><trkpt lat="44.55104719997237" lon="8.063705674084902"><ele>741.0</ele><time>2026-04-12T09:49:44Z</time></trkpt><trkpt lat="44.551006401573616" lon="8.06361672377675"><ele>741.1666666666666</ele><time>2026-04-12T09:49:47Z</time></trkpt><trkpt lat="44.550971363813915" lon="8.06352486695287"><ele>741.3333333333334</ele><time>2026-04-12T09:49:50Z</time></trkpt><trkpt lat="44.550915325666196" lon="8.063448422018165"><ele>741.5</ele><time>2026-04-12T09:49:52Z</time></trkpt><trkpt lat="44.55086666625072" lon="8.063384018261669"><ele>741.6666666666667</ele><time>2026-04-12T09:49:54Z</time></trkpt><trkpt lat="44.55079609574786" lon="8.06329818498673"><ele>741.8333333333334</ele><time>2026-04-12T09:49:55.999Z</time></trkpt><trkpt lat="44.55073144053567" lon="8.06324042519458"><ele>742.0</ele><time>2026-04-12T09:49:57.999Z</time></trkpt><trkpt lat="44.55068421044924" lon="8.063181340130956"><ele>741.6666666666667</ele><time>2026-04-12T09:49:59.999Z</time></trkpt><trkpt lat="44.550616811964005" lon="8.06311822059057"><ele>741.3333333333334</ele><time>2026-04-12T09:50:02.999Z</time></trkpt><trkpt lat="44.550556153860825" lon="8.06305713067688"><ele>741.0</ele><time>2026-04-12T09:50:05.999Z</time></trkpt><trkpt lat="44.55048869812915" lon="8.062981588681795"><ele>740.6666666666666</ele><time>2026-04-12T09:50:08.999Z</time></trkpt><trkpt lat="44.55042917753111" lon="8.062900217354786"><ele>740.3333333333333</ele><time>2026-04-12T09:50:11.999Z</time></trkpt><trkpt lat="44.55036874373168" lon="8.06282888384456"><ele>740.0</ele><time>2026-04-12T09:50:15.999Z</time></trkpt><trkpt lat="44.55031239655906" lon="8.062733545368772"><ele>738.5</ele><time>2026-04-12T09:50:18.999Z</time></trkpt><trkpt lat="44.55026949641236" lon="8.06264411641474"><ele>737.0</ele><time>2026-04-12T09:50:20.999Z</time></trkpt><trkpt lat="44.550233748972616" lon="8.062535807169057"><ele>735.5</ele><time>2026-04-12T09:50:22.999Z</time></trkpt><trkpt lat="44.55021101053791" lon="8.062414968347657"><ele>734.0</ele><time>2026-04-12T09:50:25.999Z</time></trkpt><trkpt lat="44.55019913026429" lon="8.062293681989622"><ele>732.5</ele><time>2026-04-12T09:50:28.999Z</time></trkpt><trkpt lat="44.55015939786393" lon="8.062203107063349"><ele>731.0</ele><time>2026-04-12T09:50:31.999Z</time></trkpt><trkpt lat="44.55011063019787" lon="8.06211159511208"><ele>730.6666666666666</ele><time>2026-04-12T09:50:34.999Z</time></trkpt><trkpt lat="44.55006641527744" lon="8.06203145558766"><ele>730.3333333333333</ele><time>2026-04-12T09:50:38.999Z</time></trkpt><trkpt lat="44.55000971613295" lon="8.06192623003969"><ele>730.0</ele><time>2026-04-12T09:50:41.999Z</time></trkpt><trkpt lat="44.54997235427212" lon="8.0618283390991"><ele>729.6666666666666</ele><time>2026-04-12T09:50:43.999Z</time></trkpt><trkpt lat="44.54992795150328" lon="8.061722493701494"><ele>729.3333333333334</ele><time>2026-04-12T09:50:45.999Z</time></trkpt><trkpt lat="44.549915064259025" lon="8.06160164508743"><ele>729.0</ele><time>2026-04-12T09:50:47.999Z</time></trkpt><trkpt lat="44.5499056495601" lon="8.061477642790589"><ele>728.3333333333334</ele><time>2026-04-12T09:50:49.999Z</time></trkpt><trkpt lat="44.549898252767505" lon="8.061357126922793"><ele>727.6666666666666</ele><time>2026-04-12T09:50:51.999Z</time></trkpt><trkpt lat="44.549907638712476" lon="8.061250340070554"><ele>727.0</ele><time>2026-04-12T09:50:54.999Z</time></trkpt><trkpt lat="44.54988300350322" lon="8.061166935809476"><ele>726.3333333333333</ele><time>2026-04-12T09:50:58.999Z</time></trkpt><trkpt lat="44.54982338652465" lon="8.06111016357149"><ele>725.6666666666666</ele><time>2026-04-12T09:51:02.999Z</time></trkpt><trkpt lat="44.54981217369507" lon="8.060990682817069"><ele>725.0</ele><time>2026-04-12T09:51:07Z</time></trkpt><trkpt lat="44.54976802344205" lon="8.06088108634003"><ele>725.0</ele><time>2026-04-12T09:51:10Z</time></trkpt><trkpt lat="44.54971530381202" lon="8.060819900363887"><ele>725.0</ele><time>2026-04-12T09:51:12Z</time></trkpt><trkpt lat="44.54965709754516" lon="8.060739127701472"><ele>725.0</ele><time>2026-04-12T09:51:14Z</time></trkpt><trkpt lat="44.54959158509896" lon="8.060640393042096"><ele>725.0</ele><time>2026-04-12T09:51:16Z</time></trkpt><trkpt lat="44.54952607187773" lon="8.060568126494521"><ele>725.0</ele><time>2026-04-12T09:51:18Z</time></trkpt><trkpt lat="44.549465135946434" lon="8.060505366451604"><ele>725.0</ele><time>2026-04-12T09:51:20Z</time></trkpt><trkpt lat="44.54940784337038" lon="8.060421579010214"><ele>725.4</ele><time>2026-04-12T09:51:22Z</time></trkpt><trkpt lat="44.5493622999242" lon="8.060330793137984"><ele>725.8</ele><time>2026-04-12T09:51:24Z</time></trkpt><trkpt lat="44.54930179856891" lon="8.060238500013737"><ele>726.2</ele><time>2026-04-12T09:51:26Z</time></trkpt><trkpt lat="44.549235493905584" lon="8.060117033695866"><ele>726.6</ele><time>2026-04-12T09:51:28Z</time></trkpt><trkpt lat="44.549155069798154" lon="8.059991655573613"><ele>727.0</ele><time>2026-04-12T09:51:30Z</time></trkpt><trkpt lat="44.54910121731957" lon="8.059932292609844"><ele>725.3333333333334</ele><time>2026-04-12T09:51:31Z</time></trkpt><trkpt lat="44.549045755364176" lon="8.059880373956586"><ele>723.6666666666667</ele><time>2026-04-12T09:51:32Z</time></trkpt><trkpt lat="44.548971163133366" lon="8.059775028085598"><ele>722.0</ele><time>2026-04-12T09:51:34Z</time></trkpt><trkpt lat="44.54892333832264" lon="8.059687370176093"><ele>720.3333333333334</ele><time>2026-04-12T09:51:36Z</time></trkpt><trkpt lat="44.54887956966867" lon="8.059615554318668"><ele>718.6666666666666</ele><time>2026-04-12T09:51:38Z</time></trkpt><trkpt lat="44.54882774075964" lon="8.059507517039988"><ele>717.0</ele><time>2026-04-12T09:51:41Z</time></trkpt><trkpt lat="44.5487786148482" lon="8.05942339311719"><ele>717.0</ele><time>2026-04-12T09:51:43Z</time></trkpt><trkpt lat="44.548730195975715" lon="8.059361579695391"><ele>717.0</ele><time>2026-04-12T09:51:45Z</time></trkpt><trkpt lat="44.54867633768814" lon="8.059246695838704"><ele>717.0</ele><time>2026-04-12T09:51:48Z</time></trkpt><trkpt lat="44.54863174019053" lon="8.059175055484095"><ele>717.0</ele><time>2026-04-12T09:51:50Z</time></trkpt><trkpt lat="44.54857194410673" lon="8.059092888432534"><ele>717.0</ele><time>2026-04-12T09:51:53Z</time></trkpt><trkpt lat="44.54852235932504" lon="8.059004425531345"><ele>717.0</ele><time>2026-04-12T09:51:56Z</time></trkpt><trkpt lat="44.54846936477907" lon="8.058918146435627"><ele>718.4285714285714</ele><time>2026-04-12T09:51:58.999Z</time></trkpt><trkpt lat="44.54841150270646" lon="8.058851942104642"><ele>719.8571428571429</ele><time>2026-04-12T09:52:01.999Z</time></trkpt><trkpt lat="44.54836023715173" lon="8.05879766652307"><ele>721.2857142857142</ele><time>2026-04-12T09:52:04.999Z</time></trkpt><trkpt lat="44.54832606823019" lon="8.05872101025041"><ele>722.7142857142858</ele><time>2026-04-12T09:52:08.999Z</time></trkpt><trkpt lat="44.5483034226621" lon="8.05861226264694"><ele>724.1428571428572</ele><time>2026-04-12T09:52:12.999Z</time></trkpt><trkpt lat="44.54824915387873" lon="8.058562983157469"><ele>725.5714285714286</ele><time>2026-04-12T09:52:14.999Z</time></trkpt><trkpt lat="44.548194012818556" lon="8.058465638581927"><ele>727.0</ele><time>2026-04-12T09:52:17.999Z</time></trkpt><trkpt lat="44.54816761077809" lon="8.058367318331452"><ele>725.6666666666667</ele><time>2026-04-12T09:52:20.999Z</time></trkpt><trkpt lat="44.54814072975762" lon="8.058256238029065"><ele>724.3333333333334</ele><time>2026-04-12T09:52:22.999Z</time></trkpt><trkpt lat="44.54810600398605" lon="8.05815282625552"><ele>723.0</ele><time>2026-04-12T09:52:25.999Z</time></trkpt><trkpt lat="44.54807481001687" lon="8.058043467016255"><ele>721.6666666666666</ele><time>2026-04-12T09:52:28.999Z</time></trkpt><trkpt lat="44.54804994798358" lon="8.057913905995559"><ele>720.3333333333333</ele><time>2026-04-12T09:52:31.999Z</time></trkpt><trkpt lat="44.548012995910845" lon="8.057815962090253"><ele>719.0</ele><time>2026-04-12T09:52:34.999Z</time></trkpt><trkpt lat="44.54797526229035" lon="8.057732544166779"><ele>719.0</ele><time>2026-04-12T09:52:36.999Z</time></trkpt><trkpt lat="44.54793815059666" lon="8.057603756252645"><ele>719.0</ele><time>2026-04-12T09:52:39.999Z</time></trkpt><trkpt lat="44.547924656906275" lon="8.057510584677475"><ele>719.0</ele><time>2026-04-12T09:52:41.999Z</time></trkpt><trkpt lat="44.54791693648853" lon="8.057406413931364"><ele>719.0</ele><time>2026-04-12T09:52:43.999Z</time></trkpt><trkpt lat="44.54788632534475" lon="8.05729735399254"><ele>719.0</ele><time>2026-04-12T09:52:45.999Z</time></trkpt><trkpt lat="44.54785596091265" lon="8.057162936558159"><ele>719.0</ele><time>2026-04-12T09:52:47.999Z</time></trkpt><trkpt lat="44.54781837808649" lon="8.057026144856147"><ele>720.6666666666666</ele><time>2026-04-12T09:52:49.999Z</time></trkpt><trkpt lat="44.547776199540145" lon="8.056901920412312"><ele>722.3333333333333</ele><time>2026-04-12T09:52:51.999Z</time></trkpt><trkpt lat="44.54772086633607" lon="8.056779566501334"><ele>724.0</ele><time>2026-04-12T09:52:53.999Z</time></trkpt><trkpt lat="44.54766497701819" lon="8.056688652445937"><ele>725.6666666666666</ele><time>2026-04-12T09:52:55.999Z</time></trkpt><trkpt lat="44.547597907465544" lon="8.056626023763705"><ele>727.3333333333334</ele><time>2026-04-12T09:52:58.999Z</time></trkpt><trkpt lat="44.54753504340246" lon="8.05668530606744"><ele>729.0</ele><time>2026-04-12T09:53:00.999Z</time></trkpt><trkpt lat="44.54748325437094" lon="8.056778060882134"><ele>729.0</ele><time>2026-04-12T09:53:02.999Z</time></trkpt><trkpt lat="44.54742862800726" lon="8.05684852479677"><ele>729.0</ele><time>2026-04-12T09:53:04.999Z</time></trkpt><trkpt lat="44.547381250550096" lon="8.056934464168645"><ele>729.0</ele><time>2026-04-12T09:53:06.999Z</time></trkpt><trkpt lat="44.5473242280846" lon="8.057026589913129"><ele>729.0</ele><time>2026-04-12T09:53:08.998Z</time></trkpt><trkpt lat="44.54726761225799" lon="8.057125170799486"><ele>729.0</ele><time>2026-04-12T09:53:10.998Z</time></trkpt><trkpt lat="44.54723160247552" lon="8.057223452382365"><ele>729.0</ele><time>2026-04-12T09:53:13Z</time></trkpt><trkpt lat="44.547183342022954" lon="8.057318368160265"><ele>729.0</ele><time>2026-04-12T09:53:15Z</time></trkpt><trkpt lat="44.547117231470246" lon="8.057426392865702"><ele>729.0</ele><time>2026-04-12T09:53:17Z</time></trkpt><trkpt lat="44.54704691893484" lon="8.057543416663068"><ele>729.0</ele><time>2026-04-12T09:53:19Z</time></trkpt><trkpt lat="44.546991106316334" lon="8.05766195425533"><ele>729.0</ele><time>2026-04-12T09:53:21Z</time></trkpt><trkpt lat="44.54693691662287" lon="8.057785701674002"><ele>729.0</ele><time>2026-04-12T09:53:23Z</time></trkpt><trkpt lat="44.5468663251882" lon="8.05787748552231"><ele>729.8000000000001</ele><time>2026-04-12T09:53:25Z</time></trkpt><trkpt lat="44.54679461524535" lon="8.057973605982417"><ele>730.6</ele><time>2026-04-12T09:53:27Z</time></trkpt><trkpt lat="44.54672990987769" lon="8.058090093641205"><ele>731.4</ele><time>2026-04-12T09:53:29Z</time></trkpt><trkpt lat="44.546654553247606" lon="8.058210295321434"><ele>732.2</ele><time>2026-04-12T09:53:31Z</time></trkpt><trkpt lat="44.54656934719732" lon="8.05833228168386"><ele>733.0</ele><time>2026-04-12T09:53:33Z</time></trkpt><trkpt lat="44.546515824421576" lon="8.058390703236613"><ele>733.0</ele><time>2026-04-12T09:53:34Z</time></trkpt><trkpt lat="44.54646819340422" lon="8.058453669341977"><ele>733.0</ele><time>2026-04-12T09:53:35Z</time></trkpt><trkpt lat="44.546419815010694" lon="8.058518326325977"><ele>733.0</ele><time>2026-04-12T09:53:36Z</time></trkpt><trkpt lat="44.54637011987621" lon="8.058574266816967"><ele>733.0</ele><time>2026-04-12T09:53:37Z</time></trkpt><trkpt lat="44.54627582953353" lon="8.058648511074223"><ele>733.0</ele><time>2026-04-12T09:53:39Z</time></trkpt><trkpt lat="44.54619159474966" lon="8.058719256153802"><ele>733.0</ele><time>2026-04-12T09:53:41Z</time></trkpt><trkpt lat="44.54610785194406" lon="8.058762921488748"><ele>731.5</ele><time>2026-04-12T09:53:43Z</time></trkpt><trkpt lat="44.54601164514515" lon="8.058681565978405"><ele>730.0</ele><time>2026-04-12T09:53:45Z</time></trkpt><trkpt lat="44.54591869996357" lon="8.058577233157227"><ele>728.5</ele><time>2026-04-12T09:53:47Z</time></trkpt><trkpt lat="44.5458312637725" lon="8.058480907364276"><ele>727.0</ele><time>2026-04-12T09:53:49Z</time></trkpt><trkpt lat="44.54574217106395" lon="8.058391823627263"><ele>727.0</ele><time>2026-04-12T09:53:51Z</time></trkpt><trkpt lat="44.54564916113348" lon="8.058291755767774"><ele>727.0</ele><time>2026-04-12T09:53:53Z</time></trkpt><trkpt lat="44.545590035224535" lon="8.058250941288563"><ele>727.0</ele><time>2026-04-12T09:53:54Z</time></trkpt><trkpt lat="44.545532696079526" lon="8.058208866766583"><ele>727.0</ele><time>2026-04-12T09:53:55Z</time></trkpt><trkpt lat="44.54542489961945" lon="8.058111454401269"><ele>727.0</ele><time>2026-04-12T09:53:57Z</time></trkpt><trkpt lat="44.54536578978078" lon="8.058073735410094"><ele>727.0</ele><time>2026-04-12T09:53:58Z</time></trkpt><trkpt lat="44.54530602193639" lon="8.05803674341932"><ele>726.4285714285714</ele><time>2026-04-12T09:53:59Z</time></trkpt><trkpt lat="44.54524620081797" lon="8.058003928747656"><ele>725.8571428571429</ele><time>2026-04-12T09:53:59.999Z</time></trkpt><trkpt lat="44.54518603836684" lon="8.057965926295964"><ele>725.2857142857143</ele><time>2026-04-12T09:54:00.999Z</time></trkpt><trkpt lat="44.54512152509074" lon="8.05793319594811"><ele>724.7142857142858</ele><time>2026-04-12T09:54:01.999Z</time></trkpt><trkpt lat="44.54505581767422" lon="8.057904194701617"><ele>724.1428571428571</ele><time>2026-04-12T09:54:02.999Z</time></trkpt><trkpt lat="44.54499152102979" lon="8.057876255318185"><ele>723.5714285714287</ele><time>2026-04-12T09:54:03.999Z</time></trkpt><trkpt lat="44.54493140615448" lon="8.057841259636668"><ele>723.0</ele><time>2026-04-12T09:54:04.999Z</time></trkpt><trkpt lat="44.54487038790764" lon="8.057810012226788"><ele>723.0</ele><time>2026-04-12T09:54:05.999Z</time></trkpt><trkpt lat="44.544758067749974" lon="8.05774888623523"><ele>723.0</ele><time>2026-04-12T09:54:07.999Z</time></trkpt><trkpt lat="44.54470076138862" lon="8.057698541770794"><ele>723.0</ele><time>2026-04-12T09:54:08.999Z</time></trkpt><trkpt lat="44.54464403642722" lon="8.057649806495684"><ele>723.0</ele><time>2026-04-12T09:54:09.999Z</time></trkpt><trkpt lat="44.54459654075973" lon="8.057589751744628"><ele>723.0</ele><time>2026-04-12T09:54:10.999Z</time></trkpt><trkpt lat="44.54453545798102" lon="8.057535343108693"><ele>723.0</ele><time>2026-04-12T09:54:11.999Z</time></trkpt><trkpt lat="44.54448281456852" lon="8.057482396233187"><ele>722.5999999999999</ele><time>2026-04-12T09:54:12.999Z</time></trkpt><trkpt lat="44.544429220328034" lon="8.05742606269931"><ele>722.1999999999999</ele><time>2026-04-12T09:54:13.999Z</time></trkpt><trkpt lat="44.544324622000815" lon="8.057326148634921"><ele>721.8</ele><time>2026-04-12T09:54:15.999Z</time></trkpt><trkpt lat="44.54421573465554" lon="8.057243639896384"><ele>721.4</ele><time>2026-04-12T09:54:17.999Z</time></trkpt><trkpt lat="44.54409818454004" lon="8.0571821822086"><ele>721.0</ele><time>2026-04-12T09:54:19.999Z</time></trkpt><trkpt lat="44.54403104468668" lon="8.057169936063035"><ele>721.0</ele><time>2026-04-12T09:54:20.999Z</time></trkpt><trkpt lat="44.54396262970056" lon="8.057160113225628"><ele>721.0</ele><time>2026-04-12T09:54:21.999Z</time></trkpt><trkpt lat="44.54389898245295" lon="8.057156760657762"><ele>721.0</ele><time>2026-04-12T09:54:22.999Z</time></trkpt><trkpt lat="44.5437784862649" lon="8.057165153524723"><ele>721.0</ele><time>2026-04-12T09:54:24.999Z</time></trkpt><trkpt lat="44.54371095754044" lon="8.057169129569939"><ele>721.0</ele><time>2026-04-12T09:54:25.999Z</time></trkpt><trkpt lat="44.54364491221801" lon="8.057177247995066"><ele>721.0</ele><time>2026-04-12T09:54:26.999Z</time></trkpt><trkpt lat="44.54357564446948" lon="8.057182769953391"><ele>721.0</ele><time>2026-04-12T09:54:27.999Z</time></trkpt><trkpt lat="44.54351019660168" lon="8.057186622862773"><ele>721.0</ele><time>2026-04-12T09:54:28.999Z</time></trkpt><trkpt lat="44.54344277029355" lon="8.057192715529071"><ele>721.0</ele><time>2026-04-12T09:54:29.999Z</time></trkpt><trkpt lat="44.54337786450385" lon="8.057198266149198"><ele>721.0</ele><time>2026-04-12T09:54:30.999Z</time></trkpt><trkpt lat="44.54330788003056" lon="8.057197064828088"><ele>721.0</ele><time>2026-04-12T09:54:31.999Z</time></trkpt><trkpt lat="44.54323263869322" lon="8.057204193692"><ele>721.0</ele><time>2026-04-12T09:54:32.999Z</time></trkpt><trkpt lat="44.54315879153609" lon="8.057201221310661"><ele>721.0</ele><time>2026-04-12T09:54:33.999Z</time></trkpt><trkpt lat="44.54309141177329" lon="8.057190466769718"><ele>721.0</ele><time>2026-04-12T09:54:34.999Z</time></trkpt><trkpt lat="44.542973435043685" lon="8.057159257873899"><ele>721.0</ele><time>2026-04-12T09:54:36.999Z</time></trkpt><trkpt lat="44.54285399451553" lon="8.057124494077575"><ele>721.0</ele><time>2026-04-12T09:54:38.999Z</time></trkpt><trkpt lat="44.54279264308135" lon="8.0570940456128"><ele>721.0</ele><time>2026-04-12T09:54:39.999Z</time></trkpt><trkpt lat="44.54268213433499" lon="8.05703352714224"><ele>721.0</ele><time>2026-04-12T09:54:41.999Z</time></trkpt><trkpt lat="44.542563982782845" lon="8.05696165747592"><ele>722.4</ele><time>2026-04-12T09:54:43.999Z</time></trkpt><trkpt lat="44.542447778022904" lon="8.056899066705359"><ele>723.8</ele><time>2026-04-12T09:54:45.999Z</time></trkpt><trkpt lat="44.542334937065014" lon="8.056813699746463"><ele>725.1999999999999</ele><time>2026-04-12T09:54:47.999Z</time></trkpt><trkpt lat="44.54223362690888" lon="8.05672277638021"><ele>726.5999999999999</ele><time>2026-04-12T09:54:49.999Z</time></trkpt><trkpt lat="44.54218083234546" lon="8.056672013803647"><ele>728.0</ele><time>2026-04-12T09:54:50.999Z</time></trkpt><trkpt lat="44.5421278397113" lon="8.056623039432058"><ele>727.6666666666666</ele><time>2026-04-12T09:54:51.999Z</time></trkpt><trkpt lat="44.54206883637137" lon="8.056569422046957"><ele>727.3333333333333</ele><time>2026-04-12T09:54:52.999Z</time></trkpt><trkpt lat="44.54201499892809" lon="8.056516196343955"><ele>727.0</ele><time>2026-04-12T09:54:53.999Z</time></trkpt><trkpt lat="44.54191618431087" lon="8.056421697089704"><ele>726.6666666666666</ele><time>2026-04-12T09:54:55.999Z</time></trkpt><trkpt lat="44.54185880304968" lon="8.056368844443613"><ele>726.3333333333334</ele><time>2026-04-12T09:54:56.999Z</time></trkpt><trkpt lat="44.541808738817245" lon="8.056310618166886"><ele>726.0</ele><time>2026-04-12T09:54:57.999Z</time></trkpt><trkpt lat="44.54175445330565" lon="8.056254085190625"><ele>726.0</ele><time>2026-04-12T09:54:58.999Z</time></trkpt><trkpt lat="44.54165411835188" lon="8.056136913737976"><ele>726.0</ele><time>2026-04-12T09:55:00.999Z</time></trkpt><trkpt lat="44.541565371612364" lon="8.056019300809893"><ele>726.0</ele><time>2026-04-12T09:55:02.999Z</time></trkpt><trkpt lat="44.541523838124334" lon="8.055948647087957"><ele>726.0</ele><time>2026-04-12T09:55:03.999Z</time></trkpt><trkpt lat="44.54145478025427" lon="8.05580963655495"><ele>726.0</ele><time>2026-04-12T09:55:05.999Z</time></trkpt><trkpt lat="44.54142219478991" lon="8.055730441773381"><ele>726.3333333333334</ele><time>2026-04-12T09:55:06.999Z</time></trkpt><trkpt lat="44.54138684183166" lon="8.055651267517227"><ele>726.6666666666666</ele><time>2026-04-12T09:55:07.999Z</time></trkpt><trkpt lat="44.54135071446733" lon="8.055576907644543"><ele>727.0</ele><time>2026-04-12T09:55:08.999Z</time></trkpt><trkpt lat="44.541316361292274" lon="8.055501849970637"><ele>727.3333333333333</ele><time>2026-04-12T09:55:09.999Z</time></trkpt><trkpt lat="44.541281712418815" lon="8.055421217641502"><ele>727.6666666666666</ele><time>2026-04-12T09:55:10.998Z</time></trkpt><trkpt lat="44.5412446361367" lon="8.055345736052937"><ele>728.0</ele><time>2026-04-12T09:55:11.998Z</time></trkpt><trkpt lat="44.541168309921666" lon="8.055202243611825"><ele>728.0</ele><time>2026-04-12T09:55:13.998Z</time></trkpt><trkpt lat="44.54113037603512" lon="8.055109255811695"><ele>728.0</ele><time>2026-04-12T09:55:14.998Z</time></trkpt><trkpt lat="44.541091254817346" lon="8.055025768732362"><ele>728.0</ele><time>2026-04-12T09:55:15.998Z</time></trkpt><trkpt lat="44.54105152095183" lon="8.054948055665816"><ele>728.0</ele><time>2026-04-12T09:55:16.998Z</time></trkpt><trkpt lat="44.541012329270295" lon="8.054867289664346"><ele>728.0</ele><time>2026-04-12T09:55:17.998Z</time></trkpt><trkpt lat="44.540973970234624" lon="8.054788447037451"><ele>728.0</ele><time>2026-04-12T09:55:19Z</time></trkpt><trkpt lat="44.54090200296863" lon="8.05464289969048"><ele>726.4</ele><time>2026-04-12T09:55:21Z</time></trkpt><trkpt lat="44.540866098486376" lon="8.05456830784666"><ele>724.8</ele><time>2026-04-12T09:55:22Z</time></trkpt><trkpt lat="44.54079998260791" lon="8.054450261011416"><ele>723.2</ele><time>2026-04-12T09:55:24Z</time></trkpt><trkpt lat="44.54070431536929" lon="8.054348919892027"><ele>721.6</ele><time>2026-04-12T09:55:26Z</time></trkpt><trkpt lat="44.540588076108484" lon="8.054275773746813"><ele>720.0</ele><time>2026-04-12T09:55:28Z</time></trkpt><trkpt lat="44.54047738099469" lon="8.054190085425097"><ele>720.8</ele><time>2026-04-12T09:55:30Z</time></trkpt><trkpt lat="44.54036997228678" lon="8.054104103959888"><ele>721.6</ele><time>2026-04-12T09:55:32Z</time></trkpt><trkpt lat="44.540260777751016" lon="8.054061703775284"><ele>722.4000000000001</ele><time>2026-04-12T09:55:34Z</time></trkpt><trkpt lat="44.54016390686846" lon="8.05402343119274"><ele>723.2</ele><time>2026-04-12T09:55:36Z</time></trkpt><trkpt lat="44.54008021227027" lon="8.053959557923752"><ele>724.0</ele><time>2026-04-12T09:55:38Z</time></trkpt><trkpt lat="44.54001059470825" lon="8.053892879720046"><ele>724.0</ele><time>2026-04-12T09:55:40Z</time></trkpt><trkpt lat="44.53994085916727" lon="8.053827194476852"><ele>724.0</ele><time>2026-04-12T09:55:43Z</time></trkpt><trkpt lat="44.53986445662509" lon="8.053862630401394"><ele>724.0</ele><time>2026-04-12T09:55:47Z</time></trkpt><trkpt lat="44.539799973602875" lon="8.053936168242606"><ele>724.0</ele><time>2026-04-12T09:55:50Z</time></trkpt><trkpt lat="44.53974905704089" lon="8.053988771155387"><ele>724.0</ele><time>2026-04-12T09:55:53Z</time></trkpt><trkpt lat="44.53969582121067" lon="8.054067458851323"><ele>724.0</ele><time>2026-04-12T09:55:57Z</time></trkpt><trkpt lat="44.53964999906427" lon="8.05414976573582"><ele>724.8571428571429</ele><time>2026-04-12T09:56:01Z</time></trkpt><trkpt lat="44.53960133006824" lon="8.054217043912047"><ele>725.7142857142857</ele><time>2026-04-12T09:56:04Z</time></trkpt><trkpt lat="44.539525460834625" lon="8.054229452832887"><ele>726.5714285714287</ele><time>2026-04-12T09:56:08Z</time></trkpt><trkpt lat="44.539468151895285" lon="8.05419113412302"><ele>727.4285714285714</ele><time>2026-04-12T09:56:10.999Z</time></trkpt><trkpt lat="44.53939826053825" lon="8.054149797353794"><ele>728.2857142857143</ele><time>2026-04-12T09:56:14.999Z</time></trkpt><trkpt lat="44.539337033437846" lon="8.05409972919012"><ele>729.1428571428572</ele><time>2026-04-12T09:56:18.999Z</time></trkpt><trkpt lat="44.539273913300825" lon="8.054042360863471"><ele>730.0</ele><time>2026-04-12T09:56:23.999Z</time></trkpt><trkpt lat="44.5392096577029" lon="8.054003098945223"><ele>731.3333333333334</ele><time>2026-04-12T09:56:27.999Z</time></trkpt><trkpt lat="44.53914036147657" lon="8.053956872412337"><ele>732.6666666666667</ele><time>2026-04-12T09:56:32.999Z</time></trkpt><trkpt lat="44.539072647913954" lon="8.053902753912588"><ele>734.0</ele><time>2026-04-12T09:56:37.999Z</time></trkpt><trkpt lat="44.5390058302273" lon="8.053847674843492"><ele>735.3333333333334</ele><time>2026-04-12T09:56:41.999Z</time></trkpt><trkpt lat="44.538953927869834" lon="8.053775703936523"><ele>736.6666666666666</ele><time>2026-04-12T09:56:45.999Z</time></trkpt><trkpt lat="44.53891602317071" lon="8.05368720394851"><ele>738.0</ele><time>2026-04-12T09:56:50.999Z</time></trkpt><trkpt lat="44.53886084724588" lon="8.053594479246643"><ele>738.0</ele><time>2026-04-12T09:56:55.999Z</time></trkpt><trkpt lat="44.53882428129997" lon="8.053508737017873"><ele>738.0</ele><time>2026-04-12T09:56:59.999Z</time></trkpt><trkpt lat="44.53875928886136" lon="8.05345933112074"><ele>738.0</ele><time>2026-04-12T09:57:03.999Z</time></trkpt><trkpt lat="44.53870874169024" lon="8.053392203649095"><ele>738.0</ele><time>2026-04-12T09:57:06.999Z</time></trkpt><trkpt lat="44.53865244905777" lon="8.05331901483948"><ele>738.0</ele><time>2026-04-12T09:57:10.999Z</time></trkpt><trkpt lat="44.5385987388768" lon="8.053238509702062"><ele>738.0</ele><time>2026-04-12T09:57:15.999Z</time></trkpt><trkpt lat="44.53854926542286" lon="8.053167829800836"><ele>738.0</ele><time>2026-04-12T09:57:19.999Z</time></trkpt><trkpt lat="44.5384900397752" lon="8.053100607718953"><ele>740.0</ele><time>2026-04-12T09:57:25Z</time></trkpt><trkpt lat="44.53842803101165" lon="8.053041656972384"><ele>742.0</ele><time>2026-04-12T09:57:29Z</time></trkpt><trkpt lat="44.53835319749537" lon="8.052985865274017"><ele>744.0</ele><time>2026-04-12T09:57:34Z</time></trkpt><trkpt lat="44.53827650441063" lon="8.052962073684574"><ele>746.0</ele><time>2026-04-12T09:57:38Z</time></trkpt><trkpt lat="44.53821817451501" lon="8.052919877632155"><ele>748.0</ele><time>2026-04-12T09:57:41Z</time></trkpt><trkpt lat="44.53816060605816" lon="8.052860918770651"><ele>750.0</ele><time>2026-04-12T09:57:43Z</time></trkpt><trkpt lat="44.538118106483445" lon="8.052783542699862"><ele>752.0</ele><time>2026-04-12T09:57:45Z</time></trkpt><trkpt lat="44.538069660119" lon="8.052671815432893"><ele>752.0</ele><time>2026-04-12T09:57:47Z</time></trkpt><trkpt lat="44.53804670157925" lon="8.052536777968875"><ele>752.0</ele><time>2026-04-12T09:57:49Z</time></trkpt><trkpt lat="44.53801654256999" lon="8.052411134257119"><ele>752.0</ele><time>2026-04-12T09:57:51Z</time></trkpt><trkpt lat="44.53798765647463" lon="8.05228373833715"><ele>752.0</ele><time>2026-04-12T09:57:53Z</time></trkpt><trkpt lat="44.537961442648744" lon="8.05214303130247"><ele>752.0</ele><time>2026-04-12T09:57:55Z</time></trkpt><trkpt lat="44.53795474347628" lon="8.052003029265888"><ele>752.4000000000001</ele><time>2026-04-12T09:57:57Z</time></trkpt><trkpt lat="44.53794687617863" lon="8.051908450948655"><ele>752.8000000000001</ele><time>2026-04-12T09:57:58Z</time></trkpt><trkpt lat="44.53796724859011" lon="8.051759738392278"><ele>753.2</ele><time>2026-04-12T09:58:00Z</time></trkpt><trkpt lat="44.53796130328655" lon="8.051553203996443"><ele>753.6</ele><time>2026-04-12T09:58:02Z</time></trkpt><trkpt lat="44.5379678579938" lon="8.051388366911"><ele>754.0</ele><time>2026-04-12T09:58:04Z</time></trkpt><trkpt lat="44.53795422723424" lon="8.051218948338372"><ele>755.0</ele><time>2026-04-12T09:58:06Z</time></trkpt><trkpt lat="44.53792752107042" lon="8.051057037592408"><ele>756.0</ele><time>2026-04-12T09:58:08Z</time></trkpt><trkpt lat="44.53791235227105" lon="8.050881520313924"><ele>757.0</ele><time>2026-04-12T09:58:10Z</time></trkpt><trkpt lat="44.537917016653935" lon="8.050715177523223"><ele>758.0</ele><time>2026-04-12T09:58:12Z</time></trkpt><trkpt lat="44.53792170511456" lon="8.050594037190448"><ele>758.0</ele><time>2026-04-12T09:58:14Z</time></trkpt><trkpt lat="44.53791666959112" lon="8.05050417160171"><ele>758.0</ele><time>2026-04-12T09:58:15Z</time></trkpt><trkpt lat="44.537891159176546" lon="8.050350198397387"><ele>758.0</ele><time>2026-04-12T09:58:16.999Z</time></trkpt><trkpt lat="44.53786063030355" lon="8.050218780855596"><ele>758.0</ele><time>2026-04-12T09:58:18.999Z</time></trkpt><trkpt lat="44.537810890746584" lon="8.050114622642045"><ele>758.0</ele><time>2026-04-12T09:58:20.999Z</time></trkpt><trkpt lat="44.53775221884896" lon="8.050027950122288"><ele>753.1666666666666</ele><time>2026-04-12T09:58:22.999Z</time></trkpt><trkpt lat="44.537698121422196" lon="8.049966915149012"><ele>748.3333333333333</ele><time>2026-04-12T09:58:24.999Z</time></trkpt><trkpt lat="44.537621243532875" lon="8.04989343358082"><ele>743.5</ele><time>2026-04-12T09:58:26.999Z</time></trkpt><trkpt lat="44.53753277427772" lon="8.049822369709032"><ele>738.6666666666666</ele><time>2026-04-12T09:58:28.999Z</time></trkpt><trkpt lat="44.53746497090303" lon="8.049765898278737"><ele>733.8333333333334</ele><time>2026-04-12T09:58:30.999Z</time></trkpt><trkpt lat="44.537415432649645" lon="8.049702434687768"><ele>729.0</ele><time>2026-04-12T09:58:32.999Z</time></trkpt><trkpt lat="44.53736716779656" lon="8.049641773905762"><ele>729.0</ele><time>2026-04-12T09:58:34.999Z</time></trkpt><trkpt lat="44.53731102194333" lon="8.049555635985627"><ele>729.0</ele><time>2026-04-12T09:58:36.999Z</time></trkpt><trkpt lat="44.537289025929574" lon="8.049462406484018"><ele>729.0</ele><time>2026-04-12T09:58:38.999Z</time></trkpt><trkpt lat="44.5372873487202" lon="8.049373878064246"><ele>729.0</ele><time>2026-04-12T09:58:40.999Z</time></trkpt><trkpt lat="44.53731086109535" lon="8.049272350150833"><ele>729.0</ele><time>2026-04-12T09:58:42.999Z</time></trkpt><trkpt lat="44.537330635350585" lon="8.049110682327905"><ele>729.0</ele><time>2026-04-12T09:58:44.999Z</time></trkpt><trkpt lat="44.53734034392233" lon="8.048956543424275"><ele>727.1666666666666</ele><time>2026-04-12T09:58:45.999Z</time></trkpt><trkpt lat="44.53735555808218" lon="8.048831348926132"><ele>725.3333333333334</ele><time>2026-04-12T09:58:46.999Z</time></trkpt><trkpt lat="44.537374862252456" lon="8.04871643255482"><ele>723.5</ele><time>2026-04-12T09:58:47.999Z</time></trkpt><trkpt lat="44.53739970945747" lon="8.048602291511273"><ele>721.6666666666667</ele><time>2026-04-12T09:58:48.999Z</time></trkpt><trkpt lat="44.53742723191496" lon="8.048482664753315"><ele>719.8333333333334</ele><time>2026-04-12T09:58:49.999Z</time></trkpt><trkpt lat="44.537468969907195" lon="8.04836986376326"><ele>718.0</ele><time>2026-04-12T09:58:50.999Z</time></trkpt><trkpt lat="44.53750819873496" lon="8.048253236017501"><ele>715.5999999999999</ele><time>2026-04-12T09:58:51.999Z</time></trkpt><trkpt lat="44.53755799872006" lon="8.048143325579638"><ele>713.1999999999999</ele><time>2026-04-12T09:58:52.999Z</time></trkpt><trkpt lat="44.537605399399126" lon="8.048027897547469"><ele>710.8</ele><time>2026-04-12T09:58:53.999Z</time></trkpt><trkpt lat="44.537656409137625" lon="8.047906421285523"><ele>708.4</ele><time>2026-04-12T09:58:54.999Z</time></trkpt><trkpt lat="44.53772548671195" lon="8.047801705816426"><ele>706.0</ele><time>2026-04-12T09:58:55.999Z</time></trkpt><trkpt lat="44.53780167195078" lon="8.047715125107349"><ele>706.0</ele><time>2026-04-12T09:58:56.999Z</time></trkpt><trkpt lat="44.53788123923526" lon="8.047625868053256"><ele>706.0</ele><time>2026-04-12T09:58:57.999Z</time></trkpt><trkpt lat="44.537958478655625" lon="8.047541275382065"><ele>706.0</ele><time>2026-04-12T09:58:58.999Z</time></trkpt><trkpt lat="44.53802603367772" lon="8.047459518042933"><ele>706.0</ele><time>2026-04-12T09:58:59.999Z</time></trkpt><trkpt lat="44.53809671689889" lon="8.047369232709052"><ele>706.0</ele><time>2026-04-12T09:59:00.999Z</time></trkpt><trkpt lat="44.53815621367504" lon="8.047283730581471"><ele>706.5714285714286</ele><time>2026-04-12T09:59:01.999Z</time></trkpt><trkpt lat="44.53819410029007" lon="8.04718193213738"><ele>707.1428571428572</ele><time>2026-04-12T09:59:02.999Z</time></trkpt><trkpt lat="44.538229402565854" lon="8.047091560192245"><ele>707.7142857142858</ele><time>2026-04-12T09:59:03.999Z</time></trkpt><trkpt lat="44.53826313866343" lon="8.046996686204746"><ele>708.2857142857142</ele><time>2026-04-12T09:59:04.999Z</time></trkpt><trkpt lat="44.53828949989277" lon="8.046902805911397"><ele>708.8571428571429</ele><time>2026-04-12T09:59:05.999Z</time></trkpt><trkpt lat="44.538308706767815" lon="8.046806475232453"><ele>709.4285714285714</ele><time>2026-04-12T09:59:06.999Z</time></trkpt><trkpt lat="44.53831223771758" lon="8.046702322350153"><ele>710.0</ele><time>2026-04-12T09:59:07.999Z</time></trkpt><trkpt lat="44.53831030757421" lon="8.046579540206663"><ele>710.0</ele><time>2026-04-12T09:59:08.999Z</time></trkpt><trkpt lat="44.538320654746" lon="8.046470567393811"><ele>710.0</ele><time>2026-04-12T09:59:09.999Z</time></trkpt><trkpt lat="44.53832867746986" lon="8.046369035441941"><ele>710.0</ele><time>2026-04-12T09:59:10.999Z</time></trkpt><trkpt lat="44.53832971510902" lon="8.046279697794747"><ele>710.0</ele><time>2026-04-12T09:59:11.999Z</time></trkpt><trkpt lat="44.53834500207362" lon="8.046137722203957"><ele>710.0</ele><time>2026-04-12T09:59:13.999Z</time></trkpt><trkpt lat="44.53831191729361" lon="8.046024258480218"><ele>710.0</ele><time>2026-04-12T09:59:15.999Z</time></trkpt><trkpt lat="44.53824988814717" lon="8.045923734686445"><ele>710.0</ele><time>2026-04-12T09:59:17.999Z</time></trkpt><trkpt lat="44.53816378226672" lon="8.045856137013574"><ele>710.0</ele><time>2026-04-12T09:59:19.999Z</time></trkpt><trkpt lat="44.538083037567866" lon="8.045797328366358"><ele>710.0</ele><time>2026-04-12T09:59:21.999Z</time></trkpt><trkpt lat="44.53799885834002" lon="8.045735096862026"><ele>710.0</ele><time>2026-04-12T09:59:23.999Z</time></trkpt><trkpt lat="44.53791040968084" lon="8.045676127415545"><ele>710.0</ele><time>2026-04-12T09:59:25.999Z</time></trkpt><trkpt lat="44.53782173815993" lon="8.04561728871758"><ele>709.8</ele><time>2026-04-12T09:59:27.998Z</time></trkpt><trkpt lat="44.53773644900405" lon="8.045553922047638"><ele>709.6</ele><time>2026-04-12T09:59:29.998Z</time></trkpt><trkpt lat="44.537650995302585" lon="8.045488840713963"><ele>709.4000000000001</ele><time>2026-04-12T09:59:32Z</time></trkpt><trkpt lat="44.53756583650773" lon="8.045438062169747"><ele>709.2</ele><time>2026-04-12T09:59:34Z</time></trkpt><trkpt lat="44.53748214188563" lon="8.045384803191054"><ele>709.0</ele><time>2026-04-12T09:59:36Z</time></trkpt><trkpt lat="44.53739868497307" lon="8.045323501021809"><ele>709.0</ele><time>2026-04-12T09:59:38Z</time></trkpt><trkpt lat="44.53730415201385" lon="8.045270800877955"><ele>709.0</ele><time>2026-04-12T09:59:40Z</time></trkpt><trkpt lat="44.53721389236387" lon="8.045221042581911"><ele>709.0</ele><time>2026-04-12T09:59:42Z</time></trkpt><trkpt lat="44.537117930907876" lon="8.045189609964297"><ele>709.0</ele><time>2026-04-12T09:59:44Z</time></trkpt><trkpt lat="44.53702561929279" lon="8.045157388604734"><ele>709.0</ele><time>2026-04-12T09:59:46Z</time></trkpt><trkpt lat="44.53693012066725" lon="8.045137459412008"><ele>710.4000000000001</ele><time>2026-04-12T09:59:48Z</time></trkpt><trkpt lat="44.53683379934656" lon="8.04513862346257"><ele>711.8</ele><time>2026-04-12T09:59:50Z</time></trkpt><trkpt lat="44.53673390117841" lon="8.045141120209818"><ele>713.2</ele><time>2026-04-12T09:59:52Z</time></trkpt><trkpt lat="44.53663898721121" lon="8.045147272526837"><ele>714.5999999999999</ele><time>2026-04-12T09:59:54Z</time></trkpt><trkpt lat="44.536543948970035" lon="8.045151562547604"><ele>716.0</ele><time>2026-04-12T09:59:56Z</time></trkpt><trkpt lat="44.53645719901261" lon="8.045157136047628"><ele>716.0</ele><time>2026-04-12T09:59:58Z</time></trkpt><trkpt lat="44.536358332992606" lon="8.045146889951559"><ele>716.0</ele><time>2026-04-12T10:00:00Z</time></trkpt><trkpt lat="44.536265340187676" lon="8.045148285987406"><ele>716.0</ele><time>2026-04-12T10:00:02Z</time></trkpt><trkpt lat="44.53617481350544" lon="8.045128915098719"><ele>716.0</ele><time>2026-04-12T10:00:04Z</time></trkpt><trkpt lat="44.53608457134295" lon="8.0451387235353"><ele>716.0</ele><time>2026-04-12T10:00:06Z</time></trkpt><trkpt lat="44.535996199286096" lon="8.045156833643992"><ele>717.6666666666666</ele><time>2026-04-12T10:00:08Z</time></trkpt><trkpt lat="44.53590768221611" lon="8.045143132755227"><ele>719.3333333333333</ele><time>2026-04-12T10:00:10Z</time></trkpt><trkpt lat="44.53582407446417" lon="8.045142488633447"><ele>721.0</ele><time>2026-04-12T10:00:12Z</time></trkpt><trkpt lat="44.535737098839135" lon="8.045160235360552"><ele>722.6666666666666</ele><time>2026-04-12T10:00:14Z</time></trkpt><trkpt lat="44.53564685112932" lon="8.04516991754575"><ele>724.3333333333334</ele><time>2026-04-12T10:00:16Z</time></trkpt><trkpt lat="44.53556631843895" lon="8.045186700021226"><ele>726.0</ele><time>2026-04-12T10:00:18Z</time></trkpt><trkpt lat="44.53548131361903" lon="8.045221986497118"><ele>726.0</ele><time>2026-04-12T10:00:20Z</time></trkpt><trkpt lat="44.53539731194483" lon="8.045270765244545"><ele>726.0</ele><time>2026-04-12T10:00:21.999Z</time></trkpt><trkpt lat="44.5353143514927" lon="8.045318931058949"><ele>726.0</ele><time>2026-04-12T10:00:23.999Z</time></trkpt><trkpt lat="44.53523074840516" lon="8.04535878600356"><ele>726.0</ele><time>2026-04-12T10:00:25.999Z</time></trkpt><trkpt lat="44.535155732367926" lon="8.045391427210847"><ele>726.0</ele><time>2026-04-12T10:00:27.999Z</time></trkpt><trkpt lat="44.535078949459326" lon="8.045429790378098"><ele>726.0</ele><time>2026-04-12T10:00:29.999Z</time></trkpt><trkpt lat="44.53501748005393" lon="8.0454580193604"><ele>727.8333333333334</ele><time>2026-04-12T10:00:31.999Z</time></trkpt><trkpt lat="44.5349417083861" lon="8.045500922290714"><ele>729.6666666666666</ele><time>2026-04-12T10:00:33.999Z</time></trkpt><trkpt lat="44.5348692592728" lon="8.04552979375391"><ele>731.5</ele><time>2026-04-12T10:00:35.999Z</time></trkpt><trkpt lat="44.53476637229319" lon="8.04556500924255"><ele>733.3333333333333</ele><time>2026-04-12T10:00:37.999Z</time></trkpt><trkpt lat="44.53470539573903" lon="8.04560870026485"><ele>735.1666666666666</ele><time>2026-04-12T10:00:39.999Z</time></trkpt><trkpt lat="44.53461998636533" lon="8.045662472647418"><ele>737.0</ele><time>2026-04-12T10:00:41.999Z</time></trkpt><trkpt lat="44.534533229464074" lon="8.045708563887723"><ele>738.1666666666666</ele><time>2026-04-12T10:00:43.999Z</time></trkpt><trkpt lat="44.53446638286308" lon="8.045728050823211"><ele>739.3333333333333</ele><time>2026-04-12T10:00:45.999Z</time></trkpt><trkpt lat="44.534399700280716" lon="8.045758638591183"><ele>740.5</ele><time>2026-04-12T10:00:47.999Z</time></trkpt><trkpt lat="44.53432466503565" lon="8.045803601456267"><ele>741.6666666666666</ele><time>2026-04-12T10:00:49.999Z</time></trkpt><trkpt lat="44.53422824913987" lon="8.045861202323847"><ele>742.8333333333334</ele><time>2026-04-12T10:00:51.999Z</time></trkpt><trkpt lat="44.534130596914395" lon="8.045884634424203"><ele>744.0</ele><time>2026-04-12T10:00:53.999Z</time></trkpt><trkpt lat="44.534045013297174" lon="8.045929546896025"><ele>742.8333333333334</ele><time>2026-04-12T10:00:55.999Z</time></trkpt><trkpt lat="44.53397300955971" lon="8.045970276199498"><ele>741.6666666666666</ele><time>2026-04-12T10:00:57.999Z</time></trkpt><trkpt lat="44.53388816355583" lon="8.046009794521055"><ele>740.5</ele><time>2026-04-12T10:00:59.999Z</time></trkpt><trkpt lat="44.533803116848546" lon="8.046050697482618"><ele>739.3333333333333</ele><time>2026-04-12T10:01:01.999Z</time></trkpt><trkpt lat="44.533739587250906" lon="8.04608873930978"><ele>738.1666666666666</ele><time>2026-04-12T10:01:03.999Z</time></trkpt><trkpt lat="44.53367520169425" lon="8.04612902786271"><ele>737.0</ele><time>2026-04-12T10:01:05.999Z</time></trkpt><trkpt lat="44.53360451378452" lon="8.046132450357112"><ele>737.0000000000001</ele><time>2026-04-12T10:01:07.999Z</time></trkpt><trkpt lat="44.53352801253621" lon="8.046121083601854"><ele>737.0</ele><time>2026-04-12T10:01:09.999Z</time></trkpt><trkpt lat="44.533447657414165" lon="8.04611089053283"><ele>737.0</ele><time>2026-04-12T10:01:11.999Z</time></trkpt><trkpt lat="44.533361737674035" lon="8.046126427510922"><ele>737.0</ele><time>2026-04-12T10:01:14.999Z</time></trkpt><trkpt lat="44.53329927164412" lon="8.046161572189563"><ele>737.0</ele><time>2026-04-12T10:01:17.999Z</time></trkpt><trkpt lat="44.53323501753425" lon="8.04619767480463"><ele>737.0000000000001</ele><time>2026-04-12T10:01:22.999Z</time></trkpt><trkpt lat="44.533169295005905" lon="8.046223803205626"><ele>737.0</ele><time>2026-04-12T10:01:25.999Z</time></trkpt><trkpt lat="44.533089922661595" lon="8.046253427583222"><ele>737.0000000000001</ele><time>2026-04-12T10:01:28.999Z</time></trkpt><trkpt lat="44.53302209324318" lon="8.046282380144909"><ele>737.0</ele><time>2026-04-12T10:01:31.999Z</time></trkpt><trkpt lat="44.53295766246092" lon="8.046303617776536"><ele>737.0</ele><time>2026-04-12T10:01:34.998Z</time></trkpt><trkpt lat="44.53289422752852" lon="8.04633269978811"><ele>737.0</ele><time>2026-04-12T10:01:38Z</time></trkpt><trkpt lat="44.53283097626461" lon="8.046339383858422"><ele>737.0</ele><time>2026-04-12T10:01:43Z</time></trkpt><trkpt lat="44.53278196583528" lon="8.046281738594116"><ele>737.0000000000001</ele><time>2026-04-12T10:01:46Z</time></trkpt><trkpt lat="44.53282765852825" lon="8.046169472615246"><ele>737.0</ele><time>2026-04-12T10:01:50Z</time></trkpt><trkpt lat="44.53287035292505" lon="8.046101849377802"><ele>737.0000000000001</ele><time>2026-04-12T10:01:54Z</time></trkpt><trkpt lat="44.53291310522514" lon="8.04603221914215"><ele>737.0</ele><time>2026-04-12T10:01:58Z</time></trkpt><trkpt lat="44.532970049999925" lon="8.045961960830681"><ele>737.0</ele><time>2026-04-12T10:02:01Z</time></trkpt><trkpt lat="44.533026395637734" lon="8.04589959969748"><ele>737.0</ele><time>2026-04-12T10:02:04Z</time></trkpt><trkpt lat="44.53310065968649" lon="8.045836188793842"><ele>737.0</ele><time>2026-04-12T10:02:07Z</time></trkpt><trkpt lat="44.533154102322555" lon="8.045779257968343"><ele>737.0000000000001</ele><time>2026-04-12T10:02:10Z</time></trkpt><trkpt lat="44.533209790881514" lon="8.045725875801873"><ele>737.0</ele><time>2026-04-12T10:02:13Z</time></trkpt><trkpt lat="44.53327767019522" lon="8.045651563401439"><ele>736.8333333333333</ele><time>2026-04-12T10:02:16Z</time></trkpt><trkpt lat="44.53333983640597" lon="8.045595081971163"><ele>736.6666666666666</ele><time>2026-04-12T10:02:19Z</time></trkpt><trkpt lat="44.53339287192616" lon="8.045537312691012"><ele>736.5</ele><time>2026-04-12T10:02:22Z</time></trkpt><trkpt lat="44.53345308684878" lon="8.045473652788484"><ele>736.3333333333334</ele><time>2026-04-12T10:02:25Z</time></trkpt><trkpt lat="44.533517165756415" lon="8.045398264262596"><ele>736.1666666666667</ele><time>2026-04-12T10:02:28Z</time></trkpt><trkpt lat="44.53358033980517" lon="8.045335128546805"><ele>736.0</ele><time>2026-04-12T10:02:30.999Z</time></trkpt><trkpt lat="44.53364942073555" lon="8.045282308389595"><ele>736.0</ele><time>2026-04-12T10:02:33.999Z</time></trkpt><trkpt lat="44.533706977670114" lon="8.045216832192235"><ele>736.0</ele><time>2026-04-12T10:02:36.999Z</time></trkpt><trkpt lat="44.53376905216695" lon="8.045145283464528"><ele>736.0</ele><time>2026-04-12T10:02:40.999Z</time></trkpt><trkpt lat="44.53382778233762" lon="8.04507075583782"><ele>736.0</ele><time>2026-04-12T10:02:43.999Z</time></trkpt><trkpt lat="44.53387532070862" lon="8.044998889183773"><ele>736.0</ele><time>2026-04-12T10:02:46.999Z</time></trkpt><trkpt lat="44.533937828649734" lon="8.044934050525153"><ele>736.0</ele><time>2026-04-12T10:02:48.999Z</time></trkpt><trkpt lat="44.53399019044223" lon="8.044859641773717"><ele>737.8333333333334</ele><time>2026-04-12T10:02:50.999Z</time></trkpt><trkpt lat="44.534029999000964" lon="8.044748170668509"><ele>739.6666666666667</ele><time>2026-04-12T10:02:52.999Z</time></trkpt><trkpt lat="44.53406486591678" lon="8.044647567644935"><ele>741.5</ele><time>2026-04-12T10:02:54.999Z</time></trkpt><trkpt lat="44.53411641071376" lon="8.044552560845988"><ele>743.3333333333334</ele><time>2026-04-12T10:02:56.999Z</time></trkpt><trkpt lat="44.53416051832987" lon="8.044461582245333"><ele>745.1666666666666</ele><time>2026-04-12T10:02:58.999Z</time></trkpt><trkpt lat="44.534206471433755" lon="8.04434520197436"><ele>747.0</ele><time>2026-04-12T10:03:00.999Z</time></trkpt><trkpt lat="44.53425526358566" lon="8.044210367327516"><ele>745.3333333333334</ele><time>2026-04-12T10:03:02.999Z</time></trkpt><trkpt lat="44.53428869269867" lon="8.044102283029378"><ele>743.6666666666667</ele><time>2026-04-12T10:03:04.999Z</time></trkpt><trkpt lat="44.53441045038719" lon="8.043732164097788"><ele>742.0</ele><time>2026-04-12T10:03:11.999Z</time></trkpt><trkpt lat="44.53443871899538" lon="8.04357633899671"><ele>742.0</ele><time>2026-04-12T10:03:13.999Z</time></trkpt><trkpt lat="44.53445207569817" lon="8.043425556720756"><ele>742.0</ele><time>2026-04-12T10:03:15.999Z</time></trkpt><trkpt lat="44.534471655010115" lon="8.04326820655962"><ele>742.0</ele><time>2026-04-12T10:03:17.999Z</time></trkpt><trkpt lat="44.534497043553266" lon="8.043110067840589"><ele>742.0</ele><time>2026-04-12T10:03:19.999Z</time></trkpt><trkpt lat="44.53452053099977" lon="8.042956522276477"><ele>742.1666666666667</ele><time>2026-04-12T10:03:21.999Z</time></trkpt><trkpt lat="44.53455294630529" lon="8.04282362844078"><ele>742.3333333333334</ele><time>2026-04-12T10:03:23.999Z</time></trkpt><trkpt lat="44.53459065309407" lon="8.042714242536844"><ele>742.5</ele><time>2026-04-12T10:03:25.999Z</time></trkpt><trkpt lat="44.53462561020452" lon="8.04262055912836"><ele>742.6666666666666</ele><time>2026-04-12T10:03:27.999Z</time></trkpt><trkpt lat="44.534656860707805" lon="8.042513349408614"><ele>742.8333333333333</ele><time>2026-04-12T10:03:31.999Z</time></trkpt><trkpt lat="44.534681398340325" lon="8.0424298687326"><ele>743.0</ele><time>2026-04-12T10:03:35.999Z</time></trkpt><trkpt lat="44.53474046360506" lon="8.042340655590781"><ele>743.8</ele><time>2026-04-12T10:03:39.998Z</time></trkpt><trkpt lat="44.53480109331717" lon="8.042235022223661"><ele>744.5999999999999</ele><time>2026-04-12T10:03:43Z</time></trkpt><trkpt lat="44.534854107782365" lon="8.042110418058385"><ele>745.4000000000001</ele><time>2026-04-12T10:03:45Z</time></trkpt><trkpt lat="44.534903880132525" lon="8.04198201843924"><ele>746.2</ele><time>2026-04-12T10:03:47Z</time></trkpt><trkpt lat="44.53499089785598" lon="8.041840910790503"><ele>747.0</ele><time>2026-04-12T10:03:49Z</time></trkpt><trkpt lat="44.53500957700603" lon="8.041754772441417"><ele>747.0</ele><time>2026-04-12T10:03:50Z</time></trkpt><trkpt lat="44.53502248550853" lon="8.041641585589007"><ele>747.0</ele><time>2026-04-12T10:03:51Z</time></trkpt><trkpt lat="44.53505412390619" lon="8.041532818442167"><ele>747.0</ele><time>2026-04-12T10:03:52Z</time></trkpt><trkpt lat="44.53510490477661" lon="8.041422202441042"><ele>747.0</ele><time>2026-04-12T10:03:53Z</time></trkpt><trkpt lat="44.5351497405617" lon="8.041305861085567"><ele>747.0</ele><time>2026-04-12T10:03:54Z</time></trkpt><trkpt lat="44.53520067366771" lon="8.041194430353256"><ele>747.0</ele><time>2026-04-12T10:03:55Z</time></trkpt><trkpt lat="44.53527075527331" lon="8.04109185028288"><ele>745.8</ele><time>2026-04-12T10:03:56Z</time></trkpt><trkpt lat="44.53535431673987" lon="8.041007813005555"><ele>744.6</ele><time>2026-04-12T10:03:57Z</time></trkpt><trkpt lat="44.53544563971712" lon="8.040921064442049"><ele>743.4</ele><time>2026-04-12T10:03:58Z</time></trkpt><trkpt lat="44.53552396428295" lon="8.04083546496806"><ele>742.1999999999999</ele><time>2026-04-12T10:03:59Z</time></trkpt><trkpt lat="44.5356042754542" lon="8.040752289397144"><ele>741.0</ele><time>2026-04-12T10:04:00Z</time></trkpt><trkpt lat="44.53569382425843" lon="8.04063791224468"><ele>737.75</ele><time>2026-04-12T10:04:01Z</time></trkpt><trkpt lat="44.535772634579814" lon="8.04052524540364"><ele>734.5</ele><time>2026-04-12T10:04:02Z</time></trkpt><trkpt lat="44.535856453576535" lon="8.040402234156511"><ele>731.25</ele><time>2026-04-12T10:04:03Z</time></trkpt><trkpt lat="44.535938503287895" lon="8.040252249537367"><ele>728.0</ele><time>2026-04-12T10:04:04Z</time></trkpt><trkpt lat="44.53601573947797" lon="8.040091425312824"><ele>726.0</ele><time>2026-04-12T10:04:05Z</time></trkpt><trkpt lat="44.536086915135876" lon="8.039925217916762"><ele>724.0</ele><time>2026-04-12T10:04:06Z</time></trkpt><trkpt lat="44.53615412161728" lon="8.039787551607464"><ele>722.0</ele><time>2026-04-12T10:04:07Z</time></trkpt><trkpt lat="44.536242534581554" lon="8.039641928941785"><ele>720.0</ele><time>2026-04-12T10:04:08Z</time></trkpt><trkpt lat="44.536352996521956" lon="8.039535596827763"><ele>720.0</ele><time>2026-04-12T10:04:09Z</time></trkpt><trkpt lat="44.536450987851445" lon="8.039442064007932"><ele>720.0</ele><time>2026-04-12T10:04:10Z</time></trkpt><trkpt lat="44.536548854864236" lon="8.039315974905652"><ele>720.0</ele><time>2026-04-12T10:04:11Z</time></trkpt><trkpt lat="44.53663368819202" lon="8.039226676794385"><ele>720.0</ele><time>2026-04-12T10:04:12Z</time></trkpt><trkpt lat="44.536717145698695" lon="8.03915897581788"><ele>720.0</ele><time>2026-04-12T10:04:13Z</time></trkpt><trkpt lat="44.53681059757858" lon="8.039101328944728"><ele>720.0</ele><time>2026-04-12T10:04:14Z</time></trkpt><trkpt lat="44.5369070667773" lon="8.039029938568095"><ele>720.0</ele><time>2026-04-12T10:04:15Z</time></trkpt><trkpt lat="44.53698993710032" lon="8.038945556960687"><ele>720.0</ele><time>2026-04-12T10:04:16Z</time></trkpt><trkpt lat="44.53706450263633" lon="8.038864279515577"><ele>720.0</ele><time>2026-04-12T10:04:17Z</time></trkpt><trkpt lat="44.53712419091618" lon="8.038786710761595"><ele>720.0</ele><time>2026-04-12T10:04:18Z</time></trkpt><trkpt lat="44.53717312930054" lon="8.038723694482856"><ele>720.0</ele><time>2026-04-12T10:04:19Z</time></trkpt><trkpt lat="44.53720426228577" lon="8.038640380205749"><ele>720.0</ele><time>2026-04-12T10:04:20Z</time></trkpt><trkpt lat="44.53722185797893" lon="8.038490328898684"><ele>720.0</ele><time>2026-04-12T10:04:22Z</time></trkpt><trkpt lat="44.53722114868881" lon="8.03838467064868"><ele>720.0</ele><time>2026-04-12T10:04:24Z</time></trkpt><trkpt lat="44.53729238549936" lon="8.038322644123728"><ele>720.0</ele><time>2026-04-12T10:04:26Z</time></trkpt><trkpt lat="44.53737949079583" lon="8.038281101441772"><ele>720.0</ele><time>2026-04-12T10:04:28Z</time></trkpt><trkpt lat="44.53747006352151" lon="8.038313054196454"><ele>720.0</ele><time>2026-04-12T10:04:30Z</time></trkpt><trkpt lat="44.53755445640209" lon="8.038309064562174"><ele>720.0</ele><time>2026-04-12T10:04:32Z</time></trkpt><trkpt lat="44.537627964207736" lon="8.038279255434938"><ele>720.0</ele><time>2026-04-12T10:04:34.999Z</time></trkpt><trkpt lat="44.537702153039675" lon="8.038284964618295"><ele>720.0</ele><time>2026-04-12T10:04:39.999Z</time></trkpt><trkpt lat="44.53778468969247" lon="8.038276814430793"><ele>720.0</ele><time>2026-04-12T10:04:42.999Z</time></trkpt><trkpt lat="44.5378655996644" lon="8.038291209687591"><ele>719.5</ele><time>2026-04-12T10:04:45.999Z</time></trkpt><trkpt lat="44.537939523629355" lon="8.038298984628733"><ele>719.0</ele><time>2026-04-12T10:04:47.999Z</time></trkpt><trkpt lat="44.53804489459519" lon="8.038328096586794"><ele>718.5</ele><time>2026-04-12T10:04:50.999Z</time></trkpt><trkpt lat="44.538118926428126" lon="8.038373652149964"><ele>718.0</ele><time>2026-04-12T10:04:53.999Z</time></trkpt><trkpt lat="44.538182072759234" lon="8.038409983771365"><ele>717.5</ele><time>2026-04-12T10:04:55.999Z</time></trkpt><trkpt lat="44.53826946500656" lon="8.038457309941963"><ele>717.0</ele><time>2026-04-12T10:04:58.999Z</time></trkpt><trkpt lat="44.53833181342104" lon="8.038475787158637"><ele>717.0</ele><time>2026-04-12T10:05:00.999Z</time></trkpt><trkpt lat="44.538412815243376" lon="8.038488737314644"><ele>717.0</ele><time>2026-04-12T10:05:03.999Z</time></trkpt><trkpt lat="44.53848047596159" lon="8.038467525200687"><ele>717.0</ele><time>2026-04-12T10:05:05.999Z</time></trkpt><trkpt lat="44.53855235931375" lon="8.038440589925315"><ele>717.0</ele><time>2026-04-12T10:05:07.999Z</time></trkpt><trkpt lat="44.53860706682122" lon="8.03839165497521"><ele>717.0</ele><time>2026-04-12T10:05:09.999Z</time></trkpt><trkpt lat="44.538664243174594" lon="8.038318529226823"><ele>717.0</ele><time>2026-04-12T10:05:11.999Z</time></trkpt><trkpt lat="44.53873091991681" lon="8.038296852703647"><ele>717.0</ele><time>2026-04-12T10:05:13.999Z</time></trkpt><trkpt lat="44.5387804472704" lon="8.03823913163365"><ele>717.0</ele><time>2026-04-12T10:05:16.999Z</time></trkpt><trkpt lat="44.53882672642412" lon="8.038148735185196"><ele>717.0</ele><time>2026-04-12T10:05:18.999Z</time></trkpt><trkpt lat="44.53885464936079" lon="8.038051559931597"><ele>717.0</ele><time>2026-04-12T10:05:20.999Z</time></trkpt><trkpt lat="44.53893100299662" lon="8.037948889507472"><ele>717.0</ele><time>2026-04-12T10:05:22.999Z</time></trkpt><trkpt lat="44.53897200796201" lon="8.037840726977484"><ele>717.0</ele><time>2026-04-12T10:05:24.999Z</time></trkpt><trkpt lat="44.53901315558772" lon="8.037758312967151"><ele>717.0</ele><time>2026-04-12T10:05:25.999Z</time></trkpt><trkpt lat="44.539078700900795" lon="8.037613915207759"><ele>717.0</ele><time>2026-04-12T10:05:27.999Z</time></trkpt><trkpt lat="44.539141534398915" lon="8.03753513387509"><ele>717.0</ele><time>2026-04-12T10:05:28.999Z</time></trkpt><trkpt lat="44.53918028631085" lon="8.037413164193783"><ele>717.0</ele><time>2026-04-12T10:05:30.999Z</time></trkpt><trkpt lat="44.539240048887166" lon="8.037333504413972"><ele>717.0</ele><time>2026-04-12T10:05:32.999Z</time></trkpt><trkpt lat="44.53927548989281" lon="8.037219863981877"><ele>717.0</ele><time>2026-04-12T10:05:36.999Z</time></trkpt><trkpt lat="44.539326199406595" lon="8.037107118437566"><ele>717.0</ele><time>2026-04-12T10:05:39.999Z</time></trkpt><trkpt lat="44.53938389374426" lon="8.037014363354107"><ele>715.4000000000001</ele><time>2026-04-12T10:05:41.999Z</time></trkpt><trkpt lat="44.53943463542974" lon="8.036889462442023"><ele>713.8000000000001</ele><time>2026-04-12T10:05:43.999Z</time></trkpt><trkpt lat="44.53940794822312" lon="8.036748585019659"><ele>712.2</ele><time>2026-04-12T10:05:45.998Z</time></trkpt><trkpt lat="44.5394468692107" lon="8.03663446708315"><ele>710.6</ele><time>2026-04-12T10:05:47.998Z</time></trkpt><trkpt lat="44.53951042016198" lon="8.036507451343384"><ele>709.0</ele><time>2026-04-12T10:05:50Z</time></trkpt><trkpt lat="44.53955664288514" lon="8.03644301349703"><ele>709.0</ele><time>2026-04-12T10:05:52Z</time></trkpt><trkpt lat="44.53959677291091" lon="8.036328246580577"><ele>709.0</ele><time>2026-04-12T10:05:54Z</time></trkpt><trkpt lat="44.539625561973246" lon="8.036213575310358"><ele>709.0</ele><time>2026-04-12T10:05:56Z</time></trkpt><trkpt lat="44.53970173708649" lon="8.03607637704258"><ele>709.0</ele><time>2026-04-12T10:05:58Z</time></trkpt><trkpt lat="44.53976982197182" lon="8.035938018045677"><ele>709.0</ele><time>2026-04-12T10:06:00Z</time></trkpt><trkpt lat="44.539836490922006" lon="8.035855904830632"><ele>709.0000000000001</ele><time>2026-04-12T10:06:02Z</time></trkpt><trkpt lat="44.539905267203544" lon="8.035814501008447"><ele>709.0</ele><time>2026-04-12T10:06:05Z</time></trkpt><trkpt lat="44.53998265194809" lon="8.035809552951868"><ele>709.0</ele><time>2026-04-12T10:06:09Z</time></trkpt><trkpt lat="44.540051364374946" lon="8.035806089506195"><ele>709.0</ele><time>2026-04-12T10:06:12Z</time></trkpt><trkpt lat="44.54012685371324" lon="8.035815803078917"><ele>709.0</ele><time>2026-04-12T10:06:16Z</time></trkpt><trkpt lat="44.540209990057804" lon="8.035826897751875"><ele>709.0000000000001</ele><time>2026-04-12T10:06:23Z</time></trkpt><trkpt lat="44.54027438355979" lon="8.03581627237186"><ele>709.0</ele><time>2026-04-12T10:06:49.999Z</time></trkpt><trkpt lat="44.540348065002306" lon="8.035797552033833"><ele>709.2857142857143</ele><time>2026-04-12T10:07:14.999Z</time></trkpt><trkpt lat="44.54040787475033" lon="8.035768160551857"><ele>709.5714285714286</ele><time>2026-04-12T10:07:19.999Z</time></trkpt><trkpt lat="44.540473177570995" lon="8.03577037698665"><ele>709.8571428571429</ele><time>2026-04-12T10:07:23.999Z</time></trkpt><trkpt lat="44.5405485039422" lon="8.035763345862543"><ele>710.1428571428571</ele><time>2026-04-12T10:07:26.999Z</time></trkpt><trkpt lat="44.540612723840866" lon="8.035748949907953"><ele>710.4285714285714</ele><time>2026-04-12T10:07:28.999Z</time></trkpt><trkpt lat="44.54067578415268" lon="8.03579189677163"><ele>710.7142857142858</ele><time>2026-04-12T10:07:31.999Z</time></trkpt><trkpt lat="44.540751061912594" lon="8.035799525136058"><ele>711.0</ele><time>2026-04-12T10:07:33.999Z</time></trkpt><trkpt lat="44.54081201281018" lon="8.0357751227817"><ele>711.0</ele><time>2026-04-12T10:07:35.999Z</time></trkpt><trkpt lat="44.54088526738629" lon="8.035739143094945"><ele>711.0</ele><time>2026-04-12T10:07:38.999Z</time></trkpt><trkpt lat="44.54096558665146" lon="8.035671605071226"><ele>711.0</ele><time>2026-04-12T10:07:41.999Z</time></trkpt><trkpt lat="44.541023638297304" lon="8.035616379301494"><ele>711.0</ele><time>2026-04-12T10:07:43.999Z</time></trkpt><trkpt lat="44.54108550464224" lon="8.035578209461875"><ele>711.0</ele><time>2026-04-12T10:07:45.999Z</time></trkpt><trkpt lat="44.54114730353601" lon="8.035467388780187"><ele>711.0</ele><time>2026-04-12T10:07:47.999Z</time></trkpt><trkpt lat="44.541228293172935" lon="8.035385573976999"><ele>709.1666666666666</ele><time>2026-04-12T10:07:49.998Z</time></trkpt><trkpt lat="44.541283648373344" lon="8.03532248228004"><ele>707.3333333333334</ele><time>2026-04-12T10:07:51.998Z</time></trkpt><trkpt lat="44.54130252000328" lon="8.035219725518814"><ele>705.5</ele><time>2026-04-12T10:07:56Z</time></trkpt><trkpt lat="44.54132361876461" lon="8.035108625710853"><ele>703.6666666666667</ele><time>2026-04-12T10:07:59Z</time></trkpt><trkpt lat="44.541323035929494" lon="8.035005150953975"><ele>701.8333333333334</ele><time>2026-04-12T10:08:03Z</time></trkpt><trkpt lat="44.541374111259664" lon="8.034917451958242"><ele>700.0</ele><time>2026-04-12T10:08:07Z</time></trkpt><trkpt lat="44.54143154255862" lon="8.034851798248798"><ele>700.0</ele><time>2026-04-12T10:08:09Z</time></trkpt><trkpt lat="44.5414762388384" lon="8.034777716804193"><ele>700.0</ele><time>2026-04-12T10:08:11Z</time></trkpt><trkpt lat="44.541522879607335" lon="8.034716341273123"><ele>700.0</ele><time>2026-04-12T10:08:13Z</time></trkpt><trkpt lat="44.541588922393544" lon="8.034694417263491"><ele>700.0</ele><time>2026-04-12T10:08:16Z</time></trkpt><trkpt lat="44.541640008212376" lon="8.034631669757552"><ele>700.0</ele><time>2026-04-12T10:08:20Z</time></trkpt><trkpt lat="44.54170354811244" lon="8.034598936228665"><ele>700.0</ele><time>2026-04-12T10:08:25Z</time></trkpt><trkpt lat="44.54177260808534" lon="8.034530139513697"><ele>700.0</ele><time>2026-04-12T10:08:28Z</time></trkpt><trkpt lat="44.54182366590379" lon="8.034469560873319"><ele>700.0</ele><time>2026-04-12T10:08:34Z</time></trkpt><trkpt lat="44.54188553445376" lon="8.034411222682271"><ele>700.0</ele><time>2026-04-12T10:08:40Z</time></trkpt><trkpt lat="44.541944092343584" lon="8.034348216551123"><ele>700.0</ele><time>2026-04-12T10:08:43Z</time></trkpt><trkpt lat="44.54201134696949" lon="8.034283765767645"><ele>700.0</ele><time>2026-04-12T10:08:45Z</time></trkpt><trkpt lat="44.542080930350004" lon="8.034224214129514"><ele>700.0</ele><time>2026-04-12T10:08:46.999Z</time></trkpt><trkpt lat="44.542148516644495" lon="8.034152346217887"><ele>700.0</ele><time>2026-04-12T10:08:49.999Z</time></trkpt><trkpt lat="44.542221344457076" lon="8.034081483676903"><ele>697.7142857142857</ele><time>2026-04-12T10:08:53.999Z</time></trkpt><trkpt lat="44.54227833361545" lon="8.03404130600135"><ele>695.4285714285714</ele><time>2026-04-12T10:08:55.999Z</time></trkpt><trkpt lat="44.542346820015595" lon="8.033981805153783"><ele>693.1428571428571</ele><time>2026-04-12T10:08:58.999Z</time></trkpt><trkpt lat="44.54240012781701" lon="8.033908188503306"><ele>690.8571428571429</ele><time>2026-04-12T10:09:01.999Z</time></trkpt><trkpt lat="44.54245343667965" lon="8.033853015725867"><ele>688.5714285714286</ele><time>2026-04-12T10:09:03.999Z</time></trkpt><trkpt lat="44.542470002456135" lon="8.033758619714282"><ele>686.2857142857142</ele><time>2026-04-12T10:09:07.999Z</time></trkpt><trkpt lat="44.54251002425295" lon="8.033682848817099"><ele>684.0</ele><time>2026-04-12T10:09:09.999Z</time></trkpt><trkpt lat="44.54253890406835" lon="8.03356280115893"><ele>684.0</ele><time>2026-04-12T10:09:12.999Z</time></trkpt><trkpt lat="44.54255926013107" lon="8.033447204747516"><ele>684.0</ele><time>2026-04-12T10:09:14.999Z</time></trkpt><trkpt lat="44.54259030520502" lon="8.033347347599737"><ele>684.0</ele><time>2026-04-12T10:09:16.999Z</time></trkpt><trkpt lat="44.54262610548255" lon="8.03321248577533"><ele>684.0</ele><time>2026-04-12T10:09:19.999Z</time></trkpt><trkpt lat="44.542662221236455" lon="8.033124890514442"><ele>684.0</ele><time>2026-04-12T10:09:21.999Z</time></trkpt><trkpt lat="44.54272348001468" lon="8.033025556769479"><ele>684.0</ele><time>2026-04-12T10:09:23.999Z</time></trkpt><trkpt lat="44.54278495887383" lon="8.032925390215519"><ele>686.0</ele><time>2026-04-12T10:09:25.999Z</time></trkpt><trkpt lat="44.54286432085558" lon="8.032784573052195"><ele>688.0</ele><time>2026-04-12T10:09:27.999Z</time></trkpt><trkpt lat="44.54290156288545" lon="8.032700163725586"><ele>690.0</ele><time>2026-04-12T10:09:29.999Z</time></trkpt><trkpt lat="44.54293537950236" lon="8.032612895189772"><ele>692.0</ele><time>2026-04-12T10:09:31.999Z</time></trkpt><trkpt lat="44.54301914377669" lon="8.03255777870898"><ele>694.0</ele><time>2026-04-12T10:09:33.999Z</time></trkpt><trkpt lat="44.54313304110721" lon="8.032494439323813"><ele>691.6666666666667</ele><time>2026-04-12T10:09:36.999Z</time></trkpt><trkpt lat="44.54319497122803" lon="8.03236572282571"><ele>689.3333333333334</ele><time>2026-04-12T10:09:39.999Z</time></trkpt><trkpt lat="44.54323086352479" lon="8.032291207140817"><ele>687.0</ele><time>2026-04-12T10:09:41.999Z</time></trkpt><trkpt lat="44.54327766627285" lon="8.032192984677707"><ele>684.6666666666666</ele><time>2026-04-12T10:09:43.999Z</time></trkpt><trkpt lat="44.54332936569381" lon="8.032122028069491"><ele>682.3333333333333</ele><time>2026-04-12T10:09:45.999Z</time></trkpt><trkpt lat="44.54336479818348" lon="8.032016604945388"><ele>680.0</ele><time>2026-04-12T10:09:47.999Z</time></trkpt><trkpt lat="44.543411280939296" lon="8.0319090823407"><ele>680.0</ele><time>2026-04-12T10:09:51.999Z</time></trkpt><trkpt lat="44.543461185785596" lon="8.031801370448271"><ele>680.0</ele><time>2026-04-12T10:09:54.999Z</time></trkpt><trkpt lat="44.54350015106609" lon="8.031727363344192"><ele>680.0</ele><time>2026-04-12T10:09:56.999Z</time></trkpt><trkpt lat="44.54357109631089" lon="8.031644500911368"><ele>680.0</ele><time>2026-04-12T10:09:58.998Z</time></trkpt><trkpt lat="44.54363381419611" lon="8.031520714288343"><ele>680.0</ele><time>2026-04-12T10:10:01Z</time></trkpt><trkpt lat="44.54367650914236" lon="8.031407310501228"><ele>680.0</ele><time>2026-04-12T10:10:03Z</time></trkpt><trkpt lat="44.543737547183746" lon="8.031334692811594"><ele>677.0</ele><time>2026-04-12T10:10:05Z</time></trkpt><trkpt lat="44.5437891306119" lon="8.031264023095984"><ele>674.0</ele><time>2026-04-12T10:10:06Z</time></trkpt><trkpt lat="44.543866795206924" lon="8.031161029472914"><ele>671.0</ele><time>2026-04-12T10:10:08Z</time></trkpt><trkpt lat="44.54392838705815" lon="8.031107687385399"><ele>668.0</ele><time>2026-04-12T10:10:10Z</time></trkpt><trkpt lat="44.5440217146412" lon="8.030993042514332"><ele>665.0</ele><time>2026-04-12T10:10:13Z</time></trkpt><trkpt lat="44.54407972303293" lon="8.030935629332957"><ele>662.0</ele><time>2026-04-12T10:10:14Z</time></trkpt><trkpt lat="44.544148303997325" lon="8.030811242876219"><ele>665.0</ele><time>2026-04-12T10:10:16Z</time></trkpt><trkpt lat="44.54423613673723" lon="8.030743840877223"><ele>668.0</ele><time>2026-04-12T10:10:17Z</time></trkpt><trkpt lat="44.54429381816534" lon="8.030620187710834"><ele>671.0</ele><time>2026-04-12T10:10:19Z</time></trkpt><trkpt lat="44.544349363226395" lon="8.030512879979545"><ele>674.0</ele><time>2026-04-12T10:10:21Z</time></trkpt><trkpt lat="44.54439479866677" lon="8.030444727392243"><ele>677.0</ele><time>2026-04-12T10:10:22Z</time></trkpt><trkpt lat="44.54445290865548" lon="8.030361017782734"><ele>677.0</ele><time>2026-04-12T10:10:24Z</time></trkpt><trkpt lat="44.54450917268829" lon="8.03026435190427"><ele>677.0</ele><time>2026-04-12T10:10:26Z</time></trkpt><trkpt lat="44.54458800776685" lon="8.030119050250095"><ele>677.0</ele><time>2026-04-12T10:10:28Z</time></trkpt><trkpt lat="44.54463606467902" lon="8.030016080758532"><ele>677.0</ele><time>2026-04-12T10:10:30Z</time></trkpt><trkpt lat="44.544737290821445" lon="8.029909464943335"><ele>677.0</ele><time>2026-04-12T10:10:32Z</time></trkpt><trkpt lat="44.54480619613271" lon="8.029837888282167"><ele>673.2</ele><time>2026-04-12T10:10:33Z</time></trkpt><trkpt lat="44.544897013004764" lon="8.029732396321785"><ele>669.4000000000001</ele><time>2026-04-12T10:10:35Z</time></trkpt><trkpt lat="44.5449833518641" lon="8.029644637417292"><ele>665.5999999999999</ele><time>2026-04-12T10:10:37Z</time></trkpt><trkpt lat="44.54503594143496" lon="8.029549200692694"><ele>661.8</ele><time>2026-04-12T10:10:39Z</time></trkpt><trkpt lat="44.54506498151292" lon="8.029411874402332"><ele>658.0</ele><time>2026-04-12T10:10:41Z</time></trkpt><trkpt lat="44.54512413026125" lon="8.029317369349867"><ele>658.0</ele><time>2026-04-12T10:10:43Z</time></trkpt><trkpt lat="44.54517631162488" lon="8.029227716370087"><ele>658.0</ele><time>2026-04-12T10:10:46Z</time></trkpt><trkpt lat="44.5452205121513" lon="8.029163566590702"><ele>658.0</ele><time>2026-04-12T10:10:48Z</time></trkpt><trkpt lat="44.54529488092472" lon="8.02906164429152"><ele>658.0</ele><time>2026-04-12T10:10:50.999Z</time></trkpt><trkpt lat="44.545344949215625" lon="8.029006709685378"><ele>658.0</ele><time>2026-04-12T10:10:52.999Z</time></trkpt><trkpt lat="44.54538028248787" lon="8.028892618092465"><ele>658.0</ele><time>2026-04-12T10:10:54.999Z</time></trkpt><trkpt lat="44.545420496264555" lon="8.028796554608805"><ele>655.5</ele><time>2026-04-12T10:10:56.999Z</time></trkpt><trkpt lat="44.545467923783846" lon="8.028705185084322"><ele>653.0</ele><time>2026-04-12T10:10:58.999Z</time></trkpt><trkpt lat="44.545509015018766" lon="8.028601245684271"><ele>650.5</ele><time>2026-04-12T10:11:00.999Z</time></trkpt><trkpt lat="44.54554747738752" lon="8.028493604572276"><ele>648.0</ele><time>2026-04-12T10:11:02.999Z</time></trkpt><trkpt lat="44.5455631247312" lon="8.028407389479785"><ele>645.5</ele><time>2026-04-12T10:11:04.999Z</time></trkpt><trkpt lat="44.54561881698351" lon="8.028304038912024"><ele>643.0</ele><time>2026-04-12T10:11:06.999Z</time></trkpt><trkpt lat="44.5456431095908" lon="8.028204326019017"><ele>643.0</ele><time>2026-04-12T10:11:09.999Z</time></trkpt><trkpt lat="44.5456787693954" lon="8.028103534327135"><ele>643.0</ele><time>2026-04-12T10:11:13.999Z</time></trkpt><trkpt lat="44.545752920944395" lon="8.028016333045652"><ele>643.0</ele><time>2026-04-12T10:11:16.999Z</time></trkpt><trkpt lat="44.54580059553917" lon="8.027931419273663"><ele>643.0</ele><time>2026-04-12T10:11:19.999Z</time></trkpt><trkpt lat="44.54586911579748" lon="8.027873437527072"><ele>643.0</ele><time>2026-04-12T10:11:22.999Z</time></trkpt><trkpt lat="44.545927536331945" lon="8.027788197504238"><ele>643.0</ele><time>2026-04-12T10:11:25.999Z</time></trkpt><trkpt lat="44.54597061603414" lon="8.027720878495966"><ele>643.0</ele><time>2026-04-12T10:11:27.999Z</time></trkpt><trkpt lat="44.546054839191534" lon="8.027624878679761"><ele>643.0</ele><time>2026-04-12T10:11:29.999Z</time></trkpt><trkpt lat="44.54612834873045" lon="8.027540570972368"><ele>643.0</ele><time>2026-04-12T10:11:31.999Z</time></trkpt><trkpt lat="44.54616925698533" lon="8.027447437453548"><ele>643.0</ele><time>2026-04-12T10:11:33.999Z</time></trkpt><trkpt lat="44.54619031673036" lon="8.027361273589964"><ele>643.0</ele><time>2026-04-12T10:11:36.999Z</time></trkpt><trkpt lat="44.54619480112035" lon="8.027249899363607"><ele>643.0</ele><time>2026-04-12T10:11:38.999Z</time></trkpt><trkpt lat="44.54616713147112" lon="8.027149280664668"><ele>642.0</ele><time>2026-04-12T10:11:40.999Z</time></trkpt><trkpt lat="44.54611342765552" lon="8.027049239367825"><ele>641.0</ele><time>2026-04-12T10:11:43.999Z</time></trkpt><trkpt lat="44.546085906372326" lon="8.02696373164696"><ele>640.0</ele><time>2026-04-12T10:11:46.999Z</time></trkpt><trkpt lat="44.546053452087975" lon="8.02688153621678"><ele>639.0</ele><time>2026-04-12T10:11:49.999Z</time></trkpt><trkpt lat="44.54602817820357" lon="8.026792368055563"><ele>638.0</ele><time>2026-04-12T10:11:51.999Z</time></trkpt><trkpt lat="44.545990505269124" lon="8.026686447855488"><ele>637.0</ele><time>2026-04-12T10:11:54.999Z</time></trkpt><trkpt lat="44.54595186791406" lon="8.026596942493269"><ele>636.5714285714286</ele><time>2026-04-12T10:11:58.999Z</time></trkpt><trkpt lat="44.54587038957107" lon="8.026557678239982"><ele>636.1428571428571</ele><time>2026-04-12T10:12:47Z</time></trkpt><trkpt lat="44.54585416056533" lon="8.026465425542746"><ele>635.7142857142858</ele><time>2026-04-12T10:12:55Z</time></trkpt><trkpt lat="44.545819693082095" lon="8.026383255135157"><ele>635.2857142857142</ele><time>2026-04-12T10:13:02.999Z</time></trkpt><trkpt lat="44.54577084005213" lon="8.026317128947529"><ele>634.8571428571429</ele><time>2026-04-12T10:13:19.999Z</time></trkpt><trkpt lat="44.5457047065166" lon="8.026298988654968"><ele>634.4285714285714</ele><time>2026-04-12T10:13:31.999Z</time></trkpt><trkpt lat="44.54562993699716" lon="8.02627196406668"><ele>634.0</ele><time>2026-04-12T10:13:55.999Z</time></trkpt><trkpt lat="44.545631491504366" lon="8.026182727557748"><ele>634.0</ele><time>2026-04-12T10:14:07.999Z</time></trkpt><trkpt lat="44.5456045398323" lon="8.026090829980491"><ele>634.0</ele><time>2026-04-12T10:14:16Z</time></trkpt><trkpt lat="44.54559693865059" lon="8.026001777298637"><ele>634.0</ele><time>2026-04-12T10:14:28Z</time></trkpt><trkpt lat="44.545580722011024" lon="8.025910416763695"><ele>634.0</ele><time>2026-04-12T10:14:38Z</time></trkpt><trkpt lat="44.54559924209319" lon="8.025823910563933"><ele>634.0</ele><time>2026-04-12T10:14:47Z</time></trkpt><trkpt lat="44.54563985658662" lon="8.025740170632114"><ele>634.0</ele><time>2026-04-12T10:14:58Z</time></trkpt><trkpt lat="44.54567014132226" lon="8.025660854185402"><ele>634.0</ele><time>2026-04-12T10:15:07.999Z</time></trkpt><trkpt lat="44.54566831239" lon="8.02556505691996"><ele>634.0</ele><time>2026-04-12T10:15:18.999Z</time></trkpt><trkpt lat="44.54567368376329" lon="8.025466389507791"><ele>634.0</ele><time>2026-04-12T10:15:27.999Z</time></trkpt><trkpt lat="44.545657221106296" lon="8.025370774073899"><ele>634.0</ele><time>2026-04-12T10:15:35.999Z</time></trkpt><trkpt lat="44.54560583237105" lon="8.025297497799205"><ele>634.0</ele><time>2026-04-12T10:15:43.999Z</time></trkpt><trkpt lat="44.54557022968846" lon="8.025215613206642"><ele>634.0</ele><time>2026-04-12T10:15:51.999Z</time></trkpt><trkpt lat="44.545506560961954" lon="8.025172596064426"><ele>634.0</ele><time>2026-04-12T10:15:58.999Z</time></trkpt><trkpt lat="44.54544550795919" lon="8.025114090492089"><ele>634.0</ele><time>2026-04-12T10:16:05.999Z</time></trkpt><trkpt lat="44.5453663984134" lon="8.025171651541243"><ele>635.4285714285714</ele><time>2026-04-12T10:18:27Z</time></trkpt><trkpt lat="44.54530902902016" lon="8.025121706135037"><ele>636.8571428571429</ele><time>2026-04-12T10:18:36Z</time></trkpt><trkpt lat="44.54524323010504" lon="8.025098372763628"><ele>638.2857142857142</ele><time>2026-04-12T10:18:45Z</time></trkpt><trkpt lat="44.54518058611841" lon="8.025075129887185"><ele>639.7142857142858</ele><time>2026-04-12T10:18:52Z</time></trkpt><trkpt lat="44.54512554216863" lon="8.025024954787"><ele>641.1428571428571</ele><time>2026-04-12T10:19:00Z</time></trkpt><trkpt lat="44.545100131090656" lon="8.024931811071859"><ele>642.5714285714286</ele><time>2026-04-12T10:19:22.999Z</time></trkpt><trkpt lat="44.54504398227598" lon="8.02488004622058"><ele>644.0</ele><time>2026-04-12T10:19:30.999Z</time></trkpt><trkpt lat="44.54504954952121" lon="8.024787556960602"><ele>644.0</ele><time>2026-04-12T10:19:41.999Z</time></trkpt><trkpt lat="44.54502118810713" lon="8.024706319186865"><ele>644.0</ele><time>2026-04-12T10:19:53.999Z</time></trkpt><trkpt lat="44.544998191794996" lon="8.024603540013086"><ele>644.0</ele><time>2026-04-12T10:20:01.999Z</time></trkpt><trkpt lat="44.54496367211149" lon="8.024502022811484"><ele>644.0</ele><time>2026-04-12T10:20:06.999Z</time></trkpt><trkpt lat="44.544923646961784" lon="8.024428120181422"><ele>644.0</ele><time>2026-04-12T10:20:10.999Z</time></trkpt><trkpt lat="44.544880651387196" lon="8.024349320032504"><ele>644.0</ele><time>2026-04-12T10:20:13.999Z</time></trkpt><trkpt lat="44.5448640844692" lon="8.024230446024267"><ele>644.0</ele><time>2026-04-12T10:20:16.999Z</time></trkpt><trkpt lat="44.5448001001014" lon="8.024142860887986"><ele>644.3333333333333</ele><time>2026-04-12T10:20:18.999Z</time></trkpt><trkpt lat="44.54474423735195" lon="8.024069332899222"><ele>644.6666666666666</ele><time>2026-04-12T10:20:20.999Z</time></trkpt><trkpt lat="44.54468987822904" lon="8.024005397673685"><ele>645.0</ele><time>2026-04-12T10:20:23.999Z</time></trkpt><trkpt lat="44.54461470528288" lon="8.023946670735999"><ele>645.3333333333334</ele><time>2026-04-12T10:20:26.999Z</time></trkpt><trkpt lat="44.544560200532146" lon="8.023869187772515"><ele>645.6666666666667</ele><time>2026-04-12T10:20:29.998Z</time></trkpt><trkpt lat="44.54449646593899" lon="8.023807049268067"><ele>646.0</ele><time>2026-04-12T10:20:34Z</time></trkpt><trkpt lat="44.544422395742636" lon="8.023755427523877"><ele>646.0000000000001</ele><time>2026-04-12T10:20:37Z</time></trkpt><trkpt lat="44.54435678941888" lon="8.023688927138501"><ele>646.0</ele><time>2026-04-12T10:20:40Z</time></trkpt><trkpt lat="44.5442957374717" lon="8.02364793328236"><ele>646.0</ele><time>2026-04-12T10:20:42Z</time></trkpt><trkpt lat="44.54427747814289" lon="8.023558029657591"><ele>646.0</ele><time>2026-04-12T10:20:47Z</time></trkpt><trkpt lat="44.54421460944503" lon="8.023504368211302"><ele>646.0</ele><time>2026-04-12T10:20:52Z</time></trkpt><trkpt lat="44.54418235004449" lon="8.02341409927499"><ele>646.0000000000001</ele><time>2026-04-12T10:20:57Z</time></trkpt><trkpt lat="44.54411677997562" lon="8.023333172918344"><ele>646.0</ele><time>2026-04-12T10:21:00Z</time></trkpt><trkpt lat="44.54406892079543" lon="8.023260971816631"><ele>644.3333333333334</ele><time>2026-04-12T10:21:04Z</time></trkpt><trkpt lat="44.543993202570434" lon="8.023192118780434"><ele>642.6666666666667</ele><time>2026-04-12T10:21:07Z</time></trkpt><trkpt lat="44.5439414251926" lon="8.023136243725112"><ele>641.0</ele><time>2026-04-12T10:21:10Z</time></trkpt><trkpt lat="44.54385579945292" lon="8.023072092673031"><ele>639.3333333333334</ele><time>2026-04-12T10:21:13Z</time></trkpt><trkpt lat="44.54379951653248" lon="8.023020349787187"><ele>637.6666666666666</ele><time>2026-04-12T10:21:15Z</time></trkpt><trkpt lat="44.54373601159963" lon="8.02296371583992"><ele>636.0</ele><time>2026-04-12T10:21:19Z</time></trkpt><trkpt lat="44.54369030771997" lon="8.022894243531441"><ele>636.0</ele><time>2026-04-12T10:21:20.999Z</time></trkpt><trkpt lat="44.54364768804676" lon="8.022812159029888"><ele>636.0</ele><time>2026-04-12T10:21:24.999Z</time></trkpt><trkpt lat="44.54362972105912" lon="8.02272697043516"><ele>636.0</ele><time>2026-04-12T10:21:28.999Z</time></trkpt><trkpt lat="44.543615765046574" lon="8.02263438341396"><ele>636.0</ele><time>2026-04-12T10:21:33.999Z</time></trkpt><trkpt lat="44.54359852795062" lon="8.022521520341995"><ele>636.0</ele><time>2026-04-12T10:21:43.999Z</time></trkpt><trkpt lat="44.543584654485" lon="8.022417226162274"><ele>636.0</ele><time>2026-04-12T10:21:46.999Z</time></trkpt><trkpt lat="44.54354700572611" lon="8.022331008638835"><ele>636.0</ele><time>2026-04-12T10:21:48.999Z</time></trkpt><trkpt lat="44.543487407751044" lon="8.022262559619806"><ele>635.5714285714286</ele><time>2026-04-12T10:21:50.999Z</time></trkpt><trkpt lat="44.54343953894343" lon="8.02217217540244"><ele>635.1428571428572</ele><time>2026-04-12T10:21:52.999Z</time></trkpt><trkpt lat="44.5433882651143" lon="8.02209597598793"><ele>634.7142857142858</ele><time>2026-04-12T10:21:54.999Z</time></trkpt><trkpt lat="44.543351658123306" lon="8.02201820881973"><ele>634.2857142857142</ele><time>2026-04-12T10:21:56.999Z</time></trkpt><trkpt lat="44.54331674135315" lon="8.02193626275681"><ele>633.8571428571429</ele><time>2026-04-12T10:21:59.999Z</time></trkpt><trkpt lat="44.543255394695954" lon="8.021891710000913"><ele>633.4285714285714</ele><time>2026-04-12T10:22:03.999Z</time></trkpt><trkpt lat="44.54323654839035" lon="8.021800476305483"><ele>633.0</ele><time>2026-04-12T10:24:34.999Z</time></trkpt><trkpt lat="44.543203754993925" lon="8.02170807342578"><ele>632.0</ele><time>2026-04-12T10:24:37.998Z</time></trkpt><trkpt lat="44.543168305486525" lon="8.021605403588097"><ele>631.0</ele><time>2026-04-12T10:24:40.998Z</time></trkpt><trkpt lat="44.54312466374095" lon="8.021510382941424"><ele>630.0</ele><time>2026-04-12T10:24:44Z</time></trkpt><trkpt lat="44.54307235933757" lon="8.021400056730945"><ele>629.0</ele><time>2026-04-12T10:24:47Z</time></trkpt><trkpt lat="44.5430337530894" lon="8.021312573809608"><ele>628.0</ele><time>2026-04-12T10:24:49Z</time></trkpt><trkpt lat="44.54298994685201" lon="8.021221183089317"><ele>627.0</ele><time>2026-04-12T10:24:51Z</time></trkpt><trkpt lat="44.54294628976162" lon="8.021120871364657"><ele>627.0</ele><time>2026-04-12T10:24:53Z</time></trkpt><trkpt lat="44.54289223172206" lon="8.021001341784682"><ele>627.0</ele><time>2026-04-12T10:24:55Z</time></trkpt><trkpt lat="44.54283398261861" lon="8.020886588176136"><ele>627.0</ele><time>2026-04-12T10:24:57Z</time></trkpt><trkpt lat="44.54276350360646" lon="8.020755926006325"><ele>627.0</ele><time>2026-04-12T10:24:59Z</time></trkpt><trkpt lat="44.54269009484761" lon="8.020616255046585"><ele>627.0</ele><time>2026-04-12T10:25:01Z</time></trkpt><trkpt lat="44.54261682351252" lon="8.020479658149231"><ele>626.5714285714286</ele><time>2026-04-12T10:25:03Z</time></trkpt><trkpt lat="44.542582619401585" lon="8.020399529619954"><ele>626.1428571428571</ele><time>2026-04-12T10:25:04Z</time></trkpt><trkpt lat="44.54255635833203" lon="8.020318161984447"><ele>625.7142857142858</ele><time>2026-04-12T10:25:05Z</time></trkpt><trkpt lat="44.542536410485994" lon="8.020231069327044"><ele>625.2857142857142</ele><time>2026-04-12T10:25:06Z</time></trkpt><trkpt lat="44.54251799341703" lon="8.02014200480277"><ele>624.8571428571428</ele><time>2026-04-12T10:25:07Z</time></trkpt><trkpt lat="44.54249349983385" lon="8.020049237388546"><ele>624.4285714285714</ele><time>2026-04-12T10:25:08Z</time></trkpt><trkpt lat="44.54246697778669" lon="8.019957542799707"><ele>624.0</ele><time>2026-04-12T10:25:09Z</time></trkpt><trkpt lat="44.54244183174773" lon="8.019869495511616"><ele>623.6</ele><time>2026-04-12T10:25:10Z</time></trkpt><trkpt lat="44.5424124041615" lon="8.019782484094723"><ele>623.2</ele><time>2026-04-12T10:25:11Z</time></trkpt><trkpt lat="44.54234698959345" lon="8.019633295065386"><ele>622.8000000000001</ele><time>2026-04-12T10:25:13Z</time></trkpt><trkpt lat="44.54228383620576" lon="8.019488426137661"><ele>622.4</ele><time>2026-04-12T10:25:15Z</time></trkpt><trkpt lat="44.54222787582756" lon="8.019355900828927"><ele>622.0</ele><time>2026-04-12T10:25:17Z</time></trkpt><trkpt lat="44.54217246272734" lon="8.019224469608343"><ele>622.2</ele><time>2026-04-12T10:25:19Z</time></trkpt><trkpt lat="44.54211870291816" lon="8.019088002440228"><ele>622.4000000000001</ele><time>2026-04-12T10:25:21Z</time></trkpt><trkpt lat="44.54206797199369" lon="8.018958648818334"><ele>622.5999999999999</ele><time>2026-04-12T10:25:23Z</time></trkpt><trkpt lat="44.54201492601546" lon="8.018820034019734"><ele>622.8</ele><time>2026-04-12T10:25:25Z</time></trkpt><trkpt lat="44.54196404346737" lon="8.018681489765664"><ele>623.0</ele><time>2026-04-12T10:25:27Z</time></trkpt><trkpt lat="44.54189778335401" lon="8.018559583349688"><ele>623.0</ele><time>2026-04-12T10:25:29Z</time></trkpt><trkpt lat="44.54178482100779" lon="8.018489147728676"><ele>623.0</ele><time>2026-04-12T10:25:31Z</time></trkpt><trkpt lat="44.54168098632795" lon="8.018410566708516"><ele>623.0</ele><time>2026-04-12T10:25:33Z</time></trkpt><trkpt lat="44.54157821710431" lon="8.018310478617254"><ele>623.0</ele><time>2026-04-12T10:25:34.999Z</time></trkpt><trkpt lat="44.541511354327774" lon="8.018214263340901"><ele>621.6666666666666</ele><time>2026-04-12T10:25:36.999Z</time></trkpt><trkpt lat="44.54144666209821" lon="8.018130776991937"><ele>620.3333333333333</ele><time>2026-04-12T10:25:38.999Z</time></trkpt><trkpt lat="44.54138138029461" lon="8.01802202511952"><ele>619.0</ele><time>2026-04-12T10:25:40.999Z</time></trkpt><trkpt lat="44.541301093902234" lon="8.017912810607648"><ele>617.6666666666666</ele><time>2026-04-12T10:25:42.999Z</time></trkpt><trkpt lat="44.541265585057246" lon="8.017838636795995"><ele>616.3333333333334</ele><time>2026-04-12T10:25:43.999Z</time></trkpt><trkpt lat="44.5412244847424" lon="8.017753938737874"><ele>615.0</ele><time>2026-04-12T10:25:44.999Z</time></trkpt><trkpt lat="44.541171242470476" lon="8.017689452488757"><ele>614.8571428571428</ele><time>2026-04-12T10:25:45.999Z</time></trkpt><trkpt lat="44.54112089082891" lon="8.017620581634777"><ele>614.7142857142858</ele><time>2026-04-12T10:25:46.999Z</time></trkpt><trkpt lat="44.54106759202891" lon="8.017548525934055"><ele>614.5714285714286</ele><time>2026-04-12T10:25:47.999Z</time></trkpt><trkpt lat="44.541025336922246" lon="8.017464808835065"><ele>614.4285714285713</ele><time>2026-04-12T10:25:48.999Z</time></trkpt><trkpt lat="44.54098694879798" lon="8.01737936313102"><ele>614.2857142857142</ele><time>2026-04-12T10:25:49.999Z</time></trkpt><trkpt lat="44.54094320372751" lon="8.017290122188802"><ele>614.1428571428571</ele><time>2026-04-12T10:25:50.999Z</time></trkpt><trkpt lat="44.540896865816016" lon="8.01719988180738"><ele>614.0</ele><time>2026-04-12T10:25:51.999Z</time></trkpt><trkpt lat="44.54084774023731" lon="8.01710745362141"><ele>614.0</ele><time>2026-04-12T10:25:52.999Z</time></trkpt><trkpt lat="44.54080036637737" lon="8.017020598796524"><ele>614.0</ele><time>2026-04-12T10:25:53.999Z</time></trkpt><trkpt lat="44.54075268129982" lon="8.016927812117904"><ele>614.0</ele><time>2026-04-12T10:25:54.999Z</time></trkpt><trkpt lat="44.54070499049035" lon="8.01683196016777"><ele>614.0</ele><time>2026-04-12T10:25:55.999Z</time></trkpt><trkpt lat="44.54065799934673" lon="8.016738016009278"><ele>614.0</ele><time>2026-04-12T10:25:56.999Z</time></trkpt><trkpt lat="44.54061186050235" lon="8.016637705848245"><ele>614.0</ele><time>2026-04-12T10:25:57.999Z</time></trkpt><trkpt lat="44.5405659225624" lon="8.016537259951146"><ele>613.6666666666666</ele><time>2026-04-12T10:25:58.999Z</time></trkpt><trkpt lat="44.54051700899733" lon="8.016438717220016"><ele>613.3333333333333</ele><time>2026-04-12T10:25:59.999Z</time></trkpt><trkpt lat="44.54047481565729" lon="8.016333268642605"><ele>613.0</ele><time>2026-04-12T10:26:00.999Z</time></trkpt><trkpt lat="44.54042624348253" lon="8.016232806685881"><ele>612.6666666666666</ele><time>2026-04-12T10:26:01.999Z</time></trkpt><trkpt lat="44.5403804788362" lon="8.016126054787907"><ele>612.3333333333334</ele><time>2026-04-12T10:26:02.999Z</time></trkpt><trkpt lat="44.54033127903767" lon="8.01602098323267"><ele>612.0</ele><time>2026-04-12T10:26:03.999Z</time></trkpt><trkpt lat="44.54029375436337" lon="8.015912335488377"><ele>611.1666666666666</ele><time>2026-04-12T10:26:04.999Z</time></trkpt><trkpt lat="44.54026133371957" lon="8.01579523358782"><ele>610.3333333333334</ele><time>2026-04-12T10:26:05.999Z</time></trkpt><trkpt lat="44.540228818883534" lon="8.01567419009821"><ele>609.5</ele><time>2026-04-12T10:26:06.999Z</time></trkpt><trkpt lat="44.540195041565305" lon="8.015559011375782"><ele>608.6666666666667</ele><time>2026-04-12T10:26:07.999Z</time></trkpt><trkpt lat="44.54015737756058" lon="8.01545342429906"><ele>607.8333333333334</ele><time>2026-04-12T10:26:08.999Z</time></trkpt><trkpt lat="44.540123680165166" lon="8.015353154791574"><ele>607.0</ele><time>2026-04-12T10:26:09.999Z</time></trkpt><trkpt lat="44.5400928343003" lon="8.015255115743685"><ele>606.9999999999999</ele><time>2026-04-12T10:26:10.999Z</time></trkpt><trkpt lat="44.54005907284453" lon="8.015163000747364"><ele>607.0</ele><time>2026-04-12T10:26:11.999Z</time></trkpt><trkpt lat="44.540023002958534" lon="8.015074573388969"><ele>607.0</ele><time>2026-04-12T10:26:12.999Z</time></trkpt><trkpt lat="44.53998529297337" lon="8.014988770039212"><ele>607.0</ele><time>2026-04-12T10:26:13.999Z</time></trkpt><trkpt lat="44.539949819306216" lon="8.014908086166718"><ele>607.0</ele><time>2026-04-12T10:26:14.999Z</time></trkpt><trkpt lat="44.53991040311296" lon="8.014827121396257"><ele>606.9999999999999</ele><time>2026-04-12T10:26:15.999Z</time></trkpt><trkpt lat="44.53987791033651" lon="8.014750238773122"><ele>607.0</ele><time>2026-04-12T10:26:16.999Z</time></trkpt><trkpt lat="44.53984214459206" lon="8.014671996020152"><ele>606.7142857142857</ele><time>2026-04-12T10:26:17.999Z</time></trkpt><trkpt lat="44.539809059014004" lon="8.014591830018187"><ele>606.4285714285714</ele><time>2026-04-12T10:26:18.999Z</time></trkpt><trkpt lat="44.53977328177034" lon="8.014510114445057"><ele>606.1428571428571</ele><time>2026-04-12T10:26:19.999Z</time></trkpt><trkpt lat="44.539738012825545" lon="8.014429722885815"><ele>605.8571428571429</ele><time>2026-04-12T10:26:20.999Z</time></trkpt><trkpt lat="44.53970415405353" lon="8.014349673121432"><ele>605.5714285714286</ele><time>2026-04-12T10:26:21.999Z</time></trkpt><trkpt lat="44.53966785693432" lon="8.014275668305581"><ele>605.2857142857142</ele><time>2026-04-12T10:26:22.999Z</time></trkpt><trkpt lat="44.53962218261568" lon="8.0142118350001"><ele>605.0</ele><time>2026-04-12T10:26:23.999Z</time></trkpt><trkpt lat="44.53953141853731" lon="8.014090829546614"><ele>604.8333333333333</ele><time>2026-04-12T10:26:25.999Z</time></trkpt><trkpt lat="44.539476136086826" lon="8.014029592276131"><ele>604.6666666666666</ele><time>2026-04-12T10:26:26.999Z</time></trkpt><trkpt lat="44.539415864806614" lon="8.013958504364494"><ele>604.5</ele><time>2026-04-12T10:26:27.999Z</time></trkpt><trkpt lat="44.53935679531256" lon="8.013881694602452"><ele>604.3333333333334</ele><time>2026-04-12T10:26:28.999Z</time></trkpt><trkpt lat="44.53930002172138" lon="8.013803037222303"><ele>604.1666666666667</ele><time>2026-04-12T10:26:29.999Z</time></trkpt><trkpt lat="44.53924276269273" lon="8.013719137498148"><ele>604.0</ele><time>2026-04-12T10:26:30.999Z</time></trkpt><trkpt lat="44.53918509704425" lon="8.013637149458226"><ele>604.0</ele><time>2026-04-12T10:26:31.999Z</time></trkpt><trkpt lat="44.5391210906664" lon="8.013557719482781"><ele>604.0</ele><time>2026-04-12T10:26:32.999Z</time></trkpt><trkpt lat="44.53907024386637" lon="8.01346844728736"><ele>604.0</ele><time>2026-04-12T10:26:33.999Z</time></trkpt><trkpt lat="44.53902454955429" lon="8.01336895469246"><ele>604.0</ele><time>2026-04-12T10:26:34.999Z</time></trkpt><trkpt lat="44.538983180071604" lon="8.013271727070961"><ele>604.0</ele><time>2026-04-12T10:26:35.999Z</time></trkpt><trkpt lat="44.53893420520711" lon="8.013160431449318"><ele>604.0</ele><time>2026-04-12T10:26:36.999Z</time></trkpt><trkpt lat="44.538883266589174" lon="8.013058171848872"><ele>604.1666666666667</ele><time>2026-04-12T10:26:37.999Z</time></trkpt><trkpt lat="44.53883182294383" lon="8.012949750628401"><ele>604.3333333333334</ele><time>2026-04-12T10:26:38.999Z</time></trkpt><trkpt lat="44.53877595521611" lon="8.012851718395883"><ele>604.5</ele><time>2026-04-12T10:26:39.999Z</time></trkpt><trkpt lat="44.53871547677004" lon="8.012766302544502"><ele>604.6666666666666</ele><time>2026-04-12T10:26:40.999Z</time></trkpt><trkpt lat="44.53865982136928" lon="8.01267782348674"><ele>604.8333333333333</ele><time>2026-04-12T10:26:41.999Z</time></trkpt><trkpt lat="44.53862033062879" lon="8.012570395557129"><ele>605.0</ele><time>2026-04-12T10:26:42.999Z</time></trkpt><trkpt lat="44.53860093858578" lon="8.012468820937928"><ele>602.1666666666666</ele><time>2026-04-12T10:26:43.999Z</time></trkpt><trkpt lat="44.538588807459455" lon="8.012377067725906"><ele>599.3333333333333</ele><time>2026-04-12T10:26:44.999Z</time></trkpt><trkpt lat="44.538565226331436" lon="8.01227417854764"><ele>596.5</ele><time>2026-04-12T10:26:45.999Z</time></trkpt><trkpt lat="44.53853505518165" lon="8.012188168428025"><ele>593.6666666666666</ele><time>2026-04-12T10:26:46.998Z</time></trkpt><trkpt lat="44.538468681207185" lon="8.012100403739069"><ele>590.8333333333334</ele><time>2026-04-12T10:26:47.998Z</time></trkpt><trkpt lat="44.53839876869654" lon="8.01201905280516"><ele>588.0</ele><time>2026-04-12T10:26:49Z</time></trkpt><trkpt lat="44.538332156518344" lon="8.011937257997083"><ele>588.0</ele><time>2026-04-12T10:26:50Z</time></trkpt><trkpt lat="44.538276284000005" lon="8.011840764471915"><ele>588.0</ele><time>2026-04-12T10:26:51Z</time></trkpt><trkpt lat="44.53824785453898" lon="8.011741557425317"><ele>588.0</ele><time>2026-04-12T10:26:52Z</time></trkpt><trkpt lat="44.53822614441284" lon="8.011656411520079"><ele>588.0</ele><time>2026-04-12T10:26:53Z</time></trkpt><trkpt lat="44.53818898508347" lon="8.011576003432063"><ele>588.0</ele><time>2026-04-12T10:26:54Z</time></trkpt><trkpt lat="44.53814663702907" lon="8.011484210966968"><ele>588.0</ele><time>2026-04-12T10:26:56Z</time></trkpt><trkpt lat="44.53810035122649" lon="8.011393591410185"><ele>589.6</ele><time>2026-04-12T10:26:58Z</time></trkpt><trkpt lat="44.53806202415254" lon="8.011285124520139"><ele>591.1999999999999</ele><time>2026-04-12T10:27:00Z</time></trkpt><trkpt lat="44.53801699380638" lon="8.011155572983446"><ele>592.8</ele><time>2026-04-12T10:27:02Z</time></trkpt><trkpt lat="44.53797679852591" lon="8.01101973403392"><ele>594.4</ele><time>2026-04-12T10:27:04Z</time></trkpt><trkpt lat="44.53793271044992" lon="8.010882767811902"><ele>596.0</ele><time>2026-04-12T10:27:06Z</time></trkpt><trkpt lat="44.53787010213868" lon="8.010754966179356"><ele>591.1666666666666</ele><time>2026-04-12T10:27:08Z</time></trkpt><trkpt lat="44.537794752494094" lon="8.010630646643017"><ele>586.3333333333333</ele><time>2026-04-12T10:27:10Z</time></trkpt><trkpt lat="44.53774945712477" lon="8.010474413793425"><ele>581.5</ele><time>2026-04-12T10:27:12Z</time></trkpt><trkpt lat="44.53773696760804" lon="8.010380598285145"><ele>576.6666666666666</ele><time>2026-04-12T10:27:13Z</time></trkpt><trkpt lat="44.53772250013968" lon="8.01029117086591"><ele>571.8333333333334</ele><time>2026-04-12T10:27:14Z</time></trkpt><trkpt lat="44.53770950627701" lon="8.01019593563781"><ele>567.0</ele><time>2026-04-12T10:27:15Z</time></trkpt><trkpt lat="44.537687863109994" lon="8.010108207417366"><ele>567.8000000000001</ele><time>2026-04-12T10:27:16Z</time></trkpt><trkpt lat="44.53763911740081" lon="8.009965683020452"><ele>568.6</ele><time>2026-04-12T10:27:18Z</time></trkpt><trkpt lat="44.5375836917075" lon="8.009843751548466"><ele>569.4000000000001</ele><time>2026-04-12T10:27:20Z</time></trkpt><trkpt lat="44.53752520350938" lon="8.009713373305612"><ele>570.2</ele><time>2026-04-12T10:27:22Z</time></trkpt><trkpt lat="44.53751327644511" lon="8.00962528600874"><ele>571.0</ele><time>2026-04-12T10:27:23Z</time></trkpt><trkpt lat="44.537511105888775" lon="8.009450028511576"><ele>571.0</ele><time>2026-04-12T10:27:25Z</time></trkpt><trkpt lat="44.53753069992359" lon="8.009362181427912"><ele>571.0</ele><time>2026-04-12T10:27:26Z</time></trkpt><trkpt lat="44.537546433744694" lon="8.009270776437296"><ele>571.0</ele><time>2026-04-12T10:27:27Z</time></trkpt><trkpt lat="44.53754838338282" lon="8.00917322004725"><ele>571.0</ele><time>2026-04-12T10:27:28Z</time></trkpt><trkpt lat="44.53753959062968" lon="8.009080204720398"><ele>571.0</ele><time>2026-04-12T10:27:29Z</time></trkpt><trkpt lat="44.53753045209911" lon="8.008977531085225"><ele>571.0</ele><time>2026-04-12T10:27:30Z</time></trkpt><trkpt lat="44.537505477429406" lon="8.008875273014317"><ele>571.0</ele><time>2026-04-12T10:27:31Z</time></trkpt><trkpt lat="44.53750409808907" lon="8.00878221676309"><ele>570.6666666666667</ele><time>2026-04-12T10:27:32Z</time></trkpt><trkpt lat="44.5374830722152" lon="8.008665869537156"><ele>570.3333333333334</ele><time>2026-04-12T10:27:33Z</time></trkpt><trkpt lat="44.53747890143702" lon="8.00855226198767"><ele>570.0</ele><time>2026-04-12T10:27:34Z</time></trkpt><trkpt lat="44.5374656325113" lon="8.008435518105047"><ele>569.6666666666666</ele><time>2026-04-12T10:27:35Z</time></trkpt><trkpt lat="44.537452680311624" lon="8.008279787187877"><ele>569.3333333333333</ele><time>2026-04-12T10:27:36Z</time></trkpt><trkpt lat="44.53744656779547" lon="8.008158439269605"><ele>569.0</ele><time>2026-04-12T10:27:37Z</time></trkpt><trkpt lat="44.53744517205284" lon="8.008042830453732"><ele>569.0</ele><time>2026-04-12T10:27:37.999Z</time></trkpt><trkpt lat="44.537437720325414" lon="8.007924256372808"><ele>569.0</ele><time>2026-04-12T10:27:38.999Z</time></trkpt><trkpt lat="44.53742853970257" lon="8.007818452221535"><ele>569.0</ele><time>2026-04-12T10:27:39.999Z</time></trkpt><trkpt lat="44.53741822787508" lon="8.007701887182494"><ele>569.0</ele><time>2026-04-12T10:27:40.999Z</time></trkpt><trkpt lat="44.53740653105088" lon="8.007593989685464"><ele>569.0</ele><time>2026-04-12T10:27:41.999Z</time></trkpt><trkpt lat="44.53740245314585" lon="8.007486801286527"><ele>569.0</ele><time>2026-04-12T10:27:42.999Z</time></trkpt><trkpt lat="44.53738622187193" lon="8.007387388991123"><ele>568.8571428571429</ele><time>2026-04-12T10:27:43.999Z</time></trkpt><trkpt lat="44.53737655255224" lon="8.007290584240524"><ele>568.7142857142858</ele><time>2026-04-12T10:27:44.999Z</time></trkpt><trkpt lat="44.53737500098026" lon="8.00719482593257"><ele>568.5714285714286</ele><time>2026-04-12T10:27:45.999Z</time></trkpt><trkpt lat="44.53736505689686" lon="8.007104643883103"><ele>568.4285714285714</ele><time>2026-04-12T10:27:46.999Z</time></trkpt><trkpt lat="44.53736681768865" lon="8.006999778776224"><ele>568.2857142857142</ele><time>2026-04-12T10:27:47.999Z</time></trkpt><trkpt lat="44.537346077842805" lon="8.00691509244506"><ele>568.1428571428571</ele><time>2026-04-12T10:27:48.999Z</time></trkpt><trkpt lat="44.537336973745504" lon="8.00682716439008"><ele>568.0</ele><time>2026-04-12T10:27:49.999Z</time></trkpt><trkpt lat="44.53733185912617" lon="8.006672210738932"><ele>567.0</ele><time>2026-04-12T10:27:51.999Z</time></trkpt><trkpt lat="44.53732644403848" lon="8.00652428852749"><ele>566.0</ele><time>2026-04-12T10:27:53.999Z</time></trkpt><trkpt lat="44.5373108931204" lon="8.006395834531569"><ele>565.0</ele><time>2026-04-12T10:27:55.999Z</time></trkpt><trkpt lat="44.537298906289294" lon="8.006275511563494"><ele>564.0</ele><time>2026-04-12T10:27:57.999Z</time></trkpt><trkpt lat="44.53729666251292" lon="8.006168115942414"><ele>563.0</ele><time>2026-04-12T10:27:59.999Z</time></trkpt><trkpt lat="44.53729393632802" lon="8.00601630250716"><ele>563.0</ele><time>2026-04-12T10:28:01.999Z</time></trkpt><trkpt lat="44.537281988968154" lon="8.005864833227783"><ele>563.0</ele><time>2026-04-12T10:28:03.999Z</time></trkpt><trkpt lat="44.53728539222192" lon="8.0057218106802"><ele>563.0</ele><time>2026-04-12T10:28:05.999Z</time></trkpt><trkpt lat="44.5372977607872" lon="8.005575922548177"><ele>563.0</ele><time>2026-04-12T10:28:07.999Z</time></trkpt><trkpt lat="44.53730633527791" lon="8.005438125326375"><ele>563.0</ele><time>2026-04-12T10:28:09.999Z</time></trkpt><trkpt lat="44.5373216870819" lon="8.005306778196365"><ele>562.6666666666666</ele><time>2026-04-12T10:28:11.999Z</time></trkpt><trkpt lat="44.53730305152514" lon="8.005201070106008"><ele>562.3333333333333</ele><time>2026-04-12T10:28:13.999Z</time></trkpt><trkpt lat="44.53723266896819" lon="8.00516206204158"><ele>562.0</ele><time>2026-04-12T10:28:15.999Z</time></trkpt><trkpt lat="44.53719304897918" lon="8.005245162708704"><ele>561.6666666666666</ele><time>2026-04-12T10:28:18.999Z</time></trkpt><trkpt lat="44.5371647976274" lon="8.005379548627722"><ele>561.3333333333334</ele><time>2026-04-12T10:28:21.999Z</time></trkpt><trkpt lat="44.53715270493836" lon="8.005500153338536"><ele>561.0</ele><time>2026-04-12T10:28:23.999Z</time></trkpt><trkpt lat="44.53714156970621" lon="8.005638696115133"><ele>561.0</ele><time>2026-04-12T10:28:25.999Z</time></trkpt><trkpt lat="44.53713107437103" lon="8.005794149736563"><ele>561.0</ele><time>2026-04-12T10:28:27.999Z</time></trkpt><trkpt lat="44.537110229338666" lon="8.005959586633077"><ele>561.0</ele><time>2026-04-12T10:28:29.999Z</time></trkpt><trkpt lat="44.53709880468302" lon="8.006132230476492"><ele>561.0</ele><time>2026-04-12T10:28:31.999Z</time></trkpt><trkpt lat="44.53708926059918" lon="8.006289512647289"><ele>561.5</ele><time>2026-04-12T10:28:33.999Z</time></trkpt><trkpt lat="44.537082800017785" lon="8.00645294862083"><ele>562.0</ele><time>2026-04-12T10:28:35.999Z</time></trkpt><trkpt lat="44.53707782126629" lon="8.00661890294493"><ele>562.5</ele><time>2026-04-12T10:28:37.999Z</time></trkpt><trkpt lat="44.53708960882297" lon="8.00679024252834"><ele>563.0</ele><time>2026-04-12T10:28:39.999Z</time></trkpt><trkpt lat="44.53710169268981" lon="8.00696214734745"><ele>563.8333333333333</ele><time>2026-04-12T10:28:41.999Z</time></trkpt><trkpt lat="44.53710902528808" lon="8.007135845547706"><ele>564.6666666666666</ele><time>2026-04-12T10:28:43.999Z</time></trkpt><trkpt lat="44.53710364648603" lon="8.007230385160295"><ele>565.5</ele><time>2026-04-12T10:28:44.999Z</time></trkpt><trkpt lat="44.53710296936402" lon="8.007320703440053"><ele>566.3333333333334</ele><time>2026-04-12T10:28:45.999Z</time></trkpt><trkpt lat="44.53709856313374" lon="8.007421871127281"><ele>567.1666666666667</ele><time>2026-04-12T10:28:46.999Z</time></trkpt><trkpt lat="44.53709877618932" lon="8.007528020596117"><ele>568.0</ele><time>2026-04-12T10:28:47.999Z</time></trkpt><trkpt lat="44.53710288306837" lon="8.00762555253981"><ele>568.1666666666667</ele><time>2026-04-12T10:28:48.998Z</time></trkpt><trkpt lat="44.53711520997258" lon="8.007733871248167"><ele>568.3333333333334</ele><time>2026-04-12T10:28:49.998Z</time></trkpt><trkpt lat="44.53712842363701" lon="8.007844114424204"><ele>568.5</ele><time>2026-04-12T10:28:50.998Z</time></trkpt><trkpt lat="44.537140930486416" lon="8.007952163210568"><ele>568.6666666666666</ele><time>2026-04-12T10:28:51.998Z</time></trkpt><trkpt lat="44.537151321634845" lon="8.008044371905843"><ele>568.8333333333333</ele><time>2026-04-12T10:28:52.998Z</time></trkpt><trkpt lat="44.53714493877852" lon="8.008231234579108"><ele>569.0</ele><time>2026-04-12T10:28:55Z</time></trkpt><trkpt lat="44.53713396988196" lon="8.008332303551848"><ele>569.0</ele><time>2026-04-12T10:28:56Z</time></trkpt><trkpt lat="44.53712569820913" lon="8.008433108633964"><ele>569.0</ele><time>2026-04-12T10:28:57Z</time></trkpt><trkpt lat="44.53712110423997" lon="8.008540280657655"><ele>569.0</ele><time>2026-04-12T10:28:58Z</time></trkpt><trkpt lat="44.53710980089498" lon="8.008642371133272"><ele>569.0</ele><time>2026-04-12T10:28:59Z</time></trkpt><trkpt lat="44.53709800620785" lon="8.00874827142726"><ele>569.0</ele><time>2026-04-12T10:29:00Z</time></trkpt><trkpt lat="44.53708135799249" lon="8.008845902283118"><ele>569.0</ele><time>2026-04-12T10:29:01Z</time></trkpt><trkpt lat="44.537052584393656" lon="8.008949550750636"><ele>562.2</ele><time>2026-04-12T10:29:02Z</time></trkpt><trkpt lat="44.537038781261856" lon="8.009065428039971"><ele>555.4</ele><time>2026-04-12T10:29:03Z</time></trkpt><trkpt lat="44.53702073334053" lon="8.009183149624354"><ele>548.6</ele><time>2026-04-12T10:29:04Z</time></trkpt><trkpt lat="44.53703025462695" lon="8.009317444206463"><ele>541.8</ele><time>2026-04-12T10:29:05Z</time></trkpt><trkpt lat="44.53702627951451" lon="8.009448518720008"><ele>535.0</ele><time>2026-04-12T10:29:06Z</time></trkpt><trkpt lat="44.53702118383849" lon="8.009583092484476"><ele>535.0</ele><time>2026-04-12T10:29:07Z</time></trkpt><trkpt lat="44.537019421411344" lon="8.009716171584417"><ele>535.0</ele><time>2026-04-12T10:29:08Z</time></trkpt><trkpt lat="44.53702128670726" lon="8.009850706701602"><ele>535.0</ele><time>2026-04-12T10:29:09Z</time></trkpt><trkpt lat="44.53702328626944" lon="8.009983471039943"><ele>535.0</ele><time>2026-04-12T10:29:10Z</time></trkpt><trkpt lat="44.53702644985061" lon="8.01011203082486"><ele>535.0</ele><time>2026-04-12T10:29:11Z</time></trkpt><trkpt lat="44.53702705518018" lon="8.010237341508105"><ele>534.8333333333334</ele><time>2026-04-12T10:29:12Z</time></trkpt><trkpt lat="44.5370284470472" lon="8.01036155375704"><ele>534.6666666666667</ele><time>2026-04-12T10:29:13Z</time></trkpt><trkpt lat="44.53702536766921" lon="8.010491763605478"><ele>534.5</ele><time>2026-04-12T10:29:14Z</time></trkpt><trkpt lat="44.537014920980006" lon="8.010616291700195"><ele>534.3333333333334</ele><time>2026-04-12T10:29:15Z</time></trkpt><trkpt lat="44.53701080194649" lon="8.010713828710351"><ele>534.1666666666666</ele><time>2026-04-12T10:29:16Z</time></trkpt><trkpt lat="44.537010731059894" lon="8.010818146350768"><ele>534.0</ele><time>2026-04-12T10:29:17Z</time></trkpt><trkpt lat="44.53698630278088" lon="8.010927818600262"><ele>533.3333333333334</ele><time>2026-04-12T10:29:18Z</time></trkpt><trkpt lat="44.53697158931003" lon="8.011040148007256"><ele>532.6666666666666</ele><time>2026-04-12T10:29:19Z</time></trkpt><trkpt lat="44.53694997531172" lon="8.011140489417407"><ele>532.0</ele><time>2026-04-12T10:29:20Z</time></trkpt><trkpt lat="44.53694444076973" lon="8.01125356586492"><ele>531.3333333333333</ele><time>2026-04-12T10:29:22Z</time></trkpt><trkpt lat="44.53687095584279" lon="8.011350920174506"><ele>530.6666666666666</ele><time>2026-04-12T10:29:23Z</time></trkpt><trkpt lat="44.5368004862764" lon="8.011420716852813"><ele>530.0</ele><time>2026-04-12T10:29:24Z</time></trkpt><trkpt lat="44.5367342169496" lon="8.011475578450549"><ele>530.0</ele><time>2026-04-12T10:29:25Z</time></trkpt><trkpt lat="44.53666367912632" lon="8.011484074283524"><ele>530.0</ele><time>2026-04-12T10:29:27Z</time></trkpt><trkpt lat="44.53657640922158" lon="8.011510744774643"><ele>530.0</ele><time>2026-04-12T10:29:29Z</time></trkpt><trkpt lat="44.536565369918584" lon="8.011637873996566"><ele>530.0</ele><time>2026-04-12T10:29:32Z</time></trkpt><trkpt lat="44.53659894303015" lon="8.011736399810621"><ele>530.0</ele><time>2026-04-12T10:29:34Z</time></trkpt><trkpt lat="44.53663905036544" lon="8.011852967381571"><ele>530.0</ele><time>2026-04-12T10:29:36Z</time></trkpt><trkpt lat="44.536672185640086" lon="8.011957639425754"><ele>529.0</ele><time>2026-04-12T10:29:38Z</time></trkpt><trkpt lat="44.53671062266189" lon="8.01208571193096"><ele>528.0</ele><time>2026-04-12T10:29:40Z</time></trkpt><trkpt lat="44.53678206328903" lon="8.01219756965266"><ele>527.0</ele><time>2026-04-12T10:29:42Z</time></trkpt><trkpt lat="44.53684728061261" lon="8.012326479124605"><ele>526.0</ele><time>2026-04-12T10:29:44Z</time></trkpt><trkpt lat="44.53690818439368" lon="8.01245121573541"><ele>525.0</ele><time>2026-04-12T10:29:45.999Z</time></trkpt><trkpt lat="44.536961591428756" lon="8.012590821512875"><ele>524.3333333333334</ele><time>2026-04-12T10:29:47.999Z</time></trkpt><trkpt lat="44.53701333651008" lon="8.01273105933947"><ele>523.6666666666666</ele><time>2026-04-12T10:29:49.999Z</time></trkpt><trkpt lat="44.53704099613341" lon="8.012810475286626"><ele>523.0</ele><time>2026-04-12T10:29:50.999Z</time></trkpt><trkpt lat="44.53705198020091" lon="8.012975956579506"><ele>522.3333333333333</ele><time>2026-04-12T10:29:52.999Z</time></trkpt><trkpt lat="44.53706394437501" lon="8.013065963165188"><ele>521.6666666666666</ele><time>2026-04-12T10:29:53.999Z</time></trkpt><trkpt lat="44.53704153265172" lon="8.013156408585946"><ele>521.0</ele><time>2026-04-12T10:29:54.999Z</time></trkpt><trkpt lat="44.53703038437891" lon="8.013245740436838"><ele>520.3333333333333</ele><time>2026-04-12T10:29:55.999Z</time></trkpt><trkpt lat="44.53701845787074" lon="8.013334757218573"><ele>519.6666666666666</ele><time>2026-04-12T10:29:56.999Z</time></trkpt><trkpt lat="44.537000378437995" lon="8.013432836969375"><ele>519.0</ele><time>2026-04-12T10:29:57.999Z</time></trkpt><trkpt lat="44.53697863173778" lon="8.013528140402839"><ele>518.3333333333334</ele><time>2026-04-12T10:29:58.999Z</time></trkpt><trkpt lat="44.536960868694884" lon="8.013625273915572"><ele>517.6666666666667</ele><time>2026-04-12T10:29:59.999Z</time></trkpt><trkpt lat="44.53693425007012" lon="8.013709755196517"><ele>517.0</ele><time>2026-04-12T10:30:00.999Z</time></trkpt><trkpt lat="44.53689604820281" lon="8.013865616969488"><ele>517.0</ele><time>2026-04-12T10:30:02.999Z</time></trkpt><trkpt lat="44.53685368160378" lon="8.014001343210445"><ele>517.0</ele><time>2026-04-12T10:30:04.999Z</time></trkpt><trkpt lat="44.536825532234644" lon="8.014114432373526"><ele>517.0</ele><time>2026-04-12T10:30:06.999Z</time></trkpt><trkpt lat="44.536777598896485" lon="8.014211473557914"><ele>517.0</ele><time>2026-04-12T10:30:07.999Z</time></trkpt><trkpt lat="44.536718837352225" lon="8.01426958283018"><ele>517.0</ele><time>2026-04-12T10:30:08.999Z</time></trkpt><trkpt lat="44.5366531973251" lon="8.014292148644264"><ele>517.0</ele><time>2026-04-12T10:30:09.999Z</time></trkpt><trkpt lat="44.53657398462362" lon="8.014322406051953"><ele>517.2</ele><time>2026-04-12T10:30:10.999Z</time></trkpt><trkpt lat="44.53650072422097" lon="8.01433497968455"><ele>517.4000000000001</ele><time>2026-04-12T10:30:11.999Z</time></trkpt><trkpt lat="44.53637919823462" lon="8.014311834031494"><ele>517.5999999999999</ele><time>2026-04-12T10:30:13.999Z</time></trkpt><trkpt lat="44.53631737945249" lon="8.01429421000063"><ele>517.8</ele><time>2026-04-12T10:30:14.999Z</time></trkpt><trkpt lat="44.53619736511196" lon="8.014254289926544"><ele>518.0</ele><time>2026-04-12T10:30:16.999Z</time></trkpt><trkpt lat="44.53609493587762" lon="8.014211004524174"><ele>518.4</ele><time>2026-04-12T10:30:18.999Z</time></trkpt><trkpt lat="44.536001521379866" lon="8.014160080008697"><ele>518.8</ele><time>2026-04-12T10:30:20.999Z</time></trkpt><trkpt lat="44.535919075498285" lon="8.014081829358874"><ele>519.2</ele><time>2026-04-12T10:30:22.999Z</time></trkpt><trkpt lat="44.535872504347566" lon="8.013982936898289"><ele>519.6</ele><time>2026-04-12T10:30:24.999Z</time></trkpt><trkpt lat="44.53582070400775" lon="8.013888133551596"><ele>520.0</ele><time>2026-04-12T10:30:26.999Z</time></trkpt><trkpt lat="44.53576914401714" lon="8.013768629384556"><ele>520.5</ele><time>2026-04-12T10:30:28.999Z</time></trkpt><trkpt lat="44.53572714312569" lon="8.013685300143283"><ele>521.0</ele><time>2026-04-12T10:30:30.999Z</time></trkpt><trkpt lat="44.53565098676706" lon="8.013606962606309"><ele>521.5</ele><time>2026-04-12T10:30:32.999Z</time></trkpt><trkpt lat="44.53557526792764" lon="8.013552623130648"><ele>522.0</ele><time>2026-04-12T10:30:34.999Z</time></trkpt><trkpt lat="44.535498378536616" lon="8.013513827375943"><ele>522.5</ele><time>2026-04-12T10:30:36.999Z</time></trkpt><trkpt lat="44.535434683052046" lon="8.013477337738598"><ele>523.0</ele><time>2026-04-12T10:30:37.999Z</time></trkpt><trkpt lat="44.535352798085675" lon="8.013420880126246"><ele>523.0</ele><time>2026-04-12T10:30:39.999Z</time></trkpt><trkpt lat="44.535257873859045" lon="8.013372588345995"><ele>523.0</ele><time>2026-04-12T10:30:41.999Z</time></trkpt><trkpt lat="44.53518191702317" lon="8.013327539176833"><ele>523.0</ele><time>2026-04-12T10:30:43.999Z</time></trkpt><trkpt lat="44.53509456187607" lon="8.01328187869704"><ele>523.0</ele><time>2026-04-12T10:30:45.999Z</time></trkpt><trkpt lat="44.535017179518015" lon="8.01324649716746"><ele>523.0</ele><time>2026-04-12T10:30:47.999Z</time></trkpt><trkpt lat="44.534928491893126" lon="8.013213728901782"><ele>522.8</ele><time>2026-04-12T10:30:49.999Z</time></trkpt><trkpt lat="44.53484173358444" lon="8.013154455835185"><ele>522.5999999999999</ele><time>2026-04-12T10:30:53.999Z</time></trkpt><trkpt lat="44.53476742856308" lon="8.013144732877365"><ele>522.4000000000001</ele><time>2026-04-12T10:30:55.999Z</time></trkpt><trkpt lat="44.53468379036858" lon="8.01311065555618"><ele>522.2</ele><time>2026-04-12T10:30:58.998Z</time></trkpt><trkpt lat="44.534546433328224" lon="8.013132200054805"><ele>522.0</ele><time>2026-04-12T10:31:03Z</time></trkpt><trkpt lat="44.53445367842161" lon="8.01306726856808"><ele>522.0</ele><time>2026-04-12T10:31:07Z</time></trkpt><trkpt lat="44.53438453691276" lon="8.013064449251136"><ele>522.0</ele><time>2026-04-12T10:31:09Z</time></trkpt><trkpt lat="44.53432063566182" lon="8.01306804321597"><ele>522.0</ele><time>2026-04-12T10:31:12Z</time></trkpt><trkpt lat="44.53424191370313" lon="8.013049623745465"><ele>522.0</ele><time>2026-04-12T10:31:15Z</time></trkpt><trkpt lat="44.534133103450586" lon="8.013045258842114"><ele>522.0</ele><time>2026-04-12T10:31:17Z</time></trkpt><trkpt lat="44.53406738475241" lon="8.013039188377107"><ele>522.0</ele><time>2026-04-12T10:31:18Z</time></trkpt><trkpt lat="44.53395688000756" lon="8.013043528056782"><ele>522.0</ele><time>2026-04-12T10:31:20Z</time></trkpt><trkpt lat="44.533875811205085" lon="8.013041770305152"><ele>522.0</ele><time>2026-04-12T10:31:22Z</time></trkpt><trkpt lat="44.53381221795099" lon="8.013026180989232"><ele>522.0</ele><time>2026-04-12T10:31:24Z</time></trkpt><trkpt lat="44.53373549852851" lon="8.013011492772486"><ele>522.0</ele><time>2026-04-12T10:31:29Z</time></trkpt><trkpt lat="44.5336190385849" lon="8.013071132612856"><ele>522.0</ele><time>2026-04-12T10:37:50Z</time></trkpt><trkpt lat="44.533549841912944" lon="8.013043864968957"><ele>522.0</ele><time>2026-04-12T10:38:10Z</time></trkpt><trkpt lat="44.53348298261063" lon="8.013016612304527"><ele>522.5714285714286</ele><time>2026-04-12T10:38:13.999Z</time></trkpt><trkpt lat="44.533420928711486" lon="8.012994086128893"><ele>523.1428571428571</ele><time>2026-04-12T10:38:16.999Z</time></trkpt><trkpt lat="44.5333552798803" lon="8.01298458471951"><ele>523.7142857142857</ele><time>2026-04-12T10:38:19.999Z</time></trkpt><trkpt lat="44.53328368481486" lon="8.012967940239143"><ele>524.2857142857142</ele><time>2026-04-12T10:38:22.999Z</time></trkpt><trkpt lat="44.53321175995748" lon="8.012949512755306"><ele>524.8571428571428</ele><time>2026-04-12T10:38:25.999Z</time></trkpt><trkpt lat="44.533142508493135" lon="8.012938840038867"><ele>525.4285714285714</ele><time>2026-04-12T10:38:28.999Z</time></trkpt><trkpt lat="44.53306911448118" lon="8.0129168570079"><ele>526.0</ele><time>2026-04-12T10:38:31.999Z</time></trkpt><trkpt lat="44.53299181419733" lon="8.01292249260814"><ele>526.0</ele><time>2026-04-12T10:38:34.999Z</time></trkpt><trkpt lat="44.53292326576641" lon="8.012907214781865"><ele>526.0</ele><time>2026-04-12T10:38:37.999Z</time></trkpt><trkpt lat="44.5328591073145" lon="8.01289841455328"><ele>526.0</ele><time>2026-04-12T10:38:40.999Z</time></trkpt><trkpt lat="44.532794030792104" lon="8.01289344920709"><ele>526.0</ele><time>2026-04-12T10:38:43.999Z</time></trkpt><trkpt lat="44.53271023895939" lon="8.012890336043558"><ele>526.0</ele><time>2026-04-12T10:38:47.999Z</time></trkpt><trkpt lat="44.53264272916619" lon="8.012896608772607"><ele>526.0</ele><time>2026-04-12T10:38:50.999Z</time></trkpt><trkpt lat="44.53257425801069" lon="8.012896832501315"><ele>526.0</ele><time>2026-04-12T10:38:53.999Z</time></trkpt><trkpt lat="44.53249285122679" lon="8.012912407196282"><ele>527.4285714285714</ele><time>2026-04-12T10:38:57.999Z</time></trkpt><trkpt lat="44.53241563427813" lon="8.01291263208975"><ele>528.8571428571428</ele><time>2026-04-12T10:39:01.999Z</time></trkpt><trkpt lat="44.532349652664166" lon="8.012895240543742"><ele>530.2857142857142</ele><time>2026-04-12T10:39:05.999Z</time></trkpt><trkpt lat="44.532285744625646" lon="8.01287557098796"><ele>531.7142857142857</ele><time>2026-04-12T10:39:09.999Z</time></trkpt><trkpt lat="44.532219703881225" lon="8.012844647629828"><ele>533.1428571428571</ele><time>2026-04-12T10:39:13.999Z</time></trkpt><trkpt lat="44.53215904736255" lon="8.012799961953828"><ele>534.5714285714286</ele><time>2026-04-12T10:39:17.999Z</time></trkpt><trkpt lat="44.5321008291495" lon="8.012740831974382"><ele>536.0</ele><time>2026-04-12T10:39:21.998Z</time></trkpt><trkpt lat="44.53203370718014" lon="8.012675907863166"><ele>537.1428571428571</ele><time>2026-04-12T10:39:26Z</time></trkpt><trkpt lat="44.53196376620997" lon="8.012633805110143"><ele>538.2857142857142</ele><time>2026-04-12T10:39:30Z</time></trkpt><trkpt lat="44.53189220662886" lon="8.012569876482235"><ele>539.4285714285713</ele><time>2026-04-12T10:39:34Z</time></trkpt><trkpt lat="44.53183754203829" lon="8.012499413598798"><ele>540.5714285714286</ele><time>2026-04-12T10:39:38Z</time></trkpt><trkpt lat="44.53178834260457" lon="8.012430746388086"><ele>541.7142857142857</ele><time>2026-04-12T10:39:42Z</time></trkpt><trkpt lat="44.5317550153369" lon="8.012355050264652"><ele>542.8571428571428</ele><time>2026-04-12T10:39:45Z</time></trkpt><trkpt lat="44.53173008009166" lon="8.01226954754274"><ele>544.0</ele><time>2026-04-12T10:39:48Z</time></trkpt><trkpt lat="44.531712812504566" lon="8.012160271302283"><ele>543.9999999999999</ele><time>2026-04-12T10:39:52Z</time></trkpt><trkpt lat="44.531679905294276" lon="8.012059273301341"><ele>544.0</ele><time>2026-04-12T10:39:56Z</time></trkpt><trkpt lat="44.53166114188098" lon="8.01196750202997"><ele>544.0</ele><time>2026-04-12T10:40:00Z</time></trkpt><trkpt lat="44.531639228023614" lon="8.011882751297916"><ele>544.0</ele><time>2026-04-12T10:40:03Z</time></trkpt><trkpt lat="44.531612781828755" lon="8.011786328864881"><ele>544.0</ele><time>2026-04-12T10:40:07Z</time></trkpt><trkpt lat="44.53159908297802" lon="8.011685219297279"><ele>543.9999999999999</ele><time>2026-04-12T10:40:11Z</time></trkpt><trkpt lat="44.53158763207362" lon="8.011596580690128"><ele>544.0</ele><time>2026-04-12T10:40:15Z</time></trkpt><trkpt lat="44.531561053546014" lon="8.011494083052625"><ele>543.5714285714286</ele><time>2026-04-12T10:40:19.999Z</time></trkpt><trkpt lat="44.531527981018606" lon="8.011398825192359"><ele>543.1428571428571</ele><time>2026-04-12T10:40:24.999Z</time></trkpt><trkpt lat="44.53150743423736" lon="8.011302693714079"><ele>542.7142857142858</ele><time>2026-04-12T10:40:29.999Z</time></trkpt><trkpt lat="44.53147330457564" lon="8.011214206418263"><ele>542.2857142857142</ele><time>2026-04-12T10:40:33.999Z</time></trkpt><trkpt lat="44.531443594214906" lon="8.011120565492568"><ele>541.8571428571429</ele><time>2026-04-12T10:40:37.999Z</time></trkpt><trkpt lat="44.53140373975346" lon="8.011022741584526"><ele>541.4285714285714</ele><time>2026-04-12T10:40:41.999Z</time></trkpt><trkpt lat="44.53137636919345" lon="8.01093364758275"><ele>541.0</ele><time>2026-04-12T10:40:44.999Z</time></trkpt><trkpt lat="44.5313529939212" lon="8.010846489441104"><ele>540.2857142857143</ele><time>2026-04-12T10:40:47.999Z</time></trkpt><trkpt lat="44.531331851248936" lon="8.010744303877313"><ele>539.5714285714286</ele><time>2026-04-12T10:40:51.999Z</time></trkpt><trkpt lat="44.53131055255949" lon="8.01065939935286"><ele>538.8571428571429</ele><time>2026-04-12T10:40:54.999Z</time></trkpt><trkpt lat="44.53130154840083" lon="8.01054456270448"><ele>538.1428571428571</ele><time>2026-04-12T10:40:58.999Z</time></trkpt><trkpt lat="44.53129669028337" lon="8.010440269348868"><ele>537.4285714285714</ele><time>2026-04-12T10:41:02.999Z</time></trkpt><trkpt lat="44.531295221600715" lon="8.010344615112581"><ele>536.7142857142858</ele><time>2026-04-12T10:41:08.999Z</time></trkpt><trkpt lat="44.53128724696098" lon="8.010253587068028"><ele>536.0</ele><time>2026-04-12T10:41:46Z</time></trkpt><trkpt lat="44.53126704836574" lon="8.010145006199945"><ele>536.0</ele><time>2026-04-12T10:41:50Z</time></trkpt><trkpt lat="44.53124979771536" lon="8.010050065862833"><ele>536.0</ele><time>2026-04-12T10:41:52Z</time></trkpt><trkpt lat="44.53123402467844" lon="8.00995261700191"><ele>536.0</ele><time>2026-04-12T10:41:54Z</time></trkpt><trkpt lat="44.531206848848385" lon="8.009853340522492"><ele>536.0</ele><time>2026-04-12T10:41:56Z</time></trkpt><trkpt lat="44.53118283064249" lon="8.009748822318711"><ele>536.0</ele><time>2026-04-12T10:41:58Z</time></trkpt><trkpt lat="44.53115154705009" lon="8.009623667446077"><ele>536.0</ele><time>2026-04-12T10:42:00Z</time></trkpt><trkpt lat="44.53111130865925" lon="8.009511076101832"><ele>537.0</ele><time>2026-04-12T10:42:02Z</time></trkpt><trkpt lat="44.53106341973301" lon="8.009383414093088"><ele>538.0</ele><time>2026-04-12T10:42:04Z</time></trkpt><trkpt lat="44.53101842684784" lon="8.009266641399892"><ele>539.0</ele><time>2026-04-12T10:42:06Z</time></trkpt><trkpt lat="44.53096545387617" lon="8.009139289596293"><ele>540.0</ele><time>2026-04-12T10:42:08Z</time></trkpt><trkpt lat="44.53091190330971" lon="8.00900341437529"><ele>541.0</ele><time>2026-04-12T10:42:10Z</time></trkpt><trkpt lat="44.53087062574634" lon="8.00883079073104"><ele>541.0</ele><time>2026-04-12T10:42:12Z</time></trkpt><trkpt lat="44.530840398947454" lon="8.008656468422515"><ele>541.0</ele><time>2026-04-12T10:42:14Z</time></trkpt><trkpt lat="44.53080119236901" lon="8.008480832838826"><ele>541.0</ele><time>2026-04-12T10:42:16Z</time></trkpt><trkpt lat="44.53077845862207" lon="8.008389167567257"><ele>541.0</ele><time>2026-04-12T10:42:17Z</time></trkpt><trkpt lat="44.53075801798879" lon="8.008295602998137"><ele>541.0</ele><time>2026-04-12T10:42:18Z</time></trkpt><trkpt lat="44.53071120302135" lon="8.008115859455884"><ele>539.4</ele><time>2026-04-12T10:42:20Z</time></trkpt><trkpt lat="44.530662895297375" lon="8.007959827231193"><ele>537.8</ele><time>2026-04-12T10:42:22Z</time></trkpt><trkpt lat="44.530634656885965" lon="8.00787876571536"><ele>536.1999999999999</ele><time>2026-04-12T10:42:22.999Z</time></trkpt><trkpt lat="44.53060193716614" lon="8.007794535202995"><ele>534.6</ele><time>2026-04-12T10:42:23.999Z</time></trkpt><trkpt lat="44.530529996837735" lon="8.007649750388941"><ele>533.0</ele><time>2026-04-12T10:42:25.999Z</time></trkpt><trkpt lat="44.53046875124717" lon="8.007515526378056"><ele>533.5</ele><time>2026-04-12T10:42:27.999Z</time></trkpt><trkpt lat="44.53040397891483" lon="8.007391603606331"><ele>534.0</ele><time>2026-04-12T10:42:29.999Z</time></trkpt><trkpt lat="44.53033465782162" lon="8.007256848147595"><ele>534.5</ele><time>2026-04-12T10:42:31.999Z</time></trkpt><trkpt lat="44.5302908950471" lon="8.007190845637501"><ele>535.0</ele><time>2026-04-12T10:42:32.999Z</time></trkpt><trkpt lat="44.530238579793554" lon="8.007122484506876"><ele>535.5</ele><time>2026-04-12T10:42:33.999Z</time></trkpt><trkpt lat="44.53018603298591" lon="8.007042280864422"><ele>536.0</ele><time>2026-04-12T10:42:34.999Z</time></trkpt><trkpt lat="44.53014614909232" lon="8.00697192294833"><ele>536.0</ele><time>2026-04-12T10:42:35.999Z</time></trkpt><trkpt lat="44.53010093909896" lon="8.006906060673364"><ele>536.0</ele><time>2026-04-12T10:42:36.999Z</time></trkpt><trkpt lat="44.53005815808302" lon="8.006840053136346"><ele>536.0</ele><time>2026-04-12T10:42:37.999Z</time></trkpt><trkpt lat="44.530007228026875" lon="8.006761853715636"><ele>536.0</ele><time>2026-04-12T10:42:38.999Z</time></trkpt><trkpt lat="44.529949414636555" lon="8.006686346291161"><ele>536.0</ele><time>2026-04-12T10:42:39.999Z</time></trkpt><trkpt lat="44.52989364584739" lon="8.006621508898412"><ele>536.0</ele><time>2026-04-12T10:42:40.999Z</time></trkpt><trkpt lat="44.52982834296846" lon="8.006566819683421"><ele>536.0</ele><time>2026-04-12T10:42:41.999Z</time></trkpt><trkpt lat="44.52975242392019" lon="8.006514466418409"><ele>535.6</ele><time>2026-04-12T10:42:42.999Z</time></trkpt><trkpt lat="44.529684365148015" lon="8.006485970026228"><ele>535.2</ele><time>2026-04-12T10:42:43.999Z</time></trkpt><trkpt lat="44.529607947629536" lon="8.006471914333975"><ele>534.8</ele><time>2026-04-12T10:42:44.999Z</time></trkpt><trkpt lat="44.529534671089934" lon="8.006468223914467"><ele>534.4</ele><time>2026-04-12T10:42:45.999Z</time></trkpt><trkpt lat="44.52940766589298" lon="8.00649064092531"><ele>534.0</ele><time>2026-04-12T10:42:47.999Z</time></trkpt><trkpt lat="44.52929179811182" lon="8.006486704221329"><ele>534.0</ele><time>2026-04-12T10:42:49.999Z</time></trkpt><trkpt lat="44.52918520245376" lon="8.006449175594222"><ele>534.0</ele><time>2026-04-12T10:42:51.999Z</time></trkpt><trkpt lat="44.52908258572616" lon="8.00635852207009"><ele>534.0</ele><time>2026-04-12T10:42:53.999Z</time></trkpt><trkpt lat="44.52900228874384" lon="8.006241346070297"><ele>534.0</ele><time>2026-04-12T10:42:55.999Z</time></trkpt><trkpt lat="44.5289289977889" lon="8.006123782579106"><ele>534.0</ele><time>2026-04-12T10:42:57.999Z</time></trkpt><trkpt lat="44.52885620795921" lon="8.006007506236193"><ele>534.0</ele><time>2026-04-12T10:42:59.999Z</time></trkpt><trkpt lat="44.528781333259474" lon="8.0058905132711"><ele>534.0</ele><time>2026-04-12T10:43:01.999Z</time></trkpt><trkpt lat="44.528699365362925" lon="8.005774336356534"><ele>534.0</ele><time>2026-04-12T10:43:03.999Z</time></trkpt><trkpt lat="44.52861804880278" lon="8.00565569273895"><ele>535.2</ele><time>2026-04-12T10:43:05.999Z</time></trkpt><trkpt lat="44.52853826433386" lon="8.005540367706892"><ele>536.4</ele><time>2026-04-12T10:43:07.999Z</time></trkpt><trkpt lat="44.52846279064874" lon="8.0054321450717"><ele>537.6</ele><time>2026-04-12T10:43:09.999Z</time></trkpt><trkpt lat="44.52839402065717" lon="8.005340578336147"><ele>538.8</ele><time>2026-04-12T10:43:11.999Z</time></trkpt><trkpt lat="44.52834285038315" lon="8.005260233756553"><ele>540.0</ele><time>2026-04-12T10:43:13.999Z</time></trkpt><trkpt lat="44.528269034505335" lon="8.005164340470303"><ele>540.0</ele><time>2026-04-12T10:43:15.999Z</time></trkpt><trkpt lat="44.52820444978578" lon="8.005083919546282"><ele>540.0</ele><time>2026-04-12T10:43:17.999Z</time></trkpt><trkpt lat="44.52814589680163" lon="8.005027393977105"><ele>540.0</ele><time>2026-04-12T10:43:19.999Z</time></trkpt><trkpt lat="44.5280652879122" lon="8.004962129772798"><ele>540.0</ele><time>2026-04-12T10:43:22.999Z</time></trkpt><trkpt lat="44.527987802104974" lon="8.004904617844542"><ele>540.0</ele><time>2026-04-12T10:43:24.999Z</time></trkpt><trkpt lat="44.527926345591425" lon="8.004830304190085"><ele>540.0</ele><time>2026-04-12T10:43:26.999Z</time></trkpt><trkpt lat="44.527856842321015" lon="8.004771846696622"><ele>541.5</ele><time>2026-04-12T10:43:28.999Z</time></trkpt><trkpt lat="44.527796109260095" lon="8.004721209909794"><ele>543.0</ele><time>2026-04-12T10:43:30.999Z</time></trkpt><trkpt lat="44.52772252852889" lon="8.004643895449583"><ele>544.5</ele><time>2026-04-12T10:43:32.999Z</time></trkpt><trkpt lat="44.52766389029948" lon="8.00457273136085"><ele>546.0</ele><time>2026-04-12T10:43:34.998Z</time></trkpt><trkpt lat="44.52760419774427" lon="8.00449409692265"><ele>547.5</ele><time>2026-04-12T10:43:39Z</time></trkpt><trkpt lat="44.52754332022604" lon="8.004401502279945"><ele>549.0</ele><time>2026-04-12T10:43:42Z</time></trkpt><trkpt lat="44.527498577149956" lon="8.004333699695213"><ele>549.0</ele><time>2026-04-12T10:43:45Z</time></trkpt><trkpt lat="44.52743914839144" lon="8.004247784440526"><ele>549.0</ele><time>2026-04-12T10:43:48Z</time></trkpt><trkpt lat="44.527391117817366" lon="8.004181319533767"><ele>549.0</ele><time>2026-04-12T10:43:50Z</time></trkpt><trkpt lat="44.5273390907582" lon="8.004117584478879"><ele>549.0</ele><time>2026-04-12T10:43:52Z</time></trkpt><trkpt lat="44.52728810442055" lon="8.004052422993844"><ele>549.0</ele><time>2026-04-12T10:43:54Z</time></trkpt><trkpt lat="44.52722950076753" lon="8.003980351352787"><ele>549.0</ele><time>2026-04-12T10:43:56Z</time></trkpt><trkpt lat="44.527174300834695" lon="8.003935314317587"><ele>549.0</ele><time>2026-04-12T10:43:58Z</time></trkpt><trkpt lat="44.52711755320923" lon="8.003882033961167"><ele>549.8333333333334</ele><time>2026-04-12T10:44:00Z</time></trkpt><trkpt lat="44.527049224970135" lon="8.00382638941"><ele>550.6666666666666</ele><time>2026-04-12T10:44:02Z</time></trkpt><trkpt lat="44.52696961568435" lon="8.003760489830503"><ele>551.5</ele><time>2026-04-12T10:44:04Z</time></trkpt><trkpt lat="44.526900963313686" lon="8.00370698890879"><ele>552.3333333333333</ele><time>2026-04-12T10:44:07Z</time></trkpt><trkpt lat="44.526836611241336" lon="8.003675976268095"><ele>553.1666666666666</ele><time>2026-04-12T10:44:09Z</time></trkpt><trkpt lat="44.52676864775811" lon="8.00363550087053"><ele>554.0</ele><time>2026-04-12T10:44:12Z</time></trkpt><trkpt lat="44.52667322719577" lon="8.003571836687195"><ele>554.0</ele><time>2026-04-12T10:44:15Z</time></trkpt><trkpt lat="44.52657572290656" lon="8.003516252134894"><ele>554.0</ele><time>2026-04-12T10:44:17Z</time></trkpt><trkpt lat="44.52648906903042" lon="8.003449293815573"><ele>554.0</ele><time>2026-04-12T10:44:19Z</time></trkpt><trkpt lat="44.52639395407477" lon="8.003408774811607"><ele>554.0</ele><time>2026-04-12T10:44:21Z</time></trkpt><trkpt lat="44.52629262365933" lon="8.003358764684785"><ele>554.0</ele><time>2026-04-12T10:44:23Z</time></trkpt><trkpt lat="44.52618487552111" lon="8.003295095241848"><ele>554.0</ele><time>2026-04-12T10:44:25Z</time></trkpt><trkpt lat="44.52611263071107" lon="8.00324135486456"><ele>554.0</ele><time>2026-04-12T10:44:26Z</time></trkpt><trkpt lat="44.52605386448687" lon="8.003205462931188"><ele>554.0</ele><time>2026-04-12T10:44:27Z</time></trkpt><trkpt lat="44.52599878571387" lon="8.003152888918551"><ele>554.0</ele><time>2026-04-12T10:44:27.999Z</time></trkpt><trkpt lat="44.52594374578266" lon="8.00308901826194"><ele>554.0</ele><time>2026-04-12T10:44:28.999Z</time></trkpt><trkpt lat="44.52589916637979" lon="8.003026106480728"><ele>554.0</ele><time>2026-04-12T10:44:29.999Z</time></trkpt><trkpt lat="44.5258540547411" lon="8.002958033436355"><ele>554.0</ele><time>2026-04-12T10:44:30.999Z</time></trkpt><trkpt lat="44.52579727859145" lon="8.002889913034874"><ele>554.0</ele><time>2026-04-12T10:44:31.999Z</time></trkpt><trkpt lat="44.52574673564302" lon="8.002821595776352"><ele>554.0</ele><time>2026-04-12T10:44:32.999Z</time></trkpt><trkpt lat="44.52570301180574" lon="8.002757778875544"><ele>554.0</ele><time>2026-04-12T10:44:33.999Z</time></trkpt><trkpt lat="44.52562209850962" lon="8.002659284119327"><ele>554.0</ele><time>2026-04-12T10:44:35.999Z</time></trkpt><trkpt lat="44.525533908560256" lon="8.002550432752374"><ele>554.0</ele><time>2026-04-12T10:44:37.999Z</time></trkpt><trkpt lat="44.52548871560923" lon="8.002481555042054"><ele>554.0</ele><time>2026-04-12T10:44:38.999Z</time></trkpt><trkpt lat="44.525405083416416" lon="8.002393413958877"><ele>553.2</ele><time>2026-04-12T10:44:40.999Z</time></trkpt><trkpt lat="44.525311043826356" lon="8.002298622060728"><ele>552.4</ele><time>2026-04-12T10:44:42.999Z</time></trkpt><trkpt lat="44.52522952657604" lon="8.002214207201638"><ele>551.6</ele><time>2026-04-12T10:44:44.999Z</time></trkpt><trkpt lat="44.52516311499579" lon="8.002142465244109"><ele>550.8</ele><time>2026-04-12T10:44:46.999Z</time></trkpt><trkpt lat="44.525084567441" lon="8.002051599932658"><ele>550.0</ele><time>2026-04-12T10:44:48.999Z</time></trkpt><trkpt lat="44.525008687125464" lon="8.001970065720107"><ele>550.0</ele><time>2026-04-12T10:44:50.999Z</time></trkpt><trkpt lat="44.52493879793013" lon="8.001887473142537"><ele>550.0</ele><time>2026-04-12T10:44:52.999Z</time></trkpt><trkpt lat="44.52485847989938" lon="8.001800152480767"><ele>550.0</ele><time>2026-04-12T10:44:54.999Z</time></trkpt><trkpt lat="44.52476002677055" lon="8.001701077012694"><ele>550.0</ele><time>2026-04-12T10:44:56.999Z</time></trkpt><trkpt lat="44.52470792059817" lon="8.001651155693125"><ele>550.0</ele><time>2026-04-12T10:44:57.999Z</time></trkpt><trkpt lat="44.524652827958334" lon="8.001577215127446"><ele>548.8</ele><time>2026-04-12T10:44:58.999Z</time></trkpt><trkpt lat="44.524591453423064" lon="8.001495666210703"><ele>547.6</ele><time>2026-04-12T10:44:59.999Z</time></trkpt><trkpt lat="44.524524028872" lon="8.001399471851482"><ele>546.4</ele><time>2026-04-12T10:45:00.999Z</time></trkpt><trkpt lat="44.524460337984536" lon="8.001300790983867"><ele>545.2</ele><time>2026-04-12T10:45:01.999Z</time></trkpt><trkpt lat="44.52439879130271" lon="8.001201433624809"><ele>544.0</ele><time>2026-04-12T10:45:02.999Z</time></trkpt><trkpt lat="44.52433049193694" lon="8.001104820290596"><ele>544.0</ele><time>2026-04-12T10:45:03.999Z</time></trkpt><trkpt lat="44.52426931702674" lon="8.001007272192734"><ele>544.0</ele><time>2026-04-12T10:45:04.999Z</time></trkpt><trkpt lat="44.52421317462034" lon="8.000910975678755"><ele>544.0</ele><time>2026-04-12T10:45:05.999Z</time></trkpt><trkpt lat="44.524149217006" lon="8.000803295403136"><ele>544.0</ele><time>2026-04-12T10:45:06.999Z</time></trkpt><trkpt lat="44.52408870878845" lon="8.000709936336207"><ele>544.0</ele><time>2026-04-12T10:45:07.999Z</time></trkpt><trkpt lat="44.52402980195464" lon="8.000626667357603"><ele>544.3333333333334</ele><time>2026-04-12T10:45:08.999Z</time></trkpt><trkpt lat="44.52396707821269" lon="8.00054319065713"><ele>544.6666666666667</ele><time>2026-04-12T10:45:09.999Z</time></trkpt><trkpt lat="44.52390515243683" lon="8.000466120380107"><ele>545.0</ele><time>2026-04-12T10:45:10.999Z</time></trkpt><trkpt lat="44.523857208796116" lon="8.00039787393954"><ele>545.3333333333334</ele><time>2026-04-12T10:45:11.999Z</time></trkpt><trkpt lat="44.523818169060085" lon="8.000319389709881"><ele>545.6666666666666</ele><time>2026-04-12T10:45:12.999Z</time></trkpt><trkpt lat="44.52378561868132" lon="8.000237938656841"><ele>546.0</ele><time>2026-04-12T10:45:13.999Z</time></trkpt><trkpt lat="44.52373053317513" lon="8.000088271190641"><ele>544.25</ele><time>2026-04-12T10:45:15.999Z</time></trkpt><trkpt lat="44.523673405074014" lon="7.999945548454244"><ele>542.5</ele><time>2026-04-12T10:45:17.999Z</time></trkpt><trkpt lat="44.523622543646965" lon="7.999808921019021"><ele>540.75</ele><time>2026-04-12T10:45:19.999Z</time></trkpt><trkpt lat="44.52355317372474" lon="7.999663083178719"><ele>539.0</ele><time>2026-04-12T10:45:21.999Z</time></trkpt><trkpt lat="44.523482448468926" lon="7.999518673685196"><ele>539.0</ele><time>2026-04-12T10:45:23.999Z</time></trkpt><trkpt lat="44.523415672554826" lon="7.9993852163830965"><ele>539.0</ele><time>2026-04-12T10:45:25.999Z</time></trkpt><trkpt lat="44.523351146859675" lon="7.999265295612174"><ele>539.0</ele><time>2026-04-12T10:45:27.999Z</time></trkpt><trkpt lat="44.523291182672" lon="7.999154512981026"><ele>539.0</ele><time>2026-04-12T10:45:29.999Z</time></trkpt><trkpt lat="44.523234161340504" lon="7.999062937615682"><ele>539.0</ele><time>2026-04-12T10:45:31.999Z</time></trkpt><trkpt lat="44.523184030505014" lon="7.998984034446068"><ele>538.6666666666666</ele><time>2026-04-12T10:45:33.999Z</time></trkpt><trkpt lat="44.52313128893339" lon="7.998883678563048"><ele>538.3333333333333</ele><time>2026-04-12T10:45:36.999Z</time></trkpt><trkpt lat="44.52308456876561" lon="7.998769198718369"><ele>538.0</ele><time>2026-04-12T10:45:39.998Z</time></trkpt><trkpt lat="44.52302831765871" lon="7.998644857847566"><ele>537.6666666666666</ele><time>2026-04-12T10:45:41.998Z</time></trkpt><trkpt lat="44.522985510388594" lon="7.998569370203289"><ele>537.3333333333334</ele><time>2026-04-12T10:45:43Z</time></trkpt><trkpt lat="44.52294038117193" lon="7.9984942640163785"><ele>537.0</ele><time>2026-04-12T10:45:44Z</time></trkpt><trkpt lat="44.52289239022632" lon="7.998418509688394"><ele>537.0</ele><time>2026-04-12T10:45:45Z</time></trkpt><trkpt lat="44.52283858745189" lon="7.998342660674342"><ele>537.0</ele><time>2026-04-12T10:45:46Z</time></trkpt><trkpt lat="44.522782601802334" lon="7.998263896499827"><ele>537.0</ele><time>2026-04-12T10:45:47Z</time></trkpt><trkpt lat="44.52272944531065" lon="7.9981775912646595"><ele>537.0</ele><time>2026-04-12T10:45:48Z</time></trkpt><trkpt lat="44.52267386227658" lon="7.998088754477728"><ele>537.0</ele><time>2026-04-12T10:45:49Z</time></trkpt><trkpt lat="44.52262089220065" lon="7.997994923723025"><ele>537.0</ele><time>2026-04-12T10:45:50Z</time></trkpt><trkpt lat="44.52257130156863" lon="7.997897405889024"><ele>539.2</ele><time>2026-04-12T10:45:51Z</time></trkpt><trkpt lat="44.52252106482449" lon="7.997793957857411"><ele>541.4000000000001</ele><time>2026-04-12T10:45:52Z</time></trkpt><trkpt lat="44.52247265087058" lon="7.997687208431706"><ele>543.5999999999999</ele><time>2026-04-12T10:45:53Z</time></trkpt><trkpt lat="44.52242666743396" lon="7.997572969566074"><ele>545.8</ele><time>2026-04-12T10:45:54Z</time></trkpt><trkpt lat="44.522376644851306" lon="7.997450818153077"><ele>548.0</ele><time>2026-04-12T10:45:55Z</time></trkpt><trkpt lat="44.522325611223" lon="7.9973314775841775"><ele>548.0</ele><time>2026-04-12T10:45:56Z</time></trkpt><trkpt lat="44.52226359651799" lon="7.997204133286564"><ele>548.0</ele><time>2026-04-12T10:45:57Z</time></trkpt><trkpt lat="44.52220297128944" lon="7.997072364985216"><ele>548.0</ele><time>2026-04-12T10:45:58Z</time></trkpt><trkpt lat="44.52214237535989" lon="7.996942480989618"><ele>548.0</ele><time>2026-04-12T10:45:59Z</time></trkpt><trkpt lat="44.52208060042726" lon="7.996810968042413"><ele>548.0</ele><time>2026-04-12T10:46:00Z</time></trkpt><trkpt lat="44.522010960477054" lon="7.996669796593878"><ele>547.5</ele><time>2026-04-12T10:46:01Z</time></trkpt><trkpt lat="44.52194300769982" lon="7.996529980696153"><ele>547.0</ele><time>2026-04-12T10:46:02Z</time></trkpt><trkpt lat="44.52187973842022" lon="7.996391967104517"><ele>546.5</ele><time>2026-04-12T10:46:03Z</time></trkpt><trkpt lat="44.52181797882997" lon="7.996244778635658"><ele>546.0</ele><time>2026-04-12T10:46:04Z</time></trkpt><trkpt lat="44.52175994181565" lon="7.996106284484986"><ele>546.0</ele><time>2026-04-12T10:46:05Z</time></trkpt><trkpt lat="44.521723317850125" lon="7.99597166889221"><ele>546.0</ele><time>2026-04-12T10:46:06Z</time></trkpt><trkpt lat="44.52168209432982" lon="7.9958336602495566"><ele>546.0</ele><time>2026-04-12T10:46:07Z</time></trkpt><trkpt lat="44.52162979809341" lon="7.995698378515163"><ele>546.0</ele><time>2026-04-12T10:46:08Z</time></trkpt><trkpt lat="44.521574283937085" lon="7.995571540209706"><ele>546.0</ele><time>2026-04-12T10:46:09Z</time></trkpt><trkpt lat="44.521511772476245" lon="7.995443889378905"><ele>545.2</ele><time>2026-04-12T10:46:10Z</time></trkpt><trkpt lat="44.52145609268466" lon="7.995327376167566"><ele>544.4000000000001</ele><time>2026-04-12T10:46:11Z</time></trkpt><trkpt lat="44.5213924845748" lon="7.995224382040697"><ele>543.6</ele><time>2026-04-12T10:46:12Z</time></trkpt><trkpt lat="44.52132189092405" lon="7.995117697045515"><ele>542.8000000000001</ele><time>2026-04-12T10:46:13Z</time></trkpt><trkpt lat="44.52125591105695" lon="7.995022021845174"><ele>542.0</ele><time>2026-04-12T10:46:14Z</time></trkpt><trkpt lat="44.52118524485687" lon="7.994918975973891"><ele>542.0</ele><time>2026-04-12T10:46:15Z</time></trkpt><trkpt lat="44.52111911389537" lon="7.994822829468295"><ele>542.0</ele><time>2026-04-12T10:46:16Z</time></trkpt><trkpt lat="44.521046058749455" lon="7.994718196810876"><ele>542.0</ele><time>2026-04-12T10:46:17Z</time></trkpt><trkpt lat="44.52097800297107" lon="7.994617678268482"><ele>542.0</ele><time>2026-04-12T10:46:18Z</time></trkpt><trkpt lat="44.52091732090727" lon="7.994524974436384"><ele>542.0</ele><time>2026-04-12T10:46:19Z</time></trkpt><trkpt lat="44.52085959453496" lon="7.994439880760487"><ele>542.0</ele><time>2026-04-12T10:46:20Z</time></trkpt><trkpt lat="44.52080751848104" lon="7.99435842294829"><ele>542.0</ele><time>2026-04-12T10:46:21Z</time></trkpt><trkpt lat="44.52075571747254" lon="7.994280528679924"><ele>542.0</ele><time>2026-04-12T10:46:22Z</time></trkpt><trkpt lat="44.520702653154785" lon="7.994212121249624"><ele>542.0</ele><time>2026-04-12T10:46:23Z</time></trkpt><trkpt lat="44.520646106989844" lon="7.99415181015994"><ele>542.0</ele><time>2026-04-12T10:46:24Z</time></trkpt><trkpt lat="44.52058990327891" lon="7.9940974213432785"><ele>542.0</ele><time>2026-04-12T10:46:25Z</time></trkpt><trkpt lat="44.52053156324004" lon="7.99404173928556"><ele>542.0</ele><time>2026-04-12T10:46:26Z</time></trkpt><trkpt lat="44.52047356938323" lon="7.993990232503712"><ele>542.5</ele><time>2026-04-12T10:46:27Z</time></trkpt><trkpt lat="44.52041178702384" lon="7.9939376813047245"><ele>543.0</ele><time>2026-04-12T10:46:28Z</time></trkpt><trkpt lat="44.52035459433708" lon="7.9938882409858785"><ele>543.5</ele><time>2026-04-12T10:46:29Z</time></trkpt><trkpt lat="44.52029869396279" lon="7.99383944989045"><ele>544.0</ele><time>2026-04-12T10:46:30Z</time></trkpt><trkpt lat="44.520242555668524" lon="7.993792496656245"><ele>544.5</ele><time>2026-04-12T10:46:31Z</time></trkpt><trkpt lat="44.52014260911947" lon="7.993700349967586"><ele>545.0</ele><time>2026-04-12T10:46:33Z</time></trkpt><trkpt lat="44.52005885274421" lon="7.99362054920744"><ele>545.0</ele><time>2026-04-12T10:46:34.999Z</time></trkpt><trkpt lat="44.51998440698677" lon="7.993553362776239"><ele>545.0</ele><time>2026-04-12T10:46:36.999Z</time></trkpt><trkpt lat="44.519935630941525" lon="7.993491604632936"><ele>545.0</ele><time>2026-04-12T10:46:38.999Z</time></trkpt><trkpt lat="44.519974236189384" lon="7.993402339146153"><ele>545.0</ele><time>2026-04-12T10:46:40.999Z</time></trkpt><trkpt lat="44.52009252521498" lon="7.9934353892178125"><ele>545.0</ele><time>2026-04-12T10:46:42.999Z</time></trkpt><trkpt lat="44.520154181960905" lon="7.993457294220281"><ele>545.0</ele><time>2026-04-12T10:46:43.999Z</time></trkpt><trkpt lat="44.520222496937656" lon="7.993466636200234"><ele>545.0</ele><time>2026-04-12T10:46:44.999Z</time></trkpt><trkpt lat="44.52029588692553" lon="7.993478083496548"><ele>545.0</ele><time>2026-04-12T10:46:45.999Z</time></trkpt><trkpt lat="44.52037421275168" lon="7.993491897656418"><ele>545.0</ele><time>2026-04-12T10:46:46.999Z</time></trkpt><trkpt lat="44.52045685743682" lon="7.9934961888594875"><ele>545.0</ele><time>2026-04-12T10:46:47.999Z</time></trkpt><trkpt lat="44.520543739828575" lon="7.993494820420867"><ele>545.0</ele><time>2026-04-12T10:46:48.999Z</time></trkpt><trkpt lat="44.52063372971323" lon="7.9934879225168105"><ele>545.0</ele><time>2026-04-12T10:46:49.999Z</time></trkpt><trkpt lat="44.5207260910071" lon="7.993481450952908"><ele>542.8</ele><time>2026-04-12T10:46:50.999Z</time></trkpt><trkpt lat="44.52082087653531" lon="7.993471280882366"><ele>540.6</ele><time>2026-04-12T10:46:51.999Z</time></trkpt><trkpt lat="44.52091460680521" lon="7.993458487028457"><ele>538.4</ele><time>2026-04-12T10:46:52.999Z</time></trkpt><trkpt lat="44.521008175443676" lon="7.993450333977634"><ele>536.2</ele><time>2026-04-12T10:46:53.999Z</time></trkpt><trkpt lat="44.521104695739815" lon="7.993440243911234"><ele>534.0</ele><time>2026-04-12T10:46:54.999Z</time></trkpt><trkpt lat="44.52119967871508" lon="7.993427053010979"><ele>531.6</ele><time>2026-04-12T10:46:55.999Z</time></trkpt><trkpt lat="44.52129650988376" lon="7.9934153502920635"><ele>529.2</ele><time>2026-04-12T10:46:56.999Z</time></trkpt><trkpt lat="44.52139046885835" lon="7.993405232695307"><ele>526.8000000000001</ele><time>2026-04-12T10:46:57.999Z</time></trkpt><trkpt lat="44.52148246129548" lon="7.993398817559676"><ele>524.4</ele><time>2026-04-12T10:46:58.999Z</time></trkpt><trkpt lat="44.52157203601189" lon="7.993391596427246"><ele>522.0</ele><time>2026-04-12T10:46:59.999Z</time></trkpt><trkpt lat="44.5216544418112" lon="7.993381073187567"><ele>522.0</ele><time>2026-04-12T10:47:00.999Z</time></trkpt><trkpt lat="44.52173004750367" lon="7.993359091946969"><ele>522.0</ele><time>2026-04-12T10:47:01.999Z</time></trkpt><trkpt lat="44.52180220976184" lon="7.993315908057626"><ele>522.0</ele><time>2026-04-12T10:47:02.999Z</time></trkpt><trkpt lat="44.52186326833744" lon="7.993231397457911"><ele>522.0</ele><time>2026-04-12T10:47:03.999Z</time></trkpt><trkpt lat="44.521911815651116" lon="7.993132237644489"><ele>522.0</ele><time>2026-04-12T10:47:04.999Z</time></trkpt><trkpt lat="44.52196396347677" lon="7.993031384734245"><ele>522.0</ele><time>2026-04-12T10:47:05.999Z</time></trkpt><trkpt lat="44.52201338642751" lon="7.992918944243891"><ele>522.0</ele><time>2026-04-12T10:47:06.999Z</time></trkpt><trkpt lat="44.52206490771886" lon="7.992799025235596"><ele>522.0</ele><time>2026-04-12T10:47:07.999Z</time></trkpt><trkpt lat="44.522115289529445" lon="7.992675990967584"><ele>522.0</ele><time>2026-04-12T10:47:08.999Z</time></trkpt><trkpt lat="44.52216368522866" lon="7.99254406927547"><ele>522.0</ele><time>2026-04-12T10:47:09.999Z</time></trkpt><trkpt lat="44.52220940346825" lon="7.9924031965731235"><ele>522.0</ele><time>2026-04-12T10:47:10.999Z</time></trkpt><trkpt lat="44.522255476056976" lon="7.99226118222202"><ele>518.0</ele><time>2026-04-12T10:47:11.999Z</time></trkpt><trkpt lat="44.52230893527925" lon="7.992117059956299"><ele>514.0</ele><time>2026-04-12T10:47:12.999Z</time></trkpt><trkpt lat="44.52236886326512" lon="7.991973283658466"><ele>510.0</ele><time>2026-04-12T10:47:13.999Z</time></trkpt><trkpt lat="44.522437374203335" lon="7.991826650515539"><ele>506.0</ele><time>2026-04-12T10:47:14.999Z</time></trkpt><trkpt lat="44.52252078290155" lon="7.991688945597759"><ele>505.75</ele><time>2026-04-12T10:47:15.999Z</time></trkpt><trkpt lat="44.52261349650622" lon="7.991562839920846"><ele>505.5</ele><time>2026-04-12T10:47:16.999Z</time></trkpt><trkpt lat="44.52271142076586" lon="7.991450437110175"><ele>505.25</ele><time>2026-04-12T10:47:17.999Z</time></trkpt><trkpt lat="44.52280437316319" lon="7.991341949512405"><ele>505.0</ele><time>2026-04-12T10:47:18.999Z</time></trkpt><trkpt lat="44.52290424632763" lon="7.991240754894582"><ele>501.5</ele><time>2026-04-12T10:47:19.999Z</time></trkpt><trkpt lat="44.523012397944825" lon="7.991150798165685"><ele>498.0</ele><time>2026-04-12T10:47:20.999Z</time></trkpt><trkpt lat="44.523117748470916" lon="7.991065088808724"><ele>494.5</ele><time>2026-04-12T10:47:21.999Z</time></trkpt><trkpt lat="44.523220950267635" lon="7.990981803935484"><ele>491.0</ele><time>2026-04-12T10:47:22.999Z</time></trkpt><trkpt lat="44.52331367750519" lon="7.99090996181175"><ele>491.0</ele><time>2026-04-12T10:47:23.999Z</time></trkpt><trkpt lat="44.52340269557159" lon="7.990846533226208"><ele>491.0</ele><time>2026-04-12T10:47:24.999Z</time></trkpt><trkpt lat="44.52348269300039" lon="7.990773451036836"><ele>491.0</ele><time>2026-04-12T10:47:25.999Z</time></trkpt><trkpt lat="44.52354661116687" lon="7.990679210296903"><ele>491.0</ele><time>2026-04-12T10:47:26.999Z</time></trkpt><trkpt lat="44.523602272463535" lon="7.990575931545164"><ele>491.0</ele><time>2026-04-12T10:47:27.999Z</time></trkpt><trkpt lat="44.523645051145245" lon="7.990476654179952"><ele>491.99999999999994</ele><time>2026-04-12T10:47:28.999Z</time></trkpt><trkpt lat="44.523672609749255" lon="7.990374045937725"><ele>493.0</ele><time>2026-04-12T10:47:29.999Z</time></trkpt><trkpt lat="44.523687371492336" lon="7.990264714023642"><ele>494.0</ele><time>2026-04-12T10:47:30.999Z</time></trkpt><trkpt lat="44.52367332640751" lon="7.990151118020431"><ele>495.0</ele><time>2026-04-12T10:47:31.999Z</time></trkpt><trkpt lat="44.5236656003763" lon="7.9900334875810755"><ele>495.99999999999994</ele><time>2026-04-12T10:47:32.999Z</time></trkpt><trkpt lat="44.523638314580445" lon="7.989916826941077"><ele>497.0</ele><time>2026-04-12T10:47:33.999Z</time></trkpt><trkpt lat="44.52362923598235" lon="7.989783538365683"><ele>497.0</ele><time>2026-04-12T10:47:34.999Z</time></trkpt><trkpt lat="44.523624719470156" lon="7.989656942492023"><ele>497.00000000000006</ele><time>2026-04-12T10:47:35.999Z</time></trkpt><trkpt lat="44.52364753681249" lon="7.9895189053181"><ele>497.00000000000006</ele><time>2026-04-12T10:47:36.999Z</time></trkpt><trkpt lat="44.52368880486304" lon="7.989392715838032"><ele>497.0</ele><time>2026-04-12T10:47:37.999Z</time></trkpt><trkpt lat="44.523729138339284" lon="7.989271074994222"><ele>497.0</ele><time>2026-04-12T10:47:38.999Z</time></trkpt><trkpt lat="44.52374820558341" lon="7.989136804970758"><ele>495.40000000000003</ele><time>2026-04-12T10:47:39.999Z</time></trkpt><trkpt lat="44.52375187310605" lon="7.9889945217696505"><ele>493.80000000000007</ele><time>2026-04-12T10:47:40.999Z</time></trkpt><trkpt lat="44.523737122488285" lon="7.988853947626762"><ele>492.2</ele><time>2026-04-12T10:47:41.999Z</time></trkpt><trkpt lat="44.5237007186207" lon="7.98871025187268"><ele>490.6</ele><time>2026-04-12T10:47:42.999Z</time></trkpt><trkpt lat="44.523651115566544" lon="7.988582723307732"><ele>489.0</ele><time>2026-04-12T10:47:43.999Z</time></trkpt><trkpt lat="44.52362401864642" lon="7.988435509273104"><ele>487.6666666666667</ele><time>2026-04-12T10:47:44.998Z</time></trkpt><trkpt lat="44.523619553524306" lon="7.98828299029185"><ele>486.33333333333337</ele><time>2026-04-12T10:47:45.998Z</time></trkpt><trkpt lat="44.523619977720244" lon="7.988160217186832"><ele>485.0</ele><time>2026-04-12T10:47:46.998Z</time></trkpt><trkpt lat="44.52365055639091" lon="7.98807187014594"><ele>483.6666666666667</ele><time>2026-04-12T10:47:47.998Z</time></trkpt><trkpt lat="44.52371215083626" lon="7.9880235294021835"><ele>482.33333333333337</ele><time>2026-04-12T10:47:49Z</time></trkpt><trkpt lat="44.523779713846984" lon="7.988029559211232"><ele>481.0</ele><time>2026-04-12T10:47:50Z</time></trkpt><trkpt lat="44.52383825883095" lon="7.988092091124916"><ele>480.33333333333337</ele><time>2026-04-12T10:47:51Z</time></trkpt><trkpt lat="44.523876710011606" lon="7.9881727780458265"><ele>479.6666666666667</ele><time>2026-04-12T10:47:52Z</time></trkpt><trkpt lat="44.52392185589072" lon="7.98826844352763"><ele>479.0</ele><time>2026-04-12T10:47:53Z</time></trkpt><trkpt lat="44.52395012146536" lon="7.98835802660935"><ele>478.33333333333337</ele><time>2026-04-12T10:47:54Z</time></trkpt><trkpt lat="44.523989398060095" lon="7.988460764055799"><ele>477.6666666666667</ele><time>2026-04-12T10:47:55Z</time></trkpt><trkpt lat="44.524015306765364" lon="7.988577986727137"><ele>477.0</ele><time>2026-04-12T10:47:56Z</time></trkpt><trkpt lat="44.52404040112242" lon="7.9886887548045005"><ele>477.0</ele><time>2026-04-12T10:47:57Z</time></trkpt><trkpt lat="44.524085439043255" lon="7.988805644157961"><ele>477.00000000000006</ele><time>2026-04-12T10:47:58Z</time></trkpt><trkpt lat="44.524114871156264" lon="7.98890659150432"><ele>477.00000000000006</ele><time>2026-04-12T10:47:59Z</time></trkpt><trkpt lat="44.52413614286455" lon="7.98900037120618"><ele>477.0</ele><time>2026-04-12T10:48:00Z</time></trkpt><trkpt lat="44.524180171167544" lon="7.989153859876235"><ele>477.0</ele><time>2026-04-12T10:48:02Z</time></trkpt><trkpt lat="44.52428324037601" lon="7.989176928314896"><ele>477.0</ele><time>2026-04-12T10:48:04Z</time></trkpt><trkpt lat="44.524334015319276" lon="7.989009260075794"><ele>477.0</ele><time>2026-04-12T10:48:06Z</time></trkpt><trkpt lat="44.52434139021502" lon="7.9889110024054055"><ele>477.0</ele><time>2026-04-12T10:48:07Z</time></trkpt><trkpt lat="44.52435113509221" lon="7.9888011147314995"><ele>477.0</ele><time>2026-04-12T10:48:08Z</time></trkpt><trkpt lat="44.52435658406168" lon="7.988687361786939"><ele>477.0</ele><time>2026-04-12T10:48:09Z</time></trkpt><trkpt lat="44.52436420453759" lon="7.988565586139466"><ele>477.0</ele><time>2026-04-12T10:48:10Z</time></trkpt><trkpt lat="44.52438073530002" lon="7.988440116211955"><ele>475.40000000000003</ele><time>2026-04-12T10:48:11Z</time></trkpt><trkpt lat="44.52438427889027" lon="7.988303681285263"><ele>473.80000000000007</ele><time>2026-04-12T10:48:12Z</time></trkpt><trkpt lat="44.52439182485732" lon="7.988169161530342"><ele>472.2</ele><time>2026-04-12T10:48:13Z</time></trkpt><trkpt lat="44.52439951254061" lon="7.988026100792599"><ele>470.6</ele><time>2026-04-12T10:48:14Z</time></trkpt><trkpt lat="44.524407038976356" lon="7.987881857761063"><ele>469.0</ele><time>2026-04-12T10:48:15Z</time></trkpt><trkpt lat="44.52440982850327" lon="7.987740326781573"><ele>469.0</ele><time>2026-04-12T10:48:16Z</time></trkpt><trkpt lat="44.524404289087016" lon="7.987591834678359"><ele>469.0</ele><time>2026-04-12T10:48:17Z</time></trkpt><trkpt lat="44.52440642135422" lon="7.987463419628954"><ele>469.0</ele><time>2026-04-12T10:48:18Z</time></trkpt><trkpt lat="44.524404062428715" lon="7.987322169823866"><ele>469.0</ele><time>2026-04-12T10:48:19Z</time></trkpt><trkpt lat="44.52438679431162" lon="7.987183152889434"><ele>469.0</ele><time>2026-04-12T10:48:20Z</time></trkpt><trkpt lat="44.52434878980792" lon="7.987063788538994"><ele>468.0</ele><time>2026-04-12T10:48:21Z</time></trkpt><trkpt lat="44.52430985127056" lon="7.986928161500522"><ele>467.0</ele><time>2026-04-12T10:48:22Z</time></trkpt><trkpt lat="44.52426451823051" lon="7.986786718572199"><ele>466.0</ele><time>2026-04-12T10:48:23Z</time></trkpt><trkpt lat="44.52421253772903" lon="7.986657681122254"><ele>465.0</ele><time>2026-04-12T10:48:24Z</time></trkpt><trkpt lat="44.52415755202926" lon="7.986520891540513"><ele>464.0</ele><time>2026-04-12T10:48:25Z</time></trkpt><trkpt lat="44.524102520980406" lon="7.986381516651139"><ele>462.6</ele><time>2026-04-12T10:48:26Z</time></trkpt><trkpt lat="44.52405214761433" lon="7.986241744214232"><ele>461.2</ele><time>2026-04-12T10:48:27Z</time></trkpt><trkpt lat="44.524005306399545" lon="7.986102868399754"><ele>459.80000000000007</ele><time>2026-04-12T10:48:28Z</time></trkpt><trkpt lat="44.52394857007526" lon="7.985961041306229"><ele>458.40000000000003</ele><time>2026-04-12T10:48:29Z</time></trkpt><trkpt lat="44.523892349101494" lon="7.985827819583763"><ele>457.0</ele><time>2026-04-12T10:48:30Z</time></trkpt><trkpt lat="44.52382562451229" lon="7.985699362789168"><ele>456.0</ele><time>2026-04-12T10:48:31Z</time></trkpt><trkpt lat="44.52375189029356" lon="7.985579936761837"><ele>455.00000000000006</ele><time>2026-04-12T10:48:32Z</time></trkpt><trkpt lat="44.52368328941261" lon="7.9854794172044"><ele>454.00000000000006</ele><time>2026-04-12T10:48:33Z</time></trkpt><trkpt lat="44.523632076636275" lon="7.985396333372689"><ele>453.0</ele><time>2026-04-12T10:48:34Z</time></trkpt><trkpt lat="44.52357330951934" lon="7.985267187053412"><ele>452.0</ele><time>2026-04-12T10:48:35.999Z</time></trkpt><trkpt lat="44.52361512148462" lon="7.9851509228213455"><ele>451.99999999999994</ele><time>2026-04-12T10:48:37.999Z</time></trkpt><trkpt lat="44.5237210752482" lon="7.9851924182367116"><ele>452.0</ele><time>2026-04-12T10:48:39.999Z</time></trkpt><trkpt lat="44.52376866986732" lon="7.985257659653096"><ele>452.0</ele><time>2026-04-12T10:48:40.999Z</time></trkpt><trkpt lat="44.523821198443194" lon="7.985308327380693"><ele>452.0</ele><time>2026-04-12T10:48:41.999Z</time></trkpt><trkpt lat="44.523877560172" lon="7.98536609133869"><ele>451.99999999999994</ele><time>2026-04-12T10:48:42.999Z</time></trkpt><trkpt lat="44.52393559285327" lon="7.985435677543936"><ele>452.0</ele><time>2026-04-12T10:48:43.999Z</time></trkpt><trkpt lat="44.52399715998311" lon="7.985511281528488"><ele>453.0</ele><time>2026-04-12T10:48:44.999Z</time></trkpt><trkpt lat="44.52406700764237" lon="7.985580137898687"><ele>454.00000000000006</ele><time>2026-04-12T10:48:45.999Z</time></trkpt><trkpt lat="44.524144310099445" lon="7.98564804608139"><ele>455.00000000000006</ele><time>2026-04-12T10:48:46.999Z</time></trkpt><trkpt lat="44.52422395610011" lon="7.985719835930258"><ele>456.0</ele><time>2026-04-12T10:48:47.999Z</time></trkpt><trkpt lat="44.52430327330323" lon="7.985784195373785"><ele>457.0</ele><time>2026-04-12T10:48:48.999Z</time></trkpt><trkpt lat="44.524377920764614" lon="7.98585413817538"><ele>457.00000000000006</ele><time>2026-04-12T10:48:49.999Z</time></trkpt><trkpt lat="44.52444218575011" lon="7.9859151766001215"><ele>457.0</ele><time>2026-04-12T10:48:50.999Z</time></trkpt><trkpt lat="44.52450263377308" lon="7.985951041114213"><ele>457.0</ele><time>2026-04-12T10:48:51.999Z</time></trkpt><trkpt lat="44.52461130875961" lon="7.9859116515388076"><ele>457.0</ele><time>2026-04-12T10:48:53.999Z</time></trkpt><trkpt lat="44.524616499506145" lon="7.985817135148327"><ele>457.00000000000006</ele><time>2026-04-12T10:48:54.999Z</time></trkpt><trkpt lat="44.524585311445485" lon="7.985713322394795"><ele>457.0</ele><time>2026-04-12T10:48:55.999Z</time></trkpt><trkpt lat="44.52456367930803" lon="7.985622769275846"><ele>455.1666666666667</ele><time>2026-04-12T10:48:56.999Z</time></trkpt><trkpt lat="44.52452795037449" lon="7.985538591256223"><ele>453.33333333333337</ele><time>2026-04-12T10:48:57.999Z</time></trkpt><trkpt lat="44.52448644573184" lon="7.985445417586762"><ele>451.5</ele><time>2026-04-12T10:48:58.999Z</time></trkpt><trkpt lat="44.524453956932945" lon="7.985343549046885"><ele>449.66666666666663</ele><time>2026-04-12T10:48:59.999Z</time></trkpt><trkpt lat="44.5244244308565" lon="7.985231540765573"><ele>447.8333333333333</ele><time>2026-04-12T10:49:00.999Z</time></trkpt><trkpt lat="44.52438998322204" lon="7.9851170265428335"><ele>446.0</ele><time>2026-04-12T10:49:01.999Z</time></trkpt><trkpt lat="44.524346102460655" lon="7.985000771849182"><ele>442.8</ele><time>2026-04-12T10:49:02.999Z</time></trkpt><trkpt lat="44.5243055006115" lon="7.984879195666632"><ele>439.6</ele><time>2026-04-12T10:49:03.999Z</time></trkpt><trkpt lat="44.52426337838065" lon="7.984750410339948"><ele>436.4</ele><time>2026-04-12T10:49:04.999Z</time></trkpt><trkpt lat="44.5242165666263" lon="7.984619243574951"><ele>433.2</ele><time>2026-04-12T10:49:05.999Z</time></trkpt><trkpt lat="44.52416645458657" lon="7.984479896875228"><ele>430.0</ele><time>2026-04-12T10:49:06.999Z</time></trkpt><trkpt lat="44.5241239970003" lon="7.984335961789474"><ele>430.0</ele><time>2026-04-12T10:49:07.999Z</time></trkpt><trkpt lat="44.52409227492942" lon="7.984194320199625"><ele>430.0</ele><time>2026-04-12T10:49:08.999Z</time></trkpt><trkpt lat="44.52407193906811" lon="7.984048717415937"><ele>430.0</ele><time>2026-04-12T10:49:09.999Z</time></trkpt><trkpt lat="44.52404609158832" lon="7.9839083461203115"><ele>430.0</ele><time>2026-04-12T10:49:10.999Z</time></trkpt><trkpt lat="44.524017187834254" lon="7.983771368436712"><ele>430.0</ele><time>2026-04-12T10:49:11.999Z</time></trkpt><trkpt lat="44.52398142678935" lon="7.983630365567134"><ele>427.25</ele><time>2026-04-12T10:49:12.999Z</time></trkpt><trkpt lat="44.52392835760748" lon="7.983487805188354"><ele>424.5</ele><time>2026-04-12T10:49:13.999Z</time></trkpt><trkpt lat="44.52387224378601" lon="7.983346392282083"><ele>421.75</ele><time>2026-04-12T10:49:14.999Z</time></trkpt><trkpt lat="44.523813673500726" lon="7.983207327678735"><ele>419.0</ele><time>2026-04-12T10:49:15.999Z</time></trkpt><trkpt lat="44.52374394962858" lon="7.983067653972401"><ele>418.25</ele><time>2026-04-12T10:49:16.999Z</time></trkpt><trkpt lat="44.523679163902024" lon="7.982922241015882"><ele>417.5</ele><time>2026-04-12T10:49:17.999Z</time></trkpt><trkpt lat="44.5236192893545" lon="7.982779213406766"><ele>416.75</ele><time>2026-04-12T10:49:18.999Z</time></trkpt><trkpt lat="44.52356143753763" lon="7.982642991865364"><ele>416.0</ele><time>2026-04-12T10:49:19.999Z</time></trkpt><trkpt lat="44.52351881504727" lon="7.982491836462139"><ele>413.8</ele><time>2026-04-12T10:49:20.999Z</time></trkpt><trkpt lat="44.52350474654307" lon="7.982331070253398"><ele>411.6</ele><time>2026-04-12T10:49:21.999Z</time></trkpt><trkpt lat="44.5234889003714" lon="7.982178329517951"><ele>409.4</ele><time>2026-04-12T10:49:22.999Z</time></trkpt><trkpt lat="44.52346337056678" lon="7.982037942224769"><ele>407.2</ele><time>2026-04-12T10:49:23.999Z</time></trkpt><trkpt lat="44.523411117114584" lon="7.981904309418735"><ele>405.0</ele><time>2026-04-12T10:49:24.999Z</time></trkpt><trkpt lat="44.52333803895305" lon="7.98181005057053"><ele>405.0</ele><time>2026-04-12T10:49:25.999Z</time></trkpt><trkpt lat="44.5232580907887" lon="7.981762881479153"><ele>405.0</ele><time>2026-04-12T10:49:26.999Z</time></trkpt><trkpt lat="44.52317282877492" lon="7.981756396268584"><ele>405.0</ele><time>2026-04-12T10:49:27.999Z</time></trkpt><trkpt lat="44.52310425797653" lon="7.98175457666899"><ele>405.0</ele><time>2026-04-12T10:49:28.999Z</time></trkpt><trkpt lat="44.52303200837267" lon="7.981634803933956"><ele>405.0</ele><time>2026-04-12T10:49:30.999Z</time></trkpt><trkpt lat="44.52304697127461" lon="7.981522677318588"><ele>405.0</ele><time>2026-04-12T10:49:31.999Z</time></trkpt><trkpt lat="44.52310504261678" lon="7.9814495739414"><ele>403.1666666666667</ele><time>2026-04-12T10:49:32.999Z</time></trkpt><trkpt lat="44.52317855078719" lon="7.981414907154983"><ele>401.33333333333337</ele><time>2026-04-12T10:49:33.999Z</time></trkpt><trkpt lat="44.52324421534813" lon="7.981366602055758"><ele>399.5</ele><time>2026-04-12T10:49:34.999Z</time></trkpt><trkpt lat="44.52331943649756" lon="7.981313059465528"><ele>397.6666666666667</ele><time>2026-04-12T10:49:35.999Z</time></trkpt><trkpt lat="44.5233973959359" lon="7.981260005014304"><ele>395.83333333333337</ele><time>2026-04-12T10:49:36.999Z</time></trkpt><trkpt lat="44.5234787835159" lon="7.9811945101258885"><ele>394.0</ele><time>2026-04-12T10:49:37.999Z</time></trkpt><trkpt lat="44.52356422314745" lon="7.981127327183208"><ele>394.0</ele><time>2026-04-12T10:49:38.999Z</time></trkpt><trkpt lat="44.52365662925072" lon="7.981060453747014"><ele>394.0</ele><time>2026-04-12T10:49:39.999Z</time></trkpt><trkpt lat="44.52375067232255" lon="7.980992211672692"><ele>394.0</ele><time>2026-04-12T10:49:40.999Z</time></trkpt><trkpt lat="44.52383917651404" lon="7.980942380286198"><ele>394.0</ele><time>2026-04-12T10:49:41.999Z</time></trkpt><trkpt lat="44.52391614523069" lon="7.980909142615391"><ele>394.0</ele><time>2026-04-12T10:49:42.999Z</time></trkpt><trkpt lat="44.52397670577224" lon="7.9808704736531135"><ele>392.6666666666667</ele><time>2026-04-12T10:49:43.999Z</time></trkpt><trkpt lat="44.52401537432858" lon="7.9807306250249175"><ele>391.33333333333337</ele><time>2026-04-12T10:49:45.999Z</time></trkpt><trkpt lat="44.52393027037289" lon="7.980625629745873"><ele>390.0</ele><time>2026-04-12T10:49:47.998Z</time></trkpt><trkpt lat="44.523865916428186" lon="7.980634414940156"><ele>388.66666666666663</ele><time>2026-04-12T10:49:48.998Z</time></trkpt><trkpt lat="44.523804159041596" lon="7.980656841048934"><ele>387.3333333333333</ele><time>2026-04-12T10:49:49.998Z</time></trkpt><trkpt lat="44.52373711296511" lon="7.980670477843684"><ele>386.0</ele><time>2026-04-12T10:49:50.998Z</time></trkpt><trkpt lat="44.52366240868777" lon="7.980673326659715"><ele>384.66666666666663</ele><time>2026-04-12T10:49:51.998Z</time></trkpt><trkpt lat="44.52357993301945" lon="7.980687768715258"><ele>383.3333333333333</ele><time>2026-04-12T10:49:52.998Z</time></trkpt><trkpt lat="44.52349296291625" lon="7.9806987331974355"><ele>382.0</ele><time>2026-04-12T10:49:53.998Z</time></trkpt><trkpt lat="44.52340440418968" lon="7.980721141837331"><ele>380.66666666666663</ele><time>2026-04-12T10:49:55Z</time></trkpt><trkpt lat="44.52331840895596" lon="7.980759467190491"><ele>379.3333333333333</ele><time>2026-04-12T10:49:56Z</time></trkpt><trkpt lat="44.52323645704773" lon="7.980799654276272"><ele>378.0</ele><time>2026-04-12T10:49:57Z</time></trkpt><trkpt lat="44.523163551474255" lon="7.980838962211023"><ele>378.0</ele><time>2026-04-12T10:49:58Z</time></trkpt><trkpt lat="44.52310215654377" lon="7.980861231865297"><ele>378.0</ele><time>2026-04-12T10:49:59Z</time></trkpt><trkpt lat="44.52301430608382" lon="7.980784194253919"><ele>378.0</ele><time>2026-04-12T10:50:01Z</time></trkpt><trkpt lat="44.52305252148483" lon="7.980630660881649"><ele>378.0</ele><time>2026-04-12T10:50:03Z</time></trkpt><trkpt lat="44.52311197318035" lon="7.980593284877179"><ele>378.0</ele><time>2026-04-12T10:50:04Z</time></trkpt><trkpt lat="44.52321949643262" lon="7.980477956491909"><ele>378.0</ele><time>2026-04-12T10:50:06Z</time></trkpt><trkpt lat="44.52327939550606" lon="7.9804098056293515"><ele>378.0</ele><time>2026-04-12T10:50:07Z</time></trkpt><trkpt lat="44.52334587808799" lon="7.980347060698326"><ele>378.0</ele><time>2026-04-12T10:50:08Z</time></trkpt><trkpt lat="44.52342388083078" lon="7.980278892021462"><ele>378.0</ele><time>2026-04-12T10:50:09Z</time></trkpt><trkpt lat="44.52350212887471" lon="7.980220692442262"><ele>378.0</ele><time>2026-04-12T10:50:10Z</time></trkpt><trkpt lat="44.52356920249847" lon="7.980185578826476"><ele>378.0</ele><time>2026-04-12T10:50:11Z</time></trkpt><trkpt lat="44.52366434606103" lon="7.980143036438503"><ele>376.79999999999995</ele><time>2026-04-12T10:50:12Z</time></trkpt><trkpt lat="44.52376368510906" lon="7.980090138592446"><ele>375.6</ele><time>2026-04-12T10:50:13Z</time></trkpt><trkpt lat="44.523857609412936" lon="7.9800320747708895"><ele>374.4</ele><time>2026-04-12T10:50:14Z</time></trkpt><trkpt lat="44.52394048749022" lon="7.979984902926198"><ele>373.20000000000005</ele><time>2026-04-12T10:50:15Z</time></trkpt><trkpt lat="44.52402406982012" lon="7.979942404623886"><ele>372.0</ele><time>2026-04-12T10:50:16Z</time></trkpt><trkpt lat="44.52409756069765" lon="7.979912666858748"><ele>372.0</ele><time>2026-04-12T10:50:17Z</time></trkpt><trkpt lat="44.524163115373746" lon="7.979812109952427"><ele>372.0</ele><time>2026-04-12T10:50:19Z</time></trkpt><trkpt lat="44.52413643512013" lon="7.979709707689357"><ele>372.0</ele><time>2026-04-12T10:50:21Z</time></trkpt><trkpt lat="44.52402612170261" lon="7.979735342654299"><ele>372.0</ele><time>2026-04-12T10:50:23Z</time></trkpt><trkpt lat="44.523965556956966" lon="7.979769558222039"><ele>372.0</ele><time>2026-04-12T10:50:24Z</time></trkpt><trkpt lat="44.52389597137404" lon="7.97979398690842"><ele>372.0</ele><time>2026-04-12T10:50:25Z</time></trkpt><trkpt lat="44.52382231654531" lon="7.979818216659136"><ele>372.0</ele><time>2026-04-12T10:50:26Z</time></trkpt><trkpt lat="44.52374757670191" lon="7.979845987129046"><ele>372.0</ele><time>2026-04-12T10:50:27Z</time></trkpt><trkpt lat="44.52366508275188" lon="7.97986813046702"><ele>372.0</ele><time>2026-04-12T10:50:28Z</time></trkpt><trkpt lat="44.523589431841685" lon="7.97989461693699"><ele>372.0</ele><time>2026-04-12T10:50:29Z</time></trkpt><trkpt lat="44.523519542221734" lon="7.97991965962633"><ele>372.0</ele><time>2026-04-12T10:50:30Z</time></trkpt><trkpt lat="44.52345058186827" lon="7.979951268239468"><ele>372.0</ele><time>2026-04-12T10:50:31Z</time></trkpt><trkpt lat="44.523352906200216" lon="7.980026289355885"><ele>373.0</ele><time>2026-04-12T10:50:33Z</time></trkpt><trkpt lat="44.5232885695758" lon="7.980091065424773"><ele>374.0</ele><time>2026-04-12T10:50:35Z</time></trkpt><trkpt lat="44.52324749887016" lon="7.979999336978732"><ele>375.0</ele><time>2026-04-12T10:50:38Z</time></trkpt><trkpt lat="44.523342769726696" lon="7.979915457659576"><ele>376.0</ele><time>2026-04-12T10:50:40Z</time></trkpt><trkpt lat="44.52343291192395" lon="7.9798533746763916"><ele>377.0</ele><time>2026-04-12T10:50:41.999Z</time></trkpt><trkpt lat="44.52348688608955" lon="7.979807076694577"><ele>378.0</ele><time>2026-04-12T10:50:42.999Z</time></trkpt><trkpt lat="44.52360406418862" lon="7.979734131630626"><ele>377.14285714285717</ele><time>2026-04-12T10:50:44.999Z</time></trkpt><trkpt lat="44.52366612602729" lon="7.979695230134709"><ele>376.2857142857143</ele><time>2026-04-12T10:50:45.999Z</time></trkpt><trkpt lat="44.523738639949784" lon="7.97965303056291"><ele>375.42857142857144</ele><time>2026-04-12T10:50:46.999Z</time></trkpt><trkpt lat="44.52380318773379" lon="7.979612685909567"><ele>374.57142857142856</ele><time>2026-04-12T10:50:47.999Z</time></trkpt><trkpt lat="44.52386633235032" lon="7.979571420489023"><ele>373.7142857142857</ele><time>2026-04-12T10:50:48.999Z</time></trkpt><trkpt lat="44.52393704046682" lon="7.979527407101944"><ele>372.8571428571429</ele><time>2026-04-12T10:50:49.999Z</time></trkpt><trkpt lat="44.524003763782446" lon="7.9794829297432655"><ele>372.0</ele><time>2026-04-12T10:50:50.999Z</time></trkpt><trkpt lat="44.52407408263329" lon="7.979432665401721"><ele>372.0</ele><time>2026-04-12T10:50:51.999Z</time></trkpt><trkpt lat="44.524147677598954" lon="7.979385097107294"><ele>372.0</ele><time>2026-04-12T10:50:52.999Z</time></trkpt><trkpt lat="44.52422523676773" lon="7.979337509745806"><ele>372.0</ele><time>2026-04-12T10:50:53.999Z</time></trkpt><trkpt lat="44.524294604341875" lon="7.979298417485356"><ele>372.0</ele><time>2026-04-12T10:50:54.999Z</time></trkpt><trkpt lat="44.52437075085582" lon="7.979284652386285"><ele>372.0</ele><time>2026-04-12T10:50:55.999Z</time></trkpt><trkpt lat="44.524447925826784" lon="7.979298823091002"><ele>372.0</ele><time>2026-04-12T10:50:56.999Z</time></trkpt><trkpt lat="44.52452575975232" lon="7.9793452217639995"><ele>367.0</ele><time>2026-04-12T10:50:57.999Z</time></trkpt><trkpt lat="44.524607456794044" lon="7.979402868871997"><ele>362.0</ele><time>2026-04-12T10:50:58.999Z</time></trkpt><trkpt lat="44.52468278333704" lon="7.979468055136145"><ele>357.0</ele><time>2026-04-12T10:50:59.999Z</time></trkpt><trkpt lat="44.524757550523326" lon="7.979534767547041"><ele>352.0</ele><time>2026-04-12T10:51:00.999Z</time></trkpt><trkpt lat="44.52484344771058" lon="7.979596947934486"><ele>347.0</ele><time>2026-04-12T10:51:01.999Z</time></trkpt><trkpt lat="44.52492581016736" lon="7.979672568021005"><ele>347.0</ele><time>2026-04-12T10:51:02.999Z</time></trkpt><trkpt lat="44.52500832636408" lon="7.97975377932752"><ele>347.0</ele><time>2026-04-12T10:51:03.999Z</time></trkpt><trkpt lat="44.525098685585604" lon="7.97982633033288"><ele>347.0</ele><time>2026-04-12T10:51:04.999Z</time></trkpt><trkpt lat="44.52518093434108" lon="7.979882704285647"><ele>347.0</ele><time>2026-04-12T10:51:05.999Z</time></trkpt><trkpt lat="44.525261081588994" lon="7.979945906974449"><ele>347.0</ele><time>2026-04-12T10:51:06.999Z</time></trkpt><trkpt lat="44.525344813169035" lon="7.97999902104575"><ele>348.40000000000003</ele><time>2026-04-12T10:51:07.999Z</time></trkpt><trkpt lat="44.52542695663966" lon="7.980025466299549"><ele>349.8</ele><time>2026-04-12T10:51:08.999Z</time></trkpt><trkpt lat="44.52550175848485" lon="7.9800095603115215"><ele>351.2</ele><time>2026-04-12T10:51:09.999Z</time></trkpt><trkpt lat="44.52556878119244" lon="7.979975993518189"><ele>352.6</ele><time>2026-04-12T10:51:10.999Z</time></trkpt><trkpt lat="44.52565577820536" lon="7.979872272888908"><ele>354.0</ele><time>2026-04-12T10:51:12.999Z</time></trkpt><trkpt lat="44.525686005009504" lon="7.979731739343681"><ele>355.0</ele><time>2026-04-12T10:51:14.999Z</time></trkpt><trkpt lat="44.525675612209795" lon="7.979605964842114"><ele>356.0</ele><time>2026-04-12T10:51:16.999Z</time></trkpt><trkpt lat="44.525654134920934" lon="7.97945827831846"><ele>357.0</ele><time>2026-04-12T10:51:18.999Z</time></trkpt><trkpt lat="44.52563386415917" lon="7.979280547629778"><ele>358.0</ele><time>2026-04-12T10:51:20.999Z</time></trkpt><trkpt lat="44.52562421587283" lon="7.9791076582816265"><ele>358.0</ele><time>2026-04-12T10:51:22.999Z</time></trkpt><trkpt lat="44.5256184432286" lon="7.979017733096484"><ele>358.0</ele><time>2026-04-12T10:51:23.999Z</time></trkpt><trkpt lat="44.52561513669552" lon="7.97892788735545"><ele>358.0</ele><time>2026-04-12T10:51:24.999Z</time></trkpt><trkpt lat="44.52561114149604" lon="7.978839296940206"><ele>358.0</ele><time>2026-04-12T10:51:25.999Z</time></trkpt><trkpt lat="44.525581336320506" lon="7.978680879787573"><ele>358.0</ele><time>2026-04-12T10:51:27.999Z</time></trkpt><trkpt lat="44.52555906766401" lon="7.978512708650341"><ele>358.0</ele><time>2026-04-12T10:51:29.999Z</time></trkpt><trkpt lat="44.52554853902333" lon="7.978412587115542"><ele>357.28571428571433</ele><time>2026-04-12T10:51:30.999Z</time></trkpt><trkpt lat="44.52554886060545" lon="7.978309186370828"><ele>356.57142857142856</ele><time>2026-04-12T10:51:31.999Z</time></trkpt><trkpt lat="44.52556237041106" lon="7.978207104137373"><ele>355.8571428571429</ele><time>2026-04-12T10:51:32.999Z</time></trkpt><trkpt lat="44.525581059065345" lon="7.978104536656155"><ele>355.14285714285717</ele><time>2026-04-12T10:51:33.999Z</time></trkpt><trkpt lat="44.525605361967436" lon="7.978018995604035"><ele>354.42857142857144</ele><time>2026-04-12T10:51:34.999Z</time></trkpt><trkpt lat="44.52562702528199" lon="7.977932221691705"><ele>353.7142857142857</ele><time>2026-04-12T10:51:35.999Z</time></trkpt><trkpt lat="44.525656888018446" lon="7.977851809260425"><ele>353.0</ele><time>2026-04-12T10:51:36.999Z</time></trkpt><trkpt lat="44.52573695308749" lon="7.97771310941879"><ele>353.0</ele><time>2026-04-12T10:51:38.999Z</time></trkpt><trkpt lat="44.525791999470094" lon="7.977649101308439"><ele>353.0</ele><time>2026-04-12T10:51:39.999Z</time></trkpt><trkpt lat="44.52586017083966" lon="7.97758613980301"><ele>353.0</ele><time>2026-04-12T10:51:40.999Z</time></trkpt><trkpt lat="44.52592008657665" lon="7.977521030747912"><ele>353.0</ele><time>2026-04-12T10:51:41.999Z</time></trkpt><trkpt lat="44.52596936879488" lon="7.977456637624597"><ele>353.0</ele><time>2026-04-12T10:51:42.999Z</time></trkpt><trkpt lat="44.526023173221546" lon="7.977397216010521"><ele>353.0</ele><time>2026-04-12T10:51:43.999Z</time></trkpt><trkpt lat="44.52608639089454" lon="7.97734206648663"><ele>353.0</ele><time>2026-04-12T10:51:44.999Z</time></trkpt><trkpt lat="44.52614521173537" lon="7.977282022299352"><ele>353.57142857142856</ele><time>2026-04-12T10:51:45.999Z</time></trkpt><trkpt lat="44.526203768942544" lon="7.977223803465396"><ele>354.14285714285717</ele><time>2026-04-12T10:51:46.999Z</time></trkpt><trkpt lat="44.52625807970535" lon="7.977165059138025"><ele>354.7142857142857</ele><time>2026-04-12T10:51:47.999Z</time></trkpt><trkpt lat="44.526309297206126" lon="7.977106439797906"><ele>355.2857142857143</ele><time>2026-04-12T10:51:48.999Z</time></trkpt><trkpt lat="44.52636315488432" lon="7.977048095990572"><ele>355.8571428571429</ele><time>2026-04-12T10:51:49.999Z</time></trkpt><trkpt lat="44.526416745962855" lon="7.976990041988073"><ele>356.42857142857144</ele><time>2026-04-12T10:51:50.999Z</time></trkpt><trkpt lat="44.5264684236515" lon="7.976934876333433"><ele>357.0</ele><time>2026-04-12T10:51:51.998Z</time></trkpt><trkpt lat="44.52652236267917" lon="7.976873998740512"><ele>357.0</ele><time>2026-04-12T10:51:52.998Z</time></trkpt><trkpt lat="44.52657063199497" lon="7.976810518332848"><ele>357.0</ele><time>2026-04-12T10:51:53.998Z</time></trkpt><trkpt lat="44.52666528270111" lon="7.97671147682418"><ele>357.0</ele><time>2026-04-12T10:51:55.998Z</time></trkpt><trkpt lat="44.52675369882392" lon="7.976612623291098"><ele>357.0</ele><time>2026-04-12T10:51:57.998Z</time></trkpt><trkpt lat="44.52683601708464" lon="7.976516805104891"><ele>357.0</ele><time>2026-04-12T10:51:59.998Z</time></trkpt><trkpt lat="44.526912324086275" lon="7.976422678702656"><ele>357.6</ele><time>2026-04-12T10:52:02Z</time></trkpt><trkpt lat="44.52699978717559" lon="7.9763303341281295"><ele>358.20000000000005</ele><time>2026-04-12T10:52:04Z</time></trkpt><trkpt lat="44.52707791457498" lon="7.976242207578008"><ele>358.8</ele><time>2026-04-12T10:52:06Z</time></trkpt><trkpt lat="44.527127798855034" lon="7.97618614690685"><ele>359.4</ele><time>2026-04-12T10:52:07Z</time></trkpt><trkpt lat="44.52720568177337" lon="7.976103291221737"><ele>360.0</ele><time>2026-04-12T10:52:09Z</time></trkpt><trkpt lat="44.52728220786706" lon="7.976015863002574"><ele>360.0</ele><time>2026-04-12T10:52:11Z</time></trkpt><trkpt lat="44.52735690643333" lon="7.975939486976004"><ele>360.0</ele><time>2026-04-12T10:52:13Z</time></trkpt><trkpt lat="44.527415878584996" lon="7.975863529954077"><ele>360.0</ele><time>2026-04-12T10:52:15Z</time></trkpt><trkpt lat="44.52747632638743" lon="7.975793275829269"><ele>360.0</ele><time>2026-04-12T10:52:17Z</time></trkpt><trkpt lat="44.52752586848859" lon="7.975732978394194"><ele>360.0</ele><time>2026-04-12T10:52:19Z</time></trkpt><trkpt lat="44.52758740942312" lon="7.975673854149445"><ele>360.0</ele><time>2026-04-12T10:52:21Z</time></trkpt><trkpt lat="44.52765445485501" lon="7.975583094902419"><ele>361.0</ele><time>2026-04-12T10:52:24Z</time></trkpt><trkpt lat="44.527712966030826" lon="7.975511569960686"><ele>362.0</ele><time>2026-04-12T10:52:27Z</time></trkpt><trkpt lat="44.52776413696452" lon="7.975444858102593"><ele>363.0</ele><time>2026-04-12T10:52:31Z</time></trkpt><trkpt lat="44.52780759800661" lon="7.9753808616025275"><ele>364.0</ele><time>2026-04-12T11:01:19.999Z</time></trkpt><trkpt lat="44.52789341733694" lon="7.975317167346609"><ele>365.0</ele><time>2026-04-12T11:01:29.999Z</time></trkpt><trkpt lat="44.52792536890985" lon="7.975229645285923"><ele>366.0</ele><time>2026-04-12T11:01:33.999Z</time></trkpt><trkpt lat="44.52799238038863" lon="7.975158140076695"><ele>366.0</ele><time>2026-04-12T11:01:37.999Z</time></trkpt><trkpt lat="44.528051285791236" lon="7.975095471260464"><ele>366.0</ele><time>2026-04-12T11:01:41.999Z</time></trkpt><trkpt lat="44.528099056532646" lon="7.975023619303477"><ele>366.0</ele><time>2026-04-12T11:01:44.999Z</time></trkpt><trkpt lat="44.52812977209007" lon="7.974936880345826"><ele>366.0</ele><time>2026-04-12T11:01:47.999Z</time></trkpt><trkpt lat="44.52816198436106" lon="7.974854808500306"><ele>366.0</ele><time>2026-04-12T11:01:49.999Z</time></trkpt><trkpt lat="44.52820874514831" lon="7.974775017146515"><ele>366.0</ele><time>2026-04-12T11:01:51.999Z</time></trkpt><trkpt lat="44.52823626229702" lon="7.974668951919962"><ele>366.0</ele><time>2026-04-12T11:01:53.999Z</time></trkpt><trkpt lat="44.52831572611036" lon="7.974552855171526"><ele>363.4</ele><time>2026-04-12T11:01:55.999Z</time></trkpt><trkpt lat="44.52837073847194" lon="7.974434246778913"><ele>360.8</ele><time>2026-04-12T11:01:57.999Z</time></trkpt><trkpt lat="44.5284285323878" lon="7.974317653103113"><ele>358.2</ele><time>2026-04-12T11:01:59.999Z</time></trkpt><trkpt lat="44.52846485614166" lon="7.974240548180518"><ele>355.59999999999997</ele><time>2026-04-12T11:02:00.999Z</time></trkpt><trkpt lat="44.528521030694634" lon="7.974096251583489"><ele>353.0</ele><time>2026-04-12T11:02:02.999Z</time></trkpt><trkpt lat="44.52859300389563" lon="7.973972211216815"><ele>354.6666666666667</ele><time>2026-04-12T11:02:04.999Z</time></trkpt><trkpt lat="44.528641049307225" lon="7.973890252282466"><ele>356.33333333333337</ele><time>2026-04-12T11:02:05.999Z</time></trkpt><trkpt lat="44.52871292052355" lon="7.973736624335159"><ele>358.0</ele><time>2026-04-12T11:02:07.999Z</time></trkpt><trkpt lat="44.528758091097174" lon="7.973649007351066"><ele>359.6666666666667</ele><time>2026-04-12T11:02:08.999Z</time></trkpt><trkpt lat="44.52880519359992" lon="7.973568572391056"><ele>361.3333333333333</ele><time>2026-04-12T11:02:09.999Z</time></trkpt><trkpt lat="44.528838427467186" lon="7.973486011686296"><ele>363.0</ele><time>2026-04-12T11:02:10.999Z</time></trkpt><trkpt lat="44.52887063220047" lon="7.973388580981332"><ele>361.1428571428571</ele><time>2026-04-12T11:02:11.999Z</time></trkpt><trkpt lat="44.52890585262281" lon="7.973299051479254"><ele>359.2857142857143</ele><time>2026-04-12T11:02:12.999Z</time></trkpt><trkpt lat="44.52893963123872" lon="7.973213168271294"><ele>357.42857142857144</ele><time>2026-04-12T11:02:13.999Z</time></trkpt><trkpt lat="44.52897517570209" lon="7.973123947789955"><ele>355.57142857142856</ele><time>2026-04-12T11:02:14.999Z</time></trkpt><trkpt lat="44.52902266482994" lon="7.973031313850324"><ele>353.7142857142857</ele><time>2026-04-12T11:02:15.999Z</time></trkpt><trkpt lat="44.52905926043075" lon="7.972938034456484"><ele>351.85714285714283</ele><time>2026-04-12T11:02:16.999Z</time></trkpt><trkpt lat="44.52909603984655" lon="7.9728540690944625"><ele>350.0</ele><time>2026-04-12T11:02:17.999Z</time></trkpt><trkpt lat="44.52913626142258" lon="7.972769617957623"><ele>350.0</ele><time>2026-04-12T11:02:18.999Z</time></trkpt><trkpt lat="44.52917660062405" lon="7.972683597275665"><ele>350.0</ele><time>2026-04-12T11:02:19.999Z</time></trkpt><trkpt lat="44.52921865245137" lon="7.9725777640709845"><ele>350.0</ele><time>2026-04-12T11:02:20.999Z</time></trkpt><trkpt lat="44.5292535918052" lon="7.972478848577503"><ele>350.0</ele><time>2026-04-12T11:02:21.999Z</time></trkpt><trkpt lat="44.529288794667345" lon="7.972402238772413"><ele>350.0</ele><time>2026-04-12T11:02:22.999Z</time></trkpt><trkpt lat="44.52933432510256" lon="7.972303073627044"><ele>350.0</ele><time>2026-04-12T11:02:23.999Z</time></trkpt><trkpt lat="44.52938055049899" lon="7.972202350968364"><ele>349.83333333333337</ele><time>2026-04-12T11:02:24.999Z</time></trkpt><trkpt lat="44.52942465137805" lon="7.972104427782392"><ele>349.6666666666667</ele><time>2026-04-12T11:02:25.999Z</time></trkpt><trkpt lat="44.52947369500033" lon="7.972008183275696"><ele>349.5</ele><time>2026-04-12T11:02:26.999Z</time></trkpt><trkpt lat="44.52952571027153" lon="7.971904801143593"><ele>349.3333333333333</ele><time>2026-04-12T11:02:27.998Z</time></trkpt><trkpt lat="44.52957213599313" lon="7.9718031075117555"><ele>349.16666666666663</ele><time>2026-04-12T11:02:28.998Z</time></trkpt><trkpt lat="44.529614435126184" lon="7.97171241224726"><ele>349.0</ele><time>2026-04-12T11:02:29.998Z</time></trkpt><trkpt lat="44.52965082241247" lon="7.971615264435223"><ele>346.8333333333333</ele><time>2026-04-12T11:02:31Z</time></trkpt><trkpt lat="44.52969430833127" lon="7.9715129097049955"><ele>344.66666666666663</ele><time>2026-04-12T11:02:32Z</time></trkpt><trkpt lat="44.52974105889548" lon="7.971410516097263"><ele>342.5</ele><time>2026-04-12T11:02:33Z</time></trkpt><trkpt lat="44.529784844318996" lon="7.971314731327034"><ele>340.3333333333333</ele><time>2026-04-12T11:02:34Z</time></trkpt><trkpt lat="44.52983085080599" lon="7.971213969950415"><ele>338.1666666666667</ele><time>2026-04-12T11:02:35Z</time></trkpt><trkpt lat="44.529877829291145" lon="7.97110630697045"><ele>336.0</ele><time>2026-04-12T11:02:36Z</time></trkpt><trkpt lat="44.52992306744784" lon="7.971004203143032"><ele>336.0</ele><time>2026-04-12T11:02:37Z</time></trkpt><trkpt lat="44.52997264512164" lon="7.970902518581494"><ele>336.0</ele><time>2026-04-12T11:02:38Z</time></trkpt><trkpt lat="44.530031226587646" lon="7.970789507584698"><ele>336.0</ele><time>2026-04-12T11:02:39Z</time></trkpt><trkpt lat="44.53007837334062" lon="7.970675510810153"><ele>336.0</ele><time>2026-04-12T11:02:40Z</time></trkpt><trkpt lat="44.53012281076739" lon="7.970568573027469"><ele>336.0</ele><time>2026-04-12T11:02:41Z</time></trkpt><trkpt lat="44.53016967164159" lon="7.970462733765661"><ele>334.6</ele><time>2026-04-12T11:02:42Z</time></trkpt><trkpt lat="44.53022561721466" lon="7.970350227839368"><ele>333.20000000000005</ele><time>2026-04-12T11:02:43Z</time></trkpt><trkpt lat="44.5302772171127" lon="7.970234997725584"><ele>331.79999999999995</ele><time>2026-04-12T11:02:44Z</time></trkpt><trkpt lat="44.530330406732446" lon="7.970124886570082"><ele>330.4</ele><time>2026-04-12T11:02:45Z</time></trkpt><trkpt lat="44.53037275224376" lon="7.970020034862607"><ele>329.0</ele><time>2026-04-12T11:02:46Z</time></trkpt><trkpt lat="44.530414693905776" lon="7.969912245331312"><ele>329.0</ele><time>2026-04-12T11:02:47Z</time></trkpt><trkpt lat="44.530459687051994" lon="7.96980112329666"><ele>329.0</ele><time>2026-04-12T11:02:48Z</time></trkpt><trkpt lat="44.53049928849855" lon="7.969698850730996"><ele>329.0</ele><time>2026-04-12T11:02:49Z</time></trkpt><trkpt lat="44.530548737113605" lon="7.969596382754039"><ele>329.0</ele><time>2026-04-12T11:02:50Z</time></trkpt><trkpt lat="44.53059517578886" lon="7.9694888948679745"><ele>329.0</ele><time>2026-04-12T11:02:51Z</time></trkpt><trkpt lat="44.53064201738156" lon="7.969382203987566"><ele>329.0</ele><time>2026-04-12T11:02:52Z</time></trkpt><trkpt lat="44.53068364801308" lon="7.969279577872025"><ele>327.0</ele><time>2026-04-12T11:02:53Z</time></trkpt><trkpt lat="44.53072577673679" lon="7.969183646907435"><ele>325.0</ele><time>2026-04-12T11:02:54Z</time></trkpt><trkpt lat="44.530767816580436" lon="7.969085573182061"><ele>323.0</ele><time>2026-04-12T11:02:55Z</time></trkpt><trkpt lat="44.53081036367709" lon="7.968986862114894"><ele>321.0</ele><time>2026-04-12T11:02:56Z</time></trkpt><trkpt lat="44.5308495136599" lon="7.96888775590254"><ele>319.0</ele><time>2026-04-12T11:02:57Z</time></trkpt><trkpt lat="44.530894456592925" lon="7.96878656322566"><ele>317.0</ele><time>2026-04-12T11:02:58Z</time></trkpt><trkpt lat="44.53093957686413" lon="7.968687572501804"><ele>317.0</ele><time>2026-04-12T11:02:59Z</time></trkpt><trkpt lat="44.53098511235214" lon="7.968588001167821"><ele>317.0</ele><time>2026-04-12T11:03:00Z</time></trkpt><trkpt lat="44.53102891930995" lon="7.9684860871847665"><ele>317.0</ele><time>2026-04-12T11:03:01Z</time></trkpt><trkpt lat="44.53107140696151" lon="7.968382850715373"><ele>317.0</ele><time>2026-04-12T11:03:02Z</time></trkpt><trkpt lat="44.5311181250785" lon="7.968280487315267"><ele>317.0</ele><time>2026-04-12T11:03:03Z</time></trkpt><trkpt lat="44.531160240003494" lon="7.968180219310526"><ele>317.0</ele><time>2026-04-12T11:03:04Z</time></trkpt><trkpt lat="44.53120265565898" lon="7.968081969869943"><ele>316.5</ele><time>2026-04-12T11:03:05Z</time></trkpt><trkpt lat="44.53124761810886" lon="7.967979747447788"><ele>316.0</ele><time>2026-04-12T11:03:06Z</time></trkpt><trkpt lat="44.531289218552615" lon="7.967877799286959"><ele>315.5</ele><time>2026-04-12T11:03:07Z</time></trkpt><trkpt lat="44.53133533645422" lon="7.967775738097483"><ele>315.0</ele><time>2026-04-12T11:03:08Z</time></trkpt><trkpt lat="44.531376703922525" lon="7.96767480924579"><ele>314.5</ele><time>2026-04-12T11:03:09Z</time></trkpt><trkpt lat="44.531420140274406" lon="7.967571981399866"><ele>314.0</ele><time>2026-04-12T11:03:10Z</time></trkpt><trkpt lat="44.53146667084464" lon="7.967470136261097"><ele>314.0</ele><time>2026-04-12T11:03:11Z</time></trkpt><trkpt lat="44.53151415987944" lon="7.967364062525633"><ele>314.0</ele><time>2026-04-12T11:03:12Z</time></trkpt><trkpt lat="44.531559887443585" lon="7.967258699551854"><ele>314.0</ele><time>2026-04-12T11:03:13Z</time></trkpt><trkpt lat="44.53161082818784" lon="7.967149992071722"><ele>314.0</ele><time>2026-04-12T11:03:14Z</time></trkpt><trkpt lat="44.53166284136106" lon="7.967044141231492"><ele>314.0</ele><time>2026-04-12T11:03:15Z</time></trkpt><trkpt lat="44.5317225516057" lon="7.966948756149372"><ele>314.0</ele><time>2026-04-12T11:03:16Z</time></trkpt><trkpt lat="44.53178913525526" lon="7.966868913009259"><ele>314.0</ele><time>2026-04-12T11:03:17Z</time></trkpt><trkpt lat="44.53185197910285" lon="7.966784758769395"><ele>314.0</ele><time>2026-04-12T11:03:18Z</time></trkpt><trkpt lat="44.5319160572282" lon="7.96669465340002"><ele>314.0</ele><time>2026-04-12T11:03:19Z</time></trkpt><trkpt lat="44.531985281901434" lon="7.966603304607692"><ele>314.0</ele><time>2026-04-12T11:03:20Z</time></trkpt><trkpt lat="44.53204891505337" lon="7.966514009387143"><ele>312.6666666666667</ele><time>2026-04-12T11:03:21Z</time></trkpt><trkpt lat="44.53210754993346" lon="7.9664273720498215"><ele>311.33333333333337</ele><time>2026-04-12T11:03:21.999Z</time></trkpt><trkpt lat="44.53216539445617" lon="7.96634367841651"><ele>310.0</ele><time>2026-04-12T11:03:22.999Z</time></trkpt><trkpt lat="44.5322173501612" lon="7.9662652677039905"><ele>308.6666666666667</ele><time>2026-04-12T11:03:23.999Z</time></trkpt><trkpt lat="44.53226953729859" lon="7.966177681438113"><ele>307.3333333333333</ele><time>2026-04-12T11:03:24.999Z</time></trkpt><trkpt lat="44.53231832117955" lon="7.96609302768007"><ele>306.0</ele><time>2026-04-12T11:03:25.999Z</time></trkpt><trkpt lat="44.53235474712831" lon="7.965989720409842"><ele>306.0</ele><time>2026-04-12T11:03:26.999Z</time></trkpt><trkpt lat="44.532394087166" lon="7.965900884142939"><ele>306.0</ele><time>2026-04-12T11:03:27.999Z</time></trkpt><trkpt lat="44.53243439307408" lon="7.965812183199707"><ele>306.0</ele><time>2026-04-12T11:03:28.999Z</time></trkpt><trkpt lat="44.53247085750647" lon="7.965725843585002"><ele>306.0</ele><time>2026-04-12T11:03:29.999Z</time></trkpt><trkpt lat="44.532501445117795" lon="7.965644823261257"><ele>306.0</ele><time>2026-04-12T11:03:30.999Z</time></trkpt><trkpt lat="44.5325310326229" lon="7.965564890996433"><ele>306.0</ele><time>2026-04-12T11:03:31.999Z</time></trkpt><trkpt lat="44.53259005643415" lon="7.965413865655687"><ele>306.0</ele><time>2026-04-12T11:03:33.999Z</time></trkpt><trkpt lat="44.532651246738695" lon="7.9652706346047895"><ele>306.0</ele><time>2026-04-12T11:03:35.999Z</time></trkpt><trkpt lat="44.532711372827094" lon="7.965132851566802"><ele>306.0</ele><time>2026-04-12T11:03:37.999Z</time></trkpt><trkpt lat="44.53277317803962" lon="7.96498452263291"><ele>306.0</ele><time>2026-04-12T11:03:39.999Z</time></trkpt><trkpt lat="44.53282581940501" lon="7.964841358900632"><ele>306.0</ele><time>2026-04-12T11:03:41.999Z</time></trkpt><trkpt lat="44.53287020003071" lon="7.9646871726060375"><ele>306.0</ele><time>2026-04-12T11:03:43.999Z</time></trkpt><trkpt lat="44.53291964343459" lon="7.9645427081940126"><ele>306.0</ele><time>2026-04-12T11:03:45.999Z</time></trkpt><trkpt lat="44.532975735996246" lon="7.964405585627717"><ele>306.0</ele><time>2026-04-12T11:03:47.999Z</time></trkpt><trkpt lat="44.53302313068278" lon="7.964266235984754"><ele>306.8</ele><time>2026-04-12T11:03:49.999Z</time></trkpt><trkpt lat="44.53306718964412" lon="7.964115124546247"><ele>307.6</ele><time>2026-04-12T11:03:51.999Z</time></trkpt><trkpt lat="44.533113691032455" lon="7.963969499404165"><ele>308.4</ele><time>2026-04-12T11:03:53.999Z</time></trkpt><trkpt lat="44.533155844770825" lon="7.963822538252553"><ele>309.2</ele><time>2026-04-12T11:03:55.999Z</time></trkpt><trkpt lat="44.533196993543285" lon="7.963685190961542"><ele>310.0</ele><time>2026-04-12T11:03:57.999Z</time></trkpt><trkpt lat="44.533257320764214" lon="7.963474137300841"><ele>309.6</ele><time>2026-04-12T11:04:00.999Z</time></trkpt><trkpt lat="44.53329606934744" lon="7.963341994268916"><ele>309.2</ele><time>2026-04-12T11:04:02.999Z</time></trkpt><trkpt lat="44.53334003561711" lon="7.9632023914100305"><ele>308.8</ele><time>2026-04-12T11:04:04.999Z</time></trkpt><trkpt lat="44.53338392242748" lon="7.963061587655257"><ele>308.4</ele><time>2026-04-12T11:04:06.999Z</time></trkpt><trkpt lat="44.533428820138624" lon="7.96292316737938"><ele>308.0</ele><time>2026-04-12T11:04:08.999Z</time></trkpt><trkpt lat="44.53347177611227" lon="7.9627780641676935"><ele>308.0</ele><time>2026-04-12T11:04:10.999Z</time></trkpt><trkpt lat="44.533516278144305" lon="7.962630016644294"><ele>308.0</ele><time>2026-04-12T11:04:12.999Z</time></trkpt><trkpt lat="44.53354733142806" lon="7.962481180918844"><ele>308.0</ele><time>2026-04-12T11:04:14.999Z</time></trkpt><trkpt lat="44.53357191970513" lon="7.962308689489325"><ele>308.0</ele><time>2026-04-12T11:04:16.999Z</time></trkpt><trkpt lat="44.533580932847336" lon="7.962145632888388"><ele>307.6666666666667</ele><time>2026-04-12T11:04:18.999Z</time></trkpt><trkpt lat="44.53358978863075" lon="7.9620511160335194"><ele>307.33333333333337</ele><time>2026-04-12T11:04:19.999Z</time></trkpt><trkpt lat="44.533602876056946" lon="7.9618749887204086"><ele>307.0</ele><time>2026-04-12T11:04:21.999Z</time></trkpt><trkpt lat="44.53360750119036" lon="7.961777827304553"><ele>306.6666666666667</ele><time>2026-04-12T11:04:22.999Z</time></trkpt><trkpt lat="44.53361527920178" lon="7.96168741966604"><ele>306.3333333333333</ele><time>2026-04-12T11:04:23.999Z</time></trkpt><trkpt lat="44.5336213794699" lon="7.961595919606171"><ele>306.0</ele><time>2026-04-12T11:04:24.999Z</time></trkpt><trkpt lat="44.533625832684756" lon="7.961420335096528"><ele>305.6666666666667</ele><time>2026-04-12T11:04:26.999Z</time></trkpt><trkpt lat="44.53362641603692" lon="7.961327160777434"><ele>305.3333333333333</ele><time>2026-04-12T11:04:27.999Z</time></trkpt><trkpt lat="44.53363171877462" lon="7.961234930745987"><ele>305.0</ele><time>2026-04-12T11:04:28.999Z</time></trkpt><trkpt lat="44.53364422356744" lon="7.961059364625835"><ele>304.66666666666663</ele><time>2026-04-12T11:04:30.999Z</time></trkpt><trkpt lat="44.533650324547196" lon="7.960965400176164"><ele>304.3333333333333</ele><time>2026-04-12T11:04:31.999Z</time></trkpt><trkpt lat="44.53365621820938" lon="7.960874790268734"><ele>304.0</ele><time>2026-04-12T11:04:32.998Z</time></trkpt><trkpt lat="44.53366774912911" lon="7.9607066253955265"><ele>303.5</ele><time>2026-04-12T11:04:34.998Z</time></trkpt><trkpt lat="44.53367464710896" lon="7.960549727975108"><ele>303.0</ele><time>2026-04-12T11:04:37Z</time></trkpt><trkpt lat="44.53367887786782" lon="7.960381306218781"><ele>302.5</ele><time>2026-04-12T11:04:39Z</time></trkpt><trkpt lat="44.53368492480082" lon="7.960229324131035"><ele>302.0</ele><time>2026-04-12T11:04:41Z</time></trkpt><trkpt lat="44.53370124139866" lon="7.960074436506861"><ele>301.2</ele><time>2026-04-12T11:04:43Z</time></trkpt><trkpt lat="44.5337069325016" lon="7.959917145470062"><ele>300.4</ele><time>2026-04-12T11:04:45Z</time></trkpt><trkpt lat="44.53370602136616" lon="7.959760394120025"><ele>299.6</ele><time>2026-04-12T11:04:47Z</time></trkpt><trkpt lat="44.53370223096167" lon="7.959604856900631"><ele>298.8</ele><time>2026-04-12T11:04:49Z</time></trkpt><trkpt lat="44.53370346521486" lon="7.9594456980812875"><ele>298.0</ele><time>2026-04-12T11:04:51Z</time></trkpt><trkpt lat="44.53370014558075" lon="7.959287392949301"><ele>298.0</ele><time>2026-04-12T11:04:53Z</time></trkpt><trkpt lat="44.53369093942956" lon="7.959127761493173"><ele>298.0</ele><time>2026-04-12T11:04:55Z</time></trkpt><trkpt lat="44.53367929442008" lon="7.958975603344278"><ele>298.0</ele><time>2026-04-12T11:04:57Z</time></trkpt><trkpt lat="44.533670729300006" lon="7.958822680651298"><ele>298.0</ele><time>2026-04-12T11:04:59Z</time></trkpt><trkpt lat="44.53366129604998" lon="7.958662876974878"><ele>298.0</ele><time>2026-04-12T11:05:01Z</time></trkpt><trkpt lat="44.53365221924982" lon="7.958507934196913"><ele>298.0</ele><time>2026-04-12T11:05:03Z</time></trkpt><trkpt lat="44.53364037000583" lon="7.958354494992583"><ele>298.0</ele><time>2026-04-12T11:05:05Z</time></trkpt><trkpt lat="44.53363261507608" lon="7.958201223855486"><ele>298.0</ele><time>2026-04-12T11:05:07Z</time></trkpt><trkpt lat="44.53362579175587" lon="7.958058390034271"><ele>298.0</ele><time>2026-04-12T11:05:09Z</time></trkpt><trkpt lat="44.53361821530232" lon="7.957910703194042"><ele>298.0</ele><time>2026-04-12T11:05:11Z</time></trkpt><trkpt lat="44.53361209033779" lon="7.957773897575419"><ele>298.0</ele><time>2026-04-12T11:05:13Z</time></trkpt><trkpt lat="44.53360017950949" lon="7.957641459682927"><ele>298.0</ele><time>2026-04-12T11:05:15Z</time></trkpt><trkpt lat="44.53358938068575" lon="7.957510252775462"><ele>298.0</ele><time>2026-04-12T11:05:17Z</time></trkpt><trkpt lat="44.53357835211726" lon="7.9573974116157125"><ele>298.0</ele><time>2026-04-12T11:05:19Z</time></trkpt><trkpt lat="44.533580949392025" lon="7.95728019013391"><ele>298.0</ele><time>2026-04-12T11:05:21Z</time></trkpt><trkpt lat="44.53357387020343" lon="7.957174671289441"><ele>298.0</ele><time>2026-04-12T11:05:23Z</time></trkpt><trkpt lat="44.53354035375268" lon="7.957068673818819"><ele>298.6</ele><time>2026-04-12T11:05:24.999Z</time></trkpt><trkpt lat="44.5334956418129" lon="7.956949059236668"><ele>299.20000000000005</ele><time>2026-04-12T11:05:26.999Z</time></trkpt><trkpt lat="44.533462413400464" lon="7.956821279003602"><ele>299.8</ele><time>2026-04-12T11:05:28.999Z</time></trkpt><trkpt lat="44.533432438349024" lon="7.9566708446302385"><ele>300.40000000000003</ele><time>2026-04-12T11:05:30.999Z</time></trkpt><trkpt lat="44.53339873989725" lon="7.956514910532014"><ele>301.0</ele><time>2026-04-12T11:05:32.999Z</time></trkpt><trkpt lat="44.53335971526277" lon="7.9563442754311335"><ele>301.14285714285717</ele><time>2026-04-12T11:05:34.999Z</time></trkpt><trkpt lat="44.533343303536235" lon="7.956257876051476"><ele>301.2857142857143</ele><time>2026-04-12T11:05:35.999Z</time></trkpt><trkpt lat="44.53332019804797" lon="7.956159843619717"><ele>301.42857142857144</ele><time>2026-04-12T11:05:36.999Z</time></trkpt><trkpt lat="44.53329765344531" lon="7.956061222147676"><ele>301.57142857142856</ele><time>2026-04-12T11:05:37.999Z</time></trkpt><trkpt lat="44.533279855586066" lon="7.9559677847568615"><ele>301.7142857142857</ele><time>2026-04-12T11:05:38.999Z</time></trkpt><trkpt lat="44.53325518065971" lon="7.955861455971893"><ele>301.8571428571429</ele><time>2026-04-12T11:05:39.999Z</time></trkpt><trkpt lat="44.53323011293967" lon="7.9557612243998355"><ele>302.0</ele><time>2026-04-12T11:05:40.999Z</time></trkpt><trkpt lat="44.53320615301591" lon="7.955648394316269"><ele>302.0</ele><time>2026-04-12T11:05:41.999Z</time></trkpt><trkpt lat="44.53318767435533" lon="7.955545854343011"><ele>302.0</ele><time>2026-04-12T11:05:42.999Z</time></trkpt><trkpt lat="44.533171432091095" lon="7.955436840241238"><ele>302.0</ele><time>2026-04-12T11:05:43.999Z</time></trkpt><trkpt lat="44.53315269768431" lon="7.955320131982152"><ele>302.0</ele><time>2026-04-12T11:05:44.999Z</time></trkpt><trkpt lat="44.533132458028525" lon="7.955213874200172"><ele>302.0</ele><time>2026-04-12T11:05:45.999Z</time></trkpt><trkpt lat="44.533108637334784" lon="7.955102901183307"><ele>302.0</ele><time>2026-04-12T11:05:46.999Z</time></trkpt><trkpt lat="44.53305668375493" lon="7.95499769943399"><ele>301.6666666666667</ele><time>2026-04-12T11:05:47.999Z</time></trkpt><trkpt lat="44.533041790817315" lon="7.9549003662631215"><ele>301.33333333333337</ele><time>2026-04-12T11:05:48.999Z</time></trkpt><trkpt lat="44.53303215359895" lon="7.954781329339264"><ele>301.0</ele><time>2026-04-12T11:05:49.999Z</time></trkpt><trkpt lat="44.53300676028375" lon="7.954663502053271"><ele>300.6666666666667</ele><time>2026-04-12T11:05:50.999Z</time></trkpt><trkpt lat="44.53298362961718" lon="7.954549073778895"><ele>300.3333333333333</ele><time>2026-04-12T11:05:51.999Z</time></trkpt><trkpt lat="44.53296443070132" lon="7.954436579058029"><ele>300.0</ele><time>2026-04-12T11:05:52.999Z</time></trkpt><trkpt lat="44.5329138182342" lon="7.954267492762967"><ele>299.1666666666667</ele><time>2026-04-12T11:05:54.999Z</time></trkpt><trkpt lat="44.532877591997234" lon="7.954180573444265"><ele>298.3333333333333</ele><time>2026-04-12T11:05:55.999Z</time></trkpt><trkpt lat="44.53285996511109" lon="7.954084055116833"><ele>297.5</ele><time>2026-04-12T11:05:56.999Z</time></trkpt><trkpt lat="44.53283162160997" lon="7.9539809404254935"><ele>296.66666666666663</ele><time>2026-04-12T11:05:57.999Z</time></trkpt><trkpt lat="44.53281300455723" lon="7.953823347922697"><ele>295.8333333333333</ele><time>2026-04-12T11:05:59.999Z</time></trkpt><trkpt lat="44.5327864701273" lon="7.953741681106341"><ele>295.0</ele><time>2026-04-12T11:06:00.999Z</time></trkpt><trkpt lat="44.532750974717985" lon="7.953596294716898"><ele>295.0</ele><time>2026-04-12T11:06:02.999Z</time></trkpt><trkpt lat="44.532732115901716" lon="7.953509759421858"><ele>295.0</ele><time>2026-04-12T11:06:03.999Z</time></trkpt><trkpt lat="44.532701931815346" lon="7.953351586961732"><ele>295.0</ele><time>2026-04-12T11:06:05.999Z</time></trkpt><trkpt lat="44.5326605305341" lon="7.953183618297529"><ele>295.0</ele><time>2026-04-12T11:06:07.999Z</time></trkpt><trkpt lat="44.53261423676162" lon="7.9530468046376726"><ele>295.0</ele><time>2026-04-12T11:06:09.999Z</time></trkpt><trkpt lat="44.532581002235915" lon="7.952897994957342"><ele>295.0</ele><time>2026-04-12T11:06:11.999Z</time></trkpt><trkpt lat="44.53254911211293" lon="7.9527630339504345"><ele>295.0</ele><time>2026-04-12T11:06:13.999Z</time></trkpt><trkpt lat="44.53250562193901" lon="7.952613118224756"><ele>295.0</ele><time>2026-04-12T11:06:15.999Z</time></trkpt><trkpt lat="44.5324653443375" lon="7.952461043443831"><ele>295.0</ele><time>2026-04-12T11:06:17.999Z</time></trkpt><trkpt lat="44.53242648514631" lon="7.952310610922132"><ele>295.0</ele><time>2026-04-12T11:06:19.999Z</time></trkpt><trkpt lat="44.53238533887636" lon="7.952159123286251"><ele>295.0</ele><time>2026-04-12T11:06:21.999Z</time></trkpt><trkpt lat="44.532347302653484" lon="7.952019641988474"><ele>295.0</ele><time>2026-04-12T11:06:23.999Z</time></trkpt><trkpt lat="44.53230880774848" lon="7.951878772923519"><ele>295.0</ele><time>2026-04-12T11:06:25.999Z</time></trkpt><trkpt lat="44.53227226620124" lon="7.951735152412508"><ele>295.0</ele><time>2026-04-12T11:06:27.999Z</time></trkpt><trkpt lat="44.532241500014635" lon="7.9515822739938775"><ele>295.0</ele><time>2026-04-12T11:06:29.999Z</time></trkpt><trkpt lat="44.53220855036994" lon="7.951445845614197"><ele>295.0</ele><time>2026-04-12T11:06:31.999Z</time></trkpt><trkpt lat="44.532177868843796" lon="7.9512876289487755"><ele>295.0</ele><time>2026-04-12T11:06:33.999Z</time></trkpt><trkpt lat="44.53214015399647" lon="7.951133381152581"><ele>295.0</ele><time>2026-04-12T11:06:35.998Z</time></trkpt><trkpt lat="44.532116503369686" lon="7.950990873055093"><ele>295.0</ele><time>2026-04-12T11:06:37.998Z</time></trkpt><trkpt lat="44.5321039698347" lon="7.9508381118783715"><ele>295.0</ele><time>2026-04-12T11:06:39.998Z</time></trkpt><trkpt lat="44.53210181360638" lon="7.9506894650016315"><ele>295.0</ele><time>2026-04-12T11:06:41.998Z</time></trkpt><trkpt lat="44.532098599760154" lon="7.950551309839459"><ele>295.0</ele><time>2026-04-12T11:06:44Z</time></trkpt><trkpt lat="44.53209099142918" lon="7.950419423468435"><ele>295.0</ele><time>2026-04-12T11:06:46Z</time></trkpt><trkpt lat="44.53208417207015" lon="7.950278933584449"><ele>295.0</ele><time>2026-04-12T11:06:48Z</time></trkpt><trkpt lat="44.5320831292403" lon="7.950137026246333"><ele>295.0</ele><time>2026-04-12T11:06:50Z</time></trkpt><trkpt lat="44.53207801089379" lon="7.95000869403675"><ele>295.0</ele><time>2026-04-12T11:06:52Z</time></trkpt><trkpt lat="44.53205917989579" lon="7.949895816287439"><ele>295.0</ele><time>2026-04-12T11:06:54Z</time></trkpt><trkpt lat="44.532021996495445" lon="7.949774324305452"><ele>295.0</ele><time>2026-04-12T11:06:56Z</time></trkpt><trkpt lat="44.53195670039542" lon="7.949694551743729"><ele>295.0</ele><time>2026-04-12T11:06:59Z</time></trkpt><trkpt lat="44.53189095688706" lon="7.949619310870722"><ele>295.0</ele><time>2026-04-12T11:07:02Z</time></trkpt><trkpt lat="44.531818196522416" lon="7.949559362248716"><ele>295.0</ele><time>2026-04-12T11:07:04Z</time></trkpt><trkpt lat="44.531737244635664" lon="7.949514807059974"><ele>294.2</ele><time>2026-04-12T11:07:06Z</time></trkpt><trkpt lat="44.53165125606242" lon="7.949472389764215"><ele>293.4</ele><time>2026-04-12T11:07:08Z</time></trkpt><trkpt lat="44.53155095658814" lon="7.949438897375716"><ele>292.6</ele><time>2026-04-12T11:07:10Z</time></trkpt><trkpt lat="44.53143825257315" lon="7.949410451329862"><ele>291.8</ele><time>2026-04-12T11:07:12Z</time></trkpt><trkpt lat="44.53133931030059" lon="7.949390173303948"><ele>291.0</ele><time>2026-04-12T11:07:14Z</time></trkpt><trkpt lat="44.531244700068996" lon="7.949372989495545"><ele>290.40000000000003</ele><time>2026-04-12T11:07:16Z</time></trkpt><trkpt lat="44.53114752154038" lon="7.949356114664134"><ele>289.8</ele><time>2026-04-12T11:07:18Z</time></trkpt><trkpt lat="44.53104961936229" lon="7.949334406845347"><ele>289.20000000000005</ele><time>2026-04-12T11:07:20Z</time></trkpt><trkpt lat="44.53097729912303" lon="7.94934055928927"><ele>288.6</ele><time>2026-04-12T11:07:22Z</time></trkpt><trkpt lat="44.5308853596914" lon="7.949351314711758"><ele>288.0</ele><time>2026-04-12T11:07:25Z</time></trkpt><trkpt lat="44.530791815045376" lon="7.9493472770532865"><ele>288.0</ele><time>2026-04-12T11:07:28Z</time></trkpt><trkpt lat="44.53074093878661" lon="7.949273501839883"><ele>288.0</ele><time>2026-04-12T11:07:29.999Z</time></trkpt><trkpt lat="44.53074152935816" lon="7.949141411396289"><ele>288.0</ele><time>2026-04-12T11:07:31.999Z</time></trkpt><trkpt lat="44.53076661364893" lon="7.949009423826958"><ele>288.0</ele><time>2026-04-12T11:07:33.999Z</time></trkpt><trkpt lat="44.53078052064018" lon="7.948865818859359"><ele>288.0</ele><time>2026-04-12T11:07:35.999Z</time></trkpt><trkpt lat="44.530796121632406" lon="7.948711977148445"><ele>288.2</ele><time>2026-04-12T11:07:37.999Z</time></trkpt><trkpt lat="44.530809741796595" lon="7.948561109464225"><ele>288.4</ele><time>2026-04-12T11:07:39.999Z</time></trkpt><trkpt lat="44.530825082492214" lon="7.948405806146165"><ele>288.59999999999997</ele><time>2026-04-12T11:07:41.999Z</time></trkpt><trkpt lat="44.530842743005" lon="7.948253683346872"><ele>288.8</ele><time>2026-04-12T11:07:43.999Z</time></trkpt><trkpt lat="44.530860885437775" lon="7.948103352914916"><ele>289.0</ele><time>2026-04-12T11:07:45.999Z</time></trkpt><trkpt lat="44.53088226125196" lon="7.947952004528759"><ele>289.0</ele><time>2026-04-12T11:07:47.999Z</time></trkpt><trkpt lat="44.53089244467822" lon="7.947807261437622"><ele>289.0</ele><time>2026-04-12T11:07:49.999Z</time></trkpt><trkpt lat="44.53090570329646" lon="7.947668189860834"><ele>289.0</ele><time>2026-04-12T11:07:51.999Z</time></trkpt><trkpt lat="44.530918505581475" lon="7.947537731933979"><ele>289.0</ele><time>2026-04-12T11:07:53.999Z</time></trkpt><trkpt lat="44.53092795805434" lon="7.947407481065885"><ele>289.0</ele><time>2026-04-12T11:07:55.999Z</time></trkpt><trkpt lat="44.530946501016665" lon="7.947277105219862"><ele>288.59999999999997</ele><time>2026-04-12T11:07:57.999Z</time></trkpt><trkpt lat="44.53095790715724" lon="7.947145275067152"><ele>288.2</ele><time>2026-04-12T11:07:59.999Z</time></trkpt><trkpt lat="44.53097573955523" lon="7.947016685739077"><ele>287.79999999999995</ele><time>2026-04-12T11:08:01.999Z</time></trkpt><trkpt lat="44.53099074463709" lon="7.946890298572035"><ele>287.4</ele><time>2026-04-12T11:08:03.999Z</time></trkpt><trkpt lat="44.531004507714556" lon="7.946746526100708"><ele>287.0</ele><time>2026-04-12T11:08:05.999Z</time></trkpt><trkpt lat="44.53101306523548" lon="7.946601071980035"><ele>287.0</ele><time>2026-04-12T11:08:07.999Z</time></trkpt><trkpt lat="44.53103148671619" lon="7.946453006909042"><ele>287.0</ele><time>2026-04-12T11:08:09.999Z</time></trkpt><trkpt lat="44.53104388366982" lon="7.946308680412633"><ele>287.0</ele><time>2026-04-12T11:08:11.999Z</time></trkpt><trkpt lat="44.531055590402566" lon="7.946164964873314"><ele>287.0</ele><time>2026-04-12T11:08:13.999Z</time></trkpt><trkpt lat="44.53108006524069" lon="7.9460352050335"><ele>287.0</ele><time>2026-04-12T11:08:15.999Z</time></trkpt><trkpt lat="44.53110379781154" lon="7.945919395595812"><ele>286.85714285714283</ele><time>2026-04-12T11:08:17.999Z</time></trkpt><trkpt lat="44.53111791826805" lon="7.945813616962866"><ele>286.7142857142857</ele><time>2026-04-12T11:08:19.999Z</time></trkpt><trkpt lat="44.53111998306124" lon="7.945704958621211"><ele>286.57142857142856</ele><time>2026-04-12T11:08:21.999Z</time></trkpt><trkpt lat="44.53106929231748" lon="7.945645650345962"><ele>286.42857142857144</ele><time>2026-04-12T11:08:25.999Z</time></trkpt><trkpt lat="44.530997364336734" lon="7.945610614541654"><ele>286.2857142857143</ele><time>2026-04-12T11:08:28.999Z</time></trkpt><trkpt lat="44.53093421803377" lon="7.945606569393106"><ele>286.1428571428571</ele><time>2026-04-12T11:08:32.999Z</time></trkpt><trkpt lat="44.53085699238063" lon="7.945613951810087"><ele>286.0</ele><time>2026-04-12T11:08:37.999Z</time></trkpt><trkpt lat="44.53078405770323" lon="7.94559970014082"><ele>286.0</ele><time>2026-04-12T11:08:41.998Z</time></trkpt><trkpt lat="44.53071026423474" lon="7.945590366382723"><ele>286.0</ele><time>2026-04-12T11:08:46.998Z</time></trkpt><trkpt lat="44.53075187528704" lon="7.945693721778148"><ele>286.0</ele><time>2026-04-12T11:58:59.999Z</time></trkpt><trkpt lat="44.53086188784232" lon="7.945647398573858"><ele>286.0</ele><time>2026-04-12T12:03:58.999Z</time></trkpt><trkpt lat="44.53092843626299" lon="7.9456795455486136"><ele>286.0</ele><time>2026-04-12T12:04:03.999Z</time></trkpt><trkpt lat="44.53099022189498" lon="7.945700459881326"><ele>286.0</ele><time>2026-04-12T12:04:07.999Z</time></trkpt><trkpt lat="44.53104953316376" lon="7.945760521503826"><ele>285.99999999999994</ele><time>2026-04-12T12:04:11.999Z</time></trkpt><trkpt lat="44.53111153527317" lon="7.945736796218703"><ele>286.0</ele><time>2026-04-12T12:04:20.999Z</time></trkpt><trkpt lat="44.53112725762978" lon="7.945632277065503"><ele>286.0</ele><time>2026-04-12T12:04:25.999Z</time></trkpt><trkpt lat="44.53112095376221" lon="7.945530354812445"><ele>286.0</ele><time>2026-04-12T12:04:28.999Z</time></trkpt><trkpt lat="44.53113333438636" lon="7.945442395761294"><ele>286.0</ele><time>2026-04-12T12:04:32.999Z</time></trkpt><trkpt lat="44.531178892140005" lon="7.945378677064045"><ele>285.99999999999994</ele><time>2026-04-12T12:04:37.999Z</time></trkpt><trkpt lat="44.53112234103163" lon="7.945313630652954"><ele>286.0</ele><time>2026-04-12T12:05:09.999Z</time></trkpt><trkpt lat="44.53105184755297" lon="7.945306318471747"><ele>285.99999999999994</ele><time>2026-04-12T12:05:11.999Z</time></trkpt><trkpt lat="44.53098857124009" lon="7.9452993860644465"><ele>286.0</ele><time>2026-04-12T12:05:13.999Z</time></trkpt><trkpt lat="44.53091886756604" lon="7.945283203706411"><ele>286.0</ele><time>2026-04-12T12:05:15.999Z</time></trkpt><trkpt lat="44.53085038171036" lon="7.945273629497574"><ele>286.0</ele><time>2026-04-12T12:05:18.999Z</time></trkpt><trkpt lat="44.530872774354705" lon="7.945183234217375"><ele>286.0</ele><time>2026-04-12T12:05:23.999Z</time></trkpt><trkpt lat="44.53095414751323" lon="7.945193955800837"><ele>285.99999999999994</ele><time>2026-04-12T12:05:28.999Z</time></trkpt><trkpt lat="44.53101359489654" lon="7.945268047174829"><ele>286.0</ele><time>2026-04-12T12:05:31.999Z</time></trkpt><trkpt lat="44.53107365725211" lon="7.945235038753539"><ele>286.0</ele><time>2026-04-12T12:05:38.999Z</time></trkpt><trkpt lat="44.53110421116469" lon="7.9451323074886835"><ele>286.0</ele><time>2026-04-12T12:06:05.999Z</time></trkpt><trkpt lat="44.53111520737038" lon="7.945044139357466"><ele>286.0</ele><time>2026-04-12T12:06:07.999Z</time></trkpt><trkpt lat="44.53112424788827" lon="7.944949922839464"><ele>286.0</ele><time>2026-04-12T12:06:09.999Z</time></trkpt><trkpt lat="44.531145680548846" lon="7.944842363903117"><ele>286.0</ele><time>2026-04-12T12:06:11.999Z</time></trkpt><trkpt lat="44.53115251521465" lon="7.944720779151105"><ele>286.0</ele><time>2026-04-12T12:06:13.999Z</time></trkpt><trkpt lat="44.53117245930128" lon="7.944599213833516"><ele>285.6</ele><time>2026-04-12T12:06:15.999Z</time></trkpt><trkpt lat="44.531192801097134" lon="7.944464974344588"><ele>285.20000000000005</ele><time>2026-04-12T12:06:17.999Z</time></trkpt><trkpt lat="44.53119766528885" lon="7.944334715522682"><ele>284.79999999999995</ele><time>2026-04-12T12:06:19.999Z</time></trkpt><trkpt lat="44.5311995516881" lon="7.944205081331792"><ele>284.4</ele><time>2026-04-12T12:06:21.999Z</time></trkpt><trkpt lat="44.531209326758045" lon="7.944073129003694"><ele>284.0</ele><time>2026-04-12T12:06:23.999Z</time></trkpt><trkpt lat="44.53122816212591" lon="7.9439415108176314"><ele>284.0</ele><time>2026-04-12T12:06:25.999Z</time></trkpt><trkpt lat="44.53122258267259" lon="7.943811808212237"><ele>284.0</ele><time>2026-04-12T12:06:27.999Z</time></trkpt><trkpt lat="44.53120827337097" lon="7.9436981243525855"><ele>284.0</ele><time>2026-04-12T12:06:29.999Z</time></trkpt><trkpt lat="44.531176378967146" lon="7.943594247689093"><ele>284.0</ele><time>2026-04-12T12:06:31.999Z</time></trkpt><trkpt lat="44.531136010146014" lon="7.943498419752969"><ele>284.0</ele><time>2026-04-12T12:06:33.999Z</time></trkpt><trkpt lat="44.531108422740196" lon="7.943402758891401"><ele>284.0</ele><time>2026-04-12T12:06:35.999Z</time></trkpt><trkpt lat="44.531074624692124" lon="7.94328169927903"><ele>283.85714285714283</ele><time>2026-04-12T12:06:37.999Z</time></trkpt><trkpt lat="44.53104665218698" lon="7.943169892783251"><ele>283.71428571428567</ele><time>2026-04-12T12:06:39.999Z</time></trkpt><trkpt lat="44.53103009041463" lon="7.943063924032801"><ele>283.57142857142856</ele><time>2026-04-12T12:06:41.999Z</time></trkpt><trkpt lat="44.531016369542144" lon="7.9429651354457045"><ele>283.42857142857144</ele><time>2026-04-12T12:06:43.999Z</time></trkpt><trkpt lat="44.530987140920814" lon="7.942869051939517"><ele>283.28571428571433</ele><time>2026-04-12T12:06:45.999Z</time></trkpt><trkpt lat="44.53096805889269" lon="7.942783591919463"><ele>283.14285714285717</ele><time>2026-04-12T12:06:47.999Z</time></trkpt><trkpt lat="44.530940476121096" lon="7.942698103724235"><ele>283.0</ele><time>2026-04-12T12:06:49.999Z</time></trkpt><trkpt lat="44.530937672976606" lon="7.942569516923056"><ele>282.8333333333333</ele><time>2026-04-12T12:06:52.999Z</time></trkpt><trkpt lat="44.53093821745319" lon="7.942469410331275"><ele>282.66666666666663</ele><time>2026-04-12T12:06:54.999Z</time></trkpt><trkpt lat="44.53094039836083" lon="7.942362883603608"><ele>282.5</ele><time>2026-04-12T12:06:56.999Z</time></trkpt><trkpt lat="44.530935396142134" lon="7.942261604737608"><ele>282.3333333333333</ele><time>2026-04-12T12:06:58.999Z</time></trkpt><trkpt lat="44.530935780885855" lon="7.9421241568860745"><ele>282.1666666666667</ele><time>2026-04-12T12:07:01.999Z</time></trkpt><trkpt lat="44.53093720055783" lon="7.94201081287888"><ele>282.0</ele><time>2026-04-12T12:07:04.999Z</time></trkpt><trkpt lat="44.530965100568245" lon="7.941901503665083"><ele>282.0</ele><time>2026-04-12T12:07:08.999Z</time></trkpt><trkpt lat="44.530994631108655" lon="7.941807995543332"><ele>282.0</ele><time>2026-04-12T12:07:12.999Z</time></trkpt><trkpt lat="44.530952503937236" lon="7.941873632762634"><ele>282.0</ele><time>2026-04-12T12:07:16.999Z</time></trkpt><trkpt lat="44.53095455973801" lon="7.94198809396772"><ele>282.0</ele><time>2026-04-12T12:07:20.999Z</time></trkpt><trkpt lat="44.53095852720244" lon="7.942079127596547"><ele>282.0</ele><time>2026-04-12T12:07:23.999Z</time></trkpt><trkpt lat="44.530960126569994" lon="7.942186756999005"><ele>282.0</ele><time>2026-04-12T12:07:26.999Z</time></trkpt><trkpt lat="44.530958440718614" lon="7.942300671624522"><ele>282.0</ele><time>2026-04-12T12:07:29.999Z</time></trkpt><trkpt lat="44.53095816528084" lon="7.9424173306332735"><ele>282.0</ele><time>2026-04-12T12:07:32.999Z</time></trkpt><trkpt lat="44.53096685180995" lon="7.9425354901596545"><ele>282.0</ele><time>2026-04-12T12:07:36Z</time></trkpt><trkpt lat="44.53096788712537" lon="7.942643933722169"><ele>282.0</ele><time>2026-04-12T12:07:39Z</time></trkpt><trkpt lat="44.530908082973625" lon="7.94272215207405"><ele>282.0</ele><time>2026-04-12T12:07:42Z</time></trkpt><trkpt lat="44.53083329539723" lon="7.942735433033261"><ele>282.0</ele><time>2026-04-12T12:07:45Z</time></trkpt><trkpt lat="44.530751361999954" lon="7.942725649914289"><ele>282.0</ele><time>2026-04-12T12:07:48Z</time></trkpt><trkpt lat="44.53068982216769" lon="7.942701382071976"><ele>282.0</ele><time>2026-04-12T12:07:50Z</time></trkpt><trkpt lat="44.53060423264239" lon="7.942634636359524"><ele>282.0</ele><time>2026-04-12T12:07:53Z</time></trkpt><trkpt lat="44.530592635684" lon="7.942541408439986"><ele>282.0</ele><time>2026-04-12T12:07:55Z</time></trkpt><trkpt lat="44.53060312480969" lon="7.942435505914051"><ele>282.0</ele><time>2026-04-12T12:07:57Z</time></trkpt><trkpt lat="44.530602187043634" lon="7.9423317290392115"><ele>282.0</ele><time>2026-04-12T12:07:59Z</time></trkpt><trkpt lat="44.530605549544276" lon="7.942223164562907"><ele>282.0</ele><time>2026-04-12T12:08:01Z</time></trkpt><trkpt lat="44.53060976761517" lon="7.942117066119149"><ele>282.0</ele><time>2026-04-12T12:08:03Z</time></trkpt><trkpt lat="44.530607583445835" lon="7.942009812578452"><ele>282.0</ele><time>2026-04-12T12:08:05Z</time></trkpt><trkpt lat="44.53060802894686" lon="7.941897792559948"><ele>282.0</ele><time>2026-04-12T12:08:07Z</time></trkpt><trkpt lat="44.53061069758992" lon="7.941763566785574"><ele>282.0</ele><time>2026-04-12T12:08:09Z</time></trkpt><trkpt lat="44.530608932468425" lon="7.941657772509826"><ele>282.0</ele><time>2026-04-12T12:08:11Z</time></trkpt><trkpt lat="44.530597667012344" lon="7.941548925900218"><ele>282.0</ele><time>2026-04-12T12:08:13Z</time></trkpt><trkpt lat="44.53059744615276" lon="7.941428172757969"><ele>281.6666666666667</ele><time>2026-04-12T12:08:15Z</time></trkpt><trkpt lat="44.530589082457674" lon="7.941300254487436"><ele>281.3333333333333</ele><time>2026-04-12T12:08:17Z</time></trkpt><trkpt lat="44.530579754926165" lon="7.941182568099415"><ele>281.0</ele><time>2026-04-12T12:08:19Z</time></trkpt><trkpt lat="44.530571388055364" lon="7.941055140710092"><ele>280.66666666666663</ele><time>2026-04-12T12:08:21Z</time></trkpt><trkpt lat="44.53057191681851" lon="7.940937049905624"><ele>280.3333333333333</ele><time>2026-04-12T12:08:23Z</time></trkpt><trkpt lat="44.530579477686494" lon="7.940828408668023"><ele>280.0</ele><time>2026-04-12T12:08:25Z</time></trkpt><trkpt lat="44.530586376225145" lon="7.940696080470791"><ele>280.0</ele><time>2026-04-12T12:08:27Z</time></trkpt><trkpt lat="44.53057647296557" lon="7.940561319576902"><ele>280.0</ele><time>2026-04-12T12:08:29Z</time></trkpt><trkpt lat="44.53058597192085" lon="7.940435543393084"><ele>280.0</ele><time>2026-04-12T12:08:31Z</time></trkpt><trkpt lat="44.530588554068395" lon="7.940313555484112"><ele>280.0</ele><time>2026-04-12T12:08:33Z</time></trkpt><trkpt lat="44.53059968323852" lon="7.94018863974318"><ele>280.0</ele><time>2026-04-12T12:08:35Z</time></trkpt><trkpt lat="44.53060449297752" lon="7.940070826647654"><ele>280.0</ele><time>2026-04-12T12:08:37Z</time></trkpt><trkpt lat="44.530675067770964" lon="7.940000420691267"><ele>279.6</ele><time>2026-04-12T12:08:39Z</time></trkpt><trkpt lat="44.53076915094927" lon="7.939997812579512"><ele>279.2</ele><time>2026-04-12T12:08:41Z</time></trkpt><trkpt lat="44.53086821830086" lon="7.940000172674183"><ele>278.8</ele><time>2026-04-12T12:08:43Z</time></trkpt><trkpt lat="44.53096164494147" lon="7.939979361609734"><ele>278.4</ele><time>2026-04-12T12:08:45Z</time></trkpt><trkpt lat="44.53105653347855" lon="7.939971940170541"><ele>278.0</ele><time>2026-04-12T12:08:47Z</time></trkpt><trkpt lat="44.53114377454327" lon="7.93998586539922"><ele>277.5</ele><time>2026-04-12T12:08:49Z</time></trkpt><trkpt lat="44.53123208617391" lon="7.93998354964504"><ele>277.0</ele><time>2026-04-12T12:08:51Z</time></trkpt><trkpt lat="44.53131823421462" lon="7.939975793511679"><ele>276.5</ele><time>2026-04-12T12:08:53Z</time></trkpt><trkpt lat="44.53138754354112" lon="7.939960685001431"><ele>276.0</ele><time>2026-04-12T12:08:55Z</time></trkpt><trkpt lat="44.531468153954705" lon="7.939944798232781"><ele>275.5</ele><time>2026-04-12T12:08:58Z</time></trkpt><trkpt lat="44.531492637523435" lon="7.939829931875928"><ele>275.0</ele><time>2026-04-12T12:09:01Z</time></trkpt><trkpt lat="44.53151917532477" lon="7.939706019364695"><ele>275.0</ele><time>2026-04-12T12:09:04Z</time></trkpt><trkpt lat="44.53152029032878" lon="7.9395989890837235"><ele>275.0</ele><time>2026-04-12T12:09:06Z</time></trkpt><trkpt lat="44.53153477917074" lon="7.939478553478409"><ele>275.0</ele><time>2026-04-12T12:09:08Z</time></trkpt><trkpt lat="44.531544892600635" lon="7.939351958774963"><ele>275.0</ele><time>2026-04-12T12:09:10Z</time></trkpt><trkpt lat="44.53155741404891" lon="7.939235030063679"><ele>275.0</ele><time>2026-04-12T12:09:12Z</time></trkpt><trkpt lat="44.53157902416379" lon="7.939118481133094"><ele>275.0</ele><time>2026-04-12T12:09:14Z</time></trkpt><trkpt lat="44.531588007311925" lon="7.938996357172442"><ele>275.0</ele><time>2026-04-12T12:09:16Z</time></trkpt><trkpt lat="44.53159284518625" lon="7.938880190992785"><ele>275.0</ele><time>2026-04-12T12:09:18Z</time></trkpt><trkpt lat="44.5316067274137" lon="7.938761131499179"><ele>275.0</ele><time>2026-04-12T12:09:20Z</time></trkpt><trkpt lat="44.531616369287306" lon="7.938647218253709"><ele>275.0</ele><time>2026-04-12T12:09:22Z</time></trkpt><trkpt lat="44.53163207520004" lon="7.938528282408992"><ele>275.0</ele><time>2026-04-12T12:09:24Z</time></trkpt><trkpt lat="44.53163665915936" lon="7.938423687056429"><ele>275.0</ele><time>2026-04-12T12:09:26Z</time></trkpt><trkpt lat="44.53163873985439" lon="7.938309313516489"><ele>274.8</ele><time>2026-04-12T12:09:28Z</time></trkpt><trkpt lat="44.531649157978826" lon="7.938191263399884"><ele>274.6</ele><time>2026-04-12T12:09:30Z</time></trkpt><trkpt lat="44.531661590402784" lon="7.938067038197308"><ele>274.4</ele><time>2026-04-12T12:09:32Z</time></trkpt><trkpt lat="44.53167462376904" lon="7.937944857034853"><ele>274.2</ele><time>2026-04-12T12:09:34Z</time></trkpt><trkpt lat="44.53168226168417" lon="7.937815807024533"><ele>274.0</ele><time>2026-04-12T12:09:36Z</time></trkpt><trkpt lat="44.53169851740977" lon="7.9376764337311165"><ele>274.0</ele><time>2026-04-12T12:09:38Z</time></trkpt><trkpt lat="44.531710055051065" lon="7.937525558353228"><ele>274.0</ele><time>2026-04-12T12:09:40Z</time></trkpt><trkpt lat="44.531713961306565" lon="7.937368460036352"><ele>274.0</ele><time>2026-04-12T12:09:42Z</time></trkpt><trkpt lat="44.53172496476025" lon="7.937209800936989"><ele>274.0</ele><time>2026-04-12T12:09:44Z</time></trkpt><trkpt lat="44.53173539285646" lon="7.9370511347404475"><ele>274.0</ele><time>2026-04-12T12:09:46Z</time></trkpt><trkpt lat="44.53175393703525" lon="7.936888115082556"><ele>274.0</ele><time>2026-04-12T12:09:48Z</time></trkpt><trkpt lat="44.53177060357137" lon="7.936728199310541"><ele>274.0</ele><time>2026-04-12T12:09:50Z</time></trkpt><trkpt lat="44.53178295948177" lon="7.936575113513594"><ele>274.0</ele><time>2026-04-12T12:09:52Z</time></trkpt><trkpt lat="44.53179537079681" lon="7.936421125802854"><ele>274.0</ele><time>2026-04-12T12:09:54Z</time></trkpt><trkpt lat="44.53181572506933" lon="7.936263151926414"><ele>273.59999999999997</ele><time>2026-04-12T12:09:56Z</time></trkpt><trkpt lat="44.531838144438396" lon="7.936109893053471"><ele>273.2</ele><time>2026-04-12T12:09:58Z</time></trkpt><trkpt lat="44.53188580393371" lon="7.935967793865701"><ele>272.79999999999995</ele><time>2026-04-12T12:10:00Z</time></trkpt><trkpt lat="44.531964810400275" lon="7.935854061294567"><ele>272.4</ele><time>2026-04-12T12:10:02Z</time></trkpt><trkpt lat="44.53206473617302" lon="7.935796244508829"><ele>272.0</ele><time>2026-04-12T12:10:04Z</time></trkpt><trkpt lat="44.53217131656054" lon="7.935742193011786"><ele>272.0</ele><time>2026-04-12T12:10:06Z</time></trkpt><trkpt lat="44.53227904800882" lon="7.935680699891846"><ele>272.0</ele><time>2026-04-12T12:10:08Z</time></trkpt><trkpt lat="44.532391886345884" lon="7.935630262680112"><ele>272.0</ele><time>2026-04-12T12:10:10Z</time></trkpt><trkpt lat="44.532505518033744" lon="7.9355747803665935"><ele>272.0</ele><time>2026-04-12T12:10:12Z</time></trkpt><trkpt lat="44.532570986427245" lon="7.935548987957745"><ele>272.0</ele><time>2026-04-12T12:10:13Z</time></trkpt><trkpt lat="44.532677216901014" lon="7.9354903193067186"><ele>272.0</ele><time>2026-04-12T12:10:15Z</time></trkpt><trkpt lat="44.53277453030904" lon="7.935428118513071"><ele>272.0</ele><time>2026-04-12T12:10:17Z</time></trkpt><trkpt lat="44.53287916095043" lon="7.935377048157015"><ele>272.0</ele><time>2026-04-12T12:10:19Z</time></trkpt><trkpt lat="44.532989064734174" lon="7.9353018387447145"><ele>272.0</ele><time>2026-04-12T12:10:21Z</time></trkpt><trkpt lat="44.53310784021487" lon="7.93524004331798"><ele>272.25</ele><time>2026-04-12T12:10:23Z</time></trkpt><trkpt lat="44.5332236130436" lon="7.935176840003349"><ele>272.5</ele><time>2026-04-12T12:10:25Z</time></trkpt><trkpt lat="44.53333174580103" lon="7.935113591568233"><ele>272.75</ele><time>2026-04-12T12:10:27Z</time></trkpt><trkpt lat="44.53344886811242" lon="7.935060356887318"><ele>273.0</ele><time>2026-04-12T12:10:29Z</time></trkpt><trkpt lat="44.53356582071605" lon="7.935013750736868"><ele>272.0</ele><time>2026-04-12T12:10:31Z</time></trkpt><trkpt lat="44.53367736005639" lon="7.934957805606955"><ele>271.0</ele><time>2026-04-12T12:10:33Z</time></trkpt><trkpt lat="44.53378596642941" lon="7.934895746864122"><ele>270.0</ele><time>2026-04-12T12:10:35Z</time></trkpt><trkpt lat="44.53389140172366" lon="7.934836167243591"><ele>269.0</ele><time>2026-04-12T12:10:37Z</time></trkpt><trkpt lat="44.53400113158542" lon="7.934780000645472"><ele>269.0</ele><time>2026-04-12T12:10:39Z</time></trkpt><trkpt lat="44.534111880661044" lon="7.934721478814682"><ele>269.0</ele><time>2026-04-12T12:10:41Z</time></trkpt><trkpt lat="44.53422311749104" lon="7.934677766637108"><ele>269.0</ele><time>2026-04-12T12:10:43Z</time></trkpt><trkpt lat="44.53432957133959" lon="7.934617702699863"><ele>269.0</ele><time>2026-04-12T12:10:45Z</time></trkpt><trkpt lat="44.534438839571024" lon="7.934564997570019"><ele>269.0</ele><time>2026-04-12T12:10:47Z</time></trkpt><trkpt lat="44.53454123934084" lon="7.9345053121694145"><ele>269.0</ele><time>2026-04-12T12:10:49Z</time></trkpt><trkpt lat="44.53460115749909" lon="7.9344697153330435"><ele>269.0</ele><time>2026-04-12T12:10:50Z</time></trkpt><trkpt lat="44.53466878701636" lon="7.934431793029557"><ele>269.0</ele><time>2026-04-12T12:10:51Z</time></trkpt><trkpt lat="44.534761022026736" lon="7.93437906909758"><ele>269.0</ele><time>2026-04-12T12:10:53Z</time></trkpt><trkpt lat="44.53487134081113" lon="7.93434775383141"><ele>269.1666666666667</ele><time>2026-04-12T12:10:55Z</time></trkpt><trkpt lat="44.53497016656438" lon="7.934312828094347"><ele>269.33333333333337</ele><time>2026-04-12T12:10:57Z</time></trkpt><trkpt lat="44.53503314069269" lon="7.934283790699877"><ele>269.5</ele><time>2026-04-12T12:10:58Z</time></trkpt><trkpt lat="44.53512088586411" lon="7.934266715297326"><ele>269.6666666666667</ele><time>2026-04-12T12:11:00Z</time></trkpt><trkpt lat="44.535222049957746" lon="7.934261108282282"><ele>269.8333333333333</ele><time>2026-04-12T12:11:02Z</time></trkpt><trkpt lat="44.535297861897966" lon="7.934265344518617"><ele>270.0</ele><time>2026-04-12T12:11:04Z</time></trkpt><trkpt lat="44.53538666687664" lon="7.9342979122114095"><ele>270.4</ele><time>2026-04-12T12:11:06Z</time></trkpt><trkpt lat="44.5354841249962" lon="7.934334241563643"><ele>270.8</ele><time>2026-04-12T12:11:08Z</time></trkpt><trkpt lat="44.53558076835245" lon="7.934391637334482"><ele>271.2</ele><time>2026-04-12T12:11:10Z</time></trkpt><trkpt lat="44.53566118365006" lon="7.934462157183556"><ele>271.6</ele><time>2026-04-12T12:11:12Z</time></trkpt><trkpt lat="44.535737521663684" lon="7.934551539147926"><ele>272.0</ele><time>2026-04-12T12:11:14Z</time></trkpt><trkpt lat="44.53581527385674" lon="7.934642192937922"><ele>272.0</ele><time>2026-04-12T12:11:16Z</time></trkpt><trkpt lat="44.535896512101495" lon="7.934731859179563"><ele>272.0</ele><time>2026-04-12T12:11:18Z</time></trkpt><trkpt lat="44.53596830655714" lon="7.934814278993328"><ele>272.0</ele><time>2026-04-12T12:11:20Z</time></trkpt><trkpt lat="44.53603489136273" lon="7.934899171962216"><ele>272.0</ele><time>2026-04-12T12:11:22Z</time></trkpt><trkpt lat="44.53609259176872" lon="7.9349854343476816"><ele>272.0</ele><time>2026-04-12T12:11:24Z</time></trkpt><trkpt lat="44.53615438019149" lon="7.935070404325149"><ele>272.0</ele><time>2026-04-12T12:11:26Z</time></trkpt><trkpt lat="44.536196649496866" lon="7.935176392667511"><ele>272.0</ele><time>2026-04-12T12:11:28Z</time></trkpt><trkpt lat="44.53623158125918" lon="7.935290980294808"><ele>272.0</ele><time>2026-04-12T12:11:30Z</time></trkpt><trkpt lat="44.536227578752765" lon="7.935393242812033"><ele>272.0</ele><time>2026-04-12T12:11:32Z</time></trkpt><trkpt lat="44.536328137617915" lon="7.935405125752309"><ele>272.0</ele><time>2026-04-12T12:11:33Z</time></trkpt><trkpt lat="44.53641701412569" lon="7.935377119093572"><ele>272.0</ele><time>2026-04-12T12:11:35Z</time></trkpt><trkpt lat="44.5364757782354" lon="7.935301971434346"><ele>272.0</ele><time>2026-04-12T12:11:37Z</time></trkpt><trkpt lat="44.53647170223119" lon="7.9352026510827836"><ele>272.0</ele><time>2026-04-12T12:11:38Z</time></trkpt><trkpt lat="44.53651922594785" lon="7.935074462094502"><ele>272.0</ele><time>2026-04-12T12:11:40Z</time></trkpt><trkpt lat="44.53658722431506" lon="7.934956194080155"><ele>272.0</ele><time>2026-04-12T12:11:42Z</time></trkpt><trkpt lat="44.536656510687386" lon="7.93483940745668"><ele>272.0</ele><time>2026-04-12T12:11:44Z</time></trkpt><trkpt lat="44.53672340346036" lon="7.934729558944536"><ele>272.0</ele><time>2026-04-12T12:11:46Z</time></trkpt><trkpt lat="44.53679407732042" lon="7.934619587757662"><ele>272.0</ele><time>2026-04-12T12:11:48Z</time></trkpt><trkpt lat="44.53687273029972" lon="7.934513081170302"><ele>272.0</ele><time>2026-04-12T12:11:50Z</time></trkpt><trkpt lat="44.53694511412844" lon="7.934395606313347"><ele>272.0</ele><time>2026-04-12T12:11:52Z</time></trkpt><trkpt lat="44.53702013037009" lon="7.9342784584662205"><ele>272.0</ele><time>2026-04-12T12:11:54Z</time></trkpt><trkpt lat="44.53709609128378" lon="7.934167787854724"><ele>271.8</ele><time>2026-04-12T12:11:56Z</time></trkpt><trkpt lat="44.53717853205263" lon="7.934044574216007"><ele>271.6</ele><time>2026-04-12T12:11:58Z</time></trkpt><trkpt lat="44.53726234134529" lon="7.9339216062012206"><ele>271.40000000000003</ele><time>2026-04-12T12:12:00Z</time></trkpt><trkpt lat="44.5373507201705" lon="7.93379939291715"><ele>271.2</ele><time>2026-04-12T12:12:02Z</time></trkpt><trkpt lat="44.53739731891747" lon="7.933735348703768"><ele>271.0</ele><time>2026-04-12T12:12:03Z</time></trkpt><trkpt lat="44.537446761891225" lon="7.933679209064376"><ele>271.0</ele><time>2026-04-12T12:12:04Z</time></trkpt><trkpt lat="44.537494093275306" lon="7.933615131464476"><ele>271.0</ele><time>2026-04-12T12:12:05Z</time></trkpt><trkpt lat="44.53754362650367" lon="7.933551213923636"><ele>271.0</ele><time>2026-04-12T12:12:06Z</time></trkpt><trkpt lat="44.53759711826464" lon="7.933482243063989"><ele>271.0</ele><time>2026-04-12T12:12:07Z</time></trkpt><trkpt lat="44.5376538638757" lon="7.93341691231472"><ele>271.0</ele><time>2026-04-12T12:12:08Z</time></trkpt><trkpt lat="44.53770721706144" lon="7.933349225263365"><ele>271.0</ele><time>2026-04-12T12:12:09Z</time></trkpt><trkpt lat="44.53776759000593" lon="7.933283243685408"><ele>271.0</ele><time>2026-04-12T12:12:10Z</time></trkpt><trkpt lat="44.53782903056119" lon="7.933217045937905"><ele>271.5</ele><time>2026-04-12T12:12:11Z</time></trkpt><trkpt lat="44.537886543328774" lon="7.933146076285484"><ele>272.0</ele><time>2026-04-12T12:12:12Z</time></trkpt><trkpt lat="44.537947000295006" lon="7.9330692953244215"><ele>272.5</ele><time>2026-04-12T12:12:13Z</time></trkpt><trkpt lat="44.538011321513984" lon="7.93299991989433"><ele>273.0</ele><time>2026-04-12T12:12:14Z</time></trkpt><trkpt lat="44.53807495664268" lon="7.932930038401992"><ele>273.5</ele><time>2026-04-12T12:12:15Z</time></trkpt><trkpt lat="44.53813635999374" lon="7.9328572644802815"><ele>274.0</ele><time>2026-04-12T12:12:16Z</time></trkpt><trkpt lat="44.53819663263424" lon="7.932785936296325"><ele>274.0</ele><time>2026-04-12T12:12:17Z</time></trkpt><trkpt lat="44.53826064189864" lon="7.932716520365015"><ele>274.0</ele><time>2026-04-12T12:12:18Z</time></trkpt><trkpt lat="44.53832198020472" lon="7.932645047142581"><ele>274.0</ele><time>2026-04-12T12:12:19Z</time></trkpt><trkpt lat="44.53838693962357" lon="7.932574172300246"><ele>274.0</ele><time>2026-04-12T12:12:20Z</time></trkpt><trkpt lat="44.53845039204788" lon="7.932504829829991"><ele>274.0</ele><time>2026-04-12T12:12:21Z</time></trkpt><trkpt lat="44.538513757448705" lon="7.932428080140218"><ele>274.0</ele><time>2026-04-12T12:12:22Z</time></trkpt><trkpt lat="44.53857550911109" lon="7.932366222138973"><ele>274.5</ele><time>2026-04-12T12:12:23Z</time></trkpt><trkpt lat="44.538640338925184" lon="7.932292906845249"><ele>275.0</ele><time>2026-04-12T12:12:24Z</time></trkpt><trkpt lat="44.5387043850926" lon="7.932216177705457"><ele>275.5</ele><time>2026-04-12T12:12:25Z</time></trkpt><trkpt lat="44.53876921540098" lon="7.932143172981444"><ele>276.0</ele><time>2026-04-12T12:12:26Z</time></trkpt><trkpt lat="44.53883312407133" lon="7.932070346460079"><ele>276.5</ele><time>2026-04-12T12:12:27Z</time></trkpt><trkpt lat="44.53889593108886" lon="7.931999400320458"><ele>277.0</ele><time>2026-04-12T12:12:28Z</time></trkpt><trkpt lat="44.53895771953142" lon="7.93192933121624"><ele>277.0</ele><time>2026-04-12T12:12:29Z</time></trkpt><trkpt lat="44.539017935563244" lon="7.931857149293679"><ele>277.0</ele><time>2026-04-12T12:12:30Z</time></trkpt><trkpt lat="44.539075408784356" lon="7.931788207509973"><ele>277.0</ele><time>2026-04-12T12:12:31Z</time></trkpt><trkpt lat="44.539129876808424" lon="7.931725380990784"><ele>277.0</ele><time>2026-04-12T12:12:32Z</time></trkpt><trkpt lat="44.53918699571451" lon="7.931660850020889"><ele>277.0</ele><time>2026-04-12T12:12:33Z</time></trkpt><trkpt lat="44.53924812480598" lon="7.93159355647557"><ele>277.0</ele><time>2026-04-12T12:12:34Z</time></trkpt><trkpt lat="44.53929839465095" lon="7.931528445555167"><ele>277.0</ele><time>2026-04-12T12:12:35Z</time></trkpt><trkpt lat="44.53935121030517" lon="7.9314658470186545"><ele>276.57142857142856</ele><time>2026-04-12T12:12:36Z</time></trkpt><trkpt lat="44.5394020164811" lon="7.93140301225501"><ele>276.1428571428571</ele><time>2026-04-12T12:12:37Z</time></trkpt><trkpt lat="44.539456395683544" lon="7.931343594703433"><ele>275.7142857142857</ele><time>2026-04-12T12:12:38Z</time></trkpt><trkpt lat="44.53950404732012" lon="7.931279601202092"><ele>275.2857142857143</ele><time>2026-04-12T12:12:39Z</time></trkpt><trkpt lat="44.539560115937775" lon="7.931216199151731"><ele>274.8571428571429</ele><time>2026-04-12T12:12:40Z</time></trkpt><trkpt lat="44.53961008720983" lon="7.931155109238247"><ele>274.42857142857144</ele><time>2026-04-12T12:12:41Z</time></trkpt><trkpt lat="44.53966257074486" lon="7.931092778000635"><ele>274.0</ele><time>2026-04-12T12:12:42Z</time></trkpt><trkpt lat="44.539713928470654" lon="7.931031481968027"><ele>274.00000000000006</ele><time>2026-04-12T12:12:43Z</time></trkpt><trkpt lat="44.539767001975584" lon="7.930960143086265"><ele>274.0</ele><time>2026-04-12T12:12:44Z</time></trkpt><trkpt lat="44.539821080793274" lon="7.930895573376553"><ele>274.0</ele><time>2026-04-12T12:12:45Z</time></trkpt><trkpt lat="44.53987585012924" lon="7.930827405212011"><ele>274.0</ele><time>2026-04-12T12:12:46Z</time></trkpt><trkpt lat="44.53993080192401" lon="7.930763226866941"><ele>274.0</ele><time>2026-04-12T12:12:47Z</time></trkpt><trkpt lat="44.539987547299745" lon="7.930703151119854"><ele>274.00000000000006</ele><time>2026-04-12T12:12:48Z</time></trkpt><trkpt lat="44.540044239111744" lon="7.9306373608036145"><ele>274.0</ele><time>2026-04-12T12:12:49Z</time></trkpt><trkpt lat="44.540101162723396" lon="7.930574156416961"><ele>273.28571428571433</ele><time>2026-04-12T12:12:50Z</time></trkpt><trkpt lat="44.540158137886124" lon="7.930506838287306"><ele>272.57142857142856</ele><time>2026-04-12T12:12:51Z</time></trkpt><trkpt lat="44.54021566521585" lon="7.930442804063467"><ele>271.8571428571429</ele><time>2026-04-12T12:12:52Z</time></trkpt><trkpt lat="44.540270967642705" lon="7.930378852241969"><ele>271.14285714285717</ele><time>2026-04-12T12:12:53Z</time></trkpt><trkpt lat="44.54032454582928" lon="7.930300219856586"><ele>270.42857142857144</ele><time>2026-04-12T12:12:54Z</time></trkpt><trkpt lat="44.54038036111587" lon="7.930235523566379"><ele>269.7142857142857</ele><time>2026-04-12T12:12:55Z</time></trkpt><trkpt lat="44.54043292007253" lon="7.930174110374327"><ele>269.0</ele><time>2026-04-12T12:12:56Z</time></trkpt><trkpt lat="44.54048425890861" lon="7.930116036370768"><ele>267.8</ele><time>2026-04-12T12:12:57Z</time></trkpt><trkpt lat="44.54053663948066" lon="7.930055280355962"><ele>266.59999999999997</ele><time>2026-04-12T12:12:58Z</time></trkpt><trkpt lat="44.54058651307814" lon="7.929994944358514"><ele>265.4</ele><time>2026-04-12T12:12:59Z</time></trkpt><trkpt lat="44.5406808949444" lon="7.9298883606040835"><ele>264.2</ele><time>2026-04-12T12:13:01Z</time></trkpt><trkpt lat="44.54076993974897" lon="7.929786382287049"><ele>263.0</ele><time>2026-04-12T12:13:03Z</time></trkpt><trkpt lat="44.540858898848064" lon="7.929686660828076"><ele>263.0</ele><time>2026-04-12T12:13:05Z</time></trkpt><trkpt lat="44.54094542232581" lon="7.9295873842520015"><ele>263.0</ele><time>2026-04-12T12:13:07Z</time></trkpt><trkpt lat="44.5410377439257" lon="7.929492774185346"><ele>263.0</ele><time>2026-04-12T12:13:09Z</time></trkpt><trkpt lat="44.541124595204145" lon="7.929390979587179"><ele>263.0</ele><time>2026-04-12T12:13:11Z</time></trkpt><trkpt lat="44.54121729899438" lon="7.929289265975719"><ele>263.2</ele><time>2026-04-12T12:13:13Z</time></trkpt><trkpt lat="44.54130867154718" lon="7.929181319792632"><ele>263.4</ele><time>2026-04-12T12:13:15Z</time></trkpt><trkpt lat="44.541400971731974" lon="7.929081028725671"><ele>263.59999999999997</ele><time>2026-04-12T12:13:17Z</time></trkpt><trkpt lat="44.54148356554928" lon="7.928987707454977"><ele>263.8</ele><time>2026-04-12T12:13:19Z</time></trkpt><trkpt lat="44.54156240957474" lon="7.928891911995836"><ele>264.0</ele><time>2026-04-12T12:13:21Z</time></trkpt><trkpt lat="44.54164552081324" lon="7.928803219775093"><ele>264.0</ele><time>2026-04-12T12:13:23Z</time></trkpt><trkpt lat="44.541727895982135" lon="7.928717322194413"><ele>264.0</ele><time>2026-04-12T12:13:25Z</time></trkpt><trkpt lat="44.54180305690036" lon="7.928639738073325"><ele>264.0</ele><time>2026-04-12T12:13:27Z</time></trkpt><trkpt lat="44.541875532180434" lon="7.928563999417396"><ele>264.0</ele><time>2026-04-12T12:13:29Z</time></trkpt><trkpt lat="44.5419473482368" lon="7.928500085336547"><ele>264.0</ele><time>2026-04-12T12:13:31Z</time></trkpt><trkpt lat="44.54202110925455" lon="7.928436324456317"><ele>263.4</ele><time>2026-04-12T12:13:33Z</time></trkpt><trkpt lat="44.54209787194814" lon="7.928377650901898"><ele>262.79999999999995</ele><time>2026-04-12T12:13:35Z</time></trkpt><trkpt lat="44.542181953138765" lon="7.928307904418303"><ele>262.20000000000005</ele><time>2026-04-12T12:13:37Z</time></trkpt><trkpt lat="44.54226575544836" lon="7.928240873024571"><ele>261.6</ele><time>2026-04-12T12:13:39Z</time></trkpt><trkpt lat="44.542352043756786" lon="7.928168033747767"><ele>261.0</ele><time>2026-04-12T12:13:41Z</time></trkpt><trkpt lat="44.54244244028711" lon="7.928100524895517"><ele>261.0</ele><time>2026-04-12T12:13:43Z</time></trkpt><trkpt lat="44.54252807043992" lon="7.928030103726948"><ele>261.0</ele><time>2026-04-12T12:13:45Z</time></trkpt><trkpt lat="44.542614450688006" lon="7.927976639975896"><ele>261.0</ele><time>2026-04-12T12:13:47Z</time></trkpt><trkpt lat="44.542694794638756" lon="7.927910670193368"><ele>261.0</ele><time>2026-04-12T12:13:49Z</time></trkpt><trkpt lat="44.542774036839575" lon="7.927850149588853"><ele>261.0</ele><time>2026-04-12T12:13:51Z</time></trkpt><trkpt lat="44.542831849341965" lon="7.927790603450525"><ele>261.0</ele><time>2026-04-12T12:13:53Z</time></trkpt><trkpt lat="44.54289635012358" lon="7.927741779876222"><ele>261.6666666666667</ele><time>2026-04-12T12:13:55Z</time></trkpt><trkpt lat="44.54296897337273" lon="7.9276900988833345"><ele>262.3333333333333</ele><time>2026-04-12T12:13:57Z</time></trkpt><trkpt lat="44.543035300807055" lon="7.927638201594188"><ele>263.0</ele><time>2026-04-12T12:13:59Z</time></trkpt><trkpt lat="44.5431119227086" lon="7.927572263809713"><ele>263.66666666666663</ele><time>2026-04-12T12:14:01Z</time></trkpt><trkpt lat="44.54318215510955" lon="7.927507617171333"><ele>264.3333333333333</ele><time>2026-04-12T12:14:03Z</time></trkpt><trkpt lat="44.5432557668734" lon="7.927448891007324"><ele>265.0</ele><time>2026-04-12T12:14:05Z</time></trkpt><trkpt lat="44.54334417026713" lon="7.92738294823755"><ele>265.0</ele><time>2026-04-12T12:14:07Z</time></trkpt><trkpt lat="44.543435033659044" lon="7.92731456542392"><ele>265.0</ele><time>2026-04-12T12:14:09Z</time></trkpt><trkpt lat="44.54351708617322" lon="7.927243244390442"><ele>265.0</ele><time>2026-04-12T12:14:13Z</time></trkpt><trkpt lat="44.5436256488089" lon="7.927207281525763"><ele>265.0</ele><time>2026-04-12T12:14:16Z</time></trkpt><trkpt lat="44.54384568975024" lon="7.9269950600819605"><ele>265.0</ele><time>2026-04-12T12:14:17Z</time></trkpt><trkpt lat="44.543955619214444" lon="7.926925580713458"><ele>265.0</ele><time>2026-04-12T12:14:19Z</time></trkpt><trkpt lat="44.54405712650482" lon="7.926830557164664"><ele>265.0</ele><time>2026-04-12T12:14:21Z</time></trkpt><trkpt lat="44.544169572460234" lon="7.926742017607745"><ele>265.0</ele><time>2026-04-12T12:14:23Z</time></trkpt><trkpt lat="44.544278325242956" lon="7.926654553581023"><ele>265.0</ele><time>2026-04-12T12:14:25Z</time></trkpt><trkpt lat="44.54437810082972" lon="7.926580987411158"><ele>265.0</ele><time>2026-04-12T12:14:27Z</time></trkpt><trkpt lat="44.54448086978058" lon="7.926525786510988"><ele>265.0</ele><time>2026-04-12T12:14:29Z</time></trkpt><trkpt lat="44.54454769161892" lon="7.92648682841681"><ele>265.0</ele><time>2026-04-12T12:14:30Z</time></trkpt><trkpt lat="44.544611752433724" lon="7.926426627376322"><ele>265.0</ele><time>2026-04-12T12:14:31Z</time></trkpt><trkpt lat="44.544677567758384" lon="7.926369143868339"><ele>265.5</ele><time>2026-04-12T12:14:32Z</time></trkpt><trkpt lat="44.54474437602288" lon="7.926340114084303"><ele>266.0</ele><time>2026-04-12T12:14:33Z</time></trkpt><trkpt lat="44.54482319844076" lon="7.926296103857531"><ele>266.5</ele><time>2026-04-12T12:14:34Z</time></trkpt><trkpt lat="44.544864443829226" lon="7.926199736083688"><ele>267.0</ele><time>2026-04-12T12:14:35Z</time></trkpt><trkpt lat="44.544933780222806" lon="7.926145576849361"><ele>267.5</ele><time>2026-04-12T12:14:36Z</time></trkpt><trkpt lat="44.54499933311788" lon="7.926096444158578"><ele>268.0</ele><time>2026-04-12T12:14:37Z</time></trkpt><trkpt lat="44.545067127959605" lon="7.926039366340204"><ele>268.0</ele><time>2026-04-12T12:14:38Z</time></trkpt><trkpt lat="44.54513510741551" lon="7.925982928768571"><ele>268.0</ele><time>2026-04-12T12:14:39Z</time></trkpt><trkpt lat="44.54520354387911" lon="7.925926918041165"><ele>268.0</ele><time>2026-04-12T12:14:40Z</time></trkpt><trkpt lat="44.54526896621366" lon="7.925871790080115"><ele>268.0</ele><time>2026-04-12T12:14:41Z</time></trkpt><trkpt lat="44.54533593873957" lon="7.9258224329497615"><ele>268.0</ele><time>2026-04-12T12:14:42Z</time></trkpt><trkpt lat="44.545400388293224" lon="7.925771614436338"><ele>268.0</ele><time>2026-04-12T12:14:43Z</time></trkpt><trkpt lat="44.54546298541753" lon="7.9257165140318575"><ele>268.0</ele><time>2026-04-12T12:14:44Z</time></trkpt><trkpt lat="44.54552606512708" lon="7.925664255976204"><ele>268.0</ele><time>2026-04-12T12:14:45Z</time></trkpt><trkpt lat="44.545597897989815" lon="7.925611166694339"><ele>268.0</ele><time>2026-04-12T12:14:46Z</time></trkpt><trkpt lat="44.545673510123095" lon="7.925558398992507"><ele>268.0</ele><time>2026-04-12T12:14:47Z</time></trkpt><trkpt lat="44.54574037155403" lon="7.9254906825839235"><ele>268.0</ele><time>2026-04-12T12:14:48Z</time></trkpt><trkpt lat="44.54581461967576" lon="7.925434866585632"><ele>268.0</ele><time>2026-04-12T12:14:49Z</time></trkpt><trkpt lat="44.54588297958786" lon="7.92537240373674"><ele>268.0</ele><time>2026-04-12T12:14:50Z</time></trkpt><trkpt lat="44.54595337337335" lon="7.925317481779972"><ele>268.0</ele><time>2026-04-12T12:14:51Z</time></trkpt><trkpt lat="44.54602207281374" lon="7.925253579404968"><ele>268.0</ele><time>2026-04-12T12:14:52Z</time></trkpt><trkpt lat="44.546095985692446" lon="7.925209104989468"><ele>268.0</ele><time>2026-04-12T12:14:53Z</time></trkpt><trkpt lat="44.54616850990973" lon="7.925150364969513"><ele>268.0</ele><time>2026-04-12T12:14:54Z</time></trkpt><trkpt lat="44.546239161717196" lon="7.925092677937105"><ele>268.0</ele><time>2026-04-12T12:14:55Z</time></trkpt><trkpt lat="44.54631628141039" lon="7.925031991522336"><ele>265.8333333333333</ele><time>2026-04-12T12:14:56Z</time></trkpt><trkpt lat="44.546383499891974" lon="7.924974359496509"><ele>263.66666666666663</ele><time>2026-04-12T12:14:57Z</time></trkpt><trkpt lat="44.5464582183134" lon="7.92491266861559"><ele>261.5</ele><time>2026-04-12T12:14:58Z</time></trkpt><trkpt lat="44.54653000654717" lon="7.924848897855446"><ele>259.3333333333333</ele><time>2026-04-12T12:14:59Z</time></trkpt><trkpt lat="44.546604117445696" lon="7.92477797187013"><ele>257.1666666666667</ele><time>2026-04-12T12:15:00Z</time></trkpt><trkpt lat="44.546677569791605" lon="7.924721661152649"><ele>255.0</ele><time>2026-04-12T12:15:01Z</time></trkpt><trkpt lat="44.546756791429836" lon="7.924671087019936"><ele>255.0</ele><time>2026-04-12T12:15:02Z</time></trkpt><trkpt lat="44.54683532535491" lon="7.9246183103084835"><ele>255.0</ele><time>2026-04-12T12:15:03Z</time></trkpt><trkpt lat="44.54691413973059" lon="7.924561834568816"><ele>255.0</ele><time>2026-04-12T12:15:04Z</time></trkpt><trkpt lat="44.54698915636634" lon="7.924492118246155"><ele>255.0</ele><time>2026-04-12T12:15:05Z</time></trkpt><trkpt lat="44.5470642710019" lon="7.924437349051644"><ele>255.0</ele><time>2026-04-12T12:15:06Z</time></trkpt><trkpt lat="44.54714762386013" lon="7.92438421257182"><ele>255.0</ele><time>2026-04-12T12:15:07Z</time></trkpt><trkpt lat="44.547226563003655" lon="7.924319885657969"><ele>255.5</ele><time>2026-04-12T12:15:08Z</time></trkpt><trkpt lat="44.5473061396291" lon="7.924259156738004"><ele>256.0</ele><time>2026-04-12T12:15:09Z</time></trkpt><trkpt lat="44.547380592792216" lon="7.924202184149022"><ele>256.5</ele><time>2026-04-12T12:15:10Z</time></trkpt><trkpt lat="44.5474606666122" lon="7.924152868720026"><ele>257.0</ele><time>2026-04-12T12:15:11Z</time></trkpt><trkpt lat="44.54754209379134" lon="7.924105686448222"><ele>257.5</ele><time>2026-04-12T12:15:12Z</time></trkpt><trkpt lat="44.54761275068453" lon="7.9240764990222194"><ele>258.0</ele><time>2026-04-12T12:15:13Z</time></trkpt><trkpt lat="44.5476776243889" lon="7.924011071501436"><ele>256.6666666666667</ele><time>2026-04-12T12:15:14Z</time></trkpt><trkpt lat="44.54775212700335" lon="7.923985089675722"><ele>255.33333333333331</ele><time>2026-04-12T12:15:15Z</time></trkpt><trkpt lat="44.54782510860152" lon="7.923942548391665"><ele>254.0</ele><time>2026-04-12T12:15:16Z</time></trkpt><trkpt lat="44.54790268862715" lon="7.923893243989449"><ele>252.66666666666666</ele><time>2026-04-12T12:15:17Z</time></trkpt><trkpt lat="44.5479730939071" lon="7.923817999107451"><ele>251.33333333333331</ele><time>2026-04-12T12:15:18Z</time></trkpt><trkpt lat="44.54803298386177" lon="7.923718858220122"><ele>250.0</ele><time>2026-04-12T12:15:19Z</time></trkpt><trkpt lat="44.54809003096302" lon="7.92362838342003"><ele>249.8</ele><time>2026-04-12T12:15:20Z</time></trkpt><trkpt lat="44.548168896769184" lon="7.923563211249985"><ele>249.6</ele><time>2026-04-12T12:15:21Z</time></trkpt><trkpt lat="44.54827935202611" lon="7.923530243495673"><ele>249.39999999999998</ele><time>2026-04-12T12:15:22Z</time></trkpt><trkpt lat="44.54835842103258" lon="7.9234696904379325"><ele>249.2</ele><time>2026-04-12T12:15:23Z</time></trkpt><trkpt lat="44.54843877135356" lon="7.923408760797485"><ele>249.0</ele><time>2026-04-12T12:15:24Z</time></trkpt><trkpt lat="44.548521343044385" lon="7.923344356466443"><ele>248.39999999999998</ele><time>2026-04-12T12:15:25Z</time></trkpt><trkpt lat="44.5485948920201" lon="7.923278800717954"><ele>247.79999999999998</ele><time>2026-04-12T12:15:26Z</time></trkpt><trkpt lat="44.548679546521306" lon="7.923214184755192"><ele>247.20000000000002</ele><time>2026-04-12T12:15:27Z</time></trkpt><trkpt lat="44.548767465617026" lon="7.923153731725117"><ele>246.60000000000002</ele><time>2026-04-12T12:15:28Z</time></trkpt><trkpt lat="44.548848642401964" lon="7.923095740341345"><ele>246.0</ele><time>2026-04-12T12:15:29Z</time></trkpt><trkpt lat="44.548931526442225" lon="7.9230442602061"><ele>245.60000000000002</ele><time>2026-04-12T12:15:30Z</time></trkpt><trkpt lat="44.54902097019874" lon="7.922991428076026"><ele>245.20000000000002</ele><time>2026-04-12T12:15:31Z</time></trkpt><trkpt lat="44.54910784085656" lon="7.922936917500856"><ele>244.79999999999998</ele><time>2026-04-12T12:15:32Z</time></trkpt><trkpt lat="44.54918549756733" lon="7.922871115087817"><ele>244.39999999999998</ele><time>2026-04-12T12:15:33Z</time></trkpt><trkpt lat="44.54927023536589" lon="7.9228258054850675"><ele>244.0</ele><time>2026-04-12T12:15:34Z</time></trkpt><trkpt lat="44.549359815036134" lon="7.92277352708218"><ele>244.0</ele><time>2026-04-12T12:15:35Z</time></trkpt><trkpt lat="44.54944898364547" lon="7.9227259859142745"><ele>243.99999999999997</ele><time>2026-04-12T12:15:36Z</time></trkpt><trkpt lat="44.54953460231314" lon="7.922676805547679"><ele>243.99999999999997</ele><time>2026-04-12T12:15:37Z</time></trkpt><trkpt lat="44.54961695586543" lon="7.922629809605593"><ele>244.0</ele><time>2026-04-12T12:15:38Z</time></trkpt><trkpt lat="44.54969700446359" lon="7.922582885639084"><ele>244.0</ele><time>2026-04-12T12:15:39Z</time></trkpt><trkpt lat="44.54978361771423" lon="7.9225350625714865"><ele>243.79999999999998</ele><time>2026-04-12T12:15:40Z</time></trkpt><trkpt lat="44.549873714175725" lon="7.922488840835599"><ele>243.59999999999997</ele><time>2026-04-12T12:15:41Z</time></trkpt><trkpt lat="44.549966997033174" lon="7.922454380672251"><ele>243.4</ele><time>2026-04-12T12:15:42Z</time></trkpt><trkpt lat="44.55006149276972" lon="7.922421623663762"><ele>243.2</ele><time>2026-04-12T12:15:43Z</time></trkpt><trkpt lat="44.55014896578241" lon="7.92237869902358"><ele>243.0</ele><time>2026-04-12T12:15:44Z</time></trkpt><trkpt lat="44.55023606477956" lon="7.922348092148826"><ele>243.0</ele><time>2026-04-12T12:15:45Z</time></trkpt><trkpt lat="44.55032184391213" lon="7.922312686907702"><ele>243.0</ele><time>2026-04-12T12:15:46Z</time></trkpt><trkpt lat="44.550404647532694" lon="7.922263541466694"><ele>243.0</ele><time>2026-04-12T12:15:47Z</time></trkpt><trkpt lat="44.550495086502224" lon="7.922222556272907"><ele>243.0</ele><time>2026-04-12T12:15:48Z</time></trkpt><trkpt lat="44.55057206237855" lon="7.92219088698968"><ele>243.0</ele><time>2026-04-12T12:15:49Z</time></trkpt><trkpt lat="44.55066125129836" lon="7.9221735344456174"><ele>243.0</ele><time>2026-04-12T12:15:50Z</time></trkpt><trkpt lat="44.55075362074234" lon="7.922146079082336"><ele>243.0</ele><time>2026-04-12T12:15:51Z</time></trkpt><trkpt lat="44.55084221894239" lon="7.92211174003497"><ele>243.0</ele><time>2026-04-12T12:15:52Z</time></trkpt><trkpt lat="44.55092898937376" lon="7.922075866168087"><ele>243.0</ele><time>2026-04-12T12:15:53Z</time></trkpt><trkpt lat="44.55101357804083" lon="7.922041785905291"><ele>243.0</ele><time>2026-04-12T12:15:54Z</time></trkpt><trkpt lat="44.55111268458402" lon="7.922037087998394"><ele>243.0</ele><time>2026-04-12T12:15:55Z</time></trkpt><trkpt lat="44.551203221909894" lon="7.922010154018905"><ele>243.0</ele><time>2026-04-12T12:15:56Z</time></trkpt><trkpt lat="44.55130198873205" lon="7.921986223331195"><ele>243.0</ele><time>2026-04-12T12:15:57Z</time></trkpt><trkpt lat="44.551387987312836" lon="7.921960941165673"><ele>243.0</ele><time>2026-04-12T12:15:58Z</time></trkpt><trkpt lat="44.55148211209439" lon="7.92194303995426"><ele>243.0</ele><time>2026-04-12T12:15:59Z</time></trkpt><trkpt lat="44.551572254022226" lon="7.921928207288696"><ele>243.0</ele><time>2026-04-12T12:16:00Z</time></trkpt><trkpt lat="44.55166635760992" lon="7.921921188027751"><ele>243.0</ele><time>2026-04-12T12:16:01Z</time></trkpt><trkpt lat="44.55176946941073" lon="7.9219187087645295"><ele>243.0</ele><time>2026-04-12T12:16:02Z</time></trkpt><trkpt lat="44.551863303325156" lon="7.921911880695261"><ele>243.0</ele><time>2026-04-12T12:16:03Z</time></trkpt><trkpt lat="44.55195776584685" lon="7.921902988618695"><ele>243.0</ele><time>2026-04-12T12:16:04Z</time></trkpt><trkpt lat="44.55205303183522" lon="7.921887193662701"><ele>243.0</ele><time>2026-04-12T12:16:05Z</time></trkpt><trkpt lat="44.55214796554732" lon="7.921885035343093"><ele>242.8</ele><time>2026-04-12T12:16:06Z</time></trkpt><trkpt lat="44.55223731031511" lon="7.921873919863416"><ele>242.60000000000002</ele><time>2026-04-12T12:16:07Z</time></trkpt><trkpt lat="44.55233076520987" lon="7.921859560894679"><ele>242.39999999999998</ele><time>2026-04-12T12:16:08Z</time></trkpt><trkpt lat="44.552424648470684" lon="7.921853759497299"><ele>242.2</ele><time>2026-04-12T12:16:09Z</time></trkpt><trkpt lat="44.55251895902402" lon="7.921852087218205"><ele>242.0</ele><time>2026-04-12T12:16:10Z</time></trkpt><trkpt lat="44.55261319588323" lon="7.921853747600511"><ele>242.0</ele><time>2026-04-12T12:16:11Z</time></trkpt><trkpt lat="44.55270721923559" lon="7.921849095154304"><ele>242.0</ele><time>2026-04-12T12:16:12Z</time></trkpt><trkpt lat="44.55280311845954" lon="7.9218375463080335"><ele>242.0</ele><time>2026-04-12T12:16:13Z</time></trkpt><trkpt lat="44.55289422133142" lon="7.921840755590215"><ele>242.0</ele><time>2026-04-12T12:16:14Z</time></trkpt><trkpt lat="44.55298413125296" lon="7.921847409182481"><ele>242.0</ele><time>2026-04-12T12:16:15Z</time></trkpt><trkpt lat="44.55307895337759" lon="7.92186056730766"><ele>241.39999999999998</ele><time>2026-04-12T12:16:16Z</time></trkpt><trkpt lat="44.55317547740879" lon="7.9218610810408245"><ele>240.79999999999998</ele><time>2026-04-12T12:16:17Z</time></trkpt><trkpt lat="44.55326516906026" lon="7.921867493772576"><ele>240.2</ele><time>2026-04-12T12:16:18Z</time></trkpt><trkpt lat="44.553354716152754" lon="7.921871861041656"><ele>239.6</ele><time>2026-04-12T12:16:19Z</time></trkpt><trkpt lat="44.55344760242492" lon="7.921879680751508"><ele>239.0</ele><time>2026-04-12T12:16:20Z</time></trkpt><trkpt lat="44.553537879785694" lon="7.921898040788379"><ele>239.0</ele><time>2026-04-12T12:16:21Z</time></trkpt><trkpt lat="44.55363341036231" lon="7.92191749905334"><ele>238.99999999999997</ele><time>2026-04-12T12:16:22Z</time></trkpt><trkpt lat="44.553723302482915" lon="7.921921698093526"><ele>238.99999999999997</ele><time>2026-04-12T12:16:23Z</time></trkpt><trkpt lat="44.55381118194011" lon="7.921934589118686"><ele>239.0</ele><time>2026-04-12T12:16:24Z</time></trkpt><trkpt lat="44.55390736898949" lon="7.9219498834547135"><ele>239.0</ele><time>2026-04-12T12:16:25Z</time></trkpt><trkpt lat="44.55400759600931" lon="7.92198845266516"><ele>238.83333333333334</ele><time>2026-04-12T12:16:26Z</time></trkpt><trkpt lat="44.55409306589091" lon="7.921989284360654"><ele>238.66666666666669</ele><time>2026-04-12T12:16:27Z</time></trkpt><trkpt lat="44.554178611835106" lon="7.921981346009994"><ele>238.5</ele><time>2026-04-12T12:16:28Z</time></trkpt><trkpt lat="44.55426231977869" lon="7.92199313867041"><ele>238.33333333333331</ele><time>2026-04-12T12:16:29Z</time></trkpt><trkpt lat="44.55435479053455" lon="7.922020769780933"><ele>238.16666666666666</ele><time>2026-04-12T12:16:30Z</time></trkpt><trkpt lat="44.55444631563608" lon="7.92203709693779"><ele>238.0</ele><time>2026-04-12T12:16:31Z</time></trkpt><trkpt lat="44.55453415723004" lon="7.922055720451627"><ele>237.66666666666666</ele><time>2026-04-12T12:16:32Z</time></trkpt><trkpt lat="44.55461662430882" lon="7.922065005009578"><ele>237.33333333333331</ele><time>2026-04-12T12:16:33Z</time></trkpt><trkpt lat="44.554703078980985" lon="7.922079041104899"><ele>237.0</ele><time>2026-04-12T12:16:34Z</time></trkpt><trkpt lat="44.55479595907159" lon="7.922113442276871"><ele>236.66666666666669</ele><time>2026-04-12T12:16:35Z</time></trkpt><trkpt lat="44.55487304386864" lon="7.922114021980969"><ele>236.33333333333334</ele><time>2026-04-12T12:16:36Z</time></trkpt><trkpt lat="44.55495869327806" lon="7.922129402998483"><ele>236.0</ele><time>2026-04-12T12:16:37Z</time></trkpt><trkpt lat="44.55504111187241" lon="7.922144281648446"><ele>236.00000000000003</ele><time>2026-04-12T12:16:38Z</time></trkpt><trkpt lat="44.55512202697283" lon="7.92215563531187"><ele>236.0</ele><time>2026-04-12T12:16:39Z</time></trkpt><trkpt lat="44.55520413665141" lon="7.922166015476248"><ele>236.0</ele><time>2026-04-12T12:16:40Z</time></trkpt><trkpt lat="44.555284030149956" lon="7.922176205072935"><ele>236.0</ele><time>2026-04-12T12:16:41Z</time></trkpt><trkpt lat="44.55536363244445" lon="7.922195405843607"><ele>236.00000000000003</ele><time>2026-04-12T12:16:42Z</time></trkpt><trkpt lat="44.555443414879434" lon="7.922207871836226"><ele>236.0</ele><time>2026-04-12T12:16:43Z</time></trkpt><trkpt lat="44.555523500017955" lon="7.922220260310987"><ele>236.00000000000003</ele><time>2026-04-12T12:16:44Z</time></trkpt><trkpt lat="44.555604033430996" lon="7.922235275299256"><ele>236.0</ele><time>2026-04-12T12:16:45Z</time></trkpt><trkpt lat="44.55568377296879" lon="7.922247583836442"><ele>236.0</ele><time>2026-04-12T12:16:46Z</time></trkpt><trkpt lat="44.555760180470756" lon="7.922260456956347"><ele>236.0</ele><time>2026-04-12T12:16:47Z</time></trkpt><trkpt lat="44.55583630571667" lon="7.922276751860316"><ele>236.00000000000003</ele><time>2026-04-12T12:16:48Z</time></trkpt><trkpt lat="44.55591219941131" lon="7.9222897186722525"><ele>236.0</ele><time>2026-04-12T12:16:49Z</time></trkpt><trkpt lat="44.55598705785748" lon="7.922297417575602"><ele>236.00000000000003</ele><time>2026-04-12T12:16:50Z</time></trkpt><trkpt lat="44.55605947279985" lon="7.922313170541376"><ele>236.0</ele><time>2026-04-12T12:16:51Z</time></trkpt><trkpt lat="44.55613675392647" lon="7.9223314839387715"><ele>236.0</ele><time>2026-04-12T12:16:52Z</time></trkpt><trkpt lat="44.55621160871213" lon="7.922340830212765"><ele>236.0</ele><time>2026-04-12T12:16:53Z</time></trkpt><trkpt lat="44.55628865971708" lon="7.922349793016133"><ele>236.00000000000003</ele><time>2026-04-12T12:16:54Z</time></trkpt><trkpt lat="44.55637159949951" lon="7.922363731852804"><ele>236.0</ele><time>2026-04-12T12:16:55Z</time></trkpt><trkpt lat="44.556442531142686" lon="7.9223723493316"><ele>236.00000000000003</ele><time>2026-04-12T12:16:56Z</time></trkpt><trkpt lat="44.55651783503155" lon="7.922389632344759"><ele>236.0</ele><time>2026-04-12T12:16:57Z</time></trkpt><trkpt lat="44.556594948754395" lon="7.92240308536439"><ele>236.0</ele><time>2026-04-12T12:16:58Z</time></trkpt><trkpt lat="44.55667035793498" lon="7.922414771494842"><ele>236.0</ele><time>2026-04-12T12:16:59Z</time></trkpt><trkpt lat="44.556747653506996" lon="7.92243253657403"><ele>236.00000000000003</ele><time>2026-04-12T12:17:00Z</time></trkpt><trkpt lat="44.556823507023864" lon="7.9224475431216"><ele>236.0</ele><time>2026-04-12T12:17:01Z</time></trkpt><trkpt lat="44.55689683582235" lon="7.922460389467834"><ele>236.0</ele><time>2026-04-12T12:17:02Z</time></trkpt><trkpt lat="44.55697096520057" lon="7.922477289642355"><ele>236.0</ele><time>2026-04-12T12:17:03Z</time></trkpt><trkpt lat="44.55704295182676" lon="7.92248998106633"><ele>236.0</ele><time>2026-04-12T12:17:04Z</time></trkpt><trkpt lat="44.557114734976494" lon="7.92249795262579"><ele>236.0</ele><time>2026-04-12T12:17:05Z</time></trkpt><trkpt lat="44.557188152097865" lon="7.9225115181305386"><ele>236.0</ele><time>2026-04-12T12:17:06Z</time></trkpt><trkpt lat="44.55725782130179" lon="7.92253032426057"><ele>236.0</ele><time>2026-04-12T12:17:07Z</time></trkpt><trkpt lat="44.557333026824146" lon="7.922544868190142"><ele>236.0</ele><time>2026-04-12T12:17:08Z</time></trkpt><trkpt lat="44.557402656220475" lon="7.922553793909201"><ele>235.85714285714283</ele><time>2026-04-12T12:17:09Z</time></trkpt><trkpt lat="44.557472211739444" lon="7.922564220326834"><ele>235.71428571428572</ele><time>2026-04-12T12:17:10Z</time></trkpt><trkpt lat="44.557542479761686" lon="7.922575837641891"><ele>235.57142857142856</ele><time>2026-04-12T12:17:11Z</time></trkpt><trkpt lat="44.55761282430043" lon="7.922586260598956"><ele>235.42857142857142</ele><time>2026-04-12T12:17:12Z</time></trkpt><trkpt lat="44.557681608273384" lon="7.922596020014922"><ele>235.28571428571428</ele><time>2026-04-12T12:17:13Z</time></trkpt><trkpt lat="44.557749091690745" lon="7.92260326229489"><ele>235.14285714285714</ele><time>2026-04-12T12:17:14Z</time></trkpt><trkpt lat="44.55781661902639" lon="7.922609143859346"><ele>235.0</ele><time>2026-04-12T12:17:15Z</time></trkpt><trkpt lat="44.55788355088887" lon="7.922628413365634"><ele>234.49999999999997</ele><time>2026-04-12T12:17:16Z</time></trkpt><trkpt lat="44.557956228710346" lon="7.922640743801572"><ele>234.0</ele><time>2026-04-12T12:17:17Z</time></trkpt><trkpt lat="44.55802374557594" lon="7.9226560440283835"><ele>233.5</ele><time>2026-04-12T12:17:18Z</time></trkpt><trkpt lat="44.55809440980802" lon="7.922672644282224"><ele>233.0</ele><time>2026-04-12T12:17:19Z</time></trkpt><trkpt lat="44.558225896662755" lon="7.922682765363347"><ele>232.49999999999997</ele><time>2026-04-12T12:17:21Z</time></trkpt><trkpt lat="44.558293041046554" lon="7.922691379371004"><ele>232.0</ele><time>2026-04-12T12:17:22Z</time></trkpt><trkpt lat="44.55836101356697" lon="7.922706431106838"><ele>231.99999999999997</ele><time>2026-04-12T12:17:23Z</time></trkpt><trkpt lat="44.55842856385673" lon="7.922714192009083"><ele>232.0</ele><time>2026-04-12T12:17:24Z</time></trkpt><trkpt lat="44.55849683366079" lon="7.922722104927235"><ele>232.0</ele><time>2026-04-12T12:17:25Z</time></trkpt><trkpt lat="44.55856527616228" lon="7.922734712045793"><ele>232.0</ele><time>2026-04-12T12:17:26Z</time></trkpt><trkpt lat="44.55863466696938" lon="7.92274805206088"><ele>231.99999999999997</ele><time>2026-04-12T12:17:27Z</time></trkpt><trkpt lat="44.55870185671752" lon="7.92275809981374"><ele>232.0</ele><time>2026-04-12T12:17:28Z</time></trkpt><trkpt lat="44.55882385551199" lon="7.922773638986633"><ele>231.39999999999998</ele><time>2026-04-12T12:17:30Z</time></trkpt><trkpt lat="44.55888713388788" lon="7.922788811422805"><ele>230.79999999999998</ele><time>2026-04-12T12:17:31Z</time></trkpt><trkpt lat="44.55900563617657" lon="7.922808504560771"><ele>230.2</ele><time>2026-04-12T12:17:33Z</time></trkpt><trkpt lat="44.559120817505814" lon="7.922834191893743"><ele>229.6</ele><time>2026-04-12T12:17:35Z</time></trkpt><trkpt lat="44.55923043289535" lon="7.922848155931472"><ele>229.0</ele><time>2026-04-12T12:17:37Z</time></trkpt><trkpt lat="44.55933766752628" lon="7.922864287578662"><ele>229.0</ele><time>2026-04-12T12:17:39Z</time></trkpt><trkpt lat="44.55944419610614" lon="7.922870221056157"><ele>228.99999999999997</ele><time>2026-04-12T12:17:41Z</time></trkpt><trkpt lat="44.5595496300877" lon="7.922879930731816"><ele>228.99999999999997</ele><time>2026-04-12T12:17:43Z</time></trkpt><trkpt lat="44.55965902887102" lon="7.922886589970023"><ele>229.0</ele><time>2026-04-12T12:17:45Z</time></trkpt><trkpt lat="44.55977204767698" lon="7.922884024234206"><ele>229.0</ele><time>2026-04-12T12:17:47Z</time></trkpt><trkpt lat="44.55988105414812" lon="7.9228877297054785"><ele>229.0</ele><time>2026-04-12T12:17:49Z</time></trkpt><trkpt lat="44.559993691349426" lon="7.922890390138496"><ele>228.99999999999997</ele><time>2026-04-12T12:17:51Z</time></trkpt><trkpt lat="44.56010966637683" lon="7.922891256304505"><ele>228.99999999999997</ele><time>2026-04-12T12:17:53Z</time></trkpt><trkpt lat="44.56023162102169" lon="7.92288907783595"><ele>229.0</ele><time>2026-04-12T12:17:55Z</time></trkpt><trkpt lat="44.56029673787467" lon="7.9228841325725865"><ele>229.0</ele><time>2026-04-12T12:17:56Z</time></trkpt><trkpt lat="44.56042425993799" lon="7.922875162136644"><ele>229.14285714285714</ele><time>2026-04-12T12:17:58Z</time></trkpt><trkpt lat="44.56048690435245" lon="7.922865038742401"><ele>229.28571428571428</ele><time>2026-04-12T12:17:59Z</time></trkpt><trkpt lat="44.5605531580831" lon="7.9228601776230505"><ele>229.42857142857142</ele><time>2026-04-12T12:18:00Z</time></trkpt><trkpt lat="44.560617093124215" lon="7.922855457463564"><ele>229.57142857142856</ele><time>2026-04-12T12:18:01Z</time></trkpt><trkpt lat="44.56068370115839" lon="7.922849600119674"><ele>229.71428571428572</ele><time>2026-04-12T12:18:02Z</time></trkpt><trkpt lat="44.56075159231088" lon="7.92284223052082"><ele>229.85714285714283</ele><time>2026-04-12T12:18:03Z</time></trkpt><trkpt lat="44.56081804350587" lon="7.9228298481508865"><ele>229.99999999999997</ele><time>2026-04-12T12:18:04Z</time></trkpt><trkpt lat="44.560885787548415" lon="7.922820708011226"><ele>229.99999999999997</ele><time>2026-04-12T12:18:05Z</time></trkpt><trkpt lat="44.56095281405923" lon="7.922812144775256"><ele>230.0</ele><time>2026-04-12T12:18:06Z</time></trkpt><trkpt lat="44.56102030564844" lon="7.922799212829074"><ele>229.99999999999997</ele><time>2026-04-12T12:18:07Z</time></trkpt><trkpt lat="44.561092345069014" lon="7.922790507534477"><ele>229.99999999999997</ele><time>2026-04-12T12:18:08Z</time></trkpt><trkpt lat="44.56115861570582" lon="7.922776967099929"><ele>230.0</ele><time>2026-04-12T12:18:09Z</time></trkpt><trkpt lat="44.561223925174225" lon="7.922761299328047"><ele>229.99999999999997</ele><time>2026-04-12T12:18:10Z</time></trkpt><trkpt lat="44.56129475601764" lon="7.922748014586237"><ele>229.99999999999997</ele><time>2026-04-12T12:18:11Z</time></trkpt><trkpt lat="44.56136514589185" lon="7.922732672965626"><ele>230.1428571428571</ele><time>2026-04-12T12:18:12Z</time></trkpt><trkpt lat="44.56143587060652" lon="7.922716845130187"><ele>230.28571428571428</ele><time>2026-04-12T12:18:13Z</time></trkpt><trkpt lat="44.56150541667305" lon="7.922700129322674"><ele>230.42857142857142</ele><time>2026-04-12T12:18:14Z</time></trkpt><trkpt lat="44.561575914511266" lon="7.922684447543905"><ele>230.57142857142856</ele><time>2026-04-12T12:18:15Z</time></trkpt><trkpt lat="44.56164377922097" lon="7.922667000039047"><ele>230.71428571428572</ele><time>2026-04-12T12:18:16Z</time></trkpt><trkpt lat="44.56171230367476" lon="7.92265230143981"><ele>230.85714285714286</ele><time>2026-04-12T12:18:17Z</time></trkpt><trkpt lat="44.561780677317934" lon="7.9226323917593655"><ele>231.0</ele><time>2026-04-12T12:18:18Z</time></trkpt><trkpt lat="44.56184660017892" lon="7.9226113778127445"><ele>231.0</ele><time>2026-04-12T12:18:19Z</time></trkpt><trkpt lat="44.561910326652395" lon="7.922587760576763"><ele>231.0</ele><time>2026-04-12T12:18:20Z</time></trkpt><trkpt lat="44.56197653437804" lon="7.922571891479006"><ele>231.0</ele><time>2026-04-12T12:18:21Z</time></trkpt><trkpt lat="44.56203927403542" lon="7.922557825228923"><ele>231.0</ele><time>2026-04-12T12:18:22Z</time></trkpt><trkpt lat="44.56210309475465" lon="7.922542506460684"><ele>231.0</ele><time>2026-04-12T12:18:23Z</time></trkpt><trkpt lat="44.5622295164392" lon="7.9225063321665665"><ele>231.0</ele><time>2026-04-12T12:18:25Z</time></trkpt><trkpt lat="44.562293333654885" lon="7.922488840326726"><ele>231.16666666666666</ele><time>2026-04-12T12:18:26Z</time></trkpt><trkpt lat="44.562358665010464" lon="7.9224653722186"><ele>231.33333333333331</ele><time>2026-04-12T12:18:27Z</time></trkpt><trkpt lat="44.56242070569373" lon="7.9224386907619"><ele>231.5</ele><time>2026-04-12T12:18:28Z</time></trkpt><trkpt lat="44.56248612118096" lon="7.922414779329064"><ele>231.66666666666666</ele><time>2026-04-12T12:18:29Z</time></trkpt><trkpt lat="44.562549007445554" lon="7.922390283208498"><ele>231.83333333333331</ele><time>2026-04-12T12:18:30Z</time></trkpt><trkpt lat="44.56261552704033" lon="7.9223636418944325"><ele>232.0</ele><time>2026-04-12T12:18:31Z</time></trkpt><trkpt lat="44.56273769186824" lon="7.922312382082232"><ele>232.0</ele><time>2026-04-12T12:18:33Z</time></trkpt><trkpt lat="44.56285290425364" lon="7.922265170855255"><ele>232.0</ele><time>2026-04-12T12:18:35Z</time></trkpt><trkpt lat="44.56296744002805" lon="7.922212189382455"><ele>232.0</ele><time>2026-04-12T12:18:37Z</time></trkpt><trkpt lat="44.56307823607542" lon="7.922155337427315"><ele>232.0</ele><time>2026-04-12T12:18:39Z</time></trkpt><trkpt lat="44.56317677415652" lon="7.922102624799066"><ele>232.0</ele><time>2026-04-12T12:18:41Z</time></trkpt><trkpt lat="44.56327953743921" lon="7.9220452802348955"><ele>232.0</ele><time>2026-04-12T12:18:43Z</time></trkpt><trkpt lat="44.56337323499418" lon="7.921998353231608"><ele>232.0</ele><time>2026-04-12T12:18:45Z</time></trkpt><trkpt lat="44.56347071295075" lon="7.921941186327158"><ele>232.0</ele><time>2026-04-12T12:18:47Z</time></trkpt><trkpt lat="44.563562191548094" lon="7.9218845141812935"><ele>232.0</ele><time>2026-04-12T12:18:49Z</time></trkpt><trkpt lat="44.5636533573976" lon="7.921823723257662"><ele>232.2</ele><time>2026-04-12T12:18:51Z</time></trkpt><trkpt lat="44.56374623447334" lon="7.921753356901609"><ele>232.39999999999998</ele><time>2026-04-12T12:18:53Z</time></trkpt><trkpt lat="44.56384550208109" lon="7.921695499749803"><ele>232.60000000000002</ele><time>2026-04-12T12:18:55Z</time></trkpt><trkpt lat="44.56393691310453" lon="7.921617033766559"><ele>232.8</ele><time>2026-04-12T12:18:57Z</time></trkpt><trkpt lat="44.56402344319895" lon="7.921550661373473"><ele>233.0</ele><time>2026-04-12T12:18:59Z</time></trkpt><trkpt lat="44.564123904443996" lon="7.921485117138845"><ele>233.0</ele><time>2026-04-12T12:19:01Z</time></trkpt><trkpt lat="44.564222295672224" lon="7.921413772847753"><ele>233.0</ele><time>2026-04-12T12:19:03Z</time></trkpt><trkpt lat="44.564335902146865" lon="7.921326756105749"><ele>233.0</ele><time>2026-04-12T12:19:05Z</time></trkpt><trkpt lat="44.56443663778257" lon="7.92124811694058"><ele>233.0</ele><time>2026-04-12T12:19:07Z</time></trkpt><trkpt lat="44.56454228801188" lon="7.921160401871071"><ele>233.28571428571428</ele><time>2026-04-12T12:19:09Z</time></trkpt><trkpt lat="44.56459948775905" lon="7.921117982553904"><ele>233.57142857142856</ele><time>2026-04-12T12:19:10Z</time></trkpt><trkpt lat="44.56465625761488" lon="7.921073501713153"><ele>233.85714285714283</ele><time>2026-04-12T12:19:11Z</time></trkpt><trkpt lat="44.564716373237346" lon="7.921030688635728"><ele>234.14285714285714</ele><time>2026-04-12T12:19:12Z</time></trkpt><trkpt lat="44.56477381480358" lon="7.920987394682333"><ele>234.4285714285714</ele><time>2026-04-12T12:19:13Z</time></trkpt><trkpt lat="44.56483479036664" lon="7.920937516600779"><ele>234.7142857142857</ele><time>2026-04-12T12:19:14Z</time></trkpt><trkpt lat="44.56489471689588" lon="7.920886143334604"><ele>235.0</ele><time>2026-04-12T12:19:15Z</time></trkpt><trkpt lat="44.56495332859651" lon="7.920836027262938"><ele>233.83333333333331</ele><time>2026-04-12T12:19:16Z</time></trkpt><trkpt lat="44.56501763755556" lon="7.92079516148629"><ele>232.66666666666666</ele><time>2026-04-12T12:19:17Z</time></trkpt><trkpt lat="44.565084689248984" lon="7.920746393583385"><ele>231.5</ele><time>2026-04-12T12:19:18Z</time></trkpt><trkpt lat="44.565154047509665" lon="7.920698232574866"><ele>230.33333333333331</ele><time>2026-04-12T12:19:19Z</time></trkpt><trkpt lat="44.5652262776781" lon="7.9206458343776935"><ele>229.16666666666666</ele><time>2026-04-12T12:19:20Z</time></trkpt><trkpt lat="44.5652939256758" lon="7.920591806662048"><ele>228.0</ele><time>2026-04-12T12:19:21Z</time></trkpt><trkpt lat="44.565363444429984" lon="7.920540685979351"><ele>227.66666666666666</ele><time>2026-04-12T12:19:22Z</time></trkpt><trkpt lat="44.56544118549823" lon="7.920486408335605"><ele>227.33333333333331</ele><time>2026-04-12T12:19:23Z</time></trkpt><trkpt lat="44.565517158874066" lon="7.920434711441891"><ele>227.0</ele><time>2026-04-12T12:19:24Z</time></trkpt><trkpt lat="44.56559027362318" lon="7.920374204954715"><ele>226.66666666666666</ele><time>2026-04-12T12:19:25Z</time></trkpt><trkpt lat="44.56566559816359" lon="7.9203169927863994"><ele>226.33333333333331</ele><time>2026-04-12T12:19:26Z</time></trkpt><trkpt lat="44.56573900321082" lon="7.920262839146198"><ele>226.0</ele><time>2026-04-12T12:19:27Z</time></trkpt><trkpt lat="44.565813844888076" lon="7.920209321972165"><ele>225.99999999999997</ele><time>2026-04-12T12:19:28Z</time></trkpt><trkpt lat="44.56588901789274" lon="7.920149540822101"><ele>226.0</ele><time>2026-04-12T12:19:29Z</time></trkpt><trkpt lat="44.56596088418284" lon="7.920089643263299"><ele>226.0</ele><time>2026-04-12T12:19:30Z</time></trkpt><trkpt lat="44.566037347460224" lon="7.920029356226217"><ele>226.0</ele><time>2026-04-12T12:19:31Z</time></trkpt><trkpt lat="44.56611487616196" lon="7.9199793873125905"><ele>225.99999999999997</ele><time>2026-04-12T12:19:32Z</time></trkpt><trkpt lat="44.5661930781098" lon="7.919918341615333"><ele>226.0</ele><time>2026-04-12T12:19:33Z</time></trkpt><trkpt lat="44.566266718429155" lon="7.91985767997615"><ele>226.16666666666666</ele><time>2026-04-12T12:19:34Z</time></trkpt><trkpt lat="44.56633793430506" lon="7.9197948262930575"><ele>226.33333333333331</ele><time>2026-04-12T12:19:35Z</time></trkpt><trkpt lat="44.5664105364189" lon="7.919736748594697"><ele>226.5</ele><time>2026-04-12T12:19:36Z</time></trkpt><trkpt lat="44.5664836466317" lon="7.919703183988288"><ele>226.66666666666669</ele><time>2026-04-12T12:19:37Z</time></trkpt><trkpt lat="44.56655786992079" lon="7.919645470142684"><ele>226.83333333333334</ele><time>2026-04-12T12:19:38Z</time></trkpt><trkpt lat="44.56663593481018" lon="7.9195941815287965"><ele>227.0</ele><time>2026-04-12T12:19:39Z</time></trkpt><trkpt lat="44.56671082283885" lon="7.919536488237208"><ele>227.00000000000003</ele><time>2026-04-12T12:19:40Z</time></trkpt><trkpt lat="44.566783869233795" lon="7.919477778310613"><ele>227.0</ele><time>2026-04-12T12:19:41Z</time></trkpt><trkpt lat="44.56685663409" lon="7.919416270456282"><ele>227.0</ele><time>2026-04-12T12:19:42Z</time></trkpt><trkpt lat="44.56692198139376" lon="7.919365193779322"><ele>227.0</ele><time>2026-04-12T12:19:43Z</time></trkpt><trkpt lat="44.56700830004834" lon="7.919316008297858"><ele>227.00000000000003</ele><time>2026-04-12T12:19:44Z</time></trkpt><trkpt lat="44.56708331110578" lon="7.919265793732261"><ele>227.0</ele><time>2026-04-12T12:19:45Z</time></trkpt><trkpt lat="44.56714735485506" lon="7.91919868967024"><ele>227.33333333333334</ele><time>2026-04-12T12:19:46Z</time></trkpt><trkpt lat="44.567217632416046" lon="7.919140358373448"><ele>227.66666666666669</ele><time>2026-04-12T12:19:47Z</time></trkpt><trkpt lat="44.56728353584501" lon="7.919086774326115"><ele>228.0</ele><time>2026-04-12T12:19:48Z</time></trkpt><trkpt lat="44.56735621118933" lon="7.919043658081286"><ele>228.33333333333331</ele><time>2026-04-12T12:19:49Z</time></trkpt><trkpt lat="44.567425573647576" lon="7.918985351358033"><ele>228.66666666666666</ele><time>2026-04-12T12:19:50Z</time></trkpt><trkpt lat="44.5674952760365" lon="7.918928602977173"><ele>229.0</ele><time>2026-04-12T12:19:51Z</time></trkpt><trkpt lat="44.567565237986976" lon="7.918875479387963"><ele>228.99999999999997</ele><time>2026-04-12T12:19:52Z</time></trkpt><trkpt lat="44.56763390072788" lon="7.918823734516"><ele>229.0</ele><time>2026-04-12T12:19:53Z</time></trkpt><trkpt lat="44.567707668814265" lon="7.918788982317651"><ele>229.0</ele><time>2026-04-12T12:19:54Z</time></trkpt><trkpt lat="44.567778424228536" lon="7.918733428990067"><ele>229.0</ele><time>2026-04-12T12:19:55Z</time></trkpt><trkpt lat="44.567846088213535" lon="7.918679933094806"><ele>228.99999999999997</ele><time>2026-04-12T12:19:56Z</time></trkpt><trkpt lat="44.56791459329885" lon="7.918623424599432"><ele>229.0</ele><time>2026-04-12T12:19:57Z</time></trkpt><trkpt lat="44.5679803162841" lon="7.918563364489482"><ele>228.66666666666666</ele><time>2026-04-12T12:19:58Z</time></trkpt><trkpt lat="44.568048124057164" lon="7.918513759929224"><ele>228.33333333333331</ele><time>2026-04-12T12:19:59Z</time></trkpt><trkpt lat="44.5681146290125" lon="7.918469420928004"><ele>228.0</ele><time>2026-04-12T12:20:00Z</time></trkpt><trkpt lat="44.56818088801578" lon="7.918400240439883"><ele>227.66666666666669</ele><time>2026-04-12T12:20:01Z</time></trkpt><trkpt lat="44.568245456598085" lon="7.918350466067785"><ele>227.33333333333334</ele><time>2026-04-12T12:20:02Z</time></trkpt><trkpt lat="44.56831228999203" lon="7.918300459734771"><ele>227.0</ele><time>2026-04-12T12:20:03Z</time></trkpt><trkpt lat="44.56837538011837" lon="7.918247005022406"><ele>227.0</ele><time>2026-04-12T12:20:04Z</time></trkpt><trkpt lat="44.56843904183224" lon="7.9181950303089454"><ele>227.00000000000003</ele><time>2026-04-12T12:20:05Z</time></trkpt><trkpt lat="44.56850295689931" lon="7.9181515357173"><ele>227.0</ele><time>2026-04-12T12:20:06Z</time></trkpt><trkpt lat="44.56856493816618" lon="7.918103020853491"><ele>227.0</ele><time>2026-04-12T12:20:07Z</time></trkpt><trkpt lat="44.56862139047956" lon="7.918052453117567"><ele>227.00000000000003</ele><time>2026-04-12T12:20:08Z</time></trkpt><trkpt lat="44.56867756336455" lon="7.917993019005692"><ele>227.0</ele><time>2026-04-12T12:20:09Z</time></trkpt><trkpt lat="44.56873271336097" lon="7.917930492993511"><ele>227.0</ele><time>2026-04-12T12:20:10Z</time></trkpt><trkpt lat="44.56878890764392" lon="7.917880019329339"><ele>226.57142857142858</ele><time>2026-04-12T12:20:11Z</time></trkpt><trkpt lat="44.56884250798231" lon="7.917822796587997"><ele>226.14285714285717</ele><time>2026-04-12T12:20:12Z</time></trkpt><trkpt lat="44.56889518851659" lon="7.917762368973553"><ele>225.71428571428572</ele><time>2026-04-12T12:20:13Z</time></trkpt><trkpt lat="44.56894380856399" lon="7.917698751400833"><ele>225.28571428571428</ele><time>2026-04-12T12:20:14Z</time></trkpt><trkpt lat="44.569008022916485" lon="7.917649520167903"><ele>224.85714285714286</ele><time>2026-04-12T12:20:15Z</time></trkpt><trkpt lat="44.56906879761844" lon="7.917608341955875"><ele>224.42857142857144</ele><time>2026-04-12T12:20:16Z</time></trkpt><trkpt lat="44.56913253803657" lon="7.917567366063142"><ele>224.0</ele><time>2026-04-12T12:20:17Z</time></trkpt><trkpt lat="44.569200155317596" lon="7.917548260717213"><ele>224.0</ele><time>2026-04-12T12:20:18Z</time></trkpt><trkpt lat="44.56926289024526" lon="7.917538821872256"><ele>224.0</ele><time>2026-04-12T12:20:19Z</time></trkpt><trkpt lat="44.5693278250199" lon="7.917536634931901"><ele>224.0</ele><time>2026-04-12T12:20:20Z</time></trkpt><trkpt lat="44.569394421819595" lon="7.917535514448927"><ele>224.0</ele><time>2026-04-12T12:20:21Z</time></trkpt><trkpt lat="44.56946458332255" lon="7.917539662563441"><ele>224.0</ele><time>2026-04-12T12:20:22Z</time></trkpt><trkpt lat="44.56954298020739" lon="7.917543810920127"><ele>224.0</ele><time>2026-04-12T12:20:23Z</time></trkpt><trkpt lat="44.56961433482673" lon="7.91753800183781"><ele>224.0</ele><time>2026-04-12T12:20:24Z</time></trkpt><trkpt lat="44.56968746200031" lon="7.917544170353733"><ele>224.33333333333334</ele><time>2026-04-12T12:20:25Z</time></trkpt><trkpt lat="44.56975488787789" lon="7.91753949902954"><ele>224.66666666666669</ele><time>2026-04-12T12:20:26Z</time></trkpt><trkpt lat="44.569823824998565" lon="7.91753464389701"><ele>225.0</ele><time>2026-04-12T12:20:27Z</time></trkpt><trkpt lat="44.5698893071758" lon="7.917521498343811"><ele>225.33333333333331</ele><time>2026-04-12T12:20:28Z</time></trkpt><trkpt lat="44.56995424659613" lon="7.917514910811159"><ele>225.66666666666666</ele><time>2026-04-12T12:20:29Z</time></trkpt><trkpt lat="44.57002293350931" lon="7.917489293076457"><ele>226.0</ele><time>2026-04-12T12:20:30Z</time></trkpt><trkpt lat="44.57014780748002" lon="7.91747663526962"><ele>226.0</ele><time>2026-04-12T12:20:32Z</time></trkpt><trkpt lat="44.5702117165562" lon="7.917481580776657"><ele>226.0</ele><time>2026-04-12T12:20:33Z</time></trkpt><trkpt lat="44.570273754303486" lon="7.917464831723538"><ele>226.0</ele><time>2026-04-12T12:20:34Z</time></trkpt><trkpt lat="44.570338804700775" lon="7.917463737648148"><ele>226.0</ele><time>2026-04-12T12:20:35Z</time></trkpt><trkpt lat="44.570407717898576" lon="7.9174474781551885"><ele>226.0</ele><time>2026-04-12T12:20:36Z</time></trkpt><trkpt lat="44.57047628757219" lon="7.917442509930098"><ele>226.0</ele><time>2026-04-12T12:20:37Z</time></trkpt><trkpt lat="44.57053816565673" lon="7.917422122272249"><ele>226.0</ele><time>2026-04-12T12:20:38Z</time></trkpt><trkpt lat="44.57060292375295" lon="7.9174032984833955"><ele>226.33333333333331</ele><time>2026-04-12T12:20:39Z</time></trkpt><trkpt lat="44.570666622729355" lon="7.917409646326048"><ele>226.66666666666666</ele><time>2026-04-12T12:20:40Z</time></trkpt><trkpt lat="44.570733046945435" lon="7.917397589595224"><ele>227.0</ele><time>2026-04-12T12:20:41Z</time></trkpt><trkpt lat="44.570795897250534" lon="7.91738618155456"><ele>227.33333333333331</ele><time>2026-04-12T12:20:42Z</time></trkpt><trkpt lat="44.570859339744764" lon="7.917373915766331"><ele>227.66666666666666</ele><time>2026-04-12T12:20:43Z</time></trkpt><trkpt lat="44.57097090955693" lon="7.917352132023971"><ele>228.0</ele><time>2026-04-12T12:20:45Z</time></trkpt><trkpt lat="44.571085984291635" lon="7.917329663930292"><ele>228.75</ele><time>2026-04-12T12:20:47Z</time></trkpt><trkpt lat="44.57120310098139" lon="7.91730679716772"><ele>229.5</ele><time>2026-04-12T12:20:49Z</time></trkpt><trkpt lat="44.57131730299363" lon="7.917284499482614"><ele>230.25</ele><time>2026-04-12T12:20:51Z</time></trkpt><trkpt lat="44.571430429698346" lon="7.917262411753124"><ele>231.0</ele><time>2026-04-12T12:20:53Z</time></trkpt><trkpt lat="44.571546066577085" lon="7.91723983391421"><ele>231.0</ele><time>2026-04-12T12:20:55Z</time></trkpt><trkpt lat="44.57166031766872" lon="7.917217526640169"><ele>231.0</ele><time>2026-04-12T12:20:57Z</time></trkpt><trkpt lat="44.571779817056374" lon="7.917194194669711"><ele>231.0</ele><time>2026-04-12T12:20:59Z</time></trkpt><trkpt lat="44.5719003442634" lon="7.9171707618769736"><ele>231.0</ele><time>2026-04-12T12:21:01Z</time></trkpt><trkpt lat="44.57202208235053" lon="7.917145448878997"><ele>231.20000000000002</ele><time>2026-04-12T12:21:03Z</time></trkpt><trkpt lat="44.572140941435855" lon="7.917092939909614"><ele>231.40000000000003</ele><time>2026-04-12T12:21:05Z</time></trkpt><trkpt lat="44.5722634787555" lon="7.917074544180451"><ele>231.6</ele><time>2026-04-12T12:21:07Z</time></trkpt><trkpt lat="44.572388372153654" lon="7.9170487659818445"><ele>231.8</ele><time>2026-04-12T12:21:09Z</time></trkpt><trkpt lat="44.57245291031491" lon="7.917029924899179"><ele>232.0</ele><time>2026-04-12T12:21:10Z</time></trkpt><trkpt lat="44.57251629197597" lon="7.917022083356344"><ele>231.99999999999997</ele><time>2026-04-12T12:21:11Z</time></trkpt><trkpt lat="44.5726432703771" lon="7.917003542018384"><ele>232.0</ele><time>2026-04-12T12:21:13Z</time></trkpt><trkpt lat="44.57271126049197" lon="7.916999382548727"><ele>232.0</ele><time>2026-04-12T12:21:14Z</time></trkpt><trkpt lat="44.57277948845226" lon="7.916988678432202"><ele>232.0</ele><time>2026-04-12T12:21:15Z</time></trkpt><trkpt lat="44.572846655197665" lon="7.916975621469391"><ele>231.99999999999997</ele><time>2026-04-12T12:21:16Z</time></trkpt><trkpt lat="44.57291824232012" lon="7.9169631575325665"><ele>232.0</ele><time>2026-04-12T12:21:17Z</time></trkpt><trkpt lat="44.57298633391427" lon="7.9169490777990505"><ele>232.00000000000003</ele><time>2026-04-12T12:21:18Z</time></trkpt><trkpt lat="44.573056170292936" lon="7.916933872740861"><ele>232.0</ele><time>2026-04-12T12:21:19Z</time></trkpt><trkpt lat="44.57312450912869" lon="7.916920388046659"><ele>232.00000000000003</ele><time>2026-04-12T12:21:20Z</time></trkpt><trkpt lat="44.57319657148557" lon="7.916906512268838"><ele>232.00000000000003</ele><time>2026-04-12T12:21:21Z</time></trkpt><trkpt lat="44.5732645963173" lon="7.916893488347393"><ele>232.0</ele><time>2026-04-12T12:21:22Z</time></trkpt><trkpt lat="44.573338885305816" lon="7.916879587537886"><ele>232.00000000000003</ele><time>2026-04-12T12:21:23Z</time></trkpt><trkpt lat="44.57341478810079" lon="7.916868737491298"><ele>232.00000000000003</ele><time>2026-04-12T12:21:24Z</time></trkpt><trkpt lat="44.57348523858244" lon="7.9168568075731"><ele>232.00000000000003</ele><time>2026-04-12T12:21:25Z</time></trkpt><trkpt lat="44.57355380946951" lon="7.916843418954919"><ele>232.0</ele><time>2026-04-12T12:21:26Z</time></trkpt><trkpt lat="44.57362289523662" lon="7.916830464363228"><ele>232.00000000000003</ele><time>2026-04-12T12:21:27Z</time></trkpt><trkpt lat="44.57369243775032" lon="7.9168141864777235"><ele>232.00000000000003</ele><time>2026-04-12T12:21:28Z</time></trkpt><trkpt lat="44.57376125009358" lon="7.916806324471808"><ele>232.0</ele><time>2026-04-12T12:21:29Z</time></trkpt><trkpt lat="44.57382859822402" lon="7.916798529079778"><ele>232.00000000000003</ele><time>2026-04-12T12:21:30Z</time></trkpt><trkpt lat="44.57389689415775" lon="7.916789041141522"><ele>232.00000000000003</ele><time>2026-04-12T12:21:31Z</time></trkpt><trkpt lat="44.57397014346874" lon="7.916773280701941"><ele>232.14285714285717</ele><time>2026-04-12T12:21:32Z</time></trkpt><trkpt lat="44.57403570116852" lon="7.916761678429369"><ele>232.28571428571428</ele><time>2026-04-12T12:21:33Z</time></trkpt><trkpt lat="44.574106681924405" lon="7.916747932669678"><ele>232.42857142857144</ele><time>2026-04-12T12:21:34Z</time></trkpt><trkpt lat="44.574172361723065" lon="7.916736224716885"><ele>232.57142857142858</ele><time>2026-04-12T12:21:35Z</time></trkpt><trkpt lat="44.57424151047885" lon="7.916725984525084"><ele>232.71428571428572</ele><time>2026-04-12T12:21:36Z</time></trkpt><trkpt lat="44.57431044307378" lon="7.916710106850792"><ele>232.85714285714286</ele><time>2026-04-12T12:21:37Z</time></trkpt><trkpt lat="44.574379689750664" lon="7.916692041891738"><ele>233.0</ele><time>2026-04-12T12:21:38Z</time></trkpt><trkpt lat="44.57445267017413" lon="7.9166779298479435"><ele>232.14285714285717</ele><time>2026-04-12T12:21:39Z</time></trkpt><trkpt lat="44.574523101829534" lon="7.916662654550947"><ele>231.28571428571428</ele><time>2026-04-12T12:21:40Z</time></trkpt><trkpt lat="44.574597248063505" lon="7.916650636349731"><ele>230.42857142857144</ele><time>2026-04-12T12:21:41Z</time></trkpt><trkpt lat="44.574668182678586" lon="7.916637253003708"><ele>229.57142857142858</ele><time>2026-04-12T12:21:42Z</time></trkpt><trkpt lat="44.574737602542434" lon="7.9166268424414525"><ele>228.71428571428572</ele><time>2026-04-12T12:21:43Z</time></trkpt><trkpt lat="44.574806199218095" lon="7.9166142491396"><ele>227.85714285714286</ele><time>2026-04-12T12:21:44Z</time></trkpt><trkpt lat="44.57487763779591" lon="7.916603200450178"><ele>227.0</ele><time>2026-04-12T12:21:45Z</time></trkpt><trkpt lat="44.57494277017792" lon="7.916587942098331"><ele>227.00000000000003</ele><time>2026-04-12T12:21:46Z</time></trkpt><trkpt lat="44.57501106449254" lon="7.916564279325135"><ele>227.0</ele><time>2026-04-12T12:21:47Z</time></trkpt><trkpt lat="44.575073683436514" lon="7.916533752262371"><ele>227.0</ele><time>2026-04-12T12:21:48Z</time></trkpt><trkpt lat="44.57513495105556" lon="7.916486223015049"><ele>227.0</ele><time>2026-04-12T12:21:49Z</time></trkpt><trkpt lat="44.57518996649071" lon="7.91643580125514"><ele>227.00000000000003</ele><time>2026-04-12T12:21:50Z</time></trkpt><trkpt lat="44.57523959410141" lon="7.9163813477046645"><ele>227.0</ele><time>2026-04-12T12:21:51Z</time></trkpt><trkpt lat="44.575333843539816" lon="7.916283649030397"><ele>227.75</ele><time>2026-04-12T12:21:53Z</time></trkpt><trkpt lat="44.57542125599285" lon="7.916176860957318"><ele>228.5</ele><time>2026-04-12T12:21:55Z</time></trkpt><trkpt lat="44.5755045956368" lon="7.916065152525313"><ele>229.25</ele><time>2026-04-12T12:21:57Z</time></trkpt><trkpt lat="44.57559271321694" lon="7.915957205309443"><ele>230.0</ele><time>2026-04-12T12:21:59Z</time></trkpt><trkpt lat="44.57567433612736" lon="7.91583820642779"><ele>230.0</ele><time>2026-04-12T12:22:01Z</time></trkpt><trkpt lat="44.57575567047105" lon="7.915733439018375"><ele>230.0</ele><time>2026-04-12T12:22:03Z</time></trkpt><trkpt lat="44.575841437863346" lon="7.915628811430591"><ele>230.0</ele><time>2026-04-12T12:22:05Z</time></trkpt><trkpt lat="44.5759369265298" lon="7.915527338610346"><ele>230.0</ele><time>2026-04-12T12:22:07Z</time></trkpt><trkpt lat="44.57602731219396" lon="7.915414384108178"><ele>229.99999999999997</ele><time>2026-04-12T12:22:09Z</time></trkpt><trkpt lat="44.57607662481948" lon="7.915352881849894"><ele>230.0</ele><time>2026-04-12T12:22:10Z</time></trkpt><trkpt lat="44.576125797857145" lon="7.915291553687166"><ele>229.99999999999997</ele><time>2026-04-12T12:22:11Z</time></trkpt><trkpt lat="44.576165514991715" lon="7.915211876693315"><ele>229.99999999999997</ele><time>2026-04-12T12:22:11.999Z</time></trkpt><trkpt lat="44.57621726795873" lon="7.915155260868455"><ele>230.0</ele><time>2026-04-12T12:22:13Z</time></trkpt><trkpt lat="44.5762700573239" lon="7.915104316192127"><ele>229.99999999999997</ele><time>2026-04-12T12:22:14Z</time></trkpt><trkpt lat="44.57632278495547" lon="7.915044169601396"><ele>229.99999999999997</ele><time>2026-04-12T12:22:15Z</time></trkpt><trkpt lat="44.57637143091082" lon="7.9149830224589675"><ele>230.16666666666669</ele><time>2026-04-12T12:22:16Z</time></trkpt><trkpt lat="44.576465008515" lon="7.91485545630651"><ele>230.33333333333334</ele><time>2026-04-12T12:22:18Z</time></trkpt><trkpt lat="44.576518574131704" lon="7.914789865671954"><ele>230.5</ele><time>2026-04-12T12:22:19Z</time></trkpt><trkpt lat="44.57657042314043" lon="7.914730413956116"><ele>230.66666666666669</ele><time>2026-04-12T12:22:20Z</time></trkpt><trkpt lat="44.57661846186739" lon="7.914672175399748"><ele>230.83333333333334</ele><time>2026-04-12T12:22:21Z</time></trkpt><trkpt lat="44.576667930460204" lon="7.914614600892218"><ele>231.0</ele><time>2026-04-12T12:22:22Z</time></trkpt><trkpt lat="44.57676090973184" lon="7.914490784005693"><ele>231.0</ele><time>2026-04-12T12:22:24Z</time></trkpt><trkpt lat="44.57685616907706" lon="7.914381746882724"><ele>231.00000000000003</ele><time>2026-04-12T12:22:26Z</time></trkpt><trkpt lat="44.576905108301794" lon="7.914325415909931"><ele>231.00000000000003</ele><time>2026-04-12T12:22:27Z</time></trkpt><trkpt lat="44.57699602118919" lon="7.9142062095497945"><ele>231.0</ele><time>2026-04-12T12:22:29Z</time></trkpt><trkpt lat="44.577043983374374" lon="7.914143194542931"><ele>231.0</ele><time>2026-04-12T12:22:30Z</time></trkpt><trkpt lat="44.57713694944514" lon="7.914033126567967"><ele>231.60000000000002</ele><time>2026-04-12T12:22:32Z</time></trkpt><trkpt lat="44.57722663830034" lon="7.91392321071937"><ele>232.20000000000002</ele><time>2026-04-12T12:22:34Z</time></trkpt><trkpt lat="44.57731060332904" lon="7.913816107669623"><ele>232.79999999999998</ele><time>2026-04-12T12:22:36Z</time></trkpt><trkpt lat="44.57739606555568" lon="7.913710228184363"><ele>233.39999999999998</ele><time>2026-04-12T12:22:38Z</time></trkpt><trkpt lat="44.57744709490098" lon="7.913644574232446"><ele>234.0</ele><time>2026-04-12T12:22:39Z</time></trkpt><trkpt lat="44.57749512682326" lon="7.913584131980728"><ele>234.0</ele><time>2026-04-12T12:22:40Z</time></trkpt><trkpt lat="44.57754379972307" lon="7.913522152429937"><ele>234.00000000000003</ele><time>2026-04-12T12:22:41Z</time></trkpt><trkpt lat="44.57759283488933" lon="7.913458139655794"><ele>234.0</ele><time>2026-04-12T12:22:42Z</time></trkpt><trkpt lat="44.577643895924986" lon="7.913387092448502"><ele>234.0</ele><time>2026-04-12T12:22:43Z</time></trkpt><trkpt lat="44.577695287836505" lon="7.913325485993648"><ele>234.00000000000003</ele><time>2026-04-12T12:22:44Z</time></trkpt><trkpt lat="44.57774658161987" lon="7.913270311649392"><ele>234.0</ele><time>2026-04-12T12:22:45Z</time></trkpt><trkpt lat="44.57779431759393" lon="7.913203773187774"><ele>234.0</ele><time>2026-04-12T12:22:46Z</time></trkpt><trkpt lat="44.577843196196795" lon="7.913139202764138"><ele>234.0</ele><time>2026-04-12T12:22:47Z</time></trkpt><trkpt lat="44.57789191665451" lon="7.9130739440722815"><ele>234.00000000000003</ele><time>2026-04-12T12:22:48Z</time></trkpt><trkpt lat="44.577939657015456" lon="7.9130097262526125"><ele>234.0</ele><time>2026-04-12T12:22:49Z</time></trkpt><trkpt lat="44.57799197925261" lon="7.912945705326544"><ele>234.0</ele><time>2026-04-12T12:22:50Z</time></trkpt><trkpt lat="44.578044587571846" lon="7.9128822875301505"><ele>234.00000000000003</ele><time>2026-04-12T12:22:51Z</time></trkpt><trkpt lat="44.57809774463511" lon="7.912816457009647"><ele>234.0</ele><time>2026-04-12T12:22:52Z</time></trkpt><trkpt lat="44.57814990223298" lon="7.912748982743393"><ele>234.0</ele><time>2026-04-12T12:22:53Z</time></trkpt><trkpt lat="44.578204025665656" lon="7.912689860445808"><ele>234.0</ele><time>2026-04-12T12:22:54Z</time></trkpt><trkpt lat="44.5782563203072" lon="7.912623270141737"><ele>234.00000000000003</ele><time>2026-04-12T12:22:55Z</time></trkpt><trkpt lat="44.57830669725876" lon="7.9125632020394665"><ele>234.0</ele><time>2026-04-12T12:22:56Z</time></trkpt><trkpt lat="44.57835804711913" lon="7.912494654553975"><ele>234.0</ele><time>2026-04-12T12:22:57Z</time></trkpt><trkpt lat="44.578411200772955" lon="7.91242320005633"><ele>234.00000000000003</ele><time>2026-04-12T12:22:58Z</time></trkpt><trkpt lat="44.578471555700695" lon="7.912358333109333"><ele>234.0</ele><time>2026-04-12T12:22:59Z</time></trkpt><trkpt lat="44.57852885800211" lon="7.912291297277379"><ele>234.0</ele><time>2026-04-12T12:23:00Z</time></trkpt><trkpt lat="44.578587042078" lon="7.912217365549808"><ele>233.71428571428572</ele><time>2026-04-12T12:23:01Z</time></trkpt><trkpt lat="44.578643813963374" lon="7.912154343966221"><ele>233.42857142857144</ele><time>2026-04-12T12:23:02Z</time></trkpt><trkpt lat="44.578699925431216" lon="7.91208717452666"><ele>233.14285714285717</ele><time>2026-04-12T12:23:03Z</time></trkpt><trkpt lat="44.57875608921809" lon="7.912012999867915"><ele>232.8571428571429</ele><time>2026-04-12T12:23:04Z</time></trkpt><trkpt lat="44.5788100494758" lon="7.911941956465666"><ele>232.57142857142858</ele><time>2026-04-12T12:23:05Z</time></trkpt><trkpt lat="44.57886484455166" lon="7.911875204361908"><ele>232.28571428571433</ele><time>2026-04-12T12:23:06Z</time></trkpt><trkpt lat="44.578918330793265" lon="7.911805396041324"><ele>232.00000000000003</ele><time>2026-04-12T12:23:07Z</time></trkpt><trkpt lat="44.57897518098057" lon="7.911739308733283"><ele>231.42857142857144</ele><time>2026-04-12T12:23:08Z</time></trkpt><trkpt lat="44.57902566782081" lon="7.911682389231143"><ele>230.85714285714286</ele><time>2026-04-12T12:23:09Z</time></trkpt><trkpt lat="44.57907856585259" lon="7.911608182700557"><ele>230.28571428571428</ele><time>2026-04-12T12:23:10Z</time></trkpt><trkpt lat="44.579135821470715" lon="7.911532178140278"><ele>229.71428571428572</ele><time>2026-04-12T12:23:11Z</time></trkpt><trkpt lat="44.579191427666395" lon="7.911459261092912"><ele>229.1428571428571</ele><time>2026-04-12T12:23:12Z</time></trkpt><trkpt lat="44.57924567273708" lon="7.911402039626608"><ele>228.57142857142856</ele><time>2026-04-12T12:23:13Z</time></trkpt><trkpt lat="44.57929876364644" lon="7.911336068286835"><ele>228.0</ele><time>2026-04-12T12:23:14Z</time></trkpt><trkpt lat="44.579357404858065" lon="7.911264353152901"><ele>228.0</ele><time>2026-04-12T12:23:15Z</time></trkpt><trkpt lat="44.579409965018975" lon="7.911196089905958"><ele>227.99999999999997</ele><time>2026-04-12T12:23:16Z</time></trkpt><trkpt lat="44.57946461864015" lon="7.911122434535913"><ele>228.0</ele><time>2026-04-12T12:23:17Z</time></trkpt><trkpt lat="44.57952294928937" lon="7.911081518840572"><ele>228.0</ele><time>2026-04-12T12:23:18Z</time></trkpt><trkpt lat="44.57957663341311" lon="7.911003415559043"><ele>227.99999999999997</ele><time>2026-04-12T12:23:19Z</time></trkpt><trkpt lat="44.579630004139126" lon="7.910940787598377"><ele>228.0</ele><time>2026-04-12T12:23:20Z</time></trkpt><trkpt lat="44.579688723845784" lon="7.910870824980946"><ele>228.0</ele><time>2026-04-12T12:23:21Z</time></trkpt><trkpt lat="44.5797387929154" lon="7.910784409969014"><ele>227.83333333333334</ele><time>2026-04-12T12:23:22Z</time></trkpt><trkpt lat="44.57979390770333" lon="7.910714438551858"><ele>227.66666666666669</ele><time>2026-04-12T12:23:23Z</time></trkpt><trkpt lat="44.579851215789596" lon="7.910652063399541"><ele>227.5</ele><time>2026-04-12T12:23:24Z</time></trkpt><trkpt lat="44.57990609620999" lon="7.910583318984409"><ele>227.33333333333334</ele><time>2026-04-12T12:23:25Z</time></trkpt><trkpt lat="44.57996144665159" lon="7.910522224858908"><ele>227.16666666666669</ele><time>2026-04-12T12:23:26Z</time></trkpt><trkpt lat="44.580016726311825" lon="7.910433577113395"><ele>227.0</ele><time>2026-04-12T12:23:27Z</time></trkpt><trkpt lat="44.580074299512326" lon="7.910359668992864"><ele>227.00000000000003</ele><time>2026-04-12T12:23:28Z</time></trkpt><trkpt lat="44.58013116891276" lon="7.910288603887645"><ele>227.0</ele><time>2026-04-12T12:23:29Z</time></trkpt><trkpt lat="44.58019665235069" lon="7.910221449826951"><ele>227.0</ele><time>2026-04-12T12:23:30Z</time></trkpt><trkpt lat="44.58026020425197" lon="7.910152520115888"><ele>227.0</ele><time>2026-04-12T12:23:31Z</time></trkpt><trkpt lat="44.580322080915565" lon="7.910077998407939"><ele>227.00000000000003</ele><time>2026-04-12T12:23:32Z</time></trkpt><trkpt lat="44.58037997496766" lon="7.910009102226066"><ele>227.0</ele><time>2026-04-12T12:23:33Z</time></trkpt><trkpt lat="44.58044276867726" lon="7.909934835004763"><ele>226.85714285714286</ele><time>2026-04-12T12:23:34Z</time></trkpt><trkpt lat="44.580501178435384" lon="7.909858781878411"><ele>226.71428571428572</ele><time>2026-04-12T12:23:35Z</time></trkpt><trkpt lat="44.58055229214304" lon="7.909788808839965"><ele>226.57142857142858</ele><time>2026-04-12T12:23:36Z</time></trkpt><trkpt lat="44.58059833631995" lon="7.909708317793521"><ele>226.42857142857144</ele><time>2026-04-12T12:23:37Z</time></trkpt><trkpt lat="44.58063073279841" lon="7.909623140536516"><ele>226.28571428571428</ele><time>2026-04-12T12:23:38Z</time></trkpt><trkpt lat="44.580663531688174" lon="7.9095360106920864"><ele>226.14285714285717</ele><time>2026-04-12T12:23:39Z</time></trkpt><trkpt lat="44.580684007239526" lon="7.909438042092388"><ele>226.0</ele><time>2026-04-12T12:23:40Z</time></trkpt><trkpt lat="44.58071769558178" lon="7.909338326291477"><ele>225.99999999999997</ele><time>2026-04-12T12:23:41Z</time></trkpt><trkpt lat="44.58076414378994" lon="7.909259389497818"><ele>226.0</ele><time>2026-04-12T12:23:42Z</time></trkpt><trkpt lat="44.580826062734005" lon="7.909207421429328"><ele>226.0</ele><time>2026-04-12T12:23:43Z</time></trkpt><trkpt lat="44.580893196947926" lon="7.909193027608382"><ele>226.0</ele><time>2026-04-12T12:23:44Z</time></trkpt><trkpt lat="44.58095384491674" lon="7.909159087706556"><ele>225.99999999999997</ele><time>2026-04-12T12:23:45Z</time></trkpt><trkpt lat="44.58100771337306" lon="7.909104491183622"><ele>226.0</ele><time>2026-04-12T12:23:46Z</time></trkpt><trkpt lat="44.58106343539298" lon="7.908952038880106"><ele>225.8</ele><time>2026-04-12T12:23:48Z</time></trkpt><trkpt lat="44.581079016147896" lon="7.908854436548459"><ele>225.60000000000002</ele><time>2026-04-12T12:23:49Z</time></trkpt><trkpt lat="44.581063547997246" lon="7.9087668384945475"><ele>225.4</ele><time>2026-04-12T12:23:50Z</time></trkpt><trkpt lat="44.58117595167247" lon="7.908604150443036"><ele>225.2</ele><time>2026-04-12T12:23:52Z</time></trkpt><trkpt lat="44.581271052808866" lon="7.9084915783768475"><ele>225.0</ele><time>2026-04-12T12:23:54Z</time></trkpt><trkpt lat="44.5813216867415" lon="7.908434092524817"><ele>224.66666666666666</ele><time>2026-04-12T12:23:55Z</time></trkpt><trkpt lat="44.58141755374029" lon="7.908329692571624"><ele>224.33333333333331</ele><time>2026-04-12T12:23:56.999Z</time></trkpt><trkpt lat="44.58146851376178" lon="7.908267659799938"><ele>224.0</ele><time>2026-04-12T12:23:57.999Z</time></trkpt><trkpt lat="44.581520969754926" lon="7.9081963228263"><ele>223.66666666666666</ele><time>2026-04-12T12:23:58.999Z</time></trkpt><trkpt lat="44.5815697857948" lon="7.908125637611492"><ele>223.33333333333331</ele><time>2026-04-12T12:23:59.999Z</time></trkpt><trkpt lat="44.5816142637496" lon="7.908057892236357"><ele>223.0</ele><time>2026-04-12T12:24:00.999Z</time></trkpt><trkpt lat="44.58166516139758" lon="7.907994524900657"><ele>223.0</ele><time>2026-04-12T12:24:01.999Z</time></trkpt><trkpt lat="44.5817226679444" lon="7.90792584663397"><ele>223.0</ele><time>2026-04-12T12:24:02.999Z</time></trkpt><trkpt lat="44.581772462129045" lon="7.907849894674055"><ele>223.0</ele><time>2026-04-12T12:24:03.999Z</time></trkpt><trkpt lat="44.58182548390839" lon="7.907778385838136"><ele>223.0</ele><time>2026-04-12T12:24:04.999Z</time></trkpt><trkpt lat="44.58187434334528" lon="7.90770827551664"><ele>223.0</ele><time>2026-04-12T12:24:05.999Z</time></trkpt><trkpt lat="44.58192119208465" lon="7.907635289996971"><ele>223.0</ele><time>2026-04-12T12:24:06.999Z</time></trkpt><trkpt lat="44.58196499129" lon="7.907566493973819"><ele>223.0</ele><time>2026-04-12T12:24:07.999Z</time></trkpt><trkpt lat="44.58201135560294" lon="7.907488955532074"><ele>223.28571428571428</ele><time>2026-04-12T12:24:08.999Z</time></trkpt><trkpt lat="44.58206346385483" lon="7.907409004191837"><ele>223.57142857142856</ele><time>2026-04-12T12:24:09.999Z</time></trkpt><trkpt lat="44.5821095535653" lon="7.907331736809644"><ele>223.8571428571429</ele><time>2026-04-12T12:24:10.999Z</time></trkpt><trkpt lat="44.58215165293358" lon="7.907250754743977"><ele>224.14285714285717</ele><time>2026-04-12T12:24:11.999Z</time></trkpt><trkpt lat="44.58219564536713" lon="7.907174649932638"><ele>224.42857142857144</ele><time>2026-04-12T12:24:12.999Z</time></trkpt><trkpt lat="44.58224313190795" lon="7.9070908911258435"><ele>224.71428571428575</ele><time>2026-04-12T12:24:13.999Z</time></trkpt><trkpt lat="44.5822871030651" lon="7.907009868641211"><ele>225.00000000000003</ele><time>2026-04-12T12:24:14.999Z</time></trkpt><trkpt lat="44.58233073441996" lon="7.906929391737271"><ele>225.00000000000003</ele><time>2026-04-12T12:24:15.999Z</time></trkpt><trkpt lat="44.582374615252974" lon="7.906851568000208"><ele>225.0</ele><time>2026-04-12T12:24:16.999Z</time></trkpt><trkpt lat="44.58242094530537" lon="7.906772236873026"><ele>225.00000000000003</ele><time>2026-04-12T12:24:17.999Z</time></trkpt><trkpt lat="44.582464279855735" lon="7.906690212308918"><ele>225.00000000000003</ele><time>2026-04-12T12:24:18.999Z</time></trkpt><trkpt lat="44.582508174162214" lon="7.906611309188565"><ele>225.0</ele><time>2026-04-12T12:24:19.999Z</time></trkpt><trkpt lat="44.58255265411115" lon="7.906530191748981"><ele>225.00000000000003</ele><time>2026-04-12T12:24:20.999Z</time></trkpt><trkpt lat="44.582598236117875" lon="7.906446917347457"><ele>225.00000000000003</ele><time>2026-04-12T12:24:21.999Z</time></trkpt><trkpt lat="44.58264334018502" lon="7.906365382120856"><ele>224.8571428571429</ele><time>2026-04-12T12:24:22.999Z</time></trkpt><trkpt lat="44.58268972488927" lon="7.906285847789704"><ele>224.71428571428572</ele><time>2026-04-12T12:24:23.999Z</time></trkpt><trkpt lat="44.582733785553025" lon="7.906203395122754"><ele>224.57142857142858</ele><time>2026-04-12T12:24:24.999Z</time></trkpt><trkpt lat="44.582776817994464" lon="7.906118443763201"><ele>224.42857142857144</ele><time>2026-04-12T12:24:25.999Z</time></trkpt><trkpt lat="44.5828156863085" lon="7.906041474340488"><ele>224.28571428571428</ele><time>2026-04-12T12:24:27Z</time></trkpt><trkpt lat="44.58285948239633" lon="7.905960031226528"><ele>224.14285714285714</ele><time>2026-04-12T12:24:28Z</time></trkpt><trkpt lat="44.58289921190413" lon="7.905879591883557"><ele>224.0</ele><time>2026-04-12T12:24:29Z</time></trkpt><trkpt lat="44.58294134834452" lon="7.905797438251795"><ele>224.28571428571428</ele><time>2026-04-12T12:24:30Z</time></trkpt><trkpt lat="44.58298834854308" lon="7.905721983060234"><ele>224.57142857142856</ele><time>2026-04-12T12:24:31Z</time></trkpt><trkpt lat="44.583028344298484" lon="7.9056427179696085"><ele>224.85714285714286</ele><time>2026-04-12T12:24:32Z</time></trkpt><trkpt lat="44.583069408565486" lon="7.905565078217057"><ele>225.14285714285714</ele><time>2026-04-12T12:24:33Z</time></trkpt><trkpt lat="44.58311007286209" lon="7.905488556789978"><ele>225.42857142857142</ele><time>2026-04-12T12:24:34Z</time></trkpt><trkpt lat="44.58315630692846" lon="7.905408336196366"><ele>225.71428571428572</ele><time>2026-04-12T12:24:35Z</time></trkpt><trkpt lat="44.58319725209757" lon="7.905329916478779"><ele>226.0</ele><time>2026-04-12T12:24:36Z</time></trkpt><trkpt lat="44.58324119414934" lon="7.905254917015887"><ele>226.0</ele><time>2026-04-12T12:24:37Z</time></trkpt><trkpt lat="44.58328493393833" lon="7.905173989164364"><ele>226.0</ele><time>2026-04-12T12:24:38Z</time></trkpt><trkpt lat="44.583327434305446" lon="7.905093937392043"><ele>226.0</ele><time>2026-04-12T12:24:39Z</time></trkpt><trkpt lat="44.58336919806831" lon="7.905014766511513"><ele>226.0</ele><time>2026-04-12T12:24:40Z</time></trkpt><trkpt lat="44.5834111700657" lon="7.904938361942442"><ele>226.0</ele><time>2026-04-12T12:24:41Z</time></trkpt><trkpt lat="44.583449548047454" lon="7.9048614917469475"><ele>226.0</ele><time>2026-04-12T12:24:42Z</time></trkpt><trkpt lat="44.58348873938258" lon="7.904784853262224"><ele>226.0</ele><time>2026-04-12T12:24:43Z</time></trkpt><trkpt lat="44.583531344485166" lon="7.904709176792609"><ele>225.85714285714286</ele><time>2026-04-12T12:24:44Z</time></trkpt><trkpt lat="44.583573456139035" lon="7.90463420366665"><ele>225.71428571428572</ele><time>2026-04-12T12:24:45Z</time></trkpt><trkpt lat="44.5836118216908" lon="7.904556702663995"><ele>225.57142857142858</ele><time>2026-04-12T12:24:46Z</time></trkpt><trkpt lat="44.5836528918903" lon="7.904479890885207"><ele>225.42857142857144</ele><time>2026-04-12T12:24:47Z</time></trkpt><trkpt lat="44.583690575598474" lon="7.9044054984035155"><ele>225.28571428571428</ele><time>2026-04-12T12:24:48Z</time></trkpt><trkpt lat="44.58372923241" lon="7.904333820709587"><ele>225.14285714285717</ele><time>2026-04-12T12:24:49Z</time></trkpt><trkpt lat="44.58376751100929" lon="7.904260058828191"><ele>225.00000000000003</ele><time>2026-04-12T12:24:50Z</time></trkpt><trkpt lat="44.583838983598014" lon="7.904124030012113"><ele>226.25</ele><time>2026-04-12T12:24:52Z</time></trkpt><trkpt lat="44.583909103684" lon="7.903990173675144"><ele>227.5</ele><time>2026-04-12T12:24:54Z</time></trkpt><trkpt lat="44.58397132030724" lon="7.9038541888115015"><ele>228.75</ele><time>2026-04-12T12:24:56Z</time></trkpt><trkpt lat="44.584038610728584" lon="7.903712079010149"><ele>230.0</ele><time>2026-04-12T12:24:58Z</time></trkpt><trkpt lat="44.5841060184239" lon="7.903598961884358"><ele>230.0</ele><time>2026-04-12T12:25:00Z</time></trkpt><trkpt lat="44.58417896051868" lon="7.903492860841296"><ele>230.0</ele><time>2026-04-12T12:25:02Z</time></trkpt><trkpt lat="44.58425582418891" lon="7.9033783999929685"><ele>230.0</ele><time>2026-04-12T12:25:04Z</time></trkpt><trkpt lat="44.58431655472984" lon="7.903259527652588"><ele>230.0</ele><time>2026-04-12T12:25:06Z</time></trkpt><trkpt lat="44.584374112139365" lon="7.90314913907427"><ele>230.0</ele><time>2026-04-12T12:25:08Z</time></trkpt><trkpt lat="44.58443267247375" lon="7.903039475000232"><ele>230.00000000000003</ele><time>2026-04-12T12:25:10Z</time></trkpt><trkpt lat="44.584490272882356" lon="7.902935254724997"><ele>230.0</ele><time>2026-04-12T12:25:12Z</time></trkpt><trkpt lat="44.584541052834595" lon="7.9028431309432925"><ele>230.0</ele><time>2026-04-12T12:25:14Z</time></trkpt><trkpt lat="44.584585139132386" lon="7.902751005448012"><ele>230.0</ele><time>2026-04-12T12:25:16Z</time></trkpt><trkpt lat="44.584637882468215" lon="7.9026551464935455"><ele>230.00000000000003</ele><time>2026-04-12T12:25:18Z</time></trkpt><trkpt lat="44.584691618405095" lon="7.902562454243282"><ele>230.0</ele><time>2026-04-12T12:25:20Z</time></trkpt><trkpt lat="44.58474743454969" lon="7.902458933440262"><ele>230.0</ele><time>2026-04-12T12:25:22Z</time></trkpt><trkpt lat="44.584803800866325" lon="7.902344544145848"><ele>230.0</ele><time>2026-04-12T12:25:24Z</time></trkpt><trkpt lat="44.58486760548151" lon="7.9022288873282225"><ele>230.0</ele><time>2026-04-12T12:25:26Z</time></trkpt><trkpt lat="44.58493814116807" lon="7.902099260348073"><ele>230.0</ele><time>2026-04-12T12:25:28Z</time></trkpt><trkpt lat="44.58497525151156" lon="7.9020275676697596"><ele>230.0</ele><time>2026-04-12T12:25:29Z</time></trkpt><trkpt lat="44.585047129070176" lon="7.901892406844335"><ele>229.99999999999997</ele><time>2026-04-12T12:25:31Z</time></trkpt><trkpt lat="44.58508745589008" lon="7.901819455582191"><ele>230.0</ele><time>2026-04-12T12:25:32Z</time></trkpt><trkpt lat="44.58512742936014" lon="7.901741644078182"><ele>229.99999999999997</ele><time>2026-04-12T12:25:33Z</time></trkpt><trkpt lat="44.58516736400919" lon="7.901665923074876"><ele>229.99999999999997</ele><time>2026-04-12T12:25:34Z</time></trkpt><trkpt lat="44.58521392244571" lon="7.901591678513719"><ele>230.0</ele><time>2026-04-12T12:25:35Z</time></trkpt><trkpt lat="44.58526102380649" lon="7.901512436127637"><ele>229.99999999999997</ele><time>2026-04-12T12:25:36Z</time></trkpt><trkpt lat="44.58530682648902" lon="7.901432316952826"><ele>229.99999999999997</ele><time>2026-04-12T12:25:37Z</time></trkpt><trkpt lat="44.58535235997759" lon="7.901353863812549"><ele>229.50000000000003</ele><time>2026-04-12T12:25:38Z</time></trkpt><trkpt lat="44.58539844138958" lon="7.901273862554361"><ele>229.0</ele><time>2026-04-12T12:25:39Z</time></trkpt><trkpt lat="44.58544392528665" lon="7.901192881369587"><ele>228.5</ele><time>2026-04-12T12:25:40Z</time></trkpt><trkpt lat="44.58549044145005" lon="7.901107792725281"><ele>228.0</ele><time>2026-04-12T12:25:41Z</time></trkpt><trkpt lat="44.585538956415206" lon="7.901023830102968"><ele>227.50000000000003</ele><time>2026-04-12T12:25:42Z</time></trkpt><trkpt lat="44.585586381741095" lon="7.900937726013142"><ele>227.0</ele><time>2026-04-12T12:25:43Z</time></trkpt><trkpt lat="44.585638947006906" lon="7.90084872484662"><ele>226.66666666666669</ele><time>2026-04-12T12:25:44Z</time></trkpt><trkpt lat="44.58568357748847" lon="7.900765970767399"><ele>226.33333333333334</ele><time>2026-04-12T12:25:45Z</time></trkpt><trkpt lat="44.585731946028815" lon="7.900682747284539"><ele>226.0</ele><time>2026-04-12T12:25:46Z</time></trkpt><trkpt lat="44.58577952572078" lon="7.900602300274261"><ele>225.66666666666669</ele><time>2026-04-12T12:25:47Z</time></trkpt><trkpt lat="44.58582560287671" lon="7.90051628915975"><ele>225.33333333333334</ele><time>2026-04-12T12:25:48Z</time></trkpt><trkpt lat="44.58587434069074" lon="7.900432395955522"><ele>225.0</ele><time>2026-04-12T12:25:49Z</time></trkpt><trkpt lat="44.58591840335188" lon="7.9003515291044675"><ele>225.0</ele><time>2026-04-12T12:25:50Z</time></trkpt><trkpt lat="44.585963684281985" lon="7.9002716764596785"><ele>225.0</ele><time>2026-04-12T12:25:50.999Z</time></trkpt><trkpt lat="44.586012416752276" lon="7.900183647276868"><ele>225.0</ele><time>2026-04-12T12:25:51.999Z</time></trkpt><trkpt lat="44.58606046624621" lon="7.9000929265798945"><ele>225.0</ele><time>2026-04-12T12:25:52.999Z</time></trkpt><trkpt lat="44.586110333866934" lon="7.90000305545428"><ele>225.0</ele><time>2026-04-12T12:25:53.999Z</time></trkpt><trkpt lat="44.58615822884855" lon="7.899906525328267"><ele>225.0</ele><time>2026-04-12T12:25:54.999Z</time></trkpt><trkpt lat="44.58620707462867" lon="7.8998146964873905"><ele>224.33333333333334</ele><time>2026-04-12T12:25:55.999Z</time></trkpt><trkpt lat="44.58625821804472" lon="7.899725782410227"><ele>223.66666666666669</ele><time>2026-04-12T12:25:56.999Z</time></trkpt><trkpt lat="44.58630871157322" lon="7.899624611081795"><ele>223.0</ele><time>2026-04-12T12:25:57.999Z</time></trkpt><trkpt lat="44.586360206666406" lon="7.8995340938805"><ele>222.33333333333334</ele><time>2026-04-12T12:25:58.999Z</time></trkpt><trkpt lat="44.58641048807069" lon="7.899441278307887"><ele>221.66666666666669</ele><time>2026-04-12T12:25:59.999Z</time></trkpt><trkpt lat="44.58645937067352" lon="7.89934955073147"><ele>221.0</ele><time>2026-04-12T12:26:00.999Z</time></trkpt><trkpt lat="44.586510861858855" lon="7.899254163500194"><ele>221.00000000000003</ele><time>2026-04-12T12:26:01.999Z</time></trkpt><trkpt lat="44.58655921079719" lon="7.899169172514894"><ele>221.0</ele><time>2026-04-12T12:26:02.999Z</time></trkpt><trkpt lat="44.58661132004571" lon="7.899073786133755"><ele>221.0</ele><time>2026-04-12T12:26:03.999Z</time></trkpt><trkpt lat="44.5866604652215" lon="7.898988334217163"><ele>221.0</ele><time>2026-04-12T12:26:04.999Z</time></trkpt><trkpt lat="44.586706953161794" lon="7.898900426617389"><ele>221.00000000000003</ele><time>2026-04-12T12:26:05.999Z</time></trkpt><trkpt lat="44.5867522223768" lon="7.898815719021822"><ele>221.0</ele><time>2026-04-12T12:26:06.999Z</time></trkpt><trkpt lat="44.58680019862711" lon="7.898733584529159"><ele>221.00000000000003</ele><time>2026-04-12T12:26:07.999Z</time></trkpt><trkpt lat="44.58684429837757" lon="7.8986484466994655"><ele>221.0</ele><time>2026-04-12T12:26:08.999Z</time></trkpt><trkpt lat="44.586893646809145" lon="7.89856575774485"><ele>221.0</ele><time>2026-04-12T12:26:09.999Z</time></trkpt><trkpt lat="44.58693746860371" lon="7.898481991377924"><ele>221.0</ele><time>2026-04-12T12:26:10.999Z</time></trkpt><trkpt lat="44.58698337494096" lon="7.898399362027306"><ele>221.0</ele><time>2026-04-12T12:26:11.999Z</time></trkpt><trkpt lat="44.58702679668925" lon="7.898320933658048"><ele>221.00000000000003</ele><time>2026-04-12T12:26:12.999Z</time></trkpt><trkpt lat="44.58707250025065" lon="7.898237892375516"><ele>221.0</ele><time>2026-04-12T12:26:13.999Z</time></trkpt><trkpt lat="44.58711546002761" lon="7.898159845546122"><ele>221.00000000000003</ele><time>2026-04-12T12:26:14.999Z</time></trkpt><trkpt lat="44.587165274107335" lon="7.8980803318253"><ele>221.0</ele><time>2026-04-12T12:26:15.999Z</time></trkpt><trkpt lat="44.58720971905865" lon="7.8979996024127574"><ele>221.0</ele><time>2026-04-12T12:26:16.999Z</time></trkpt><trkpt lat="44.58725533766552" lon="7.897921309871282"><ele>221.0</ele><time>2026-04-12T12:26:17.999Z</time></trkpt><trkpt lat="44.587298121428304" lon="7.8978363084579515"><ele>221.0</ele><time>2026-04-12T12:26:18.999Z</time></trkpt><trkpt lat="44.58734533129526" lon="7.897755077856181"><ele>221.00000000000003</ele><time>2026-04-12T12:26:19.999Z</time></trkpt><trkpt lat="44.58739356032949" lon="7.897675907699484"><ele>221.0</ele><time>2026-04-12T12:26:20.999Z</time></trkpt><trkpt lat="44.58743820364132" lon="7.8975952833892755"><ele>220.83333333333334</ele><time>2026-04-12T12:26:21.999Z</time></trkpt><trkpt lat="44.587483028807135" lon="7.897509934905125"><ele>220.66666666666669</ele><time>2026-04-12T12:26:22.999Z</time></trkpt><trkpt lat="44.58753122044136" lon="7.897422767453858"><ele>220.5</ele><time>2026-04-12T12:26:23.999Z</time></trkpt><trkpt lat="44.5875809760246" lon="7.897334994820825"><ele>220.33333333333331</ele><time>2026-04-12T12:26:25Z</time></trkpt><trkpt lat="44.58763197894474" lon="7.897249589815776"><ele>220.16666666666666</ele><time>2026-04-12T12:26:26Z</time></trkpt><trkpt lat="44.58767778777204" lon="7.897161993182934"><ele>220.0</ele><time>2026-04-12T12:26:27Z</time></trkpt><trkpt lat="44.587725102053945" lon="7.897079013487456"><ele>219.99999999999997</ele><time>2026-04-12T12:26:28Z</time></trkpt><trkpt lat="44.587770568933934" lon="7.89700150805345"><ele>220.0</ele><time>2026-04-12T12:26:29Z</time></trkpt><trkpt lat="44.58782001316019" lon="7.896912307161555"><ele>220.0</ele><time>2026-04-12T12:26:30Z</time></trkpt><trkpt lat="44.58786476575123" lon="7.89683267328359"><ele>220.0</ele><time>2026-04-12T12:26:31Z</time></trkpt><trkpt lat="44.587914697960905" lon="7.896749220352374"><ele>220.0</ele><time>2026-04-12T12:26:32Z</time></trkpt><trkpt lat="44.587962419221824" lon="7.896671824561433"><ele>219.99999999999997</ele><time>2026-04-12T12:26:33Z</time></trkpt><trkpt lat="44.588007904054344" lon="7.896592584809236"><ele>220.0</ele><time>2026-04-12T12:26:34Z</time></trkpt><trkpt lat="44.58805730553769" lon="7.896507330788411"><ele>220.16666666666666</ele><time>2026-04-12T12:26:35Z</time></trkpt><trkpt lat="44.588107016237736" lon="7.896417773041419"><ele>220.33333333333331</ele><time>2026-04-12T12:26:36Z</time></trkpt><trkpt lat="44.588156527861415" lon="7.896328584480165"><ele>220.5</ele><time>2026-04-12T12:26:37Z</time></trkpt><trkpt lat="44.58820955408627" lon="7.8962447486739125"><ele>220.66666666666669</ele><time>2026-04-12T12:26:38Z</time></trkpt><trkpt lat="44.58826008248039" lon="7.8961549027756215"><ele>220.83333333333334</ele><time>2026-04-12T12:26:39Z</time></trkpt><trkpt lat="44.588312824643715" lon="7.896067292579068"><ele>221.0</ele><time>2026-04-12T12:26:40Z</time></trkpt><trkpt lat="44.58836788921998" lon="7.895986157734037"><ele>221.00000000000003</ele><time>2026-04-12T12:26:41Z</time></trkpt><trkpt lat="44.5884245857533" lon="7.895906428492284"><ele>221.0</ele><time>2026-04-12T12:26:42Z</time></trkpt><trkpt lat="44.588481943689054" lon="7.895824505603548"><ele>221.0</ele><time>2026-04-12T12:26:43Z</time></trkpt><trkpt lat="44.58853741520517" lon="7.895748849074666"><ele>221.0</ele><time>2026-04-12T12:26:44Z</time></trkpt><trkpt lat="44.58859292996607" lon="7.895677586624312"><ele>221.00000000000003</ele><time>2026-04-12T12:26:45Z</time></trkpt><trkpt lat="44.58865433130944" lon="7.895605436313172"><ele>221.0</ele><time>2026-04-12T12:26:46Z</time></trkpt><trkpt lat="44.588710899239636" lon="7.895538267027587"><ele>220.50000000000003</ele><time>2026-04-12T12:26:47Z</time></trkpt><trkpt lat="44.588772146457174" lon="7.8954693444219215"><ele>220.0</ele><time>2026-04-12T12:26:48Z</time></trkpt><trkpt lat="44.58883665724524" lon="7.89541840652729"><ele>219.5</ele><time>2026-04-12T12:26:49Z</time></trkpt><trkpt lat="44.588897045883215" lon="7.895348157807585"><ele>219.0</ele><time>2026-04-12T12:26:50Z</time></trkpt><trkpt lat="44.58895917461518" lon="7.895282758470035"><ele>218.50000000000003</ele><time>2026-04-12T12:26:51Z</time></trkpt><trkpt lat="44.58902131776589" lon="7.8952185449807315"><ele>218.0</ele><time>2026-04-12T12:26:52Z</time></trkpt><trkpt lat="44.589090751741985" lon="7.8951560762218405"><ele>218.00000000000003</ele><time>2026-04-12T12:26:53Z</time></trkpt><trkpt lat="44.58915488925898" lon="7.895096997393428"><ele>218.0</ele><time>2026-04-12T12:26:54Z</time></trkpt><trkpt lat="44.589224883649486" lon="7.895034347046906"><ele>218.0</ele><time>2026-04-12T12:26:55Z</time></trkpt><trkpt lat="44.589286733667045" lon="7.894981511653889"><ele>218.0</ele><time>2026-04-12T12:26:56Z</time></trkpt><trkpt lat="44.58935685714596" lon="7.8949427013364"><ele>218.00000000000003</ele><time>2026-04-12T12:26:57Z</time></trkpt><trkpt lat="44.58942772177283" lon="7.894893657057995"><ele>218.0</ele><time>2026-04-12T12:26:58Z</time></trkpt><trkpt lat="44.58950357666624" lon="7.894842967220646"><ele>217.85714285714286</ele><time>2026-04-12T12:26:59Z</time></trkpt><trkpt lat="44.58956997496644" lon="7.894796122455417"><ele>217.71428571428572</ele><time>2026-04-12T12:27:00Z</time></trkpt><trkpt lat="44.589636280468476" lon="7.894754481842487"><ele>217.57142857142856</ele><time>2026-04-12T12:27:01Z</time></trkpt><trkpt lat="44.58970585900728" lon="7.894709155265101"><ele>217.42857142857144</ele><time>2026-04-12T12:27:02Z</time></trkpt><trkpt lat="44.58977388659335" lon="7.894676337821277"><ele>217.28571428571428</ele><time>2026-04-12T12:27:03Z</time></trkpt><trkpt lat="44.58984500538054" lon="7.894643014952782"><ele>217.14285714285714</ele><time>2026-04-12T12:27:04Z</time></trkpt><trkpt lat="44.58990999245327" lon="7.894614777303237"><ele>217.0</ele><time>2026-04-12T12:27:05Z</time></trkpt><trkpt lat="44.58997500171569" lon="7.894582439991711"><ele>216.99999999999997</ele><time>2026-04-12T12:27:06Z</time></trkpt><trkpt lat="44.59004693076822" lon="7.894546789426948"><ele>217.0</ele><time>2026-04-12T12:27:07Z</time></trkpt><trkpt lat="44.59011437313483" lon="7.894517149154445"><ele>217.0</ele><time>2026-04-12T12:27:08Z</time></trkpt><trkpt lat="44.59019528401043" lon="7.8944809499547794"><ele>217.0</ele><time>2026-04-12T12:27:09Z</time></trkpt><trkpt lat="44.59026920394136" lon="7.894458610303797"><ele>216.99999999999997</ele><time>2026-04-12T12:27:10Z</time></trkpt><trkpt lat="44.59034172622169" lon="7.89443079641109"><ele>217.0</ele><time>2026-04-12T12:27:11Z</time></trkpt><trkpt lat="44.59041171842868" lon="7.894417327322443"><ele>217.0</ele><time>2026-04-12T12:27:12Z</time></trkpt><trkpt lat="44.59047990490397" lon="7.894400664372151"><ele>217.0</ele><time>2026-04-12T12:27:13Z</time></trkpt><trkpt lat="44.59054959085287" lon="7.894379785535151"><ele>217.0</ele><time>2026-04-12T12:27:14Z</time></trkpt><trkpt lat="44.59061762136264" lon="7.894359149864177"><ele>217.0</ele><time>2026-04-12T12:27:15Z</time></trkpt><trkpt lat="44.590688247366714" lon="7.894344312614266"><ele>217.0</ele><time>2026-04-12T12:27:16Z</time></trkpt><trkpt lat="44.59076266750209" lon="7.894328642260826"><ele>217.0</ele><time>2026-04-12T12:27:17Z</time></trkpt><trkpt lat="44.59083695416063" lon="7.8943110995088634"><ele>217.0</ele><time>2026-04-12T12:27:18Z</time></trkpt><trkpt lat="44.590914279148755" lon="7.894294041079945"><ele>216.99999999999997</ele><time>2026-04-12T12:27:19Z</time></trkpt><trkpt lat="44.590989558100375" lon="7.894277745204408"><ele>217.0</ele><time>2026-04-12T12:27:20Z</time></trkpt><trkpt lat="44.59106313563482" lon="7.894258384040779"><ele>217.0</ele><time>2026-04-12T12:27:21Z</time></trkpt><trkpt lat="44.591138503374715" lon="7.894240092927618"><ele>217.0</ele><time>2026-04-12T12:27:22Z</time></trkpt><trkpt lat="44.59121666707007" lon="7.894220115587497"><ele>216.99999999999997</ele><time>2026-04-12T12:27:23Z</time></trkpt><trkpt lat="44.59129476397909" lon="7.894202690844124"><ele>217.0</ele><time>2026-04-12T12:27:24Z</time></trkpt><trkpt lat="44.59137401302271" lon="7.894186076605861"><ele>216.99999999999997</ele><time>2026-04-12T12:27:25Z</time></trkpt><trkpt lat="44.591452901114536" lon="7.89416799324209"><ele>217.0</ele><time>2026-04-12T12:27:26Z</time></trkpt><trkpt lat="44.59153103517421" lon="7.8941488063668075"><ele>217.0</ele><time>2026-04-12T12:27:27Z</time></trkpt><trkpt lat="44.591606082703905" lon="7.894127895870579"><ele>217.0</ele><time>2026-04-12T12:27:28Z</time></trkpt><trkpt lat="44.591687831765086" lon="7.894110087268742"><ele>216.99999999999997</ele><time>2026-04-12T12:27:29Z</time></trkpt><trkpt lat="44.5917714080546" lon="7.8940864958690575"><ele>217.0</ele><time>2026-04-12T12:27:30Z</time></trkpt><trkpt lat="44.591852572001066" lon="7.894064562189068"><ele>216.99999999999997</ele><time>2026-04-12T12:27:31Z</time></trkpt><trkpt lat="44.591934297287494" lon="7.894046697651066"><ele>217.0</ele><time>2026-04-12T12:27:32Z</time></trkpt><trkpt lat="44.59200855698949" lon="7.894028019506146"><ele>217.0</ele><time>2026-04-12T12:27:33Z</time></trkpt><trkpt lat="44.592086026181505" lon="7.8940101467419295"><ele>217.0</ele><time>2026-04-12T12:27:34Z</time></trkpt><trkpt lat="44.592160899899824" lon="7.8939914465611185"><ele>216.99999999999997</ele><time>2026-04-12T12:27:35Z</time></trkpt><trkpt lat="44.5922327856877" lon="7.893975809900612"><ele>217.0</ele><time>2026-04-12T12:27:36Z</time></trkpt><trkpt lat="44.592307080259765" lon="7.893961561033779"><ele>216.85714285714286</ele><time>2026-04-12T12:27:37Z</time></trkpt><trkpt lat="44.59237823543782" lon="7.893950664612626"><ele>216.71428571428572</ele><time>2026-04-12T12:27:38Z</time></trkpt><trkpt lat="44.592451356109834" lon="7.893941062454169"><ele>216.57142857142856</ele><time>2026-04-12T12:27:39Z</time></trkpt><trkpt lat="44.59252021910745" lon="7.89393024076039"><ele>216.42857142857144</ele><time>2026-04-12T12:27:40Z</time></trkpt><trkpt lat="44.592593496041246" lon="7.893919385164861"><ele>216.28571428571428</ele><time>2026-04-12T12:27:41Z</time></trkpt><trkpt lat="44.59266568398947" lon="7.893920763779111"><ele>216.14285714285714</ele><time>2026-04-12T12:27:42Z</time></trkpt><trkpt lat="44.59274109950268" lon="7.893924213772685"><ele>216.0</ele><time>2026-04-12T12:27:43Z</time></trkpt><trkpt lat="44.59281814023404" lon="7.893935228089178"><ele>216.14285714285714</ele><time>2026-04-12T12:27:44Z</time></trkpt><trkpt lat="44.59289528786759" lon="7.893948960862302"><ele>216.28571428571428</ele><time>2026-04-12T12:27:45Z</time></trkpt><trkpt lat="44.592966159803375" lon="7.89396623288414"><ele>216.42857142857144</ele><time>2026-04-12T12:27:46Z</time></trkpt><trkpt lat="44.59303346956094" lon="7.893982756044412"><ele>216.57142857142856</ele><time>2026-04-12T12:27:47Z</time></trkpt><trkpt lat="44.59310258453696" lon="7.894006092881058"><ele>216.71428571428572</ele><time>2026-04-12T12:27:48Z</time></trkpt><trkpt lat="44.593178072957684" lon="7.894019603619851"><ele>216.85714285714286</ele><time>2026-04-12T12:27:49Z</time></trkpt><trkpt lat="44.59324291198194" lon="7.894040976003755"><ele>217.0</ele><time>2026-04-12T12:27:50Z</time></trkpt><trkpt lat="44.593313683530035" lon="7.894062424605522"><ele>217.0</ele><time>2026-04-12T12:27:51Z</time></trkpt><trkpt lat="44.59338167482592" lon="7.89409183611476"><ele>217.0</ele><time>2026-04-12T12:27:52Z</time></trkpt><trkpt lat="44.593447121724985" lon="7.894112863727006"><ele>217.0</ele><time>2026-04-12T12:27:53Z</time></trkpt><trkpt lat="44.593511058109264" lon="7.894112034693381"><ele>217.0</ele><time>2026-04-12T12:27:54Z</time></trkpt><trkpt lat="44.59358257801996" lon="7.894127135109418"><ele>217.0</ele><time>2026-04-12T12:27:55Z</time></trkpt><trkpt lat="44.59364576477573" lon="7.894158277398913"><ele>217.0</ele><time>2026-04-12T12:27:56Z</time></trkpt><trkpt lat="44.593715369800115" lon="7.894156073962312"><ele>217.0</ele><time>2026-04-12T12:27:57Z</time></trkpt><trkpt lat="44.59378166007802" lon="7.894151703590865"><ele>216.71428571428572</ele><time>2026-04-12T12:27:58Z</time></trkpt><trkpt lat="44.59385039862101" lon="7.8941420779863485"><ele>216.42857142857144</ele><time>2026-04-12T12:27:59Z</time></trkpt><trkpt lat="44.59392227312645" lon="7.894123787056632"><ele>216.14285714285714</ele><time>2026-04-12T12:28:00Z</time></trkpt><trkpt lat="44.59399256765761" lon="7.89410334475129"><ele>215.85714285714286</ele><time>2026-04-12T12:28:01Z</time></trkpt><trkpt lat="44.59405905876375" lon="7.894078132173026"><ele>215.57142857142858</ele><time>2026-04-12T12:28:02Z</time></trkpt><trkpt lat="44.59412445442405" lon="7.894047706398852"><ele>215.28571428571428</ele><time>2026-04-12T12:28:03Z</time></trkpt><trkpt lat="44.59419070923333" lon="7.894014112162236"><ele>215.0</ele><time>2026-04-12T12:28:04Z</time></trkpt><trkpt lat="44.594254912263196" lon="7.893978894967418"><ele>215.00000000000003</ele><time>2026-04-12T12:28:05Z</time></trkpt><trkpt lat="44.594319784836486" lon="7.893944594047951"><ele>215.0</ele><time>2026-04-12T12:28:06Z</time></trkpt><trkpt lat="44.594387322415294" lon="7.8939138364131205"><ele>215.0</ele><time>2026-04-12T12:28:07Z</time></trkpt><trkpt lat="44.59445161435181" lon="7.893878780282424"><ele>215.0</ele><time>2026-04-12T12:28:08Z</time></trkpt><trkpt lat="44.59451776830708" lon="7.89384295262145"><ele>215.00000000000003</ele><time>2026-04-12T12:28:09Z</time></trkpt><trkpt lat="44.594580521383065" lon="7.893810943652312"><ele>215.0</ele><time>2026-04-12T12:28:10Z</time></trkpt><trkpt lat="44.59469650404912" lon="7.89374910249426"><ele>216.0</ele><time>2026-04-12T12:28:12Z</time></trkpt><trkpt lat="44.59480524483305" lon="7.8936906165849035"><ele>217.0</ele><time>2026-04-12T12:28:14Z</time></trkpt><trkpt lat="44.59490992282922" lon="7.893628589743581"><ele>218.0</ele><time>2026-04-12T12:28:16Z</time></trkpt><trkpt lat="44.59500482842605" lon="7.89357651698548"><ele>219.0</ele><time>2026-04-12T12:28:18Z</time></trkpt><trkpt lat="44.59509089486803" lon="7.893540882080357"><ele>220.0</ele><time>2026-04-12T12:28:20Z</time></trkpt><trkpt lat="44.59518185925747" lon="7.893503700874029"><ele>219.99999999999997</ele><time>2026-04-12T12:28:22Z</time></trkpt><trkpt lat="44.595263520686686" lon="7.893461080982241"><ele>220.0</ele><time>2026-04-12T12:28:24Z</time></trkpt><trkpt lat="44.59534815954198" lon="7.893433410734686"><ele>220.0</ele><time>2026-04-12T12:28:26Z</time></trkpt><trkpt lat="44.595435137379525" lon="7.893413206318922"><ele>220.0</ele><time>2026-04-12T12:28:28Z</time></trkpt><trkpt lat="44.59552416062548" lon="7.893405485819053"><ele>219.99999999999997</ele><time>2026-04-12T12:28:30Z</time></trkpt><trkpt lat="44.595600554831414" lon="7.893388849381107"><ele>220.0</ele><time>2026-04-12T12:28:32Z</time></trkpt><trkpt lat="44.59570405685029" lon="7.89339263725684"><ele>220.33333333333331</ele><time>2026-04-12T12:28:34Z</time></trkpt><trkpt lat="44.59579790270332" lon="7.893395570276752"><ele>220.66666666666666</ele><time>2026-04-12T12:28:36Z</time></trkpt><trkpt lat="44.595880683996874" lon="7.893395984769626"><ele>221.0</ele><time>2026-04-12T12:28:38Z</time></trkpt><trkpt lat="44.595973137524325" lon="7.893396763957352"><ele>221.33333333333331</ele><time>2026-04-12T12:28:40Z</time></trkpt><trkpt lat="44.59604909495014" lon="7.893387242232864"><ele>221.66666666666666</ele><time>2026-04-12T12:28:42Z</time></trkpt><trkpt lat="44.59614287453296" lon="7.89335863857712"><ele>222.0</ele><time>2026-04-12T12:28:44Z</time></trkpt><trkpt lat="44.59624002534871" lon="7.893341341620128"><ele>222.57142857142856</ele><time>2026-04-12T12:28:46Z</time></trkpt><trkpt lat="44.59631661648414" lon="7.893308217598048"><ele>223.14285714285717</ele><time>2026-04-12T12:28:48Z</time></trkpt><trkpt lat="44.59638511832593" lon="7.893270816031589"><ele>223.71428571428572</ele><time>2026-04-12T12:28:50Z</time></trkpt><trkpt lat="44.59646917630518" lon="7.89323244616359"><ele>224.28571428571428</ele><time>2026-04-12T12:28:53Z</time></trkpt><trkpt lat="44.59652643580726" lon="7.893169438971765"><ele>224.85714285714283</ele><time>2026-04-12T12:28:55Z</time></trkpt><trkpt lat="44.59658636780049" lon="7.893129398242726"><ele>225.42857142857144</ele><time>2026-04-12T12:28:57Z</time></trkpt><trkpt lat="44.596642097108784" lon="7.8930790333380605"><ele>226.0</ele><time>2026-04-12T12:28:59Z</time></trkpt><trkpt lat="44.59672292472895" lon="7.892989413348419"><ele>225.99999999999997</ele><time>2026-04-12T12:29:02Z</time></trkpt><trkpt lat="44.5967733733075" lon="7.892881533952948"><ele>226.0</ele><time>2026-04-12T12:29:05Z</time></trkpt><trkpt lat="44.59680713703521" lon="7.892800146128018"><ele>226.0</ele><time>2026-04-12T12:29:07Z</time></trkpt><trkpt lat="44.59684815284267" lon="7.892710727710716"><ele>226.0</ele><time>2026-04-12T12:29:09Z</time></trkpt><trkpt lat="44.59688970249707" lon="7.892610139409728"><ele>225.99999999999997</ele><time>2026-04-12T12:29:11Z</time></trkpt><trkpt lat="44.59694036488772" lon="7.892506097433696"><ele>226.0</ele><time>2026-04-12T12:29:13Z</time></trkpt><trkpt lat="44.59698694541729" lon="7.892381224928959"><ele>226.0</ele><time>2026-04-12T12:29:15Z</time></trkpt><trkpt lat="44.597047577187894" lon="7.892264168080381"><ele>226.00000000000003</ele><time>2026-04-12T12:29:17Z</time></trkpt><trkpt lat="44.59710987564582" lon="7.8921594240692166"><ele>226.00000000000003</ele><time>2026-04-12T12:29:19Z</time></trkpt><trkpt lat="44.597177976372244" lon="7.892070720220516"><ele>226.0</ele><time>2026-04-12T12:29:21Z</time></trkpt><trkpt lat="44.5972685716706" lon="7.892013524448626"><ele>226.0</ele><time>2026-04-12T12:29:23Z</time></trkpt><trkpt lat="44.59736948769587" lon="7.891981399709696"><ele>226.0</ele><time>2026-04-12T12:29:25Z</time></trkpt><trkpt lat="44.59746541828415" lon="7.89194778393462"><ele>226.00000000000003</ele><time>2026-04-12T12:29:27Z</time></trkpt><trkpt lat="44.597562744329466" lon="7.891940225676466"><ele>226.00000000000003</ele><time>2026-04-12T12:29:29Z</time></trkpt><trkpt lat="44.59766213155168" lon="7.891962785611129"><ele>226.0</ele><time>2026-04-12T12:29:31Z</time></trkpt><trkpt lat="44.59775432520298" lon="7.892002393082994"><ele>226.0</ele><time>2026-04-12T12:29:33Z</time></trkpt><trkpt lat="44.59784841811967" lon="7.89204601783638"><ele>226.20000000000002</ele><time>2026-04-12T12:29:35Z</time></trkpt><trkpt lat="44.597948036845295" lon="7.892093761398557"><ele>226.40000000000003</ele><time>2026-04-12T12:29:37Z</time></trkpt><trkpt lat="44.598045968718836" lon="7.8921417368268765"><ele>226.6</ele><time>2026-04-12T12:29:39Z</time></trkpt><trkpt lat="44.59815730117096" lon="7.892185536099261"><ele>226.8</ele><time>2026-04-12T12:29:41Z</time></trkpt><trkpt lat="44.59827415289178" lon="7.892225375387108"><ele>227.0</ele><time>2026-04-12T12:29:43Z</time></trkpt><trkpt lat="44.598397990138686" lon="7.892243599660326"><ele>227.0</ele><time>2026-04-12T12:29:45Z</time></trkpt><trkpt lat="44.59846686947259" lon="7.892250890491876"><ele>227.0</ele><time>2026-04-12T12:29:46Z</time></trkpt><trkpt lat="44.5985365036096" lon="7.892254925096221"><ele>227.0</ele><time>2026-04-12T12:29:47Z</time></trkpt><trkpt lat="44.59865503460501" lon="7.892252538860691"><ele>227.0</ele><time>2026-04-12T12:29:49Z</time></trkpt><trkpt lat="44.59877235180645" lon="7.8922357557147365"><ele>227.0</ele><time>2026-04-12T12:29:51Z</time></trkpt><trkpt lat="44.5988786664222" lon="7.892206022601687"><ele>227.6</ele><time>2026-04-12T12:29:53Z</time></trkpt><trkpt lat="44.59898187838952" lon="7.892163717752425"><ele>228.2</ele><time>2026-04-12T12:29:55Z</time></trkpt><trkpt lat="44.59908468983939" lon="7.892127643827839"><ele>228.8</ele><time>2026-04-12T12:29:57Z</time></trkpt><trkpt lat="44.59918402848625" lon="7.892081841356534"><ele>229.4</ele><time>2026-04-12T12:29:59Z</time></trkpt><trkpt lat="44.59928907659633" lon="7.892042288790158"><ele>230.0</ele><time>2026-04-12T12:30:01Z</time></trkpt><trkpt lat="44.599390133204004" lon="7.892000471364725"><ele>230.0</ele><time>2026-04-12T12:30:03Z</time></trkpt><trkpt lat="44.599491854160604" lon="7.891958027366249"><ele>230.0</ele><time>2026-04-12T12:30:05Z</time></trkpt><trkpt lat="44.599593865634816" lon="7.891917763818366"><ele>230.0</ele><time>2026-04-12T12:30:07Z</time></trkpt><trkpt lat="44.59969355945109" lon="7.891873296459208"><ele>230.0</ele><time>2026-04-12T12:30:09Z</time></trkpt><trkpt lat="44.59979771998643" lon="7.891826556280026"><ele>230.0</ele><time>2026-04-12T12:30:11Z</time></trkpt><trkpt lat="44.59990528539681" lon="7.89177982745051"><ele>230.0</ele><time>2026-04-12T12:30:13Z</time></trkpt><trkpt lat="44.60001588871348" lon="7.89173684533835"><ele>230.0</ele><time>2026-04-12T12:30:15Z</time></trkpt><trkpt lat="44.60012903906943" lon="7.891686530495796"><ele>230.0</ele><time>2026-04-12T12:30:17Z</time></trkpt><trkpt lat="44.60023698948894" lon="7.891632134702013"><ele>230.0</ele><time>2026-04-12T12:30:19Z</time></trkpt><trkpt lat="44.60035376110734" lon="7.891590152634269"><ele>230.0</ele><time>2026-04-12T12:30:21Z</time></trkpt><trkpt lat="44.60047993204519" lon="7.891543011114435"><ele>230.0</ele><time>2026-04-12T12:30:23Z</time></trkpt><trkpt lat="44.600541089986166" lon="7.89151910155171"><ele>230.0</ele><time>2026-04-12T12:30:24Z</time></trkpt><trkpt lat="44.60060455854873" lon="7.891495120952331"><ele>230.0</ele><time>2026-04-12T12:30:25Z</time></trkpt><trkpt lat="44.600719739129126" lon="7.891445016736415"><ele>230.0</ele><time>2026-04-12T12:30:27Z</time></trkpt><trkpt lat="44.600840488038244" lon="7.891390145500645"><ele>229.99999999999997</ele><time>2026-04-12T12:30:29Z</time></trkpt><trkpt lat="44.600901377510326" lon="7.891366940835592"><ele>230.0</ele><time>2026-04-12T12:30:30Z</time></trkpt><trkpt lat="44.60102037204092" lon="7.891316072148791"><ele>229.99999999999997</ele><time>2026-04-12T12:30:32Z</time></trkpt><trkpt lat="44.60108143001556" lon="7.891285948906658"><ele>229.99999999999997</ele><time>2026-04-12T12:30:33Z</time></trkpt><trkpt lat="44.601142005719396" lon="7.89125905347506"><ele>230.0</ele><time>2026-04-12T12:30:34Z</time></trkpt><trkpt lat="44.60120412411399" lon="7.89123620478062"><ele>229.99999999999997</ele><time>2026-04-12T12:30:35Z</time></trkpt><trkpt lat="44.60126890409942" lon="7.891208953532313"><ele>229.99999999999997</ele><time>2026-04-12T12:30:36Z</time></trkpt><trkpt lat="44.601334319607204" lon="7.891179195463736"><ele>230.50000000000003</ele><time>2026-04-12T12:30:37Z</time></trkpt><trkpt lat="44.601393158650176" lon="7.891139979266617"><ele>231.0</ele><time>2026-04-12T12:30:38Z</time></trkpt><trkpt lat="44.60145330338082" lon="7.891101756743103"><ele>231.5</ele><time>2026-04-12T12:30:39Z</time></trkpt><trkpt lat="44.60156182513962" lon="7.891023468409741"><ele>232.0</ele><time>2026-04-12T12:30:41Z</time></trkpt><trkpt lat="44.60167370302696" lon="7.890950279172087"><ele>232.50000000000003</ele><time>2026-04-12T12:30:43Z</time></trkpt><trkpt lat="44.60173052678817" lon="7.890903723624378"><ele>233.0</ele><time>2026-04-12T12:30:44Z</time></trkpt><trkpt lat="44.60178580241258" lon="7.890854561257876"><ele>232.8</ele><time>2026-04-12T12:30:45Z</time></trkpt><trkpt lat="44.60184893271185" lon="7.89080462982559"><ele>232.60000000000002</ele><time>2026-04-12T12:30:46Z</time></trkpt><trkpt lat="44.601906636237366" lon="7.890755663717945"><ele>232.39999999999998</ele><time>2026-04-12T12:30:47Z</time></trkpt><trkpt lat="44.602012520404564" lon="7.890664770634669"><ele>232.2</ele><time>2026-04-12T12:30:49Z</time></trkpt><trkpt lat="44.60206749313212" lon="7.89061587484282"><ele>232.0</ele><time>2026-04-12T12:30:50Z</time></trkpt><trkpt lat="44.60217230034101" lon="7.8905156914634125"><ele>232.0</ele><time>2026-04-12T12:30:52Z</time></trkpt><trkpt lat="44.60227552136179" lon="7.890422617386622"><ele>232.0</ele><time>2026-04-12T12:30:54Z</time></trkpt><trkpt lat="44.60237878275944" lon="7.890324081196775"><ele>232.0</ele><time>2026-04-12T12:30:56Z</time></trkpt><trkpt lat="44.602434092005275" lon="7.8902735226857645"><ele>232.0</ele><time>2026-04-12T12:30:57Z</time></trkpt><trkpt lat="44.602535885523366" lon="7.89017943026623"><ele>232.0</ele><time>2026-04-12T12:30:59Z</time></trkpt><trkpt lat="44.60263619365867" lon="7.890082163750192"><ele>232.16666666666666</ele><time>2026-04-12T12:31:01Z</time></trkpt><trkpt lat="44.602689196075914" lon="7.890033116191899"><ele>232.33333333333331</ele><time>2026-04-12T12:31:02Z</time></trkpt><trkpt lat="44.60274468848122" lon="7.889983591720725"><ele>232.5</ele><time>2026-04-12T12:31:03Z</time></trkpt><trkpt lat="44.602852094183255" lon="7.889893558561434"><ele>232.66666666666669</ele><time>2026-04-12T12:31:05Z</time></trkpt><trkpt lat="44.602903647759305" lon="7.889841925158011"><ele>232.83333333333334</ele><time>2026-04-12T12:31:06Z</time></trkpt><trkpt lat="44.602960333629845" lon="7.8897947087913165"><ele>233.0</ele><time>2026-04-12T12:31:07Z</time></trkpt><trkpt lat="44.603065020336444" lon="7.889697995105584"><ele>233.0</ele><time>2026-04-12T12:31:09Z</time></trkpt><trkpt lat="44.60311920297823" lon="7.889650449371944"><ele>233.0</ele><time>2026-04-12T12:31:10Z</time></trkpt><trkpt lat="44.60322759346968" lon="7.889558895664486"><ele>233.0</ele><time>2026-04-12T12:31:12Z</time></trkpt><trkpt lat="44.60332700004982" lon="7.889460461626688"><ele>233.0</ele><time>2026-04-12T12:31:14Z</time></trkpt><trkpt lat="44.60342850458809" lon="7.8893529129313675"><ele>233.0</ele><time>2026-04-12T12:31:16Z</time></trkpt><trkpt lat="44.60348384402364" lon="7.889301987736171"><ele>233.16666666666669</ele><time>2026-04-12T12:31:17Z</time></trkpt><trkpt lat="44.603581852128364" lon="7.8892070914001335"><ele>233.33333333333334</ele><time>2026-04-12T12:31:19Z</time></trkpt><trkpt lat="44.6036388502316" lon="7.889156802368812"><ele>233.5</ele><time>2026-04-12T12:31:20Z</time></trkpt><trkpt lat="44.603692895818824" lon="7.889108774513772"><ele>233.66666666666669</ele><time>2026-04-12T12:31:21Z</time></trkpt><trkpt lat="44.60374973428337" lon="7.889060589591838"><ele>233.83333333333334</ele><time>2026-04-12T12:31:22Z</time></trkpt><trkpt lat="44.603857832675054" lon="7.888965423891824"><ele>234.0</ele><time>2026-04-12T12:31:24Z</time></trkpt><trkpt lat="44.60391367829525" lon="7.888909949252094"><ele>234.0</ele><time>2026-04-12T12:31:25Z</time></trkpt><trkpt lat="44.60397181005545" lon="7.88885473731068"><ele>234.00000000000003</ele><time>2026-04-12T12:31:26Z</time></trkpt><trkpt lat="44.60403118567986" lon="7.888806610824082"><ele>234.0</ele><time>2026-04-12T12:31:27Z</time></trkpt><trkpt lat="44.604089516724116" lon="7.888753765910872"><ele>234.0</ele><time>2026-04-12T12:31:28Z</time></trkpt><trkpt lat="44.604147609484436" lon="7.888701970889592"><ele>234.00000000000003</ele><time>2026-04-12T12:31:29Z</time></trkpt><trkpt lat="44.60420316920366" lon="7.888654555262473"><ele>234.0</ele><time>2026-04-12T12:31:30Z</time></trkpt><trkpt lat="44.604260622986104" lon="7.888603845349706"><ele>234.0</ele><time>2026-04-12T12:31:31Z</time></trkpt><trkpt lat="44.60431769096836" lon="7.888549189711346"><ele>234.0</ele><time>2026-04-12T12:31:32Z</time></trkpt><trkpt lat="44.604374226403735" lon="7.888499503922975"><ele>234.00000000000003</ele><time>2026-04-12T12:31:33Z</time></trkpt><trkpt lat="44.60443256189207" lon="7.888439607778923"><ele>234.0</ele><time>2026-04-12T12:31:34Z</time></trkpt><trkpt lat="44.60448741295503" lon="7.888387778020904"><ele>234.0</ele><time>2026-04-12T12:31:35Z</time></trkpt><trkpt lat="44.60454382536099" lon="7.888335192497671"><ele>234.00000000000003</ele><time>2026-04-12T12:31:36Z</time></trkpt><trkpt lat="44.604599748347866" lon="7.888286773457739"><ele>234.0</ele><time>2026-04-12T12:31:37Z</time></trkpt><trkpt lat="44.6046565838978" lon="7.8882314744715565"><ele>234.0</ele><time>2026-04-12T12:31:38Z</time></trkpt><trkpt lat="44.604715470831465" lon="7.888175279776289"><ele>233.57142857142858</ele><time>2026-04-12T12:31:39Z</time></trkpt><trkpt lat="44.60477226947196" lon="7.888125622393986"><ele>233.14285714285717</ele><time>2026-04-12T12:31:40Z</time></trkpt><trkpt lat="44.60483488495936" lon="7.888072012237966"><ele>232.71428571428572</ele><time>2026-04-12T12:31:41Z</time></trkpt><trkpt lat="44.604895068706" lon="7.888017735986207"><ele>232.28571428571428</ele><time>2026-04-12T12:31:42Z</time></trkpt><trkpt lat="44.604957854438275" lon="7.887968163415804"><ele>231.85714285714286</ele><time>2026-04-12T12:31:43Z</time></trkpt><trkpt lat="44.6050217112127" lon="7.88791506186406"><ele>231.42857142857144</ele><time>2026-04-12T12:31:44Z</time></trkpt><trkpt lat="44.605089547270765" lon="7.88785565814479"><ele>231.0</ele><time>2026-04-12T12:31:45Z</time></trkpt><trkpt lat="44.60515233614961" lon="7.887793770607881"><ele>231.0</ele><time>2026-04-12T12:31:46Z</time></trkpt><trkpt lat="44.605217107693385" lon="7.887732823795297"><ele>231.0</ele><time>2026-04-12T12:31:47Z</time></trkpt><trkpt lat="44.60528234313948" lon="7.887672412304117"><ele>231.0</ele><time>2026-04-12T12:31:48Z</time></trkpt><trkpt lat="44.60534555458629" lon="7.887613663038467"><ele>231.0</ele><time>2026-04-12T12:31:49Z</time></trkpt><trkpt lat="44.60541589399849" lon="7.887552092165415"><ele>231.0</ele><time>2026-04-12T12:31:50Z</time></trkpt><trkpt lat="44.60548562543168" lon="7.8874864706561025"><ele>231.0</ele><time>2026-04-12T12:31:51Z</time></trkpt><trkpt lat="44.605558345338295" lon="7.887420686094123"><ele>230.4</ele><time>2026-04-12T12:31:52Z</time></trkpt><trkpt lat="44.60563325205332" lon="7.887355823454447"><ele>229.8</ele><time>2026-04-12T12:31:53Z</time></trkpt><trkpt lat="44.605706819531974" lon="7.887286781469326"><ele>229.20000000000002</ele><time>2026-04-12T12:31:54Z</time></trkpt><trkpt lat="44.60578159378276" lon="7.8872202385078864"><ele>228.60000000000002</ele><time>2026-04-12T12:31:55Z</time></trkpt><trkpt lat="44.60586290657777" lon="7.88715256990049"><ele>228.0</ele><time>2026-04-12T12:31:56Z</time></trkpt><trkpt lat="44.60594626636998" lon="7.887087725530144"><ele>228.0</ele><time>2026-04-12T12:31:57Z</time></trkpt><trkpt lat="44.60603339481876" lon="7.887026218359945"><ele>228.0</ele><time>2026-04-12T12:31:58Z</time></trkpt><trkpt lat="44.60612043895605" lon="7.88696291024976"><ele>228.0</ele><time>2026-04-12T12:31:59Z</time></trkpt><trkpt lat="44.60620590221391" lon="7.8869074451316505"><ele>228.0</ele><time>2026-04-12T12:32:00Z</time></trkpt><trkpt lat="44.60629325570366" lon="7.886846399352631"><ele>228.0</ele><time>2026-04-12T12:32:01Z</time></trkpt><trkpt lat="44.60638170501039" lon="7.886781976867304"><ele>227.2</ele><time>2026-04-12T12:32:02Z</time></trkpt><trkpt lat="44.606472955019285" lon="7.88672225527963"><ele>226.4</ele><time>2026-04-12T12:32:03Z</time></trkpt><trkpt lat="44.6065651046724" lon="7.886667684217122"><ele>225.59999999999997</ele><time>2026-04-12T12:32:04Z</time></trkpt><trkpt lat="44.60665424917968" lon="7.886613048951826"><ele>224.79999999999998</ele><time>2026-04-12T12:32:05Z</time></trkpt><trkpt lat="44.60674657399126" lon="7.886561324683448"><ele>224.0</ele><time>2026-04-12T12:32:06Z</time></trkpt><trkpt lat="44.60684159069068" lon="7.886512056649355"><ele>224.0</ele><time>2026-04-12T12:32:07Z</time></trkpt><trkpt lat="44.60693776295252" lon="7.886457625860149"><ele>223.99999999999997</ele><time>2026-04-12T12:32:08Z</time></trkpt><trkpt lat="44.607034790737984" lon="7.8864041146467825"><ele>223.99999999999997</ele><time>2026-04-12T12:32:09Z</time></trkpt><trkpt lat="44.60713167036801" lon="7.886350692561523"><ele>224.0</ele><time>2026-04-12T12:32:10Z</time></trkpt><trkpt lat="44.60722975595971" lon="7.886299817555829"><ele>224.0</ele><time>2026-04-12T12:32:11Z</time></trkpt><trkpt lat="44.607325712588214" lon="7.88624524115839"><ele>224.0</ele><time>2026-04-12T12:32:12Z</time></trkpt><trkpt lat="44.607426188400105" lon="7.886193422537885"><ele>223.99999999999997</ele><time>2026-04-12T12:32:13Z</time></trkpt><trkpt lat="44.607527725931085" lon="7.886138033774678"><ele>223.99999999999997</ele><time>2026-04-12T12:32:14Z</time></trkpt><trkpt lat="44.607627094921874" lon="7.886084314395551"><ele>224.0</ele><time>2026-04-12T12:32:15Z</time></trkpt><trkpt lat="44.60772798680069" lon="7.886027650449885"><ele>224.0</ele><time>2026-04-12T12:32:16Z</time></trkpt><trkpt lat="44.60783236462575" lon="7.885975427006301"><ele>223.39999999999998</ele><time>2026-04-12T12:32:17Z</time></trkpt><trkpt lat="44.60793598530918" lon="7.8859218365686"><ele>222.79999999999998</ele><time>2026-04-12T12:32:18Z</time></trkpt><trkpt lat="44.608042568021176" lon="7.885866030803533"><ele>222.20000000000002</ele><time>2026-04-12T12:32:19Z</time></trkpt><trkpt lat="44.60814552719058" lon="7.8858043293661435"><ele>221.60000000000002</ele><time>2026-04-12T12:32:20Z</time></trkpt><trkpt lat="44.60824910903173" lon="7.885748581052347"><ele>221.0</ele><time>2026-04-12T12:32:21Z</time></trkpt><trkpt lat="44.60835215754399" lon="7.885693494017845"><ele>221.0</ele><time>2026-04-12T12:32:22Z</time></trkpt><trkpt lat="44.60845340655713" lon="7.885637194471655"><ele>221.00000000000003</ele><time>2026-04-12T12:32:23Z</time></trkpt><trkpt lat="44.6085572474585" lon="7.8855788583424715"><ele>221.00000000000003</ele><time>2026-04-12T12:32:24Z</time></trkpt><trkpt lat="44.60866076270389" lon="7.885520860151885"><ele>221.0</ele><time>2026-04-12T12:32:25Z</time></trkpt><trkpt lat="44.60876201192404" lon="7.885467584113924"><ele>221.0</ele><time>2026-04-12T12:32:26Z</time></trkpt><trkpt lat="44.60886505802836" lon="7.885411200611809"><ele>220.75</ele><time>2026-04-12T12:32:27Z</time></trkpt><trkpt lat="44.60896940144253" lon="7.8853510390479515"><ele>220.5</ele><time>2026-04-12T12:32:28Z</time></trkpt><trkpt lat="44.60907423214506" lon="7.885297818570324"><ele>220.25</ele><time>2026-04-12T12:32:29Z</time></trkpt><trkpt lat="44.609180177430765" lon="7.885241957332748"><ele>220.0</ele><time>2026-04-12T12:32:30Z</time></trkpt><trkpt lat="44.60928394178926" lon="7.885178428235292"><ele>220.0</ele><time>2026-04-12T12:32:31Z</time></trkpt><trkpt lat="44.60939027077503" lon="7.88511817060015"><ele>220.0</ele><time>2026-04-12T12:32:32Z</time></trkpt><trkpt lat="44.609498919344915" lon="7.885067418431729"><ele>220.0</ele><time>2026-04-12T12:32:33Z</time></trkpt><trkpt lat="44.609610970795906" lon="7.885011813756721"><ele>220.0</ele><time>2026-04-12T12:32:34Z</time></trkpt><trkpt lat="44.60972324140668" lon="7.8849526061940045"><ele>219.0</ele><time>2026-04-12T12:32:35Z</time></trkpt><trkpt lat="44.609829675142315" lon="7.884891976181803"><ele>218.0</ele><time>2026-04-12T12:32:36Z</time></trkpt><trkpt lat="44.60993355926536" lon="7.884833414056359"><ele>217.0</ele><time>2026-04-12T12:32:37Z</time></trkpt><trkpt lat="44.6100374316662" lon="7.884779791812892"><ele>216.0</ele><time>2026-04-12T12:32:38Z</time></trkpt><trkpt lat="44.6101399568575" lon="7.88472699351056"><ele>215.0</ele><time>2026-04-12T12:32:39Z</time></trkpt><trkpt lat="44.6102507265899" lon="7.8846618055988955"><ele>213.5</ele><time>2026-04-12T12:32:40Z</time></trkpt><trkpt lat="44.61035917207686" lon="7.8846091252441965"><ele>212.0</ele><time>2026-04-12T12:32:41Z</time></trkpt><trkpt lat="44.610465813982444" lon="7.8845540808059384"><ele>210.5</ele><time>2026-04-12T12:32:42Z</time></trkpt><trkpt lat="44.6105706722603" lon="7.8844990086369515"><ele>209.0</ele><time>2026-04-12T12:32:43Z</time></trkpt><trkpt lat="44.61067719445288" lon="7.884442892973905"><ele>209.0</ele><time>2026-04-12T12:32:44Z</time></trkpt><trkpt lat="44.61077643126329" lon="7.884383163298158"><ele>209.0</ele><time>2026-04-12T12:32:45Z</time></trkpt><trkpt lat="44.610876391201074" lon="7.884332181935739"><ele>209.0</ele><time>2026-04-12T12:32:46Z</time></trkpt><trkpt lat="44.61097971574418" lon="7.8842806667770615"><ele>209.0</ele><time>2026-04-12T12:32:47Z</time></trkpt><trkpt lat="44.611081769602016" lon="7.884231152444028"><ele>209.0</ele><time>2026-04-12T12:32:48Z</time></trkpt><trkpt lat="44.61117814149838" lon="7.884175218093003"><ele>208.0</ele><time>2026-04-12T12:32:49Z</time></trkpt><trkpt lat="44.61127235216932" lon="7.884123263813627"><ele>207.0</ele><time>2026-04-12T12:32:50Z</time></trkpt><trkpt lat="44.61136849738058" lon="7.8840721792712225"><ele>206.0</ele><time>2026-04-12T12:32:51Z</time></trkpt><trkpt lat="44.611459677186396" lon="7.88401761842073"><ele>205.0</ele><time>2026-04-12T12:32:52Z</time></trkpt><trkpt lat="44.61155499333154" lon="7.883964713892065"><ele>204.0</ele><time>2026-04-12T12:32:53Z</time></trkpt><trkpt lat="44.61164611191208" lon="7.883917585343658"><ele>204.0</ele><time>2026-04-12T12:32:54Z</time></trkpt><trkpt lat="44.611732923335" lon="7.8838677932855195"><ele>204.0</ele><time>2026-04-12T12:32:55Z</time></trkpt><trkpt lat="44.611821368670206" lon="7.883818991459671"><ele>204.0</ele><time>2026-04-12T12:32:56Z</time></trkpt><trkpt lat="44.6119102210274" lon="7.883776863701604"><ele>204.0</ele><time>2026-04-12T12:32:57Z</time></trkpt><trkpt lat="44.61199762922167" lon="7.883731715871958"><ele>204.0</ele><time>2026-04-12T12:32:58Z</time></trkpt><trkpt lat="44.6120804124013" lon="7.883687812577855"><ele>204.16666666666666</ele><time>2026-04-12T12:32:59Z</time></trkpt><trkpt lat="44.61215797475556" lon="7.8836468386771115"><ele>204.33333333333331</ele><time>2026-04-12T12:33:00Z</time></trkpt><trkpt lat="44.612234493941386" lon="7.8836083877772145"><ele>204.5</ele><time>2026-04-12T12:33:01Z</time></trkpt><trkpt lat="44.61230371615241" lon="7.883565133890632"><ele>204.66666666666666</ele><time>2026-04-12T12:33:02Z</time></trkpt><trkpt lat="44.61237756907659" lon="7.883522179861859"><ele>204.83333333333331</ele><time>2026-04-12T12:33:03Z</time></trkpt><trkpt lat="44.6124527915859" lon="7.883484344960148"><ele>205.0</ele><time>2026-04-12T12:33:04Z</time></trkpt><trkpt lat="44.612527103763775" lon="7.88344411959335"><ele>205.0</ele><time>2026-04-12T12:33:05Z</time></trkpt><trkpt lat="44.612596667743304" lon="7.883410430391583"><ele>205.0</ele><time>2026-04-12T12:33:06Z</time></trkpt><trkpt lat="44.61266131386171" lon="7.883374140368129"><ele>205.0</ele><time>2026-04-12T12:33:07Z</time></trkpt><trkpt lat="44.61272828878819" lon="7.883334203288383"><ele>205.0</ele><time>2026-04-12T12:33:08Z</time></trkpt><trkpt lat="44.612792183802824" lon="7.883297832041632"><ele>205.0</ele><time>2026-04-12T12:33:09Z</time></trkpt><trkpt lat="44.61285843896559" lon="7.88326604008372"><ele>205.0</ele><time>2026-04-12T12:33:10Z</time></trkpt><trkpt lat="44.61292299840708" lon="7.883230331798987"><ele>205.0</ele><time>2026-04-12T12:33:11Z</time></trkpt><trkpt lat="44.612988425811494" lon="7.883197291659308"><ele>204.99999999999997</ele><time>2026-04-12T12:33:12Z</time></trkpt><trkpt lat="44.61304892506155" lon="7.883167745526384"><ele>205.0</ele><time>2026-04-12T12:33:13Z</time></trkpt><trkpt lat="44.6131090613408" lon="7.883135142290968"><ele>205.0</ele><time>2026-04-12T12:33:14Z</time></trkpt><trkpt lat="44.6132313105656" lon="7.883062056862524"><ele>205.0</ele><time>2026-04-12T12:33:16Z</time></trkpt><trkpt lat="44.61329366769472" lon="7.8830264652962425"><ele>204.99999999999997</ele><time>2026-04-12T12:33:17Z</time></trkpt><trkpt lat="44.613355123428825" lon="7.882991738165144"><ele>205.0</ele><time>2026-04-12T12:33:18Z</time></trkpt><trkpt lat="44.613415217537884" lon="7.88296196665357"><ele>205.0</ele><time>2026-04-12T12:33:19Z</time></trkpt><trkpt lat="44.61347544035538" lon="7.882930288261959"><ele>205.0</ele><time>2026-04-12T12:33:20Z</time></trkpt><trkpt lat="44.61353509272827" lon="7.882900556326695"><ele>205.0</ele><time>2026-04-12T12:33:21Z</time></trkpt><trkpt lat="44.61359561331425" lon="7.882864303828741"><ele>205.0</ele><time>2026-04-12T12:33:22Z</time></trkpt><trkpt lat="44.61365818060031" lon="7.882825035622814"><ele>205.0</ele><time>2026-04-12T12:33:23Z</time></trkpt><trkpt lat="44.61372079308544" lon="7.882793183701345"><ele>205.0</ele><time>2026-04-12T12:33:24Z</time></trkpt><trkpt lat="44.61378272693937" lon="7.882765921578587"><ele>205.0</ele><time>2026-04-12T12:33:25Z</time></trkpt><trkpt lat="44.61385787519909" lon="7.882732755590797"><ele>204.83333333333331</ele><time>2026-04-12T12:33:26Z</time></trkpt><trkpt lat="44.613919064510696" lon="7.882698545134365"><ele>204.66666666666666</ele><time>2026-04-12T12:33:27Z</time></trkpt><trkpt lat="44.61404446891024" lon="7.882630001989507"><ele>204.5</ele><time>2026-04-12T12:33:29Z</time></trkpt><trkpt lat="44.61410471134429" lon="7.8825934702476"><ele>204.33333333333331</ele><time>2026-04-12T12:33:30Z</time></trkpt><trkpt lat="44.61416838685329" lon="7.882553531868364"><ele>204.16666666666666</ele><time>2026-04-12T12:33:31Z</time></trkpt><trkpt lat="44.614235151067795" lon="7.882517567248354"><ele>204.0</ele><time>2026-04-12T12:33:32Z</time></trkpt><trkpt lat="44.61431205651474" lon="7.8824812576396575"><ele>203.66666666666666</ele><time>2026-04-12T12:33:33Z</time></trkpt><trkpt lat="44.6143860097811" lon="7.882444298660391"><ele>203.33333333333331</ele><time>2026-04-12T12:33:34Z</time></trkpt><trkpt lat="44.6144648610007" lon="7.882396414113245"><ele>203.0</ele><time>2026-04-12T12:33:35Z</time></trkpt><trkpt lat="44.614534460192644" lon="7.882356623078238"><ele>202.66666666666666</ele><time>2026-04-12T12:33:36Z</time></trkpt><trkpt lat="44.61460450898626" lon="7.8823188459085864"><ele>202.33333333333331</ele><time>2026-04-12T12:33:37Z</time></trkpt><trkpt lat="44.61467662423149" lon="7.882278948374978"><ele>202.0</ele><time>2026-04-12T12:33:38Z</time></trkpt><trkpt lat="44.614750682212" lon="7.882242045604968"><ele>201.66666666666666</ele><time>2026-04-12T12:33:39Z</time></trkpt><trkpt lat="44.614819499232674" lon="7.88220002975618"><ele>201.33333333333331</ele><time>2026-04-12T12:33:40Z</time></trkpt><trkpt lat="44.61489308849175" lon="7.882163290267373"><ele>201.0</ele><time>2026-04-12T12:33:41Z</time></trkpt><trkpt lat="44.61496622694877" lon="7.882124086542778"><ele>200.66666666666669</ele><time>2026-04-12T12:33:42Z</time></trkpt><trkpt lat="44.615037342066735" lon="7.882085359491852"><ele>200.33333333333334</ele><time>2026-04-12T12:33:43Z</time></trkpt><trkpt lat="44.61511148214147" lon="7.882043946965697"><ele>200.0</ele><time>2026-04-12T12:33:44Z</time></trkpt><trkpt lat="44.615186780235" lon="7.88200253028626"><ele>200.00000000000003</ele><time>2026-04-12T12:33:45Z</time></trkpt><trkpt lat="44.61526008241138" lon="7.881963013565011"><ele>200.0</ele><time>2026-04-12T12:33:46Z</time></trkpt><trkpt lat="44.61533154968873" lon="7.881925228125178"><ele>200.0</ele><time>2026-04-12T12:33:47Z</time></trkpt><trkpt lat="44.615403736561" lon="7.8818827250443855"><ele>200.0</ele><time>2026-04-12T12:33:48Z</time></trkpt><trkpt lat="44.61547870669275" lon="7.881841747272313"><ele>200.00000000000003</ele><time>2026-04-12T12:33:49Z</time></trkpt><trkpt lat="44.61555057843914" lon="7.88180178785953"><ele>200.0</ele><time>2026-04-12T12:33:50Z</time></trkpt><trkpt lat="44.615625438281114" lon="7.881764521287864"><ele>200.83333333333334</ele><time>2026-04-12T12:33:51Z</time></trkpt><trkpt lat="44.61569916022102" lon="7.881724790548261"><ele>201.66666666666669</ele><time>2026-04-12T12:33:52Z</time></trkpt><trkpt lat="44.615771290065034" lon="7.881691187298928"><ele>202.5</ele><time>2026-04-12T12:33:53Z</time></trkpt><trkpt lat="44.615844376252326" lon="7.881649993593841"><ele>203.33333333333331</ele><time>2026-04-12T12:33:54Z</time></trkpt><trkpt lat="44.615919582442075" lon="7.8816042884887265"><ele>204.16666666666666</ele><time>2026-04-12T12:33:55Z</time></trkpt><trkpt lat="44.6159912867047" lon="7.8815607958975225"><ele>205.0</ele><time>2026-04-12T12:33:56Z</time></trkpt><trkpt lat="44.6160663785843" lon="7.881525971769228"><ele>204.99999999999997</ele><time>2026-04-12T12:33:57Z</time></trkpt><trkpt lat="44.61614512493409" lon="7.881492254433641"><ele>205.0</ele><time>2026-04-12T12:33:58Z</time></trkpt><trkpt lat="44.61621682541765" lon="7.881449373639351"><ele>205.0</ele><time>2026-04-12T12:33:59Z</time></trkpt><trkpt lat="44.616283712602694" lon="7.881404747018566"><ele>205.0</ele><time>2026-04-12T12:34:00Z</time></trkpt><trkpt lat="44.616353258746685" lon="7.881364537290198"><ele>204.99999999999997</ele><time>2026-04-12T12:34:01Z</time></trkpt><trkpt lat="44.61642657550767" lon="7.88132510749852"><ele>205.0</ele><time>2026-04-12T12:34:02Z</time></trkpt><trkpt lat="44.616502177758356" lon="7.881286332753551"><ele>205.16666666666666</ele><time>2026-04-12T12:34:03Z</time></trkpt><trkpt lat="44.61658324632761" lon="7.881252656929094"><ele>205.33333333333331</ele><time>2026-04-12T12:34:04Z</time></trkpt><trkpt lat="44.61666325616144" lon="7.88120902144604"><ele>205.5</ele><time>2026-04-12T12:34:05Z</time></trkpt><trkpt lat="44.616741683219125" lon="7.881167961398878"><ele>205.66666666666669</ele><time>2026-04-12T12:34:06Z</time></trkpt><trkpt lat="44.61682284022667" lon="7.881121397197114"><ele>205.83333333333334</ele><time>2026-04-12T12:34:07Z</time></trkpt><trkpt lat="44.61690649315008" lon="7.881076052491389"><ele>206.0</ele><time>2026-04-12T12:34:08Z</time></trkpt><trkpt lat="44.6169895145463" lon="7.88102950125403"><ele>205.60000000000002</ele><time>2026-04-12T12:34:09Z</time></trkpt><trkpt lat="44.617072057008784" lon="7.880987564240208"><ele>205.2</ele><time>2026-04-12T12:34:10Z</time></trkpt><trkpt lat="44.61715690416639" lon="7.880937532538952"><ele>204.8</ele><time>2026-04-12T12:34:11Z</time></trkpt><trkpt lat="44.61724331192633" lon="7.880891202167136"><ele>204.39999999999998</ele><time>2026-04-12T12:34:12Z</time></trkpt><trkpt lat="44.61732614449051" lon="7.880845160330524"><ele>204.0</ele><time>2026-04-12T12:34:13Z</time></trkpt><trkpt lat="44.61741188567923" lon="7.88079880151309"><ele>204.0</ele><time>2026-04-12T12:34:14Z</time></trkpt><trkpt lat="44.6174971945941" lon="7.880755281995457"><ele>204.0</ele><time>2026-04-12T12:34:15Z</time></trkpt><trkpt lat="44.61758472672354" lon="7.880713205306835"><ele>204.0</ele><time>2026-04-12T12:34:16Z</time></trkpt><trkpt lat="44.61767183393023" lon="7.880666791042044"><ele>204.0</ele><time>2026-04-12T12:34:17Z</time></trkpt><trkpt lat="44.617755207887775" lon="7.88061907433271"><ele>204.0</ele><time>2026-04-12T12:34:18Z</time></trkpt><trkpt lat="44.61784164763357" lon="7.880574677787466"><ele>204.0</ele><time>2026-04-12T12:34:19Z</time></trkpt><trkpt lat="44.617922716411165" lon="7.880531721985617"><ele>204.0</ele><time>2026-04-12T12:34:20Z</time></trkpt><trkpt lat="44.618008076367666" lon="7.880485242369514"><ele>204.0</ele><time>2026-04-12T12:34:21Z</time></trkpt><trkpt lat="44.61809030249254" lon="7.880437425195616"><ele>204.0</ele><time>2026-04-12T12:34:22Z</time></trkpt><trkpt lat="44.61817087848318" lon="7.8803926568074045"><ele>204.0</ele><time>2026-04-12T12:34:23Z</time></trkpt><trkpt lat="44.61825346024874" lon="7.8803552244200805"><ele>204.0</ele><time>2026-04-12T12:34:24Z</time></trkpt><trkpt lat="44.618336751352054" lon="7.880317049413916"><ele>204.0</ele><time>2026-04-12T12:34:25Z</time></trkpt><trkpt lat="44.61841679655255" lon="7.880277546172978"><ele>204.0</ele><time>2026-04-12T12:34:26Z</time></trkpt><trkpt lat="44.6184980432375" lon="7.880238329569138"><ele>204.0</ele><time>2026-04-12T12:34:27Z</time></trkpt><trkpt lat="44.61857723899133" lon="7.8802004656344415"><ele>204.0</ele><time>2026-04-12T12:34:28Z</time></trkpt><trkpt lat="44.61865292358307" lon="7.880162916800231"><ele>204.0</ele><time>2026-04-12T12:34:29Z</time></trkpt><trkpt lat="44.61872793096598" lon="7.880128084703842"><ele>204.0</ele><time>2026-04-12T12:34:30Z</time></trkpt><trkpt lat="44.618802568370036" lon="7.88009970000546"><ele>204.0</ele><time>2026-04-12T12:34:31Z</time></trkpt><trkpt lat="44.618880770982074" lon="7.880074293404315"><ele>204.0</ele><time>2026-04-12T12:34:32Z</time></trkpt><trkpt lat="44.618953371245134" lon="7.8800475135539285"><ele>204.0</ele><time>2026-04-12T12:34:33Z</time></trkpt><trkpt lat="44.619027364164545" lon="7.880026243237287"><ele>204.0</ele><time>2026-04-12T12:34:34Z</time></trkpt><trkpt lat="44.61910411948169" lon="7.880013619892472"><ele>204.0</ele><time>2026-04-12T12:34:35Z</time></trkpt><trkpt lat="44.619174920989124" lon="7.880004302303081"><ele>204.0</ele><time>2026-04-12T12:34:36Z</time></trkpt><trkpt lat="44.61925033940423" lon="7.879995407586259"><ele>204.0</ele><time>2026-04-12T12:34:37Z</time></trkpt><trkpt lat="44.61932779498332" lon="7.879985863486049"><ele>204.0</ele><time>2026-04-12T12:34:38Z</time></trkpt><trkpt lat="44.61940618967256" lon="7.879981356944396"><ele>204.0</ele><time>2026-04-12T12:34:39Z</time></trkpt><trkpt lat="44.61948673677602" lon="7.879981377713643"><ele>204.0</ele><time>2026-04-12T12:34:40Z</time></trkpt><trkpt lat="44.619565766748224" lon="7.879985230377951"><ele>204.0</ele><time>2026-04-12T12:34:41Z</time></trkpt><trkpt lat="44.61964316898998" lon="7.8799860057680595"><ele>204.0</ele><time>2026-04-12T12:34:42Z</time></trkpt><trkpt lat="44.61971920002534" lon="7.8799894154772705"><ele>204.0</ele><time>2026-04-12T12:34:43Z</time></trkpt><trkpt lat="44.6197982530795" lon="7.879997260554656"><ele>204.0</ele><time>2026-04-12T12:34:44Z</time></trkpt><trkpt lat="44.619875148590886" lon="7.8800068643199275"><ele>204.0</ele><time>2026-04-12T12:34:45Z</time></trkpt><trkpt lat="44.61995155862061" lon="7.8800107260710694"><ele>204.0</ele><time>2026-04-12T12:34:46Z</time></trkpt><trkpt lat="44.62002933107285" lon="7.880016057577393"><ele>204.0</ele><time>2026-04-12T12:34:47Z</time></trkpt><trkpt lat="44.620105646413975" lon="7.880024938301891"><ele>204.0</ele><time>2026-04-12T12:34:48Z</time></trkpt><trkpt lat="44.62018460573157" lon="7.8800395062808875"><ele>204.0</ele><time>2026-04-12T12:34:49Z</time></trkpt><trkpt lat="44.62026269504321" lon="7.88005033011925"><ele>204.0</ele><time>2026-04-12T12:34:50Z</time></trkpt><trkpt lat="44.62033864689402" lon="7.880058895181971"><ele>204.0</ele><time>2026-04-12T12:34:51Z</time></trkpt><trkpt lat="44.62041569367461" lon="7.880069211546024"><ele>204.0</ele><time>2026-04-12T12:34:52Z</time></trkpt><trkpt lat="44.62049197095919" lon="7.88008147559933"><ele>204.0</ele><time>2026-04-12T12:34:53Z</time></trkpt><trkpt lat="44.620568730741454" lon="7.880095626751017"><ele>204.0</ele><time>2026-04-12T12:34:54Z</time></trkpt><trkpt lat="44.620642061101364" lon="7.880105096030493"><ele>203.16666666666666</ele><time>2026-04-12T12:34:55Z</time></trkpt><trkpt lat="44.620731293260064" lon="7.880117364850714"><ele>202.33333333333331</ele><time>2026-04-12T12:34:56Z</time></trkpt><trkpt lat="44.6208046977194" lon="7.880132001289445"><ele>201.5</ele><time>2026-04-12T12:34:57Z</time></trkpt><trkpt lat="44.62088620575535" lon="7.880139467808969"><ele>200.66666666666666</ele><time>2026-04-12T12:34:58Z</time></trkpt><trkpt lat="44.62096953737048" lon="7.880149351192763"><ele>199.83333333333331</ele><time>2026-04-12T12:34:59Z</time></trkpt><trkpt lat="44.62104747152733" lon="7.8801597212501475"><ele>199.0</ele><time>2026-04-12T12:35:00Z</time></trkpt><trkpt lat="44.62112760563736" lon="7.880170584332467"><ele>200.16666666666666</ele><time>2026-04-12T12:35:01Z</time></trkpt><trkpt lat="44.62120996290943" lon="7.880183472373766"><ele>201.33333333333331</ele><time>2026-04-12T12:35:02Z</time></trkpt><trkpt lat="44.621290382138106" lon="7.880193558723075"><ele>202.5</ele><time>2026-04-12T12:35:03Z</time></trkpt><trkpt lat="44.62137064723857" lon="7.880205221811695"><ele>203.66666666666669</ele><time>2026-04-12T12:35:04Z</time></trkpt><trkpt lat="44.62144993895089" lon="7.880221278027226"><ele>204.83333333333334</ele><time>2026-04-12T12:35:05Z</time></trkpt><trkpt lat="44.62153416771641" lon="7.88023177833499"><ele>206.0</ele><time>2026-04-12T12:35:06Z</time></trkpt><trkpt lat="44.621615891508235" lon="7.8802434776290315"><ele>206.00000000000003</ele><time>2026-04-12T12:35:07Z</time></trkpt><trkpt lat="44.62170403399793" lon="7.880252672224351"><ele>206.0</ele><time>2026-04-12T12:35:08Z</time></trkpt><trkpt lat="44.62178684583601" lon="7.88026787411187"><ele>206.0</ele><time>2026-04-12T12:35:09Z</time></trkpt><trkpt lat="44.62186870176338" lon="7.880280163953533"><ele>206.0</ele><time>2026-04-12T12:35:10Z</time></trkpt><trkpt lat="44.62195210011349" lon="7.880291315726727"><ele>206.00000000000003</ele><time>2026-04-12T12:35:11Z</time></trkpt><trkpt lat="44.6220325825977" lon="7.880300580547424"><ele>206.0</ele><time>2026-04-12T12:35:12Z</time></trkpt><trkpt lat="44.62210930388546" lon="7.880316455657608"><ele>206.16666666666669</ele><time>2026-04-12T12:35:13Z</time></trkpt><trkpt lat="44.62219045443116" lon="7.880325172148231"><ele>206.33333333333334</ele><time>2026-04-12T12:35:14Z</time></trkpt><trkpt lat="44.62227200753548" lon="7.8803378345813515"><ele>206.5</ele><time>2026-04-12T12:35:15Z</time></trkpt><trkpt lat="44.62235369760599" lon="7.880348006514064"><ele>206.66666666666669</ele><time>2026-04-12T12:35:16Z</time></trkpt><trkpt lat="44.62243419269039" lon="7.880359612176034"><ele>206.83333333333334</ele><time>2026-04-12T12:35:17Z</time></trkpt><trkpt lat="44.62251373789129" lon="7.88037324462452"><ele>207.0</ele><time>2026-04-12T12:35:18Z</time></trkpt><trkpt lat="44.622597133934754" lon="7.880384087710713"><ele>207.0</ele><time>2026-04-12T12:35:19Z</time></trkpt><trkpt lat="44.62267565752104" lon="7.880397156128488"><ele>207.0</ele><time>2026-04-12T12:35:20Z</time></trkpt><trkpt lat="44.62276074065809" lon="7.88040887039947"><ele>207.0</ele><time>2026-04-12T12:35:21Z</time></trkpt><trkpt lat="44.622845031040576" lon="7.880424239400554"><ele>207.0</ele><time>2026-04-12T12:35:22Z</time></trkpt><trkpt lat="44.62292632077627" lon="7.8804376866004455"><ele>207.0</ele><time>2026-04-12T12:35:23Z</time></trkpt><trkpt lat="44.623008681378124" lon="7.88045105087982"><ele>207.0</ele><time>2026-04-12T12:35:24Z</time></trkpt><trkpt lat="44.62309066943504" lon="7.880464771067821"><ele>207.66666666666666</ele><time>2026-04-12T12:35:25Z</time></trkpt><trkpt lat="44.62316966544015" lon="7.880467952834916"><ele>208.33333333333331</ele><time>2026-04-12T12:35:26Z</time></trkpt><trkpt lat="44.62325075121999" lon="7.880474177587847"><ele>209.0</ele><time>2026-04-12T12:35:27Z</time></trkpt><trkpt lat="44.6233336438481" lon="7.880487916517313"><ele>209.66666666666666</ele><time>2026-04-12T12:35:28Z</time></trkpt><trkpt lat="44.623417416200226" lon="7.8804999979805945"><ele>210.33333333333331</ele><time>2026-04-12T12:35:29Z</time></trkpt><trkpt lat="44.62350386603869" lon="7.880520138074605"><ele>211.0</ele><time>2026-04-12T12:35:30Z</time></trkpt><trkpt lat="44.62358874764428" lon="7.880535523600588"><ele>210.66666666666666</ele><time>2026-04-12T12:35:31Z</time></trkpt><trkpt lat="44.62367341509505" lon="7.880552578415939"><ele>210.33333333333331</ele><time>2026-04-12T12:35:32Z</time></trkpt><trkpt lat="44.62375208926718" lon="7.88056593357853"><ele>210.0</ele><time>2026-04-12T12:35:33Z</time></trkpt><trkpt lat="44.623833878162834" lon="7.880576054377139"><ele>209.66666666666669</ele><time>2026-04-12T12:35:34Z</time></trkpt><trkpt lat="44.62392076963958" lon="7.8805852391317295"><ele>209.33333333333334</ele><time>2026-04-12T12:35:35Z</time></trkpt><trkpt lat="44.62400498496545" lon="7.8805927069644754"><ele>209.0</ele><time>2026-04-12T12:35:36Z</time></trkpt><trkpt lat="44.62409419284762" lon="7.880593142441989"><ele>209.00000000000003</ele><time>2026-04-12T12:35:37Z</time></trkpt><trkpt lat="44.62417557220277" lon="7.880601291477064"><ele>209.0</ele><time>2026-04-12T12:35:38Z</time></trkpt><trkpt lat="44.62426091916213" lon="7.880601361786735"><ele>209.0</ele><time>2026-04-12T12:35:39Z</time></trkpt><trkpt lat="44.624346388385824" lon="7.880600751277827"><ele>209.0</ele><time>2026-04-12T12:35:40Z</time></trkpt><trkpt lat="44.6244302916261" lon="7.880590397545491"><ele>209.00000000000003</ele><time>2026-04-12T12:35:41Z</time></trkpt><trkpt lat="44.624512193573906" lon="7.880574848898183"><ele>209.0</ele><time>2026-04-12T12:35:42Z</time></trkpt><trkpt lat="44.62459504588852" lon="7.88055782029455"><ele>208.33333333333334</ele><time>2026-04-12T12:35:43Z</time></trkpt><trkpt lat="44.62467382605657" lon="7.880534583012476"><ele>207.66666666666669</ele><time>2026-04-12T12:35:44Z</time></trkpt><trkpt lat="44.62475810605081" lon="7.880503090418419"><ele>207.0</ele><time>2026-04-12T12:35:45Z</time></trkpt><trkpt lat="44.624835121868735" lon="7.880469709711982"><ele>206.33333333333331</ele><time>2026-04-12T12:35:46Z</time></trkpt><trkpt lat="44.62491726581629" lon="7.880442528190452"><ele>205.66666666666666</ele><time>2026-04-12T12:35:47Z</time></trkpt><trkpt lat="44.624996930908274" lon="7.880403556890029"><ele>205.0</ele><time>2026-04-12T12:35:48Z</time></trkpt><trkpt lat="44.625071552988" lon="7.880360365803917"><ele>204.99999999999997</ele><time>2026-04-12T12:35:49Z</time></trkpt><trkpt lat="44.625148330723015" lon="7.880314643317416"><ele>205.0</ele><time>2026-04-12T12:35:50Z</time></trkpt><trkpt lat="44.625227884151485" lon="7.880264078294516"><ele>205.0</ele><time>2026-04-12T12:35:51Z</time></trkpt><trkpt lat="44.62530072305793" lon="7.880208063475605"><ele>205.0</ele><time>2026-04-12T12:35:52Z</time></trkpt><trkpt lat="44.6253781727532" lon="7.880150792761534"><ele>204.99999999999997</ele><time>2026-04-12T12:35:53Z</time></trkpt><trkpt lat="44.625450455804575" lon="7.880090704026606"><ele>205.0</ele><time>2026-04-12T12:35:54Z</time></trkpt><trkpt lat="44.62552336070896" lon="7.8800220076444765"><ele>204.16666666666666</ele><time>2026-04-12T12:35:55Z</time></trkpt><trkpt lat="44.62560023851665" lon="7.879962436297751"><ele>203.33333333333331</ele><time>2026-04-12T12:35:56Z</time></trkpt><trkpt lat="44.62567802208271" lon="7.879899348264915"><ele>202.5</ele><time>2026-04-12T12:35:57Z</time></trkpt><trkpt lat="44.62575345005985" lon="7.879832891652815"><ele>201.66666666666669</ele><time>2026-04-12T12:35:58Z</time></trkpt><trkpt lat="44.62583261659686" lon="7.8797696913623"><ele>200.83333333333334</ele><time>2026-04-12T12:35:59Z</time></trkpt><trkpt lat="44.625909746793106" lon="7.879711419583743"><ele>200.0</ele><time>2026-04-12T12:36:00Z</time></trkpt><trkpt lat="44.625984563349306" lon="7.879650807313013"><ele>200.00000000000003</ele><time>2026-04-12T12:36:01Z</time></trkpt><trkpt lat="44.626057314911726" lon="7.8795902693327"><ele>200.0</ele><time>2026-04-12T12:36:02Z</time></trkpt><trkpt lat="44.626132458127486" lon="7.879527290092535"><ele>200.0</ele><time>2026-04-12T12:36:03Z</time></trkpt><trkpt lat="44.62620539751297" lon="7.879465947853808"><ele>200.0</ele><time>2026-04-12T12:36:04Z</time></trkpt><trkpt lat="44.62628161710573" lon="7.879408749231542"><ele>200.00000000000003</ele><time>2026-04-12T12:36:05Z</time></trkpt><trkpt lat="44.62635572235002" lon="7.879344442330766"><ele>200.0</ele><time>2026-04-12T12:36:06Z</time></trkpt><trkpt lat="44.6264286894652" lon="7.879291001266761"><ele>199.66666666666669</ele><time>2026-04-12T12:36:07Z</time></trkpt><trkpt lat="44.62650485446097" lon="7.879227344890604"><ele>199.33333333333334</ele><time>2026-04-12T12:36:08Z</time></trkpt><trkpt lat="44.626579676746914" lon="7.879170789762437"><ele>199.0</ele><time>2026-04-12T12:36:09Z</time></trkpt><trkpt lat="44.62665341697631" lon="7.879112647665536"><ele>198.66666666666669</ele><time>2026-04-12T12:36:10Z</time></trkpt><trkpt lat="44.62672263393389" lon="7.87905232123208"><ele>198.33333333333334</ele><time>2026-04-12T12:36:11Z</time></trkpt><trkpt lat="44.62679599093289" lon="7.878990805431474"><ele>198.0</ele><time>2026-04-12T12:36:12Z</time></trkpt><trkpt lat="44.626862554095865" lon="7.878926501479557"><ele>198.0</ele><time>2026-04-12T12:36:13Z</time></trkpt><trkpt lat="44.6269384494058" lon="7.878872132413214"><ele>198.0</ele><time>2026-04-12T12:36:14Z</time></trkpt><trkpt lat="44.62701178734632" lon="7.878813785229806"><ele>198.0</ele><time>2026-04-12T12:36:15Z</time></trkpt><trkpt lat="44.62708631590489" lon="7.8787581919820715"><ele>198.0</ele><time>2026-04-12T12:36:16Z</time></trkpt><trkpt lat="44.627159636138856" lon="7.8786985922774235"><ele>198.0</ele><time>2026-04-12T12:36:17Z</time></trkpt><trkpt lat="44.62723496593818" lon="7.878643009199589"><ele>198.0</ele><time>2026-04-12T12:36:18Z</time></trkpt><trkpt lat="44.62731290940892" lon="7.87858050107131"><ele>199.0</ele><time>2026-04-12T12:36:19Z</time></trkpt><trkpt lat="44.62738382025288" lon="7.878518409785196"><ele>200.0</ele><time>2026-04-12T12:36:20Z</time></trkpt><trkpt lat="44.62745683405312" lon="7.878482311462108"><ele>201.0</ele><time>2026-04-12T12:36:21Z</time></trkpt><trkpt lat="44.62752908635799" lon="7.878415256639606"><ele>202.0</ele><time>2026-04-12T12:36:22Z</time></trkpt><trkpt lat="44.62760035621556" lon="7.878358973829106"><ele>203.0</ele><time>2026-04-12T12:36:23Z</time></trkpt><trkpt lat="44.62767462187048" lon="7.878302073979974"><ele>204.0</ele><time>2026-04-12T12:36:24Z</time></trkpt><trkpt lat="44.627743602411414" lon="7.87824504461147"><ele>204.83333333333334</ele><time>2026-04-12T12:36:25Z</time></trkpt><trkpt lat="44.62781054328145" lon="7.878183792441269"><ele>205.66666666666669</ele><time>2026-04-12T12:36:26Z</time></trkpt><trkpt lat="44.627883206859586" lon="7.878119886555943"><ele>206.5</ele><time>2026-04-12T12:36:27Z</time></trkpt><trkpt lat="44.627951830492094" lon="7.8780667474077815"><ele>207.33333333333334</ele><time>2026-04-12T12:36:28Z</time></trkpt><trkpt lat="44.62802389161717" lon="7.878002470509533"><ele>208.16666666666669</ele><time>2026-04-12T12:36:29Z</time></trkpt><trkpt lat="44.62809676372702" lon="7.877947179930589"><ele>209.0</ele><time>2026-04-12T12:36:30Z</time></trkpt><trkpt lat="44.62816692576909" lon="7.877889671687067"><ele>209.00000000000003</ele><time>2026-04-12T12:36:31Z</time></trkpt><trkpt lat="44.62824212983477" lon="7.877837820252625"><ele>209.0</ele><time>2026-04-12T12:36:32Z</time></trkpt><trkpt lat="44.62831271823237" lon="7.877775687546899"><ele>209.0</ele><time>2026-04-12T12:36:33Z</time></trkpt><trkpt lat="44.628381549928335" lon="7.877719943736008"><ele>209.0</ele><time>2026-04-12T12:36:34Z</time></trkpt><trkpt lat="44.628454207401866" lon="7.87766802038902"><ele>209.00000000000003</ele><time>2026-04-12T12:36:35Z</time></trkpt><trkpt lat="44.62851980843201" lon="7.877612461366859"><ele>209.0</ele><time>2026-04-12T12:36:36Z</time></trkpt><trkpt lat="44.62859356022244" lon="7.877559894148896"><ele>209.33333333333334</ele><time>2026-04-12T12:36:37Z</time></trkpt><trkpt lat="44.62866442219796" lon="7.877504872530067"><ele>209.66666666666669</ele><time>2026-04-12T12:36:38Z</time></trkpt><trkpt lat="44.6287294781552" lon="7.877440706856332"><ele>210.0</ele><time>2026-04-12T12:36:39Z</time></trkpt><trkpt lat="44.62880527761466" lon="7.877397879864275"><ele>210.33333333333331</ele><time>2026-04-12T12:36:40Z</time></trkpt><trkpt lat="44.62887451484314" lon="7.877342317203898"><ele>210.66666666666666</ele><time>2026-04-12T12:36:41Z</time></trkpt><trkpt lat="44.62894299102077" lon="7.877275994219386"><ele>211.0</ele><time>2026-04-12T12:36:42Z</time></trkpt><trkpt lat="44.62900768959091" lon="7.877224791680775"><ele>210.99999999999997</ele><time>2026-04-12T12:36:43Z</time></trkpt><trkpt lat="44.6290708107735" lon="7.877166902966408"><ele>211.0</ele><time>2026-04-12T12:36:44Z</time></trkpt><trkpt lat="44.62913906232367" lon="7.87711617506317"><ele>211.0</ele><time>2026-04-12T12:36:45Z</time></trkpt><trkpt lat="44.62920707886669" lon="7.877060006182529"><ele>211.0</ele><time>2026-04-12T12:36:46Z</time></trkpt><trkpt lat="44.62926934781793" lon="7.876997598485315"><ele>210.99999999999997</ele><time>2026-04-12T12:36:47Z</time></trkpt><trkpt lat="44.62933538903603" lon="7.876957778055036"><ele>211.0</ele><time>2026-04-12T12:36:48Z</time></trkpt><trkpt lat="44.629401426408066" lon="7.876915108320431"><ele>211.0</ele><time>2026-04-12T12:36:49Z</time></trkpt><trkpt lat="44.62946641942956" lon="7.876861922949702"><ele>211.0</ele><time>2026-04-12T12:36:49.999Z</time></trkpt><trkpt lat="44.62952743694767" lon="7.876801185331516"><ele>211.0</ele><time>2026-04-12T12:36:50.999Z</time></trkpt><trkpt lat="44.62959415148966" lon="7.876744894169263"><ele>211.0</ele><time>2026-04-12T12:36:51.999Z</time></trkpt><trkpt lat="44.629656083520146" lon="7.8766898512099255"><ele>211.0</ele><time>2026-04-12T12:36:52.999Z</time></trkpt><trkpt lat="44.62971727176039" lon="7.876643705363407"><ele>211.0</ele><time>2026-04-12T12:36:53.999Z</time></trkpt><trkpt lat="44.62978052710979" lon="7.876592830103725"><ele>211.0</ele><time>2026-04-12T12:36:55.001Z</time></trkpt><trkpt lat="44.629840122032164" lon="7.876542594273807"><ele>211.14285714285714</ele><time>2026-04-12T12:36:56.001Z</time></trkpt><trkpt lat="44.62990169420434" lon="7.876491605953588"><ele>211.28571428571428</ele><time>2026-04-12T12:36:57.001Z</time></trkpt><trkpt lat="44.62996219195895" lon="7.876442058007602"><ele>211.42857142857144</ele><time>2026-04-12T12:36:58.001Z</time></trkpt><trkpt lat="44.63002030846812" lon="7.876394253798726"><ele>211.57142857142856</ele><time>2026-04-12T12:36:59.001Z</time></trkpt><trkpt lat="44.63007962433073" lon="7.876350128408794"><ele>211.7142857142857</ele><time>2026-04-12T12:37:00.001Z</time></trkpt><trkpt lat="44.63014555974553" lon="7.8763204715148305"><ele>211.85714285714286</ele><time>2026-04-12T12:37:01.001Z</time></trkpt><trkpt lat="44.63021031453712" lon="7.876267632335887"><ele>212.0</ele><time>2026-04-12T12:37:02.001Z</time></trkpt><trkpt lat="44.630272753340805" lon="7.876216967210733"><ele>212.0</ele><time>2026-04-12T12:37:03.001Z</time></trkpt><trkpt lat="44.63033281416316" lon="7.876163508318429"><ele>212.0</ele><time>2026-04-12T12:37:04.001Z</time></trkpt><trkpt lat="44.63039465286025" lon="7.8761142048855675"><ele>212.0</ele><time>2026-04-12T12:37:05.001Z</time></trkpt><trkpt lat="44.63045393482179" lon="7.876065636698992"><ele>212.0</ele><time>2026-04-12T12:37:06.001Z</time></trkpt><trkpt lat="44.63051496814172" lon="7.876015829441846"><ele>212.0</ele><time>2026-04-12T12:37:07.001Z</time></trkpt><trkpt lat="44.63057667788114" lon="7.875973170150169"><ele>212.0</ele><time>2026-04-12T12:37:08.001Z</time></trkpt><trkpt lat="44.63063772706461" lon="7.875921132941635"><ele>212.0</ele><time>2026-04-12T12:37:09.001Z</time></trkpt><trkpt lat="44.630700294518036" lon="7.875872623598447"><ele>211.85714285714286</ele><time>2026-04-12T12:37:10Z</time></trkpt><trkpt lat="44.630763192821995" lon="7.875824288896238"><ele>211.7142857142857</ele><time>2026-04-12T12:37:11Z</time></trkpt><trkpt lat="44.63082364940097" lon="7.875774129043097"><ele>211.57142857142856</ele><time>2026-04-12T12:37:12Z</time></trkpt><trkpt lat="44.63088456486341" lon="7.8757187878960995"><ele>211.42857142857144</ele><time>2026-04-12T12:37:13Z</time></trkpt><trkpt lat="44.63094409118848" lon="7.875667290147027"><ele>211.28571428571428</ele><time>2026-04-12T12:37:14Z</time></trkpt><trkpt lat="44.630999315802626" lon="7.8756190675669275"><ele>211.14285714285714</ele><time>2026-04-12T12:37:15Z</time></trkpt><trkpt lat="44.63105561068879" lon="7.87556359345004"><ele>211.0</ele><time>2026-04-12T12:37:16Z</time></trkpt><trkpt lat="44.63111034049049" lon="7.875509991220366"><ele>210.85714285714286</ele><time>2026-04-12T12:37:17Z</time></trkpt><trkpt lat="44.63116402929535" lon="7.875457464082221"><ele>210.71428571428572</ele><time>2026-04-12T12:37:18Z</time></trkpt><trkpt lat="44.631217126451574" lon="7.875400834862355"><ele>210.57142857142856</ele><time>2026-04-12T12:37:19Z</time></trkpt><trkpt lat="44.63127174867925" lon="7.87534436255265"><ele>210.42857142857144</ele><time>2026-04-12T12:37:20Z</time></trkpt><trkpt lat="44.63132368525698" lon="7.875286735670118"><ele>210.28571428571428</ele><time>2026-04-12T12:37:21Z</time></trkpt><trkpt lat="44.63137756837321" lon="7.875230499606386"><ele>210.14285714285714</ele><time>2026-04-12T12:37:22Z</time></trkpt><trkpt lat="44.63142855976777" lon="7.8751731772971185"><ele>210.0</ele><time>2026-04-12T12:37:23Z</time></trkpt><trkpt lat="44.63147788555747" lon="7.8751104799906"><ele>210.0</ele><time>2026-04-12T12:37:24Z</time></trkpt><trkpt lat="44.631528083427035" lon="7.875052440488383"><ele>210.0</ele><time>2026-04-12T12:37:25Z</time></trkpt><trkpt lat="44.63158207381075" lon="7.874988326135833"><ele>210.0</ele><time>2026-04-12T12:37:26Z</time></trkpt><trkpt lat="44.63163531888646" lon="7.874925318446529"><ele>210.0</ele><time>2026-04-12T12:37:27Z</time></trkpt><trkpt lat="44.63168923501517" lon="7.874863039485152"><ele>210.0</ele><time>2026-04-12T12:37:28Z</time></trkpt><trkpt lat="44.63173947493" lon="7.8747968302383695"><ele>210.0</ele><time>2026-04-12T12:37:29Z</time></trkpt><trkpt lat="44.631790383973964" lon="7.874729618674415"><ele>210.0</ele><time>2026-04-12T12:37:30Z</time></trkpt><trkpt lat="44.631837662520034" lon="7.874665674318851"><ele>210.0</ele><time>2026-04-12T12:37:31Z</time></trkpt><trkpt lat="44.63188219912747" lon="7.874600014547586"><ele>210.0</ele><time>2026-04-12T12:37:32Z</time></trkpt><trkpt lat="44.63197127048194" lon="7.8744763988302156"><ele>210.0</ele><time>2026-04-12T12:37:34Z</time></trkpt><trkpt lat="44.63206863479251" lon="7.874355437517427"><ele>210.0</ele><time>2026-04-12T12:37:36Z</time></trkpt><trkpt lat="44.632115110009494" lon="7.874290609343669"><ele>210.0</ele><time>2026-04-12T12:37:37Z</time></trkpt><trkpt lat="44.63216219527125" lon="7.8742248261422665"><ele>210.0</ele><time>2026-04-12T12:37:38Z</time></trkpt><trkpt lat="44.63220953577499" lon="7.874164931160677"><ele>210.0</ele><time>2026-04-12T12:37:39Z</time></trkpt><trkpt lat="44.63225599048419" lon="7.874099564941105"><ele>210.0</ele><time>2026-04-12T12:37:40Z</time></trkpt><trkpt lat="44.63234823764557" lon="7.873980227454767"><ele>210.0</ele><time>2026-04-12T12:37:42Z</time></trkpt><trkpt lat="44.632395631683444" lon="7.873917866266937"><ele>210.0</ele><time>2026-04-12T12:37:43Z</time></trkpt><trkpt lat="44.632489232651025" lon="7.873798352332248"><ele>210.0</ele><time>2026-04-12T12:37:45Z</time></trkpt><trkpt lat="44.632577627662315" lon="7.873682178612925"><ele>210.0</ele><time>2026-04-12T12:37:47Z</time></trkpt><trkpt lat="44.6326682791644" lon="7.8735678874777"><ele>210.0</ele><time>2026-04-12T12:37:49Z</time></trkpt><trkpt lat="44.63271714749329" lon="7.873510990716862"><ele>210.0</ele><time>2026-04-12T12:37:50Z</time></trkpt><trkpt lat="44.63280712979134" lon="7.8733962593890805"><ele>210.0</ele><time>2026-04-12T12:37:52Z</time></trkpt><trkpt lat="44.63289655405362" lon="7.8732821597995395"><ele>210.0</ele><time>2026-04-12T12:37:54Z</time></trkpt><trkpt lat="44.632973044781075" lon="7.873167459582874"><ele>210.2</ele><time>2026-04-12T12:37:56Z</time></trkpt><trkpt lat="44.63306169466252" lon="7.873058147324028"><ele>210.4</ele><time>2026-04-12T12:37:58Z</time></trkpt><trkpt lat="44.63314569272918" lon="7.872960040369193"><ele>210.60000000000002</ele><time>2026-04-12T12:38:00Z</time></trkpt><trkpt lat="44.63323188993907" lon="7.872848534578494"><ele>210.8</ele><time>2026-04-12T12:38:02Z</time></trkpt><trkpt lat="44.63330803461131" lon="7.872750445417345"><ele>211.0</ele><time>2026-04-12T12:38:04Z</time></trkpt><trkpt lat="44.63338126981351" lon="7.872646499837011"><ele>211.60000000000002</ele><time>2026-04-12T12:38:06Z</time></trkpt><trkpt lat="44.63346001947798" lon="7.872542051747246"><ele>212.2</ele><time>2026-04-12T12:38:08Z</time></trkpt><trkpt lat="44.633544861638015" lon="7.872435248207015"><ele>212.79999999999998</ele><time>2026-04-12T12:38:10Z</time></trkpt><trkpt lat="44.63362384950255" lon="7.872336833075718"><ele>213.39999999999998</ele><time>2026-04-12T12:38:12Z</time></trkpt><trkpt lat="44.63370098560573" lon="7.8722292343370786"><ele>214.0</ele><time>2026-04-12T12:38:14Z</time></trkpt><trkpt lat="44.633769286440035" lon="7.872135209217503"><ele>214.2</ele><time>2026-04-12T12:38:16Z</time></trkpt><trkpt lat="44.63384575537388" lon="7.872042793337679"><ele>214.39999999999998</ele><time>2026-04-12T12:38:18Z</time></trkpt><trkpt lat="44.63391508027952" lon="7.8719445807766215"><ele>214.6</ele><time>2026-04-12T12:38:20Z</time></trkpt><trkpt lat="44.63398681566744" lon="7.871849340634094"><ele>214.8</ele><time>2026-04-12T12:38:22Z</time></trkpt><trkpt lat="44.63405930174635" lon="7.87175528886169"><ele>215.0</ele><time>2026-04-12T12:38:24Z</time></trkpt><trkpt lat="44.634130974581836" lon="7.871656512200848"><ele>215.7142857142857</ele><time>2026-04-12T12:38:26Z</time></trkpt><trkpt lat="44.63418815236867" lon="7.871587697964842"><ele>216.42857142857144</ele><time>2026-04-12T12:38:28Z</time></trkpt><trkpt lat="44.63424171430409" lon="7.8715356276706965"><ele>217.14285714285714</ele><time>2026-04-12T12:38:58.999Z</time></trkpt><trkpt lat="44.634289843774646" lon="7.871461029987066"><ele>217.85714285714283</ele><time>2026-04-12T12:45:07.999Z</time></trkpt><trkpt lat="44.6343382127667" lon="7.8713856732764125"><ele>218.57142857142856</ele><time>2026-04-12T12:45:17.999Z</time></trkpt><trkpt lat="44.63439851615338" lon="7.871321452205776"><ele>219.28571428571428</ele><time>2026-04-12T12:45:22Z</time></trkpt><trkpt lat="44.63446071144148" lon="7.871253583072717"><ele>220.0</ele><time>2026-04-12T12:45:25Z</time></trkpt><trkpt lat="44.634517709622536" lon="7.8711677186943065"><ele>220.49999999999997</ele><time>2026-04-12T12:45:28Z</time></trkpt><trkpt lat="44.63458525700554" lon="7.871069057967521"><ele>221.0</ele><time>2026-04-12T12:45:31Z</time></trkpt><trkpt lat="44.63463693105265" lon="7.871001872444363"><ele>221.5</ele><time>2026-04-12T12:45:33Z</time></trkpt><trkpt lat="44.63469026225451" lon="7.870942153131169"><ele>222.0</ele><time>2026-04-12T12:45:35Z</time></trkpt><trkpt lat="44.634744383744426" lon="7.870871006938119"><ele>222.49999999999997</ele><time>2026-04-12T12:45:37Z</time></trkpt><trkpt lat="44.63479678477173" lon="7.870793112290884"><ele>223.0</ele><time>2026-04-12T12:45:39Z</time></trkpt><trkpt lat="44.63485047169321" lon="7.87071461948901"><ele>223.16666666666666</ele><time>2026-04-12T12:45:41Z</time></trkpt><trkpt lat="44.634900442461806" lon="7.87064775082466"><ele>223.33333333333331</ele><time>2026-04-12T12:45:43Z</time></trkpt><trkpt lat="44.63497690143567" lon="7.870564729754602"><ele>223.5</ele><time>2026-04-12T12:45:46Z</time></trkpt><trkpt lat="44.63502657759546" lon="7.8705000141241745"><ele>223.66666666666669</ele><time>2026-04-12T12:45:48Z</time></trkpt><trkpt lat="44.63507736584131" lon="7.870436318551489"><ele>223.83333333333334</ele><time>2026-04-12T12:45:50Z</time></trkpt><trkpt lat="44.635133984652484" lon="7.870363215288346"><ele>224.0</ele><time>2026-04-12T12:45:52Z</time></trkpt><trkpt lat="44.635193889660044" lon="7.870291309517679"><ele>224.00000000000003</ele><time>2026-04-12T12:45:54Z</time></trkpt><trkpt lat="44.63524934691606" lon="7.870214754654481"><ele>224.0</ele><time>2026-04-12T12:45:56Z</time></trkpt><trkpt lat="44.63530997485948" lon="7.870129210908724"><ele>224.0</ele><time>2026-04-12T12:45:58Z</time></trkpt><trkpt lat="44.63536811818758" lon="7.870046723190128"><ele>224.0</ele><time>2026-04-12T12:46:00Z</time></trkpt><trkpt lat="44.6354220675138" lon="7.869983763997614"><ele>224.00000000000003</ele><time>2026-04-12T12:46:02Z</time></trkpt><trkpt lat="44.635488454224564" lon="7.869930585959112"><ele>224.0</ele><time>2026-04-12T12:46:04Z</time></trkpt><trkpt lat="44.635556148719225" lon="7.869892912878151"><ele>224.16666666666669</ele><time>2026-04-12T12:46:06Z</time></trkpt><trkpt lat="44.63563202826013" lon="7.869875920983325"><ele>224.33333333333334</ele><time>2026-04-12T12:46:08Z</time></trkpt><trkpt lat="44.63570819311954" lon="7.869873923808723"><ele>224.5</ele><time>2026-04-12T12:46:10Z</time></trkpt><trkpt lat="44.63577940250988" lon="7.869830974696291"><ele>224.66666666666669</ele><time>2026-04-12T12:46:12Z</time></trkpt><trkpt lat="44.63583001250908" lon="7.869746627325783"><ele>224.83333333333334</ele><time>2026-04-12T12:46:14Z</time></trkpt><trkpt lat="44.6358466441063" lon="7.869630895129852"><ele>225.0</ele><time>2026-04-12T12:46:16Z</time></trkpt><trkpt lat="44.635866648882164" lon="7.869511713973559"><ele>225.0</ele><time>2026-04-12T12:46:18Z</time></trkpt><trkpt lat="44.635915438566805" lon="7.8693979883129535"><ele>225.0</ele><time>2026-04-12T12:46:20Z</time></trkpt><trkpt lat="44.63597838363059" lon="7.869301624222581"><ele>225.0</ele><time>2026-04-12T12:46:22Z</time></trkpt><trkpt lat="44.63603822244064" lon="7.8692103402290074"><ele>225.0</ele><time>2026-04-12T12:46:23.999Z</time></trkpt><trkpt lat="44.636099678430924" lon="7.869116683163994"><ele>225.0</ele><time>2026-04-12T12:46:25.999Z</time></trkpt><trkpt lat="44.63616393688393" lon="7.869028988138961"><ele>225.0</ele><time>2026-04-12T12:46:27.999Z</time></trkpt><trkpt lat="44.63623410467365" lon="7.868940039818289"><ele>225.0</ele><time>2026-04-12T12:46:29.999Z</time></trkpt><trkpt lat="44.636305746668" lon="7.86885293288096"><ele>225.0</ele><time>2026-04-12T12:46:31.999Z</time></trkpt><trkpt lat="44.636373130941735" lon="7.868762045825976"><ele>225.0</ele><time>2026-04-12T12:46:33.999Z</time></trkpt><trkpt lat="44.63644766120533" lon="7.868669945548054"><ele>225.0</ele><time>2026-04-12T12:46:35.999Z</time></trkpt><trkpt lat="44.63652966171832" lon="7.8685688146092"><ele>225.0</ele><time>2026-04-12T12:46:37.999Z</time></trkpt><trkpt lat="44.636607246918366" lon="7.8684635457592"><ele>225.0</ele><time>2026-04-12T12:46:39.999Z</time></trkpt><trkpt lat="44.63669029320097" lon="7.868355908332072"><ele>225.0</ele><time>2026-04-12T12:46:41.999Z</time></trkpt><trkpt lat="44.63677365994989" lon="7.868238600129729"><ele>225.0</ele><time>2026-04-12T12:46:43.999Z</time></trkpt><trkpt lat="44.636817532515146" lon="7.868172444724118"><ele>225.0</ele><time>2026-04-12T12:46:44.999Z</time></trkpt><trkpt lat="44.63686562213745" lon="7.868110335229301"><ele>224.8571428571429</ele><time>2026-04-12T12:46:45.999Z</time></trkpt><trkpt lat="44.63691594537112" lon="7.868047554067442"><ele>224.71428571428572</ele><time>2026-04-12T12:46:46.999Z</time></trkpt><trkpt lat="44.636964729519235" lon="7.867983598713913"><ele>224.57142857142858</ele><time>2026-04-12T12:46:47.999Z</time></trkpt><trkpt lat="44.63701483450572" lon="7.867919416608654"><ele>224.42857142857144</ele><time>2026-04-12T12:46:48.999Z</time></trkpt><trkpt lat="44.63706575389746" lon="7.8678547007882464"><ele>224.28571428571428</ele><time>2026-04-12T12:46:49.999Z</time></trkpt><trkpt lat="44.63712110993763" lon="7.867787264189295"><ele>224.14285714285714</ele><time>2026-04-12T12:46:50.999Z</time></trkpt><trkpt lat="44.637170115182364" lon="7.8677287950388175"><ele>224.0</ele><time>2026-04-12T12:46:51.999Z</time></trkpt><trkpt lat="44.637219053299006" lon="7.867662779441117"><ele>224.14285714285714</ele><time>2026-04-12T12:46:52.999Z</time></trkpt><trkpt lat="44.63726519781264" lon="7.867600463357459"><ele>224.28571428571428</ele><time>2026-04-12T12:46:53.999Z</time></trkpt><trkpt lat="44.63731317495232" lon="7.86753748614709"><ele>224.42857142857144</ele><time>2026-04-12T12:46:54.999Z</time></trkpt><trkpt lat="44.63736401389175" lon="7.867470703103093"><ele>224.57142857142858</ele><time>2026-04-12T12:46:55.999Z</time></trkpt><trkpt lat="44.63741354703647" lon="7.867408179481537"><ele>224.71428571428572</ele><time>2026-04-12T12:46:56.999Z</time></trkpt><trkpt lat="44.637462850521864" lon="7.867342642962616"><ele>224.8571428571429</ele><time>2026-04-12T12:46:57.999Z</time></trkpt><trkpt lat="44.63751142559835" lon="7.867272280777372"><ele>225.00000000000003</ele><time>2026-04-12T12:46:58.999Z</time></trkpt><trkpt lat="44.637564150570746" lon="7.86721057480207"><ele>225.00000000000003</ele><time>2026-04-12T12:46:59.999Z</time></trkpt><trkpt lat="44.637616410824585" lon="7.867147609707138"><ele>225.0</ele><time>2026-04-12T12:47:00.999Z</time></trkpt><trkpt lat="44.63766631316674" lon="7.867080678471626"><ele>225.00000000000003</ele><time>2026-04-12T12:47:01.999Z</time></trkpt><trkpt lat="44.63771509142003" lon="7.867009814192244"><ele>225.00000000000003</ele><time>2026-04-12T12:47:02.999Z</time></trkpt><trkpt lat="44.63776664561865" lon="7.866943946542126"><ele>225.0</ele><time>2026-04-12T12:47:03.999Z</time></trkpt><trkpt lat="44.637817007514876" lon="7.866883344433365"><ele>225.00000000000003</ele><time>2026-04-12T12:47:04.999Z</time></trkpt><trkpt lat="44.637868429743534" lon="7.866816920431704"><ele>225.00000000000003</ele><time>2026-04-12T12:47:05.999Z</time></trkpt><trkpt lat="44.637919558907065" lon="7.866751289785864"><ele>225.14285714285717</ele><time>2026-04-12T12:47:06.999Z</time></trkpt><trkpt lat="44.63796593032024" lon="7.8666845831578645"><ele>225.28571428571428</ele><time>2026-04-12T12:47:07.999Z</time></trkpt><trkpt lat="44.63801190911685" lon="7.866614831415068"><ele>225.42857142857144</ele><time>2026-04-12T12:47:08.999Z</time></trkpt><trkpt lat="44.63805764439251" lon="7.866548160430708"><ele>225.57142857142858</ele><time>2026-04-12T12:47:09.999Z</time></trkpt><trkpt lat="44.63810800463357" lon="7.8664785266217185"><ele>225.71428571428572</ele><time>2026-04-12T12:47:10.999Z</time></trkpt><trkpt lat="44.638157817882046" lon="7.866407801259628"><ele>225.85714285714286</ele><time>2026-04-12T12:47:11.999Z</time></trkpt><trkpt lat="44.63821147909194" lon="7.866338532002284"><ele>226.0</ele><time>2026-04-12T12:47:12.999Z</time></trkpt><trkpt lat="44.63826385101832" lon="7.866269146251128"><ele>226.0</ele><time>2026-04-12T12:47:13.999Z</time></trkpt><trkpt lat="44.63831817356676" lon="7.866197827609941"><ele>226.0</ele><time>2026-04-12T12:47:14.999Z</time></trkpt><trkpt lat="44.63837257198093" lon="7.866124614660175"><ele>226.0</ele><time>2026-04-12T12:47:15.999Z</time></trkpt><trkpt lat="44.63843018773737" lon="7.866056813618861"><ele>226.0</ele><time>2026-04-12T12:47:16.999Z</time></trkpt><trkpt lat="44.638486334380616" lon="7.865989775726402"><ele>226.0</ele><time>2026-04-12T12:47:17.999Z</time></trkpt><trkpt lat="44.63854279400505" lon="7.865917487008694"><ele>226.0</ele><time>2026-04-12T12:47:18.999Z</time></trkpt><trkpt lat="44.63859295216475" lon="7.865848068489172"><ele>226.0</ele><time>2026-04-12T12:47:19.999Z</time></trkpt><trkpt lat="44.63864498145804" lon="7.865779666402394"><ele>225.66666666666666</ele><time>2026-04-12T12:47:20.999Z</time></trkpt><trkpt lat="44.638701694670964" lon="7.865707639052008"><ele>225.33333333333331</ele><time>2026-04-12T12:47:21.999Z</time></trkpt><trkpt lat="44.638756833816274" lon="7.86563574343961"><ele>225.0</ele><time>2026-04-12T12:47:22.999Z</time></trkpt><trkpt lat="44.638813442475524" lon="7.865558869266158"><ele>224.66666666666669</ele><time>2026-04-12T12:47:23.999Z</time></trkpt><trkpt lat="44.63887136331642" lon="7.865490442643318"><ele>224.33333333333334</ele><time>2026-04-12T12:47:25Z</time></trkpt><trkpt lat="44.638925692254716" lon="7.865416492098092"><ele>224.0</ele><time>2026-04-12T12:47:26Z</time></trkpt><trkpt lat="44.638984290810264" lon="7.865343133174766"><ele>224.00000000000003</ele><time>2026-04-12T12:47:27Z</time></trkpt><trkpt lat="44.6390369131262" lon="7.865265319396667"><ele>224.0</ele><time>2026-04-12T12:47:28Z</time></trkpt><trkpt lat="44.63909387123958" lon="7.865195166626823"><ele>224.0</ele><time>2026-04-12T12:47:29Z</time></trkpt><trkpt lat="44.639152766537336" lon="7.865120307334259"><ele>224.0</ele><time>2026-04-12T12:47:30Z</time></trkpt><trkpt lat="44.639207551271554" lon="7.86505100879703"><ele>224.00000000000003</ele><time>2026-04-12T12:47:31Z</time></trkpt><trkpt lat="44.63926501961689" lon="7.864982979274304"><ele>224.0</ele><time>2026-04-12T12:47:32Z</time></trkpt><trkpt lat="44.639321423142235" lon="7.864906488109507"><ele>223.83333333333334</ele><time>2026-04-12T12:47:33Z</time></trkpt><trkpt lat="44.639378666273885" lon="7.864836948029321"><ele>223.66666666666669</ele><time>2026-04-12T12:47:34Z</time></trkpt><trkpt lat="44.63943605436046" lon="7.8647679016458"><ele>223.5</ele><time>2026-04-12T12:47:35Z</time></trkpt><trkpt lat="44.63948932146463" lon="7.864691600185537"><ele>223.33333333333331</ele><time>2026-04-12T12:47:36Z</time></trkpt><trkpt lat="44.63954643325906" lon="7.864623083896843"><ele>223.16666666666666</ele><time>2026-04-12T12:47:37Z</time></trkpt><trkpt lat="44.63960680947009" lon="7.864560280877553"><ele>223.0</ele><time>2026-04-12T12:47:38Z</time></trkpt><trkpt lat="44.63966703312098" lon="7.864501103091143"><ele>223.0</ele><time>2026-04-12T12:47:39Z</time></trkpt><trkpt lat="44.63972568115977" lon="7.864439623999846"><ele>223.0</ele><time>2026-04-12T12:47:40Z</time></trkpt><trkpt lat="44.63978627731322" lon="7.8643819977941245"><ele>223.0</ele><time>2026-04-12T12:47:41Z</time></trkpt><trkpt lat="44.6398493087205" lon="7.864334953032349"><ele>223.0</ele><time>2026-04-12T12:47:42Z</time></trkpt><trkpt lat="44.639911655565484" lon="7.864287736771743"><ele>223.0</ele><time>2026-04-12T12:47:43Z</time></trkpt><trkpt lat="44.63997484261012" lon="7.864234465049725"><ele>223.0</ele><time>2026-04-12T12:47:44Z</time></trkpt><trkpt lat="44.64004254272499" lon="7.864187620621093"><ele>223.0</ele><time>2026-04-12T12:47:45Z</time></trkpt><trkpt lat="44.640106487496496" lon="7.864132440488237"><ele>223.0</ele><time>2026-04-12T12:47:46Z</time></trkpt><trkpt lat="44.640169618664565" lon="7.864082464145701"><ele>223.0</ele><time>2026-04-12T12:47:47Z</time></trkpt><trkpt lat="44.64023380344327" lon="7.864045655295624"><ele>223.0</ele><time>2026-04-12T12:47:48Z</time></trkpt><trkpt lat="44.64030470221248" lon="7.8640060910565115"><ele>223.0</ele><time>2026-04-12T12:47:49Z</time></trkpt><trkpt lat="44.64036821616588" lon="7.863962910163312"><ele>223.0</ele><time>2026-04-12T12:47:50Z</time></trkpt><trkpt lat="44.64043519714318" lon="7.863935817952944"><ele>223.0</ele><time>2026-04-12T12:47:51Z</time></trkpt><trkpt lat="44.64050419040561" lon="7.863907550589209"><ele>223.0</ele><time>2026-04-12T12:47:52Z</time></trkpt><trkpt lat="44.640571662735184" lon="7.86386948113296"><ele>221.66666666666666</ele><time>2026-04-12T12:47:53Z</time></trkpt><trkpt lat="44.640646919498444" lon="7.8638463126390885"><ele>220.33333333333331</ele><time>2026-04-12T12:47:54Z</time></trkpt><trkpt lat="44.640725242689136" lon="7.863827310850658"><ele>219.0</ele><time>2026-04-12T12:47:55Z</time></trkpt><trkpt lat="44.64079832267893" lon="7.863809941476594"><ele>217.66666666666669</ele><time>2026-04-12T12:47:56Z</time></trkpt><trkpt lat="44.64087450603131" lon="7.863794276960651"><ele>216.33333333333334</ele><time>2026-04-12T12:47:57Z</time></trkpt><trkpt lat="44.64095323844127" lon="7.863775044368796"><ele>215.0</ele><time>2026-04-12T12:47:58Z</time></trkpt><trkpt lat="44.64103091781907" lon="7.863763058479258"><ele>215.00000000000003</ele><time>2026-04-12T12:47:59Z</time></trkpt><trkpt lat="44.64110598753803" lon="7.863755101922293"><ele>215.0</ele><time>2026-04-12T12:48:00Z</time></trkpt><trkpt lat="44.641181412577026" lon="7.863745228497295"><ele>215.0</ele><time>2026-04-12T12:48:01Z</time></trkpt><trkpt lat="44.64126182732654" lon="7.863745493684999"><ele>215.0</ele><time>2026-04-12T12:48:02Z</time></trkpt><trkpt lat="44.64133989128027" lon="7.863750684108713"><ele>215.00000000000003</ele><time>2026-04-12T12:48:03Z</time></trkpt><trkpt lat="44.641416338081875" lon="7.863761397774767"><ele>215.0</ele><time>2026-04-12T12:48:04Z</time></trkpt><trkpt lat="44.641488184793445" lon="7.863773778660696"><ele>214.50000000000003</ele><time>2026-04-12T12:48:05Z</time></trkpt><trkpt lat="44.64157308643967" lon="7.863778790892448"><ele>214.0</ele><time>2026-04-12T12:48:06Z</time></trkpt><trkpt lat="44.641651892271184" lon="7.86379290443088"><ele>213.5</ele><time>2026-04-12T12:48:07Z</time></trkpt><trkpt lat="44.64173036563296" lon="7.863810059025989"><ele>213.0</ele><time>2026-04-12T12:48:08Z</time></trkpt><trkpt lat="44.641809733824054" lon="7.863831605670565"><ele>212.50000000000003</ele><time>2026-04-12T12:48:09Z</time></trkpt><trkpt lat="44.641884249927294" lon="7.86385698762029"><ele>212.0</ele><time>2026-04-12T12:48:10Z</time></trkpt><trkpt lat="44.641960228765576" lon="7.863890488562957"><ele>212.33333333333334</ele><time>2026-04-12T12:48:11Z</time></trkpt><trkpt lat="44.64204336159393" lon="7.863917568674007"><ele>212.66666666666669</ele><time>2026-04-12T12:48:12Z</time></trkpt><trkpt lat="44.642121394266304" lon="7.863946764036177"><ele>213.0</ele><time>2026-04-12T12:48:13Z</time></trkpt><trkpt lat="44.64218733046207" lon="7.863976532220471"><ele>213.33333333333331</ele><time>2026-04-12T12:48:14Z</time></trkpt><trkpt lat="44.64227517804977" lon="7.864021615108805"><ele>213.66666666666666</ele><time>2026-04-12T12:48:15Z</time></trkpt><trkpt lat="44.64235245764996" lon="7.864053198948386"><ele>214.0</ele><time>2026-04-12T12:48:16Z</time></trkpt><trkpt lat="44.64243967073146" lon="7.864085432371048"><ele>213.99999999999997</ele><time>2026-04-12T12:48:17Z</time></trkpt><trkpt lat="44.64252662314143" lon="7.864118002056573"><ele>214.0</ele><time>2026-04-12T12:48:18Z</time></trkpt><trkpt lat="44.642605485262834" lon="7.864152668999616"><ele>214.0</ele><time>2026-04-12T12:48:19Z</time></trkpt><trkpt lat="44.642685152214796" lon="7.8641831044102535"><ele>214.0</ele><time>2026-04-12T12:48:20Z</time></trkpt><trkpt lat="44.64276964247454" lon="7.864217789322012"><ele>213.99999999999997</ele><time>2026-04-12T12:48:21Z</time></trkpt><trkpt lat="44.64284787242974" lon="7.864253651475754"><ele>214.0</ele><time>2026-04-12T12:48:22Z</time></trkpt><trkpt lat="44.642930988919375" lon="7.864283143831732"><ele>212.39999999999998</ele><time>2026-04-12T12:48:23Z</time></trkpt><trkpt lat="44.64302194736664" lon="7.864325872569257"><ele>210.79999999999998</ele><time>2026-04-12T12:48:23.999Z</time></trkpt><trkpt lat="44.64310436659487" lon="7.864361109099042"><ele>209.2</ele><time>2026-04-12T12:48:24.999Z</time></trkpt><trkpt lat="44.643188381176216" lon="7.864399907395923"><ele>207.60000000000002</ele><time>2026-04-12T12:48:25.999Z</time></trkpt><trkpt lat="44.6432786068018" lon="7.864436276387816"><ele>206.0</ele><time>2026-04-12T12:48:26.999Z</time></trkpt><trkpt lat="44.64338512423599" lon="7.86447070888199"><ele>206.00000000000003</ele><time>2026-04-12T12:48:27.999Z</time></trkpt><trkpt lat="44.64346528394896" lon="7.864508706106502"><ele>206.0</ele><time>2026-04-12T12:48:28.999Z</time></trkpt><trkpt lat="44.64354931557825" lon="7.864540504535647"><ele>206.0</ele><time>2026-04-12T12:48:29.999Z</time></trkpt><trkpt lat="44.64363188593214" lon="7.86457120756067"><ele>206.0</ele><time>2026-04-12T12:48:30.999Z</time></trkpt><trkpt lat="44.643720958337475" lon="7.864600996846703"><ele>206.00000000000003</ele><time>2026-04-12T12:48:31.999Z</time></trkpt><trkpt lat="44.64380206257109" lon="7.86463492058841"><ele>206.0</ele><time>2026-04-12T12:48:32.999Z</time></trkpt><trkpt lat="44.643886389039956" lon="7.864679752880858"><ele>207.0</ele><time>2026-04-12T12:48:33.999Z</time></trkpt><trkpt lat="44.64397169724005" lon="7.864720254564149"><ele>208.0</ele><time>2026-04-12T12:48:34.999Z</time></trkpt><trkpt lat="44.64406353995863" lon="7.864765532855285"><ele>209.0</ele><time>2026-04-12T12:48:35.999Z</time></trkpt><trkpt lat="44.644149563781454" lon="7.864802474091832"><ele>210.0</ele><time>2026-04-12T12:48:36.999Z</time></trkpt><trkpt lat="44.644228778574075" lon="7.864839033637543"><ele>211.0</ele><time>2026-04-12T12:48:37.999Z</time></trkpt><trkpt lat="44.644319448472814" lon="7.864875155396328"><ele>211.0</ele><time>2026-04-12T12:48:38.999Z</time></trkpt><trkpt lat="44.64440362417554" lon="7.864920492923585"><ele>211.0</ele><time>2026-04-12T12:48:39.999Z</time></trkpt><trkpt lat="44.644486053896046" lon="7.864970725772592"><ele>211.0</ele><time>2026-04-12T12:48:40.999Z</time></trkpt><trkpt lat="44.64457265892671" lon="7.865027057498894"><ele>211.0</ele><time>2026-04-12T12:48:41.999Z</time></trkpt><trkpt lat="44.644652383465306" lon="7.8650727734719"><ele>211.0</ele><time>2026-04-12T12:48:42.999Z</time></trkpt><trkpt lat="44.644735594787186" lon="7.865117902995113"><ele>210.83333333333331</ele><time>2026-04-12T12:48:43.999Z</time></trkpt><trkpt lat="44.64481546191974" lon="7.86516281379801"><ele>210.66666666666666</ele><time>2026-04-12T12:48:44.999Z</time></trkpt><trkpt lat="44.64489388402637" lon="7.865219485694451"><ele>210.5</ele><time>2026-04-12T12:48:45.999Z</time></trkpt><trkpt lat="44.644967429392494" lon="7.865283987575035"><ele>210.33333333333331</ele><time>2026-04-12T12:48:46.999Z</time></trkpt><trkpt lat="44.645045005715126" lon="7.865347657720424"><ele>210.16666666666666</ele><time>2026-04-12T12:48:47.999Z</time></trkpt><trkpt lat="44.64511906706704" lon="7.865418620843862"><ele>210.0</ele><time>2026-04-12T12:48:48.999Z</time></trkpt><trkpt lat="44.64519309152598" lon="7.865491559106096"><ele>210.0</ele><time>2026-04-12T12:48:49.999Z</time></trkpt><trkpt lat="44.645267287654406" lon="7.865561000753087"><ele>210.0</ele><time>2026-04-12T12:48:50.999Z</time></trkpt><trkpt lat="44.645337898007895" lon="7.865638155252445"><ele>210.0</ele><time>2026-04-12T12:48:51.999Z</time></trkpt><trkpt lat="44.64540364640479" lon="7.865719612563398"><ele>210.0</ele><time>2026-04-12T12:48:52.999Z</time></trkpt><trkpt lat="44.64546626231315" lon="7.8658025279846155"><ele>210.0</ele><time>2026-04-12T12:48:53.999Z</time></trkpt><trkpt lat="44.64553023400057" lon="7.865888281768712"><ele>210.0</ele><time>2026-04-12T12:48:54.999Z</time></trkpt><trkpt lat="44.64559063080981" lon="7.865974840560764"><ele>210.0</ele><time>2026-04-12T12:48:55.999Z</time></trkpt><trkpt lat="44.64565204259644" lon="7.866062691999729"><ele>210.0</ele><time>2026-04-12T12:48:56.999Z</time></trkpt><trkpt lat="44.6457122818322" lon="7.866152356596551"><ele>210.0</ele><time>2026-04-12T12:48:57.999Z</time></trkpt><trkpt lat="44.64577145664888" lon="7.866242718118975"><ele>210.0</ele><time>2026-04-12T12:48:58.999Z</time></trkpt><trkpt lat="44.64583187884582" lon="7.8663366147548555"><ele>210.0</ele><time>2026-04-12T12:48:59.999Z</time></trkpt><trkpt lat="44.645895967992764" lon="7.866430362402821"><ele>210.0</ele><time>2026-04-12T12:49:00.999Z</time></trkpt><trkpt lat="44.64595989331712" lon="7.866520348926812"><ele>210.0</ele><time>2026-04-12T12:49:01.999Z</time></trkpt><trkpt lat="44.64602366952671" lon="7.8666100072596565"><ele>210.0</ele><time>2026-04-12T12:49:02.999Z</time></trkpt><trkpt lat="44.64608552681613" lon="7.866696188557703"><ele>210.0</ele><time>2026-04-12T12:49:03.999Z</time></trkpt><trkpt lat="44.64614517697816" lon="7.86678446054296"><ele>210.0</ele><time>2026-04-12T12:49:04.999Z</time></trkpt><trkpt lat="44.646198830897234" lon="7.8668721515616316"><ele>210.0</ele><time>2026-04-12T12:49:05.999Z</time></trkpt><trkpt lat="44.6462487186635" lon="7.866951233607801"><ele>210.0</ele><time>2026-04-12T12:49:06.999Z</time></trkpt><trkpt lat="44.64629110470525" lon="7.86703118024837"><ele>210.83333333333334</ele><time>2026-04-12T12:49:07.999Z</time></trkpt><trkpt lat="44.646328209093916" lon="7.8671140299716305"><ele>211.66666666666669</ele><time>2026-04-12T12:49:08.999Z</time></trkpt><trkpt lat="44.64634006061579" lon="7.867208844984825"><ele>212.5</ele><time>2026-04-12T12:49:09.999Z</time></trkpt><trkpt lat="44.646343544937416" lon="7.867312486493455"><ele>213.33333333333334</ele><time>2026-04-12T12:49:10.999Z</time></trkpt><trkpt lat="44.64636110041108" lon="7.867409274450119"><ele>214.16666666666669</ele><time>2026-04-12T12:49:11.999Z</time></trkpt><trkpt lat="44.64639521163948" lon="7.867493900198315"><ele>215.0</ele><time>2026-04-12T12:49:12.999Z</time></trkpt><trkpt lat="44.64650162215599" lon="7.867598451741453"><ele>213.66666666666669</ele><time>2026-04-12T12:49:14.999Z</time></trkpt><trkpt lat="44.64656697331284" lon="7.867626460363892"><ele>212.33333333333334</ele><time>2026-04-12T12:49:15.999Z</time></trkpt><trkpt lat="44.64663684953741" lon="7.867647714289539"><ele>211.0</ele><time>2026-04-12T12:49:16.999Z</time></trkpt><trkpt lat="44.64669903395828" lon="7.867676054750953"><ele>209.66666666666669</ele><time>2026-04-12T12:49:17.999Z</time></trkpt><trkpt lat="44.646750248922714" lon="7.867727973294992"><ele>208.33333333333334</ele><time>2026-04-12T12:49:18.999Z</time></trkpt><trkpt lat="44.646838401919965" lon="7.867847632710993"><ele>207.0</ele><time>2026-04-12T12:49:20.999Z</time></trkpt><trkpt lat="44.64687875100553" lon="7.867920510277423"><ele>207.0</ele><time>2026-04-12T12:49:21.999Z</time></trkpt><trkpt lat="44.64691824582572" lon="7.867989610462508"><ele>207.0</ele><time>2026-04-12T12:49:22.999Z</time></trkpt><trkpt lat="44.64700419063484" lon="7.868129297013523"><ele>207.0</ele><time>2026-04-12T12:49:24.999Z</time></trkpt><trkpt lat="44.647059268598674" lon="7.868221501309985"><ele>207.0</ele><time>2026-04-12T12:49:25.999Z</time></trkpt><trkpt lat="44.64711608660947" lon="7.868300730099193"><ele>207.0</ele><time>2026-04-12T12:49:26.999Z</time></trkpt><trkpt lat="44.64717167354649" lon="7.868392304326125"><ele>207.0</ele><time>2026-04-12T12:49:27.999Z</time></trkpt><trkpt lat="44.64722815695925" lon="7.868477181179584"><ele>208.16666666666666</ele><time>2026-04-12T12:49:28.999Z</time></trkpt><trkpt lat="44.64728306450608" lon="7.868566977121335"><ele>209.33333333333331</ele><time>2026-04-12T12:49:29.999Z</time></trkpt><trkpt lat="44.647326889695115" lon="7.8686520947066505"><ele>210.5</ele><time>2026-04-12T12:49:31Z</time></trkpt><trkpt lat="44.64738527047882" lon="7.8687266198514045"><ele>211.66666666666666</ele><time>2026-04-12T12:49:32Z</time></trkpt><trkpt lat="44.64743844957093" lon="7.868801394640655"><ele>212.83333333333331</ele><time>2026-04-12T12:49:33Z</time></trkpt><trkpt lat="44.64749613117643" lon="7.868874138255726"><ele>214.0</ele><time>2026-04-12T12:49:34Z</time></trkpt><trkpt lat="44.64755276369536" lon="7.8689506751331955"><ele>213.99999999999997</ele><time>2026-04-12T12:49:35Z</time></trkpt><trkpt lat="44.64760329988419" lon="7.869026901871237"><ele>214.0</ele><time>2026-04-12T12:49:36Z</time></trkpt><trkpt lat="44.64766280814608" lon="7.869092604986901"><ele>214.0</ele><time>2026-04-12T12:49:37Z</time></trkpt><trkpt lat="44.647721870464316" lon="7.86915698246266"><ele>214.0</ele><time>2026-04-12T12:49:38Z</time></trkpt><trkpt lat="44.647778125245885" lon="7.869221020671828"><ele>213.99999999999997</ele><time>2026-04-12T12:49:39Z</time></trkpt><trkpt lat="44.647838739736635" lon="7.869287057012506"><ele>214.0</ele><time>2026-04-12T12:49:40Z</time></trkpt><trkpt lat="44.647899031640705" lon="7.869353709073219"><ele>214.66666666666666</ele><time>2026-04-12T12:49:41Z</time></trkpt><trkpt lat="44.64796054936112" lon="7.869407126780045"><ele>215.33333333333331</ele><time>2026-04-12T12:49:42Z</time></trkpt><trkpt lat="44.64802103190987" lon="7.86946643582961"><ele>216.0</ele><time>2026-04-12T12:49:43Z</time></trkpt><trkpt lat="44.64808961289239" lon="7.869519784000539"><ele>216.66666666666669</ele><time>2026-04-12T12:49:44Z</time></trkpt><trkpt lat="44.64816100656371" lon="7.869579641919534"><ele>217.33333333333334</ele><time>2026-04-12T12:49:45Z</time></trkpt><trkpt lat="44.648228357095476" lon="7.86963590499413"><ele>218.0</ele><time>2026-04-12T12:49:46Z</time></trkpt><trkpt lat="44.64829518998251" lon="7.86968561144983"><ele>218.00000000000003</ele><time>2026-04-12T12:49:47Z</time></trkpt><trkpt lat="44.648369135847894" lon="7.869730310798692"><ele>218.0</ele><time>2026-04-12T12:49:48Z</time></trkpt><trkpt lat="44.64844138768182" lon="7.869773895823496"><ele>218.0</ele><time>2026-04-12T12:49:49Z</time></trkpt><trkpt lat="44.64850666220377" lon="7.869820631730267"><ele>218.0</ele><time>2026-04-12T12:49:50Z</time></trkpt><trkpt lat="44.648578184546686" lon="7.869854093965576"><ele>218.00000000000003</ele><time>2026-04-12T12:49:51Z</time></trkpt><trkpt lat="44.64865032902387" lon="7.869880530291398"><ele>218.0</ele><time>2026-04-12T12:49:52Z</time></trkpt><trkpt lat="44.648719214997335" lon="7.8699145438781715"><ele>217.57142857142858</ele><time>2026-04-12T12:49:53Z</time></trkpt><trkpt lat="44.64879204301673" lon="7.869952323886654"><ele>217.14285714285717</ele><time>2026-04-12T12:49:54Z</time></trkpt><trkpt lat="44.64885929490745" lon="7.86997392143732"><ele>216.71428571428572</ele><time>2026-04-12T12:49:55Z</time></trkpt><trkpt lat="44.64893214616153" lon="7.869978421398413"><ele>216.28571428571428</ele><time>2026-04-12T12:49:56Z</time></trkpt><trkpt lat="44.6490048530742" lon="7.870008904068521"><ele>215.85714285714286</ele><time>2026-04-12T12:49:57Z</time></trkpt><trkpt lat="44.649071084666716" lon="7.870038001156353"><ele>215.42857142857142</ele><time>2026-04-12T12:49:58Z</time></trkpt><trkpt lat="44.649143221666755" lon="7.870061419725518"><ele>215.0</ele><time>2026-04-12T12:49:59Z</time></trkpt><trkpt lat="44.64921483984528" lon="7.870077397859527"><ele>215.00000000000003</ele><time>2026-04-12T12:50:00Z</time></trkpt><trkpt lat="44.64929155520957" lon="7.870090348302681"><ele>215.0</ele><time>2026-04-12T12:50:01Z</time></trkpt><trkpt lat="44.64936773523823" lon="7.870098881205793"><ele>215.0</ele><time>2026-04-12T12:50:02Z</time></trkpt><trkpt lat="44.64944406461626" lon="7.870104209157164"><ele>215.0</ele><time>2026-04-12T12:50:03Z</time></trkpt><trkpt lat="44.649520986601885" lon="7.870110909794668"><ele>215.00000000000003</ele><time>2026-04-12T12:50:04Z</time></trkpt><trkpt lat="44.649589471259" lon="7.870110145770458"><ele>215.0</ele><time>2026-04-12T12:50:05Z</time></trkpt><trkpt lat="44.649669707111045" lon="7.8701082978909005"><ele>215.33333333333334</ele><time>2026-04-12T12:50:06Z</time></trkpt><trkpt lat="44.64975019668102" lon="7.870109591669596"><ele>215.66666666666669</ele><time>2026-04-12T12:50:07Z</time></trkpt><trkpt lat="44.64982135467415" lon="7.870109709879912"><ele>216.0</ele><time>2026-04-12T12:50:08Z</time></trkpt><trkpt lat="44.649900511821635" lon="7.870114438774917"><ele>216.33333333333331</ele><time>2026-04-12T12:50:09Z</time></trkpt><trkpt lat="44.649980782257586" lon="7.870111930159357"><ele>216.66666666666666</ele><time>2026-04-12T12:50:10Z</time></trkpt><trkpt lat="44.65006025092621" lon="7.870108218183748"><ele>217.0</ele><time>2026-04-12T12:50:11Z</time></trkpt><trkpt lat="44.65014131653773" lon="7.87009800099579"><ele>216.99999999999997</ele><time>2026-04-12T12:50:12Z</time></trkpt><trkpt lat="44.65021766352352" lon="7.870097036726966"><ele>217.0</ele><time>2026-04-12T12:50:12.999Z</time></trkpt><trkpt lat="44.65029773636751" lon="7.870094715294857"><ele>217.0</ele><time>2026-04-12T12:50:13.999Z</time></trkpt><trkpt lat="44.650376641624824" lon="7.870093066043802"><ele>217.0</ele><time>2026-04-12T12:50:14.999Z</time></trkpt><trkpt lat="44.6504589104338" lon="7.870087197208025"><ele>216.99999999999997</ele><time>2026-04-12T12:50:15.999Z</time></trkpt><trkpt lat="44.65053856703714" lon="7.8700835145563754"><ele>217.0</ele><time>2026-04-12T12:50:16.999Z</time></trkpt><trkpt lat="44.650620837183084" lon="7.870079732882526"><ele>216.83333333333331</ele><time>2026-04-12T12:50:17.999Z</time></trkpt><trkpt lat="44.65069875249823" lon="7.870105606378587"><ele>216.66666666666666</ele><time>2026-04-12T12:50:18.999Z</time></trkpt><trkpt lat="44.65077161732728" lon="7.870172666161281"><ele>216.5</ele><time>2026-04-12T12:50:19.999Z</time></trkpt><trkpt lat="44.65082664491581" lon="7.870253379747683"><ele>216.33333333333331</ele><time>2026-04-12T12:50:20.999Z</time></trkpt><trkpt lat="44.65087477307204" lon="7.870340864438604"><ele>216.16666666666666</ele><time>2026-04-12T12:50:21.999Z</time></trkpt><trkpt lat="44.65093472860688" lon="7.870419596560106"><ele>216.0</ele><time>2026-04-12T12:50:22.999Z</time></trkpt><trkpt lat="44.651001006309066" lon="7.870481829679133"><ele>216.0</ele><time>2026-04-12T12:50:23.999Z</time></trkpt><trkpt lat="44.65107716104742" lon="7.870514554216534"><ele>216.0</ele><time>2026-04-12T12:50:24.999Z</time></trkpt><trkpt lat="44.65115748432599" lon="7.870523864223237"><ele>216.0</ele><time>2026-04-12T12:50:25.999Z</time></trkpt><trkpt lat="44.65123150601903" lon="7.87052021686716"><ele>216.0</ele><time>2026-04-12T12:50:26.999Z</time></trkpt><trkpt lat="44.65130415526461" lon="7.870497156676862"><ele>216.0</ele><time>2026-04-12T12:50:27.999Z</time></trkpt><trkpt lat="44.6513659629733" lon="7.870443643295006"><ele>216.0</ele><time>2026-04-12T12:50:28.999Z</time></trkpt><trkpt lat="44.65142288508195" lon="7.8703833190029355"><ele>214.8</ele><time>2026-04-12T12:50:29.999Z</time></trkpt><trkpt lat="44.65146905895239" lon="7.870317140119801"><ele>213.60000000000002</ele><time>2026-04-12T12:50:30.999Z</time></trkpt><trkpt lat="44.651528154971494" lon="7.87017334586385"><ele>212.4</ele><time>2026-04-12T12:50:32.999Z</time></trkpt><trkpt lat="44.6515436172643" lon="7.870001419587329"><ele>211.2</ele><time>2026-04-12T12:50:34.999Z</time></trkpt><trkpt lat="44.65151333363389" lon="7.869835302439708"><ele>210.0</ele><time>2026-04-12T12:50:36.999Z</time></trkpt><trkpt lat="44.651443462877246" lon="7.869683442358374"><ele>210.0</ele><time>2026-04-12T12:50:38.999Z</time></trkpt><trkpt lat="44.65140100386935" lon="7.8696137801810195"><ele>210.0</ele><time>2026-04-12T12:50:39.999Z</time></trkpt><trkpt lat="44.65134769733874" lon="7.869553667090614"><ele>210.0</ele><time>2026-04-12T12:50:40.999Z</time></trkpt><trkpt lat="44.651251308587504" lon="7.869454362540972"><ele>210.0</ele><time>2026-04-12T12:50:42.999Z</time></trkpt><trkpt lat="44.651177019690664" lon="7.869307989026859"><ele>210.0</ele><time>2026-04-12T12:50:44.999Z</time></trkpt><trkpt lat="44.65109634594208" lon="7.869188954729953"><ele>210.33333333333334</ele><time>2026-04-12T12:50:46.999Z</time></trkpt><trkpt lat="44.65113827823982" lon="7.869055224735657"><ele>210.66666666666669</ele><time>2026-04-12T12:50:47.999Z</time></trkpt><trkpt lat="44.65113399600158" lon="7.868966782644248"><ele>211.0</ele><time>2026-04-12T12:50:48.999Z</time></trkpt><trkpt lat="44.651134757626224" lon="7.868874633299769"><ele>211.33333333333334</ele><time>2026-04-12T12:50:49.999Z</time></trkpt><trkpt lat="44.651136707974715" lon="7.868781671487376"><ele>211.66666666666669</ele><time>2026-04-12T12:50:50.999Z</time></trkpt><trkpt lat="44.651133214353024" lon="7.86869181044625"><ele>212.0</ele><time>2026-04-12T12:50:51.999Z</time></trkpt><trkpt lat="44.65113007331238" lon="7.86851868045275"><ele>212.8</ele><time>2026-04-12T12:50:53.999Z</time></trkpt><trkpt lat="44.6511214582916" lon="7.868343438790083"><ele>213.6</ele><time>2026-04-12T12:50:55.999Z</time></trkpt><trkpt lat="44.65111282140989" lon="7.868252469048593"><ele>214.40000000000003</ele><time>2026-04-12T12:50:56.999Z</time></trkpt><trkpt lat="44.65109539187913" lon="7.868079833828116"><ele>215.20000000000002</ele><time>2026-04-12T12:50:58.999Z</time></trkpt><trkpt lat="44.65107338017058" lon="7.867913870616988"><ele>216.0</ele><time>2026-04-12T12:51:00.999Z</time></trkpt><trkpt lat="44.65103200844759" lon="7.8677535674171"><ele>216.0</ele><time>2026-04-12T12:51:02.999Z</time></trkpt><trkpt lat="44.65098543128913" lon="7.867606997069775"><ele>216.0</ele><time>2026-04-12T12:51:04.999Z</time></trkpt><trkpt lat="44.65092755051745" lon="7.867464943357678"><ele>216.0</ele><time>2026-04-12T12:51:06.999Z</time></trkpt><trkpt lat="44.65086134071291" lon="7.867331001427519"><ele>216.0</ele><time>2026-04-12T12:51:08.999Z</time></trkpt><trkpt lat="44.65080041787063" lon="7.867191990850186"><ele>216.0</ele><time>2026-04-12T12:51:10.999Z</time></trkpt><trkpt lat="44.650740974504814" lon="7.867054851032287"><ele>216.00000000000003</ele><time>2026-04-12T12:51:12.999Z</time></trkpt><trkpt lat="44.65069617931313" lon="7.866924238042617"><ele>216.00000000000003</ele><time>2026-04-12T12:51:14.999Z</time></trkpt><trkpt lat="44.65067328862133" lon="7.866799219965877"><ele>216.0</ele><time>2026-04-12T12:51:16.999Z</time></trkpt><trkpt lat="44.65067812140469" lon="7.8666732018303875"><ele>216.0</ele><time>2026-04-12T12:51:18.999Z</time></trkpt><trkpt lat="44.65070556989713" lon="7.86654626691145"><ele>216.4</ele><time>2026-04-12T12:51:20.999Z</time></trkpt><trkpt lat="44.65073194047254" lon="7.866430183482254"><ele>216.8</ele><time>2026-04-12T12:51:22.999Z</time></trkpt><trkpt lat="44.65081062825921" lon="7.8663326283715005"><ele>217.20000000000002</ele><time>2026-04-12T12:51:24.999Z</time></trkpt><trkpt lat="44.65090246183686" lon="7.866245316072685"><ele>217.60000000000002</ele><time>2026-04-12T12:51:26.999Z</time></trkpt><trkpt lat="44.65101940721413" lon="7.866185506820967"><ele>218.0</ele><time>2026-04-12T12:51:28.999Z</time></trkpt><trkpt lat="44.651124420136206" lon="7.866133882266043"><ele>217.28571428571428</ele><time>2026-04-12T12:51:30.999Z</time></trkpt><trkpt lat="44.651207023515894" lon="7.866207776992552"><ele>216.57142857142858</ele><time>2026-04-12T12:51:31.999Z</time></trkpt><trkpt lat="44.65127256105846" lon="7.866197013896969"><ele>215.85714285714283</ele><time>2026-04-12T12:51:32.999Z</time></trkpt><trkpt lat="44.651339668889655" lon="7.866187487025857"><ele>215.14285714285714</ele><time>2026-04-12T12:51:33.999Z</time></trkpt><trkpt lat="44.65140518199978" lon="7.866181125293778"><ele>214.42857142857142</ele><time>2026-04-12T12:51:34.999Z</time></trkpt><trkpt lat="44.651474490078144" lon="7.866181230658814"><ele>213.7142857142857</ele><time>2026-04-12T12:51:35.999Z</time></trkpt><trkpt lat="44.65154852532704" lon="7.866176083552475"><ele>213.0</ele><time>2026-04-12T12:51:37Z</time></trkpt><trkpt lat="44.65162757562425" lon="7.86616732773555"><ele>213.0</ele><time>2026-04-12T12:51:38Z</time></trkpt><trkpt lat="44.65169883600457" lon="7.866121206738266"><ele>213.0</ele><time>2026-04-12T12:51:39Z</time></trkpt><trkpt lat="44.65178678815936" lon="7.866146139509713"><ele>213.0</ele><time>2026-04-12T12:51:40Z</time></trkpt><trkpt lat="44.65187074582587" lon="7.866136884405301"><ele>213.0</ele><time>2026-04-12T12:51:41Z</time></trkpt><trkpt lat="44.65195551226799" lon="7.866132040720615"><ele>213.0</ele><time>2026-04-12T12:51:42Z</time></trkpt><trkpt lat="44.652036398522576" lon="7.86612458474059"><ele>213.0</ele><time>2026-04-12T12:51:43Z</time></trkpt><trkpt lat="44.65212117330733" lon="7.866112033559856"><ele>212.8</ele><time>2026-04-12T12:51:44Z</time></trkpt><trkpt lat="44.65220846603118" lon="7.866103778924884"><ele>212.60000000000002</ele><time>2026-04-12T12:51:45Z</time></trkpt><trkpt lat="44.65230606026413" lon="7.866099659772503"><ele>212.39999999999998</ele><time>2026-04-12T12:51:46Z</time></trkpt><trkpt lat="44.652412747806714" lon="7.866095742472816"><ele>212.2</ele><time>2026-04-12T12:51:47Z</time></trkpt><trkpt lat="44.65251029438949" lon="7.86608897598318"><ele>212.0</ele><time>2026-04-12T12:51:48Z</time></trkpt><trkpt lat="44.65260922003425" lon="7.866084971289586"><ele>212.0</ele><time>2026-04-12T12:51:49Z</time></trkpt><trkpt lat="44.652712813807035" lon="7.866080112035833"><ele>212.0</ele><time>2026-04-12T12:51:50Z</time></trkpt><trkpt lat="44.65281301076025" lon="7.866080132584246"><ele>212.0</ele><time>2026-04-12T12:51:51Z</time></trkpt><trkpt lat="44.65291538777213" lon="7.866069821761379"><ele>212.0</ele><time>2026-04-12T12:51:52Z</time></trkpt><trkpt lat="44.65302128833868" lon="7.866063365156289"><ele>212.0</ele><time>2026-04-12T12:51:53Z</time></trkpt><trkpt lat="44.653124280400625" lon="7.866055463826207"><ele>211.8</ele><time>2026-04-12T12:51:54Z</time></trkpt><trkpt lat="44.653229452304515" lon="7.866045421858513"><ele>211.6</ele><time>2026-04-12T12:51:55Z</time></trkpt><trkpt lat="44.65332933780166" lon="7.866019279885942"><ele>211.4</ele><time>2026-04-12T12:51:56Z</time></trkpt><trkpt lat="44.65343421547542" lon="7.866003896416571"><ele>211.20000000000002</ele><time>2026-04-12T12:51:57Z</time></trkpt><trkpt lat="44.6535395518555" lon="7.865985939544657"><ele>211.0</ele><time>2026-04-12T12:51:58Z</time></trkpt><trkpt lat="44.65364428943258" lon="7.86597537586532"><ele>211.20000000000002</ele><time>2026-04-12T12:51:59Z</time></trkpt><trkpt lat="44.65374967972671" lon="7.8659666694652595"><ele>211.4</ele><time>2026-04-12T12:52:00Z</time></trkpt><trkpt lat="44.653855603002924" lon="7.865953558130502"><ele>211.6</ele><time>2026-04-12T12:52:01Z</time></trkpt><trkpt lat="44.65396225182824" lon="7.865937311647268"><ele>211.8</ele><time>2026-04-12T12:52:02Z</time></trkpt><trkpt lat="44.65406442796814" lon="7.865926998151228"><ele>212.0</ele><time>2026-04-12T12:52:03Z</time></trkpt><trkpt lat="44.65416556142051" lon="7.865908151512223"><ele>212.0</ele><time>2026-04-12T12:52:04Z</time></trkpt><trkpt lat="44.65426454626304" lon="7.865895740031651"><ele>212.0</ele><time>2026-04-12T12:52:05Z</time></trkpt><trkpt lat="44.65436157087181" lon="7.865879108414025"><ele>212.0</ele><time>2026-04-12T12:52:06Z</time></trkpt><trkpt lat="44.65445634400464" lon="7.865855173378978"><ele>212.0</ele><time>2026-04-12T12:52:07Z</time></trkpt><trkpt lat="44.65455446536127" lon="7.865825906683952"><ele>212.0</ele><time>2026-04-12T12:52:08Z</time></trkpt><trkpt lat="44.654646373516314" lon="7.865793002213303"><ele>211.2</ele><time>2026-04-12T12:52:09Z</time></trkpt><trkpt lat="44.654737432915894" lon="7.865755296298139"><ele>210.39999999999998</ele><time>2026-04-12T12:52:10Z</time></trkpt><trkpt lat="44.65483006912466" lon="7.8657207354558665"><ele>209.60000000000002</ele><time>2026-04-12T12:52:11Z</time></trkpt><trkpt lat="44.654915268456925" lon="7.865662529471113"><ele>208.8</ele><time>2026-04-12T12:52:12Z</time></trkpt><trkpt lat="44.65499961389639" lon="7.8656081659731365"><ele>208.0</ele><time>2026-04-12T12:52:13Z</time></trkpt><trkpt lat="44.65508217011484" lon="7.865550095080686"><ele>208.0</ele><time>2026-04-12T12:52:14Z</time></trkpt><trkpt lat="44.655161562374246" lon="7.865491873115563"><ele>208.0</ele><time>2026-04-12T12:52:15Z</time></trkpt><trkpt lat="44.65524715154124" lon="7.865435807971393"><ele>208.0</ele><time>2026-04-12T12:52:16Z</time></trkpt><trkpt lat="44.65533058430804" lon="7.865375543770018"><ele>208.0</ele><time>2026-04-12T12:52:17Z</time></trkpt><trkpt lat="44.655407444626405" lon="7.865311520590413"><ele>208.0</ele><time>2026-04-12T12:52:18Z</time></trkpt><trkpt lat="44.65548085097899" lon="7.865244519477448"><ele>207.83333333333331</ele><time>2026-04-12T12:52:19Z</time></trkpt><trkpt lat="44.655551462366404" lon="7.865179099068748"><ele>207.66666666666666</ele><time>2026-04-12T12:52:20Z</time></trkpt><trkpt lat="44.65562254623354" lon="7.865107902625714"><ele>207.5</ele><time>2026-04-12T12:52:21Z</time></trkpt><trkpt lat="44.65568482556418" lon="7.865035050413696"><ele>207.33333333333331</ele><time>2026-04-12T12:52:22Z</time></trkpt><trkpt lat="44.65574150344897" lon="7.864962894370754"><ele>207.16666666666666</ele><time>2026-04-12T12:52:23Z</time></trkpt><trkpt lat="44.65579831011323" lon="7.864891708520175"><ele>207.0</ele><time>2026-04-12T12:52:24Z</time></trkpt><trkpt lat="44.655850341985776" lon="7.864819432749759"><ele>207.00000000000003</ele><time>2026-04-12T12:52:25Z</time></trkpt><trkpt lat="44.655902096164944" lon="7.864744021570801"><ele>207.0</ele><time>2026-04-12T12:52:26Z</time></trkpt><trkpt lat="44.65595029936395" lon="7.86466387058826"><ele>207.0</ele><time>2026-04-12T12:52:27Z</time></trkpt><trkpt lat="44.655999671685386" lon="7.8645826055926795"><ele>207.0</ele><time>2026-04-12T12:52:27.999Z</time></trkpt><trkpt lat="44.656048913347455" lon="7.864502269669286"><ele>207.0</ele><time>2026-04-12T12:52:28.999Z</time></trkpt><trkpt lat="44.65609903330094" lon="7.864423495853759"><ele>207.00000000000003</ele><time>2026-04-12T12:52:29.999Z</time></trkpt><trkpt lat="44.656142359749225" lon="7.864340763984025"><ele>207.0</ele><time>2026-04-12T12:52:30.999Z</time></trkpt><trkpt lat="44.65618385869436" lon="7.864257030319975"><ele>207.14285714285717</ele><time>2026-04-12T12:52:31.999Z</time></trkpt><trkpt lat="44.65622347338973" lon="7.8641728706605765"><ele>207.28571428571428</ele><time>2026-04-12T12:52:32.999Z</time></trkpt><trkpt lat="44.65626157605962" lon="7.864089250244957"><ele>207.42857142857144</ele><time>2026-04-12T12:52:33.999Z</time></trkpt><trkpt lat="44.6562960587363" lon="7.86400857255252"><ele>207.57142857142858</ele><time>2026-04-12T12:52:34.999Z</time></trkpt><trkpt lat="44.65633050833556" lon="7.86392509303985"><ele>207.71428571428572</ele><time>2026-04-12T12:52:35.999Z</time></trkpt><trkpt lat="44.65636838550285" lon="7.863843899249426"><ele>207.85714285714286</ele><time>2026-04-12T12:52:36.999Z</time></trkpt><trkpt lat="44.65639955419712" lon="7.863758084012297"><ele>208.0</ele><time>2026-04-12T12:52:37.999Z</time></trkpt><trkpt lat="44.65642441400816" lon="7.863666514595727"><ele>208.0</ele><time>2026-04-12T12:52:38.999Z</time></trkpt><trkpt lat="44.65645287651103" lon="7.863575498863207"><ele>208.0</ele><time>2026-04-12T12:52:39.999Z</time></trkpt><trkpt lat="44.656478557506794" lon="7.863486455829134"><ele>208.0</ele><time>2026-04-12T12:52:40.999Z</time></trkpt><trkpt lat="44.656504594937935" lon="7.863396714320996"><ele>208.0</ele><time>2026-04-12T12:52:41.999Z</time></trkpt><trkpt lat="44.65652640276995" lon="7.863298862552918"><ele>208.0</ele><time>2026-04-12T12:52:42.999Z</time></trkpt><trkpt lat="44.65655154048064" lon="7.863202989253528"><ele>208.0</ele><time>2026-04-12T12:52:43.999Z</time></trkpt><trkpt lat="44.65657418495812" lon="7.863104353737143"><ele>208.0</ele><time>2026-04-12T12:52:44.999Z</time></trkpt><trkpt lat="44.65659028274827" lon="7.863009204847874"><ele>208.57142857142856</ele><time>2026-04-12T12:52:45.999Z</time></trkpt><trkpt lat="44.656600420975266" lon="7.8629058746331255"><ele>209.14285714285717</ele><time>2026-04-12T12:52:46.999Z</time></trkpt><trkpt lat="44.656614762150525" lon="7.862799635364232"><ele>209.71428571428572</ele><time>2026-04-12T12:52:47.999Z</time></trkpt><trkpt lat="44.65662845343199" lon="7.8626962998502"><ele>210.28571428571428</ele><time>2026-04-12T12:52:48.999Z</time></trkpt><trkpt lat="44.65663776106459" lon="7.86259217069753"><ele>210.85714285714283</ele><time>2026-04-12T12:52:49.999Z</time></trkpt><trkpt lat="44.656645330840114" lon="7.862489516263785"><ele>211.42857142857144</ele><time>2026-04-12T12:52:50.999Z</time></trkpt><trkpt lat="44.656651726088995" lon="7.862386082339009"><ele>212.0</ele><time>2026-04-12T12:52:51.999Z</time></trkpt><trkpt lat="44.65665671695672" lon="7.862280365425857"><ele>212.57142857142858</ele><time>2026-04-12T12:52:52.999Z</time></trkpt><trkpt lat="44.65666633999645" lon="7.862177191613458"><ele>213.14285714285714</ele><time>2026-04-12T12:52:53.999Z</time></trkpt><trkpt lat="44.65667742254212" lon="7.862072799766958"><ele>213.71428571428572</ele><time>2026-04-12T12:52:54.999Z</time></trkpt><trkpt lat="44.656683712326746" lon="7.861973936624146"><ele>214.28571428571428</ele><time>2026-04-12T12:52:55.999Z</time></trkpt><trkpt lat="44.65669059141933" lon="7.861876087009582"><ele>214.85714285714283</ele><time>2026-04-12T12:52:56.999Z</time></trkpt><trkpt lat="44.656696363054294" lon="7.861768551915069"><ele>215.42857142857142</ele><time>2026-04-12T12:52:57.999Z</time></trkpt><trkpt lat="44.65670593743137" lon="7.861662415434205"><ele>216.0</ele><time>2026-04-12T12:52:58.999Z</time></trkpt><trkpt lat="44.656712407899306" lon="7.861559212304487"><ele>216.14285714285714</ele><time>2026-04-12T12:52:59.999Z</time></trkpt><trkpt lat="44.65671881440963" lon="7.861454049085142"><ele>216.28571428571428</ele><time>2026-04-12T12:53:00.999Z</time></trkpt><trkpt lat="44.65672568191447" lon="7.86135295918062"><ele>216.42857142857144</ele><time>2026-04-12T12:53:01.999Z</time></trkpt><trkpt lat="44.65673365325878" lon="7.861252443670419"><ele>216.57142857142856</ele><time>2026-04-12T12:53:02.999Z</time></trkpt><trkpt lat="44.656741585666715" lon="7.861155537290497"><ele>216.71428571428572</ele><time>2026-04-12T12:53:03.999Z</time></trkpt><trkpt lat="44.65674801897706" lon="7.861058343798971"><ele>216.85714285714286</ele><time>2026-04-12T12:53:04.999Z</time></trkpt><trkpt lat="44.656754612336144" lon="7.860958829101482"><ele>217.0</ele><time>2026-04-12T12:53:05.999Z</time></trkpt><trkpt lat="44.65676146807566" lon="7.860863611338406"><ele>217.42857142857142</ele><time>2026-04-12T12:53:06.999Z</time></trkpt><trkpt lat="44.65676970618303" lon="7.860764686923139"><ele>217.85714285714286</ele><time>2026-04-12T12:53:07.999Z</time></trkpt><trkpt lat="44.65677480648009" lon="7.860663814013224"><ele>218.28571428571428</ele><time>2026-04-12T12:53:08.999Z</time></trkpt><trkpt lat="44.656781457961294" lon="7.860561031409441"><ele>218.71428571428572</ele><time>2026-04-12T12:53:09.999Z</time></trkpt><trkpt lat="44.65678934572953" lon="7.860460441697444"><ele>219.14285714285714</ele><time>2026-04-12T12:53:10.999Z</time></trkpt><trkpt lat="44.65679808677838" lon="7.8603592206066715"><ele>219.57142857142856</ele><time>2026-04-12T12:53:11.999Z</time></trkpt><trkpt lat="44.656807063659045" lon="7.860254557492064"><ele>220.0</ele><time>2026-04-12T12:53:12.999Z</time></trkpt><trkpt lat="44.656813979152616" lon="7.8601467599960975"><ele>220.33333333333331</ele><time>2026-04-12T12:53:13.999Z</time></trkpt><trkpt lat="44.65682369971562" lon="7.860040479669615"><ele>220.66666666666666</ele><time>2026-04-12T12:53:14.999Z</time></trkpt><trkpt lat="44.65683276889896" lon="7.859933126482527"><ele>221.0</ele><time>2026-04-12T12:53:15.999Z</time></trkpt><trkpt lat="44.65684215993727" lon="7.8598221330608125"><ele>221.33333333333331</ele><time>2026-04-12T12:53:16.999Z</time></trkpt><trkpt lat="44.656850671025026" lon="7.859714616526732"><ele>221.66666666666666</ele><time>2026-04-12T12:53:17.999Z</time></trkpt><trkpt lat="44.656858335537834" lon="7.859602130006438"><ele>222.0</ele><time>2026-04-12T12:53:18.999Z</time></trkpt><trkpt lat="44.656866076060055" lon="7.859495615145203"><ele>222.0</ele><time>2026-04-12T12:53:19.999Z</time></trkpt><trkpt lat="44.65687343564044" lon="7.859376705042299"><ele>222.0</ele><time>2026-04-12T12:53:20.999Z</time></trkpt><trkpt lat="44.65688133638938" lon="7.859264840718808"><ele>222.0</ele><time>2026-04-12T12:53:21.999Z</time></trkpt><trkpt lat="44.65688954624316" lon="7.859154856145817"><ele>222.0</ele><time>2026-04-12T12:53:22.999Z</time></trkpt><trkpt lat="44.65689748127375" lon="7.859040969666255"><ele>222.0</ele><time>2026-04-12T12:53:23.999Z</time></trkpt><trkpt lat="44.65690568210014" lon="7.858928723790754"><ele>222.0</ele><time>2026-04-12T12:53:24.999Z</time></trkpt><trkpt lat="44.656916003167844" lon="7.858815308616839"><ele>221.66666666666666</ele><time>2026-04-12T12:53:25.999Z</time></trkpt><trkpt lat="44.65692531020367" lon="7.858702945530358"><ele>221.33333333333331</ele><time>2026-04-12T12:53:26.999Z</time></trkpt><trkpt lat="44.6569309540556" lon="7.858590897953433"><ele>221.0</ele><time>2026-04-12T12:53:27.999Z</time></trkpt><trkpt lat="44.65694378829945" lon="7.858476060663938"><ele>220.66666666666666</ele><time>2026-04-12T12:53:28.999Z</time></trkpt><trkpt lat="44.65695269355497" lon="7.8583590623097335"><ele>220.33333333333331</ele><time>2026-04-12T12:53:29.999Z</time></trkpt><trkpt lat="44.656958145948714" lon="7.858247068070323"><ele>220.0</ele><time>2026-04-12T12:53:30.999Z</time></trkpt><trkpt lat="44.65696446480733" lon="7.858141232156148"><ele>218.66666666666666</ele><time>2026-04-12T12:53:31.999Z</time></trkpt><trkpt lat="44.656967071681954" lon="7.858029500341549"><ele>217.33333333333331</ele><time>2026-04-12T12:53:32.999Z</time></trkpt><trkpt lat="44.6569797096953" lon="7.857918186066377"><ele>216.0</ele><time>2026-04-12T12:53:33.999Z</time></trkpt><trkpt lat="44.65698640136056" lon="7.857810371401937"><ele>214.66666666666669</ele><time>2026-04-12T12:53:34.999Z</time></trkpt><trkpt lat="44.65699556056211" lon="7.8577005480183"><ele>213.33333333333334</ele><time>2026-04-12T12:53:35.999Z</time></trkpt><trkpt lat="44.65700198999235" lon="7.857593220529981"><ele>212.0</ele><time>2026-04-12T12:53:36.999Z</time></trkpt><trkpt lat="44.6570084005599" lon="7.857481619185685"><ele>212.00000000000003</ele><time>2026-04-12T12:53:37.999Z</time></trkpt><trkpt lat="44.65701591970021" lon="7.857371073082905"><ele>212.0</ele><time>2026-04-12T12:53:38.999Z</time></trkpt><trkpt lat="44.65702298138047" lon="7.857257941587809"><ele>212.0</ele><time>2026-04-12T12:53:39.999Z</time></trkpt><trkpt lat="44.65702907429032" lon="7.8571475547764305"><ele>212.0</ele><time>2026-04-12T12:53:40.999Z</time></trkpt><trkpt lat="44.65703740584217" lon="7.857036202907353"><ele>212.00000000000003</ele><time>2026-04-12T12:53:41.999Z</time></trkpt><trkpt lat="44.65704909992735" lon="7.8569313812821235"><ele>212.0</ele><time>2026-04-12T12:53:43Z</time></trkpt><trkpt lat="44.65705876251505" lon="7.856822594740749"><ele>212.00000000000003</ele><time>2026-04-12T12:53:44Z</time></trkpt><trkpt lat="44.657073798743475" lon="7.856712196867581"><ele>212.0</ele><time>2026-04-12T12:53:45Z</time></trkpt><trkpt lat="44.65709164735592" lon="7.856606802422764"><ele>212.0</ele><time>2026-04-12T12:53:46Z</time></trkpt><trkpt lat="44.65712777455022" lon="7.856501848126286"><ele>212.0</ele><time>2026-04-12T12:53:47Z</time></trkpt><trkpt lat="44.65716624235259" lon="7.856406201151034"><ele>212.00000000000003</ele><time>2026-04-12T12:53:48Z</time></trkpt><trkpt lat="44.6572133079628" lon="7.856319927367959"><ele>212.0</ele><time>2026-04-12T12:53:49Z</time></trkpt><trkpt lat="44.65727308381531" lon="7.856245272453709"><ele>212.00000000000003</ele><time>2026-04-12T12:53:50Z</time></trkpt><trkpt lat="44.65733804455662" lon="7.856180594856381"><ele>212.0</ele><time>2026-04-12T12:53:51Z</time></trkpt><trkpt lat="44.65741224679074" lon="7.856132006538141"><ele>212.0</ele><time>2026-04-12T12:53:52Z</time></trkpt><trkpt lat="44.657483246536195" lon="7.856093839797345"><ele>212.0</ele><time>2026-04-12T12:53:53Z</time></trkpt><trkpt lat="44.65756202047867" lon="7.856046068407372"><ele>212.00000000000003</ele><time>2026-04-12T12:53:54Z</time></trkpt><trkpt lat="44.657639815628976" lon="7.8560189996583585"><ele>212.0</ele><time>2026-04-12T12:53:55Z</time></trkpt><trkpt lat="44.657713116012864" lon="7.855992384067708"><ele>211.66666666666669</ele><time>2026-04-12T12:53:56Z</time></trkpt><trkpt lat="44.65779183632066" lon="7.855971957167549"><ele>211.33333333333334</ele><time>2026-04-12T12:53:57Z</time></trkpt><trkpt lat="44.657871128502045" lon="7.855943188873347"><ele>211.0</ele><time>2026-04-12T12:53:58Z</time></trkpt><trkpt lat="44.657944727498105" lon="7.855906114842055"><ele>210.66666666666669</ele><time>2026-04-12T12:53:59Z</time></trkpt><trkpt lat="44.6580234908451" lon="7.855876284303962"><ele>210.33333333333334</ele><time>2026-04-12T12:54:00Z</time></trkpt><trkpt lat="44.65810473526064" lon="7.855847599694585"><ele>210.0</ele><time>2026-04-12T12:54:01Z</time></trkpt><trkpt lat="44.65818206924513" lon="7.855816463614617"><ele>210.0</ele><time>2026-04-12T12:54:02Z</time></trkpt><trkpt lat="44.65826335342282" lon="7.85579423211364"><ele>210.0</ele><time>2026-04-12T12:54:03Z</time></trkpt><trkpt lat="44.65834227933871" lon="7.855766098331659"><ele>210.0</ele><time>2026-04-12T12:54:04Z</time></trkpt><trkpt lat="44.658415471802684" lon="7.8557287798412165"><ele>210.0</ele><time>2026-04-12T12:54:05Z</time></trkpt><trkpt lat="44.65849544001472" lon="7.855699368066562"><ele>210.0</ele><time>2026-04-12T12:54:06Z</time></trkpt><trkpt lat="44.658570919235" lon="7.8556710164261485"><ele>210.0</ele><time>2026-04-12T12:54:07Z</time></trkpt><trkpt lat="44.658645091979956" lon="7.855641549060555"><ele>208.83333333333334</ele><time>2026-04-12T12:54:08Z</time></trkpt><trkpt lat="44.65872388703961" lon="7.855611252884407"><ele>207.66666666666669</ele><time>2026-04-12T12:54:09Z</time></trkpt><trkpt lat="44.65880075223958" lon="7.855584116174751"><ele>206.5</ele><time>2026-04-12T12:54:10Z</time></trkpt><trkpt lat="44.65887871009733" lon="7.85555586463025"><ele>205.33333333333334</ele><time>2026-04-12T12:54:11Z</time></trkpt><trkpt lat="44.65895415268013" lon="7.855525302792672"><ele>204.16666666666669</ele><time>2026-04-12T12:54:12Z</time></trkpt><trkpt lat="44.65902701647861" lon="7.855490380645911"><ele>203.0</ele><time>2026-04-12T12:54:13Z</time></trkpt><trkpt lat="44.659101641204906" lon="7.855457287701237"><ele>203.00000000000003</ele><time>2026-04-12T12:54:14Z</time></trkpt><trkpt lat="44.65918171096481" lon="7.85542472118811"><ele>203.0</ele><time>2026-04-12T12:54:15Z</time></trkpt><trkpt lat="44.659260239143805" lon="7.8553930411353035"><ele>203.0</ele><time>2026-04-12T12:54:16Z</time></trkpt><trkpt lat="44.65933486391309" lon="7.855365171590243"><ele>203.0</ele><time>2026-04-12T12:54:17Z</time></trkpt><trkpt lat="44.659412315013434" lon="7.855335706946653"><ele>203.00000000000003</ele><time>2026-04-12T12:54:18Z</time></trkpt><trkpt lat="44.65949054961841" lon="7.855306412545049"><ele>203.0</ele><time>2026-04-12T12:54:19Z</time></trkpt><trkpt lat="44.65956772501712" lon="7.85527823412241"><ele>203.33333333333334</ele><time>2026-04-12T12:54:20Z</time></trkpt><trkpt lat="44.65964517839037" lon="7.855243587962203"><ele>203.66666666666669</ele><time>2026-04-12T12:54:21Z</time></trkpt><trkpt lat="44.6597250121331" lon="7.855214918908316"><ele>204.0</ele><time>2026-04-12T12:54:22Z</time></trkpt><trkpt lat="44.659802417996225" lon="7.855182160415834"><ele>204.33333333333331</ele><time>2026-04-12T12:54:23Z</time></trkpt><trkpt lat="44.65988338503379" lon="7.85514946744485"><ele>204.66666666666666</ele><time>2026-04-12T12:54:24Z</time></trkpt><trkpt lat="44.65996217660778" lon="7.85511947915325"><ele>205.0</ele><time>2026-04-12T12:54:25Z</time></trkpt><trkpt lat="44.660038158140935" lon="7.8550895573663855"><ele>205.49999999999997</ele><time>2026-04-12T12:54:26Z</time></trkpt><trkpt lat="44.660117696715" lon="7.855058980335075"><ele>206.0</ele><time>2026-04-12T12:54:27Z</time></trkpt><trkpt lat="44.660194063081285" lon="7.855032733592896"><ele>206.5</ele><time>2026-04-12T12:54:28Z</time></trkpt><trkpt lat="44.660268636771896" lon="7.855005979055703"><ele>207.0</ele><time>2026-04-12T12:54:29Z</time></trkpt><trkpt lat="44.660339160244696" lon="7.854973455026941"><ele>207.49999999999997</ele><time>2026-04-12T12:54:30Z</time></trkpt><trkpt lat="44.66042236464532" lon="7.854933157265635"><ele>208.0</ele><time>2026-04-12T12:54:31Z</time></trkpt><trkpt lat="44.66050408314537" lon="7.854895699408522"><ele>207.99999999999997</ele><time>2026-04-12T12:54:32Z</time></trkpt><trkpt lat="44.66057564877824" lon="7.854865101342199"><ele>208.0</ele><time>2026-04-12T12:54:33Z</time></trkpt><trkpt lat="44.660651398080404" lon="7.8548346837709"><ele>208.0</ele><time>2026-04-12T12:54:34Z</time></trkpt><trkpt lat="44.660725111778405" lon="7.854816417247556"><ele>208.0</ele><time>2026-04-12T12:54:35Z</time></trkpt><trkpt lat="44.66080278205603" lon="7.85478677722594"><ele>207.99999999999997</ele><time>2026-04-12T12:54:36Z</time></trkpt><trkpt lat="44.66088103451124" lon="7.854758049024327"><ele>208.0</ele><time>2026-04-12T12:54:37Z</time></trkpt><trkpt lat="44.660960437050505" lon="7.854746132097603"><ele>208.0</ele><time>2026-04-12T12:54:38Z</time></trkpt><trkpt lat="44.66103467313051" lon="7.854727241262442"><ele>208.0</ele><time>2026-04-12T12:54:39Z</time></trkpt><trkpt lat="44.66111005749724" lon="7.854719813011629"><ele>208.0</ele><time>2026-04-12T12:54:40Z</time></trkpt><trkpt lat="44.66118269836526" lon="7.854710187148372"><ele>208.0</ele><time>2026-04-12T12:54:41Z</time></trkpt><trkpt lat="44.66125178449052" lon="7.854701000051723"><ele>208.0</ele><time>2026-04-12T12:54:42Z</time></trkpt><trkpt lat="44.66132187014898" lon="7.854694382588493"><ele>208.0</ele><time>2026-04-12T12:54:43Z</time></trkpt><trkpt lat="44.66138893993234" lon="7.854688028224344"><ele>208.0</ele><time>2026-04-12T12:54:44Z</time></trkpt><trkpt lat="44.661455774754714" lon="7.854673688717064"><ele>209.28571428571428</ele><time>2026-04-12T12:54:45Z</time></trkpt><trkpt lat="44.66152065092327" lon="7.8546624662855695"><ele>210.57142857142858</ele><time>2026-04-12T12:54:46Z</time></trkpt><trkpt lat="44.66158906172716" lon="7.854656293666597"><ele>211.85714285714286</ele><time>2026-04-12T12:54:47Z</time></trkpt><trkpt lat="44.661657361139426" lon="7.8546503003067984"><ele>213.14285714285714</ele><time>2026-04-12T12:54:48Z</time></trkpt><trkpt lat="44.661721735762285" lon="7.854637333204059"><ele>214.42857142857144</ele><time>2026-04-12T12:54:49Z</time></trkpt><trkpt lat="44.66178574921379" lon="7.854630694111678"><ele>215.71428571428572</ele><time>2026-04-12T12:54:50Z</time></trkpt><trkpt lat="44.66185340773471" lon="7.854620755089247"><ele>217.0</ele><time>2026-04-12T12:54:51Z</time></trkpt><trkpt lat="44.661969358808314" lon="7.854618133363732"><ele>217.0</ele><time>2026-04-12T12:54:52.999Z</time></trkpt><trkpt lat="44.662077534439966" lon="7.85464568181815"><ele>217.0</ele><time>2026-04-12T12:54:54.999Z</time></trkpt><trkpt lat="44.66216349765536" lon="7.854721430223327"><ele>217.0</ele><time>2026-04-12T12:54:56.999Z</time></trkpt><trkpt lat="44.66223198993858" lon="7.854828679178966"><ele>217.0</ele><time>2026-04-12T12:54:58.999Z</time></trkpt><trkpt lat="44.66230902949544" lon="7.85489955636325"><ele>217.0</ele><time>2026-04-12T12:55:00.999Z</time></trkpt><trkpt lat="44.66240012700726" lon="7.8548835629513265"><ele>216.99999999999997</ele><time>2026-04-12T12:55:02.999Z</time></trkpt><trkpt lat="44.662469922647894" lon="7.854851759985756"><ele>217.0</ele><time>2026-04-12T12:55:04.999Z</time></trkpt><trkpt lat="44.66253458360588" lon="7.854790166058977"><ele>217.0</ele><time>2026-04-12T12:55:08.999Z</time></trkpt><trkpt lat="44.662642555739296" lon="7.854891383165181"><ele>217.0</ele><time>2026-04-12T12:55:10.999Z</time></trkpt><trkpt lat="44.66270391721459" lon="7.8549180493151125"><ele>216.99999999999997</ele><time>2026-04-12T12:55:13.999Z</time></trkpt><trkpt lat="44.66274012040661" lon="7.854991678634287"><ele>217.0</ele><time>2026-04-12T12:55:20.999Z</time></trkpt><trkpt lat="44.6627003743989" lon="7.8549224272683125"><ele>217.0</ele><time>2026-04-12T12:57:45.999Z</time></trkpt><trkpt lat="44.66263926177371" lon="7.854890212852002"><ele>217.0</ele><time>2026-04-12T12:57:50.999Z</time></trkpt><trkpt lat="44.662580211597955" lon="7.854844942543671"><ele>217.0</ele><time>2026-04-12T12:57:53.999Z</time></trkpt><trkpt lat="44.662677706527944" lon="7.854638717270185"><ele>217.0</ele><time>2026-04-12T12:57:59Z</time></trkpt><trkpt lat="44.66275219340781" lon="7.854585973807521"><ele>217.0</ele><time>2026-04-12T12:58:02Z</time></trkpt><trkpt lat="44.662838873183944" lon="7.854584855371413"><ele>217.0</ele><time>2026-04-12T12:58:05Z</time></trkpt><trkpt lat="44.66294623329116" lon="7.854580998329045"><ele>217.0</ele><time>2026-04-12T12:58:08Z</time></trkpt><trkpt lat="44.66303031789678" lon="7.854580402203234"><ele>217.0</ele><time>2026-04-12T12:58:10Z</time></trkpt><trkpt lat="44.663130278656" lon="7.854582123365872"><ele>217.0</ele><time>2026-04-12T12:58:12Z</time></trkpt><trkpt lat="44.66324133424448" lon="7.854575904933808"><ele>217.0</ele><time>2026-04-12T12:58:14Z</time></trkpt><trkpt lat="44.6633591899509" lon="7.854583269193896"><ele>217.0</ele><time>2026-04-12T12:58:16Z</time></trkpt><trkpt lat="44.663472194455245" lon="7.854585575304489"><ele>217.0</ele><time>2026-04-12T12:58:18Z</time></trkpt><trkpt lat="44.66357904773159" lon="7.854580024325917"><ele>217.0</ele><time>2026-04-12T12:58:20Z</time></trkpt><trkpt lat="44.66368350657524" lon="7.854582957770761"><ele>217.0</ele><time>2026-04-12T12:58:22Z</time></trkpt><trkpt lat="44.66378470256207" lon="7.8545835492505365"><ele>217.0</ele><time>2026-04-12T12:58:24Z</time></trkpt><trkpt lat="44.66388941272105" lon="7.854584759168423"><ele>217.6</ele><time>2026-04-12T12:58:26Z</time></trkpt><trkpt lat="44.663988441215665" lon="7.8545917479647915"><ele>218.2</ele><time>2026-04-12T12:58:28Z</time></trkpt><trkpt lat="44.66409424335745" lon="7.854592251781222"><ele>218.8</ele><time>2026-04-12T12:58:30Z</time></trkpt><trkpt lat="44.66420245931453" lon="7.8545966258950095"><ele>219.4</ele><time>2026-04-12T12:58:32Z</time></trkpt><trkpt lat="44.66431143902723" lon="7.854599591018566"><ele>220.0</ele><time>2026-04-12T12:58:34Z</time></trkpt><trkpt lat="44.66442728310044" lon="7.85459416328132"><ele>219.75</ele><time>2026-04-12T12:58:36Z</time></trkpt><trkpt lat="44.66454486708055" lon="7.854598847632809"><ele>219.5</ele><time>2026-04-12T12:58:38Z</time></trkpt><trkpt lat="44.664659094983556" lon="7.854581397273399"><ele>219.25</ele><time>2026-04-12T12:58:40Z</time></trkpt><trkpt lat="44.66477591241163" lon="7.854587934629798"><ele>219.0</ele><time>2026-04-12T12:58:42Z</time></trkpt><trkpt lat="44.66489253321081" lon="7.854591541301834"><ele>219.0</ele><time>2026-04-12T12:58:44Z</time></trkpt><trkpt lat="44.665005543641485" lon="7.854599554102124"><ele>219.0</ele><time>2026-04-12T12:58:46Z</time></trkpt><trkpt lat="44.665116408500964" lon="7.854597805816993"><ele>219.0</ele><time>2026-04-12T12:58:48Z</time></trkpt><trkpt lat="44.665228240844854" lon="7.854598370837842"><ele>219.0</ele><time>2026-04-12T12:58:50Z</time></trkpt><trkpt lat="44.665343029239345" lon="7.85459109141912"><ele>219.0</ele><time>2026-04-12T12:58:52Z</time></trkpt><trkpt lat="44.665453331226836" lon="7.854604059131566"><ele>218.99999999999997</ele><time>2026-04-12T12:58:54Z</time></trkpt><trkpt lat="44.665564036805776" lon="7.85460761227247"><ele>218.99999999999997</ele><time>2026-04-12T12:58:56Z</time></trkpt><trkpt lat="44.66567665055317" lon="7.854615002448655"><ele>219.0</ele><time>2026-04-12T12:58:58Z</time></trkpt><trkpt lat="44.665790788028225" lon="7.854618509629157"><ele>219.0</ele><time>2026-04-12T12:59:00Z</time></trkpt><trkpt lat="44.66588962060687" lon="7.854620955389387"><ele>219.0</ele><time>2026-04-12T12:59:02Z</time></trkpt><trkpt lat="44.66598424120293" lon="7.854618560446246"><ele>218.99999999999997</ele><time>2026-04-12T12:59:04Z</time></trkpt><trkpt lat="44.66608261688572" lon="7.854619939161278"><ele>218.99999999999997</ele><time>2026-04-12T12:59:06Z</time></trkpt><trkpt lat="44.66618662865296" lon="7.854624192213556"><ele>219.0</ele><time>2026-04-12T12:59:07.999Z</time></trkpt><trkpt lat="44.6662929805195" lon="7.854610886619084"><ele>219.0</ele><time>2026-04-12T12:59:09.999Z</time></trkpt><trkpt lat="44.66639380714093" lon="7.854636934580365"><ele>218.5</ele><time>2026-04-12T12:59:11.999Z</time></trkpt><trkpt lat="44.666499428327896" lon="7.8546756168970955"><ele>218.0</ele><time>2026-04-12T12:59:13.999Z</time></trkpt><trkpt lat="44.666607977399025" lon="7.854671400862913"><ele>217.5</ele><time>2026-04-12T12:59:15.999Z</time></trkpt><trkpt lat="44.666714253577446" lon="7.8545901741153825"><ele>217.0</ele><time>2026-04-12T12:59:17.999Z</time></trkpt><trkpt lat="44.66681538525146" lon="7.8545103033274035"><ele>217.0</ele><time>2026-04-12T12:59:19.999Z</time></trkpt><trkpt lat="44.666927167083244" lon="7.854460151754946"><ele>217.0</ele><time>2026-04-12T12:59:21.999Z</time></trkpt><trkpt lat="44.66704321976833" lon="7.854440194109294"><ele>217.0</ele><time>2026-04-12T12:59:23.999Z</time></trkpt><trkpt lat="44.667162943176024" lon="7.854420031425354"><ele>217.0</ele><time>2026-04-12T12:59:25.999Z</time></trkpt><trkpt lat="44.66728180310934" lon="7.854401009803742"><ele>217.25</ele><time>2026-04-12T12:59:27.999Z</time></trkpt><trkpt lat="44.667401300594214" lon="7.854381839115651"><ele>217.5</ele><time>2026-04-12T12:59:29.999Z</time></trkpt><trkpt lat="44.66751564796273" lon="7.854359674667643"><ele>217.75</ele><time>2026-04-12T12:59:31.999Z</time></trkpt><trkpt lat="44.66763064272724" lon="7.854342129776349"><ele>218.0</ele><time>2026-04-12T12:59:33.999Z</time></trkpt><trkpt lat="44.66774997289289" lon="7.8543216795463"><ele>218.33333333333334</ele><time>2026-04-12T12:59:35.999Z</time></trkpt><trkpt lat="44.66787343963983" lon="7.854303825764493"><ele>218.66666666666669</ele><time>2026-04-12T12:59:37.999Z</time></trkpt><trkpt lat="44.667936917414735" lon="7.854292806052898"><ele>219.0</ele><time>2026-04-12T12:59:38.999Z</time></trkpt><trkpt lat="44.66800340415792" lon="7.8542821140053665"><ele>219.33333333333331</ele><time>2026-04-12T12:59:39.999Z</time></trkpt><trkpt lat="44.66806995564617" lon="7.854269590831081"><ele>219.66666666666666</ele><time>2026-04-12T12:59:40.999Z</time></trkpt><trkpt lat="44.6681368116617" lon="7.854257774266745"><ele>220.0</ele><time>2026-04-12T12:59:41.999Z</time></trkpt><trkpt lat="44.66820043613253" lon="7.85424364"><ele>220.0</ele><time>2026-04-12T12:59:42.999Z</time></trkpt><trkpt lat="44.66832160098308" lon="7.854226667342878"><ele>220.0</ele><time>2026-04-12T12:59:44.999Z</time></trkpt><trkpt lat="44.66838558369541" lon="7.854216927817418"><ele>220.0</ele><time>2026-04-12T12:59:45.999Z</time></trkpt><trkpt lat="44.668448725344234" lon="7.854206413783993"><ele>220.0</ele><time>2026-04-12T12:59:46.999Z</time></trkpt><trkpt lat="44.66857123439334" lon="7.854179509904847"><ele>220.0</ele><time>2026-04-12T12:59:48.999Z</time></trkpt><trkpt lat="44.66869088810654" lon="7.854152655325385"><ele>220.0</ele><time>2026-04-12T12:59:50.999Z</time></trkpt><trkpt lat="44.668807150640326" lon="7.854126615521211"><ele>220.0</ele><time>2026-04-12T12:59:52.999Z</time></trkpt><trkpt lat="44.66892605009116" lon="7.854123073470707"><ele>220.0</ele><time>2026-04-12T12:59:54.999Z</time></trkpt><trkpt lat="44.66904147638592" lon="7.8541044074508415"><ele>220.0</ele><time>2026-04-12T12:59:56.999Z</time></trkpt><trkpt lat="44.66916392301557" lon="7.854081797312352"><ele>219.99999999999997</ele><time>2026-04-12T12:59:58.999Z</time></trkpt><trkpt lat="44.66928560520682" lon="7.854056262601063"><ele>220.0</ele><time>2026-04-12T13:00:01Z</time></trkpt><trkpt lat="44.66940799652018" lon="7.8540424122392425"><ele>220.0</ele><time>2026-04-12T13:00:03Z</time></trkpt><trkpt lat="44.66947418128424" lon="7.854031066480212"><ele>220.0</ele><time>2026-04-12T13:00:04Z</time></trkpt><trkpt lat="44.66953927440076" lon="7.854019507382797"><ele>219.99999999999997</ele><time>2026-04-12T13:00:05Z</time></trkpt><trkpt lat="44.6696047462535" lon="7.854010591401752"><ele>220.0</ele><time>2026-04-12T13:00:06Z</time></trkpt><trkpt lat="44.669667296400476" lon="7.8539996271901105"><ele>219.99999999999997</ele><time>2026-04-12T13:00:07Z</time></trkpt><trkpt lat="44.669731091437164" lon="7.853989860862446"><ele>220.0</ele><time>2026-04-12T13:00:08Z</time></trkpt><trkpt lat="44.66979722674123" lon="7.853979088784076"><ele>220.0</ele><time>2026-04-12T13:00:09Z</time></trkpt><trkpt lat="44.669860957614134" lon="7.853970311825097"><ele>220.0</ele><time>2026-04-12T13:00:10Z</time></trkpt><trkpt lat="44.66992732390156" lon="7.853961748428778"><ele>220.0</ele><time>2026-04-12T13:00:11Z</time></trkpt><trkpt lat="44.66999679818615" lon="7.8539492600454"><ele>219.99999999999997</ele><time>2026-04-12T13:00:12Z</time></trkpt><trkpt lat="44.6700653458128" lon="7.853937365780963"><ele>220.0</ele><time>2026-04-12T13:00:13Z</time></trkpt><trkpt lat="44.67013611239985" lon="7.853924862703247"><ele>219.99999999999997</ele><time>2026-04-12T13:00:14Z</time></trkpt><trkpt lat="44.67020458512521" lon="7.853914199792852"><ele>220.0</ele><time>2026-04-12T13:00:15Z</time></trkpt><trkpt lat="44.670333050326725" lon="7.853898319353054"><ele>220.0</ele><time>2026-04-12T13:00:17Z</time></trkpt><trkpt lat="44.670398831153776" lon="7.853884410105343"><ele>220.0</ele><time>2026-04-12T13:00:18Z</time></trkpt><trkpt lat="44.67046318444239" lon="7.853874592912311"><ele>219.99999999999997</ele><time>2026-04-12T13:00:19Z</time></trkpt><trkpt lat="44.670531970481115" lon="7.853867243004803"><ele>220.0</ele><time>2026-04-12T13:00:20Z</time></trkpt><trkpt lat="44.670598181826264" lon="7.8538568577595065"><ele>219.8</ele><time>2026-04-12T13:00:21Z</time></trkpt><trkpt lat="44.67066559690483" lon="7.85384405632222"><ele>219.6</ele><time>2026-04-12T13:00:22Z</time></trkpt><trkpt lat="44.67073934764857" lon="7.85382889949765"><ele>219.39999999999998</ele><time>2026-04-12T13:00:23Z</time></trkpt><trkpt lat="44.67086352861259" lon="7.853806026563196"><ele>219.2</ele><time>2026-04-12T13:00:25Z</time></trkpt><trkpt lat="44.67092773364746" lon="7.853799614702601"><ele>219.0</ele><time>2026-04-12T13:00:26Z</time></trkpt><trkpt lat="44.67105196616658" lon="7.853776065348835"><ele>220.25</ele><time>2026-04-12T13:00:28Z</time></trkpt><trkpt lat="44.671175587736144" lon="7.8537559892743705"><ele>221.5</ele><time>2026-04-12T13:00:30Z</time></trkpt><trkpt lat="44.67129676534853" lon="7.853734944558488"><ele>222.75</ele><time>2026-04-12T13:00:32Z</time></trkpt><trkpt lat="44.671415420854466" lon="7.853712663276036"><ele>224.0</ele><time>2026-04-12T13:00:34Z</time></trkpt><trkpt lat="44.671529477595" lon="7.853698077843533"><ele>224.0</ele><time>2026-04-12T13:00:36Z</time></trkpt><trkpt lat="44.6716420010874" lon="7.853680313465025"><ele>223.99999999999997</ele><time>2026-04-12T13:00:38Z</time></trkpt><trkpt lat="44.671752738823685" lon="7.853656649572412"><ele>223.99999999999997</ele><time>2026-04-12T13:00:40Z</time></trkpt><trkpt lat="44.671863998315544" lon="7.853641211781282"><ele>224.0</ele><time>2026-04-12T13:00:42Z</time></trkpt><trkpt lat="44.67196955353062" lon="7.853626279440383"><ele>224.0</ele><time>2026-04-12T13:00:44Z</time></trkpt><trkpt lat="44.67206736558911" lon="7.853603900363059"><ele>224.79999999999998</ele><time>2026-04-12T13:00:46Z</time></trkpt><trkpt lat="44.67217106582608" lon="7.853588596327319"><ele>225.59999999999997</ele><time>2026-04-12T13:00:48Z</time></trkpt><trkpt lat="44.67226911641468" lon="7.853574999624849"><ele>226.4</ele><time>2026-04-12T13:00:50Z</time></trkpt><trkpt lat="44.67236486683664" lon="7.853560656639853"><ele>227.2</ele><time>2026-04-12T13:00:52Z</time></trkpt><trkpt lat="44.67244880304938" lon="7.853524532790051"><ele>228.0</ele><time>2026-04-12T13:00:54Z</time></trkpt><trkpt lat="44.67254315265942" lon="7.853525629878005"><ele>228.0</ele><time>2026-04-12T13:00:56Z</time></trkpt><trkpt lat="44.67264383140025" lon="7.853507549260166"><ele>228.0</ele><time>2026-04-12T13:00:58Z</time></trkpt><trkpt lat="44.67273981386536" lon="7.853476282976731"><ele>228.0</ele><time>2026-04-12T13:01:00Z</time></trkpt><trkpt lat="44.67285677219802" lon="7.853466928352243"><ele>228.0</ele><time>2026-04-12T13:01:02Z</time></trkpt><trkpt lat="44.67296719167769" lon="7.853452353630638"><ele>228.0</ele><time>2026-04-12T13:01:04Z</time></trkpt><trkpt lat="44.67303563737147" lon="7.8534499275960705"><ele>227.25</ele><time>2026-04-12T13:01:05Z</time></trkpt><trkpt lat="44.673142044638475" lon="7.85342647737252"><ele>226.5</ele><time>2026-04-12T13:01:07Z</time></trkpt><trkpt lat="44.67326069391861" lon="7.8533980503706715"><ele>225.75</ele><time>2026-04-12T13:01:09Z</time></trkpt><trkpt lat="44.673375062881014" lon="7.853388566785232"><ele>225.0</ele><time>2026-04-12T13:01:11Z</time></trkpt><trkpt lat="44.67349964801143" lon="7.853356569222479"><ele>225.0</ele><time>2026-04-12T13:01:13Z</time></trkpt><trkpt lat="44.67356288293692" lon="7.853338999987189"><ele>225.0</ele><time>2026-04-12T13:01:14Z</time></trkpt><trkpt lat="44.67368565962617" lon="7.853330677322481"><ele>225.0</ele><time>2026-04-12T13:01:15.999Z</time></trkpt><trkpt lat="44.673805174456625" lon="7.85331338753449"><ele>225.0</ele><time>2026-04-12T13:01:17.999Z</time></trkpt><trkpt lat="44.67392953176017" lon="7.8532960013729465"><ele>225.0</ele><time>2026-04-12T13:01:19.999Z</time></trkpt><trkpt lat="44.6740541630676" lon="7.8532761120411285"><ele>224.8571428571429</ele><time>2026-04-12T13:01:21.999Z</time></trkpt><trkpt lat="44.674118355351915" lon="7.853269408301682"><ele>224.71428571428572</ele><time>2026-04-12T13:01:22.999Z</time></trkpt><trkpt lat="44.674184280037615" lon="7.853258500712897"><ele>224.57142857142858</ele><time>2026-04-12T13:01:23.999Z</time></trkpt><trkpt lat="44.674250332779245" lon="7.8532458547668815"><ele>224.42857142857144</ele><time>2026-04-12T13:01:24.999Z</time></trkpt><trkpt lat="44.67431411081295" lon="7.853234158561466"><ele>224.28571428571428</ele><time>2026-04-12T13:01:25.999Z</time></trkpt><trkpt lat="44.67437795298626" lon="7.853226054513408"><ele>224.14285714285714</ele><time>2026-04-12T13:01:26.999Z</time></trkpt><trkpt lat="44.67444207043553" lon="7.853216605139638"><ele>224.0</ele><time>2026-04-12T13:01:27.999Z</time></trkpt><trkpt lat="44.67450716526423" lon="7.853204037823519"><ele>223.57142857142858</ele><time>2026-04-12T13:01:28.999Z</time></trkpt><trkpt lat="44.67457090073995" lon="7.853194206786045"><ele>223.14285714285714</ele><time>2026-04-12T13:01:29.999Z</time></trkpt><trkpt lat="44.67463526229045" lon="7.853182989132134"><ele>222.71428571428572</ele><time>2026-04-12T13:01:30.999Z</time></trkpt><trkpt lat="44.674699952405405" lon="7.85317284689399"><ele>222.28571428571428</ele><time>2026-04-12T13:01:31.999Z</time></trkpt><trkpt lat="44.674765452556585" lon="7.853158354477614"><ele>221.85714285714286</ele><time>2026-04-12T13:01:32.999Z</time></trkpt><trkpt lat="44.67482911587416" lon="7.8531469610027855"><ele>221.42857142857144</ele><time>2026-04-12T13:01:33.999Z</time></trkpt><trkpt lat="44.674891971178816" lon="7.853136923653168"><ele>221.0</ele><time>2026-04-12T13:01:34.999Z</time></trkpt><trkpt lat="44.67495761466442" lon="7.853125675663514"><ele>221.00000000000003</ele><time>2026-04-12T13:01:35.999Z</time></trkpt><trkpt lat="44.6750223515058" lon="7.853116206893171"><ele>221.0</ele><time>2026-04-12T13:01:36.999Z</time></trkpt><trkpt lat="44.67508871848752" lon="7.85310686005512"><ele>221.0</ele><time>2026-04-12T13:01:37.999Z</time></trkpt><trkpt lat="44.675156177070555" lon="7.853095711721925"><ele>221.0</ele><time>2026-04-12T13:01:38.999Z</time></trkpt><trkpt lat="44.67521976263771" lon="7.853084893376361"><ele>221.0</ele><time>2026-04-12T13:01:39.999Z</time></trkpt><trkpt lat="44.6752849474464" lon="7.853070952452851"><ele>221.00000000000003</ele><time>2026-04-12T13:01:40.999Z</time></trkpt><trkpt lat="44.67535122934341" lon="7.853057692616006"><ele>221.0</ele><time>2026-04-12T13:01:41.999Z</time></trkpt><trkpt lat="44.67541805930113" lon="7.853048114314664"><ele>221.00000000000003</ele><time>2026-04-12T13:01:42.999Z</time></trkpt><trkpt lat="44.67548264403653" lon="7.853037475699373"><ele>221.0</ele><time>2026-04-12T13:01:43.999Z</time></trkpt><trkpt lat="44.675548069313535" lon="7.853026267931298"><ele>221.0</ele><time>2026-04-12T13:01:44.999Z</time></trkpt><trkpt lat="44.67561419926266" lon="7.853017529229319"><ele>221.0</ele><time>2026-04-12T13:01:45.999Z</time></trkpt><trkpt lat="44.67568131075817" lon="7.8530085527875775"><ele>221.0</ele><time>2026-04-12T13:01:46.999Z</time></trkpt><trkpt lat="44.6757524958792" lon="7.852985878008547"><ele>221.00000000000003</ele><time>2026-04-12T13:01:47.999Z</time></trkpt><trkpt lat="44.67582223314318" lon="7.85297792465144"><ele>221.0</ele><time>2026-04-12T13:01:48.999Z</time></trkpt><trkpt lat="44.67589004424381" lon="7.852970394990034"><ele>221.00000000000003</ele><time>2026-04-12T13:01:49.999Z</time></trkpt><trkpt lat="44.67596013848867" lon="7.852955496565898"><ele>221.0</ele><time>2026-04-12T13:01:50.999Z</time></trkpt><trkpt lat="44.6760292921853" lon="7.852941593325211"><ele>221.0</ele><time>2026-04-12T13:01:51.999Z</time></trkpt><trkpt lat="44.67609766980387" lon="7.85292751404682"><ele>221.0</ele><time>2026-04-12T13:01:52.999Z</time></trkpt><trkpt lat="44.676165005919664" lon="7.8529162978841445"><ele>221.0</ele><time>2026-04-12T13:01:53.999Z</time></trkpt><trkpt lat="44.676231383290705" lon="7.852909544679254"><ele>221.00000000000003</ele><time>2026-04-12T13:01:54.999Z</time></trkpt><trkpt lat="44.676296358495364" lon="7.852898604319534"><ele>221.0</ele><time>2026-04-12T13:01:55.999Z</time></trkpt><trkpt lat="44.67636348215514" lon="7.852886357504747"><ele>221.14285714285717</ele><time>2026-04-12T13:01:56.999Z</time></trkpt><trkpt lat="44.67642875435001" lon="7.852878920461255"><ele>221.28571428571428</ele><time>2026-04-12T13:01:57.999Z</time></trkpt><trkpt lat="44.67649212337387" lon="7.852869618367038"><ele>221.42857142857144</ele><time>2026-04-12T13:01:58.999Z</time></trkpt><trkpt lat="44.676555506505416" lon="7.852859488119612"><ele>221.57142857142858</ele><time>2026-04-12T13:01:59.999Z</time></trkpt><trkpt lat="44.676619544784515" lon="7.852848189074872"><ele>221.71428571428572</ele><time>2026-04-12T13:02:00.999Z</time></trkpt><trkpt lat="44.67668313402045" lon="7.85283635435159"><ele>221.85714285714286</ele><time>2026-04-12T13:02:01.999Z</time></trkpt><trkpt lat="44.6767473347403" lon="7.852829514867242"><ele>222.0</ele><time>2026-04-12T13:02:02.999Z</time></trkpt><trkpt lat="44.6768731741947" lon="7.85280934013637"><ele>222.14285714285714</ele><time>2026-04-12T13:02:04.999Z</time></trkpt><trkpt lat="44.67693705770187" lon="7.85279891454549"><ele>222.2857142857143</ele><time>2026-04-12T13:02:05.999Z</time></trkpt><trkpt lat="44.67700278830906" lon="7.852788644673719"><ele>222.42857142857144</ele><time>2026-04-12T13:02:07Z</time></trkpt><trkpt lat="44.67707023801463" lon="7.85278026863508"><ele>222.57142857142856</ele><time>2026-04-12T13:02:08Z</time></trkpt><trkpt lat="44.677136407251965" lon="7.852770042103186"><ele>222.71428571428572</ele><time>2026-04-12T13:02:09Z</time></trkpt><trkpt lat="44.67720269478516" lon="7.852755811772292"><ele>222.85714285714286</ele><time>2026-04-12T13:02:10Z</time></trkpt><trkpt lat="44.67726871187501" lon="7.8527508092517815"><ele>223.0</ele><time>2026-04-12T13:02:11Z</time></trkpt><trkpt lat="44.677334922414424" lon="7.852736871907435"><ele>223.0</ele><time>2026-04-12T13:02:12Z</time></trkpt><trkpt lat="44.67739848019689" lon="7.852722801945335"><ele>223.0</ele><time>2026-04-12T13:02:13Z</time></trkpt><trkpt lat="44.67746441435487" lon="7.852711534014354"><ele>223.0</ele><time>2026-04-12T13:02:14Z</time></trkpt><trkpt lat="44.67752710138081" lon="7.852702127949343"><ele>223.0</ele><time>2026-04-12T13:02:15Z</time></trkpt><trkpt lat="44.67759710016993" lon="7.852689548780622"><ele>223.0</ele><time>2026-04-12T13:02:16Z</time></trkpt><trkpt lat="44.6776669446444" lon="7.852676447778427"><ele>223.0</ele><time>2026-04-12T13:02:17Z</time></trkpt><trkpt lat="44.67773204888482" lon="7.8526662585768445"><ele>223.0</ele><time>2026-04-12T13:02:18Z</time></trkpt><trkpt lat="44.677799514763336" lon="7.852657886413748"><ele>222.57142857142856</ele><time>2026-04-12T13:02:19Z</time></trkpt><trkpt lat="44.67786733612481" lon="7.852646773542025"><ele>222.14285714285714</ele><time>2026-04-12T13:02:20Z</time></trkpt><trkpt lat="44.67793225840587" lon="7.852635019390475"><ele>221.71428571428572</ele><time>2026-04-12T13:02:21Z</time></trkpt><trkpt lat="44.6779976154978" lon="7.852621516094686"><ele>221.28571428571428</ele><time>2026-04-12T13:02:22Z</time></trkpt><trkpt lat="44.67806229105525" lon="7.852608131499665"><ele>220.85714285714286</ele><time>2026-04-12T13:02:23Z</time></trkpt><trkpt lat="44.67812965921246" lon="7.852594573482839"><ele>220.42857142857142</ele><time>2026-04-12T13:02:24Z</time></trkpt><trkpt lat="44.678195241815686" lon="7.8525853024926295"><ele>220.0</ele><time>2026-04-12T13:02:25Z</time></trkpt><trkpt lat="44.678259457986" lon="7.852572739869546"><ele>219.99999999999997</ele><time>2026-04-12T13:02:26Z</time></trkpt><trkpt lat="44.67832340755246" lon="7.8525637663133026"><ele>220.0</ele><time>2026-04-12T13:02:27Z</time></trkpt><trkpt lat="44.67839048434577" lon="7.852553141372633"><ele>220.0</ele><time>2026-04-12T13:02:28Z</time></trkpt><trkpt lat="44.67845579441546" lon="7.852540058417598"><ele>220.0</ele><time>2026-04-12T13:02:29Z</time></trkpt><trkpt lat="44.67852163489886" lon="7.852529916790258"><ele>220.0</ele><time>2026-04-12T13:02:30Z</time></trkpt><trkpt lat="44.678590301458655" lon="7.852518155581963"><ele>219.99999999999997</ele><time>2026-04-12T13:02:31Z</time></trkpt><trkpt lat="44.67865654354445" lon="7.852506515438641"><ele>220.0</ele><time>2026-04-12T13:02:32Z</time></trkpt><trkpt lat="44.678723935529035" lon="7.852496986682083"><ele>219.99999999999997</ele><time>2026-04-12T13:02:33Z</time></trkpt><trkpt lat="44.67879304945719" lon="7.852485397294718"><ele>220.0</ele><time>2026-04-12T13:02:34Z</time></trkpt><trkpt lat="44.67886167635684" lon="7.8524740434199485"><ele>220.0</ele><time>2026-04-12T13:02:35Z</time></trkpt><trkpt lat="44.6789325208362" lon="7.852462870637647"><ele>220.0</ele><time>2026-04-12T13:02:36Z</time></trkpt><trkpt lat="44.67900245331018" lon="7.852453800078026"><ele>220.0</ele><time>2026-04-12T13:02:37Z</time></trkpt><trkpt lat="44.67907117807877" lon="7.85243740311159"><ele>219.99999999999997</ele><time>2026-04-12T13:02:38Z</time></trkpt><trkpt lat="44.679136681020054" lon="7.852423942811264"><ele>220.0</ele><time>2026-04-12T13:02:39Z</time></trkpt><trkpt lat="44.679200040715294" lon="7.852416220025947"><ele>219.99999999999997</ele><time>2026-04-12T13:02:40Z</time></trkpt><trkpt lat="44.679266545003514" lon="7.852411932238674"><ele>220.0</ele><time>2026-04-12T13:02:41Z</time></trkpt><trkpt lat="44.679329357453376" lon="7.852403264834717"><ele>220.0</ele><time>2026-04-12T13:02:42Z</time></trkpt><trkpt lat="44.67944908946601" lon="7.852384654930664"><ele>220.0</ele><time>2026-04-12T13:02:44Z</time></trkpt><trkpt lat="44.679513814062155" lon="7.852379689602122"><ele>220.0</ele><time>2026-04-12T13:02:45Z</time></trkpt><trkpt lat="44.67957641568417" lon="7.852369947155939"><ele>219.99999999999997</ele><time>2026-04-12T13:02:46Z</time></trkpt><trkpt lat="44.67964348118123" lon="7.852362868782857"><ele>220.0</ele><time>2026-04-12T13:02:47Z</time></trkpt><trkpt lat="44.67970659515369" lon="7.8523535153468185"><ele>219.6</ele><time>2026-04-12T13:02:48Z</time></trkpt><trkpt lat="44.6797734139296" lon="7.852344499535347"><ele>219.2</ele><time>2026-04-12T13:02:49Z</time></trkpt><trkpt lat="44.6798406694855" lon="7.852330094219866"><ele>218.8</ele><time>2026-04-12T13:02:50Z</time></trkpt><trkpt lat="44.67996292194074" lon="7.852306351725244"><ele>218.4</ele><time>2026-04-12T13:02:52Z</time></trkpt><trkpt lat="44.680078662720746" lon="7.852288655031248"><ele>218.0</ele><time>2026-04-12T13:02:54Z</time></trkpt><trkpt lat="44.68019040451563" lon="7.8522605532232115"><ele>217.8</ele><time>2026-04-12T13:02:56Z</time></trkpt><trkpt lat="44.68029406487134" lon="7.852238312267398"><ele>217.60000000000002</ele><time>2026-04-12T13:02:58Z</time></trkpt><trkpt lat="44.680394667883085" lon="7.852223226732537"><ele>217.39999999999998</ele><time>2026-04-12T13:03:00Z</time></trkpt><trkpt lat="44.68050422487911" lon="7.852204380218765"><ele>217.2</ele><time>2026-04-12T13:03:02Z</time></trkpt><trkpt lat="44.68061721569683" lon="7.852184955772078"><ele>217.0</ele><time>2026-04-12T13:03:04Z</time></trkpt><trkpt lat="44.68072657694718" lon="7.852167164310864"><ele>217.0</ele><time>2026-04-12T13:03:06Z</time></trkpt><trkpt lat="44.680839941615226" lon="7.852142066835347"><ele>217.0</ele><time>2026-04-12T13:03:07.999Z</time></trkpt><trkpt lat="44.6809521215375" lon="7.852127124215708"><ele>217.0</ele><time>2026-04-12T13:03:09.999Z</time></trkpt><trkpt lat="44.68106617073028" lon="7.852104940051423"><ele>217.0</ele><time>2026-04-12T13:03:11.999Z</time></trkpt><trkpt lat="44.681179133117304" lon="7.85208957935141"><ele>217.8</ele><time>2026-04-12T13:03:13.999Z</time></trkpt><trkpt lat="44.68128892069009" lon="7.852073865973149"><ele>218.6</ele><time>2026-04-12T13:03:15.999Z</time></trkpt><trkpt lat="44.68139987099978" lon="7.852049441236464"><ele>219.40000000000003</ele><time>2026-04-12T13:03:17.999Z</time></trkpt><trkpt lat="44.681508209153876" lon="7.852039212534488"><ele>220.20000000000002</ele><time>2026-04-12T13:03:19.999Z</time></trkpt><trkpt lat="44.68161967678364" lon="7.852017721201042"><ele>221.0</ele><time>2026-04-12T13:03:21.999Z</time></trkpt><trkpt lat="44.681729063996315" lon="7.851998306960101"><ele>221.0</ele><time>2026-04-12T13:03:23.999Z</time></trkpt><trkpt lat="44.681839743799124" lon="7.8519786496168695"><ele>221.00000000000003</ele><time>2026-04-12T13:03:25.999Z</time></trkpt><trkpt lat="44.68194623282526" lon="7.851959155688372"><ele>221.00000000000003</ele><time>2026-04-12T13:03:27.999Z</time></trkpt><trkpt lat="44.68203780022675" lon="7.851950408355969"><ele>221.0</ele><time>2026-04-12T13:03:29.999Z</time></trkpt><trkpt lat="44.682120957221414" lon="7.851939411477693"><ele>221.0</ele><time>2026-04-12T13:03:31.999Z</time></trkpt><trkpt lat="44.682194025759735" lon="7.8519288742781015"><ele>221.16666666666669</ele><time>2026-04-12T13:03:33.999Z</time></trkpt><trkpt lat="44.682286901875905" lon="7.851921180401447"><ele>221.33333333333334</ele><time>2026-04-12T13:03:36.999Z</time></trkpt><trkpt lat="44.682375741118584" lon="7.851897561374168"><ele>221.5</ele><time>2026-04-12T13:03:39.999Z</time></trkpt><trkpt lat="44.68244701031821" lon="7.851892637246504"><ele>221.66666666666669</ele><time>2026-04-12T13:03:41.999Z</time></trkpt><trkpt lat="44.682519308275175" lon="7.851881288222178"><ele>221.83333333333334</ele><time>2026-04-12T13:03:43.999Z</time></trkpt><trkpt lat="44.682585087717555" lon="7.8518716292629875"><ele>222.0</ele><time>2026-04-12T13:03:45.999Z</time></trkpt><trkpt lat="44.68265231504069" lon="7.851864034530348"><ele>222.0</ele><time>2026-04-12T13:03:47.999Z</time></trkpt><trkpt lat="44.682716146684356" lon="7.851855573771665"><ele>222.0</ele><time>2026-04-12T13:03:49.999Z</time></trkpt><trkpt lat="44.682808879849084" lon="7.851835134258684"><ele>222.0</ele><time>2026-04-12T13:03:52.999Z</time></trkpt><trkpt lat="44.68290214658415" lon="7.851810577527055"><ele>222.0</ele><time>2026-04-12T13:03:55.999Z</time></trkpt><trkpt lat="44.68299057873398" lon="7.851802656574914"><ele>222.0</ele><time>2026-04-12T13:03:58.999Z</time></trkpt><trkpt lat="44.68307408386606" lon="7.851797323783374"><ele>222.0</ele><time>2026-04-12T13:04:01.999Z</time></trkpt><trkpt lat="44.68314757366521" lon="7.851790223264709"><ele>224.16666666666666</ele><time>2026-04-12T13:04:04.999Z</time></trkpt><trkpt lat="44.68322849539749" lon="7.851771615473978"><ele>226.33333333333331</ele><time>2026-04-12T13:04:07.999Z</time></trkpt><trkpt lat="44.683313786374995" lon="7.851746229611718"><ele>228.5</ele><time>2026-04-12T13:04:10.999Z</time></trkpt><trkpt lat="44.68338119773752" lon="7.851736932702556"><ele>230.66666666666666</ele><time>2026-04-12T13:04:14Z</time></trkpt><trkpt lat="44.68345629764124" lon="7.8517327346839805"><ele>232.83333333333331</ele><time>2026-04-12T13:04:17Z</time></trkpt><trkpt lat="44.68352862226536" lon="7.851720194289179"><ele>235.0</ele><time>2026-04-12T13:04:20Z</time></trkpt><trkpt lat="44.6835994177753" lon="7.851708499281597"><ele>236.16666666666666</ele><time>2026-04-12T13:04:23Z</time></trkpt><trkpt lat="44.68366983075664" lon="7.851693042357523"><ele>237.33333333333331</ele><time>2026-04-12T13:04:26Z</time></trkpt><trkpt lat="44.68375468992424" lon="7.851685084195344"><ele>238.5</ele><time>2026-04-12T13:04:29Z</time></trkpt><trkpt lat="44.68382279756284" lon="7.851682979750976"><ele>239.66666666666669</ele><time>2026-04-12T13:04:32Z</time></trkpt><trkpt lat="44.683898559381596" lon="7.851676350643044"><ele>240.83333333333334</ele><time>2026-04-12T13:04:35Z</time></trkpt><trkpt lat="44.68397175826751" lon="7.851647962552045"><ele>242.0</ele><time>2026-04-12T13:04:38Z</time></trkpt><trkpt lat="44.68404895835808" lon="7.851653605484716"><ele>242.0</ele><time>2026-04-12T13:04:41Z</time></trkpt><trkpt lat="44.68412086165654" lon="7.8516590419860295"><ele>241.99999999999997</ele><time>2026-04-12T13:04:44Z</time></trkpt><trkpt lat="44.68419253653508" lon="7.851656249576323"><ele>242.0</ele><time>2026-04-12T13:04:47Z</time></trkpt><trkpt lat="44.68426758218573" lon="7.851654020863666"><ele>242.0</ele><time>2026-04-12T13:04:50Z</time></trkpt><trkpt lat="44.68433982261208" lon="7.851654514734353"><ele>241.99999999999997</ele><time>2026-04-12T13:04:53Z</time></trkpt><trkpt lat="44.68441872403472" lon="7.8516614071955875"><ele>242.0</ele><time>2026-04-12T13:04:56Z</time></trkpt><trkpt lat="44.68448618196916" lon="7.851669438909624"><ele>242.0</ele><time>2026-04-12T13:04:59Z</time></trkpt><trkpt lat="44.684559078955665" lon="7.851673604708592"><ele>241.66666666666669</ele><time>2026-04-12T13:05:02Z</time></trkpt><trkpt lat="44.684637662411575" lon="7.851688723356436"><ele>241.33333333333334</ele><time>2026-04-12T13:05:05Z</time></trkpt><trkpt lat="44.68471465108085" lon="7.851706859179012"><ele>241.0</ele><time>2026-04-12T13:05:08Z</time></trkpt><trkpt lat="44.68479086774906" lon="7.851732078101903"><ele>240.66666666666669</ele><time>2026-04-12T13:05:11Z</time></trkpt><trkpt lat="44.684863382556735" lon="7.851747183693263"><ele>240.33333333333334</ele><time>2026-04-12T13:05:14Z</time></trkpt><trkpt lat="44.6849368638296" lon="7.851776316431986"><ele>240.0</ele><time>2026-04-12T13:05:17Z</time></trkpt><trkpt lat="44.685007055729656" lon="7.85180489920448"><ele>240.0</ele><time>2026-04-12T13:05:19.999Z</time></trkpt><trkpt lat="44.68507922718499" lon="7.85183698710451"><ele>240.0</ele><time>2026-04-12T13:05:22.999Z</time></trkpt><trkpt lat="44.68515407656428" lon="7.851870467071359"><ele>240.0</ele><time>2026-04-12T13:05:25.999Z</time></trkpt><trkpt lat="44.68523469363771" lon="7.851914287898771"><ele>240.0</ele><time>2026-04-12T13:05:28.999Z</time></trkpt><trkpt lat="44.685317058349" lon="7.851942953390246"><ele>240.0</ele><time>2026-04-12T13:05:31.999Z</time></trkpt><trkpt lat="44.68538066144043" lon="7.851987237078084"><ele>240.0</ele><time>2026-04-12T13:05:34.999Z</time></trkpt><trkpt lat="44.685451929240365" lon="7.852033772570963"><ele>242.42857142857144</ele><time>2026-04-12T13:05:37.999Z</time></trkpt><trkpt lat="44.68552118305166" lon="7.85207967584397"><ele>244.85714285714283</ele><time>2026-04-12T13:05:40.999Z</time></trkpt><trkpt lat="44.68558287305393" lon="7.852133527080546"><ele>247.28571428571428</ele><time>2026-04-12T13:05:43.999Z</time></trkpt><trkpt lat="44.68564740844669" lon="7.8521862195627055"><ele>249.71428571428572</ele><time>2026-04-12T13:05:46.999Z</time></trkpt><trkpt lat="44.68570746844294" lon="7.85223757503211"><ele>252.14285714285717</ele><time>2026-04-12T13:05:49.999Z</time></trkpt><trkpt lat="44.68578189437634" lon="7.852279362779718"><ele>254.57142857142856</ele><time>2026-04-12T13:05:52.999Z</time></trkpt><trkpt lat="44.68584002998924" lon="7.852334893592001"><ele>257.0</ele><time>2026-04-12T13:05:55.999Z</time></trkpt><trkpt lat="44.68590787776399" lon="7.8523839904452135"><ele>257.0</ele><time>2026-04-12T13:05:58.999Z</time></trkpt><trkpt lat="44.6859725324408" lon="7.85244737261281"><ele>257.0</ele><time>2026-04-12T13:06:02.999Z</time></trkpt><trkpt lat="44.68604386151662" lon="7.852508333404387"><ele>257.0</ele><time>2026-04-12T13:06:06.999Z</time></trkpt><trkpt lat="44.686108501426645" lon="7.852519579417053"><ele>257.0</ele><time>2026-04-12T13:06:09.999Z</time></trkpt><trkpt lat="44.68619495015856" lon="7.852500252275152"><ele>257.0</ele><time>2026-04-12T13:23:59Z</time></trkpt><trkpt lat="44.68618549831694" lon="7.852598314258877"><ele>257.0</ele><time>2026-04-12T13:24:13Z</time></trkpt><trkpt lat="44.68622529096895" lon="7.85268482282167"><ele>257.5</ele><time>2026-04-12T13:24:16Z</time></trkpt><trkpt lat="44.68629013321755" lon="7.852725378112575"><ele>258.0</ele><time>2026-04-12T13:24:19Z</time></trkpt><trkpt lat="44.68636783647137" lon="7.852783025604256"><ele>258.5</ele><time>2026-04-12T13:24:22Z</time></trkpt><trkpt lat="44.686429021090795" lon="7.852849276950033"><ele>259.0</ele><time>2026-04-12T13:24:25Z</time></trkpt><trkpt lat="44.68650700066009" lon="7.85293018076638"><ele>259.5</ele><time>2026-04-12T13:24:28Z</time></trkpt><trkpt lat="44.686555575968434" lon="7.8529981983525605"><ele>260.0</ele><time>2026-04-12T13:24:30Z</time></trkpt><trkpt lat="44.6866110993702" lon="7.853061003259632"><ele>260.00000000000006</ele><time>2026-04-12T13:24:32Z</time></trkpt><trkpt lat="44.686661628680454" lon="7.853115421212696"><ele>260.0</ele><time>2026-04-12T13:24:34Z</time></trkpt><trkpt lat="44.686725667531654" lon="7.85320520620937"><ele>260.0</ele><time>2026-04-12T13:24:37Z</time></trkpt><trkpt lat="44.686778115212576" lon="7.853268390899757"><ele>260.0</ele><time>2026-04-12T13:24:39Z</time></trkpt><trkpt lat="44.686827900493604" lon="7.853348764830054"><ele>260.0</ele><time>2026-04-12T13:24:41Z</time></trkpt><trkpt lat="44.686878591302495" lon="7.853410747017297"><ele>260.00000000000006</ele><time>2026-04-12T13:24:43Z</time></trkpt><trkpt lat="44.68693378152212" lon="7.853479837383679"><ele>260.0</ele><time>2026-04-12T13:24:45Z</time></trkpt><trkpt lat="44.68699202752866" lon="7.853554450502598"><ele>261.33333333333337</ele><time>2026-04-12T13:24:47Z</time></trkpt><trkpt lat="44.687059598194296" lon="7.85364232816136"><ele>262.6666666666667</ele><time>2026-04-12T13:24:49Z</time></trkpt><trkpt lat="44.687114495166796" lon="7.853733375243464"><ele>264.0</ele><time>2026-04-12T13:24:51Z</time></trkpt><trkpt lat="44.68718148022979" lon="7.85380537475456"><ele>265.3333333333333</ele><time>2026-04-12T13:24:53Z</time></trkpt><trkpt lat="44.6872354053591" lon="7.853877247581039"><ele>266.66666666666663</ele><time>2026-04-12T13:24:55Z</time></trkpt><trkpt lat="44.68729232340073" lon="7.853940391811451"><ele>268.0</ele><time>2026-04-12T13:24:57Z</time></trkpt><trkpt lat="44.68734409449717" lon="7.854009022423719"><ele>268.0</ele><time>2026-04-12T13:24:59Z</time></trkpt><trkpt lat="44.68739490790619" lon="7.854077818102303"><ele>268.0</ele><time>2026-04-12T13:25:01Z</time></trkpt><trkpt lat="44.687448708958016" lon="7.854158226305467"><ele>268.0</ele><time>2026-04-12T13:25:03Z</time></trkpt><trkpt lat="44.68750224100361" lon="7.854235722128014"><ele>268.0</ele><time>2026-04-12T13:25:05Z</time></trkpt><trkpt lat="44.68756391554926" lon="7.854313359001523"><ele>268.0</ele><time>2026-04-12T13:25:07Z</time></trkpt><trkpt lat="44.68763634555898" lon="7.8543796289626675"><ele>268.0</ele><time>2026-04-12T13:25:09Z</time></trkpt><trkpt lat="44.68769040903567" lon="7.854451117526594"><ele>269.0</ele><time>2026-04-12T13:25:11Z</time></trkpt><trkpt lat="44.687759674302924" lon="7.854499134888582"><ele>270.0</ele><time>2026-04-12T13:25:13Z</time></trkpt><trkpt lat="44.68781925213418" lon="7.854566017472493"><ele>271.0</ele><time>2026-04-12T13:25:15Z</time></trkpt><trkpt lat="44.687890108552466" lon="7.854628649400556"><ele>272.0</ele><time>2026-04-12T13:25:17Z</time></trkpt><trkpt lat="44.68795631292421" lon="7.854665431733309"><ele>273.0</ele><time>2026-04-12T13:25:19Z</time></trkpt><trkpt lat="44.68801673503683" lon="7.854715108304525"><ele>274.0</ele><time>2026-04-12T13:25:21Z</time></trkpt><trkpt lat="44.68809354425732" lon="7.8547510928215205"><ele>274.00000000000006</ele><time>2026-04-12T13:25:23Z</time></trkpt><trkpt lat="44.688169676867545" lon="7.854794157006482"><ele>274.0</ele><time>2026-04-12T13:25:25Z</time></trkpt><trkpt lat="44.688246118092906" lon="7.854823041139191"><ele>274.0</ele><time>2026-04-12T13:25:27Z</time></trkpt><trkpt lat="44.688311769760865" lon="7.854862966639392"><ele>274.0</ele><time>2026-04-12T13:25:29Z</time></trkpt><trkpt lat="44.68837959291747" lon="7.854891452204481"><ele>274.0</ele><time>2026-04-12T13:25:31Z</time></trkpt><trkpt lat="44.6884531027467" lon="7.854925562350515"><ele>274.00000000000006</ele><time>2026-04-12T13:25:33Z</time></trkpt><trkpt lat="44.68851843928082" lon="7.854950589336733"><ele>274.0</ele><time>2026-04-12T13:25:35Z</time></trkpt><trkpt lat="44.688593848074" lon="7.854982130853942"><ele>274.8333333333333</ele><time>2026-04-12T13:25:37Z</time></trkpt><trkpt lat="44.68866436358734" lon="7.855021218177139"><ele>275.66666666666663</ele><time>2026-04-12T13:25:39Z</time></trkpt><trkpt lat="44.68872703789984" lon="7.855054060338855"><ele>276.5</ele><time>2026-04-12T13:25:41Z</time></trkpt><trkpt lat="44.68880516201031" lon="7.855068537436621"><ele>277.3333333333333</ele><time>2026-04-12T13:25:43Z</time></trkpt><trkpt lat="44.68889128911761" lon="7.855087263123797"><ele>278.1666666666667</ele><time>2026-04-12T13:25:45Z</time></trkpt><trkpt lat="44.68896118225491" lon="7.855111697496976"><ele>279.0</ele><time>2026-04-12T13:25:47Z</time></trkpt><trkpt lat="44.68903772110844" lon="7.855133189434291"><ele>279.3333333333333</ele><time>2026-04-12T13:25:49Z</time></trkpt><trkpt lat="44.68911593858901" lon="7.855147112216921"><ele>279.6666666666667</ele><time>2026-04-12T13:25:51Z</time></trkpt><trkpt lat="44.68919617680619" lon="7.855157030780238"><ele>280.0</ele><time>2026-04-12T13:25:53Z</time></trkpt><trkpt lat="44.68927303900407" lon="7.8551737984100205"><ele>280.33333333333337</ele><time>2026-04-12T13:25:55Z</time></trkpt><trkpt lat="44.689347934129614" lon="7.855181311698341"><ele>280.6666666666667</ele><time>2026-04-12T13:25:57Z</time></trkpt><trkpt lat="44.68942342036364" lon="7.855187556136712"><ele>281.0</ele><time>2026-04-12T13:25:59Z</time></trkpt><trkpt lat="44.689501312939825" lon="7.855187959162698"><ele>281.0</ele><time>2026-04-12T13:26:01Z</time></trkpt><trkpt lat="44.68958475186056" lon="7.855186176375957"><ele>281.0</ele><time>2026-04-12T13:26:03Z</time></trkpt><trkpt lat="44.689673354839506" lon="7.855178467509431"><ele>281.0</ele><time>2026-04-12T13:26:05Z</time></trkpt><trkpt lat="44.689755617169816" lon="7.855162373460758"><ele>281.0</ele><time>2026-04-12T13:26:07Z</time></trkpt><trkpt lat="44.68983697582394" lon="7.855138320990555"><ele>281.0</ele><time>2026-04-12T13:26:09Z</time></trkpt><trkpt lat="44.689914352256" lon="7.8551194822975905"><ele>281.0</ele><time>2026-04-12T13:26:11Z</time></trkpt><trkpt lat="44.68999475978096" lon="7.855094473506561"><ele>280.83333333333337</ele><time>2026-04-12T13:26:13Z</time></trkpt><trkpt lat="44.690069764734886" lon="7.855059712851428"><ele>280.6666666666667</ele><time>2026-04-12T13:26:15Z</time></trkpt><trkpt lat="44.690150968662664" lon="7.855043127409137"><ele>280.5</ele><time>2026-04-12T13:26:17Z</time></trkpt><trkpt lat="44.69021779653291" lon="7.855012382165679"><ele>280.3333333333333</ele><time>2026-04-12T13:26:19Z</time></trkpt><trkpt lat="44.690285859298946" lon="7.85497395305948"><ele>280.16666666666663</ele><time>2026-04-12T13:26:21Z</time></trkpt><trkpt lat="44.69036288521447" lon="7.854940382967478"><ele>280.0</ele><time>2026-04-12T13:26:23Z</time></trkpt><trkpt lat="44.690452565603714" lon="7.854886518496456"><ele>280.0</ele><time>2026-04-12T13:26:25Z</time></trkpt><trkpt lat="44.69054017952109" lon="7.854846131571523"><ele>280.0</ele><time>2026-04-12T13:26:27Z</time></trkpt><trkpt lat="44.6906171237665" lon="7.854846560991182"><ele>280.0</ele><time>2026-04-12T13:26:29Z</time></trkpt><trkpt lat="44.690695448699344" lon="7.8548458397503556"><ele>280.0</ele><time>2026-04-12T13:26:31Z</time></trkpt><trkpt lat="44.69080304441628" lon="7.854852191921859"><ele>280.0</ele><time>2026-04-12T13:26:33Z</time></trkpt><trkpt lat="44.69087231709576" lon="7.854868885005067"><ele>280.0</ele><time>2026-04-12T13:26:34Z</time></trkpt><trkpt lat="44.69098177466279" lon="7.854893823047911"><ele>280.0</ele><time>2026-04-12T13:26:36Z</time></trkpt><trkpt lat="44.691044665860346" lon="7.854910458871671"><ele>280.0</ele><time>2026-04-12T13:26:37Z</time></trkpt><trkpt lat="44.6911582185314" lon="7.854918417669691"><ele>280.0</ele><time>2026-04-12T13:26:39Z</time></trkpt><trkpt lat="44.691221967342265" lon="7.854905882591922"><ele>280.0</ele><time>2026-04-12T13:26:40Z</time></trkpt><trkpt lat="44.69128872077148" lon="7.854895808953732"><ele>280.0</ele><time>2026-04-12T13:26:41Z</time></trkpt><trkpt lat="44.69140854293219" lon="7.854901281631441"><ele>280.0</ele><time>2026-04-12T13:26:43Z</time></trkpt><trkpt lat="44.691495676363026" lon="7.854893371125292"><ele>280.0</ele><time>2026-04-12T13:26:45Z</time></trkpt><trkpt lat="44.691595944169414" lon="7.854930572605826"><ele>280.0</ele><time>2026-04-12T13:26:47Z</time></trkpt><trkpt lat="44.69172529425665" lon="7.854939845573483"><ele>280.0</ele><time>2026-04-12T13:26:49Z</time></trkpt><trkpt lat="44.691833277622365" lon="7.854957094769017"><ele>280.0</ele><time>2026-04-12T13:26:51Z</time></trkpt><trkpt lat="44.691934219309836" lon="7.854973454102518"><ele>280.0</ele><time>2026-04-12T13:26:53Z</time></trkpt><trkpt lat="44.692032950505876" lon="7.855002526992759"><ele>279.8333333333333</ele><time>2026-04-12T13:26:55Z</time></trkpt><trkpt lat="44.692113653332484" lon="7.8550169578098"><ele>279.66666666666663</ele><time>2026-04-12T13:26:57Z</time></trkpt><trkpt lat="44.69219010972569" lon="7.855037958228414"><ele>279.5</ele><time>2026-04-12T13:27:00Z</time></trkpt><trkpt lat="44.692252518612285" lon="7.855065908533264"><ele>279.3333333333333</ele><time>2026-04-12T13:27:02Z</time></trkpt><trkpt lat="44.6923231013527" lon="7.855090600189644"><ele>279.1666666666667</ele><time>2026-04-12T13:27:04Z</time></trkpt><trkpt lat="44.692404229890016" lon="7.855082822880931"><ele>279.0</ele><time>2026-04-12T13:27:06Z</time></trkpt><trkpt lat="44.69249401157024" lon="7.855057208113763"><ele>279.0</ele><time>2026-04-12T13:27:08Z</time></trkpt><trkpt lat="44.69256648794496" lon="7.855022117487547"><ele>279.0</ele><time>2026-04-12T13:27:10Z</time></trkpt><trkpt lat="44.69264132640271" lon="7.8549460623380325"><ele>279.0</ele><time>2026-04-12T13:27:12Z</time></trkpt><trkpt lat="44.69271144061446" lon="7.854899865344758"><ele>279.0</ele><time>2026-04-12T13:27:15Z</time></trkpt><trkpt lat="44.69277226251048" lon="7.855012418380144"><ele>279.0</ele><time>2026-04-12T13:27:18Z</time></trkpt><trkpt lat="44.69284125746408" lon="7.855071618232463"><ele>279.0</ele><time>2026-04-12T13:27:20.999Z</time></trkpt><trkpt lat="44.69290792419815" lon="7.855039410477338"><ele>279.5</ele><time>2026-04-12T13:27:22.999Z</time></trkpt><trkpt lat="44.69299049674902" lon="7.8550297093754216"><ele>280.0</ele><time>2026-04-12T13:27:24.999Z</time></trkpt><trkpt lat="44.69307449922854" lon="7.855068300165867"><ele>280.5</ele><time>2026-04-12T13:27:26.999Z</time></trkpt><trkpt lat="44.693158167681" lon="7.855064797768749"><ele>281.0</ele><time>2026-04-12T13:27:28.999Z</time></trkpt><trkpt lat="44.69325176508131" lon="7.855060879743534"><ele>281.5</ele><time>2026-04-12T13:27:31Z</time></trkpt><trkpt lat="44.69333188393782" lon="7.855055529447294"><ele>282.0</ele><time>2026-04-12T13:27:33Z</time></trkpt><trkpt lat="44.693420310778876" lon="7.855047919344368"><ele>282.0</ele><time>2026-04-12T13:27:35Z</time></trkpt><trkpt lat="44.69351027588911" lon="7.855013782353744"><ele>282.0</ele><time>2026-04-12T13:27:37Z</time></trkpt><trkpt lat="44.69359285829997" lon="7.855007924406406"><ele>282.0</ele><time>2026-04-12T13:27:39Z</time></trkpt><trkpt lat="44.693687777963305" lon="7.854980811033228"><ele>282.0</ele><time>2026-04-12T13:27:41Z</time></trkpt><trkpt lat="44.69378083887904" lon="7.854964212263358"><ele>282.0</ele><time>2026-04-12T13:27:43Z</time></trkpt><trkpt lat="44.69389307891354" lon="7.854957374947825"><ele>282.2</ele><time>2026-04-12T13:27:45Z</time></trkpt><trkpt lat="44.69398884958052" lon="7.854928352168372"><ele>282.4</ele><time>2026-04-12T13:27:47Z</time></trkpt><trkpt lat="44.69407468860776" lon="7.854905396679527"><ele>282.6</ele><time>2026-04-12T13:27:49Z</time></trkpt><trkpt lat="44.694173606005194" lon="7.854904462268288"><ele>282.8</ele><time>2026-04-12T13:27:51Z</time></trkpt><trkpt lat="44.69426861490441" lon="7.854901417644891"><ele>283.0</ele><time>2026-04-12T13:27:53Z</time></trkpt><trkpt lat="44.69435416114578" lon="7.854889844545925"><ele>283.3333333333333</ele><time>2026-04-12T13:27:55Z</time></trkpt><trkpt lat="44.69443369260935" lon="7.854859662628931"><ele>283.66666666666663</ele><time>2026-04-12T13:27:56Z</time></trkpt><trkpt lat="44.694506209336936" lon="7.854838959283373"><ele>284.0</ele><time>2026-04-12T13:27:58Z</time></trkpt><trkpt lat="44.69458416703777" lon="7.85481054145793"><ele>284.3333333333333</ele><time>2026-04-12T13:28:00Z</time></trkpt><trkpt lat="44.694682958627496" lon="7.8547596642604445"><ele>284.6666666666667</ele><time>2026-04-12T13:28:03Z</time></trkpt><trkpt lat="44.694773488660445" lon="7.85471607870234"><ele>285.0</ele><time>2026-04-12T13:28:05Z</time></trkpt><trkpt lat="44.69484255333067" lon="7.854688582053745"><ele>285.0</ele><time>2026-04-12T13:28:07Z</time></trkpt><trkpt lat="44.694913743742745" lon="7.854648955414269"><ele>285.0</ele><time>2026-04-12T13:28:09Z</time></trkpt><trkpt lat="44.69500712820052" lon="7.854613460431916"><ele>285.0</ele><time>2026-04-12T13:28:11Z</time></trkpt><trkpt lat="44.695076236755796" lon="7.854570700031735"><ele>285.0</ele><time>2026-04-12T13:28:14Z</time></trkpt><trkpt lat="44.695161728626445" lon="7.854531307354565"><ele>285.0</ele><time>2026-04-12T13:28:16Z</time></trkpt><trkpt lat="44.69524531478226" lon="7.854487217947518"><ele>285.0</ele><time>2026-04-12T13:28:18Z</time></trkpt><trkpt lat="44.69530440039501" lon="7.854426565531299"><ele>285.0</ele><time>2026-04-12T13:28:20Z</time></trkpt><trkpt lat="44.69536994525729" lon="7.854356942398927"><ele>285.0</ele><time>2026-04-12T13:28:22Z</time></trkpt><trkpt lat="44.69546696802557" lon="7.854299457461327"><ele>285.0</ele><time>2026-04-12T13:28:25Z</time></trkpt><trkpt lat="44.695563528228156" lon="7.854242829063692"><ele>285.0</ele><time>2026-04-12T13:28:27Z</time></trkpt><trkpt lat="44.69564275562716" lon="7.854207451379278"><ele>285.0</ele><time>2026-04-12T13:28:29Z</time></trkpt><trkpt lat="44.69571253828925" lon="7.85413471554196"><ele>285.1666666666667</ele><time>2026-04-12T13:28:31Z</time></trkpt><trkpt lat="44.69579148200662" lon="7.854084197867261"><ele>285.3333333333333</ele><time>2026-04-12T13:28:34Z</time></trkpt><trkpt lat="44.69586154455153" lon="7.854037718515983"><ele>285.5</ele><time>2026-04-12T13:28:37Z</time></trkpt><trkpt lat="44.69592169032228" lon="7.854002107994797"><ele>285.66666666666663</ele><time>2026-04-12T13:28:39Z</time></trkpt><trkpt lat="44.695993675476466" lon="7.853947829909079"><ele>285.8333333333333</ele><time>2026-04-12T13:28:40Z</time></trkpt><trkpt lat="44.696055166114604" lon="7.8538854064638"><ele>286.0</ele><time>2026-04-12T13:28:42Z</time></trkpt><trkpt lat="44.69614943106813" lon="7.85385043752499"><ele>286.5</ele><time>2026-04-12T13:28:44Z</time></trkpt><trkpt lat="44.6962259325963" lon="7.853806169264479"><ele>287.0</ele><time>2026-04-12T13:28:46Z</time></trkpt><trkpt lat="44.6963089610245" lon="7.853763004141521"><ele>287.5</ele><time>2026-04-12T13:28:48Z</time></trkpt><trkpt lat="44.69638202630467" lon="7.853725572381119"><ele>288.0</ele><time>2026-04-12T13:28:50Z</time></trkpt><trkpt lat="44.69646675263977" lon="7.853682166835708"><ele>288.5</ele><time>2026-04-12T13:28:52Z</time></trkpt><trkpt lat="44.69653339152488" lon="7.853618184602842"><ele>289.0</ele><time>2026-04-12T13:28:54Z</time></trkpt><trkpt lat="44.69661059619829" lon="7.853590336866277"><ele>289.0</ele><time>2026-04-12T13:28:56Z</time></trkpt><trkpt lat="44.69667597742881" lon="7.853529697895986"><ele>289.0</ele><time>2026-04-12T13:28:58Z</time></trkpt><trkpt lat="44.69675270081086" lon="7.853507266461257"><ele>289.0</ele><time>2026-04-12T13:29:00Z</time></trkpt><trkpt lat="44.69683295403405" lon="7.853472633667226"><ele>289.0</ele><time>2026-04-12T13:29:02Z</time></trkpt><trkpt lat="44.69691180846899" lon="7.853438276378811"><ele>289.0</ele><time>2026-04-12T13:29:04Z</time></trkpt><trkpt lat="44.69698565208255" lon="7.853391116628433"><ele>289.0</ele><time>2026-04-12T13:29:06Z</time></trkpt><trkpt lat="44.69706842951529" lon="7.853339319193246"><ele>289.16666666666663</ele><time>2026-04-12T13:29:08Z</time></trkpt><trkpt lat="44.69713042699624" lon="7.853300524732871"><ele>289.3333333333333</ele><time>2026-04-12T13:29:10Z</time></trkpt><trkpt lat="44.697195156061106" lon="7.853259522408743"><ele>289.5</ele><time>2026-04-12T13:29:12Z</time></trkpt><trkpt lat="44.69726342583622" lon="7.853216615430162"><ele>289.6666666666667</ele><time>2026-04-12T13:29:14Z</time></trkpt><trkpt lat="44.697328257811286" lon="7.853175869079075"><ele>289.83333333333337</ele><time>2026-04-12T13:29:16Z</time></trkpt><trkpt lat="44.69739742081633" lon="7.8531030954393275"><ele>290.0</ele><time>2026-04-12T13:29:18Z</time></trkpt><trkpt lat="44.69747181107145" lon="7.853054287985436"><ele>290.0</ele><time>2026-04-12T13:29:20Z</time></trkpt><trkpt lat="44.69754186450991" lon="7.853004373157015"><ele>290.0</ele><time>2026-04-12T13:29:22Z</time></trkpt><trkpt lat="44.69761404424916" lon="7.852964514295338"><ele>290.0</ele><time>2026-04-12T13:29:24Z</time></trkpt><trkpt lat="44.69768609087746" lon="7.852929994341467"><ele>290.0</ele><time>2026-04-12T13:29:26Z</time></trkpt><trkpt lat="44.69776638016994" lon="7.852883484458545"><ele>290.0</ele><time>2026-04-12T13:29:28Z</time></trkpt><trkpt lat="44.69783524117672" lon="7.852839640977788"><ele>290.0</ele><time>2026-04-12T13:29:30Z</time></trkpt><trkpt lat="44.697895640124976" lon="7.8527907540854125"><ele>289.83333333333337</ele><time>2026-04-12T13:29:32Z</time></trkpt><trkpt lat="44.697950460316484" lon="7.852723851085224"><ele>289.6666666666667</ele><time>2026-04-12T13:29:34Z</time></trkpt><trkpt lat="44.69798448263425" lon="7.852636928062472"><ele>289.5</ele><time>2026-04-12T13:29:36Z</time></trkpt><trkpt lat="44.69803130140174" lon="7.852551162752407"><ele>289.3333333333333</ele><time>2026-04-12T13:29:38Z</time></trkpt><trkpt lat="44.6980844721804" lon="7.85247441451146"><ele>289.16666666666663</ele><time>2026-04-12T13:29:40Z</time></trkpt><trkpt lat="44.69810575968184" lon="7.852367005193264"><ele>289.0</ele><time>2026-04-12T13:29:42Z</time></trkpt><trkpt lat="44.69815198617847" lon="7.852277659687053"><ele>288.8333333333333</ele><time>2026-04-12T13:29:44Z</time></trkpt><trkpt lat="44.698202139761605" lon="7.852204749096309"><ele>288.66666666666663</ele><time>2026-04-12T13:29:46Z</time></trkpt><trkpt lat="44.6982374807795" lon="7.8521281836307795"><ele>288.5</ele><time>2026-04-12T13:29:48Z</time></trkpt><trkpt lat="44.698263705111096" lon="7.852024190031183"><ele>288.3333333333333</ele><time>2026-04-12T13:29:50Z</time></trkpt><trkpt lat="44.698294981756405" lon="7.851927066368388"><ele>288.1666666666667</ele><time>2026-04-12T13:29:52Z</time></trkpt><trkpt lat="44.69833540918185" lon="7.851812449623892"><ele>288.0</ele><time>2026-04-12T13:29:54Z</time></trkpt><trkpt lat="44.698367194845844" lon="7.851691411754179"><ele>287.8</ele><time>2026-04-12T13:29:56Z</time></trkpt><trkpt lat="44.698405702141606" lon="7.851588384050469"><ele>287.6</ele><time>2026-04-12T13:29:58Z</time></trkpt><trkpt lat="44.69844301387423" lon="7.851479775873455"><ele>287.4</ele><time>2026-04-12T13:30:00Z</time></trkpt><trkpt lat="44.69848930042637" lon="7.851362763194922"><ele>287.2</ele><time>2026-04-12T13:30:02Z</time></trkpt><trkpt lat="44.698536554878096" lon="7.851240713909325"><ele>287.0</ele><time>2026-04-12T13:30:04Z</time></trkpt><trkpt lat="44.69857472989503" lon="7.8511265690146725"><ele>287.1666666666667</ele><time>2026-04-12T13:30:06Z</time></trkpt><trkpt lat="44.69861306258579" lon="7.851019307156034"><ele>287.33333333333337</ele><time>2026-04-12T13:30:08Z</time></trkpt><trkpt lat="44.698646871629485" lon="7.850915280139107"><ele>287.5</ele><time>2026-04-12T13:30:10Z</time></trkpt><trkpt lat="44.698682015505774" lon="7.850802943620595"><ele>287.6666666666667</ele><time>2026-04-12T13:30:12Z</time></trkpt><trkpt lat="44.69872041443855" lon="7.850683831360903"><ele>287.8333333333333</ele><time>2026-04-12T13:30:14Z</time></trkpt><trkpt lat="44.698768890374424" lon="7.850580659044526"><ele>288.0</ele><time>2026-04-12T13:30:16Z</time></trkpt><trkpt lat="44.698817944935286" lon="7.850477827050176"><ele>287.6666666666667</ele><time>2026-04-12T13:30:18Z</time></trkpt><trkpt lat="44.69885638551622" lon="7.850376350506367"><ele>287.3333333333333</ele><time>2026-04-12T13:30:20Z</time></trkpt><trkpt lat="44.698911261388" lon="7.8502848966444745"><ele>287.0</ele><time>2026-04-12T13:30:22Z</time></trkpt><trkpt lat="44.69895972315078" lon="7.850202565995706"><ele>286.66666666666663</ele><time>2026-04-12T13:30:24Z</time></trkpt><trkpt lat="44.699016656925295" lon="7.850117785075211"><ele>286.3333333333333</ele><time>2026-04-12T13:30:26Z</time></trkpt><trkpt lat="44.699081470653326" lon="7.8500326987345606"><ele>286.0</ele><time>2026-04-12T13:30:28Z</time></trkpt><trkpt lat="44.69915482596925" lon="7.849974442712841"><ele>285.8</ele><time>2026-04-12T13:30:30Z</time></trkpt><trkpt lat="44.699208327137654" lon="7.849885627866912"><ele>285.6</ele><time>2026-04-12T13:30:32Z</time></trkpt><trkpt lat="44.69928206829701" lon="7.84981504884782"><ele>285.4</ele><time>2026-04-12T13:30:34Z</time></trkpt><trkpt lat="44.699342592434796" lon="7.849706273844696"><ele>285.2</ele><time>2026-04-12T13:30:36Z</time></trkpt><trkpt lat="44.699412676371686" lon="7.849612266227249"><ele>285.0</ele><time>2026-04-12T13:30:38Z</time></trkpt><trkpt lat="44.69948179602869" lon="7.849517502883217"><ele>285.2</ele><time>2026-04-12T13:30:40Z</time></trkpt><trkpt lat="44.69955034564557" lon="7.849404963162367"><ele>285.4</ele><time>2026-04-12T13:30:42Z</time></trkpt><trkpt lat="44.699613480855504" lon="7.849296499717006"><ele>285.6</ele><time>2026-04-12T13:30:44Z</time></trkpt><trkpt lat="44.6996777160785" lon="7.849178633660653"><ele>285.8</ele><time>2026-04-12T13:30:46Z</time></trkpt><trkpt lat="44.699750828973016" lon="7.849057572529475"><ele>286.0</ele><time>2026-04-12T13:30:48Z</time></trkpt><trkpt lat="44.69982483282764" lon="7.848946260412213"><ele>286.0</ele><time>2026-04-12T13:30:50Z</time></trkpt><trkpt lat="44.699902012070055" lon="7.848839190651413"><ele>286.0</ele><time>2026-04-12T13:30:52Z</time></trkpt><trkpt lat="44.69997750746411" lon="7.848748088308757"><ele>286.0</ele><time>2026-04-12T13:30:54Z</time></trkpt><trkpt lat="44.70005374333782" lon="7.848670242539646"><ele>286.0</ele><time>2026-04-12T13:30:56Z</time></trkpt><trkpt lat="44.700113061057756" lon="7.84859702128301"><ele>286.0</ele><time>2026-04-12T13:30:58Z</time></trkpt><trkpt lat="44.700189408441126" lon="7.8485043643714585"><ele>286.0</ele><time>2026-04-12T13:31:00Z</time></trkpt><trkpt lat="44.700264153533" lon="7.848512912510762"><ele>286.0</ele><time>2026-04-12T13:31:01Z</time></trkpt><trkpt lat="44.7003548081924" lon="7.848462963230184"><ele>286.0</ele><time>2026-04-12T13:31:03Z</time></trkpt><trkpt lat="44.7004503576591" lon="7.848391760842517"><ele>286.0</ele><time>2026-04-12T13:31:05Z</time></trkpt><trkpt lat="44.70053499647936" lon="7.848353389445138"><ele>286.0</ele><time>2026-04-12T13:31:07Z</time></trkpt><trkpt lat="44.70063089346082" lon="7.848317321395062"><ele>286.0</ele><time>2026-04-12T13:31:09Z</time></trkpt><trkpt lat="44.70072240677702" lon="7.848284897050127"><ele>286.0</ele><time>2026-04-12T13:31:11Z</time></trkpt><trkpt lat="44.700806927724926" lon="7.84825533228691"><ele>286.0</ele><time>2026-04-12T13:31:13Z</time></trkpt><trkpt lat="44.70090513607765" lon="7.848221232168206"><ele>286.0</ele><time>2026-04-12T13:31:15Z</time></trkpt><trkpt lat="44.70100844477987" lon="7.848204612221865"><ele>286.0</ele><time>2026-04-12T13:31:17Z</time></trkpt><trkpt lat="44.70110295172741" lon="7.848188516780783"><ele>287.0</ele><time>2026-04-12T13:31:19Z</time></trkpt><trkpt lat="44.70120308531648" lon="7.848127589169127"><ele>288.0</ele><time>2026-04-12T13:31:21Z</time></trkpt><trkpt lat="44.701288111156956" lon="7.848066701181463"><ele>289.0</ele><time>2026-04-12T13:31:23Z</time></trkpt><trkpt lat="44.70137561057765" lon="7.848008668209869"><ele>290.0</ele><time>2026-04-12T13:31:25Z</time></trkpt><trkpt lat="44.70145505374968" lon="7.847965907853442"><ele>291.0</ele><time>2026-04-12T13:31:27Z</time></trkpt><trkpt lat="44.70152982607723" lon="7.8479070695126065"><ele>291.0</ele><time>2026-04-12T13:31:29Z</time></trkpt><trkpt lat="44.70160638164445" lon="7.847819064370641"><ele>291.0</ele><time>2026-04-12T13:31:31.001Z</time></trkpt><trkpt lat="44.70168196396504" lon="7.847747239868405"><ele>291.0</ele><time>2026-04-12T13:31:33Z</time></trkpt><trkpt lat="44.70175791007775" lon="7.847677178401512"><ele>291.0</ele><time>2026-04-12T13:31:35Z</time></trkpt><trkpt lat="44.701832773569706" lon="7.847613174549512"><ele>291.0</ele><time>2026-04-12T13:31:37Z</time></trkpt><trkpt lat="44.701908843321256" lon="7.847544041091826"><ele>291.0</ele><time>2026-04-12T13:31:39Z</time></trkpt><trkpt lat="44.7019749492712" lon="7.847464120952302"><ele>291.0</ele><time>2026-04-12T13:31:41Z</time></trkpt><trkpt lat="44.70204899899503" lon="7.84739351996637"><ele>291.0</ele><time>2026-04-12T13:31:43Z</time></trkpt><trkpt lat="44.70211824623272" lon="7.847325302801964"><ele>291.0</ele><time>2026-04-12T13:31:45Z</time></trkpt><trkpt lat="44.70220190270174" lon="7.847251932007094"><ele>291.0</ele><time>2026-04-12T13:31:47Z</time></trkpt><trkpt lat="44.70227780789417" lon="7.847182931542762"><ele>291.0</ele><time>2026-04-12T13:31:49Z</time></trkpt><trkpt lat="44.702360578258876" lon="7.847108635428137"><ele>291.0</ele><time>2026-04-12T13:31:51Z</time></trkpt><trkpt lat="44.70243825235381" lon="7.847034053285606"><ele>291.0</ele><time>2026-04-12T13:31:53Z</time></trkpt><trkpt lat="44.70252791879325" lon="7.846947283939958"><ele>291.0</ele><time>2026-04-12T13:31:55Z</time></trkpt><trkpt lat="44.70261971548452" lon="7.846863636492682"><ele>291.0</ele><time>2026-04-12T13:31:57Z</time></trkpt><trkpt lat="44.70271573827694" lon="7.846781356585461"><ele>290.8</ele><time>2026-04-12T13:31:59Z</time></trkpt><trkpt lat="44.70279964982832" lon="7.846705236193185"><ele>290.6</ele><time>2026-04-12T13:32:01Z</time></trkpt><trkpt lat="44.70287773924292" lon="7.846635789037772"><ele>290.4</ele><time>2026-04-12T13:32:03Z</time></trkpt><trkpt lat="44.702952700299505" lon="7.846529465895275"><ele>290.2</ele><time>2026-04-12T13:32:05Z</time></trkpt><trkpt lat="44.703024196149975" lon="7.8464490981760004"><ele>290.0</ele><time>2026-04-12T13:32:07Z</time></trkpt><trkpt lat="44.70309585161241" lon="7.846377687865849"><ele>290.0</ele><time>2026-04-12T13:32:09Z</time></trkpt><trkpt lat="44.703178084574006" lon="7.846297004559225"><ele>290.0</ele><time>2026-04-12T13:32:11Z</time></trkpt><trkpt lat="44.70326684011273" lon="7.846207476489261"><ele>290.0</ele><time>2026-04-12T13:32:13Z</time></trkpt><trkpt lat="44.703353882498284" lon="7.846130517831309"><ele>290.0</ele><time>2026-04-12T13:32:15Z</time></trkpt><trkpt lat="44.70342930601081" lon="7.8460525718725"><ele>290.0</ele><time>2026-04-12T13:32:17Z</time></trkpt><trkpt lat="44.703514502030295" lon="7.845977039521074"><ele>289.8</ele><time>2026-04-12T13:32:19Z</time></trkpt><trkpt lat="44.70359188562284" lon="7.845909557408404"><ele>289.6</ele><time>2026-04-12T13:32:21Z</time></trkpt><trkpt lat="44.70368635757814" lon="7.845814663297367"><ele>289.4</ele><time>2026-04-12T13:32:23Z</time></trkpt><trkpt lat="44.703775402706206" lon="7.845738782780913"><ele>289.2</ele><time>2026-04-12T13:32:25Z</time></trkpt><trkpt lat="44.70385716320858" lon="7.845663937446673"><ele>289.0</ele><time>2026-04-12T13:32:27Z</time></trkpt><trkpt lat="44.70393154923355" lon="7.845578025137621"><ele>289.0</ele><time>2026-04-12T13:32:29Z</time></trkpt><trkpt lat="44.70400764376176" lon="7.8455103098394945"><ele>289.0</ele><time>2026-04-12T13:32:31Z</time></trkpt><trkpt lat="44.70411299046935" lon="7.845417880354193"><ele>289.0</ele><time>2026-04-12T13:32:33Z</time></trkpt><trkpt lat="44.70418961178131" lon="7.845347852642855"><ele>289.0</ele><time>2026-04-12T13:32:35Z</time></trkpt><trkpt lat="44.70427449039605" lon="7.845274032870604"><ele>289.0</ele><time>2026-04-12T13:32:37Z</time></trkpt><trkpt lat="44.70436041623855" lon="7.845188838903756"><ele>289.2</ele><time>2026-04-12T13:32:39Z</time></trkpt><trkpt lat="44.70444086372954" lon="7.845093055207348"><ele>289.4</ele><time>2026-04-12T13:32:41Z</time></trkpt><trkpt lat="44.70453354000302" lon="7.845013790470393"><ele>289.6</ele><time>2026-04-12T13:32:43Z</time></trkpt><trkpt lat="44.704625013705105" lon="7.8449498308672805"><ele>289.8</ele><time>2026-04-12T13:32:45Z</time></trkpt><trkpt lat="44.70472326226338" lon="7.844859993693792"><ele>290.0</ele><time>2026-04-12T13:32:47Z</time></trkpt><trkpt lat="44.704825196236975" lon="7.844787981974359"><ele>290.0</ele><time>2026-04-12T13:32:49Z</time></trkpt><trkpt lat="44.704895614307915" lon="7.844696661871796"><ele>290.0</ele><time>2026-04-12T13:32:51Z</time></trkpt><trkpt lat="44.70494156464872" lon="7.844607328316208"><ele>290.0</ele><time>2026-04-12T13:32:53Z</time></trkpt><trkpt lat="44.70500934935284" lon="7.844513732894461"><ele>290.0</ele><time>2026-04-12T13:32:55Z</time></trkpt><trkpt lat="44.705098211580996" lon="7.844422107612281"><ele>290.0</ele><time>2026-04-12T13:32:57Z</time></trkpt><trkpt lat="44.705197589177644" lon="7.844359315240714"><ele>289.6</ele><time>2026-04-12T13:32:59Z</time></trkpt><trkpt lat="44.70529545358853" lon="7.844275089975343"><ele>289.2</ele><time>2026-04-12T13:33:01Z</time></trkpt><trkpt lat="44.7053880539965" lon="7.844208576006059"><ele>288.8</ele><time>2026-04-12T13:33:03Z</time></trkpt><trkpt lat="44.705485140968705" lon="7.844134734152406"><ele>288.4</ele><time>2026-04-12T13:33:05Z</time></trkpt><trkpt lat="44.705566370168086" lon="7.844049385796222"><ele>288.0</ele><time>2026-04-12T13:33:07Z</time></trkpt><trkpt lat="44.705644367276285" lon="7.843956831497506"><ele>288.0</ele><time>2026-04-12T13:33:09Z</time></trkpt><trkpt lat="44.705723714590285" lon="7.843868043522967"><ele>288.0</ele><time>2026-04-12T13:33:11Z</time></trkpt><trkpt lat="44.70579855494736" lon="7.8437839404376435"><ele>288.0</ele><time>2026-04-12T13:33:13Z</time></trkpt><trkpt lat="44.705880293768594" lon="7.84369619639182"><ele>288.0</ele><time>2026-04-12T13:33:15Z</time></trkpt><trkpt lat="44.70596981725053" lon="7.8436236024164225"><ele>288.0</ele><time>2026-04-12T13:33:17Z</time></trkpt><trkpt lat="44.706063496559565" lon="7.843516996990967"><ele>288.2</ele><time>2026-04-12T13:33:19Z</time></trkpt><trkpt lat="44.7061563700826" lon="7.8434550457258645"><ele>288.4</ele><time>2026-04-12T13:33:21Z</time></trkpt><trkpt lat="44.706240756212715" lon="7.843377022866463"><ele>288.59999999999997</ele><time>2026-04-12T13:33:23Z</time></trkpt><trkpt lat="44.706332208462996" lon="7.843300891389181"><ele>288.8</ele><time>2026-04-12T13:33:25Z</time></trkpt><trkpt lat="44.706412787431" lon="7.843230277718925"><ele>289.0</ele><time>2026-04-12T13:33:27Z</time></trkpt><trkpt lat="44.7064961889355" lon="7.843148519899176"><ele>289.0</ele><time>2026-04-12T13:33:29Z</time></trkpt><trkpt lat="44.70657802406885" lon="7.84306643122716"><ele>289.0</ele><time>2026-04-12T13:33:31Z</time></trkpt><trkpt lat="44.7066542307614" lon="7.8430026996180615"><ele>289.0</ele><time>2026-04-12T13:33:33Z</time></trkpt><trkpt lat="44.70673808718426" lon="7.842915132414629"><ele>289.0</ele><time>2026-04-12T13:33:35Z</time></trkpt><trkpt lat="44.70682118784828" lon="7.84283639541102"><ele>289.0</ele><time>2026-04-12T13:33:37.001Z</time></trkpt><trkpt lat="44.706904425995866" lon="7.842762263587413"><ele>288.8</ele><time>2026-04-12T13:33:39.001Z</time></trkpt><trkpt lat="44.70698613513575" lon="7.842683631750802"><ele>288.59999999999997</ele><time>2026-04-12T13:33:41.001Z</time></trkpt><trkpt lat="44.70705736567343" lon="7.84261784012841"><ele>288.4</ele><time>2026-04-12T13:33:43.001Z</time></trkpt><trkpt lat="44.707123636392154" lon="7.842543459674796"><ele>288.2</ele><time>2026-04-12T13:33:45.001Z</time></trkpt><trkpt lat="44.70720286161304" lon="7.842461234214469"><ele>288.0</ele><time>2026-04-12T13:33:47.001Z</time></trkpt><trkpt lat="44.70729490397807" lon="7.842395294731796"><ele>288.0</ele><time>2026-04-12T13:33:49Z</time></trkpt><trkpt lat="44.70737982992549" lon="7.842302701418562"><ele>288.0</ele><time>2026-04-12T13:33:51Z</time></trkpt><trkpt lat="44.70746988834324" lon="7.842217562976347"><ele>288.0</ele><time>2026-04-12T13:33:53Z</time></trkpt><trkpt lat="44.707550026593104" lon="7.84214705693358"><ele>288.0</ele><time>2026-04-12T13:33:55Z</time></trkpt><trkpt lat="44.707637067943196" lon="7.842060153394574"><ele>288.0</ele><time>2026-04-12T13:33:57Z</time></trkpt><trkpt lat="44.707710590943755" lon="7.841993200797019"><ele>288.2</ele><time>2026-04-12T13:33:59Z</time></trkpt><trkpt lat="44.70779782769688" lon="7.841906328992402"><ele>288.4</ele><time>2026-04-12T13:34:01Z</time></trkpt><trkpt lat="44.70788259408057" lon="7.841816599820075"><ele>288.59999999999997</ele><time>2026-04-12T13:34:03Z</time></trkpt><trkpt lat="44.70796178265936" lon="7.841740565697862"><ele>288.8</ele><time>2026-04-12T13:34:05Z</time></trkpt><trkpt lat="44.708042477847854" lon="7.841657176163461"><ele>289.0</ele><time>2026-04-12T13:34:07Z</time></trkpt><trkpt lat="44.70811991439047" lon="7.841574795536055"><ele>289.0</ele><time>2026-04-12T13:34:09Z</time></trkpt><trkpt lat="44.70821839585641" lon="7.841500176901014"><ele>289.0</ele><time>2026-04-12T13:34:11Z</time></trkpt><trkpt lat="44.70831153633976" lon="7.841412645704203"><ele>289.0</ele><time>2026-04-12T13:34:13Z</time></trkpt><trkpt lat="44.708391870813514" lon="7.841325615730433"><ele>289.0</ele><time>2026-04-12T13:34:15Z</time></trkpt><trkpt lat="44.708470309207215" lon="7.841256351185659"><ele>289.0</ele><time>2026-04-12T13:34:17Z</time></trkpt><trkpt lat="44.70853993033316" lon="7.841180252305409"><ele>288.8</ele><time>2026-04-12T13:34:19Z</time></trkpt><trkpt lat="44.70862156848204" lon="7.841099420100445"><ele>288.59999999999997</ele><time>2026-04-12T13:34:21Z</time></trkpt><trkpt lat="44.70869233328289" lon="7.840985637497713"><ele>288.4</ele><time>2026-04-12T13:34:23Z</time></trkpt><trkpt lat="44.70875801741185" lon="7.840872857092685"><ele>288.2</ele><time>2026-04-12T13:34:25Z</time></trkpt><trkpt lat="44.70881728302982" lon="7.840758357797663"><ele>288.0</ele><time>2026-04-12T13:34:27Z</time></trkpt><trkpt lat="44.7088821074635" lon="7.840652093195849"><ele>287.8</ele><time>2026-04-12T13:34:29Z</time></trkpt><trkpt lat="44.70895017879325" lon="7.840535901065452"><ele>287.6</ele><time>2026-04-12T13:34:31Z</time></trkpt><trkpt lat="44.70902228503762" lon="7.840408698805861"><ele>287.4</ele><time>2026-04-12T13:34:33Z</time></trkpt><trkpt lat="44.709098596023566" lon="7.8402827045279855"><ele>287.2</ele><time>2026-04-12T13:34:35Z</time></trkpt><trkpt lat="44.70916692568357" lon="7.8401684480515685"><ele>287.0</ele><time>2026-04-12T13:34:37Z</time></trkpt><trkpt lat="44.709235289313014" lon="7.840054728442074"><ele>287.0</ele><time>2026-04-12T13:34:39Z</time></trkpt><trkpt lat="44.709299199388525" lon="7.839947714015894"><ele>287.0</ele><time>2026-04-12T13:34:41Z</time></trkpt><trkpt lat="44.70935736086156" lon="7.8398508382862175"><ele>287.0</ele><time>2026-04-12T13:34:43Z</time></trkpt><trkpt lat="44.7094094971027" lon="7.839768911297921"><ele>287.0</ele><time>2026-04-12T13:34:45Z</time></trkpt><trkpt lat="44.70945951154854" lon="7.839688312508672"><ele>287.0</ele><time>2026-04-12T13:34:47Z</time></trkpt><trkpt lat="44.70950300647655" lon="7.839611127111725"><ele>287.0</ele><time>2026-04-12T13:34:49Z</time></trkpt><trkpt lat="44.709547342626585" lon="7.839537487058222"><ele>287.0</ele><time>2026-04-12T13:34:51Z</time></trkpt><trkpt lat="44.70959397949288" lon="7.83946104520814"><ele>287.0</ele><time>2026-04-12T13:34:53Z</time></trkpt><trkpt lat="44.709639754761575" lon="7.839387881855015"><ele>287.0</ele><time>2026-04-12T13:34:55Z</time></trkpt><trkpt lat="44.70969302629253" lon="7.839296866009895"><ele>287.0</ele><time>2026-04-12T13:34:57Z</time></trkpt><trkpt lat="44.7097519741321" lon="7.839204430969442"><ele>287.0</ele><time>2026-04-12T13:34:59Z</time></trkpt><trkpt lat="44.70980956818114" lon="7.8391045149052205"><ele>287.0</ele><time>2026-04-12T13:35:01Z</time></trkpt><trkpt lat="44.70987873595388" lon="7.838991490593972"><ele>286.4</ele><time>2026-04-12T13:35:03Z</time></trkpt><trkpt lat="44.70994291488675" lon="7.838876579662043"><ele>285.79999999999995</ele><time>2026-04-12T13:35:05Z</time></trkpt><trkpt lat="44.71001430294724" lon="7.838763693397459"><ele>285.2</ele><time>2026-04-12T13:35:07Z</time></trkpt><trkpt lat="44.71008202563688" lon="7.838650090804098"><ele>284.59999999999997</ele><time>2026-04-12T13:35:09Z</time></trkpt><trkpt lat="44.71014956744165" lon="7.8385336369795136"><ele>284.0</ele><time>2026-04-12T13:35:11Z</time></trkpt><trkpt lat="44.71022185641221" lon="7.838424157087283"><ele>284.0</ele><time>2026-04-12T13:35:13Z</time></trkpt><trkpt lat="44.71029588943001" lon="7.838306069866395"><ele>284.0</ele><time>2026-04-12T13:35:15Z</time></trkpt><trkpt lat="44.710367234700314" lon="7.838187192602494"><ele>284.0</ele><time>2026-04-12T13:35:17Z</time></trkpt><trkpt lat="44.71044330862647" lon="7.838068095138189"><ele>284.0</ele><time>2026-04-12T13:35:19Z</time></trkpt><trkpt lat="44.71050951644299" lon="7.83795484896499"><ele>284.0</ele><time>2026-04-12T13:35:21Z</time></trkpt><trkpt lat="44.71057334435473" lon="7.837837426291058"><ele>284.0</ele><time>2026-04-12T13:35:23Z</time></trkpt><trkpt lat="44.71063118326743" lon="7.837712984485859"><ele>284.0</ele><time>2026-04-12T13:35:25Z</time></trkpt><trkpt lat="44.710699840546475" lon="7.837590724037285"><ele>284.0</ele><time>2026-04-12T13:35:27Z</time></trkpt><trkpt lat="44.71078856033285" lon="7.837492055611295"><ele>284.0</ele><time>2026-04-12T13:35:29Z</time></trkpt><trkpt lat="44.710862736391775" lon="7.837367044579764"><ele>284.0</ele><time>2026-04-12T13:35:31Z</time></trkpt><trkpt lat="44.71093973586505" lon="7.83724539310067"><ele>284.0</ele><time>2026-04-12T13:35:33Z</time></trkpt><trkpt lat="44.71101380828794" lon="7.837124994523768"><ele>284.0</ele><time>2026-04-12T13:35:35Z</time></trkpt><trkpt lat="44.71108647255487" lon="7.8370056771133925"><ele>284.0</ele><time>2026-04-12T13:35:37Z</time></trkpt><trkpt lat="44.711154446436154" lon="7.836882499843889"><ele>284.0</ele><time>2026-04-12T13:35:39Z</time></trkpt><trkpt lat="44.71123714494303" lon="7.836767070477053"><ele>284.0</ele><time>2026-04-12T13:35:41Z</time></trkpt><trkpt lat="44.71130920476761" lon="7.836656807725017"><ele>284.0</ele><time>2026-04-12T13:35:43Z</time></trkpt><trkpt lat="44.711383222241494" lon="7.836538583106194"><ele>284.0</ele><time>2026-04-12T13:35:45Z</time></trkpt><trkpt lat="44.711452699265685" lon="7.836421527111959"><ele>284.0</ele><time>2026-04-12T13:35:47Z</time></trkpt><trkpt lat="44.71152061288556" lon="7.836308276284751"><ele>284.0</ele><time>2026-04-12T13:35:49Z</time></trkpt><trkpt lat="44.7115908198912" lon="7.836194906899533"><ele>284.0</ele><time>2026-04-12T13:35:51Z</time></trkpt><trkpt lat="44.7116573451396" lon="7.8360825164349075"><ele>284.0</ele><time>2026-04-12T13:35:53Z</time></trkpt><trkpt lat="44.71172184211443" lon="7.835970439279855"><ele>284.0</ele><time>2026-04-12T13:35:55Z</time></trkpt><trkpt lat="44.71178925904154" lon="7.835859591013104"><ele>284.0</ele><time>2026-04-12T13:35:57Z</time></trkpt><trkpt lat="44.71185814332862" lon="7.835750131084048"><ele>284.0</ele><time>2026-04-12T13:35:59Z</time></trkpt><trkpt lat="44.71192465083953" lon="7.835637412934253"><ele>284.2</ele><time>2026-04-12T13:36:01Z</time></trkpt><trkpt lat="44.71199484727446" lon="7.835523744225258"><ele>284.4</ele><time>2026-04-12T13:36:03Z</time></trkpt><trkpt lat="44.71206363335319" lon="7.835410054985749"><ele>284.6</ele><time>2026-04-12T13:36:05Z</time></trkpt><trkpt lat="44.71212977023284" lon="7.835293917115589"><ele>284.8</ele><time>2026-04-12T13:36:07Z</time></trkpt><trkpt lat="44.71219992686452" lon="7.835169647038496"><ele>285.0</ele><time>2026-04-12T13:36:09Z</time></trkpt><trkpt lat="44.71227614956795" lon="7.83504235123881"><ele>284.25</ele><time>2026-04-12T13:36:11Z</time></trkpt><trkpt lat="44.71235138297929" lon="7.834915099403018"><ele>283.5</ele><time>2026-04-12T13:36:13Z</time></trkpt><trkpt lat="44.71242765303842" lon="7.834787612478307"><ele>282.75</ele><time>2026-04-12T13:36:15Z</time></trkpt><trkpt lat="44.71250075342819" lon="7.834658930750889"><ele>282.0</ele><time>2026-04-12T13:36:17Z</time></trkpt><trkpt lat="44.71257861258456" lon="7.8345279104245185"><ele>282.0</ele><time>2026-04-12T13:36:19Z</time></trkpt><trkpt lat="44.71265846651041" lon="7.834391651929775"><ele>282.0</ele><time>2026-04-12T13:36:21Z</time></trkpt><trkpt lat="44.712700094933695" lon="7.8343246329968155"><ele>282.0</ele><time>2026-04-12T13:36:22Z</time></trkpt><trkpt lat="44.71278124467429" lon="7.83419214845607"><ele>282.0</ele><time>2026-04-12T13:36:24Z</time></trkpt><trkpt lat="44.71286206577824" lon="7.834061892487771"><ele>282.0</ele><time>2026-04-12T13:36:26Z</time></trkpt><trkpt lat="44.71290256215366" lon="7.833993387753435"><ele>281.5</ele><time>2026-04-12T13:36:27Z</time></trkpt><trkpt lat="44.71298238702989" lon="7.833862816323122"><ele>281.0</ele><time>2026-04-12T13:36:29Z</time></trkpt><trkpt lat="44.7130583014195" lon="7.833738075437"><ele>280.5</ele><time>2026-04-12T13:36:31Z</time></trkpt><trkpt lat="44.7131325435738" lon="7.8336092740690715"><ele>280.0</ele><time>2026-04-12T13:36:33Z</time></trkpt><trkpt lat="44.71321165199271" lon="7.833487663018764"><ele>280.0</ele><time>2026-04-12T13:36:35Z</time></trkpt><trkpt lat="44.713284642415026" lon="7.833364737939082"><ele>280.0</ele><time>2026-04-12T13:36:37Z</time></trkpt><trkpt lat="44.71335795700669" lon="7.833236771516036"><ele>280.0</ele><time>2026-04-12T13:36:39Z</time></trkpt><trkpt lat="44.7134368559685" lon="7.833107099762978"><ele>280.0</ele><time>2026-04-12T13:36:41Z</time></trkpt><trkpt lat="44.71351641394027" lon="7.832970525267282"><ele>280.0</ele><time>2026-04-12T13:36:43Z</time></trkpt><trkpt lat="44.71356073009241" lon="7.83289983579821"><ele>280.0</ele><time>2026-04-12T13:36:44Z</time></trkpt><trkpt lat="44.71360154831408" lon="7.832826358383136"><ele>280.0</ele><time>2026-04-12T13:36:45Z</time></trkpt><trkpt lat="44.713647684676644" lon="7.832754269496473"><ele>280.0</ele><time>2026-04-12T13:36:46Z</time></trkpt><trkpt lat="44.71369301797144" lon="7.8326782440678056"><ele>280.0</ele><time>2026-04-12T13:36:47Z</time></trkpt><trkpt lat="44.71373910881304" lon="7.83260261149194"><ele>280.0</ele><time>2026-04-12T13:36:48Z</time></trkpt><trkpt lat="44.71378999766494" lon="7.832522571742082"><ele>280.0</ele><time>2026-04-12T13:36:49Z</time></trkpt><trkpt lat="44.71383676484261" lon="7.832446146850178"><ele>280.0</ele><time>2026-04-12T13:36:50Z</time></trkpt><trkpt lat="44.713883717529" lon="7.832369112218409"><ele>280.0</ele><time>2026-04-12T13:36:51Z</time></trkpt><trkpt lat="44.71392859552735" lon="7.832296844427374"><ele>280.0</ele><time>2026-04-12T13:36:52Z</time></trkpt><trkpt lat="44.71397569362976" lon="7.832215555446524"><ele>280.0</ele><time>2026-04-12T13:36:53Z</time></trkpt><trkpt lat="44.714022248120244" lon="7.832134740127835"><ele>280.0</ele><time>2026-04-12T13:36:54Z</time></trkpt><trkpt lat="44.71406874843197" lon="7.832056380389353"><ele>280.0</ele><time>2026-04-12T13:36:55Z</time></trkpt><trkpt lat="44.714114604328536" lon="7.831980610944066"><ele>280.0</ele><time>2026-04-12T13:36:56Z</time></trkpt><trkpt lat="44.71415783979175" lon="7.831906381118331"><ele>280.0</ele><time>2026-04-12T13:36:57Z</time></trkpt><trkpt lat="44.714203283694204" lon="7.831833347970694"><ele>280.0</ele><time>2026-04-12T13:36:58Z</time></trkpt><trkpt lat="44.71428537669065" lon="7.831687743778275"><ele>280.0</ele><time>2026-04-12T13:37:00Z</time></trkpt><trkpt lat="44.71432810611453" lon="7.831616709450268"><ele>280.0</ele><time>2026-04-12T13:37:01Z</time></trkpt><trkpt lat="44.71437251399298" lon="7.83154845318317"><ele>280.0</ele><time>2026-04-12T13:37:02Z</time></trkpt><trkpt lat="44.71441533171421" lon="7.831480524059576"><ele>280.0</ele><time>2026-04-12T13:37:03Z</time></trkpt><trkpt lat="44.71449510715688" lon="7.8313466257194575"><ele>280.0</ele><time>2026-04-12T13:37:05Z</time></trkpt><trkpt lat="44.714571111839234" lon="7.8312120183777365"><ele>280.0</ele><time>2026-04-12T13:37:07Z</time></trkpt><trkpt lat="44.71461201965237" lon="7.831143825923488"><ele>280.0</ele><time>2026-04-12T13:37:08Z</time></trkpt><trkpt lat="44.71469145328114" lon="7.831006069466385"><ele>280.0</ele><time>2026-04-12T13:37:10Z</time></trkpt><trkpt lat="44.71473241655598" lon="7.830938133022002"><ele>280.0</ele><time>2026-04-12T13:37:11Z</time></trkpt><trkpt lat="44.71481109176967" lon="7.830802248111462"><ele>280.0</ele><time>2026-04-12T13:37:13Z</time></trkpt><trkpt lat="44.71488179688002" lon="7.830664325643712"><ele>280.0</ele><time>2026-04-12T13:37:15Z</time></trkpt><trkpt lat="44.714950536887045" lon="7.830521770190716"><ele>280.0</ele><time>2026-04-12T13:37:17Z</time></trkpt><trkpt lat="44.7149848846747" lon="7.830447207101532"><ele>280.0</ele><time>2026-04-12T13:37:18Z</time></trkpt><trkpt lat="44.7150160179758" lon="7.830368926957585"><ele>280.0</ele><time>2026-04-12T13:37:19Z</time></trkpt><trkpt lat="44.71504404069862" lon="7.830287908331699"><ele>280.0</ele><time>2026-04-12T13:37:20Z</time></trkpt><trkpt lat="44.71507181448464" lon="7.830206549727351"><ele>279.57142857142856</ele><time>2026-04-12T13:37:21Z</time></trkpt><trkpt lat="44.715098477750004" lon="7.830123129295263"><ele>279.1428571428571</ele><time>2026-04-12T13:37:22Z</time></trkpt><trkpt lat="44.715123385161576" lon="7.830035887330358"><ele>278.7142857142857</ele><time>2026-04-12T13:37:23Z</time></trkpt><trkpt lat="44.71514713502725" lon="7.829950594851188"><ele>278.2857142857143</ele><time>2026-04-12T13:37:24Z</time></trkpt><trkpt lat="44.71517365998314" lon="7.82986506843464"><ele>277.85714285714283</ele><time>2026-04-12T13:37:25Z</time></trkpt><trkpt lat="44.715198953779144" lon="7.829776270588633"><ele>277.42857142857144</ele><time>2026-04-12T13:37:26Z</time></trkpt><trkpt lat="44.71522843413217" lon="7.8296929867382135"><ele>277.0</ele><time>2026-04-12T13:37:27Z</time></trkpt><trkpt lat="44.715271257910125" lon="7.829619944724385"><ele>277.0</ele><time>2026-04-12T13:37:28Z</time></trkpt><trkpt lat="44.715353152276926" lon="7.829477404734173"><ele>277.0</ele><time>2026-04-12T13:37:30Z</time></trkpt><trkpt lat="44.715394923172944" lon="7.829405696699758"><ele>277.0</ele><time>2026-04-12T13:37:31Z</time></trkpt><trkpt lat="44.715438419589496" lon="7.829339050252688"><ele>277.0</ele><time>2026-04-12T13:37:32Z</time></trkpt><trkpt lat="44.715501196382604" lon="7.82930455019578"><ele>277.0</ele><time>2026-04-12T13:37:33Z</time></trkpt><trkpt lat="44.715554952016134" lon="7.829256263827951"><ele>277.0</ele><time>2026-04-12T13:37:34Z</time></trkpt><trkpt lat="44.71563299788777" lon="7.8293052194913315"><ele>277.0</ele><time>2026-04-12T13:37:35Z</time></trkpt><trkpt lat="44.715693316154216" lon="7.8293369498124505"><ele>277.0</ele><time>2026-04-12T13:37:36Z</time></trkpt><trkpt lat="44.71580818976062" lon="7.829366426782758"><ele>277.0</ele><time>2026-04-12T13:37:38Z</time></trkpt><trkpt lat="44.71591440153518" lon="7.829303218306279"><ele>277.0</ele><time>2026-04-12T13:37:40Z</time></trkpt><trkpt lat="44.71599878511461" lon="7.829198629926279"><ele>277.0</ele><time>2026-04-12T13:37:42Z</time></trkpt><trkpt lat="44.71601806244189" lon="7.829113680574998"><ele>276.8</ele><time>2026-04-12T13:37:43Z</time></trkpt><trkpt lat="44.716028663468364" lon="7.828936411165836"><ele>276.6</ele><time>2026-04-12T13:37:45Z</time></trkpt><trkpt lat="44.71602238541093" lon="7.828846469375058"><ele>276.40000000000003</ele><time>2026-04-12T13:37:46Z</time></trkpt><trkpt lat="44.716027378966075" lon="7.828756469965352"><ele>276.2</ele><time>2026-04-12T13:37:47Z</time></trkpt><trkpt lat="44.71596243541552" lon="7.8287176603981985"><ele>276.0</ele><time>2026-04-12T13:37:48Z</time></trkpt><trkpt lat="44.71606910128677" lon="7.828595413382853"><ele>276.1666666666667</ele><time>2026-04-12T13:37:49Z</time></trkpt><trkpt lat="44.71611397339721" lon="7.828530392414954"><ele>276.3333333333333</ele><time>2026-04-12T13:37:50Z</time></trkpt><trkpt lat="44.71617259330945" lon="7.8284763066782945"><ele>276.5</ele><time>2026-04-12T13:37:51Z</time></trkpt><trkpt lat="44.71623017529163" lon="7.828417455466737"><ele>276.66666666666663</ele><time>2026-04-12T13:37:52Z</time></trkpt><trkpt lat="44.71629644650997" lon="7.828365028431848"><ele>276.8333333333333</ele><time>2026-04-12T13:37:53Z</time></trkpt><trkpt lat="44.71635056929268" lon="7.828307905110113"><ele>277.0</ele><time>2026-04-12T13:37:54Z</time></trkpt><trkpt lat="44.716452118209645" lon="7.828211919509451"><ele>277.0</ele><time>2026-04-12T13:37:56Z</time></trkpt><trkpt lat="44.716554827050146" lon="7.828117925109024"><ele>277.0</ele><time>2026-04-12T13:37:58Z</time></trkpt><trkpt lat="44.71663930775846" lon="7.828044137176198"><ele>277.0</ele><time>2026-04-12T13:38:00Z</time></trkpt><trkpt lat="44.71674895510031" lon="7.827962665855386"><ele>277.0</ele><time>2026-04-12T13:38:02Z</time></trkpt><trkpt lat="44.71680846438293" lon="7.827919301844762"><ele>277.0</ele><time>2026-04-12T13:38:03Z</time></trkpt><trkpt lat="44.71686606277255" lon="7.827877898987782"><ele>277.0</ele><time>2026-04-12T13:38:04Z</time></trkpt><trkpt lat="44.71692815802573" lon="7.827837341765652"><ele>277.0</ele><time>2026-04-12T13:38:05Z</time></trkpt><trkpt lat="44.717041349861496" lon="7.827758762641775"><ele>277.0</ele><time>2026-04-12T13:38:07Z</time></trkpt><trkpt lat="44.717100748605965" lon="7.827718594618364"><ele>277.0</ele><time>2026-04-12T13:38:08Z</time></trkpt><trkpt lat="44.71720645522384" lon="7.827648407147529"><ele>277.0</ele><time>2026-04-12T13:38:10Z</time></trkpt><trkpt lat="44.7173172932526" lon="7.82758646511677"><ele>277.0</ele><time>2026-04-12T13:38:12Z</time></trkpt><trkpt lat="44.71743101234592" lon="7.8275230649349865"><ele>277.0</ele><time>2026-04-12T13:38:14Z</time></trkpt><trkpt lat="44.71754015403298" lon="7.827463138933979"><ele>277.0</ele><time>2026-04-12T13:38:16Z</time></trkpt><trkpt lat="44.71764709800221" lon="7.827409102915839"><ele>277.0</ele><time>2026-04-12T13:38:18Z</time></trkpt><trkpt lat="44.71775485851498" lon="7.827351584316365"><ele>278.0</ele><time>2026-04-12T13:38:20Z</time></trkpt><trkpt lat="44.71785847438168" lon="7.82729164078459"><ele>279.0</ele><time>2026-04-12T13:38:22Z</time></trkpt><trkpt lat="44.71796692298053" lon="7.8272387214336945"><ele>280.0</ele><time>2026-04-12T13:38:24Z</time></trkpt><trkpt lat="44.71807385350797" lon="7.827181335983648"><ele>281.0</ele><time>2026-04-12T13:38:26Z</time></trkpt><trkpt lat="44.71818643402383" lon="7.827121990620417"><ele>281.0</ele><time>2026-04-12T13:38:28Z</time></trkpt><trkpt lat="44.718249598252434" lon="7.827091528254135"><ele>281.0</ele><time>2026-04-12T13:38:29Z</time></trkpt><trkpt lat="44.7183626572196" lon="7.827040502419853"><ele>281.0</ele><time>2026-04-12T13:38:31Z</time></trkpt><trkpt lat="44.71848218522683" lon="7.826995387314734"><ele>281.0</ele><time>2026-04-12T13:38:33Z</time></trkpt><trkpt lat="44.71858208392454" lon="7.826950926297178"><ele>281.0</ele><time>2026-04-12T13:38:35Z</time></trkpt><trkpt lat="44.71868652235563" lon="7.826908297886523"><ele>281.40000000000003</ele><time>2026-04-12T13:38:37Z</time></trkpt><trkpt lat="44.7187888462869" lon="7.826866171152059"><ele>281.8</ele><time>2026-04-12T13:38:39Z</time></trkpt><trkpt lat="44.718901409155755" lon="7.826814246424563"><ele>282.20000000000005</ele><time>2026-04-12T13:38:41Z</time></trkpt><trkpt lat="44.7190097321061" lon="7.826768615118537"><ele>282.6</ele><time>2026-04-12T13:38:43Z</time></trkpt><trkpt lat="44.71910893431992" lon="7.826727694317524"><ele>283.0</ele><time>2026-04-12T13:38:45Z</time></trkpt><trkpt lat="44.71920300943679" lon="7.826689119210205"><ele>283.0</ele><time>2026-04-12T13:38:47Z</time></trkpt><trkpt lat="44.71931324731118" lon="7.826645608095774"><ele>283.0</ele><time>2026-04-12T13:38:49Z</time></trkpt><trkpt lat="44.719413376981706" lon="7.8266018396242645"><ele>283.0</ele><time>2026-04-12T13:38:51Z</time></trkpt><trkpt lat="44.71951526390793" lon="7.826559492553047"><ele>283.0</ele><time>2026-04-12T13:38:53Z</time></trkpt><trkpt lat="44.719622672995385" lon="7.826514890606062"><ele>283.0</ele><time>2026-04-12T13:38:55Z</time></trkpt><trkpt lat="44.71973144021221" lon="7.826467879451443"><ele>283.8</ele><time>2026-04-12T13:38:57Z</time></trkpt><trkpt lat="44.71983647475831" lon="7.826424588101189"><ele>284.6</ele><time>2026-04-12T13:38:59Z</time></trkpt><trkpt lat="44.7199455533236" lon="7.826380947631667"><ele>285.4</ele><time>2026-04-12T13:39:01Z</time></trkpt><trkpt lat="44.72004683401854" lon="7.826339000225576"><ele>286.2</ele><time>2026-04-12T13:39:03Z</time></trkpt><trkpt lat="44.7201528343811" lon="7.826296689971452"><ele>287.0</ele><time>2026-04-12T13:39:05Z</time></trkpt><trkpt lat="44.720254115456655" lon="7.826253075226441"><ele>288.0</ele><time>2026-04-12T13:39:07Z</time></trkpt><trkpt lat="44.720355123399095" lon="7.826212896004757"><ele>289.0</ele><time>2026-04-12T13:39:09Z</time></trkpt><trkpt lat="44.72045236869483" lon="7.826168723874273"><ele>290.0</ele><time>2026-04-12T13:39:11Z</time></trkpt><trkpt lat="44.72054931750408" lon="7.826129374893827"><ele>291.0</ele><time>2026-04-12T13:39:13Z</time></trkpt><trkpt lat="44.720644281895865" lon="7.826090276244338"><ele>292.0</ele><time>2026-04-12T13:39:15Z</time></trkpt><trkpt lat="44.720739644018984" lon="7.82605155456882"><ele>292.0</ele><time>2026-04-12T13:39:17Z</time></trkpt><trkpt lat="44.72083244451735" lon="7.826022563053085"><ele>292.0</ele><time>2026-04-12T13:39:19Z</time></trkpt><trkpt lat="44.72092584291847" lon="7.825976877142356"><ele>292.0</ele><time>2026-04-12T13:39:21Z</time></trkpt><trkpt lat="44.7210177799489" lon="7.825939204602372"><ele>292.0</ele><time>2026-04-12T13:39:23Z</time></trkpt><trkpt lat="44.7211095781458" lon="7.825900327158466"><ele>292.0</ele><time>2026-04-12T13:39:25Z</time></trkpt><trkpt lat="44.721205975385665" lon="7.825859964519023"><ele>292.2</ele><time>2026-04-12T13:39:27Z</time></trkpt><trkpt lat="44.721293111524105" lon="7.825820781578541"><ele>292.4</ele><time>2026-04-12T13:39:29Z</time></trkpt><trkpt lat="44.721382566750954" lon="7.825783242743163"><ele>292.6</ele><time>2026-04-12T13:39:31Z</time></trkpt><trkpt lat="44.72147111969421" lon="7.825746038976285"><ele>292.8</ele><time>2026-04-12T13:39:33Z</time></trkpt><trkpt lat="44.72156363194654" lon="7.825709280246537"><ele>293.0</ele><time>2026-04-12T13:39:35Z</time></trkpt><trkpt lat="44.72165474948222" lon="7.825664725363054"><ele>293.0</ele><time>2026-04-12T13:39:37Z</time></trkpt><trkpt lat="44.721746425486735" lon="7.825619884128149"><ele>293.0</ele><time>2026-04-12T13:39:39Z</time></trkpt><trkpt lat="44.72182965812132" lon="7.825575513730368"><ele>293.0</ele><time>2026-04-12T13:39:41Z</time></trkpt><trkpt lat="44.721915219542346" lon="7.825522175700723"><ele>293.0</ele><time>2026-04-12T13:39:43Z</time></trkpt><trkpt lat="44.72199971508638" lon="7.825473316185474"><ele>293.0</ele><time>2026-04-12T13:39:45Z</time></trkpt><trkpt lat="44.722084933200335" lon="7.825423162615449"><ele>292.4</ele><time>2026-04-12T13:39:47Z</time></trkpt><trkpt lat="44.72218003951978" lon="7.825363666587023"><ele>291.8</ele><time>2026-04-12T13:39:49Z</time></trkpt><trkpt lat="44.7222796699747" lon="7.82530486280222"><ele>291.2</ele><time>2026-04-12T13:39:51Z</time></trkpt><trkpt lat="44.72237459201833" lon="7.825241923769166"><ele>290.6</ele><time>2026-04-12T13:39:53Z</time></trkpt><trkpt lat="44.7224780381143" lon="7.825172108169684"><ele>290.0</ele><time>2026-04-12T13:39:55Z</time></trkpt><trkpt lat="44.722587326984026" lon="7.8250941063183586"><ele>290.0</ele><time>2026-04-12T13:39:57Z</time></trkpt><trkpt lat="44.72269080096121" lon="7.825024718943209"><ele>290.0</ele><time>2026-04-12T13:39:59Z</time></trkpt><trkpt lat="44.72278820897126" lon="7.82494348870834"><ele>290.0</ele><time>2026-04-12T13:40:01Z</time></trkpt><trkpt lat="44.722884967107866" lon="7.824870725231743"><ele>290.0</ele><time>2026-04-12T13:40:03Z</time></trkpt><trkpt lat="44.72298806107939" lon="7.824777259637218"><ele>291.6</ele><time>2026-04-12T13:40:05Z</time></trkpt><trkpt lat="44.72308251289499" lon="7.824685119435943"><ele>293.2</ele><time>2026-04-12T13:40:07Z</time></trkpt><trkpt lat="44.72317994973894" lon="7.824587104260015"><ele>294.8</ele><time>2026-04-12T13:40:09Z</time></trkpt><trkpt lat="44.72328079696365" lon="7.824489960228299"><ele>296.4</ele><time>2026-04-12T13:40:11Z</time></trkpt><trkpt lat="44.723333072556464" lon="7.824438535648721"><ele>298.0</ele><time>2026-04-12T13:40:12Z</time></trkpt><trkpt lat="44.72343656094154" lon="7.82432898828162"><ele>297.5</ele><time>2026-04-12T13:40:14Z</time></trkpt><trkpt lat="44.72353759949258" lon="7.824223401645322"><ele>297.0</ele><time>2026-04-12T13:40:16Z</time></trkpt><trkpt lat="44.723587955023504" lon="7.8241699092238814"><ele>296.5</ele><time>2026-04-12T13:40:17Z</time></trkpt><trkpt lat="44.723638001861836" lon="7.824113685772894"><ele>296.0</ele><time>2026-04-12T13:40:18Z</time></trkpt><trkpt lat="44.72368772437484" lon="7.824056266870453"><ele>295.5</ele><time>2026-04-12T13:40:19Z</time></trkpt><trkpt lat="44.72373902756893" lon="7.8239944202403535"><ele>295.0</ele><time>2026-04-12T13:40:20Z</time></trkpt><trkpt lat="44.723804774236946" lon="7.823947916600272"><ele>295.00000000000006</ele><time>2026-04-12T13:40:21Z</time></trkpt><trkpt lat="44.723855857004025" lon="7.823880713659828"><ele>295.0</ele><time>2026-04-12T13:40:22Z</time></trkpt><trkpt lat="44.72390718476069" lon="7.823816710449669"><ele>295.0</ele><time>2026-04-12T13:40:23Z</time></trkpt><trkpt lat="44.72395571150946" lon="7.823755081784532"><ele>295.0</ele><time>2026-04-12T13:40:24Z</time></trkpt><trkpt lat="44.72400406238238" lon="7.823688688432939"><ele>295.0</ele><time>2026-04-12T13:40:25Z</time></trkpt><trkpt lat="44.72405175668942" lon="7.823621682768152"><ele>295.00000000000006</ele><time>2026-04-12T13:40:26Z</time></trkpt><trkpt lat="44.72410307745193" lon="7.823554726811079"><ele>295.0</ele><time>2026-04-12T13:40:27Z</time></trkpt><trkpt lat="44.724151765445605" lon="7.823479322018519"><ele>294.8571428571429</ele><time>2026-04-12T13:40:28Z</time></trkpt><trkpt lat="44.72420129628608" lon="7.823407500774617"><ele>294.7142857142857</ele><time>2026-04-12T13:40:29Z</time></trkpt><trkpt lat="44.72424877191622" lon="7.8233368341846665"><ele>294.57142857142856</ele><time>2026-04-12T13:40:30Z</time></trkpt><trkpt lat="44.72429854028202" lon="7.823264612669465"><ele>294.42857142857144</ele><time>2026-04-12T13:40:31Z</time></trkpt><trkpt lat="44.724343789510925" lon="7.82319012297852"><ele>294.2857142857143</ele><time>2026-04-12T13:40:32Z</time></trkpt><trkpt lat="44.72438924632865" lon="7.823118711191496"><ele>294.14285714285717</ele><time>2026-04-12T13:40:33Z</time></trkpt><trkpt lat="44.724435557489265" lon="7.823046777622162"><ele>294.0</ele><time>2026-04-12T13:40:34Z</time></trkpt><trkpt lat="44.724481877916446" lon="7.822972107189615"><ele>294.0</ele><time>2026-04-12T13:40:35Z</time></trkpt><trkpt lat="44.72452663985876" lon="7.822894530643073"><ele>294.0</ele><time>2026-04-12T13:40:36Z</time></trkpt><trkpt lat="44.72457318421395" lon="7.822816489619016"><ele>294.0</ele><time>2026-04-12T13:40:37Z</time></trkpt><trkpt lat="44.72461850530916" lon="7.8227386692840115"><ele>294.0</ele><time>2026-04-12T13:40:38Z</time></trkpt><trkpt lat="44.72466375244893" lon="7.82265968867495"><ele>294.0</ele><time>2026-04-12T13:40:39Z</time></trkpt><trkpt lat="44.724712002952394" lon="7.82257819036763"><ele>294.0</ele><time>2026-04-12T13:40:40Z</time></trkpt><trkpt lat="44.72476146193829" lon="7.8224941388872375"><ele>294.0</ele><time>2026-04-12T13:40:41Z</time></trkpt><trkpt lat="44.724808714133346" lon="7.822414054722546"><ele>292.1666666666667</ele><time>2026-04-12T13:40:42Z</time></trkpt><trkpt lat="44.724858266024455" lon="7.822331032704044"><ele>290.3333333333333</ele><time>2026-04-12T13:40:43Z</time></trkpt><trkpt lat="44.72490562920099" lon="7.8222470924263545"><ele>288.5</ele><time>2026-04-12T13:40:44Z</time></trkpt><trkpt lat="44.724954562864134" lon="7.8221623568448635"><ele>286.66666666666663</ele><time>2026-04-12T13:40:45Z</time></trkpt><trkpt lat="44.725002103477664" lon="7.8220795017192515"><ele>284.8333333333333</ele><time>2026-04-12T13:40:46Z</time></trkpt><trkpt lat="44.72504977706473" lon="7.821995961759631"><ele>283.0</ele><time>2026-04-12T13:40:47Z</time></trkpt><trkpt lat="44.72509807188338" lon="7.821913704727771"><ele>283.0</ele><time>2026-04-12T13:40:48Z</time></trkpt><trkpt lat="44.72514661449399" lon="7.821832192157007"><ele>283.0</ele><time>2026-04-12T13:40:49Z</time></trkpt><trkpt lat="44.72519306680965" lon="7.821748225492837"><ele>283.0</ele><time>2026-04-12T13:40:50Z</time></trkpt><trkpt lat="44.72524142330647" lon="7.821671063641093"><ele>283.0</ele><time>2026-04-12T13:40:51Z</time></trkpt><trkpt lat="44.72528917371428" lon="7.821596199540979"><ele>283.0</ele><time>2026-04-12T13:40:52Z</time></trkpt><trkpt lat="44.72533376684534" lon="7.82152131829327"><ele>283.0</ele><time>2026-04-12T13:40:53Z</time></trkpt><trkpt lat="44.72537905162328" lon="7.821446581176123"><ele>283.0</ele><time>2026-04-12T13:40:54Z</time></trkpt><trkpt lat="44.72542387398011" lon="7.821373402891807"><ele>283.2857142857143</ele><time>2026-04-12T13:40:55Z</time></trkpt><trkpt lat="44.725466864261165" lon="7.821297186265022"><ele>283.5714285714286</ele><time>2026-04-12T13:40:56Z</time></trkpt><trkpt lat="44.72550968885737" lon="7.8212245423102456"><ele>283.8571428571429</ele><time>2026-04-12T13:40:57Z</time></trkpt><trkpt lat="44.725549738629624" lon="7.821151119169721"><ele>284.14285714285717</ele><time>2026-04-12T13:40:58Z</time></trkpt><trkpt lat="44.7255908136956" lon="7.821080371213435"><ele>284.42857142857144</ele><time>2026-04-12T13:40:59Z</time></trkpt><trkpt lat="44.72563187057307" lon="7.8210076799246355"><ele>284.7142857142857</ele><time>2026-04-12T13:41:00Z</time></trkpt><trkpt lat="44.72567595845972" lon="7.82093550252548"><ele>285.0</ele><time>2026-04-12T13:41:01Z</time></trkpt><trkpt lat="44.72572136028826" lon="7.820863586442478"><ele>284.2857142857143</ele><time>2026-04-12T13:41:02Z</time></trkpt><trkpt lat="44.72576370656834" lon="7.820788497393023"><ele>283.57142857142856</ele><time>2026-04-12T13:41:03Z</time></trkpt><trkpt lat="44.72580561793218" lon="7.820715174005519"><ele>282.8571428571429</ele><time>2026-04-12T13:41:04Z</time></trkpt><trkpt lat="44.725847111770726" lon="7.820647264899266"><ele>282.1428571428571</ele><time>2026-04-12T13:41:05Z</time></trkpt><trkpt lat="44.72589068985986" lon="7.820572773415617"><ele>281.42857142857144</ele><time>2026-04-12T13:41:06Z</time></trkpt><trkpt lat="44.72593371188087" lon="7.820498919406535"><ele>280.7142857142857</ele><time>2026-04-12T13:41:07Z</time></trkpt><trkpt lat="44.72597744768223" lon="7.82042610456401"><ele>280.0</ele><time>2026-04-12T13:41:08Z</time></trkpt><trkpt lat="44.72601651422503" lon="7.820352154086428"><ele>280.0</ele><time>2026-04-12T13:41:09Z</time></trkpt><trkpt lat="44.72606069795913" lon="7.820276459250788"><ele>280.0</ele><time>2026-04-12T13:41:10Z</time></trkpt><trkpt lat="44.726105624206156" lon="7.820200772178592"><ele>280.0</ele><time>2026-04-12T13:41:11Z</time></trkpt><trkpt lat="44.72615655276455" lon="7.820122834855386"><ele>280.0</ele><time>2026-04-12T13:41:12Z</time></trkpt><trkpt lat="44.72620161287933" lon="7.820045636116494"><ele>280.0</ele><time>2026-04-12T13:41:13Z</time></trkpt><trkpt lat="44.72624669737177" lon="7.819969726786058"><ele>280.0</ele><time>2026-04-12T13:41:14Z</time></trkpt><trkpt lat="44.72629203846779" lon="7.819892115514611"><ele>280.0</ele><time>2026-04-12T13:41:15Z</time></trkpt><trkpt lat="44.72633697620198" lon="7.819818034704065"><ele>279.8</ele><time>2026-04-12T13:41:16Z</time></trkpt><trkpt lat="44.72637823338859" lon="7.819743735211901"><ele>279.6</ele><time>2026-04-12T13:41:17Z</time></trkpt><trkpt lat="44.72642104081925" lon="7.81967693965637"><ele>279.4</ele><time>2026-04-12T13:41:18Z</time></trkpt><trkpt lat="44.72648761708019" lon="7.819548310587312"><ele>279.2</ele><time>2026-04-12T13:41:20Z</time></trkpt><trkpt lat="44.726561085307104" lon="7.819428181206819"><ele>279.0</ele><time>2026-04-12T13:41:22Z</time></trkpt><trkpt lat="44.72663015843014" lon="7.8193170059623665"><ele>279.0</ele><time>2026-04-12T13:41:24Z</time></trkpt><trkpt lat="44.72670454181788" lon="7.819272633880038"><ele>279.0</ele><time>2026-04-12T13:41:26Z</time></trkpt><trkpt lat="44.72677287220283" lon="7.819408166395381"><ele>279.0</ele><time>2026-04-12T13:41:28Z</time></trkpt><trkpt lat="44.72681862061268" lon="7.819489096650674"><ele>279.0</ele><time>2026-04-12T13:41:30Z</time></trkpt><trkpt lat="44.72686261370212" lon="7.819567080780315"><ele>279.0</ele><time>2026-04-12T13:41:32Z</time></trkpt><trkpt lat="44.726913545435025" lon="7.8196284590273395"><ele>279.0</ele><time>2026-04-12T13:41:34Z</time></trkpt><trkpt lat="44.726945057479284" lon="7.819713613767712"><ele>279.5</ele><time>2026-04-12T13:41:36Z</time></trkpt><trkpt lat="44.7269999970232" lon="7.819811259279386"><ele>280.0</ele><time>2026-04-12T13:41:39Z</time></trkpt><trkpt lat="44.7270493919584" lon="7.8198993874975065"><ele>280.5</ele><time>2026-04-12T13:41:42Z</time></trkpt><trkpt lat="44.72710338828816" lon="7.819977478014645"><ele>281.0</ele><time>2026-04-12T13:41:45Z</time></trkpt><trkpt lat="44.72716197320943" lon="7.820065094995796"><ele>281.5</ele><time>2026-04-12T13:41:48Z</time></trkpt><trkpt lat="44.7271970510661" lon="7.820143099615729"><ele>282.0</ele><time>2026-04-12T13:41:51Z</time></trkpt><trkpt lat="44.7272353698349" lon="7.820223069179677"><ele>282.0</ele><time>2026-04-12T13:41:55Z</time></trkpt><trkpt lat="44.72737608153614" lon="7.820194868486198"><ele>282.0</ele><time>2026-04-12T13:42:01Z</time></trkpt><trkpt lat="44.72745220175392" lon="7.8201262661439594"><ele>282.0</ele><time>2026-04-12T13:42:04Z</time></trkpt><trkpt lat="44.727513007249485" lon="7.820072264433437"><ele>282.0</ele><time>2026-04-12T13:42:07Z</time></trkpt><trkpt lat="44.727570553053845" lon="7.82002095751635"><ele>282.0</ele><time>2026-04-12T13:42:10Z</time></trkpt><trkpt lat="44.72762749275832" lon="7.819970190992057"><ele>282.0</ele><time>2026-04-12T13:42:13Z</time></trkpt><trkpt lat="44.727705971030964" lon="7.819944638583129"><ele>283.8333333333333</ele><time>2026-04-12T13:42:16Z</time></trkpt><trkpt lat="44.72778283724273" lon="7.819888120944839"><ele>285.6666666666667</ele><time>2026-04-12T13:42:20Z</time></trkpt><trkpt lat="44.727855868212295" lon="7.819868194920022"><ele>287.5</ele><time>2026-04-12T13:42:23Z</time></trkpt><trkpt lat="44.72793807205634" lon="7.819867159395088"><ele>289.33333333333337</ele><time>2026-04-12T13:42:26Z</time></trkpt><trkpt lat="44.72800868068334" lon="7.819882924388072"><ele>291.1666666666667</ele><time>2026-04-12T13:42:29Z</time></trkpt><trkpt lat="44.72807958939885" lon="7.819917565950637"><ele>293.0</ele><time>2026-04-12T13:42:33Z</time></trkpt><trkpt lat="44.72815190526997" lon="7.819932466202998"><ele>292.99999999999994</ele><time>2026-04-12T13:42:37Z</time></trkpt><trkpt lat="44.7282170639423" lon="7.819928990208881"><ele>293.0</ele><time>2026-04-12T13:42:40Z</time></trkpt><trkpt lat="44.7282847738319" lon="7.819946972019495"><ele>293.0</ele><time>2026-04-12T13:42:43Z</time></trkpt><trkpt lat="44.728357022901434" lon="7.819958788066387"><ele>293.0</ele><time>2026-04-12T13:42:47Z</time></trkpt><trkpt lat="44.72843100175887" lon="7.820002494338575"><ele>293.0</ele><time>2026-04-12T13:42:51Z</time></trkpt><trkpt lat="44.72849330975894" lon="7.8200198771657945"><ele>292.99999999999994</ele><time>2026-04-12T13:42:54Z</time></trkpt><trkpt lat="44.728563511791386" lon="7.820018334107427"><ele>293.0</ele><time>2026-04-12T13:42:57Z</time></trkpt><trkpt lat="44.72863846360868" lon="7.820042636757479"><ele>294.1666666666667</ele><time>2026-04-12T13:43:01Z</time></trkpt><trkpt lat="44.72871423936003" lon="7.8200601790422715"><ele>295.33333333333337</ele><time>2026-04-12T13:43:05Z</time></trkpt><trkpt lat="44.72879079008006" lon="7.820081934359026"><ele>296.5</ele><time>2026-04-12T13:43:09Z</time></trkpt><trkpt lat="44.72885951306436" lon="7.820110426158534"><ele>297.6666666666667</ele><time>2026-04-12T13:43:14Z</time></trkpt><trkpt lat="44.72893684894309" lon="7.820155103390729"><ele>298.8333333333333</ele><time>2026-04-12T13:43:18Z</time></trkpt><trkpt lat="44.72901070935386" lon="7.820201596603711"><ele>300.0</ele><time>2026-04-12T13:43:23Z</time></trkpt><trkpt lat="44.72906473679114" lon="7.8202613088338"><ele>303.0</ele><time>2026-04-12T13:43:27Z</time></trkpt><trkpt lat="44.72906250393379" lon="7.820364372170061"><ele>306.0</ele><time>2026-04-12T13:43:31Z</time></trkpt><trkpt lat="44.728988664994766" lon="7.820423646491301"><ele>309.0</ele><time>2026-04-12T13:43:35Z</time></trkpt><trkpt lat="44.72894269616716" lon="7.820503327836015"><ele>312.0</ele><time>2026-04-12T13:43:39Z</time></trkpt><trkpt lat="44.72890017246663" lon="7.8205923050060475"><ele>315.0</ele><time>2026-04-12T13:43:43Z</time></trkpt><trkpt lat="44.728865103950845" lon="7.820692001760355"><ele>318.0</ele><time>2026-04-12T13:43:47Z</time></trkpt><trkpt lat="44.72883430030856" lon="7.820786652818513"><ele>318.0</ele><time>2026-04-12T13:43:51Z</time></trkpt><trkpt lat="44.728809695556464" lon="7.820868840906143"><ele>318.0</ele><time>2026-04-12T13:43:54Z</time></trkpt><trkpt lat="44.728765512822505" lon="7.820958811068197"><ele>318.0</ele><time>2026-04-12T13:43:57Z</time></trkpt><trkpt lat="44.72872108921365" lon="7.821027124781896"><ele>318.0</ele><time>2026-04-12T13:44:00Z</time></trkpt><trkpt lat="44.72866074527313" lon="7.821102114598346"><ele>318.0</ele><time>2026-04-12T13:44:03Z</time></trkpt><trkpt lat="44.728593952386284" lon="7.8211747986729465"><ele>318.0</ele><time>2026-04-12T13:44:06Z</time></trkpt><trkpt lat="44.72852066384879" lon="7.821247425307167"><ele>317.6666666666667</ele><time>2026-04-12T13:44:09Z</time></trkpt><trkpt lat="44.72845564386445" lon="7.821300590986118"><ele>317.3333333333333</ele><time>2026-04-12T13:44:12Z</time></trkpt><trkpt lat="44.728388501853495" lon="7.821329162913256"><ele>317.0</ele><time>2026-04-12T13:44:15Z</time></trkpt><trkpt lat="44.728312156634075" lon="7.821346670080523"><ele>316.66666666666663</ele><time>2026-04-12T13:44:18Z</time></trkpt><trkpt lat="44.72822268495144" lon="7.821352394399861"><ele>316.3333333333333</ele><time>2026-04-12T13:44:21Z</time></trkpt><trkpt lat="44.728138546023175" lon="7.821383541556189"><ele>316.0</ele><time>2026-04-12T13:44:23Z</time></trkpt><trkpt lat="44.728071574940124" lon="7.821400361199346"><ele>316.0</ele><time>2026-04-12T13:44:25Z</time></trkpt><trkpt lat="44.72798276158703" lon="7.821414347942097"><ele>316.0</ele><time>2026-04-12T13:44:28Z</time></trkpt><trkpt lat="44.727894776579106" lon="7.821428808323235"><ele>316.0</ele><time>2026-04-12T13:44:31Z</time></trkpt><trkpt lat="44.72781688758641" lon="7.821454475951878"><ele>316.0</ele><time>2026-04-12T13:44:34Z</time></trkpt><trkpt lat="44.727747442157266" lon="7.8215158961706415"><ele>316.0</ele><time>2026-04-12T13:44:37Z</time></trkpt><trkpt lat="44.72768205061565" lon="7.821591290694286"><ele>316.0</ele><time>2026-04-12T13:44:40Z</time></trkpt><trkpt lat="44.72763062019147" lon="7.82167586606533"><ele>316.66666666666663</ele><time>2026-04-12T13:44:43Z</time></trkpt><trkpt lat="44.727642241695285" lon="7.821772726126643"><ele>317.3333333333333</ele><time>2026-04-12T13:44:46Z</time></trkpt><trkpt lat="44.72765768091138" lon="7.821859137285112"><ele>318.0</ele><time>2026-04-12T13:44:51Z</time></trkpt><trkpt lat="44.72767363926573" lon="7.821948453974445"><ele>318.6666666666667</ele><time>2026-04-12T13:44:58Z</time></trkpt><trkpt lat="44.72770647635617" lon="7.822051170322049"><ele>319.33333333333337</ele><time>2026-04-12T13:47:00.378Z</time></trkpt><trkpt lat="44.72770939017791" lon="7.822148546859496"><ele>320.0</ele><time>2026-04-12T13:47:05.101Z</time></trkpt><trkpt lat="44.72781765" lon="7.822165216666668"><ele>322.0</ele><time>2026-04-12T13:47:07.981Z</time></trkpt><trkpt lat="44.72783256666667" lon="7.822251633333334"><ele>324.0</ele><time>2026-04-12T13:47:15.027Z</time></trkpt><trkpt lat="44.727904731449414" lon="7.822464192293419"><ele>326.0</ele><time>2026-04-12T13:47:27Z</time></trkpt><trkpt lat="44.727976857726205" lon="7.822374673567547"><ele>328.0</ele><time>2026-04-12T13:47:30Z</time></trkpt><trkpt lat="44.72803272311084" lon="7.822318598635329"><ele>330.0</ele><time>2026-04-12T13:47:32.999Z</time></trkpt><trkpt lat="44.7280838389708" lon="7.822258557761369"><ele>330.00000000000006</ele><time>2026-04-12T13:47:37.999Z</time></trkpt><trkpt lat="44.72811457978453" lon="7.822177169686441"><ele>330.0</ele><time>2026-04-12T13:47:44.999Z</time></trkpt><trkpt lat="44.728148553342315" lon="7.8220972635818455"><ele>330.0</ele><time>2026-04-12T13:47:52.999Z</time></trkpt><trkpt lat="44.728206489456916" lon="7.822028116209052"><ele>330.0</ele><time>2026-04-12T13:47:59.999Z</time></trkpt><trkpt lat="44.728243789418286" lon="7.821952953650285"><ele>330.0</ele><time>2026-04-12T13:48:12.999Z</time></trkpt><trkpt lat="44.72822634303456" lon="7.822093808969448"><ele>330.00000000000006</ele><time>2026-04-12T14:05:29.999Z</time></trkpt><trkpt lat="44.72816066893462" lon="7.822129782199311"><ele>330.0</ele><time>2026-04-12T14:05:37.999Z</time></trkpt><trkpt lat="44.7280982400927" lon="7.822164045271245"><ele>330.0</ele><time>2026-04-12T14:05:43.999Z</time></trkpt><trkpt lat="44.72805244191668" lon="7.8222340645741015"><ele>330.0</ele><time>2026-04-12T14:05:47.999Z</time></trkpt><trkpt lat="44.72796840810749" lon="7.822313685194023"><ele>330.0</ele><time>2026-04-12T14:05:52.999Z</time></trkpt><trkpt lat="44.727912031356944" lon="7.822368165555853"><ele>330.0</ele><time>2026-04-12T14:06:02.999Z</time></trkpt><trkpt lat="44.72784825808579" lon="7.82230620054745"><ele>330.0</ele><time>2026-04-12T14:06:07.999Z</time></trkpt><trkpt lat="44.72780658949273" lon="7.8222249084154845"><ele>330.0</ele><time>2026-04-12T14:06:13.999Z</time></trkpt><trkpt lat="44.727819636122355" lon="7.822128553585329"><ele>330.00000000000006</ele><time>2026-04-12T14:06:19.999Z</time></trkpt><trkpt lat="44.72783331622892" lon="7.822036277392077"><ele>330.0</ele><time>2026-04-12T14:06:26Z</time></trkpt><trkpt lat="44.72789825364661" lon="7.821987046327958"><ele>330.0</ele><time>2026-04-12T14:07:45.999Z</time></trkpt><trkpt lat="44.72792101251428" lon="7.821897943956975"><ele>330.0</ele><time>2026-04-12T14:07:52.999Z</time></trkpt><trkpt lat="44.72787370526349" lon="7.821838340273312"><ele>330.0</ele><time>2026-04-12T14:07:57.999Z</time></trkpt><trkpt lat="44.72787028579099" lon="7.821748011482995"><ele>330.00000000000006</ele><time>2026-04-12T14:08:05.999Z</time></trkpt><trkpt lat="44.72782107124938" lon="7.821688939448265"><ele>330.0</ele><time>2026-04-12T14:21:35Z</time></trkpt><trkpt lat="44.72788326933766" lon="7.82173358311211"><ele>316.0</ele><time>2026-04-12T14:21:57.999Z</time></trkpt><trkpt lat="44.72792385517475" lon="7.821803423017098"><ele>316.0</ele><time>2026-04-12T14:22:12.999Z</time></trkpt></trkseg></trk></gpx>